<?xml version="1.0" encoding="utf-8"?>
<gpx xmlns="http://www.topografix.com/GPX/1/1" version="1.1" creator="https://mapy.com/">
	<trk>
		<name>Марагидик кръгов</name>
		<trkseg>
			<trkpt lat="42.801514" lon="24.973321">
				<ele>673.000000</ele>
				<time>2025-07-12T06:17:13Z</time>
			</trkpt>
			<trkpt lat="42.801519" lon="24.973327">
				<ele>673.000000</ele>
				<time>2025-07-12T06:17:14Z</time>
			</trkpt>
			<trkpt lat="42.801460" lon="24.973341">
				<ele>673.000000</ele>
				<time>2025-07-12T06:17:22Z</time>
			</trkpt>
			<trkpt lat="42.801450" lon="24.973344">
				<ele>674.000000</ele>
				<time>2025-07-12T06:17:23Z</time>
			</trkpt>
			<trkpt lat="42.801446" lon="24.973349">
				<ele>674.000000</ele>
				<time>2025-07-12T06:17:24Z</time>
			</trkpt>
			<trkpt lat="42.801437" lon="24.973353">
				<ele>674.000000</ele>
				<time>2025-07-12T06:17:25Z</time>
			</trkpt>
			<trkpt lat="42.801427" lon="24.973353">
				<ele>674.000000</ele>
				<time>2025-07-12T06:17:26Z</time>
			</trkpt>
			<trkpt lat="42.801407" lon="24.973347">
				<ele>674.000000</ele>
				<time>2025-07-12T06:17:28Z</time>
			</trkpt>
			<trkpt lat="42.801332" lon="24.973307">
				<ele>674.000000</ele>
				<time>2025-07-12T06:17:35Z</time>
			</trkpt>
			<trkpt lat="42.801301" lon="24.973294">
				<ele>674.000000</ele>
				<time>2025-07-12T06:17:38Z</time>
			</trkpt>
			<trkpt lat="42.801247" lon="24.973282">
				<ele>675.000000</ele>
				<time>2025-07-12T06:17:44Z</time>
			</trkpt>
			<trkpt lat="42.801204" lon="24.973268">
				<ele>675.000000</ele>
				<time>2025-07-12T06:17:50Z</time>
			</trkpt>
			<trkpt lat="42.801194" lon="24.973266">
				<ele>675.000000</ele>
				<time>2025-07-12T06:17:51Z</time>
			</trkpt>
			<trkpt lat="42.801146" lon="24.973249">
				<ele>676.000000</ele>
				<time>2025-07-12T06:17:57Z</time>
			</trkpt>
			<trkpt lat="42.801138" lon="24.973243">
				<ele>676.000000</ele>
				<time>2025-07-12T06:17:58Z</time>
			</trkpt>
			<trkpt lat="42.801094" lon="24.973233">
				<ele>676.000000</ele>
				<time>2025-07-12T06:18:03Z</time>
			</trkpt>
			<trkpt lat="42.801082" lon="24.973227">
				<ele>676.000000</ele>
				<time>2025-07-12T06:18:04Z</time>
			</trkpt>
			<trkpt lat="42.801049" lon="24.973217">
				<ele>676.000000</ele>
				<time>2025-07-12T06:18:06Z</time>
			</trkpt>
			<trkpt lat="42.800990" lon="24.973206">
				<ele>677.000000</ele>
				<time>2025-07-12T06:18:11Z</time>
			</trkpt>
			<trkpt lat="42.800920" lon="24.973176">
				<ele>677.000000</ele>
				<time>2025-07-12T06:18:18Z</time>
			</trkpt>
			<trkpt lat="42.800896" lon="24.973172">
				<ele>678.000000</ele>
				<time>2025-07-12T06:18:21Z</time>
			</trkpt>
			<trkpt lat="42.800848" lon="24.973154">
				<ele>678.000000</ele>
				<time>2025-07-12T06:18:26Z</time>
			</trkpt>
			<trkpt lat="42.800771" lon="24.973105">
				<ele>679.000000</ele>
				<time>2025-07-12T06:18:34Z</time>
			</trkpt>
			<trkpt lat="42.800760" lon="24.973100">
				<ele>679.000000</ele>
				<time>2025-07-12T06:18:35Z</time>
			</trkpt>
			<trkpt lat="42.800716" lon="24.973083">
				<ele>679.000000</ele>
				<time>2025-07-12T06:18:39Z</time>
			</trkpt>
			<trkpt lat="42.800697" lon="24.973070">
				<ele>679.000000</ele>
				<time>2025-07-12T06:18:41Z</time>
			</trkpt>
			<trkpt lat="42.800652" lon="24.973049">
				<ele>680.000000</ele>
				<time>2025-07-12T06:18:46Z</time>
			</trkpt>
			<trkpt lat="42.800644" lon="24.973044">
				<ele>680.000000</ele>
				<time>2025-07-12T06:18:47Z</time>
			</trkpt>
			<trkpt lat="42.800562" lon="24.973013">
				<ele>681.000000</ele>
				<time>2025-07-12T06:18:55Z</time>
			</trkpt>
			<trkpt lat="42.800494" lon="24.972973">
				<ele>681.000000</ele>
				<time>2025-07-12T06:19:02Z</time>
			</trkpt>
			<trkpt lat="42.800453" lon="24.972951">
				<ele>682.000000</ele>
				<time>2025-07-12T06:19:06Z</time>
			</trkpt>
			<trkpt lat="42.800419" lon="24.972932">
				<ele>682.000000</ele>
				<time>2025-07-12T06:19:09Z</time>
			</trkpt>
			<trkpt lat="42.800365" lon="24.972914">
				<ele>682.000000</ele>
				<time>2025-07-12T06:19:14Z</time>
			</trkpt>
			<trkpt lat="42.800341" lon="24.972899">
				<ele>682.000000</ele>
				<time>2025-07-12T06:19:16Z</time>
			</trkpt>
			<trkpt lat="42.800313" lon="24.972883">
				<ele>683.000000</ele>
				<time>2025-07-12T06:19:19Z</time>
			</trkpt>
			<trkpt lat="42.800309" lon="24.972876">
				<ele>683.000000</ele>
				<time>2025-07-12T06:19:20Z</time>
			</trkpt>
			<trkpt lat="42.800284" lon="24.972863">
				<ele>683.000000</ele>
				<time>2025-07-12T06:19:23Z</time>
			</trkpt>
			<trkpt lat="42.800229" lon="24.972836">
				<ele>683.000000</ele>
				<time>2025-07-12T06:19:29Z</time>
			</trkpt>
			<trkpt lat="42.800158" lon="24.972816">
				<ele>684.000000</ele>
				<time>2025-07-12T06:19:37Z</time>
			</trkpt>
			<trkpt lat="42.800143" lon="24.972805">
				<ele>684.000000</ele>
				<time>2025-07-12T06:19:39Z</time>
			</trkpt>
			<trkpt lat="42.800081" lon="24.972777">
				<ele>684.000000</ele>
				<time>2025-07-12T06:19:45Z</time>
			</trkpt>
			<trkpt lat="42.800032" lon="24.972757">
				<ele>685.000000</ele>
				<time>2025-07-12T06:19:50Z</time>
			</trkpt>
			<trkpt lat="42.799984" lon="24.972741">
				<ele>685.000000</ele>
				<time>2025-07-12T06:19:55Z</time>
			</trkpt>
			<trkpt lat="42.799932" lon="24.972702">
				<ele>686.000000</ele>
				<time>2025-07-12T06:20:01Z</time>
			</trkpt>
			<trkpt lat="42.799913" lon="24.972687">
				<ele>686.000000</ele>
				<time>2025-07-12T06:20:03Z</time>
			</trkpt>
			<trkpt lat="42.799868" lon="24.972661">
				<ele>686.000000</ele>
				<time>2025-07-12T06:20:07Z</time>
			</trkpt>
			<trkpt lat="42.799846" lon="24.972649">
				<ele>686.000000</ele>
				<time>2025-07-12T06:20:09Z</time>
			</trkpt>
			<trkpt lat="42.799762" lon="24.972629">
				<ele>687.000000</ele>
				<time>2025-07-12T06:20:16Z</time>
			</trkpt>
			<trkpt lat="42.799751" lon="24.972623">
				<ele>687.000000</ele>
				<time>2025-07-12T06:20:17Z</time>
			</trkpt>
			<trkpt lat="42.799675" lon="24.972586">
				<ele>687.000000</ele>
				<time>2025-07-12T06:20:25Z</time>
			</trkpt>
			<trkpt lat="42.799587" lon="24.972558">
				<ele>688.000000</ele>
				<time>2025-07-12T06:20:33Z</time>
			</trkpt>
			<trkpt lat="42.799566" lon="24.972553">
				<ele>688.000000</ele>
				<time>2025-07-12T06:20:36Z</time>
			</trkpt>
			<trkpt lat="42.799539" lon="24.972543">
				<ele>688.000000</ele>
				<time>2025-07-12T06:20:39Z</time>
			</trkpt>
			<trkpt lat="42.799485" lon="24.972519">
				<ele>688.000000</ele>
				<time>2025-07-12T06:20:44Z</time>
			</trkpt>
			<trkpt lat="42.799454" lon="24.972513">
				<ele>688.000000</ele>
				<time>2025-07-12T06:20:47Z</time>
			</trkpt>
			<trkpt lat="42.799390" lon="24.972491">
				<ele>689.000000</ele>
				<time>2025-07-12T06:20:53Z</time>
			</trkpt>
			<trkpt lat="42.799370" lon="24.972492">
				<ele>689.000000</ele>
				<time>2025-07-12T06:20:55Z</time>
			</trkpt>
			<trkpt lat="42.799301" lon="24.972468">
				<ele>689.000000</ele>
				<time>2025-07-12T06:21:02Z</time>
			</trkpt>
			<trkpt lat="42.799244" lon="24.972447">
				<ele>689.000000</ele>
				<time>2025-07-12T06:21:07Z</time>
			</trkpt>
			<trkpt lat="42.799226" lon="24.972437">
				<ele>689.000000</ele>
				<time>2025-07-12T06:21:09Z</time>
			</trkpt>
			<trkpt lat="42.799149" lon="24.972401">
				<ele>690.000000</ele>
				<time>2025-07-12T06:21:16Z</time>
			</trkpt>
			<trkpt lat="42.799116" lon="24.972392">
				<ele>690.000000</ele>
				<time>2025-07-12T06:21:20Z</time>
			</trkpt>
			<trkpt lat="42.799110" lon="24.972391">
				<ele>690.000000</ele>
				<time>2025-07-12T06:21:22Z</time>
			</trkpt>
			<trkpt lat="42.799107" lon="24.972366">
				<ele>690.000000</ele>
				<time>2025-07-12T06:21:32Z</time>
			</trkpt>
			<trkpt lat="42.799078" lon="24.972358">
				<ele>690.000000</ele>
				<time>2025-07-12T06:21:35Z</time>
			</trkpt>
			<trkpt lat="42.799052" lon="24.972349">
				<ele>690.000000</ele>
				<time>2025-07-12T06:21:38Z</time>
			</trkpt>
			<trkpt lat="42.799046" lon="24.972345">
				<ele>690.000000</ele>
				<time>2025-07-12T06:21:39Z</time>
			</trkpt>
			<trkpt lat="42.798978" lon="24.972306">
				<ele>691.000000</ele>
				<time>2025-07-12T06:21:47Z</time>
			</trkpt>
			<trkpt lat="42.798969" lon="24.972299">
				<ele>691.000000</ele>
				<time>2025-07-12T06:21:48Z</time>
			</trkpt>
			<trkpt lat="42.798865" lon="24.972252">
				<ele>692.000000</ele>
				<time>2025-07-12T06:21:58Z</time>
			</trkpt>
			<trkpt lat="42.798800" lon="24.972248">
				<ele>693.000000</ele>
				<time>2025-07-12T06:22:04Z</time>
			</trkpt>
			<trkpt lat="42.798778" lon="24.972247">
				<ele>693.000000</ele>
				<time>2025-07-12T06:22:06Z</time>
			</trkpt>
			<trkpt lat="42.798736" lon="24.972240">
				<ele>694.000000</ele>
				<time>2025-07-12T06:22:10Z</time>
			</trkpt>
			<trkpt lat="42.798714" lon="24.972244">
				<ele>694.000000</ele>
				<time>2025-07-12T06:22:13Z</time>
			</trkpt>
			<trkpt lat="42.798681" lon="24.972248">
				<ele>694.000000</ele>
				<time>2025-07-12T06:22:16Z</time>
			</trkpt>
			<trkpt lat="42.798640" lon="24.972242">
				<ele>695.000000</ele>
				<time>2025-07-12T06:22:20Z</time>
			</trkpt>
			<trkpt lat="42.798571" lon="24.972208">
				<ele>695.000000</ele>
				<time>2025-07-12T06:22:26Z</time>
			</trkpt>
			<trkpt lat="42.798580" lon="24.972189">
				<ele>695.000000</ele>
				<time>2025-07-12T06:22:32Z</time>
			</trkpt>
			<trkpt lat="42.798586" lon="24.972191">
				<ele>695.000000</ele>
				<time>2025-07-12T06:22:34Z</time>
			</trkpt>
			<trkpt lat="42.798569" lon="24.972197">
				<ele>695.000000</ele>
				<time>2025-07-12T06:22:39Z</time>
			</trkpt>
			<trkpt lat="42.798565" lon="24.972197">
				<ele>696.000000</ele>
				<time>2025-07-12T06:22:40Z</time>
			</trkpt>
			<trkpt lat="42.798552" lon="24.972201">
				<ele>696.000000</ele>
				<time>2025-07-12T06:22:42Z</time>
			</trkpt>
			<trkpt lat="42.798506" lon="24.972220">
				<ele>696.000000</ele>
				<time>2025-07-12T06:22:48Z</time>
			</trkpt>
			<trkpt lat="42.798500" lon="24.972226">
				<ele>696.000000</ele>
				<time>2025-07-12T06:22:50Z</time>
			</trkpt>
			<trkpt lat="42.798458" lon="24.972242">
				<ele>697.000000</ele>
				<time>2025-07-12T06:22:57Z</time>
			</trkpt>
			<trkpt lat="42.798405" lon="24.972238">
				<ele>697.000000</ele>
				<time>2025-07-12T06:23:03Z</time>
			</trkpt>
			<trkpt lat="42.798375" lon="24.972238">
				<ele>698.000000</ele>
				<time>2025-07-12T06:23:06Z</time>
			</trkpt>
			<trkpt lat="42.798330" lon="24.972240">
				<ele>698.000000</ele>
				<time>2025-07-12T06:23:11Z</time>
			</trkpt>
			<trkpt lat="42.798313" lon="24.972230">
				<ele>699.000000</ele>
				<time>2025-07-12T06:23:13Z</time>
			</trkpt>
			<trkpt lat="42.798232" lon="24.972205">
				<ele>699.000000</ele>
				<time>2025-07-12T06:23:20Z</time>
			</trkpt>
			<trkpt lat="42.798220" lon="24.972201">
				<ele>699.000000</ele>
				<time>2025-07-12T06:23:21Z</time>
			</trkpt>
			<trkpt lat="42.798151" lon="24.972179">
				<ele>700.000000</ele>
				<time>2025-07-12T06:23:28Z</time>
			</trkpt>
			<trkpt lat="42.798136" lon="24.972172">
				<ele>700.000000</ele>
				<time>2025-07-12T06:23:30Z</time>
			</trkpt>
			<trkpt lat="42.798088" lon="24.972154">
				<ele>701.000000</ele>
				<time>2025-07-12T06:23:35Z</time>
			</trkpt>
			<trkpt lat="42.798034" lon="24.972117">
				<ele>701.000000</ele>
				<time>2025-07-12T06:23:41Z</time>
			</trkpt>
			<trkpt lat="42.798028" lon="24.972108">
				<ele>702.000000</ele>
				<time>2025-07-12T06:23:42Z</time>
			</trkpt>
			<trkpt lat="42.797980" lon="24.972011">
				<ele>702.000000</ele>
				<time>2025-07-12T06:23:49Z</time>
			</trkpt>
			<trkpt lat="42.797974" lon="24.971996">
				<ele>702.000000</ele>
				<time>2025-07-12T06:23:50Z</time>
			</trkpt>
			<trkpt lat="42.797927" lon="24.971936">
				<ele>703.000000</ele>
				<time>2025-07-12T06:23:57Z</time>
			</trkpt>
			<trkpt lat="42.797891" lon="24.971922">
				<ele>704.000000</ele>
				<time>2025-07-12T06:24:00Z</time>
			</trkpt>
			<trkpt lat="42.797840" lon="24.971892">
				<ele>704.000000</ele>
				<time>2025-07-12T06:24:05Z</time>
			</trkpt>
			<trkpt lat="42.797790" lon="24.971873">
				<ele>705.000000</ele>
				<time>2025-07-12T06:24:10Z</time>
			</trkpt>
			<trkpt lat="42.797773" lon="24.971862">
				<ele>705.000000</ele>
				<time>2025-07-12T06:24:12Z</time>
			</trkpt>
			<trkpt lat="42.797689" lon="24.971825">
				<ele>705.000000</ele>
				<time>2025-07-12T06:24:20Z</time>
			</trkpt>
			<trkpt lat="42.797661" lon="24.971815">
				<ele>706.000000</ele>
				<time>2025-07-12T06:24:22Z</time>
			</trkpt>
			<trkpt lat="42.797615" lon="24.971776">
				<ele>706.000000</ele>
				<time>2025-07-12T06:24:28Z</time>
			</trkpt>
			<trkpt lat="42.797563" lon="24.971748">
				<ele>707.000000</ele>
				<time>2025-07-12T06:24:34Z</time>
			</trkpt>
			<trkpt lat="42.797526" lon="24.971725">
				<ele>707.000000</ele>
				<time>2025-07-12T06:24:38Z</time>
			</trkpt>
			<trkpt lat="42.797473" lon="24.971694">
				<ele>708.000000</ele>
				<time>2025-07-12T06:24:43Z</time>
			</trkpt>
			<trkpt lat="42.797449" lon="24.971680">
				<ele>708.000000</ele>
				<time>2025-07-12T06:24:45Z</time>
			</trkpt>
			<trkpt lat="42.797372" lon="24.971635">
				<ele>709.000000</ele>
				<time>2025-07-12T06:24:53Z</time>
			</trkpt>
			<trkpt lat="42.797299" lon="24.971586">
				<ele>710.000000</ele>
				<time>2025-07-12T06:25:00Z</time>
			</trkpt>
			<trkpt lat="42.797276" lon="24.971572">
				<ele>710.000000</ele>
				<time>2025-07-12T06:25:03Z</time>
			</trkpt>
			<trkpt lat="42.797239" lon="24.971542">
				<ele>710.000000</ele>
				<time>2025-07-12T06:25:07Z</time>
			</trkpt>
			<trkpt lat="42.797170" lon="24.971509">
				<ele>711.000000</ele>
				<time>2025-07-12T06:25:13Z</time>
			</trkpt>
			<trkpt lat="42.797144" lon="24.971500">
				<ele>711.000000</ele>
				<time>2025-07-12T06:25:16Z</time>
			</trkpt>
			<trkpt lat="42.797066" lon="24.971504">
				<ele>712.000000</ele>
				<time>2025-07-12T06:25:23Z</time>
			</trkpt>
			<trkpt lat="42.797044" lon="24.971501">
				<ele>712.000000</ele>
				<time>2025-07-12T06:25:25Z</time>
			</trkpt>
			<trkpt lat="42.796973" lon="24.971507">
				<ele>713.000000</ele>
				<time>2025-07-12T06:25:31Z</time>
			</trkpt>
			<trkpt lat="42.796917" lon="24.971523">
				<ele>713.000000</ele>
				<time>2025-07-12T06:25:37Z</time>
			</trkpt>
			<trkpt lat="42.796910" lon="24.971523">
				<ele>713.000000</ele>
				<time>2025-07-12T06:25:38Z</time>
			</trkpt>
			<trkpt lat="42.796836" lon="24.971550">
				<ele>714.000000</ele>
				<time>2025-07-12T06:25:45Z</time>
			</trkpt>
			<trkpt lat="42.796775" lon="24.971564">
				<ele>714.000000</ele>
				<time>2025-07-12T06:25:50Z</time>
			</trkpt>
			<trkpt lat="42.796741" lon="24.971563">
				<ele>714.000000</ele>
				<time>2025-07-12T06:25:53Z</time>
			</trkpt>
			<trkpt lat="42.796636" lon="24.971597">
				<ele>715.000000</ele>
				<time>2025-07-12T06:26:03Z</time>
			</trkpt>
			<trkpt lat="42.796614" lon="24.971607">
				<ele>715.000000</ele>
				<time>2025-07-12T06:26:06Z</time>
			</trkpt>
			<trkpt lat="42.796553" lon="24.971625">
				<ele>715.000000</ele>
				<time>2025-07-12T06:26:11Z</time>
			</trkpt>
			<trkpt lat="42.796488" lon="24.971634">
				<ele>716.000000</ele>
				<time>2025-07-12T06:26:17Z</time>
			</trkpt>
			<trkpt lat="42.796466" lon="24.971637">
				<ele>716.000000</ele>
				<time>2025-07-12T06:26:19Z</time>
			</trkpt>
			<trkpt lat="42.796372" lon="24.971654">
				<ele>716.000000</ele>
				<time>2025-07-12T06:26:27Z</time>
			</trkpt>
			<trkpt lat="42.796354" lon="24.971664">
				<ele>716.000000</ele>
				<time>2025-07-12T06:26:29Z</time>
			</trkpt>
			<trkpt lat="42.796285" lon="24.971682">
				<ele>717.000000</ele>
				<time>2025-07-12T06:26:35Z</time>
			</trkpt>
			<trkpt lat="42.796207" lon="24.971705">
				<ele>717.000000</ele>
				<time>2025-07-12T06:26:43Z</time>
			</trkpt>
			<trkpt lat="42.796190" lon="24.971708">
				<ele>717.000000</ele>
				<time>2025-07-12T06:26:45Z</time>
			</trkpt>
			<trkpt lat="42.796118" lon="24.971720">
				<ele>718.000000</ele>
				<time>2025-07-12T06:26:51Z</time>
			</trkpt>
			<trkpt lat="42.796032" lon="24.971709">
				<ele>718.000000</ele>
				<time>2025-07-12T06:26:58Z</time>
			</trkpt>
			<trkpt lat="42.796015" lon="24.971709">
				<ele>718.000000</ele>
				<time>2025-07-12T06:27:00Z</time>
			</trkpt>
			<trkpt lat="42.795950" lon="24.971704">
				<ele>719.000000</ele>
				<time>2025-07-12T06:27:06Z</time>
			</trkpt>
			<trkpt lat="42.795911" lon="24.971700">
				<ele>719.000000</ele>
				<time>2025-07-12T06:27:11Z</time>
			</trkpt>
			<trkpt lat="42.795881" lon="24.971707">
				<ele>720.000000</ele>
				<time>2025-07-12T06:27:14Z</time>
			</trkpt>
			<trkpt lat="42.795803" lon="24.971729">
				<ele>720.000000</ele>
				<time>2025-07-12T06:27:22Z</time>
			</trkpt>
			<trkpt lat="42.795713" lon="24.971741">
				<ele>721.000000</ele>
				<time>2025-07-12T06:27:28Z</time>
			</trkpt>
			<trkpt lat="42.795700" lon="24.971743">
				<ele>721.000000</ele>
				<time>2025-07-12T06:27:29Z</time>
			</trkpt>
			<trkpt lat="42.795647" lon="24.971748">
				<ele>721.000000</ele>
				<time>2025-07-12T06:27:35Z</time>
			</trkpt>
			<trkpt lat="42.795595" lon="24.971759">
				<ele>722.000000</ele>
				<time>2025-07-12T06:27:41Z</time>
			</trkpt>
			<trkpt lat="42.795547" lon="24.971788">
				<ele>722.000000</ele>
				<time>2025-07-12T06:27:46Z</time>
			</trkpt>
			<trkpt lat="42.795494" lon="24.971822">
				<ele>723.000000</ele>
				<time>2025-07-12T06:27:51Z</time>
			</trkpt>
			<trkpt lat="42.795463" lon="24.971833">
				<ele>723.000000</ele>
				<time>2025-07-12T06:27:54Z</time>
			</trkpt>
			<trkpt lat="42.795451" lon="24.971837">
				<ele>723.000000</ele>
				<time>2025-07-12T06:27:55Z</time>
			</trkpt>
			<trkpt lat="42.795424" lon="24.971838">
				<ele>724.000000</ele>
				<time>2025-07-12T06:27:58Z</time>
			</trkpt>
			<trkpt lat="42.795392" lon="24.971846">
				<ele>725.000000</ele>
				<time>2025-07-12T06:28:02Z</time>
			</trkpt>
			<trkpt lat="42.795347" lon="24.971865">
				<ele>725.000000</ele>
				<time>2025-07-12T06:28:07Z</time>
			</trkpt>
			<trkpt lat="42.795300" lon="24.971865">
				<ele>726.000000</ele>
				<time>2025-07-12T06:28:11Z</time>
			</trkpt>
			<trkpt lat="42.795281" lon="24.971868">
				<ele>726.000000</ele>
				<time>2025-07-12T06:28:13Z</time>
			</trkpt>
			<trkpt lat="42.795204" lon="24.971874">
				<ele>727.000000</ele>
				<time>2025-07-12T06:28:21Z</time>
			</trkpt>
			<trkpt lat="42.795194" lon="24.971872">
				<ele>727.000000</ele>
				<time>2025-07-12T06:28:22Z</time>
			</trkpt>
			<trkpt lat="42.795133" lon="24.971902">
				<ele>728.000000</ele>
				<time>2025-07-12T06:28:28Z</time>
			</trkpt>
			<trkpt lat="42.795125" lon="24.971904">
				<ele>728.000000</ele>
				<time>2025-07-12T06:28:29Z</time>
			</trkpt>
			<trkpt lat="42.795113" lon="24.971906">
				<ele>728.000000</ele>
				<time>2025-07-12T06:28:30Z</time>
			</trkpt>
			<trkpt lat="42.795084" lon="24.971909">
				<ele>728.000000</ele>
				<time>2025-07-12T06:28:33Z</time>
			</trkpt>
			<trkpt lat="42.795043" lon="24.971913">
				<ele>728.000000</ele>
				<time>2025-07-12T06:28:37Z</time>
			</trkpt>
			<trkpt lat="42.794958" lon="24.971920">
				<ele>729.000000</ele>
				<time>2025-07-12T06:28:45Z</time>
			</trkpt>
			<trkpt lat="42.794893" lon="24.971927">
				<ele>729.000000</ele>
				<time>2025-07-12T06:28:52Z</time>
			</trkpt>
			<trkpt lat="42.794865" lon="24.971931">
				<ele>730.000000</ele>
				<time>2025-07-12T06:28:55Z</time>
			</trkpt>
			<trkpt lat="42.794823" lon="24.971925">
				<ele>730.000000</ele>
				<time>2025-07-12T06:28:59Z</time>
			</trkpt>
			<trkpt lat="42.794787" lon="24.971933">
				<ele>730.000000</ele>
				<time>2025-07-12T06:29:02Z</time>
			</trkpt>
			<trkpt lat="42.794758" lon="24.971943">
				<ele>731.000000</ele>
				<time>2025-07-12T06:29:05Z</time>
			</trkpt>
			<trkpt lat="42.794747" lon="24.971947">
				<ele>731.000000</ele>
				<time>2025-07-12T06:29:06Z</time>
			</trkpt>
			<trkpt lat="42.794704" lon="24.971965">
				<ele>732.000000</ele>
				<time>2025-07-12T06:29:11Z</time>
			</trkpt>
			<trkpt lat="42.794685" lon="24.971965">
				<ele>732.000000</ele>
				<time>2025-07-12T06:29:13Z</time>
			</trkpt>
			<trkpt lat="42.794673" lon="24.971965">
				<ele>732.000000</ele>
				<time>2025-07-12T06:29:14Z</time>
			</trkpt>
			<trkpt lat="42.794607" lon="24.971980">
				<ele>733.000000</ele>
				<time>2025-07-12T06:29:21Z</time>
			</trkpt>
			<trkpt lat="42.794597" lon="24.971981">
				<ele>733.000000</ele>
				<time>2025-07-12T06:29:22Z</time>
			</trkpt>
			<trkpt lat="42.794523" lon="24.971994">
				<ele>734.000000</ele>
				<time>2025-07-12T06:29:29Z</time>
			</trkpt>
			<trkpt lat="42.794514" lon="24.971994">
				<ele>734.000000</ele>
				<time>2025-07-12T06:29:30Z</time>
			</trkpt>
			<trkpt lat="42.794466" lon="24.972014">
				<ele>735.000000</ele>
				<time>2025-07-12T06:29:36Z</time>
			</trkpt>
			<trkpt lat="42.794405" lon="24.972032">
				<ele>735.000000</ele>
				<time>2025-07-12T06:29:41Z</time>
			</trkpt>
			<trkpt lat="42.794363" lon="24.972045">
				<ele>736.000000</ele>
				<time>2025-07-12T06:29:45Z</time>
			</trkpt>
			<trkpt lat="42.794330" lon="24.972054">
				<ele>736.000000</ele>
				<time>2025-07-12T06:29:48Z</time>
			</trkpt>
			<trkpt lat="42.794308" lon="24.972065">
				<ele>737.000000</ele>
				<time>2025-07-12T06:29:53Z</time>
			</trkpt>
			<trkpt lat="42.794242" lon="24.972091">
				<ele>737.000000</ele>
				<time>2025-07-12T06:30:00Z</time>
			</trkpt>
			<trkpt lat="42.794240" lon="24.972106">
				<ele>737.000000</ele>
				<time>2025-07-12T06:30:01Z</time>
			</trkpt>
			<trkpt lat="42.794181" lon="24.972179">
				<ele>738.000000</ele>
				<time>2025-07-12T06:30:08Z</time>
			</trkpt>
			<trkpt lat="42.794108" lon="24.972232">
				<ele>738.000000</ele>
				<time>2025-07-12T06:30:17Z</time>
			</trkpt>
			<trkpt lat="42.794070" lon="24.972262">
				<ele>738.000000</ele>
				<time>2025-07-12T06:30:20Z</time>
			</trkpt>
			<trkpt lat="42.794044" lon="24.972295">
				<ele>739.000000</ele>
				<time>2025-07-12T06:30:24Z</time>
			</trkpt>
			<trkpt lat="42.793999" lon="24.972330">
				<ele>739.000000</ele>
				<time>2025-07-12T06:30:29Z</time>
			</trkpt>
			<trkpt lat="42.793975" lon="24.972348">
				<ele>739.000000</ele>
				<time>2025-07-12T06:30:32Z</time>
			</trkpt>
			<trkpt lat="42.793966" lon="24.972352">
				<ele>739.000000</ele>
				<time>2025-07-12T06:30:33Z</time>
			</trkpt>
			<trkpt lat="42.793906" lon="24.972396">
				<ele>739.000000</ele>
				<time>2025-07-12T06:30:40Z</time>
			</trkpt>
			<trkpt lat="42.793870" lon="24.972423">
				<ele>739.000000</ele>
				<time>2025-07-12T06:30:44Z</time>
			</trkpt>
			<trkpt lat="42.793843" lon="24.972448">
				<ele>740.000000</ele>
				<time>2025-07-12T06:30:47Z</time>
			</trkpt>
			<trkpt lat="42.793798" lon="24.972488">
				<ele>740.000000</ele>
				<time>2025-07-12T06:30:54Z</time>
			</trkpt>
			<trkpt lat="42.793794" lon="24.972484">
				<ele>740.000000</ele>
				<time>2025-07-12T06:30:55Z</time>
			</trkpt>
			<trkpt lat="42.793748" lon="24.972533">
				<ele>741.000000</ele>
				<time>2025-07-12T06:31:02Z</time>
			</trkpt>
			<trkpt lat="42.793676" lon="24.972561">
				<ele>741.000000</ele>
				<time>2025-07-12T06:31:10Z</time>
			</trkpt>
			<trkpt lat="42.793670" lon="24.972568">
				<ele>742.000000</ele>
				<time>2025-07-12T06:31:11Z</time>
			</trkpt>
			<trkpt lat="42.793610" lon="24.972598">
				<ele>742.000000</ele>
				<time>2025-07-12T06:31:17Z</time>
			</trkpt>
			<trkpt lat="42.793563" lon="24.972635">
				<ele>743.000000</ele>
				<time>2025-07-12T06:31:22Z</time>
			</trkpt>
			<trkpt lat="42.793530" lon="24.972664">
				<ele>743.000000</ele>
				<time>2025-07-12T06:31:26Z</time>
			</trkpt>
			<trkpt lat="42.793476" lon="24.972692">
				<ele>744.000000</ele>
				<time>2025-07-12T06:31:33Z</time>
			</trkpt>
			<trkpt lat="42.793414" lon="24.972742">
				<ele>744.000000</ele>
				<time>2025-07-12T06:31:40Z</time>
			</trkpt>
			<trkpt lat="42.793374" lon="24.972779">
				<ele>745.000000</ele>
				<time>2025-07-12T06:31:45Z</time>
			</trkpt>
			<trkpt lat="42.793359" lon="24.972796">
				<ele>745.000000</ele>
				<time>2025-07-12T06:31:47Z</time>
			</trkpt>
			<trkpt lat="42.793289" lon="24.972851">
				<ele>746.000000</ele>
				<time>2025-07-12T06:31:55Z</time>
			</trkpt>
			<trkpt lat="42.793260" lon="24.972876">
				<ele>746.000000</ele>
				<time>2025-07-12T06:31:58Z</time>
			</trkpt>
			<trkpt lat="42.793229" lon="24.972904">
				<ele>746.000000</ele>
				<time>2025-07-12T06:32:02Z</time>
			</trkpt>
			<trkpt lat="42.793171" lon="24.972952">
				<ele>747.000000</ele>
				<time>2025-07-12T06:32:08Z</time>
			</trkpt>
			<trkpt lat="42.793165" lon="24.972961">
				<ele>747.000000</ele>
				<time>2025-07-12T06:32:09Z</time>
			</trkpt>
			<trkpt lat="42.793118" lon="24.973010">
				<ele>748.000000</ele>
				<time>2025-07-12T06:32:16Z</time>
			</trkpt>
			<trkpt lat="42.793084" lon="24.973045">
				<ele>748.000000</ele>
				<time>2025-07-12T06:32:20Z</time>
			</trkpt>
			<trkpt lat="42.793070" lon="24.973065">
				<ele>748.000000</ele>
				<time>2025-07-12T06:32:22Z</time>
			</trkpt>
			<trkpt lat="42.793007" lon="24.973119">
				<ele>749.000000</ele>
				<time>2025-07-12T06:32:30Z</time>
			</trkpt>
			<trkpt lat="42.792979" lon="24.973142">
				<ele>749.000000</ele>
				<time>2025-07-12T06:32:33Z</time>
			</trkpt>
			<trkpt lat="42.792933" lon="24.973178">
				<ele>749.000000</ele>
				<time>2025-07-12T06:32:38Z</time>
			</trkpt>
			<trkpt lat="42.792870" lon="24.973239">
				<ele>750.000000</ele>
				<time>2025-07-12T06:32:46Z</time>
			</trkpt>
			<trkpt lat="42.792858" lon="24.973256">
				<ele>750.000000</ele>
				<time>2025-07-12T06:32:48Z</time>
			</trkpt>
			<trkpt lat="42.792817" lon="24.973293">
				<ele>750.000000</ele>
				<time>2025-07-12T06:32:53Z</time>
			</trkpt>
			<trkpt lat="42.792750" lon="24.973355">
				<ele>751.000000</ele>
				<time>2025-07-12T06:33:01Z</time>
			</trkpt>
			<trkpt lat="42.792740" lon="24.973364">
				<ele>751.000000</ele>
				<time>2025-07-12T06:33:02Z</time>
			</trkpt>
			<trkpt lat="42.792688" lon="24.973423">
				<ele>751.000000</ele>
				<time>2025-07-12T06:33:09Z</time>
			</trkpt>
			<trkpt lat="42.792642" lon="24.973470">
				<ele>752.000000</ele>
				<time>2025-07-12T06:33:15Z</time>
			</trkpt>
			<trkpt lat="42.792614" lon="24.973492">
				<ele>752.000000</ele>
				<time>2025-07-12T06:33:18Z</time>
			</trkpt>
			<trkpt lat="42.792562" lon="24.973541">
				<ele>753.000000</ele>
				<time>2025-07-12T06:33:25Z</time>
			</trkpt>
			<trkpt lat="42.792547" lon="24.973557">
				<ele>753.000000</ele>
				<time>2025-07-12T06:33:27Z</time>
			</trkpt>
			<trkpt lat="42.792479" lon="24.973614">
				<ele>754.000000</ele>
				<time>2025-07-12T06:33:34Z</time>
			</trkpt>
			<trkpt lat="42.792434" lon="24.973657">
				<ele>754.000000</ele>
				<time>2025-07-12T06:33:39Z</time>
			</trkpt>
			<trkpt lat="42.792413" lon="24.973675">
				<ele>754.000000</ele>
				<time>2025-07-12T06:33:42Z</time>
			</trkpt>
			<trkpt lat="42.792351" lon="24.973729">
				<ele>755.000000</ele>
				<time>2025-07-12T06:33:50Z</time>
			</trkpt>
			<trkpt lat="42.792334" lon="24.973746">
				<ele>755.000000</ele>
				<time>2025-07-12T06:33:52Z</time>
			</trkpt>
			<trkpt lat="42.792288" lon="24.973787">
				<ele>756.000000</ele>
				<time>2025-07-12T06:33:58Z</time>
			</trkpt>
			<trkpt lat="42.792256" lon="24.973815">
				<ele>756.000000</ele>
				<time>2025-07-12T06:34:02Z</time>
			</trkpt>
			<trkpt lat="42.792224" lon="24.973846">
				<ele>757.000000</ele>
				<time>2025-07-12T06:34:05Z</time>
			</trkpt>
			<trkpt lat="42.792168" lon="24.973891">
				<ele>757.000000</ele>
				<time>2025-07-12T06:34:11Z</time>
			</trkpt>
			<trkpt lat="42.792157" lon="24.973901">
				<ele>758.000000</ele>
				<time>2025-07-12T06:34:13Z</time>
			</trkpt>
			<trkpt lat="42.792106" lon="24.973934">
				<ele>758.000000</ele>
				<time>2025-07-12T06:34:19Z</time>
			</trkpt>
			<trkpt lat="42.792090" lon="24.973948">
				<ele>759.000000</ele>
				<time>2025-07-12T06:34:21Z</time>
			</trkpt>
			<trkpt lat="42.792035" lon="24.973992">
				<ele>759.000000</ele>
				<time>2025-07-12T06:34:26Z</time>
			</trkpt>
			<trkpt lat="42.792016" lon="24.974023">
				<ele>760.000000</ele>
				<time>2025-07-12T06:34:29Z</time>
			</trkpt>
			<trkpt lat="42.791967" lon="24.974064">
				<ele>760.000000</ele>
				<time>2025-07-12T06:34:35Z</time>
			</trkpt>
			<trkpt lat="42.791964" lon="24.974070">
				<ele>761.000000</ele>
				<time>2025-07-12T06:34:36Z</time>
			</trkpt>
			<trkpt lat="42.791919" lon="24.974114">
				<ele>761.000000</ele>
				<time>2025-07-12T06:34:43Z</time>
			</trkpt>
			<trkpt lat="42.791903" lon="24.974137">
				<ele>762.000000</ele>
				<time>2025-07-12T06:34:45Z</time>
			</trkpt>
			<trkpt lat="42.791880" lon="24.974184">
				<ele>762.000000</ele>
				<time>2025-07-12T06:34:49Z</time>
			</trkpt>
			<trkpt lat="42.791866" lon="24.974228">
				<ele>763.000000</ele>
				<time>2025-07-12T06:34:53Z</time>
			</trkpt>
			<trkpt lat="42.791860" lon="24.974275">
				<ele>763.000000</ele>
				<time>2025-07-12T06:34:57Z</time>
			</trkpt>
			<trkpt lat="42.791845" lon="24.974370">
				<ele>764.000000</ele>
				<time>2025-07-12T06:35:03Z</time>
			</trkpt>
			<trkpt lat="42.791842" lon="24.974385">
				<ele>764.000000</ele>
				<time>2025-07-12T06:35:04Z</time>
			</trkpt>
			<trkpt lat="42.791828" lon="24.974493">
				<ele>765.000000</ele>
				<time>2025-07-12T06:35:12Z</time>
			</trkpt>
			<trkpt lat="42.791811" lon="24.974581">
				<ele>765.000000</ele>
				<time>2025-07-12T06:35:19Z</time>
			</trkpt>
			<trkpt lat="42.791799" lon="24.974670">
				<ele>766.000000</ele>
				<time>2025-07-12T06:35:25Z</time>
			</trkpt>
			<trkpt lat="42.791798" lon="24.974682">
				<ele>766.000000</ele>
				<time>2025-07-12T06:35:26Z</time>
			</trkpt>
			<trkpt lat="42.791784" lon="24.974763">
				<ele>766.000000</ele>
				<time>2025-07-12T06:35:32Z</time>
			</trkpt>
			<trkpt lat="42.791788" lon="24.974851">
				<ele>767.000000</ele>
				<time>2025-07-12T06:35:38Z</time>
			</trkpt>
			<trkpt lat="42.791786" lon="24.974880">
				<ele>767.000000</ele>
				<time>2025-07-12T06:35:40Z</time>
			</trkpt>
			<trkpt lat="42.791752" lon="24.974982">
				<ele>768.000000</ele>
				<time>2025-07-12T06:35:48Z</time>
			</trkpt>
			<trkpt lat="42.791701" lon="24.975028">
				<ele>767.000000</ele>
				<time>2025-07-12T06:35:54Z</time>
			</trkpt>
			<trkpt lat="42.791692" lon="24.975037">
				<ele>767.000000</ele>
				<time>2025-07-12T06:35:55Z</time>
			</trkpt>
			<trkpt lat="42.791681" lon="24.975042">
				<ele>767.000000</ele>
				<time>2025-07-12T06:35:56Z</time>
			</trkpt>
			<trkpt lat="42.791581" lon="24.975049">
				<ele>768.000000</ele>
				<time>2025-07-12T06:36:05Z</time>
			</trkpt>
			<trkpt lat="42.791526" lon="24.975016">
				<ele>768.000000</ele>
				<time>2025-07-12T06:36:11Z</time>
			</trkpt>
			<trkpt lat="42.791518" lon="24.975006">
				<ele>768.000000</ele>
				<time>2025-07-12T06:36:12Z</time>
			</trkpt>
			<trkpt lat="42.791474" lon="24.974917">
				<ele>769.000000</ele>
				<time>2025-07-12T06:36:20Z</time>
			</trkpt>
			<trkpt lat="42.791456" lon="24.974866">
				<ele>769.000000</ele>
				<time>2025-07-12T06:36:25Z</time>
			</trkpt>
			<trkpt lat="42.791450" lon="24.974847">
				<ele>769.000000</ele>
				<time>2025-07-12T06:36:27Z</time>
			</trkpt>
			<trkpt lat="42.791431" lon="24.974803">
				<ele>770.000000</ele>
				<time>2025-07-12T06:36:35Z</time>
			</trkpt>
			<trkpt lat="42.791414" lon="24.974780">
				<ele>770.000000</ele>
				<time>2025-07-12T06:36:39Z</time>
			</trkpt>
			<trkpt lat="42.791411" lon="24.974770">
				<ele>770.000000</ele>
				<time>2025-07-12T06:36:41Z</time>
			</trkpt>
			<trkpt lat="42.791388" lon="24.974692">
				<ele>771.000000</ele>
				<time>2025-07-12T06:36:49Z</time>
			</trkpt>
			<trkpt lat="42.791379" lon="24.974672">
				<ele>771.000000</ele>
				<time>2025-07-12T06:36:51Z</time>
			</trkpt>
			<trkpt lat="42.791356" lon="24.974629">
				<ele>771.000000</ele>
				<time>2025-07-12T06:36:56Z</time>
			</trkpt>
			<trkpt lat="42.791325" lon="24.974581">
				<ele>771.000000</ele>
				<time>2025-07-12T06:37:01Z</time>
			</trkpt>
			<trkpt lat="42.791308" lon="24.974568">
				<ele>771.000000</ele>
				<time>2025-07-12T06:37:03Z</time>
			</trkpt>
			<trkpt lat="42.791252" lon="24.974522">
				<ele>772.000000</ele>
				<time>2025-07-12T06:37:09Z</time>
			</trkpt>
			<trkpt lat="42.791228" lon="24.974501">
				<ele>772.000000</ele>
				<time>2025-07-12T06:37:12Z</time>
			</trkpt>
			<trkpt lat="42.791182" lon="24.974463">
				<ele>773.000000</ele>
				<time>2025-07-12T06:37:19Z</time>
			</trkpt>
			<trkpt lat="42.791135" lon="24.974425">
				<ele>773.000000</ele>
				<time>2025-07-12T06:37:25Z</time>
			</trkpt>
			<trkpt lat="42.791119" lon="24.974416">
				<ele>773.000000</ele>
				<time>2025-07-12T06:37:27Z</time>
			</trkpt>
			<trkpt lat="42.791067" lon="24.974401">
				<ele>774.000000</ele>
				<time>2025-07-12T06:37:35Z</time>
			</trkpt>
			<trkpt lat="42.791044" lon="24.974391">
				<ele>774.000000</ele>
				<time>2025-07-12T06:37:39Z</time>
			</trkpt>
			<trkpt lat="42.791007" lon="24.974389">
				<ele>774.000000</ele>
				<time>2025-07-12T06:37:44Z</time>
			</trkpt>
			<trkpt lat="42.790924" lon="24.974387">
				<ele>775.000000</ele>
				<time>2025-07-12T06:37:51Z</time>
			</trkpt>
			<trkpt lat="42.790919" lon="24.974386">
				<ele>775.000000</ele>
				<time>2025-07-12T06:37:52Z</time>
			</trkpt>
			<trkpt lat="42.790877" lon="24.974378">
				<ele>776.000000</ele>
				<time>2025-07-12T06:37:57Z</time>
			</trkpt>
			<trkpt lat="42.790806" lon="24.974385">
				<ele>776.000000</ele>
				<time>2025-07-12T06:38:03Z</time>
			</trkpt>
			<trkpt lat="42.790760" lon="24.974381">
				<ele>777.000000</ele>
				<time>2025-07-12T06:38:09Z</time>
			</trkpt>
			<trkpt lat="42.790735" lon="24.974375">
				<ele>777.000000</ele>
				<time>2025-07-12T06:38:11Z</time>
			</trkpt>
			<trkpt lat="42.790708" lon="24.974370">
				<ele>777.000000</ele>
				<time>2025-07-12T06:38:14Z</time>
			</trkpt>
			<trkpt lat="42.790650" lon="24.974361">
				<ele>778.000000</ele>
				<time>2025-07-12T06:38:20Z</time>
			</trkpt>
			<trkpt lat="42.790609" lon="24.974371">
				<ele>778.000000</ele>
				<time>2025-07-12T06:38:24Z</time>
			</trkpt>
			<trkpt lat="42.790578" lon="24.974379">
				<ele>779.000000</ele>
				<time>2025-07-12T06:38:27Z</time>
			</trkpt>
			<trkpt lat="42.790515" lon="24.974395">
				<ele>779.000000</ele>
				<time>2025-07-12T06:38:33Z</time>
			</trkpt>
			<trkpt lat="42.790495" lon="24.974395">
				<ele>779.000000</ele>
				<time>2025-07-12T06:38:35Z</time>
			</trkpt>
			<trkpt lat="42.790438" lon="24.974404">
				<ele>780.000000</ele>
				<time>2025-07-12T06:38:40Z</time>
			</trkpt>
			<trkpt lat="42.790373" lon="24.974406">
				<ele>780.000000</ele>
				<time>2025-07-12T06:38:46Z</time>
			</trkpt>
			<trkpt lat="42.790351" lon="24.974410">
				<ele>780.000000</ele>
				<time>2025-07-12T06:38:48Z</time>
			</trkpt>
			<trkpt lat="42.790308" lon="24.974387">
				<ele>781.000000</ele>
				<time>2025-07-12T06:38:54Z</time>
			</trkpt>
			<trkpt lat="42.790277" lon="24.974382">
				<ele>781.000000</ele>
				<time>2025-07-12T06:38:57Z</time>
			</trkpt>
			<trkpt lat="42.790255" lon="24.974387">
				<ele>782.000000</ele>
				<time>2025-07-12T06:39:00Z</time>
			</trkpt>
			<trkpt lat="42.790199" lon="24.974375">
				<ele>782.000000</ele>
				<time>2025-07-12T06:39:06Z</time>
			</trkpt>
			<trkpt lat="42.790189" lon="24.974375">
				<ele>783.000000</ele>
				<time>2025-07-12T06:39:07Z</time>
			</trkpt>
			<trkpt lat="42.790107" lon="24.974391">
				<ele>783.000000</ele>
				<time>2025-07-12T06:39:15Z</time>
			</trkpt>
			<trkpt lat="42.790093" lon="24.974397">
				<ele>784.000000</ele>
				<time>2025-07-12T06:39:17Z</time>
			</trkpt>
			<trkpt lat="42.790044" lon="24.974410">
				<ele>784.000000</ele>
				<time>2025-07-12T06:39:23Z</time>
			</trkpt>
			<trkpt lat="42.789987" lon="24.974410">
				<ele>785.000000</ele>
				<time>2025-07-12T06:39:29Z</time>
			</trkpt>
			<trkpt lat="42.789976" lon="24.974410">
				<ele>785.000000</ele>
				<time>2025-07-12T06:39:30Z</time>
			</trkpt>
			<trkpt lat="42.789915" lon="24.974429">
				<ele>785.000000</ele>
				<time>2025-07-12T06:39:37Z</time>
			</trkpt>
			<trkpt lat="42.789883" lon="24.974434">
				<ele>786.000000</ele>
				<time>2025-07-12T06:39:40Z</time>
			</trkpt>
			<trkpt lat="42.789844" lon="24.974459">
				<ele>786.000000</ele>
				<time>2025-07-12T06:39:44Z</time>
			</trkpt>
			<trkpt lat="42.789784" lon="24.974505">
				<ele>787.000000</ele>
				<time>2025-07-12T06:39:51Z</time>
			</trkpt>
			<trkpt lat="42.789773" lon="24.974524">
				<ele>787.000000</ele>
				<time>2025-07-12T06:39:53Z</time>
			</trkpt>
			<trkpt lat="42.789724" lon="24.974548">
				<ele>787.000000</ele>
				<time>2025-07-12T06:39:59Z</time>
			</trkpt>
			<trkpt lat="42.789688" lon="24.974566">
				<ele>788.000000</ele>
				<time>2025-07-12T06:40:03Z</time>
			</trkpt>
			<trkpt lat="42.789670" lon="24.974573">
				<ele>788.000000</ele>
				<time>2025-07-12T06:40:05Z</time>
			</trkpt>
			<trkpt lat="42.789592" lon="24.974546">
				<ele>789.000000</ele>
				<time>2025-07-12T06:40:14Z</time>
			</trkpt>
			<trkpt lat="42.789586" lon="24.974542">
				<ele>789.000000</ele>
				<time>2025-07-12T06:40:15Z</time>
			</trkpt>
			<trkpt lat="42.789536" lon="24.974531">
				<ele>790.000000</ele>
				<time>2025-07-12T06:40:22Z</time>
			</trkpt>
			<trkpt lat="42.789527" lon="24.974523">
				<ele>790.000000</ele>
				<time>2025-07-12T06:40:23Z</time>
			</trkpt>
			<trkpt lat="42.789465" lon="24.974463">
				<ele>790.000000</ele>
				<time>2025-07-12T06:40:30Z</time>
			</trkpt>
			<trkpt lat="42.789418" lon="24.974402">
				<ele>790.000000</ele>
				<time>2025-07-12T06:40:38Z</time>
			</trkpt>
			<trkpt lat="42.789341" lon="24.974347">
				<ele>791.000000</ele>
				<time>2025-07-12T06:40:45Z</time>
			</trkpt>
			<trkpt lat="42.789319" lon="24.974324">
				<ele>791.000000</ele>
				<time>2025-07-12T06:40:48Z</time>
			</trkpt>
			<trkpt lat="42.789286" lon="24.974298">
				<ele>791.000000</ele>
				<time>2025-07-12T06:40:52Z</time>
			</trkpt>
			<trkpt lat="42.789269" lon="24.974283">
				<ele>791.000000</ele>
				<time>2025-07-12T06:40:54Z</time>
			</trkpt>
			<trkpt lat="42.789210" lon="24.974261">
				<ele>791.000000</ele>
				<time>2025-07-12T06:41:01Z</time>
			</trkpt>
			<trkpt lat="42.789173" lon="24.974245">
				<ele>791.000000</ele>
				<time>2025-07-12T06:41:05Z</time>
			</trkpt>
			<trkpt lat="42.789155" lon="24.974235">
				<ele>792.000000</ele>
				<time>2025-07-12T06:41:08Z</time>
			</trkpt>
			<trkpt lat="42.789107" lon="24.974235">
				<ele>792.000000</ele>
				<time>2025-07-12T06:41:14Z</time>
			</trkpt>
			<trkpt lat="42.789090" lon="24.974237">
				<ele>792.000000</ele>
				<time>2025-07-12T06:41:17Z</time>
			</trkpt>
			<trkpt lat="42.789048" lon="24.974239">
				<ele>792.000000</ele>
				<time>2025-07-12T06:41:22Z</time>
			</trkpt>
			<trkpt lat="42.788983" lon="24.974232">
				<ele>793.000000</ele>
				<time>2025-07-12T06:41:29Z</time>
			</trkpt>
			<trkpt lat="42.788971" lon="24.974232">
				<ele>793.000000</ele>
				<time>2025-07-12T06:41:30Z</time>
			</trkpt>
			<trkpt lat="42.788906" lon="24.974251">
				<ele>793.000000</ele>
				<time>2025-07-12T06:41:36Z</time>
			</trkpt>
			<trkpt lat="42.788869" lon="24.974256">
				<ele>794.000000</ele>
				<time>2025-07-12T06:41:41Z</time>
			</trkpt>
			<trkpt lat="42.788855" lon="24.974259">
				<ele>794.000000</ele>
				<time>2025-07-12T06:41:44Z</time>
			</trkpt>
			<trkpt lat="42.788791" lon="24.974268">
				<ele>794.000000</ele>
				<time>2025-07-12T06:41:50Z</time>
			</trkpt>
			<trkpt lat="42.788742" lon="24.974265">
				<ele>795.000000</ele>
				<time>2025-07-12T06:41:55Z</time>
			</trkpt>
			<trkpt lat="42.788735" lon="24.974261">
				<ele>795.000000</ele>
				<time>2025-07-12T06:41:56Z</time>
			</trkpt>
			<trkpt lat="42.788724" lon="24.974260">
				<ele>795.000000</ele>
				<time>2025-07-12T06:41:58Z</time>
			</trkpt>
			<trkpt lat="42.788681" lon="24.974249">
				<ele>795.000000</ele>
				<time>2025-07-12T06:42:03Z</time>
			</trkpt>
			<trkpt lat="42.788624" lon="24.974225">
				<ele>795.000000</ele>
				<time>2025-07-12T06:42:09Z</time>
			</trkpt>
			<trkpt lat="42.788615" lon="24.974209">
				<ele>795.000000</ele>
				<time>2025-07-12T06:42:10Z</time>
			</trkpt>
			<trkpt lat="42.788594" lon="24.974130">
				<ele>796.000000</ele>
				<time>2025-07-12T06:42:16Z</time>
			</trkpt>
			<trkpt lat="42.788564" lon="24.974028">
				<ele>796.000000</ele>
				<time>2025-07-12T06:42:24Z</time>
			</trkpt>
			<trkpt lat="42.788558" lon="24.974004">
				<ele>796.000000</ele>
				<time>2025-07-12T06:42:26Z</time>
			</trkpt>
			<trkpt lat="42.788531" lon="24.973948">
				<ele>796.000000</ele>
				<time>2025-07-12T06:42:31Z</time>
			</trkpt>
			<trkpt lat="42.788438" lon="24.973891">
				<ele>797.000000</ele>
				<time>2025-07-12T06:42:41Z</time>
			</trkpt>
			<trkpt lat="42.788428" lon="24.973887">
				<ele>797.000000</ele>
				<time>2025-07-12T06:42:42Z</time>
			</trkpt>
			<trkpt lat="42.788341" lon="24.973856">
				<ele>797.000000</ele>
				<time>2025-07-12T06:42:50Z</time>
			</trkpt>
			<trkpt lat="42.788254" lon="24.973854">
				<ele>798.000000</ele>
				<time>2025-07-12T06:42:58Z</time>
			</trkpt>
			<trkpt lat="42.788244" lon="24.973854">
				<ele>798.000000</ele>
				<time>2025-07-12T06:42:59Z</time>
			</trkpt>
			<trkpt lat="42.788182" lon="24.973859">
				<ele>799.000000</ele>
				<time>2025-07-12T06:43:05Z</time>
			</trkpt>
			<trkpt lat="42.788129" lon="24.973858">
				<ele>799.000000</ele>
				<time>2025-07-12T06:43:11Z</time>
			</trkpt>
			<trkpt lat="42.788116" lon="24.973859">
				<ele>799.000000</ele>
				<time>2025-07-12T06:43:12Z</time>
			</trkpt>
			<trkpt lat="42.788039" lon="24.973844">
				<ele>800.000000</ele>
				<time>2025-07-12T06:43:20Z</time>
			</trkpt>
			<trkpt lat="42.788014" lon="24.973840">
				<ele>800.000000</ele>
				<time>2025-07-12T06:43:23Z</time>
			</trkpt>
			<trkpt lat="42.787972" lon="24.973835">
				<ele>801.000000</ele>
				<time>2025-07-12T06:43:29Z</time>
			</trkpt>
			<trkpt lat="42.787963" lon="24.973835">
				<ele>801.000000</ele>
				<time>2025-07-12T06:43:30Z</time>
			</trkpt>
			<trkpt lat="42.787893" lon="24.973850">
				<ele>802.000000</ele>
				<time>2025-07-12T06:43:37Z</time>
			</trkpt>
			<trkpt lat="42.787861" lon="24.973860">
				<ele>802.000000</ele>
				<time>2025-07-12T06:43:41Z</time>
			</trkpt>
			<trkpt lat="42.787844" lon="24.973868">
				<ele>802.000000</ele>
				<time>2025-07-12T06:43:43Z</time>
			</trkpt>
			<trkpt lat="42.787777" lon="24.973880">
				<ele>803.000000</ele>
				<time>2025-07-12T06:43:52Z</time>
			</trkpt>
			<trkpt lat="42.787755" lon="24.973891">
				<ele>804.000000</ele>
				<time>2025-07-12T06:43:54Z</time>
			</trkpt>
			<trkpt lat="42.787702" lon="24.973909">
				<ele>804.000000</ele>
				<time>2025-07-12T06:43:59Z</time>
			</trkpt>
			<trkpt lat="42.787667" lon="24.973915">
				<ele>804.000000</ele>
				<time>2025-07-12T06:44:03Z</time>
			</trkpt>
			<trkpt lat="42.787630" lon="24.973919">
				<ele>805.000000</ele>
				<time>2025-07-12T06:44:07Z</time>
			</trkpt>
			<trkpt lat="42.787601" lon="24.973918">
				<ele>806.000000</ele>
				<time>2025-07-12T06:44:11Z</time>
			</trkpt>
			<trkpt lat="42.787568" lon="24.973911">
				<ele>806.000000</ele>
				<time>2025-07-12T06:44:15Z</time>
			</trkpt>
			<trkpt lat="42.787534" lon="24.973887">
				<ele>807.000000</ele>
				<time>2025-07-12T06:44:19Z</time>
			</trkpt>
			<trkpt lat="42.787499" lon="24.973852">
				<ele>807.000000</ele>
				<time>2025-07-12T06:44:24Z</time>
			</trkpt>
			<trkpt lat="42.787458" lon="24.973797">
				<ele>808.000000</ele>
				<time>2025-07-12T06:44:30Z</time>
			</trkpt>
			<trkpt lat="42.787404" lon="24.973750">
				<ele>808.000000</ele>
				<time>2025-07-12T06:44:37Z</time>
			</trkpt>
			<trkpt lat="42.787364" lon="24.973714">
				<ele>809.000000</ele>
				<time>2025-07-12T06:44:42Z</time>
			</trkpt>
			<trkpt lat="42.787343" lon="24.973693">
				<ele>809.000000</ele>
				<time>2025-07-12T06:44:45Z</time>
			</trkpt>
			<trkpt lat="42.787265" lon="24.973636">
				<ele>810.000000</ele>
				<time>2025-07-12T06:44:53Z</time>
			</trkpt>
			<trkpt lat="42.787199" lon="24.973607">
				<ele>811.000000</ele>
				<time>2025-07-12T06:45:02Z</time>
			</trkpt>
			<trkpt lat="42.787181" lon="24.973598">
				<ele>811.000000</ele>
				<time>2025-07-12T06:45:04Z</time>
			</trkpt>
			<trkpt lat="42.787134" lon="24.973584">
				<ele>812.000000</ele>
				<time>2025-07-12T06:45:12Z</time>
			</trkpt>
			<trkpt lat="42.787110" lon="24.973594">
				<ele>812.000000</ele>
				<time>2025-07-12T06:45:16Z</time>
			</trkpt>
			<trkpt lat="42.787116" lon="24.973598">
				<ele>813.000000</ele>
				<time>2025-07-12T06:45:19Z</time>
			</trkpt>
			<trkpt lat="42.787118" lon="24.973595">
				<ele>813.000000</ele>
				<time>2025-07-12T06:45:20Z</time>
			</trkpt>
			<trkpt lat="42.787123" lon="24.973596">
				<ele>812.000000</ele>
				<time>2025-07-12T06:45:27Z</time>
			</trkpt>
			<trkpt lat="42.787112" lon="24.973622">
				<ele>813.000000</ele>
				<time>2025-07-12T06:45:33Z</time>
			</trkpt>
			<trkpt lat="42.787084" lon="24.973679">
				<ele>813.000000</ele>
				<time>2025-07-12T06:45:39Z</time>
			</trkpt>
			<trkpt lat="42.787081" lon="24.973691">
				<ele>813.000000</ele>
				<time>2025-07-12T06:45:40Z</time>
			</trkpt>
			<trkpt lat="42.787071" lon="24.973720">
				<ele>814.000000</ele>
				<time>2025-07-12T06:45:43Z</time>
			</trkpt>
			<trkpt lat="42.787046" lon="24.973758">
				<ele>815.000000</ele>
				<time>2025-07-12T06:45:49Z</time>
			</trkpt>
			<trkpt lat="42.787033" lon="24.973775">
				<ele>815.000000</ele>
				<time>2025-07-12T06:45:51Z</time>
			</trkpt>
			<trkpt lat="42.787000" lon="24.973813">
				<ele>816.000000</ele>
				<time>2025-07-12T06:45:56Z</time>
			</trkpt>
			<trkpt lat="42.786978" lon="24.973850">
				<ele>816.000000</ele>
				<time>2025-07-12T06:45:59Z</time>
			</trkpt>
			<trkpt lat="42.786948" lon="24.973897">
				<ele>817.000000</ele>
				<time>2025-07-12T06:46:05Z</time>
			</trkpt>
			<trkpt lat="42.786931" lon="24.973915">
				<ele>817.000000</ele>
				<time>2025-07-12T06:46:07Z</time>
			</trkpt>
			<trkpt lat="42.786900" lon="24.973944">
				<ele>818.000000</ele>
				<time>2025-07-12T06:46:13Z</time>
			</trkpt>
			<trkpt lat="42.786890" lon="24.973954">
				<ele>818.000000</ele>
				<time>2025-07-12T06:46:14Z</time>
			</trkpt>
			<trkpt lat="42.786869" lon="24.973977">
				<ele>819.000000</ele>
				<time>2025-07-12T06:46:19Z</time>
			</trkpt>
			<trkpt lat="42.786867" lon="24.973990">
				<ele>819.000000</ele>
				<time>2025-07-12T06:46:23Z</time>
			</trkpt>
			<trkpt lat="42.786857" lon="24.974007">
				<ele>819.000000</ele>
				<time>2025-07-12T06:46:26Z</time>
			</trkpt>
			<trkpt lat="42.786829" lon="24.974033">
				<ele>820.000000</ele>
				<time>2025-07-12T06:46:33Z</time>
			</trkpt>
			<trkpt lat="42.786814" lon="24.974071">
				<ele>820.000000</ele>
				<time>2025-07-12T06:46:38Z</time>
			</trkpt>
			<trkpt lat="42.786808" lon="24.974084">
				<ele>821.000000</ele>
				<time>2025-07-12T06:46:40Z</time>
			</trkpt>
			<trkpt lat="42.786759" lon="24.974151">
				<ele>821.000000</ele>
				<time>2025-07-12T06:46:48Z</time>
			</trkpt>
			<trkpt lat="42.786704" lon="24.974200">
				<ele>822.000000</ele>
				<time>2025-07-12T06:46:55Z</time>
			</trkpt>
			<trkpt lat="42.786681" lon="24.974221">
				<ele>822.000000</ele>
				<time>2025-07-12T06:46:58Z</time>
			</trkpt>
			<trkpt lat="42.786662" lon="24.974237">
				<ele>823.000000</ele>
				<time>2025-07-12T06:47:02Z</time>
			</trkpt>
			<trkpt lat="42.786617" lon="24.974264">
				<ele>823.000000</ele>
				<time>2025-07-12T06:47:09Z</time>
			</trkpt>
			<trkpt lat="42.786585" lon="24.974284">
				<ele>824.000000</ele>
				<time>2025-07-12T06:47:13Z</time>
			</trkpt>
			<trkpt lat="42.786536" lon="24.974320">
				<ele>824.000000</ele>
				<time>2025-07-12T06:47:19Z</time>
			</trkpt>
			<trkpt lat="42.786528" lon="24.974328">
				<ele>824.000000</ele>
				<time>2025-07-12T06:47:20Z</time>
			</trkpt>
			<trkpt lat="42.786519" lon="24.974335">
				<ele>824.000000</ele>
				<time>2025-07-12T06:47:21Z</time>
			</trkpt>
			<trkpt lat="42.786475" lon="24.974395">
				<ele>825.000000</ele>
				<time>2025-07-12T06:47:28Z</time>
			</trkpt>
			<trkpt lat="42.786467" lon="24.974404">
				<ele>825.000000</ele>
				<time>2025-07-12T06:47:29Z</time>
			</trkpt>
			<trkpt lat="42.786407" lon="24.974450">
				<ele>826.000000</ele>
				<time>2025-07-12T06:47:36Z</time>
			</trkpt>
			<trkpt lat="42.786397" lon="24.974465">
				<ele>827.000000</ele>
				<time>2025-07-12T06:47:38Z</time>
			</trkpt>
			<trkpt lat="42.786365" lon="24.974501">
				<ele>827.000000</ele>
				<time>2025-07-12T06:47:43Z</time>
			</trkpt>
			<trkpt lat="42.786334" lon="24.974532">
				<ele>828.000000</ele>
				<time>2025-07-12T06:47:47Z</time>
			</trkpt>
			<trkpt lat="42.786301" lon="24.974552">
				<ele>828.000000</ele>
				<time>2025-07-12T06:47:51Z</time>
			</trkpt>
			<trkpt lat="42.786274" lon="24.974573">
				<ele>829.000000</ele>
				<time>2025-07-12T06:47:55Z</time>
			</trkpt>
			<trkpt lat="42.786256" lon="24.974590">
				<ele>829.000000</ele>
				<time>2025-07-12T06:47:58Z</time>
			</trkpt>
			<trkpt lat="42.786232" lon="24.974630">
				<ele>830.000000</ele>
				<time>2025-07-12T06:48:04Z</time>
			</trkpt>
			<trkpt lat="42.786222" lon="24.974649">
				<ele>830.000000</ele>
				<time>2025-07-12T06:48:06Z</time>
			</trkpt>
			<trkpt lat="42.786199" lon="24.974666">
				<ele>831.000000</ele>
				<time>2025-07-12T06:48:11Z</time>
			</trkpt>
			<trkpt lat="42.786186" lon="24.974676">
				<ele>831.000000</ele>
				<time>2025-07-12T06:48:14Z</time>
			</trkpt>
			<trkpt lat="42.786179" lon="24.974687">
				<ele>831.000000</ele>
				<time>2025-07-12T06:48:15Z</time>
			</trkpt>
			<trkpt lat="42.786144" lon="24.974699">
				<ele>831.000000</ele>
				<time>2025-07-12T06:48:20Z</time>
			</trkpt>
			<trkpt lat="42.786143" lon="24.974705">
				<ele>831.000000</ele>
				<time>2025-07-12T06:48:23Z</time>
			</trkpt>
			<trkpt lat="42.786092" lon="24.974725">
				<ele>831.000000</ele>
				<time>2025-07-12T06:48:29Z</time>
			</trkpt>
			<trkpt lat="42.786026" lon="24.974746">
				<ele>831.000000</ele>
				<time>2025-07-12T06:48:37Z</time>
			</trkpt>
			<trkpt lat="42.786005" lon="24.974737">
				<ele>831.000000</ele>
				<time>2025-07-12T06:48:41Z</time>
			</trkpt>
			<trkpt lat="42.785989" lon="24.974733">
				<ele>830.000000</ele>
				<time>2025-07-12T06:48:45Z</time>
			</trkpt>
			<trkpt lat="42.786005" lon="24.974725">
				<ele>831.000000</ele>
				<time>2025-07-12T06:48:55Z</time>
			</trkpt>
			<trkpt lat="42.786012" lon="24.974693">
				<ele>830.000000</ele>
				<time>2025-07-12T06:49:03Z</time>
			</trkpt>
			<trkpt lat="42.786038" lon="24.974691">
				<ele>830.000000</ele>
				<time>2025-07-12T06:49:09Z</time>
			</trkpt>
			<trkpt lat="42.786040" lon="24.974687">
				<ele>830.000000</ele>
				<time>2025-07-12T06:49:10Z</time>
			</trkpt>
			<trkpt lat="42.786045" lon="24.974676">
				<ele>830.000000</ele>
				<time>2025-07-12T06:49:12Z</time>
			</trkpt>
			<trkpt lat="42.786091" lon="24.974691">
				<ele>830.000000</ele>
				<time>2025-07-12T06:49:19Z</time>
			</trkpt>
			<trkpt lat="42.786128" lon="24.974747">
				<ele>831.000000</ele>
				<time>2025-07-12T06:49:27Z</time>
			</trkpt>
			<trkpt lat="42.786129" lon="24.974772">
				<ele>831.000000</ele>
				<time>2025-07-12T06:49:32Z</time>
			</trkpt>
			<trkpt lat="42.786131" lon="24.974817">
				<ele>831.000000</ele>
				<time>2025-07-12T06:49:35Z</time>
			</trkpt>
			<trkpt lat="42.786132" lon="24.974830">
				<ele>831.000000</ele>
				<time>2025-07-12T06:49:36Z</time>
			</trkpt>
			<trkpt lat="42.786129" lon="24.974949">
				<ele>832.000000</ele>
				<time>2025-07-12T06:49:46Z</time>
			</trkpt>
			<trkpt lat="42.786132" lon="24.974964">
				<ele>832.000000</ele>
				<time>2025-07-12T06:49:48Z</time>
			</trkpt>
			<trkpt lat="42.786133" lon="24.974976">
				<ele>832.000000</ele>
				<time>2025-07-12T06:49:49Z</time>
			</trkpt>
			<trkpt lat="42.786149" lon="24.975042">
				<ele>833.000000</ele>
				<time>2025-07-12T06:49:54Z</time>
			</trkpt>
			<trkpt lat="42.786154" lon="24.975057">
				<ele>833.000000</ele>
				<time>2025-07-12T06:49:55Z</time>
			</trkpt>
			<trkpt lat="42.786164" lon="24.975071">
				<ele>833.000000</ele>
				<time>2025-07-12T06:49:57Z</time>
			</trkpt>
			<trkpt lat="42.786179" lon="24.975089">
				<ele>834.000000</ele>
				<time>2025-07-12T06:50:00Z</time>
			</trkpt>
			<trkpt lat="42.786200" lon="24.975128">
				<ele>834.000000</ele>
				<time>2025-07-12T06:50:05Z</time>
			</trkpt>
			<trkpt lat="42.786206" lon="24.975147">
				<ele>834.000000</ele>
				<time>2025-07-12T06:50:07Z</time>
			</trkpt>
			<trkpt lat="42.786229" lon="24.975196">
				<ele>835.000000</ele>
				<time>2025-07-12T06:50:13Z</time>
			</trkpt>
			<trkpt lat="42.786236" lon="24.975201">
				<ele>835.000000</ele>
				<time>2025-07-12T06:50:14Z</time>
			</trkpt>
			<trkpt lat="42.786287" lon="24.975293">
				<ele>836.000000</ele>
				<time>2025-07-12T06:50:23Z</time>
			</trkpt>
			<trkpt lat="42.786308" lon="24.975321">
				<ele>836.000000</ele>
				<time>2025-07-12T06:50:26Z</time>
			</trkpt>
			<trkpt lat="42.786330" lon="24.975368">
				<ele>836.000000</ele>
				<time>2025-07-12T06:50:31Z</time>
			</trkpt>
			<trkpt lat="42.786327" lon="24.975383">
				<ele>837.000000</ele>
				<time>2025-07-12T06:50:41Z</time>
			</trkpt>
			<trkpt lat="42.786350" lon="24.975380">
				<ele>836.000000</ele>
				<time>2025-07-12T06:50:50Z</time>
			</trkpt>
			<trkpt lat="42.786399" lon="24.975417">
				<ele>837.000000</ele>
				<time>2025-07-12T06:50:55Z</time>
			</trkpt>
			<trkpt lat="42.786424" lon="24.975446">
				<ele>837.000000</ele>
				<time>2025-07-12T06:50:58Z</time>
			</trkpt>
			<trkpt lat="42.786447" lon="24.975472">
				<ele>837.000000</ele>
				<time>2025-07-12T06:51:01Z</time>
			</trkpt>
			<trkpt lat="42.786472" lon="24.975517">
				<ele>838.000000</ele>
				<time>2025-07-12T06:51:06Z</time>
			</trkpt>
			<trkpt lat="42.786477" lon="24.975522">
				<ele>839.000000</ele>
				<time>2025-07-12T06:51:07Z</time>
			</trkpt>
			<trkpt lat="42.786522" lon="24.975539">
				<ele>839.000000</ele>
				<time>2025-07-12T06:51:14Z</time>
			</trkpt>
			<trkpt lat="42.786558" lon="24.975531">
				<ele>840.000000</ele>
				<time>2025-07-12T06:51:18Z</time>
			</trkpt>
			<trkpt lat="42.786569" lon="24.975534">
				<ele>840.000000</ele>
				<time>2025-07-12T06:51:19Z</time>
			</trkpt>
			<trkpt lat="42.786602" lon="24.975543">
				<ele>840.000000</ele>
				<time>2025-07-12T06:51:22Z</time>
			</trkpt>
			<trkpt lat="42.786655" lon="24.975566">
				<ele>841.000000</ele>
				<time>2025-07-12T06:51:29Z</time>
			</trkpt>
			<trkpt lat="42.786660" lon="24.975568">
				<ele>841.000000</ele>
				<time>2025-07-12T06:51:30Z</time>
			</trkpt>
			<trkpt lat="42.786722" lon="24.975570">
				<ele>841.000000</ele>
				<time>2025-07-12T06:51:37Z</time>
			</trkpt>
			<trkpt lat="42.786770" lon="24.975586">
				<ele>842.000000</ele>
				<time>2025-07-12T06:51:42Z</time>
			</trkpt>
			<trkpt lat="42.786801" lon="24.975593">
				<ele>842.000000</ele>
				<time>2025-07-12T06:51:45Z</time>
			</trkpt>
			<trkpt lat="42.786869" lon="24.975607">
				<ele>843.000000</ele>
				<time>2025-07-12T06:51:52Z</time>
			</trkpt>
			<trkpt lat="42.786931" lon="24.975620">
				<ele>843.000000</ele>
				<time>2025-07-12T06:51:58Z</time>
			</trkpt>
			<trkpt lat="42.786964" lon="24.975632">
				<ele>844.000000</ele>
				<time>2025-07-12T06:52:02Z</time>
			</trkpt>
			<trkpt lat="42.786984" lon="24.975640">
				<ele>844.000000</ele>
				<time>2025-07-12T06:52:04Z</time>
			</trkpt>
			<trkpt lat="42.787033" lon="24.975666">
				<ele>845.000000</ele>
				<time>2025-07-12T06:52:10Z</time>
			</trkpt>
			<trkpt lat="42.787055" lon="24.975666">
				<ele>845.000000</ele>
				<time>2025-07-12T06:52:12Z</time>
			</trkpt>
			<trkpt lat="42.787121" lon="24.975671">
				<ele>846.000000</ele>
				<time>2025-07-12T06:52:19Z</time>
			</trkpt>
			<trkpt lat="42.787127" lon="24.975674">
				<ele>846.000000</ele>
				<time>2025-07-12T06:52:20Z</time>
			</trkpt>
			<trkpt lat="42.787175" lon="24.975683">
				<ele>846.000000</ele>
				<time>2025-07-12T06:52:25Z</time>
			</trkpt>
			<trkpt lat="42.787244" lon="24.975694">
				<ele>847.000000</ele>
				<time>2025-07-12T06:52:33Z</time>
			</trkpt>
			<trkpt lat="42.787254" lon="24.975700">
				<ele>847.000000</ele>
				<time>2025-07-12T06:52:35Z</time>
			</trkpt>
			<trkpt lat="42.787296" lon="24.975698">
				<ele>848.000000</ele>
				<time>2025-07-12T06:52:41Z</time>
			</trkpt>
			<trkpt lat="42.787304" lon="24.975700">
				<ele>848.000000</ele>
				<time>2025-07-12T06:52:42Z</time>
			</trkpt>
			<trkpt lat="42.787321" lon="24.975707">
				<ele>848.000000</ele>
				<time>2025-07-12T06:52:44Z</time>
			</trkpt>
			<trkpt lat="42.787398" lon="24.975696">
				<ele>849.000000</ele>
				<time>2025-07-12T06:52:51Z</time>
			</trkpt>
			<trkpt lat="42.787408" lon="24.975696">
				<ele>849.000000</ele>
				<time>2025-07-12T06:52:52Z</time>
			</trkpt>
			<trkpt lat="42.787485" lon="24.975687">
				<ele>850.000000</ele>
				<time>2025-07-12T06:53:00Z</time>
			</trkpt>
			<trkpt lat="42.787503" lon="24.975694">
				<ele>850.000000</ele>
				<time>2025-07-12T06:53:02Z</time>
			</trkpt>
			<trkpt lat="42.787541" lon="24.975712">
				<ele>851.000000</ele>
				<time>2025-07-12T06:53:07Z</time>
			</trkpt>
			<trkpt lat="42.787582" lon="24.975741">
				<ele>851.000000</ele>
				<time>2025-07-12T06:53:12Z</time>
			</trkpt>
			<trkpt lat="42.787608" lon="24.975770">
				<ele>851.000000</ele>
				<time>2025-07-12T06:53:15Z</time>
			</trkpt>
			<trkpt lat="42.787653" lon="24.975818">
				<ele>852.000000</ele>
				<time>2025-07-12T06:53:20Z</time>
			</trkpt>
			<trkpt lat="42.787713" lon="24.975888">
				<ele>852.000000</ele>
				<time>2025-07-12T06:53:28Z</time>
			</trkpt>
			<trkpt lat="42.787719" lon="24.975895">
				<ele>852.000000</ele>
				<time>2025-07-12T06:53:29Z</time>
			</trkpt>
			<trkpt lat="42.787749" lon="24.975973">
				<ele>853.000000</ele>
				<time>2025-07-12T06:53:36Z</time>
			</trkpt>
			<trkpt lat="42.787775" lon="24.976071">
				<ele>854.000000</ele>
				<time>2025-07-12T06:53:43Z</time>
			</trkpt>
			<trkpt lat="42.787777" lon="24.976084">
				<ele>854.000000</ele>
				<time>2025-07-12T06:53:44Z</time>
			</trkpt>
			<trkpt lat="42.787790" lon="24.976160">
				<ele>854.000000</ele>
				<time>2025-07-12T06:53:51Z</time>
			</trkpt>
			<trkpt lat="42.787795" lon="24.976193">
				<ele>855.000000</ele>
				<time>2025-07-12T06:53:54Z</time>
			</trkpt>
			<trkpt lat="42.787816" lon="24.976240">
				<ele>855.000000</ele>
				<time>2025-07-12T06:53:58Z</time>
			</trkpt>
			<trkpt lat="42.787825" lon="24.976281">
				<ele>856.000000</ele>
				<time>2025-07-12T06:54:01Z</time>
			</trkpt>
			<trkpt lat="42.787838" lon="24.976325">
				<ele>856.000000</ele>
				<time>2025-07-12T06:54:05Z</time>
			</trkpt>
			<trkpt lat="42.787856" lon="24.976366">
				<ele>857.000000</ele>
				<time>2025-07-12T06:54:10Z</time>
			</trkpt>
			<trkpt lat="42.787870" lon="24.976391">
				<ele>857.000000</ele>
				<time>2025-07-12T06:54:12Z</time>
			</trkpt>
			<trkpt lat="42.787894" lon="24.976463">
				<ele>857.000000</ele>
				<time>2025-07-12T06:54:18Z</time>
			</trkpt>
			<trkpt lat="42.787914" lon="24.976514">
				<ele>858.000000</ele>
				<time>2025-07-12T06:54:23Z</time>
			</trkpt>
			<trkpt lat="42.787926" lon="24.976543">
				<ele>858.000000</ele>
				<time>2025-07-12T06:54:26Z</time>
			</trkpt>
			<trkpt lat="42.787943" lon="24.976591">
				<ele>859.000000</ele>
				<time>2025-07-12T06:54:31Z</time>
			</trkpt>
			<trkpt lat="42.787950" lon="24.976611">
				<ele>859.000000</ele>
				<time>2025-07-12T06:54:33Z</time>
			</trkpt>
			<trkpt lat="42.787953" lon="24.976611">
				<ele>859.000000</ele>
				<time>2025-07-12T06:54:34Z</time>
			</trkpt>
			<trkpt lat="42.787957" lon="24.976616">
				<ele>859.000000</ele>
				<time>2025-07-12T06:54:35Z</time>
			</trkpt>
			<trkpt lat="42.787962" lon="24.976624">
				<ele>859.000000</ele>
				<time>2025-07-12T06:54:36Z</time>
			</trkpt>
			<trkpt lat="42.787975" lon="24.976645">
				<ele>860.000000</ele>
				<time>2025-07-12T06:54:39Z</time>
			</trkpt>
			<trkpt lat="42.787984" lon="24.976657">
				<ele>860.000000</ele>
				<time>2025-07-12T06:54:40Z</time>
			</trkpt>
			<trkpt lat="42.788039" lon="24.976679">
				<ele>860.000000</ele>
				<time>2025-07-12T06:54:47Z</time>
			</trkpt>
			<trkpt lat="42.788077" lon="24.976675">
				<ele>860.000000</ele>
				<time>2025-07-12T06:54:53Z</time>
			</trkpt>
			<trkpt lat="42.788118" lon="24.976677">
				<ele>860.000000</ele>
				<time>2025-07-12T06:54:58Z</time>
			</trkpt>
			<trkpt lat="42.788152" lon="24.976682">
				<ele>860.000000</ele>
				<time>2025-07-12T06:55:02Z</time>
			</trkpt>
			<trkpt lat="42.788233" lon="24.976726">
				<ele>860.000000</ele>
				<time>2025-07-12T06:55:10Z</time>
			</trkpt>
			<trkpt lat="42.788263" lon="24.976726">
				<ele>860.000000</ele>
				<time>2025-07-12T06:55:14Z</time>
			</trkpt>
			<trkpt lat="42.788305" lon="24.976712">
				<ele>861.000000</ele>
				<time>2025-07-12T06:55:18Z</time>
			</trkpt>
			<trkpt lat="42.788323" lon="24.976706">
				<ele>861.000000</ele>
				<time>2025-07-12T06:55:20Z</time>
			</trkpt>
			<trkpt lat="42.788383" lon="24.976705">
				<ele>861.000000</ele>
				<time>2025-07-12T06:55:26Z</time>
			</trkpt>
			<trkpt lat="42.788440" lon="24.976681">
				<ele>861.000000</ele>
				<time>2025-07-12T06:55:33Z</time>
			</trkpt>
			<trkpt lat="42.788486" lon="24.976669">
				<ele>861.000000</ele>
				<time>2025-07-12T06:55:40Z</time>
			</trkpt>
			<trkpt lat="42.788553" lon="24.976659">
				<ele>862.000000</ele>
				<time>2025-07-12T06:55:47Z</time>
			</trkpt>
			<trkpt lat="42.788585" lon="24.976678">
				<ele>862.000000</ele>
				<time>2025-07-12T06:55:51Z</time>
			</trkpt>
			<trkpt lat="42.788644" lon="24.976734">
				<ele>863.000000</ele>
				<time>2025-07-12T06:55:58Z</time>
			</trkpt>
			<trkpt lat="42.788665" lon="24.976759">
				<ele>863.000000</ele>
				<time>2025-07-12T06:56:00Z</time>
			</trkpt>
			<trkpt lat="42.788695" lon="24.976804">
				<ele>863.000000</ele>
				<time>2025-07-12T06:56:05Z</time>
			</trkpt>
			<trkpt lat="42.788737" lon="24.976911">
				<ele>863.000000</ele>
				<time>2025-07-12T06:56:14Z</time>
			</trkpt>
			<trkpt lat="42.788765" lon="24.977029">
				<ele>864.000000</ele>
				<time>2025-07-12T06:56:22Z</time>
			</trkpt>
			<trkpt lat="42.788770" lon="24.977063">
				<ele>864.000000</ele>
				<time>2025-07-12T06:56:28Z</time>
			</trkpt>
			<trkpt lat="42.788766" lon="24.977075">
				<ele>864.000000</ele>
				<time>2025-07-12T06:56:31Z</time>
			</trkpt>
			<trkpt lat="42.788775" lon="24.977090">
				<ele>864.000000</ele>
				<time>2025-07-12T06:56:33Z</time>
			</trkpt>
			<trkpt lat="42.788789" lon="24.977155">
				<ele>864.000000</ele>
				<time>2025-07-12T06:56:39Z</time>
			</trkpt>
			<trkpt lat="42.788807" lon="24.977225">
				<ele>865.000000</ele>
				<time>2025-07-12T06:56:45Z</time>
			</trkpt>
			<trkpt lat="42.788822" lon="24.977310">
				<ele>865.000000</ele>
				<time>2025-07-12T06:56:52Z</time>
			</trkpt>
			<trkpt lat="42.788829" lon="24.977412">
				<ele>864.000000</ele>
				<time>2025-07-12T06:57:00Z</time>
			</trkpt>
			<trkpt lat="42.788846" lon="24.977514">
				<ele>865.000000</ele>
				<time>2025-07-12T06:57:08Z</time>
			</trkpt>
			<trkpt lat="42.788869" lon="24.977595">
				<ele>865.000000</ele>
				<time>2025-07-12T06:57:15Z</time>
			</trkpt>
			<trkpt lat="42.788871" lon="24.977738">
				<ele>866.000000</ele>
				<time>2025-07-12T06:57:25Z</time>
			</trkpt>
			<trkpt lat="42.788870" lon="24.977756">
				<ele>866.000000</ele>
				<time>2025-07-12T06:57:27Z</time>
			</trkpt>
			<trkpt lat="42.788859" lon="24.977814">
				<ele>866.000000</ele>
				<time>2025-07-12T06:57:31Z</time>
			</trkpt>
			<trkpt lat="42.788847" lon="24.977909">
				<ele>867.000000</ele>
				<time>2025-07-12T06:57:39Z</time>
			</trkpt>
			<trkpt lat="42.788852" lon="24.977963">
				<ele>867.000000</ele>
				<time>2025-07-12T06:57:42Z</time>
			</trkpt>
			<trkpt lat="42.788859" lon="24.978016">
				<ele>867.000000</ele>
				<time>2025-07-12T06:57:46Z</time>
			</trkpt>
			<trkpt lat="42.788881" lon="24.978043">
				<ele>867.000000</ele>
				<time>2025-07-12T06:57:49Z</time>
			</trkpt>
			<trkpt lat="42.788915" lon="24.978055">
				<ele>867.000000</ele>
				<time>2025-07-12T06:57:53Z</time>
			</trkpt>
			<trkpt lat="42.788985" lon="24.978102">
				<ele>867.000000</ele>
				<time>2025-07-12T06:58:01Z</time>
			</trkpt>
			<trkpt lat="42.789015" lon="24.978176">
				<ele>868.000000</ele>
				<time>2025-07-12T06:58:09Z</time>
			</trkpt>
			<trkpt lat="42.789028" lon="24.978218">
				<ele>868.000000</ele>
				<time>2025-07-12T06:58:13Z</time>
			</trkpt>
			<trkpt lat="42.789024" lon="24.978218">
				<ele>868.000000</ele>
				<time>2025-07-12T06:58:17Z</time>
			</trkpt>
			<trkpt lat="42.789045" lon="24.978258">
				<ele>868.000000</ele>
				<time>2025-07-12T06:58:24Z</time>
			</trkpt>
			<trkpt lat="42.789059" lon="24.978271">
				<ele>868.000000</ele>
				<time>2025-07-12T06:58:26Z</time>
			</trkpt>
			<trkpt lat="42.789101" lon="24.978285">
				<ele>868.000000</ele>
				<time>2025-07-12T06:58:31Z</time>
			</trkpt>
			<trkpt lat="42.789111" lon="24.978290">
				<ele>868.000000</ele>
				<time>2025-07-12T06:58:32Z</time>
			</trkpt>
			<trkpt lat="42.789185" lon="24.978328">
				<ele>867.000000</ele>
				<time>2025-07-12T06:58:40Z</time>
			</trkpt>
			<trkpt lat="42.789270" lon="24.978346">
				<ele>867.000000</ele>
				<time>2025-07-12T06:58:48Z</time>
			</trkpt>
			<trkpt lat="42.789332" lon="24.978375">
				<ele>867.000000</ele>
				<time>2025-07-12T06:58:55Z</time>
			</trkpt>
			<trkpt lat="42.789339" lon="24.978379">
				<ele>867.000000</ele>
				<time>2025-07-12T06:58:56Z</time>
			</trkpt>
			<trkpt lat="42.789411" lon="24.978447">
				<ele>867.000000</ele>
				<time>2025-07-12T06:59:03Z</time>
			</trkpt>
			<trkpt lat="42.789418" lon="24.978472">
				<ele>867.000000</ele>
				<time>2025-07-12T06:59:05Z</time>
			</trkpt>
			<trkpt lat="42.789425" lon="24.978552">
				<ele>868.000000</ele>
				<time>2025-07-12T06:59:10Z</time>
			</trkpt>
			<trkpt lat="42.789408" lon="24.978637">
				<ele>868.000000</ele>
				<time>2025-07-12T06:59:17Z</time>
			</trkpt>
			<trkpt lat="42.789384" lon="24.978729">
				<ele>868.000000</ele>
				<time>2025-07-12T06:59:23Z</time>
			</trkpt>
			<trkpt lat="42.789379" lon="24.978743">
				<ele>868.000000</ele>
				<time>2025-07-12T06:59:24Z</time>
			</trkpt>
			<trkpt lat="42.789373" lon="24.978766">
				<ele>868.000000</ele>
				<time>2025-07-12T06:59:26Z</time>
			</trkpt>
			<trkpt lat="42.789338" lon="24.978839">
				<ele>869.000000</ele>
				<time>2025-07-12T06:59:33Z</time>
			</trkpt>
			<trkpt lat="42.789317" lon="24.978869">
				<ele>869.000000</ele>
				<time>2025-07-12T06:59:36Z</time>
			</trkpt>
			<trkpt lat="42.789305" lon="24.978890">
				<ele>869.000000</ele>
				<time>2025-07-12T06:59:38Z</time>
			</trkpt>
			<trkpt lat="42.789278" lon="24.978923">
				<ele>870.000000</ele>
				<time>2025-07-12T06:59:41Z</time>
			</trkpt>
			<trkpt lat="42.789254" lon="24.978953">
				<ele>870.000000</ele>
				<time>2025-07-12T06:59:44Z</time>
			</trkpt>
			<trkpt lat="42.789202" lon="24.978991">
				<ele>871.000000</ele>
				<time>2025-07-12T06:59:51Z</time>
			</trkpt>
			<trkpt lat="42.789191" lon="24.978995">
				<ele>871.000000</ele>
				<time>2025-07-12T06:59:52Z</time>
			</trkpt>
			<trkpt lat="42.789139" lon="24.979016">
				<ele>872.000000</ele>
				<time>2025-07-12T06:59:58Z</time>
			</trkpt>
			<trkpt lat="42.789126" lon="24.979021">
				<ele>872.000000</ele>
				<time>2025-07-12T07:00:00Z</time>
			</trkpt>
			<trkpt lat="42.789084" lon="24.979020">
				<ele>873.000000</ele>
				<time>2025-07-12T07:00:05Z</time>
			</trkpt>
			<trkpt lat="42.789050" lon="24.979012">
				<ele>873.000000</ele>
				<time>2025-07-12T07:00:09Z</time>
			</trkpt>
			<trkpt lat="42.789032" lon="24.979005">
				<ele>874.000000</ele>
				<time>2025-07-12T07:00:11Z</time>
			</trkpt>
			<trkpt lat="42.788999" lon="24.978991">
				<ele>875.000000</ele>
				<time>2025-07-12T07:00:16Z</time>
			</trkpt>
			<trkpt lat="42.788981" lon="24.978983">
				<ele>875.000000</ele>
				<time>2025-07-12T07:00:18Z</time>
			</trkpt>
			<trkpt lat="42.788926" lon="24.978954">
				<ele>875.000000</ele>
				<time>2025-07-12T07:00:26Z</time>
			</trkpt>
			<trkpt lat="42.788914" lon="24.978953">
				<ele>876.000000</ele>
				<time>2025-07-12T07:00:27Z</time>
			</trkpt>
			<trkpt lat="42.788866" lon="24.978926">
				<ele>876.000000</ele>
				<time>2025-07-12T07:00:32Z</time>
			</trkpt>
			<trkpt lat="42.788854" lon="24.978915">
				<ele>876.000000</ele>
				<time>2025-07-12T07:00:33Z</time>
			</trkpt>
			<trkpt lat="42.788839" lon="24.978902">
				<ele>877.000000</ele>
				<time>2025-07-12T07:00:35Z</time>
			</trkpt>
			<trkpt lat="42.788806" lon="24.978868">
				<ele>877.000000</ele>
				<time>2025-07-12T07:00:40Z</time>
			</trkpt>
			<trkpt lat="42.788749" lon="24.978818">
				<ele>877.000000</ele>
				<time>2025-07-12T07:00:47Z</time>
			</trkpt>
			<trkpt lat="42.788698" lon="24.978762">
				<ele>878.000000</ele>
				<time>2025-07-12T07:00:54Z</time>
			</trkpt>
			<trkpt lat="42.788646" lon="24.978688">
				<ele>878.000000</ele>
				<time>2025-07-12T07:01:01Z</time>
			</trkpt>
			<trkpt lat="42.788617" lon="24.978629">
				<ele>879.000000</ele>
				<time>2025-07-12T07:01:07Z</time>
			</trkpt>
			<trkpt lat="42.788563" lon="24.978556">
				<ele>880.000000</ele>
				<time>2025-07-12T07:01:15Z</time>
			</trkpt>
			<trkpt lat="42.788550" lon="24.978542">
				<ele>880.000000</ele>
				<time>2025-07-12T07:01:17Z</time>
			</trkpt>
			<trkpt lat="42.788515" lon="24.978503">
				<ele>880.000000</ele>
				<time>2025-07-12T07:01:22Z</time>
			</trkpt>
			<trkpt lat="42.788469" lon="24.978438">
				<ele>881.000000</ele>
				<time>2025-07-12T07:01:29Z</time>
			</trkpt>
			<trkpt lat="42.788459" lon="24.978421">
				<ele>881.000000</ele>
				<time>2025-07-12T07:01:31Z</time>
			</trkpt>
			<trkpt lat="42.788394" lon="24.978328">
				<ele>882.000000</ele>
				<time>2025-07-12T07:01:40Z</time>
			</trkpt>
			<trkpt lat="42.788391" lon="24.978316">
				<ele>882.000000</ele>
				<time>2025-07-12T07:01:41Z</time>
			</trkpt>
			<trkpt lat="42.788376" lon="24.978208">
				<ele>883.000000</ele>
				<time>2025-07-12T07:01:49Z</time>
			</trkpt>
			<trkpt lat="42.788368" lon="24.978172">
				<ele>883.000000</ele>
				<time>2025-07-12T07:01:52Z</time>
			</trkpt>
			<trkpt lat="42.788359" lon="24.978147">
				<ele>883.000000</ele>
				<time>2025-07-12T07:01:54Z</time>
			</trkpt>
			<trkpt lat="42.788329" lon="24.978059">
				<ele>884.000000</ele>
				<time>2025-07-12T07:02:02Z</time>
			</trkpt>
			<trkpt lat="42.788288" lon="24.977991">
				<ele>885.000000</ele>
				<time>2025-07-12T07:02:10Z</time>
			</trkpt>
			<trkpt lat="42.788234" lon="24.977882">
				<ele>886.000000</ele>
				<time>2025-07-12T07:02:20Z</time>
			</trkpt>
			<trkpt lat="42.788224" lon="24.977868">
				<ele>886.000000</ele>
				<time>2025-07-12T07:02:22Z</time>
			</trkpt>
			<trkpt lat="42.788191" lon="24.977788">
				<ele>887.000000</ele>
				<time>2025-07-12T07:02:29Z</time>
			</trkpt>
			<trkpt lat="42.788178" lon="24.977763">
				<ele>887.000000</ele>
				<time>2025-07-12T07:02:32Z</time>
			</trkpt>
			<trkpt lat="42.788138" lon="24.977708">
				<ele>888.000000</ele>
				<time>2025-07-12T07:02:38Z</time>
			</trkpt>
			<trkpt lat="42.788077" lon="24.977674">
				<ele>888.000000</ele>
				<time>2025-07-12T07:02:45Z</time>
			</trkpt>
			<trkpt lat="42.788057" lon="24.977666">
				<ele>888.000000</ele>
				<time>2025-07-12T07:02:47Z</time>
			</trkpt>
			<trkpt lat="42.788003" lon="24.977640">
				<ele>889.000000</ele>
				<time>2025-07-12T07:02:54Z</time>
			</trkpt>
			<trkpt lat="42.787944" lon="24.977632">
				<ele>889.000000</ele>
				<time>2025-07-12T07:03:01Z</time>
			</trkpt>
			<trkpt lat="42.787887" lon="24.977615">
				<ele>890.000000</ele>
				<time>2025-07-12T07:03:08Z</time>
			</trkpt>
			<trkpt lat="42.787877" lon="24.977615">
				<ele>891.000000</ele>
				<time>2025-07-12T07:03:09Z</time>
			</trkpt>
			<trkpt lat="42.787833" lon="24.977613">
				<ele>892.000000</ele>
				<time>2025-07-12T07:03:14Z</time>
			</trkpt>
			<trkpt lat="42.787800" lon="24.977611">
				<ele>892.000000</ele>
				<time>2025-07-12T07:03:18Z</time>
			</trkpt>
			<trkpt lat="42.787745" lon="24.977621">
				<ele>893.000000</ele>
				<time>2025-07-12T07:03:23Z</time>
			</trkpt>
			<trkpt lat="42.787735" lon="24.977624">
				<ele>893.000000</ele>
				<time>2025-07-12T07:03:24Z</time>
			</trkpt>
			<trkpt lat="42.787655" lon="24.977629">
				<ele>894.000000</ele>
				<time>2025-07-12T07:03:33Z</time>
			</trkpt>
			<trkpt lat="42.787578" lon="24.977614">
				<ele>895.000000</ele>
				<time>2025-07-12T07:03:41Z</time>
			</trkpt>
			<trkpt lat="42.787535" lon="24.977595">
				<ele>896.000000</ele>
				<time>2025-07-12T07:03:48Z</time>
			</trkpt>
			<trkpt lat="42.787514" lon="24.977595">
				<ele>896.000000</ele>
				<time>2025-07-12T07:03:50Z</time>
			</trkpt>
			<trkpt lat="42.787480" lon="24.977587">
				<ele>897.000000</ele>
				<time>2025-07-12T07:03:55Z</time>
			</trkpt>
			<trkpt lat="42.787425" lon="24.977574">
				<ele>897.000000</ele>
				<time>2025-07-12T07:04:01Z</time>
			</trkpt>
			<trkpt lat="42.787409" lon="24.977581">
				<ele>897.000000</ele>
				<time>2025-07-12T07:04:03Z</time>
			</trkpt>
			<trkpt lat="42.787334" lon="24.977603">
				<ele>898.000000</ele>
				<time>2025-07-12T07:04:11Z</time>
			</trkpt>
			<trkpt lat="42.787284" lon="24.977624">
				<ele>898.000000</ele>
				<time>2025-07-12T07:04:17Z</time>
			</trkpt>
			<trkpt lat="42.787253" lon="24.977638">
				<ele>898.000000</ele>
				<time>2025-07-12T07:04:20Z</time>
			</trkpt>
			<trkpt lat="42.787215" lon="24.977645">
				<ele>899.000000</ele>
				<time>2025-07-12T07:04:24Z</time>
			</trkpt>
			<trkpt lat="42.787148" lon="24.977656">
				<ele>899.000000</ele>
				<time>2025-07-12T07:04:32Z</time>
			</trkpt>
			<trkpt lat="42.787136" lon="24.977660">
				<ele>899.000000</ele>
				<time>2025-07-12T07:04:34Z</time>
			</trkpt>
			<trkpt lat="42.787082" lon="24.977693">
				<ele>900.000000</ele>
				<time>2025-07-12T07:04:41Z</time>
			</trkpt>
			<trkpt lat="42.787059" lon="24.977703">
				<ele>900.000000</ele>
				<time>2025-07-12T07:04:44Z</time>
			</trkpt>
			<trkpt lat="42.787017" lon="24.977709">
				<ele>901.000000</ele>
				<time>2025-07-12T07:04:49Z</time>
			</trkpt>
			<trkpt lat="42.786979" lon="24.977716">
				<ele>901.000000</ele>
				<time>2025-07-12T07:04:52Z</time>
			</trkpt>
			<trkpt lat="42.786959" lon="24.977740">
				<ele>902.000000</ele>
				<time>2025-07-12T07:04:56Z</time>
			</trkpt>
			<trkpt lat="42.786913" lon="24.977790">
				<ele>902.000000</ele>
				<time>2025-07-12T07:05:02Z</time>
			</trkpt>
			<trkpt lat="42.786905" lon="24.977799">
				<ele>902.000000</ele>
				<time>2025-07-12T07:05:03Z</time>
			</trkpt>
			<trkpt lat="42.786846" lon="24.977821">
				<ele>903.000000</ele>
				<time>2025-07-12T07:05:10Z</time>
			</trkpt>
			<trkpt lat="42.786821" lon="24.977826">
				<ele>903.000000</ele>
				<time>2025-07-12T07:05:13Z</time>
			</trkpt>
			<trkpt lat="42.786778" lon="24.977834">
				<ele>904.000000</ele>
				<time>2025-07-12T07:05:17Z</time>
			</trkpt>
			<trkpt lat="42.786730" lon="24.977839">
				<ele>904.000000</ele>
				<time>2025-07-12T07:05:23Z</time>
			</trkpt>
			<trkpt lat="42.786694" lon="24.977854">
				<ele>905.000000</ele>
				<time>2025-07-12T07:05:27Z</time>
			</trkpt>
			<trkpt lat="42.786682" lon="24.977868">
				<ele>905.000000</ele>
				<time>2025-07-12T07:05:29Z</time>
			</trkpt>
			<trkpt lat="42.786622" lon="24.977916">
				<ele>905.000000</ele>
				<time>2025-07-12T07:05:36Z</time>
			</trkpt>
			<trkpt lat="42.786576" lon="24.977951">
				<ele>905.000000</ele>
				<time>2025-07-12T07:05:42Z</time>
			</trkpt>
			<trkpt lat="42.786570" lon="24.977952">
				<ele>906.000000</ele>
				<time>2025-07-12T07:05:43Z</time>
			</trkpt>
			<trkpt lat="42.786504" lon="24.977994">
				<ele>906.000000</ele>
				<time>2025-07-12T07:05:50Z</time>
			</trkpt>
			<trkpt lat="42.786450" lon="24.978025">
				<ele>907.000000</ele>
				<time>2025-07-12T07:05:56Z</time>
			</trkpt>
			<trkpt lat="42.786443" lon="24.978030">
				<ele>907.000000</ele>
				<time>2025-07-12T07:05:57Z</time>
			</trkpt>
			<trkpt lat="42.786394" lon="24.978049">
				<ele>907.000000</ele>
				<time>2025-07-12T07:06:04Z</time>
			</trkpt>
			<trkpt lat="42.786385" lon="24.978054">
				<ele>908.000000</ele>
				<time>2025-07-12T07:06:05Z</time>
			</trkpt>
			<trkpt lat="42.786305" lon="24.978092">
				<ele>908.000000</ele>
				<time>2025-07-12T07:06:14Z</time>
			</trkpt>
			<trkpt lat="42.786295" lon="24.978101">
				<ele>909.000000</ele>
				<time>2025-07-12T07:06:16Z</time>
			</trkpt>
			<trkpt lat="42.786261" lon="24.978128">
				<ele>909.000000</ele>
				<time>2025-07-12T07:06:22Z</time>
			</trkpt>
			<trkpt lat="42.786198" lon="24.978143">
				<ele>909.000000</ele>
				<time>2025-07-12T07:06:29Z</time>
			</trkpt>
			<trkpt lat="42.786138" lon="24.978159">
				<ele>910.000000</ele>
				<time>2025-07-12T07:06:36Z</time>
			</trkpt>
			<trkpt lat="42.786130" lon="24.978163">
				<ele>910.000000</ele>
				<time>2025-07-12T07:06:37Z</time>
			</trkpt>
			<trkpt lat="42.786092" lon="24.978169">
				<ele>911.000000</ele>
				<time>2025-07-12T07:06:43Z</time>
			</trkpt>
			<trkpt lat="42.786087" lon="24.978169">
				<ele>911.000000</ele>
				<time>2025-07-12T07:06:44Z</time>
			</trkpt>
			<trkpt lat="42.786051" lon="24.978198">
				<ele>912.000000</ele>
				<time>2025-07-12T07:06:48Z</time>
			</trkpt>
			<trkpt lat="42.786040" lon="24.978226">
				<ele>912.000000</ele>
				<time>2025-07-12T07:06:51Z</time>
			</trkpt>
			<trkpt lat="42.785995" lon="24.978291">
				<ele>913.000000</ele>
				<time>2025-07-12T07:06:59Z</time>
			</trkpt>
			<trkpt lat="42.785981" lon="24.978320">
				<ele>913.000000</ele>
				<time>2025-07-12T07:07:03Z</time>
			</trkpt>
			<trkpt lat="42.785966" lon="24.978356">
				<ele>913.000000</ele>
				<time>2025-07-12T07:07:06Z</time>
			</trkpt>
			<trkpt lat="42.785940" lon="24.978472">
				<ele>913.000000</ele>
				<time>2025-07-12T07:07:16Z</time>
			</trkpt>
			<trkpt lat="42.785930" lon="24.978526">
				<ele>914.000000</ele>
				<time>2025-07-12T07:07:20Z</time>
			</trkpt>
			<trkpt lat="42.785927" lon="24.978541">
				<ele>914.000000</ele>
				<time>2025-07-12T07:07:22Z</time>
			</trkpt>
			<trkpt lat="42.785914" lon="24.978590">
				<ele>914.000000</ele>
				<time>2025-07-12T07:07:28Z</time>
			</trkpt>
			<trkpt lat="42.785893" lon="24.978653">
				<ele>915.000000</ele>
				<time>2025-07-12T07:07:35Z</time>
			</trkpt>
			<trkpt lat="42.785884" lon="24.978696">
				<ele>915.000000</ele>
				<time>2025-07-12T07:07:38Z</time>
			</trkpt>
			<trkpt lat="42.785877" lon="24.978738">
				<ele>915.000000</ele>
				<time>2025-07-12T07:07:41Z</time>
			</trkpt>
			<trkpt lat="42.785885" lon="24.978812">
				<ele>916.000000</ele>
				<time>2025-07-12T07:07:47Z</time>
			</trkpt>
			<trkpt lat="42.785893" lon="24.978831">
				<ele>916.000000</ele>
				<time>2025-07-12T07:07:49Z</time>
			</trkpt>
			<trkpt lat="42.785935" lon="24.978916">
				<ele>916.000000</ele>
				<time>2025-07-12T07:07:58Z</time>
			</trkpt>
			<trkpt lat="42.785962" lon="24.978981">
				<ele>917.000000</ele>
				<time>2025-07-12T07:08:05Z</time>
			</trkpt>
			<trkpt lat="42.785980" lon="24.979033">
				<ele>917.000000</ele>
				<time>2025-07-12T07:08:10Z</time>
			</trkpt>
			<trkpt lat="42.785991" lon="24.979089">
				<ele>918.000000</ele>
				<time>2025-07-12T07:08:15Z</time>
			</trkpt>
			<trkpt lat="42.785991" lon="24.979122">
				<ele>918.000000</ele>
				<time>2025-07-12T07:08:18Z</time>
			</trkpt>
			<trkpt lat="42.785992" lon="24.979130">
				<ele>918.000000</ele>
				<time>2025-07-12T07:08:19Z</time>
			</trkpt>
			<trkpt lat="42.785999" lon="24.979160">
				<ele>919.000000</ele>
				<time>2025-07-12T07:08:25Z</time>
			</trkpt>
			<trkpt lat="42.786026" lon="24.979181">
				<ele>919.000000</ele>
				<time>2025-07-12T07:08:32Z</time>
			</trkpt>
			<trkpt lat="42.786065" lon="24.979233">
				<ele>919.000000</ele>
				<time>2025-07-12T07:08:41Z</time>
			</trkpt>
			<trkpt lat="42.786070" lon="24.979242">
				<ele>919.000000</ele>
				<time>2025-07-12T07:08:42Z</time>
			</trkpt>
			<trkpt lat="42.786110" lon="24.979307">
				<ele>920.000000</ele>
				<time>2025-07-12T07:08:50Z</time>
			</trkpt>
			<trkpt lat="42.786139" lon="24.979400">
				<ele>920.000000</ele>
				<time>2025-07-12T07:08:59Z</time>
			</trkpt>
			<trkpt lat="42.786141" lon="24.979417">
				<ele>920.000000</ele>
				<time>2025-07-12T07:09:00Z</time>
			</trkpt>
			<trkpt lat="42.786144" lon="24.979445">
				<ele>920.000000</ele>
				<time>2025-07-12T07:09:03Z</time>
			</trkpt>
			<trkpt lat="42.786140" lon="24.979488">
				<ele>921.000000</ele>
				<time>2025-07-12T07:09:08Z</time>
			</trkpt>
			<trkpt lat="42.786132" lon="24.979583">
				<ele>921.000000</ele>
				<time>2025-07-12T07:09:16Z</time>
			</trkpt>
			<trkpt lat="42.786132" lon="24.979595">
				<ele>921.000000</ele>
				<time>2025-07-12T07:09:17Z</time>
			</trkpt>
			<trkpt lat="42.786137" lon="24.979662">
				<ele>922.000000</ele>
				<time>2025-07-12T07:09:22Z</time>
			</trkpt>
			<trkpt lat="42.786130" lon="24.979708">
				<ele>922.000000</ele>
				<time>2025-07-12T07:09:26Z</time>
			</trkpt>
			<trkpt lat="42.786132" lon="24.979724">
				<ele>922.000000</ele>
				<time>2025-07-12T07:09:28Z</time>
			</trkpt>
			<trkpt lat="42.786125" lon="24.979789">
				<ele>923.000000</ele>
				<time>2025-07-12T07:09:34Z</time>
			</trkpt>
			<trkpt lat="42.786132" lon="24.979844">
				<ele>923.000000</ele>
				<time>2025-07-12T07:09:38Z</time>
			</trkpt>
			<trkpt lat="42.786147" lon="24.979873">
				<ele>923.000000</ele>
				<time>2025-07-12T07:09:41Z</time>
			</trkpt>
			<trkpt lat="42.786152" lon="24.979885">
				<ele>924.000000</ele>
				<time>2025-07-12T07:09:42Z</time>
			</trkpt>
			<trkpt lat="42.786180" lon="24.979973">
				<ele>924.000000</ele>
				<time>2025-07-12T07:09:50Z</time>
			</trkpt>
			<trkpt lat="42.786199" lon="24.979991">
				<ele>924.000000</ele>
				<time>2025-07-12T07:09:53Z</time>
			</trkpt>
			<trkpt lat="42.786208" lon="24.980012">
				<ele>924.000000</ele>
				<time>2025-07-12T07:09:55Z</time>
			</trkpt>
			<trkpt lat="42.786208" lon="24.980024">
				<ele>924.000000</ele>
				<time>2025-07-12T07:09:56Z</time>
			</trkpt>
			<trkpt lat="42.786213" lon="24.980036">
				<ele>924.000000</ele>
				<time>2025-07-12T07:09:57Z</time>
			</trkpt>
			<trkpt lat="42.786233" lon="24.980135">
				<ele>925.000000</ele>
				<time>2025-07-12T07:10:06Z</time>
			</trkpt>
			<trkpt lat="42.786233" lon="24.980160">
				<ele>925.000000</ele>
				<time>2025-07-12T07:10:08Z</time>
			</trkpt>
			<trkpt lat="42.786241" lon="24.980213">
				<ele>926.000000</ele>
				<time>2025-07-12T07:10:13Z</time>
			</trkpt>
			<trkpt lat="42.786238" lon="24.980302">
				<ele>926.000000</ele>
				<time>2025-07-12T07:10:21Z</time>
			</trkpt>
			<trkpt lat="42.786236" lon="24.980341">
				<ele>926.000000</ele>
				<time>2025-07-12T07:10:25Z</time>
			</trkpt>
			<trkpt lat="42.786236" lon="24.980381">
				<ele>927.000000</ele>
				<time>2025-07-12T07:10:29Z</time>
			</trkpt>
			<trkpt lat="42.786249" lon="24.980455">
				<ele>927.000000</ele>
				<time>2025-07-12T07:10:35Z</time>
			</trkpt>
			<trkpt lat="42.786252" lon="24.980485">
				<ele>928.000000</ele>
				<time>2025-07-12T07:10:37Z</time>
			</trkpt>
			<trkpt lat="42.786266" lon="24.980540">
				<ele>928.000000</ele>
				<time>2025-07-12T07:10:42Z</time>
			</trkpt>
			<trkpt lat="42.786270" lon="24.980551">
				<ele>928.000000</ele>
				<time>2025-07-12T07:10:43Z</time>
			</trkpt>
			<trkpt lat="42.786273" lon="24.980582">
				<ele>929.000000</ele>
				<time>2025-07-12T07:10:47Z</time>
			</trkpt>
			<trkpt lat="42.786265" lon="24.980632">
				<ele>929.000000</ele>
				<time>2025-07-12T07:10:51Z</time>
			</trkpt>
			<trkpt lat="42.786249" lon="24.980676">
				<ele>929.000000</ele>
				<time>2025-07-12T07:10:57Z</time>
			</trkpt>
			<trkpt lat="42.786244" lon="24.980679">
				<ele>929.000000</ele>
				<time>2025-07-12T07:10:58Z</time>
			</trkpt>
			<trkpt lat="42.786223" lon="24.980711">
				<ele>930.000000</ele>
				<time>2025-07-12T07:11:01Z</time>
			</trkpt>
			<trkpt lat="42.786198" lon="24.980735">
				<ele>930.000000</ele>
				<time>2025-07-12T07:11:05Z</time>
			</trkpt>
			<trkpt lat="42.786152" lon="24.980775">
				<ele>930.000000</ele>
				<time>2025-07-12T07:11:11Z</time>
			</trkpt>
			<trkpt lat="42.786132" lon="24.980803">
				<ele>931.000000</ele>
				<time>2025-07-12T07:11:14Z</time>
			</trkpt>
			<trkpt lat="42.786090" lon="24.980858">
				<ele>932.000000</ele>
				<time>2025-07-12T07:11:20Z</time>
			</trkpt>
			<trkpt lat="42.786079" lon="24.980877">
				<ele>932.000000</ele>
				<time>2025-07-12T07:11:22Z</time>
			</trkpt>
			<trkpt lat="42.786076" lon="24.980960">
				<ele>933.000000</ele>
				<time>2025-07-12T07:11:29Z</time>
			</trkpt>
			<trkpt lat="42.786072" lon="24.980976">
				<ele>933.000000</ele>
				<time>2025-07-12T07:11:30Z</time>
			</trkpt>
			<trkpt lat="42.786064" lon="24.981067">
				<ele>933.000000</ele>
				<time>2025-07-12T07:11:38Z</time>
			</trkpt>
			<trkpt lat="42.786058" lon="24.981082">
				<ele>934.000000</ele>
				<time>2025-07-12T07:11:40Z</time>
			</trkpt>
			<trkpt lat="42.786044" lon="24.981147">
				<ele>934.000000</ele>
				<time>2025-07-12T07:11:47Z</time>
			</trkpt>
			<trkpt lat="42.786038" lon="24.981202">
				<ele>935.000000</ele>
				<time>2025-07-12T07:11:52Z</time>
			</trkpt>
			<trkpt lat="42.786041" lon="24.981224">
				<ele>935.000000</ele>
				<time>2025-07-12T07:11:54Z</time>
			</trkpt>
			<trkpt lat="42.786055" lon="24.981279">
				<ele>935.000000</ele>
				<time>2025-07-12T07:12:01Z</time>
			</trkpt>
			<trkpt lat="42.786039" lon="24.981399">
				<ele>936.000000</ele>
				<time>2025-07-12T07:12:10Z</time>
			</trkpt>
			<trkpt lat="42.786036" lon="24.981409">
				<ele>936.000000</ele>
				<time>2025-07-12T07:12:11Z</time>
			</trkpt>
			<trkpt lat="42.786030" lon="24.981430">
				<ele>936.000000</ele>
				<time>2025-07-12T07:12:13Z</time>
			</trkpt>
			<trkpt lat="42.786003" lon="24.981505">
				<ele>936.000000</ele>
				<time>2025-07-12T07:12:19Z</time>
			</trkpt>
			<trkpt lat="42.785981" lon="24.981546">
				<ele>937.000000</ele>
				<time>2025-07-12T07:12:24Z</time>
			</trkpt>
			<trkpt lat="42.785933" lon="24.981564">
				<ele>937.000000</ele>
				<time>2025-07-12T07:12:29Z</time>
			</trkpt>
			<trkpt lat="42.785884" lon="24.981568">
				<ele>938.000000</ele>
				<time>2025-07-12T07:12:34Z</time>
			</trkpt>
			<trkpt lat="42.785860" lon="24.981565">
				<ele>938.000000</ele>
				<time>2025-07-12T07:12:37Z</time>
			</trkpt>
			<trkpt lat="42.785804" lon="24.981521">
				<ele>939.000000</ele>
				<time>2025-07-12T07:12:44Z</time>
			</trkpt>
			<trkpt lat="42.785767" lon="24.981477">
				<ele>939.000000</ele>
				<time>2025-07-12T07:12:50Z</time>
			</trkpt>
			<trkpt lat="42.785742" lon="24.981434">
				<ele>939.000000</ele>
				<time>2025-07-12T07:12:55Z</time>
			</trkpt>
			<trkpt lat="42.785715" lon="24.981405">
				<ele>939.000000</ele>
				<time>2025-07-12T07:12:58Z</time>
			</trkpt>
			<trkpt lat="42.785655" lon="24.981345">
				<ele>940.000000</ele>
				<time>2025-07-12T07:13:06Z</time>
			</trkpt>
			<trkpt lat="42.785638" lon="24.981330">
				<ele>940.000000</ele>
				<time>2025-07-12T07:13:08Z</time>
			</trkpt>
			<trkpt lat="42.785602" lon="24.981314">
				<ele>940.000000</ele>
				<time>2025-07-12T07:13:13Z</time>
			</trkpt>
			<trkpt lat="42.785532" lon="24.981277">
				<ele>941.000000</ele>
				<time>2025-07-12T07:13:22Z</time>
			</trkpt>
			<trkpt lat="42.785489" lon="24.981281">
				<ele>942.000000</ele>
				<time>2025-07-12T07:13:28Z</time>
			</trkpt>
			<trkpt lat="42.785478" lon="24.981285">
				<ele>942.000000</ele>
				<time>2025-07-12T07:13:30Z</time>
			</trkpt>
			<trkpt lat="42.785432" lon="24.981283">
				<ele>943.000000</ele>
				<time>2025-07-12T07:13:35Z</time>
			</trkpt>
			<trkpt lat="42.785417" lon="24.981286">
				<ele>943.000000</ele>
				<time>2025-07-12T07:13:38Z</time>
			</trkpt>
			<trkpt lat="42.785380" lon="24.981293">
				<ele>944.000000</ele>
				<time>2025-07-12T07:13:43Z</time>
			</trkpt>
			<trkpt lat="42.785333" lon="24.981299">
				<ele>944.000000</ele>
				<time>2025-07-12T07:13:48Z</time>
			</trkpt>
			<trkpt lat="42.785328" lon="24.981306">
				<ele>944.000000</ele>
				<time>2025-07-12T07:13:49Z</time>
			</trkpt>
			<trkpt lat="42.785273" lon="24.981316">
				<ele>945.000000</ele>
				<time>2025-07-12T07:13:57Z</time>
			</trkpt>
			<trkpt lat="42.785263" lon="24.981317">
				<ele>945.000000</ele>
				<time>2025-07-12T07:13:58Z</time>
			</trkpt>
			<trkpt lat="42.785206" lon="24.981320">
				<ele>946.000000</ele>
				<time>2025-07-12T07:14:06Z</time>
			</trkpt>
			<trkpt lat="42.785179" lon="24.981322">
				<ele>946.000000</ele>
				<time>2025-07-12T07:14:08Z</time>
			</trkpt>
			<trkpt lat="42.785158" lon="24.981318">
				<ele>947.000000</ele>
				<time>2025-07-12T07:14:11Z</time>
			</trkpt>
			<trkpt lat="42.785086" lon="24.981294">
				<ele>948.000000</ele>
				<time>2025-07-12T07:14:19Z</time>
			</trkpt>
			<trkpt lat="42.785023" lon="24.981235">
				<ele>948.000000</ele>
				<time>2025-07-12T07:14:27Z</time>
			</trkpt>
			<trkpt lat="42.784998" lon="24.981198">
				<ele>949.000000</ele>
				<time>2025-07-12T07:14:31Z</time>
			</trkpt>
			<trkpt lat="42.784994" lon="24.981172">
				<ele>949.000000</ele>
				<time>2025-07-12T07:14:35Z</time>
			</trkpt>
			<trkpt lat="42.784984" lon="24.981100">
				<ele>949.000000</ele>
				<time>2025-07-12T07:14:40Z</time>
			</trkpt>
			<trkpt lat="42.784984" lon="24.981078">
				<ele>949.000000</ele>
				<time>2025-07-12T07:14:42Z</time>
			</trkpt>
			<trkpt lat="42.784981" lon="24.981059">
				<ele>950.000000</ele>
				<time>2025-07-12T07:14:44Z</time>
			</trkpt>
			<trkpt lat="42.784970" lon="24.981002">
				<ele>950.000000</ele>
				<time>2025-07-12T07:14:49Z</time>
			</trkpt>
			<trkpt lat="42.784944" lon="24.980900">
				<ele>950.000000</ele>
				<time>2025-07-12T07:14:56Z</time>
			</trkpt>
			<trkpt lat="42.784941" lon="24.980868">
				<ele>951.000000</ele>
				<time>2025-07-12T07:14:59Z</time>
			</trkpt>
			<trkpt lat="42.784941" lon="24.980856">
				<ele>951.000000</ele>
				<time>2025-07-12T07:15:00Z</time>
			</trkpt>
			<trkpt lat="42.784932" lon="24.980830">
				<ele>951.000000</ele>
				<time>2025-07-12T07:15:02Z</time>
			</trkpt>
			<trkpt lat="42.784902" lon="24.980776">
				<ele>951.000000</ele>
				<time>2025-07-12T07:15:08Z</time>
			</trkpt>
			<trkpt lat="42.784862" lon="24.980713">
				<ele>952.000000</ele>
				<time>2025-07-12T07:15:14Z</time>
			</trkpt>
			<trkpt lat="42.784837" lon="24.980677">
				<ele>952.000000</ele>
				<time>2025-07-12T07:15:17Z</time>
			</trkpt>
			<trkpt lat="42.784792" lon="24.980620">
				<ele>952.000000</ele>
				<time>2025-07-12T07:15:23Z</time>
			</trkpt>
			<trkpt lat="42.784767" lon="24.980544">
				<ele>953.000000</ele>
				<time>2025-07-12T07:15:30Z</time>
			</trkpt>
			<trkpt lat="42.784763" lon="24.980506">
				<ele>953.000000</ele>
				<time>2025-07-12T07:15:33Z</time>
			</trkpt>
			<trkpt lat="42.784755" lon="24.980471">
				<ele>954.000000</ele>
				<time>2025-07-12T07:15:38Z</time>
			</trkpt>
			<trkpt lat="42.784750" lon="24.980457">
				<ele>954.000000</ele>
				<time>2025-07-12T07:15:40Z</time>
			</trkpt>
			<trkpt lat="42.784734" lon="24.980426">
				<ele>954.000000</ele>
				<time>2025-07-12T07:15:43Z</time>
			</trkpt>
			<trkpt lat="42.784723" lon="24.980408">
				<ele>955.000000</ele>
				<time>2025-07-12T07:15:45Z</time>
			</trkpt>
			<trkpt lat="42.784716" lon="24.980404">
				<ele>955.000000</ele>
				<time>2025-07-12T07:15:46Z</time>
			</trkpt>
			<trkpt lat="42.784685" lon="24.980371">
				<ele>955.000000</ele>
				<time>2025-07-12T07:15:50Z</time>
			</trkpt>
			<trkpt lat="42.784660" lon="24.980349">
				<ele>955.000000</ele>
				<time>2025-07-12T07:15:53Z</time>
			</trkpt>
			<trkpt lat="42.784625" lon="24.980329">
				<ele>956.000000</ele>
				<time>2025-07-12T07:15:58Z</time>
			</trkpt>
			<trkpt lat="42.784585" lon="24.980304">
				<ele>957.000000</ele>
				<time>2025-07-12T07:16:03Z</time>
			</trkpt>
			<trkpt lat="42.784578" lon="24.980300">
				<ele>957.000000</ele>
				<time>2025-07-12T07:16:04Z</time>
			</trkpt>
			<trkpt lat="42.784529" lon="24.980255">
				<ele>957.000000</ele>
				<time>2025-07-12T07:16:11Z</time>
			</trkpt>
			<trkpt lat="42.784526" lon="24.980249">
				<ele>957.000000</ele>
				<time>2025-07-12T07:16:12Z</time>
			</trkpt>
			<trkpt lat="42.784485" lon="24.980235">
				<ele>958.000000</ele>
				<time>2025-07-12T07:16:20Z</time>
			</trkpt>
			<trkpt lat="42.784467" lon="24.980237">
				<ele>958.000000</ele>
				<time>2025-07-12T07:16:22Z</time>
			</trkpt>
			<trkpt lat="42.784404" lon="24.980231">
				<ele>959.000000</ele>
				<time>2025-07-12T07:16:28Z</time>
			</trkpt>
			<trkpt lat="42.784345" lon="24.980212">
				<ele>959.000000</ele>
				<time>2025-07-12T07:16:34Z</time>
			</trkpt>
			<trkpt lat="42.784318" lon="24.980204">
				<ele>959.000000</ele>
				<time>2025-07-12T07:16:38Z</time>
			</trkpt>
			<trkpt lat="42.784310" lon="24.980202">
				<ele>959.000000</ele>
				<time>2025-07-12T07:16:39Z</time>
			</trkpt>
			<trkpt lat="42.784292" lon="24.980198">
				<ele>960.000000</ele>
				<time>2025-07-12T07:16:41Z</time>
			</trkpt>
			<trkpt lat="42.784272" lon="24.980173">
				<ele>960.000000</ele>
				<time>2025-07-12T07:16:47Z</time>
			</trkpt>
			<trkpt lat="42.784276" lon="24.980156">
				<ele>960.000000</ele>
				<time>2025-07-12T07:16:55Z</time>
			</trkpt>
			<trkpt lat="42.784274" lon="24.980156">
				<ele>960.000000</ele>
				<time>2025-07-12T07:17:04Z</time>
			</trkpt>
			<trkpt lat="42.784282" lon="24.980162">
				<ele>960.000000</ele>
				<time>2025-07-12T07:17:11Z</time>
			</trkpt>
			<trkpt lat="42.784292" lon="24.980177">
				<ele>960.000000</ele>
				<time>2025-07-12T07:17:17Z</time>
			</trkpt>
			<trkpt lat="42.784287" lon="24.980176">
				<ele>960.000000</ele>
				<time>2025-07-12T07:17:18Z</time>
			</trkpt>
			<trkpt lat="42.784282" lon="24.980178">
				<ele>960.000000</ele>
				<time>2025-07-12T07:17:27Z</time>
			</trkpt>
			<trkpt lat="42.784293" lon="24.980182">
				<ele>960.000000</ele>
				<time>2025-07-12T07:17:32Z</time>
			</trkpt>
			<trkpt lat="42.784296" lon="24.980182">
				<ele>959.000000</ele>
				<time>2025-07-12T07:17:36Z</time>
			</trkpt>
			<trkpt lat="42.784297" lon="24.980182">
				<ele>959.000000</ele>
				<time>2025-07-12T07:17:39Z</time>
			</trkpt>
			<trkpt lat="42.784296" lon="24.980182">
				<ele>959.000000</ele>
				<time>2025-07-12T07:17:40Z</time>
			</trkpt>
			<trkpt lat="42.784304" lon="24.980190">
				<ele>959.000000</ele>
				<time>2025-07-12T07:17:47Z</time>
			</trkpt>
			<trkpt lat="42.784297" lon="24.980182">
				<ele>959.000000</ele>
				<time>2025-07-12T07:17:51Z</time>
			</trkpt>
			<trkpt lat="42.784284" lon="24.980172">
				<ele>960.000000</ele>
				<time>2025-07-12T07:18:05Z</time>
			</trkpt>
			<trkpt lat="42.784263" lon="24.980173">
				<ele>959.000000</ele>
				<time>2025-07-12T07:18:12Z</time>
			</trkpt>
			<trkpt lat="42.784248" lon="24.980202">
				<ele>959.000000</ele>
				<time>2025-07-12T07:18:23Z</time>
			</trkpt>
			<trkpt lat="42.784167" lon="24.980215">
				<ele>960.000000</ele>
				<time>2025-07-12T07:18:31Z</time>
			</trkpt>
			<trkpt lat="42.784109" lon="24.980211">
				<ele>960.000000</ele>
				<time>2025-07-12T07:18:39Z</time>
			</trkpt>
			<trkpt lat="42.784044" lon="24.980221">
				<ele>961.000000</ele>
				<time>2025-07-12T07:18:48Z</time>
			</trkpt>
			<trkpt lat="42.784025" lon="24.980231">
				<ele>961.000000</ele>
				<time>2025-07-12T07:18:50Z</time>
			</trkpt>
			<trkpt lat="42.783994" lon="24.980253">
				<ele>962.000000</ele>
				<time>2025-07-12T07:18:53Z</time>
			</trkpt>
			<trkpt lat="42.783975" lon="24.980279">
				<ele>962.000000</ele>
				<time>2025-07-12T07:18:56Z</time>
			</trkpt>
			<trkpt lat="42.783952" lon="24.980302">
				<ele>962.000000</ele>
				<time>2025-07-12T07:18:59Z</time>
			</trkpt>
			<trkpt lat="42.783932" lon="24.980312">
				<ele>963.000000</ele>
				<time>2025-07-12T07:19:03Z</time>
			</trkpt>
			<trkpt lat="42.783893" lon="24.980341">
				<ele>964.000000</ele>
				<time>2025-07-12T07:19:10Z</time>
			</trkpt>
			<trkpt lat="42.783881" lon="24.980350">
				<ele>964.000000</ele>
				<time>2025-07-12T07:19:12Z</time>
			</trkpt>
			<trkpt lat="42.783807" lon="24.980379">
				<ele>965.000000</ele>
				<time>2025-07-12T07:19:21Z</time>
			</trkpt>
			<trkpt lat="42.783784" lon="24.980390">
				<ele>965.000000</ele>
				<time>2025-07-12T07:19:29Z</time>
			</trkpt>
			<trkpt lat="42.783741" lon="24.980434">
				<ele>965.000000</ele>
				<time>2025-07-12T07:19:37Z</time>
			</trkpt>
			<trkpt lat="42.783721" lon="24.980460">
				<ele>966.000000</ele>
				<time>2025-07-12T07:19:40Z</time>
			</trkpt>
			<trkpt lat="42.783685" lon="24.980496">
				<ele>966.000000</ele>
				<time>2025-07-12T07:19:45Z</time>
			</trkpt>
			<trkpt lat="42.783647" lon="24.980507">
				<ele>967.000000</ele>
				<time>2025-07-12T07:19:49Z</time>
			</trkpt>
			<trkpt lat="42.783643" lon="24.980508">
				<ele>967.000000</ele>
				<time>2025-07-12T07:19:50Z</time>
			</trkpt>
			<trkpt lat="42.783597" lon="24.980543">
				<ele>968.000000</ele>
				<time>2025-07-12T07:19:58Z</time>
			</trkpt>
			<trkpt lat="42.783584" lon="24.980546">
				<ele>968.000000</ele>
				<time>2025-07-12T07:19:59Z</time>
			</trkpt>
			<trkpt lat="42.783528" lon="24.980579">
				<ele>968.000000</ele>
				<time>2025-07-12T07:20:05Z</time>
			</trkpt>
			<trkpt lat="42.783511" lon="24.980586">
				<ele>969.000000</ele>
				<time>2025-07-12T07:20:08Z</time>
			</trkpt>
			<trkpt lat="42.783477" lon="24.980616">
				<ele>969.000000</ele>
				<time>2025-07-12T07:20:13Z</time>
			</trkpt>
			<trkpt lat="42.783423" lon="24.980664">
				<ele>970.000000</ele>
				<time>2025-07-12T07:20:20Z</time>
			</trkpt>
			<trkpt lat="42.783391" lon="24.980705">
				<ele>971.000000</ele>
				<time>2025-07-12T07:20:26Z</time>
			</trkpt>
			<trkpt lat="42.783327" lon="24.980748">
				<ele>971.000000</ele>
				<time>2025-07-12T07:20:34Z</time>
			</trkpt>
			<trkpt lat="42.783263" lon="24.980776">
				<ele>971.000000</ele>
				<time>2025-07-12T07:20:41Z</time>
			</trkpt>
			<trkpt lat="42.783254" lon="24.980780">
				<ele>971.000000</ele>
				<time>2025-07-12T07:20:42Z</time>
			</trkpt>
			<trkpt lat="42.783190" lon="24.980798">
				<ele>972.000000</ele>
				<time>2025-07-12T07:20:49Z</time>
			</trkpt>
			<trkpt lat="42.783181" lon="24.980806">
				<ele>972.000000</ele>
				<time>2025-07-12T07:20:51Z</time>
			</trkpt>
			<trkpt lat="42.783154" lon="24.980819">
				<ele>972.000000</ele>
				<time>2025-07-12T07:20:54Z</time>
			</trkpt>
			<trkpt lat="42.783122" lon="24.980844">
				<ele>973.000000</ele>
				<time>2025-07-12T07:20:58Z</time>
			</trkpt>
			<trkpt lat="42.783110" lon="24.980841">
				<ele>973.000000</ele>
				<time>2025-07-12T07:21:00Z</time>
			</trkpt>
			<trkpt lat="42.783047" lon="24.980834">
				<ele>974.000000</ele>
				<time>2025-07-12T07:21:06Z</time>
			</trkpt>
			<trkpt lat="42.783022" lon="24.980829">
				<ele>974.000000</ele>
				<time>2025-07-12T07:21:12Z</time>
			</trkpt>
			<trkpt lat="42.783032" lon="24.980839">
				<ele>974.000000</ele>
				<time>2025-07-12T07:21:20Z</time>
			</trkpt>
			<trkpt lat="42.782995" lon="24.980885">
				<ele>975.000000</ele>
				<time>2025-07-12T07:21:27Z</time>
			</trkpt>
			<trkpt lat="42.782985" lon="24.980898">
				<ele>975.000000</ele>
				<time>2025-07-12T07:21:29Z</time>
			</trkpt>
			<trkpt lat="42.782932" lon="24.980927">
				<ele>976.000000</ele>
				<time>2025-07-12T07:21:36Z</time>
			</trkpt>
			<trkpt lat="42.782855" lon="24.980966">
				<ele>976.000000</ele>
				<time>2025-07-12T07:21:44Z</time>
			</trkpt>
			<trkpt lat="42.782843" lon="24.980971">
				<ele>976.000000</ele>
				<time>2025-07-12T07:21:46Z</time>
			</trkpt>
			<trkpt lat="42.782815" lon="24.980988">
				<ele>977.000000</ele>
				<time>2025-07-12T07:21:51Z</time>
			</trkpt>
			<trkpt lat="42.782778" lon="24.981012">
				<ele>977.000000</ele>
				<time>2025-07-12T07:21:57Z</time>
			</trkpt>
			<trkpt lat="42.782760" lon="24.981030">
				<ele>977.000000</ele>
				<time>2025-07-12T07:21:59Z</time>
			</trkpt>
			<trkpt lat="42.782720" lon="24.981043">
				<ele>978.000000</ele>
				<time>2025-07-12T07:22:05Z</time>
			</trkpt>
			<trkpt lat="42.782655" lon="24.981076">
				<ele>978.000000</ele>
				<time>2025-07-12T07:22:12Z</time>
			</trkpt>
			<trkpt lat="42.782643" lon="24.981081">
				<ele>978.000000</ele>
				<time>2025-07-12T07:22:14Z</time>
			</trkpt>
			<trkpt lat="42.782609" lon="24.981102">
				<ele>978.000000</ele>
				<time>2025-07-12T07:22:19Z</time>
			</trkpt>
			<trkpt lat="42.782537" lon="24.981122">
				<ele>979.000000</ele>
				<time>2025-07-12T07:22:27Z</time>
			</trkpt>
			<trkpt lat="42.782499" lon="24.981126">
				<ele>979.000000</ele>
				<time>2025-07-12T07:22:32Z</time>
			</trkpt>
			<trkpt lat="42.782488" lon="24.981136">
				<ele>979.000000</ele>
				<time>2025-07-12T07:22:34Z</time>
			</trkpt>
			<trkpt lat="42.782435" lon="24.981141">
				<ele>980.000000</ele>
				<time>2025-07-12T07:22:41Z</time>
			</trkpt>
			<trkpt lat="42.782395" lon="24.981157">
				<ele>980.000000</ele>
				<time>2025-07-12T07:22:47Z</time>
			</trkpt>
			<trkpt lat="42.782370" lon="24.981177">
				<ele>980.000000</ele>
				<time>2025-07-12T07:22:52Z</time>
			</trkpt>
			<trkpt lat="42.782364" lon="24.981177">
				<ele>981.000000</ele>
				<time>2025-07-12T07:22:53Z</time>
			</trkpt>
			<trkpt lat="42.782310" lon="24.981185">
				<ele>981.000000</ele>
				<time>2025-07-12T07:23:00Z</time>
			</trkpt>
			<trkpt lat="42.782263" lon="24.981210">
				<ele>981.000000</ele>
				<time>2025-07-12T07:23:06Z</time>
			</trkpt>
			<trkpt lat="42.782233" lon="24.981222">
				<ele>981.000000</ele>
				<time>2025-07-12T07:23:11Z</time>
			</trkpt>
			<trkpt lat="42.782211" lon="24.981228">
				<ele>982.000000</ele>
				<time>2025-07-12T07:23:13Z</time>
			</trkpt>
			<trkpt lat="42.782155" lon="24.981254">
				<ele>982.000000</ele>
				<time>2025-07-12T07:23:21Z</time>
			</trkpt>
			<trkpt lat="42.782138" lon="24.981255">
				<ele>983.000000</ele>
				<time>2025-07-12T07:23:24Z</time>
			</trkpt>
			<trkpt lat="42.782123" lon="24.981266">
				<ele>983.000000</ele>
				<time>2025-07-12T07:23:27Z</time>
			</trkpt>
			<trkpt lat="42.782069" lon="24.981291">
				<ele>983.000000</ele>
				<time>2025-07-12T07:23:35Z</time>
			</trkpt>
			<trkpt lat="42.782060" lon="24.981299">
				<ele>984.000000</ele>
				<time>2025-07-12T07:23:36Z</time>
			</trkpt>
			<trkpt lat="42.782024" lon="24.981313">
				<ele>984.000000</ele>
				<time>2025-07-12T07:23:41Z</time>
			</trkpt>
			<trkpt lat="42.781986" lon="24.981338">
				<ele>984.000000</ele>
				<time>2025-07-12T07:23:48Z</time>
			</trkpt>
			<trkpt lat="42.781974" lon="24.981338">
				<ele>985.000000</ele>
				<time>2025-07-12T07:23:50Z</time>
			</trkpt>
			<trkpt lat="42.781948" lon="24.981352">
				<ele>985.000000</ele>
				<time>2025-07-12T07:23:53Z</time>
			</trkpt>
			<trkpt lat="42.781914" lon="24.981401">
				<ele>986.000000</ele>
				<time>2025-07-12T07:24:01Z</time>
			</trkpt>
			<trkpt lat="42.781870" lon="24.981452">
				<ele>987.000000</ele>
				<time>2025-07-12T07:24:09Z</time>
			</trkpt>
			<trkpt lat="42.781873" lon="24.981448">
				<ele>987.000000</ele>
				<time>2025-07-12T07:24:10Z</time>
			</trkpt>
			<trkpt lat="42.781892" lon="24.981432">
				<ele>987.000000</ele>
				<time>2025-07-12T07:24:19Z</time>
			</trkpt>
			<trkpt lat="42.781889" lon="24.981431">
				<ele>987.000000</ele>
				<time>2025-07-12T07:24:29Z</time>
			</trkpt>
			<trkpt lat="42.781852" lon="24.981436">
				<ele>986.000000</ele>
				<time>2025-07-12T07:24:33Z</time>
			</trkpt>
			<trkpt lat="42.781840" lon="24.981434">
				<ele>987.000000</ele>
				<time>2025-07-12T07:24:35Z</time>
			</trkpt>
			<trkpt lat="42.781847" lon="24.981430">
				<ele>987.000000</ele>
				<time>2025-07-12T07:24:45Z</time>
			</trkpt>
			<trkpt lat="42.781845" lon="24.981434">
				<ele>987.000000</ele>
				<time>2025-07-12T07:24:46Z</time>
			</trkpt>
			<trkpt lat="42.781855" lon="24.981536">
				<ele>987.000000</ele>
				<time>2025-07-12T07:24:54Z</time>
			</trkpt>
			<trkpt lat="42.781824" lon="24.981629">
				<ele>987.000000</ele>
				<time>2025-07-12T07:25:01Z</time>
			</trkpt>
			<trkpt lat="42.781821" lon="24.981639">
				<ele>987.000000</ele>
				<time>2025-07-12T07:25:02Z</time>
			</trkpt>
			<trkpt lat="42.781792" lon="24.981696">
				<ele>987.000000</ele>
				<time>2025-07-12T07:25:08Z</time>
			</trkpt>
			<trkpt lat="42.781776" lon="24.981750">
				<ele>988.000000</ele>
				<time>2025-07-12T07:25:13Z</time>
			</trkpt>
			<trkpt lat="42.781767" lon="24.981773">
				<ele>988.000000</ele>
				<time>2025-07-12T07:25:15Z</time>
			</trkpt>
			<trkpt lat="42.781742" lon="24.981801">
				<ele>989.000000</ele>
				<time>2025-07-12T07:25:19Z</time>
			</trkpt>
			<trkpt lat="42.781721" lon="24.981818">
				<ele>989.000000</ele>
				<time>2025-07-12T07:25:21Z</time>
			</trkpt>
			<trkpt lat="42.781688" lon="24.981835">
				<ele>989.000000</ele>
				<time>2025-07-12T07:25:24Z</time>
			</trkpt>
			<trkpt lat="42.781635" lon="24.981852">
				<ele>989.000000</ele>
				<time>2025-07-12T07:25:29Z</time>
			</trkpt>
			<trkpt lat="42.781575" lon="24.981872">
				<ele>990.000000</ele>
				<time>2025-07-12T07:25:35Z</time>
			</trkpt>
			<trkpt lat="42.781568" lon="24.981873">
				<ele>990.000000</ele>
				<time>2025-07-12T07:25:36Z</time>
			</trkpt>
			<trkpt lat="42.781507" lon="24.981894">
				<ele>990.000000</ele>
				<time>2025-07-12T07:25:43Z</time>
			</trkpt>
			<trkpt lat="42.781460" lon="24.981911">
				<ele>991.000000</ele>
				<time>2025-07-12T07:25:48Z</time>
			</trkpt>
			<trkpt lat="42.781442" lon="24.981916">
				<ele>991.000000</ele>
				<time>2025-07-12T07:25:50Z</time>
			</trkpt>
			<trkpt lat="42.781403" lon="24.981939">
				<ele>991.000000</ele>
				<time>2025-07-12T07:25:57Z</time>
			</trkpt>
			<trkpt lat="42.781326" lon="24.981961">
				<ele>991.000000</ele>
				<time>2025-07-12T07:26:04Z</time>
			</trkpt>
			<trkpt lat="42.781251" lon="24.981966">
				<ele>992.000000</ele>
				<time>2025-07-12T07:26:12Z</time>
			</trkpt>
			<trkpt lat="42.781225" lon="24.981970">
				<ele>992.000000</ele>
				<time>2025-07-12T07:26:14Z</time>
			</trkpt>
			<trkpt lat="42.781184" lon="24.981966">
				<ele>992.000000</ele>
				<time>2025-07-12T07:26:20Z</time>
			</trkpt>
			<trkpt lat="42.781136" lon="24.981974">
				<ele>993.000000</ele>
				<time>2025-07-12T07:26:25Z</time>
			</trkpt>
			<trkpt lat="42.781113" lon="24.981974">
				<ele>993.000000</ele>
				<time>2025-07-12T07:26:27Z</time>
			</trkpt>
			<trkpt lat="42.781041" lon="24.981967">
				<ele>994.000000</ele>
				<time>2025-07-12T07:26:35Z</time>
			</trkpt>
			<trkpt lat="42.781033" lon="24.981967">
				<ele>994.000000</ele>
				<time>2025-07-12T07:26:36Z</time>
			</trkpt>
			<trkpt lat="42.781006" lon="24.981961">
				<ele>994.000000</ele>
				<time>2025-07-12T07:26:39Z</time>
			</trkpt>
			<trkpt lat="42.780972" lon="24.981957">
				<ele>995.000000</ele>
				<time>2025-07-12T07:26:42Z</time>
			</trkpt>
			<trkpt lat="42.780959" lon="24.981953">
				<ele>995.000000</ele>
				<time>2025-07-12T07:26:43Z</time>
			</trkpt>
			<trkpt lat="42.780908" lon="24.981963">
				<ele>996.000000</ele>
				<time>2025-07-12T07:26:50Z</time>
			</trkpt>
			<trkpt lat="42.780861" lon="24.981961">
				<ele>997.000000</ele>
				<time>2025-07-12T07:26:55Z</time>
			</trkpt>
			<trkpt lat="42.780824" lon="24.981961">
				<ele>998.000000</ele>
				<time>2025-07-12T07:26:59Z</time>
			</trkpt>
			<trkpt lat="42.780790" lon="24.981953">
				<ele>998.000000</ele>
				<time>2025-07-12T07:27:03Z</time>
			</trkpt>
			<trkpt lat="42.780767" lon="24.981943">
				<ele>999.000000</ele>
				<time>2025-07-12T07:27:06Z</time>
			</trkpt>
			<trkpt lat="42.780719" lon="24.981963">
				<ele>999.000000</ele>
				<time>2025-07-12T07:27:12Z</time>
			</trkpt>
			<trkpt lat="42.780710" lon="24.981969">
				<ele>999.000000</ele>
				<time>2025-07-12T07:27:13Z</time>
			</trkpt>
			<trkpt lat="42.780682" lon="24.981977">
				<ele>999.000000</ele>
				<time>2025-07-12T07:27:16Z</time>
			</trkpt>
			<trkpt lat="42.780637" lon="24.981994">
				<ele>999.000000</ele>
				<time>2025-07-12T07:27:21Z</time>
			</trkpt>
			<trkpt lat="42.780597" lon="24.982001">
				<ele>1000.000000</ele>
				<time>2025-07-12T07:27:26Z</time>
			</trkpt>
			<trkpt lat="42.780585" lon="24.982009">
				<ele>1000.000000</ele>
				<time>2025-07-12T07:27:28Z</time>
			</trkpt>
			<trkpt lat="42.780576" lon="24.982012">
				<ele>1000.000000</ele>
				<time>2025-07-12T07:27:29Z</time>
			</trkpt>
			<trkpt lat="42.780525" lon="24.982059">
				<ele>1001.000000</ele>
				<time>2025-07-12T07:27:36Z</time>
			</trkpt>
			<trkpt lat="42.780517" lon="24.982065">
				<ele>1001.000000</ele>
				<time>2025-07-12T07:27:37Z</time>
			</trkpt>
			<trkpt lat="42.780509" lon="24.982076">
				<ele>1001.000000</ele>
				<time>2025-07-12T07:27:39Z</time>
			</trkpt>
			<trkpt lat="42.780499" lon="24.982089">
				<ele>1001.000000</ele>
				<time>2025-07-12T07:27:42Z</time>
			</trkpt>
			<trkpt lat="42.780497" lon="24.982097">
				<ele>1001.000000</ele>
				<time>2025-07-12T07:27:43Z</time>
			</trkpt>
			<trkpt lat="42.780465" lon="24.982166">
				<ele>1002.000000</ele>
				<time>2025-07-12T07:27:49Z</time>
			</trkpt>
			<trkpt lat="42.780423" lon="24.982233">
				<ele>1002.000000</ele>
				<time>2025-07-12T07:27:56Z</time>
			</trkpt>
			<trkpt lat="42.780418" lon="24.982238">
				<ele>1002.000000</ele>
				<time>2025-07-12T07:27:57Z</time>
			</trkpt>
			<trkpt lat="42.780358" lon="24.982303">
				<ele>1003.000000</ele>
				<time>2025-07-12T07:28:04Z</time>
			</trkpt>
			<trkpt lat="42.780305" lon="24.982346">
				<ele>1003.000000</ele>
				<time>2025-07-12T07:28:10Z</time>
			</trkpt>
			<trkpt lat="42.780299" lon="24.982352">
				<ele>1003.000000</ele>
				<time>2025-07-12T07:28:11Z</time>
			</trkpt>
			<trkpt lat="42.780237" lon="24.982417">
				<ele>1004.000000</ele>
				<time>2025-07-12T07:28:19Z</time>
			</trkpt>
			<trkpt lat="42.780163" lon="24.982438">
				<ele>1004.000000</ele>
				<time>2025-07-12T07:28:26Z</time>
			</trkpt>
			<trkpt lat="42.780151" lon="24.982438">
				<ele>1004.000000</ele>
				<time>2025-07-12T07:28:27Z</time>
			</trkpt>
			<trkpt lat="42.780078" lon="24.982403">
				<ele>1005.000000</ele>
				<time>2025-07-12T07:28:35Z</time>
			</trkpt>
			<trkpt lat="42.780058" lon="24.982376">
				<ele>1005.000000</ele>
				<time>2025-07-12T07:28:38Z</time>
			</trkpt>
			<trkpt lat="42.780040" lon="24.982346">
				<ele>1006.000000</ele>
				<time>2025-07-12T07:28:42Z</time>
			</trkpt>
			<trkpt lat="42.780011" lon="24.982260">
				<ele>1006.000000</ele>
				<time>2025-07-12T07:28:50Z</time>
			</trkpt>
			<trkpt lat="42.779987" lon="24.982185">
				<ele>1007.000000</ele>
				<time>2025-07-12T07:28:56Z</time>
			</trkpt>
			<trkpt lat="42.779983" lon="24.982175">
				<ele>1008.000000</ele>
				<time>2025-07-12T07:28:57Z</time>
			</trkpt>
			<trkpt lat="42.779977" lon="24.982154">
				<ele>1008.000000</ele>
				<time>2025-07-12T07:28:59Z</time>
			</trkpt>
			<trkpt lat="42.779959" lon="24.982093">
				<ele>1008.000000</ele>
				<time>2025-07-12T07:29:03Z</time>
			</trkpt>
			<trkpt lat="42.779944" lon="24.982052">
				<ele>1008.000000</ele>
				<time>2025-07-12T07:29:07Z</time>
			</trkpt>
			<trkpt lat="42.779911" lon="24.981986">
				<ele>1009.000000</ele>
				<time>2025-07-12T07:29:13Z</time>
			</trkpt>
			<trkpt lat="42.779905" lon="24.981962">
				<ele>1009.000000</ele>
				<time>2025-07-12T07:29:15Z</time>
			</trkpt>
			<trkpt lat="42.779883" lon="24.981864">
				<ele>1009.000000</ele>
				<time>2025-07-12T07:29:24Z</time>
			</trkpt>
			<trkpt lat="42.779828" lon="24.981755">
				<ele>1010.000000</ele>
				<time>2025-07-12T07:29:34Z</time>
			</trkpt>
			<trkpt lat="42.779795" lon="24.981655">
				<ele>1010.000000</ele>
				<time>2025-07-12T07:29:43Z</time>
			</trkpt>
			<trkpt lat="42.779786" lon="24.981621">
				<ele>1011.000000</ele>
				<time>2025-07-12T07:29:46Z</time>
			</trkpt>
			<trkpt lat="42.779762" lon="24.981548">
				<ele>1011.000000</ele>
				<time>2025-07-12T07:29:52Z</time>
			</trkpt>
			<trkpt lat="42.779753" lon="24.981479">
				<ele>1012.000000</ele>
				<time>2025-07-12T07:29:57Z</time>
			</trkpt>
			<trkpt lat="42.779750" lon="24.981427">
				<ele>1012.000000</ele>
				<time>2025-07-12T07:30:02Z</time>
			</trkpt>
			<trkpt lat="42.779741" lon="24.981348">
				<ele>1013.000000</ele>
				<time>2025-07-12T07:30:10Z</time>
			</trkpt>
			<trkpt lat="42.779740" lon="24.981333">
				<ele>1013.000000</ele>
				<time>2025-07-12T07:30:11Z</time>
			</trkpt>
			<trkpt lat="42.779727" lon="24.981245">
				<ele>1014.000000</ele>
				<time>2025-07-12T07:30:19Z</time>
			</trkpt>
			<trkpt lat="42.779716" lon="24.981211">
				<ele>1014.000000</ele>
				<time>2025-07-12T07:30:22Z</time>
			</trkpt>
			<trkpt lat="42.779684" lon="24.981125">
				<ele>1014.000000</ele>
				<time>2025-07-12T07:30:28Z</time>
			</trkpt>
			<trkpt lat="42.779656" lon="24.981037">
				<ele>1015.000000</ele>
				<time>2025-07-12T07:30:35Z</time>
			</trkpt>
			<trkpt lat="42.779615" lon="24.980967">
				<ele>1015.000000</ele>
				<time>2025-07-12T07:30:41Z</time>
			</trkpt>
			<trkpt lat="42.779601" lon="24.980941">
				<ele>1015.000000</ele>
				<time>2025-07-12T07:30:43Z</time>
			</trkpt>
			<trkpt lat="42.779532" lon="24.980844">
				<ele>1016.000000</ele>
				<time>2025-07-12T07:30:52Z</time>
			</trkpt>
			<trkpt lat="42.779488" lon="24.980774">
				<ele>1016.000000</ele>
				<time>2025-07-12T07:30:59Z</time>
			</trkpt>
			<trkpt lat="42.779483" lon="24.980760">
				<ele>1016.000000</ele>
				<time>2025-07-12T07:31:00Z</time>
			</trkpt>
			<trkpt lat="42.779477" lon="24.980739">
				<ele>1016.000000</ele>
				<time>2025-07-12T07:31:02Z</time>
			</trkpt>
			<trkpt lat="42.779438" lon="24.980668">
				<ele>1017.000000</ele>
				<time>2025-07-12T07:31:10Z</time>
			</trkpt>
			<trkpt lat="42.779436" lon="24.980662">
				<ele>1017.000000</ele>
				<time>2025-07-12T07:31:12Z</time>
			</trkpt>
			<trkpt lat="42.779406" lon="24.980633">
				<ele>1018.000000</ele>
				<time>2025-07-12T07:31:19Z</time>
			</trkpt>
			<trkpt lat="42.779391" lon="24.980603">
				<ele>1018.000000</ele>
				<time>2025-07-12T07:31:26Z</time>
			</trkpt>
			<trkpt lat="42.779365" lon="24.980547">
				<ele>1018.000000</ele>
				<time>2025-07-12T07:31:34Z</time>
			</trkpt>
			<trkpt lat="42.779363" lon="24.980538">
				<ele>1018.000000</ele>
				<time>2025-07-12T07:31:35Z</time>
			</trkpt>
			<trkpt lat="42.779317" lon="24.980471">
				<ele>1019.000000</ele>
				<time>2025-07-12T07:31:42Z</time>
			</trkpt>
			<trkpt lat="42.779296" lon="24.980443">
				<ele>1019.000000</ele>
				<time>2025-07-12T07:31:46Z</time>
			</trkpt>
			<trkpt lat="42.779280" lon="24.980421">
				<ele>1019.000000</ele>
				<time>2025-07-12T07:31:49Z</time>
			</trkpt>
			<trkpt lat="42.779229" lon="24.980367">
				<ele>1020.000000</ele>
				<time>2025-07-12T07:31:56Z</time>
			</trkpt>
			<trkpt lat="42.779188" lon="24.980329">
				<ele>1020.000000</ele>
				<time>2025-07-12T07:32:01Z</time>
			</trkpt>
			<trkpt lat="42.779158" lon="24.980270">
				<ele>1020.000000</ele>
				<time>2025-07-12T07:32:07Z</time>
			</trkpt>
			<trkpt lat="42.779152" lon="24.980256">
				<ele>1020.000000</ele>
				<time>2025-07-12T07:32:08Z</time>
			</trkpt>
			<trkpt lat="42.779119" lon="24.980188">
				<ele>1021.000000</ele>
				<time>2025-07-12T07:32:15Z</time>
			</trkpt>
			<trkpt lat="42.779110" lon="24.980147">
				<ele>1021.000000</ele>
				<time>2025-07-12T07:32:18Z</time>
			</trkpt>
			<trkpt lat="42.779100" lon="24.980119">
				<ele>1021.000000</ele>
				<time>2025-07-12T07:32:21Z</time>
			</trkpt>
			<trkpt lat="42.779071" lon="24.980046">
				<ele>1022.000000</ele>
				<time>2025-07-12T07:32:28Z</time>
			</trkpt>
			<trkpt lat="42.779049" lon="24.980003">
				<ele>1022.000000</ele>
				<time>2025-07-12T07:32:32Z</time>
			</trkpt>
			<trkpt lat="42.779034" lon="24.979966">
				<ele>1023.000000</ele>
				<time>2025-07-12T07:32:35Z</time>
			</trkpt>
			<trkpt lat="42.779010" lon="24.979893">
				<ele>1023.000000</ele>
				<time>2025-07-12T07:32:42Z</time>
			</trkpt>
			<trkpt lat="42.779019" lon="24.979889">
				<ele>1023.000000</ele>
				<time>2025-07-12T07:32:45Z</time>
			</trkpt>
			<trkpt lat="42.779029" lon="24.979924">
				<ele>1023.000000</ele>
				<time>2025-07-12T07:32:52Z</time>
			</trkpt>
			<trkpt lat="42.779024" lon="24.979906">
				<ele>1023.000000</ele>
				<time>2025-07-12T07:33:00Z</time>
			</trkpt>
			<trkpt lat="42.779039" lon="24.979903">
				<ele>1023.000000</ele>
				<time>2025-07-12T07:33:06Z</time>
			</trkpt>
			<trkpt lat="42.779003" lon="24.979897">
				<ele>1023.000000</ele>
				<time>2025-07-12T07:33:11Z</time>
			</trkpt>
			<trkpt lat="42.778995" lon="24.979885">
				<ele>1023.000000</ele>
				<time>2025-07-12T07:33:12Z</time>
			</trkpt>
			<trkpt lat="42.778988" lon="24.979871">
				<ele>1023.000000</ele>
				<time>2025-07-12T07:33:13Z</time>
			</trkpt>
			<trkpt lat="42.778980" lon="24.979860">
				<ele>1023.000000</ele>
				<time>2025-07-12T07:33:14Z</time>
			</trkpt>
			<trkpt lat="42.778933" lon="24.979788">
				<ele>1024.000000</ele>
				<time>2025-07-12T07:33:22Z</time>
			</trkpt>
			<trkpt lat="42.778895" lon="24.979737">
				<ele>1024.000000</ele>
				<time>2025-07-12T07:33:28Z</time>
			</trkpt>
			<trkpt lat="42.778883" lon="24.979726">
				<ele>1025.000000</ele>
				<time>2025-07-12T07:33:30Z</time>
			</trkpt>
			<trkpt lat="42.778840" lon="24.979692">
				<ele>1025.000000</ele>
				<time>2025-07-12T07:33:35Z</time>
			</trkpt>
			<trkpt lat="42.778830" lon="24.979683">
				<ele>1025.000000</ele>
				<time>2025-07-12T07:33:36Z</time>
			</trkpt>
			<trkpt lat="42.778791" lon="24.979641">
				<ele>1025.000000</ele>
				<time>2025-07-12T07:33:41Z</time>
			</trkpt>
			<trkpt lat="42.778767" lon="24.979608">
				<ele>1025.000000</ele>
				<time>2025-07-12T07:33:44Z</time>
			</trkpt>
			<trkpt lat="42.778720" lon="24.979561">
				<ele>1025.000000</ele>
				<time>2025-07-12T07:33:50Z</time>
			</trkpt>
			<trkpt lat="42.778704" lon="24.979545">
				<ele>1026.000000</ele>
				<time>2025-07-12T07:33:52Z</time>
			</trkpt>
			<trkpt lat="42.778639" lon="24.979498">
				<ele>1026.000000</ele>
				<time>2025-07-12T07:33:59Z</time>
			</trkpt>
			<trkpt lat="42.778584" lon="24.979454">
				<ele>1026.000000</ele>
				<time>2025-07-12T07:34:06Z</time>
			</trkpt>
			<trkpt lat="42.778533" lon="24.979399">
				<ele>1026.000000</ele>
				<time>2025-07-12T07:34:12Z</time>
			</trkpt>
			<trkpt lat="42.778486" lon="24.979362">
				<ele>1026.000000</ele>
				<time>2025-07-12T07:34:17Z</time>
			</trkpt>
			<trkpt lat="42.778458" lon="24.979321">
				<ele>1027.000000</ele>
				<time>2025-07-12T07:34:21Z</time>
			</trkpt>
			<trkpt lat="42.778399" lon="24.979225">
				<ele>1027.000000</ele>
				<time>2025-07-12T07:34:31Z</time>
			</trkpt>
			<trkpt lat="42.778370" lon="24.979144">
				<ele>1027.000000</ele>
				<time>2025-07-12T07:34:39Z</time>
			</trkpt>
			<trkpt lat="42.778364" lon="24.979130">
				<ele>1028.000000</ele>
				<time>2025-07-12T07:34:40Z</time>
			</trkpt>
			<trkpt lat="42.778347" lon="24.979067">
				<ele>1028.000000</ele>
				<time>2025-07-12T07:34:46Z</time>
			</trkpt>
			<trkpt lat="42.778332" lon="24.979008">
				<ele>1028.000000</ele>
				<time>2025-07-12T07:34:54Z</time>
			</trkpt>
			<trkpt lat="42.778340" lon="24.979008">
				<ele>1028.000000</ele>
				<time>2025-07-12T07:35:00Z</time>
			</trkpt>
			<trkpt lat="42.778354" lon="24.979032">
				<ele>1028.000000</ele>
				<time>2025-07-12T07:35:12Z</time>
			</trkpt>
			<trkpt lat="42.778363" lon="24.979034">
				<ele>1028.000000</ele>
				<time>2025-07-12T07:35:26Z</time>
			</trkpt>
			<trkpt lat="42.778337" lon="24.979006">
				<ele>1028.000000</ele>
				<time>2025-07-12T07:35:35Z</time>
			</trkpt>
			<trkpt lat="42.778296" lon="24.978962">
				<ele>1028.000000</ele>
				<time>2025-07-12T07:35:42Z</time>
			</trkpt>
			<trkpt lat="42.778288" lon="24.978930">
				<ele>1029.000000</ele>
				<time>2025-07-12T07:35:45Z</time>
			</trkpt>
			<trkpt lat="42.778278" lon="24.978896">
				<ele>1029.000000</ele>
				<time>2025-07-12T07:35:49Z</time>
			</trkpt>
			<trkpt lat="42.778255" lon="24.978844">
				<ele>1029.000000</ele>
				<time>2025-07-12T07:35:54Z</time>
			</trkpt>
			<trkpt lat="42.778245" lon="24.978818">
				<ele>1030.000000</ele>
				<time>2025-07-12T07:35:56Z</time>
			</trkpt>
			<trkpt lat="42.778232" lon="24.978777">
				<ele>1030.000000</ele>
				<time>2025-07-12T07:35:59Z</time>
			</trkpt>
			<trkpt lat="42.778219" lon="24.978743">
				<ele>1030.000000</ele>
				<time>2025-07-12T07:36:02Z</time>
			</trkpt>
			<trkpt lat="42.778212" lon="24.978730">
				<ele>1030.000000</ele>
				<time>2025-07-12T07:36:04Z</time>
			</trkpt>
			<trkpt lat="42.778196" lon="24.978682">
				<ele>1031.000000</ele>
				<time>2025-07-12T07:36:08Z</time>
			</trkpt>
			<trkpt lat="42.778187" lon="24.978645">
				<ele>1031.000000</ele>
				<time>2025-07-12T07:36:11Z</time>
			</trkpt>
			<trkpt lat="42.778167" lon="24.978590">
				<ele>1032.000000</ele>
				<time>2025-07-12T07:36:16Z</time>
			</trkpt>
			<trkpt lat="42.778156" lon="24.978576">
				<ele>1032.000000</ele>
				<time>2025-07-12T07:36:18Z</time>
			</trkpt>
			<trkpt lat="42.778152" lon="24.978568">
				<ele>1032.000000</ele>
				<time>2025-07-12T07:36:19Z</time>
			</trkpt>
			<trkpt lat="42.778113" lon="24.978487">
				<ele>1032.000000</ele>
				<time>2025-07-12T07:36:28Z</time>
			</trkpt>
			<trkpt lat="42.778085" lon="24.978474">
				<ele>1033.000000</ele>
				<time>2025-07-12T07:36:31Z</time>
			</trkpt>
			<trkpt lat="42.778064" lon="24.978478">
				<ele>1033.000000</ele>
				<time>2025-07-12T07:36:33Z</time>
			</trkpt>
			<trkpt lat="42.778052" lon="24.978480">
				<ele>1034.000000</ele>
				<time>2025-07-12T07:36:35Z</time>
			</trkpt>
			<trkpt lat="42.778034" lon="24.978490">
				<ele>1034.000000</ele>
				<time>2025-07-12T07:36:37Z</time>
			</trkpt>
			<trkpt lat="42.778012" lon="24.978527">
				<ele>1034.000000</ele>
				<time>2025-07-12T07:36:40Z</time>
			</trkpt>
			<trkpt lat="42.778007" lon="24.978546">
				<ele>1034.000000</ele>
				<time>2025-07-12T07:36:42Z</time>
			</trkpt>
			<trkpt lat="42.777995" lon="24.978564">
				<ele>1035.000000</ele>
				<time>2025-07-12T07:36:48Z</time>
			</trkpt>
			<trkpt lat="42.777994" lon="24.978564">
				<ele>1035.000000</ele>
				<time>2025-07-12T07:36:49Z</time>
			</trkpt>
			<trkpt lat="42.777986" lon="24.978601">
				<ele>1035.000000</ele>
				<time>2025-07-12T07:36:54Z</time>
			</trkpt>
			<trkpt lat="42.777997" lon="24.978670">
				<ele>1035.000000</ele>
				<time>2025-07-12T07:37:01Z</time>
			</trkpt>
			<trkpt lat="42.778023" lon="24.978750">
				<ele>1036.000000</ele>
				<time>2025-07-12T07:37:09Z</time>
			</trkpt>
			<trkpt lat="42.778028" lon="24.978759">
				<ele>1036.000000</ele>
				<time>2025-07-12T07:37:14Z</time>
			</trkpt>
			<trkpt lat="42.778027" lon="24.978761">
				<ele>1036.000000</ele>
				<time>2025-07-12T07:37:15Z</time>
			</trkpt>
			<trkpt lat="42.778023" lon="24.978786">
				<ele>1036.000000</ele>
				<time>2025-07-12T07:37:21Z</time>
			</trkpt>
			<trkpt lat="42.778005" lon="24.978857">
				<ele>1036.000000</ele>
				<time>2025-07-12T07:37:30Z</time>
			</trkpt>
			<trkpt lat="42.778020" lon="24.978906">
				<ele>1037.000000</ele>
				<time>2025-07-12T07:37:37Z</time>
			</trkpt>
			<trkpt lat="42.778057" lon="24.978981">
				<ele>1037.000000</ele>
				<time>2025-07-12T07:37:44Z</time>
			</trkpt>
			<trkpt lat="42.778061" lon="24.979004">
				<ele>1037.000000</ele>
				<time>2025-07-12T07:37:46Z</time>
			</trkpt>
			<trkpt lat="42.778079" lon="24.979085">
				<ele>1038.000000</ele>
				<time>2025-07-12T07:37:53Z</time>
			</trkpt>
			<trkpt lat="42.778093" lon="24.979109">
				<ele>1038.000000</ele>
				<time>2025-07-12T07:37:56Z</time>
			</trkpt>
			<trkpt lat="42.778119" lon="24.979156">
				<ele>1038.000000</ele>
				<time>2025-07-12T07:38:00Z</time>
			</trkpt>
			<trkpt lat="42.778136" lon="24.979199">
				<ele>1038.000000</ele>
				<time>2025-07-12T07:38:04Z</time>
			</trkpt>
			<trkpt lat="42.778132" lon="24.979227">
				<ele>1038.000000</ele>
				<time>2025-07-12T07:38:07Z</time>
			</trkpt>
			<trkpt lat="42.778152" lon="24.979303">
				<ele>1039.000000</ele>
				<time>2025-07-12T07:38:14Z</time>
			</trkpt>
			<trkpt lat="42.778190" lon="24.979400">
				<ele>1040.000000</ele>
				<time>2025-07-12T07:38:22Z</time>
			</trkpt>
			<trkpt lat="42.778199" lon="24.979413">
				<ele>1040.000000</ele>
				<time>2025-07-12T07:38:24Z</time>
			</trkpt>
			<trkpt lat="42.778220" lon="24.979458">
				<ele>1040.000000</ele>
				<time>2025-07-12T07:38:28Z</time>
			</trkpt>
			<trkpt lat="42.778275" lon="24.979527">
				<ele>1041.000000</ele>
				<time>2025-07-12T07:38:36Z</time>
			</trkpt>
			<trkpt lat="42.778299" lon="24.979608">
				<ele>1041.000000</ele>
				<time>2025-07-12T07:38:44Z</time>
			</trkpt>
			<trkpt lat="42.778314" lon="24.979700">
				<ele>1042.000000</ele>
				<time>2025-07-12T07:38:52Z</time>
			</trkpt>
			<trkpt lat="42.778330" lon="24.979726">
				<ele>1042.000000</ele>
				<time>2025-07-12T07:38:55Z</time>
			</trkpt>
			<trkpt lat="42.778359" lon="24.979769">
				<ele>1043.000000</ele>
				<time>2025-07-12T07:39:01Z</time>
			</trkpt>
			<trkpt lat="42.778375" lon="24.979788">
				<ele>1043.000000</ele>
				<time>2025-07-12T07:39:03Z</time>
			</trkpt>
			<trkpt lat="42.778428" lon="24.979832">
				<ele>1043.000000</ele>
				<time>2025-07-12T07:39:09Z</time>
			</trkpt>
			<trkpt lat="42.778482" lon="24.979897">
				<ele>1044.000000</ele>
				<time>2025-07-12T07:39:17Z</time>
			</trkpt>
			<trkpt lat="42.778505" lon="24.979940">
				<ele>1044.000000</ele>
				<time>2025-07-12T07:39:20Z</time>
			</trkpt>
			<trkpt lat="42.778529" lon="24.980000">
				<ele>1045.000000</ele>
				<time>2025-07-12T07:39:24Z</time>
			</trkpt>
			<trkpt lat="42.778551" lon="24.980070">
				<ele>1045.000000</ele>
				<time>2025-07-12T07:39:30Z</time>
			</trkpt>
			<trkpt lat="42.778561" lon="24.980110">
				<ele>1046.000000</ele>
				<time>2025-07-12T07:39:33Z</time>
			</trkpt>
			<trkpt lat="42.778578" lon="24.980178">
				<ele>1046.000000</ele>
				<time>2025-07-12T07:39:40Z</time>
			</trkpt>
			<trkpt lat="42.778580" lon="24.980272">
				<ele>1046.000000</ele>
				<time>2025-07-12T07:39:47Z</time>
			</trkpt>
			<trkpt lat="42.778586" lon="24.980402">
				<ele>1047.000000</ele>
				<time>2025-07-12T07:39:56Z</time>
			</trkpt>
			<trkpt lat="42.778592" lon="24.980518">
				<ele>1047.000000</ele>
				<time>2025-07-12T07:40:05Z</time>
			</trkpt>
			<trkpt lat="42.778595" lon="24.980595">
				<ele>1048.000000</ele>
				<time>2025-07-12T07:40:11Z</time>
			</trkpt>
			<trkpt lat="42.778592" lon="24.980637">
				<ele>1048.000000</ele>
				<time>2025-07-12T07:40:14Z</time>
			</trkpt>
			<trkpt lat="42.778591" lon="24.980704">
				<ele>1048.000000</ele>
				<time>2025-07-12T07:40:21Z</time>
			</trkpt>
			<trkpt lat="42.778592" lon="24.980799">
				<ele>1048.000000</ele>
				<time>2025-07-12T07:40:29Z</time>
			</trkpt>
			<trkpt lat="42.778598" lon="24.980919">
				<ele>1048.000000</ele>
				<time>2025-07-12T07:40:38Z</time>
			</trkpt>
			<trkpt lat="42.778597" lon="24.980949">
				<ele>1049.000000</ele>
				<time>2025-07-12T07:40:40Z</time>
			</trkpt>
			<trkpt lat="42.778584" lon="24.981065">
				<ele>1049.000000</ele>
				<time>2025-07-12T07:40:48Z</time>
			</trkpt>
			<trkpt lat="42.778574" lon="24.981179">
				<ele>1049.000000</ele>
				<time>2025-07-12T07:40:56Z</time>
			</trkpt>
			<trkpt lat="42.778568" lon="24.981275">
				<ele>1050.000000</ele>
				<time>2025-07-12T07:41:04Z</time>
			</trkpt>
			<trkpt lat="42.778568" lon="24.981312">
				<ele>1050.000000</ele>
				<time>2025-07-12T07:41:06Z</time>
			</trkpt>
			<trkpt lat="42.778551" lon="24.981440">
				<ele>1051.000000</ele>
				<time>2025-07-12T07:41:15Z</time>
			</trkpt>
			<trkpt lat="42.778549" lon="24.981460">
				<ele>1051.000000</ele>
				<time>2025-07-12T07:41:17Z</time>
			</trkpt>
			<trkpt lat="42.778531" lon="24.981510">
				<ele>1051.000000</ele>
				<time>2025-07-12T07:41:22Z</time>
			</trkpt>
			<trkpt lat="42.778488" lon="24.981565">
				<ele>1052.000000</ele>
				<time>2025-07-12T07:41:27Z</time>
			</trkpt>
			<trkpt lat="42.778452" lon="24.981591">
				<ele>1052.000000</ele>
				<time>2025-07-12T07:41:31Z</time>
			</trkpt>
			<trkpt lat="42.778418" lon="24.981607">
				<ele>1053.000000</ele>
				<time>2025-07-12T07:41:34Z</time>
			</trkpt>
			<trkpt lat="42.778363" lon="24.981600">
				<ele>1054.000000</ele>
				<time>2025-07-12T07:41:39Z</time>
			</trkpt>
			<trkpt lat="42.778354" lon="24.981600">
				<ele>1054.000000</ele>
				<time>2025-07-12T07:41:40Z</time>
			</trkpt>
			<trkpt lat="42.778277" lon="24.981519">
				<ele>1055.000000</ele>
				<time>2025-07-12T07:41:48Z</time>
			</trkpt>
			<trkpt lat="42.778274" lon="24.981499">
				<ele>1055.000000</ele>
				<time>2025-07-12T07:41:50Z</time>
			</trkpt>
			<trkpt lat="42.778271" lon="24.981463">
				<ele>1055.000000</ele>
				<time>2025-07-12T07:41:53Z</time>
			</trkpt>
			<trkpt lat="42.778273" lon="24.981450">
				<ele>1055.000000</ele>
				<time>2025-07-12T07:41:54Z</time>
			</trkpt>
			<trkpt lat="42.778289" lon="24.981376">
				<ele>1056.000000</ele>
				<time>2025-07-12T07:41:59Z</time>
			</trkpt>
			<trkpt lat="42.778288" lon="24.981365">
				<ele>1056.000000</ele>
				<time>2025-07-12T07:42:00Z</time>
			</trkpt>
			<trkpt lat="42.778278" lon="24.981273">
				<ele>1057.000000</ele>
				<time>2025-07-12T07:42:08Z</time>
			</trkpt>
			<trkpt lat="42.778277" lon="24.981262">
				<ele>1057.000000</ele>
				<time>2025-07-12T07:42:09Z</time>
			</trkpt>
			<trkpt lat="42.778273" lon="24.981185">
				<ele>1058.000000</ele>
				<time>2025-07-12T07:42:15Z</time>
			</trkpt>
			<trkpt lat="42.778274" lon="24.981177">
				<ele>1058.000000</ele>
				<time>2025-07-12T07:42:16Z</time>
			</trkpt>
			<trkpt lat="42.778268" lon="24.981132">
				<ele>1059.000000</ele>
				<time>2025-07-12T07:42:20Z</time>
			</trkpt>
			<trkpt lat="42.778264" lon="24.981112">
				<ele>1059.000000</ele>
				<time>2025-07-12T07:42:22Z</time>
			</trkpt>
			<trkpt lat="42.778266" lon="24.981081">
				<ele>1059.000000</ele>
				<time>2025-07-12T07:42:25Z</time>
			</trkpt>
			<trkpt lat="42.778266" lon="24.981063">
				<ele>1059.000000</ele>
				<time>2025-07-12T07:42:28Z</time>
			</trkpt>
			<trkpt lat="42.778257" lon="24.980990">
				<ele>1060.000000</ele>
				<time>2025-07-12T07:42:35Z</time>
			</trkpt>
			<trkpt lat="42.778253" lon="24.980951">
				<ele>1060.000000</ele>
				<time>2025-07-12T07:42:39Z</time>
			</trkpt>
			<trkpt lat="42.778249" lon="24.980905">
				<ele>1061.000000</ele>
				<time>2025-07-12T07:42:43Z</time>
			</trkpt>
			<trkpt lat="42.778245" lon="24.980852">
				<ele>1061.000000</ele>
				<time>2025-07-12T07:42:47Z</time>
			</trkpt>
			<trkpt lat="42.778232" lon="24.980805">
				<ele>1062.000000</ele>
				<time>2025-07-12T07:42:51Z</time>
			</trkpt>
			<trkpt lat="42.778214" lon="24.980748">
				<ele>1063.000000</ele>
				<time>2025-07-12T07:42:56Z</time>
			</trkpt>
			<trkpt lat="42.778204" lon="24.980732">
				<ele>1063.000000</ele>
				<time>2025-07-12T07:42:58Z</time>
			</trkpt>
			<trkpt lat="42.778173" lon="24.980675">
				<ele>1063.000000</ele>
				<time>2025-07-12T07:43:05Z</time>
			</trkpt>
			<trkpt lat="42.778157" lon="24.980654">
				<ele>1064.000000</ele>
				<time>2025-07-12T07:43:07Z</time>
			</trkpt>
			<trkpt lat="42.778148" lon="24.980632">
				<ele>1064.000000</ele>
				<time>2025-07-12T07:43:12Z</time>
			</trkpt>
			<trkpt lat="42.778169" lon="24.980625">
				<ele>1064.000000</ele>
				<time>2025-07-12T07:43:21Z</time>
			</trkpt>
			<trkpt lat="42.778127" lon="24.980591">
				<ele>1064.000000</ele>
				<time>2025-07-12T07:43:30Z</time>
			</trkpt>
			<trkpt lat="42.778092" lon="24.980558">
				<ele>1064.000000</ele>
				<time>2025-07-12T07:43:35Z</time>
			</trkpt>
			<trkpt lat="42.778072" lon="24.980535">
				<ele>1064.000000</ele>
				<time>2025-07-12T07:43:39Z</time>
			</trkpt>
			<trkpt lat="42.778056" lon="24.980514">
				<ele>1064.000000</ele>
				<time>2025-07-12T07:43:42Z</time>
			</trkpt>
			<trkpt lat="42.778034" lon="24.980493">
				<ele>1065.000000</ele>
				<time>2025-07-12T07:43:45Z</time>
			</trkpt>
			<trkpt lat="42.778026" lon="24.980488">
				<ele>1065.000000</ele>
				<time>2025-07-12T07:43:46Z</time>
			</trkpt>
			<trkpt lat="42.777998" lon="24.980463">
				<ele>1065.000000</ele>
				<time>2025-07-12T07:43:50Z</time>
			</trkpt>
			<trkpt lat="42.777975" lon="24.980441">
				<ele>1065.000000</ele>
				<time>2025-07-12T07:43:54Z</time>
			</trkpt>
			<trkpt lat="42.777939" lon="24.980401">
				<ele>1066.000000</ele>
				<time>2025-07-12T07:44:00Z</time>
			</trkpt>
			<trkpt lat="42.777937" lon="24.980396">
				<ele>1066.000000</ele>
				<time>2025-07-12T07:44:01Z</time>
			</trkpt>
			<trkpt lat="42.777893" lon="24.980349">
				<ele>1066.000000</ele>
				<time>2025-07-12T07:44:07Z</time>
			</trkpt>
			<trkpt lat="42.777850" lon="24.980294">
				<ele>1067.000000</ele>
				<time>2025-07-12T07:44:14Z</time>
			</trkpt>
			<trkpt lat="42.777832" lon="24.980261">
				<ele>1067.000000</ele>
				<time>2025-07-12T07:44:17Z</time>
			</trkpt>
			<trkpt lat="42.777807" lon="24.980236">
				<ele>1067.000000</ele>
				<time>2025-07-12T07:44:21Z</time>
			</trkpt>
			<trkpt lat="42.777784" lon="24.980221">
				<ele>1067.000000</ele>
				<time>2025-07-12T07:44:24Z</time>
			</trkpt>
			<trkpt lat="42.777753" lon="24.980204">
				<ele>1067.000000</ele>
				<time>2025-07-12T07:44:28Z</time>
			</trkpt>
			<trkpt lat="42.777690" lon="24.980168">
				<ele>1068.000000</ele>
				<time>2025-07-12T07:44:36Z</time>
			</trkpt>
			<trkpt lat="42.777675" lon="24.980153">
				<ele>1068.000000</ele>
				<time>2025-07-12T07:44:38Z</time>
			</trkpt>
			<trkpt lat="42.777649" lon="24.980121">
				<ele>1068.000000</ele>
				<time>2025-07-12T07:44:43Z</time>
			</trkpt>
			<trkpt lat="42.777594" lon="24.980050">
				<ele>1069.000000</ele>
				<time>2025-07-12T07:44:51Z</time>
			</trkpt>
			<trkpt lat="42.777597" lon="24.980055">
				<ele>1069.000000</ele>
				<time>2025-07-12T07:44:52Z</time>
			</trkpt>
			<trkpt lat="42.777601" lon="24.980064">
				<ele>1069.000000</ele>
				<time>2025-07-12T07:44:57Z</time>
			</trkpt>
			<trkpt lat="42.777586" lon="24.980067">
				<ele>1069.000000</ele>
				<time>2025-07-12T07:45:05Z</time>
			</trkpt>
			<trkpt lat="42.777585" lon="24.980078">
				<ele>1069.000000</ele>
				<time>2025-07-12T07:45:12Z</time>
			</trkpt>
			<trkpt lat="42.777545" lon="24.980043">
				<ele>1069.000000</ele>
				<time>2025-07-12T07:45:18Z</time>
			</trkpt>
			<trkpt lat="42.777489" lon="24.980009">
				<ele>1070.000000</ele>
				<time>2025-07-12T07:45:25Z</time>
			</trkpt>
			<trkpt lat="42.777477" lon="24.979995">
				<ele>1070.000000</ele>
				<time>2025-07-12T07:45:27Z</time>
			</trkpt>
			<trkpt lat="42.777451" lon="24.979966">
				<ele>1070.000000</ele>
				<time>2025-07-12T07:45:31Z</time>
			</trkpt>
			<trkpt lat="42.777427" lon="24.979919">
				<ele>1071.000000</ele>
				<time>2025-07-12T07:45:36Z</time>
			</trkpt>
			<trkpt lat="42.777419" lon="24.979895">
				<ele>1071.000000</ele>
				<time>2025-07-12T07:45:38Z</time>
			</trkpt>
			<trkpt lat="42.777379" lon="24.979815">
				<ele>1072.000000</ele>
				<time>2025-07-12T07:45:46Z</time>
			</trkpt>
			<trkpt lat="42.777376" lon="24.979805">
				<ele>1072.000000</ele>
				<time>2025-07-12T07:45:47Z</time>
			</trkpt>
			<trkpt lat="42.777354" lon="24.979756">
				<ele>1073.000000</ele>
				<time>2025-07-12T07:45:53Z</time>
			</trkpt>
			<trkpt lat="42.777340" lon="24.979717">
				<ele>1073.000000</ele>
				<time>2025-07-12T07:45:56Z</time>
			</trkpt>
			<trkpt lat="42.777325" lon="24.979675">
				<ele>1073.000000</ele>
				<time>2025-07-12T07:45:59Z</time>
			</trkpt>
			<trkpt lat="42.777294" lon="24.979604">
				<ele>1074.000000</ele>
				<time>2025-07-12T07:46:06Z</time>
			</trkpt>
			<trkpt lat="42.777291" lon="24.979588">
				<ele>1074.000000</ele>
				<time>2025-07-12T07:46:08Z</time>
			</trkpt>
			<trkpt lat="42.777275" lon="24.979543">
				<ele>1075.000000</ele>
				<time>2025-07-12T07:46:13Z</time>
			</trkpt>
			<trkpt lat="42.777258" lon="24.979480">
				<ele>1075.000000</ele>
				<time>2025-07-12T07:46:20Z</time>
			</trkpt>
			<trkpt lat="42.777254" lon="24.979476">
				<ele>1075.000000</ele>
				<time>2025-07-12T07:46:21Z</time>
			</trkpt>
			<trkpt lat="42.777238" lon="24.979445">
				<ele>1075.000000</ele>
				<time>2025-07-12T07:46:26Z</time>
			</trkpt>
			<trkpt lat="42.777235" lon="24.979431">
				<ele>1075.000000</ele>
				<time>2025-07-12T07:46:28Z</time>
			</trkpt>
			<trkpt lat="42.777199" lon="24.979352">
				<ele>1076.000000</ele>
				<time>2025-07-12T07:46:36Z</time>
			</trkpt>
			<trkpt lat="42.777174" lon="24.979296">
				<ele>1076.000000</ele>
				<time>2025-07-12T07:46:43Z</time>
			</trkpt>
			<trkpt lat="42.777169" lon="24.979284">
				<ele>1076.000000</ele>
				<time>2025-07-12T07:46:44Z</time>
			</trkpt>
			<trkpt lat="42.777145" lon="24.979207">
				<ele>1077.000000</ele>
				<time>2025-07-12T07:46:50Z</time>
			</trkpt>
			<trkpt lat="42.777123" lon="24.979130">
				<ele>1077.000000</ele>
				<time>2025-07-12T07:46:57Z</time>
			</trkpt>
			<trkpt lat="42.777120" lon="24.979123">
				<ele>1077.000000</ele>
				<time>2025-07-12T07:46:58Z</time>
			</trkpt>
			<trkpt lat="42.777105" lon="24.979048">
				<ele>1078.000000</ele>
				<time>2025-07-12T07:47:04Z</time>
			</trkpt>
			<trkpt lat="42.777096" lon="24.979014">
				<ele>1078.000000</ele>
				<time>2025-07-12T07:47:07Z</time>
			</trkpt>
			<trkpt lat="42.777089" lon="24.978987">
				<ele>1078.000000</ele>
				<time>2025-07-12T07:47:10Z</time>
			</trkpt>
			<trkpt lat="42.777073" lon="24.978916">
				<ele>1079.000000</ele>
				<time>2025-07-12T07:47:16Z</time>
			</trkpt>
			<trkpt lat="42.777067" lon="24.978829">
				<ele>1079.000000</ele>
				<time>2025-07-12T07:47:23Z</time>
			</trkpt>
			<trkpt lat="42.777062" lon="24.978766">
				<ele>1080.000000</ele>
				<time>2025-07-12T07:47:29Z</time>
			</trkpt>
			<trkpt lat="42.777060" lon="24.978745">
				<ele>1080.000000</ele>
				<time>2025-07-12T07:47:31Z</time>
			</trkpt>
			<trkpt lat="42.777058" lon="24.978735">
				<ele>1080.000000</ele>
				<time>2025-07-12T07:47:32Z</time>
			</trkpt>
			<trkpt lat="42.777049" lon="24.978643">
				<ele>1081.000000</ele>
				<time>2025-07-12T07:47:40Z</time>
			</trkpt>
			<trkpt lat="42.777043" lon="24.978637">
				<ele>1081.000000</ele>
				<time>2025-07-12T07:47:41Z</time>
			</trkpt>
			<trkpt lat="42.777037" lon="24.978556">
				<ele>1082.000000</ele>
				<time>2025-07-12T07:47:46Z</time>
			</trkpt>
			<trkpt lat="42.777037" lon="24.978450">
				<ele>1082.000000</ele>
				<time>2025-07-12T07:47:54Z</time>
			</trkpt>
			<trkpt lat="42.777036" lon="24.978442">
				<ele>1082.000000</ele>
				<time>2025-07-12T07:47:55Z</time>
			</trkpt>
			<trkpt lat="42.777036" lon="24.978397">
				<ele>1083.000000</ele>
				<time>2025-07-12T07:48:00Z</time>
			</trkpt>
			<trkpt lat="42.777049" lon="24.978309">
				<ele>1083.000000</ele>
				<time>2025-07-12T07:48:07Z</time>
			</trkpt>
			<trkpt lat="42.777050" lon="24.978299">
				<ele>1084.000000</ele>
				<time>2025-07-12T07:48:08Z</time>
			</trkpt>
			<trkpt lat="42.777044" lon="24.978250">
				<ele>1084.000000</ele>
				<time>2025-07-12T07:48:13Z</time>
			</trkpt>
			<trkpt lat="42.777027" lon="24.978218">
				<ele>1085.000000</ele>
				<time>2025-07-12T07:48:17Z</time>
			</trkpt>
			<trkpt lat="42.776987" lon="24.978199">
				<ele>1085.000000</ele>
				<time>2025-07-12T07:48:22Z</time>
			</trkpt>
			<trkpt lat="42.776916" lon="24.978243">
				<ele>1086.000000</ele>
				<time>2025-07-12T07:48:31Z</time>
			</trkpt>
			<trkpt lat="42.776904" lon="24.978255">
				<ele>1086.000000</ele>
				<time>2025-07-12T07:48:32Z</time>
			</trkpt>
			<trkpt lat="42.776867" lon="24.978299">
				<ele>1086.000000</ele>
				<time>2025-07-12T07:48:38Z</time>
			</trkpt>
			<trkpt lat="42.776848" lon="24.978342">
				<ele>1086.000000</ele>
				<time>2025-07-12T07:48:42Z</time>
			</trkpt>
			<trkpt lat="42.776836" lon="24.978368">
				<ele>1086.000000</ele>
				<time>2025-07-12T07:48:44Z</time>
			</trkpt>
			<trkpt lat="42.776810" lon="24.978438">
				<ele>1087.000000</ele>
				<time>2025-07-12T07:48:51Z</time>
			</trkpt>
			<trkpt lat="42.776777" lon="24.978474">
				<ele>1087.000000</ele>
				<time>2025-07-12T07:48:56Z</time>
			</trkpt>
			<trkpt lat="42.776763" lon="24.978495">
				<ele>1087.000000</ele>
				<time>2025-07-12T07:48:58Z</time>
			</trkpt>
			<trkpt lat="42.776729" lon="24.978548">
				<ele>1087.000000</ele>
				<time>2025-07-12T07:49:05Z</time>
			</trkpt>
			<trkpt lat="42.776689" lon="24.978582">
				<ele>1087.000000</ele>
				<time>2025-07-12T07:49:10Z</time>
			</trkpt>
			<trkpt lat="42.776682" lon="24.978590">
				<ele>1087.000000</ele>
				<time>2025-07-12T07:49:11Z</time>
			</trkpt>
			<trkpt lat="42.776652" lon="24.978651">
				<ele>1088.000000</ele>
				<time>2025-07-12T07:49:17Z</time>
			</trkpt>
			<trkpt lat="42.776649" lon="24.978660">
				<ele>1088.000000</ele>
				<time>2025-07-12T07:49:18Z</time>
			</trkpt>
			<trkpt lat="42.776614" lon="24.978707">
				<ele>1088.000000</ele>
				<time>2025-07-12T07:49:23Z</time>
			</trkpt>
			<trkpt lat="42.776565" lon="24.978751">
				<ele>1088.000000</ele>
				<time>2025-07-12T07:49:31Z</time>
			</trkpt>
			<trkpt lat="42.776547" lon="24.978763">
				<ele>1089.000000</ele>
				<time>2025-07-12T07:49:33Z</time>
			</trkpt>
			<trkpt lat="42.776539" lon="24.978772">
				<ele>1089.000000</ele>
				<time>2025-07-12T07:49:34Z</time>
			</trkpt>
			<trkpt lat="42.776520" lon="24.978785">
				<ele>1089.000000</ele>
				<time>2025-07-12T07:49:38Z</time>
			</trkpt>
			<trkpt lat="42.776498" lon="24.978833">
				<ele>1089.000000</ele>
				<time>2025-07-12T07:49:44Z</time>
			</trkpt>
			<trkpt lat="42.776473" lon="24.978886">
				<ele>1090.000000</ele>
				<time>2025-07-12T07:49:48Z</time>
			</trkpt>
			<trkpt lat="42.776457" lon="24.978898">
				<ele>1090.000000</ele>
				<time>2025-07-12T07:49:50Z</time>
			</trkpt>
			<trkpt lat="42.776393" lon="24.978979">
				<ele>1090.000000</ele>
				<time>2025-07-12T07:49:59Z</time>
			</trkpt>
			<trkpt lat="42.776363" lon="24.979005">
				<ele>1090.000000</ele>
				<time>2025-07-12T07:50:05Z</time>
			</trkpt>
			<trkpt lat="42.776315" lon="24.979076">
				<ele>1091.000000</ele>
				<time>2025-07-12T07:50:13Z</time>
			</trkpt>
			<trkpt lat="42.776305" lon="24.979091">
				<ele>1091.000000</ele>
				<time>2025-07-12T07:50:15Z</time>
			</trkpt>
			<trkpt lat="42.776286" lon="24.979109">
				<ele>1092.000000</ele>
				<time>2025-07-12T07:50:20Z</time>
			</trkpt>
			<trkpt lat="42.776283" lon="24.979118">
				<ele>1092.000000</ele>
				<time>2025-07-12T07:50:21Z</time>
			</trkpt>
			<trkpt lat="42.776235" lon="24.979181">
				<ele>1092.000000</ele>
				<time>2025-07-12T07:50:29Z</time>
			</trkpt>
			<trkpt lat="42.776195" lon="24.979214">
				<ele>1092.000000</ele>
				<time>2025-07-12T07:50:36Z</time>
			</trkpt>
			<trkpt lat="42.776158" lon="24.979237">
				<ele>1093.000000</ele>
				<time>2025-07-12T07:50:42Z</time>
			</trkpt>
			<trkpt lat="42.776143" lon="24.979252">
				<ele>1093.000000</ele>
				<time>2025-07-12T07:50:44Z</time>
			</trkpt>
			<trkpt lat="42.776111" lon="24.979280">
				<ele>1094.000000</ele>
				<time>2025-07-12T07:50:48Z</time>
			</trkpt>
			<trkpt lat="42.776099" lon="24.979285">
				<ele>1094.000000</ele>
				<time>2025-07-12T07:50:50Z</time>
			</trkpt>
			<trkpt lat="42.776074" lon="24.979311">
				<ele>1094.000000</ele>
				<time>2025-07-12T07:50:54Z</time>
			</trkpt>
			<trkpt lat="42.776044" lon="24.979327">
				<ele>1094.000000</ele>
				<time>2025-07-12T07:50:58Z</time>
			</trkpt>
			<trkpt lat="42.776001" lon="24.979346">
				<ele>1095.000000</ele>
				<time>2025-07-12T07:51:03Z</time>
			</trkpt>
			<trkpt lat="42.775994" lon="24.979346">
				<ele>1095.000000</ele>
				<time>2025-07-12T07:51:04Z</time>
			</trkpt>
			<trkpt lat="42.775974" lon="24.979347">
				<ele>1095.000000</ele>
				<time>2025-07-12T07:51:07Z</time>
			</trkpt>
			<trkpt lat="42.775926" lon="24.979354">
				<ele>1096.000000</ele>
				<time>2025-07-12T07:51:14Z</time>
			</trkpt>
			<trkpt lat="42.775918" lon="24.979358">
				<ele>1096.000000</ele>
				<time>2025-07-12T07:51:15Z</time>
			</trkpt>
			<trkpt lat="42.775859" lon="24.979386">
				<ele>1097.000000</ele>
				<time>2025-07-12T07:51:22Z</time>
			</trkpt>
			<trkpt lat="42.775851" lon="24.979387">
				<ele>1097.000000</ele>
				<time>2025-07-12T07:51:23Z</time>
			</trkpt>
			<trkpt lat="42.775803" lon="24.979396">
				<ele>1097.000000</ele>
				<time>2025-07-12T07:51:30Z</time>
			</trkpt>
			<trkpt lat="42.775767" lon="24.979430">
				<ele>1098.000000</ele>
				<time>2025-07-12T07:51:36Z</time>
			</trkpt>
			<trkpt lat="42.775748" lon="24.979439">
				<ele>1099.000000</ele>
				<time>2025-07-12T07:51:38Z</time>
			</trkpt>
			<trkpt lat="42.775715" lon="24.979443">
				<ele>1099.000000</ele>
				<time>2025-07-12T07:51:43Z</time>
			</trkpt>
			<trkpt lat="42.775699" lon="24.979447">
				<ele>1099.000000</ele>
				<time>2025-07-12T07:51:45Z</time>
			</trkpt>
			<trkpt lat="42.775651" lon="24.979461">
				<ele>1100.000000</ele>
				<time>2025-07-12T07:51:52Z</time>
			</trkpt>
			<trkpt lat="42.775627" lon="24.979472">
				<ele>1100.000000</ele>
				<time>2025-07-12T07:51:55Z</time>
			</trkpt>
			<trkpt lat="42.775572" lon="24.979464">
				<ele>1101.000000</ele>
				<time>2025-07-12T07:52:02Z</time>
			</trkpt>
			<trkpt lat="42.775555" lon="24.979458">
				<ele>1101.000000</ele>
				<time>2025-07-12T07:52:04Z</time>
			</trkpt>
			<trkpt lat="42.775527" lon="24.979450">
				<ele>1102.000000</ele>
				<time>2025-07-12T07:52:08Z</time>
			</trkpt>
			<trkpt lat="42.775516" lon="24.979449">
				<ele>1102.000000</ele>
				<time>2025-07-12T07:52:09Z</time>
			</trkpt>
			<trkpt lat="42.775487" lon="24.979439">
				<ele>1102.000000</ele>
				<time>2025-07-12T07:52:12Z</time>
			</trkpt>
			<trkpt lat="42.775472" lon="24.979443">
				<ele>1102.000000</ele>
				<time>2025-07-12T07:52:14Z</time>
			</trkpt>
			<trkpt lat="42.775465" lon="24.979446">
				<ele>1102.000000</ele>
				<time>2025-07-12T07:52:15Z</time>
			</trkpt>
			<trkpt lat="42.775426" lon="24.979465">
				<ele>1103.000000</ele>
				<time>2025-07-12T07:52:22Z</time>
			</trkpt>
			<trkpt lat="42.775392" lon="24.979453">
				<ele>1103.000000</ele>
				<time>2025-07-12T07:52:27Z</time>
			</trkpt>
			<trkpt lat="42.775374" lon="24.979449">
				<ele>1104.000000</ele>
				<time>2025-07-12T07:52:29Z</time>
			</trkpt>
			<trkpt lat="42.775312" lon="24.979453">
				<ele>1104.000000</ele>
				<time>2025-07-12T07:52:37Z</time>
			</trkpt>
			<trkpt lat="42.775292" lon="24.979450">
				<ele>1104.000000</ele>
				<time>2025-07-12T07:52:39Z</time>
			</trkpt>
			<trkpt lat="42.775246" lon="24.979458">
				<ele>1105.000000</ele>
				<time>2025-07-12T07:52:43Z</time>
			</trkpt>
			<trkpt lat="42.775203" lon="24.979437">
				<ele>1105.000000</ele>
				<time>2025-07-12T07:52:49Z</time>
			</trkpt>
			<trkpt lat="42.775184" lon="24.979413">
				<ele>1105.000000</ele>
				<time>2025-07-12T07:52:53Z</time>
			</trkpt>
			<trkpt lat="42.775172" lon="24.979375">
				<ele>1106.000000</ele>
				<time>2025-07-12T07:52:57Z</time>
			</trkpt>
			<trkpt lat="42.775150" lon="24.979327">
				<ele>1107.000000</ele>
				<time>2025-07-12T07:53:02Z</time>
			</trkpt>
			<trkpt lat="42.775137" lon="24.979307">
				<ele>1107.000000</ele>
				<time>2025-07-12T07:53:04Z</time>
			</trkpt>
			<trkpt lat="42.775116" lon="24.979260">
				<ele>1108.000000</ele>
				<time>2025-07-12T07:53:09Z</time>
			</trkpt>
			<trkpt lat="42.775110" lon="24.979225">
				<ele>1108.000000</ele>
				<time>2025-07-12T07:53:12Z</time>
			</trkpt>
			<trkpt lat="42.775112" lon="24.979227">
				<ele>1109.000000</ele>
				<time>2025-07-12T07:53:17Z</time>
			</trkpt>
			<trkpt lat="42.775113" lon="24.979240">
				<ele>1109.000000</ele>
				<time>2025-07-12T07:53:18Z</time>
			</trkpt>
			<trkpt lat="42.775095" lon="24.979260">
				<ele>1109.000000</ele>
				<time>2025-07-12T07:53:26Z</time>
			</trkpt>
			<trkpt lat="42.775059" lon="24.979189">
				<ele>1110.000000</ele>
				<time>2025-07-12T07:53:34Z</time>
			</trkpt>
			<trkpt lat="42.775057" lon="24.979179">
				<ele>1110.000000</ele>
				<time>2025-07-12T07:53:35Z</time>
			</trkpt>
			<trkpt lat="42.775046" lon="24.979172">
				<ele>1110.000000</ele>
				<time>2025-07-12T07:53:37Z</time>
			</trkpt>
			<trkpt lat="42.775025" lon="24.979138">
				<ele>1111.000000</ele>
				<time>2025-07-12T07:53:41Z</time>
			</trkpt>
			<trkpt lat="42.775018" lon="24.979113">
				<ele>1111.000000</ele>
				<time>2025-07-12T07:53:44Z</time>
			</trkpt>
			<trkpt lat="42.775007" lon="24.979089">
				<ele>1111.000000</ele>
				<time>2025-07-12T07:53:48Z</time>
			</trkpt>
			<trkpt lat="42.774993" lon="24.979075">
				<ele>1112.000000</ele>
				<time>2025-07-12T07:53:51Z</time>
			</trkpt>
			<trkpt lat="42.774979" lon="24.979075">
				<ele>1112.000000</ele>
				<time>2025-07-12T07:53:53Z</time>
			</trkpt>
			<trkpt lat="42.774947" lon="24.979072">
				<ele>1112.000000</ele>
				<time>2025-07-12T07:53:57Z</time>
			</trkpt>
			<trkpt lat="42.774906" lon="24.979063">
				<ele>1113.000000</ele>
				<time>2025-07-12T07:54:03Z</time>
			</trkpt>
			<trkpt lat="42.774878" lon="24.979067">
				<ele>1113.000000</ele>
				<time>2025-07-12T07:54:07Z</time>
			</trkpt>
			<trkpt lat="42.774831" lon="24.979089">
				<ele>1114.000000</ele>
				<time>2025-07-12T07:54:13Z</time>
			</trkpt>
			<trkpt lat="42.774813" lon="24.979093">
				<ele>1114.000000</ele>
				<time>2025-07-12T07:54:16Z</time>
			</trkpt>
			<trkpt lat="42.774750" lon="24.979101">
				<ele>1115.000000</ele>
				<time>2025-07-12T07:54:24Z</time>
			</trkpt>
			<trkpt lat="42.774677" lon="24.979109">
				<ele>1116.000000</ele>
				<time>2025-07-12T07:54:32Z</time>
			</trkpt>
			<trkpt lat="42.774612" lon="24.979139">
				<ele>1116.000000</ele>
				<time>2025-07-12T07:54:40Z</time>
			</trkpt>
			<trkpt lat="42.774564" lon="24.979160">
				<ele>1116.000000</ele>
				<time>2025-07-12T07:54:46Z</time>
			</trkpt>
			<trkpt lat="42.774553" lon="24.979162">
				<ele>1116.000000</ele>
				<time>2025-07-12T07:54:47Z</time>
			</trkpt>
			<trkpt lat="42.774522" lon="24.979160">
				<ele>1117.000000</ele>
				<time>2025-07-12T07:54:53Z</time>
			</trkpt>
			<trkpt lat="42.774516" lon="24.979160">
				<ele>1117.000000</ele>
				<time>2025-07-12T07:54:54Z</time>
			</trkpt>
			<trkpt lat="42.774444" lon="24.979164">
				<ele>1118.000000</ele>
				<time>2025-07-12T07:55:03Z</time>
			</trkpt>
			<trkpt lat="42.774420" lon="24.979168">
				<ele>1118.000000</ele>
				<time>2025-07-12T07:55:06Z</time>
			</trkpt>
			<trkpt lat="42.774376" lon="24.979185">
				<ele>1119.000000</ele>
				<time>2025-07-12T07:55:12Z</time>
			</trkpt>
			<trkpt lat="42.774313" lon="24.979211">
				<ele>1119.000000</ele>
				<time>2025-07-12T07:55:19Z</time>
			</trkpt>
			<trkpt lat="42.774286" lon="24.979222">
				<ele>1119.000000</ele>
				<time>2025-07-12T07:55:22Z</time>
			</trkpt>
			<trkpt lat="42.774244" lon="24.979210">
				<ele>1120.000000</ele>
				<time>2025-07-12T07:55:28Z</time>
			</trkpt>
			<trkpt lat="42.774179" lon="24.979210">
				<ele>1121.000000</ele>
				<time>2025-07-12T07:55:36Z</time>
			</trkpt>
			<trkpt lat="42.774145" lon="24.979207">
				<ele>1121.000000</ele>
				<time>2025-07-12T07:55:41Z</time>
			</trkpt>
			<trkpt lat="42.774135" lon="24.979215">
				<ele>1121.000000</ele>
				<time>2025-07-12T07:55:43Z</time>
			</trkpt>
			<trkpt lat="42.774087" lon="24.979226">
				<ele>1121.000000</ele>
				<time>2025-07-12T07:55:48Z</time>
			</trkpt>
			<trkpt lat="42.774028" lon="24.979238">
				<ele>1122.000000</ele>
				<time>2025-07-12T07:55:53Z</time>
			</trkpt>
			<trkpt lat="42.774010" lon="24.979246">
				<ele>1122.000000</ele>
				<time>2025-07-12T07:55:55Z</time>
			</trkpt>
			<trkpt lat="42.773995" lon="24.979248">
				<ele>1123.000000</ele>
				<time>2025-07-12T07:56:01Z</time>
			</trkpt>
			<trkpt lat="42.773934" lon="24.979266">
				<ele>1123.000000</ele>
				<time>2025-07-12T07:56:07Z</time>
			</trkpt>
			<trkpt lat="42.773907" lon="24.979270">
				<ele>1123.000000</ele>
				<time>2025-07-12T07:56:10Z</time>
			</trkpt>
			<trkpt lat="42.773891" lon="24.979270">
				<ele>1123.000000</ele>
				<time>2025-07-12T07:56:13Z</time>
			</trkpt>
			<trkpt lat="42.773878" lon="24.979273">
				<ele>1124.000000</ele>
				<time>2025-07-12T07:56:15Z</time>
			</trkpt>
			<trkpt lat="42.773817" lon="24.979289">
				<ele>1124.000000</ele>
				<time>2025-07-12T07:56:22Z</time>
			</trkpt>
			<trkpt lat="42.773806" lon="24.979293">
				<ele>1124.000000</ele>
				<time>2025-07-12T07:56:23Z</time>
			</trkpt>
			<trkpt lat="42.773740" lon="24.979296">
				<ele>1125.000000</ele>
				<time>2025-07-12T07:56:30Z</time>
			</trkpt>
			<trkpt lat="42.773713" lon="24.979281">
				<ele>1126.000000</ele>
				<time>2025-07-12T07:56:33Z</time>
			</trkpt>
			<trkpt lat="42.773680" lon="24.979276">
				<ele>1126.000000</ele>
				<time>2025-07-12T07:56:37Z</time>
			</trkpt>
			<trkpt lat="42.773616" lon="24.979265">
				<ele>1126.000000</ele>
				<time>2025-07-12T07:56:45Z</time>
			</trkpt>
			<trkpt lat="42.773568" lon="24.979262">
				<ele>1127.000000</ele>
				<time>2025-07-12T07:56:51Z</time>
			</trkpt>
			<trkpt lat="42.773553" lon="24.979260">
				<ele>1127.000000</ele>
				<time>2025-07-12T07:56:52Z</time>
			</trkpt>
			<trkpt lat="42.773492" lon="24.979258">
				<ele>1127.000000</ele>
				<time>2025-07-12T07:56:59Z</time>
			</trkpt>
			<trkpt lat="42.773451" lon="24.979266">
				<ele>1128.000000</ele>
				<time>2025-07-12T07:57:03Z</time>
			</trkpt>
			<trkpt lat="42.773437" lon="24.979261">
				<ele>1128.000000</ele>
				<time>2025-07-12T07:57:06Z</time>
			</trkpt>
			<trkpt lat="42.773415" lon="24.979273">
				<ele>1129.000000</ele>
				<time>2025-07-12T07:57:11Z</time>
			</trkpt>
			<trkpt lat="42.773401" lon="24.979268">
				<ele>1129.000000</ele>
				<time>2025-07-12T07:57:13Z</time>
			</trkpt>
			<trkpt lat="42.773326" lon="24.979281">
				<ele>1129.000000</ele>
				<time>2025-07-12T07:57:20Z</time>
			</trkpt>
			<trkpt lat="42.773276" lon="24.979303">
				<ele>1130.000000</ele>
				<time>2025-07-12T07:57:26Z</time>
			</trkpt>
			<trkpt lat="42.773265" lon="24.979305">
				<ele>1130.000000</ele>
				<time>2025-07-12T07:57:27Z</time>
			</trkpt>
			<trkpt lat="42.773209" lon="24.979355">
				<ele>1130.000000</ele>
				<time>2025-07-12T07:57:35Z</time>
			</trkpt>
			<trkpt lat="42.773140" lon="24.979366">
				<ele>1131.000000</ele>
				<time>2025-07-12T07:57:43Z</time>
			</trkpt>
			<trkpt lat="42.773120" lon="24.979358">
				<ele>1131.000000</ele>
				<time>2025-07-12T07:57:45Z</time>
			</trkpt>
			<trkpt lat="42.773066" lon="24.979319">
				<ele>1131.000000</ele>
				<time>2025-07-12T07:57:51Z</time>
			</trkpt>
			<trkpt lat="42.773036" lon="24.979253">
				<ele>1132.000000</ele>
				<time>2025-07-12T07:57:57Z</time>
			</trkpt>
			<trkpt lat="42.773030" lon="24.979245">
				<ele>1132.000000</ele>
				<time>2025-07-12T07:57:58Z</time>
			</trkpt>
			<trkpt lat="42.772965" lon="24.979210">
				<ele>1133.000000</ele>
				<time>2025-07-12T07:58:06Z</time>
			</trkpt>
			<trkpt lat="42.772905" lon="24.979199">
				<ele>1134.000000</ele>
				<time>2025-07-12T07:58:14Z</time>
			</trkpt>
			<trkpt lat="42.772899" lon="24.979198">
				<ele>1134.000000</ele>
				<time>2025-07-12T07:58:15Z</time>
			</trkpt>
			<trkpt lat="42.772862" lon="24.979209">
				<ele>1135.000000</ele>
				<time>2025-07-12T07:58:20Z</time>
			</trkpt>
			<trkpt lat="42.772841" lon="24.979236">
				<ele>1135.000000</ele>
				<time>2025-07-12T07:58:23Z</time>
			</trkpt>
			<trkpt lat="42.772833" lon="24.979245">
				<ele>1135.000000</ele>
				<time>2025-07-12T07:58:24Z</time>
			</trkpt>
			<trkpt lat="42.772795" lon="24.979296">
				<ele>1136.000000</ele>
				<time>2025-07-12T07:58:31Z</time>
			</trkpt>
			<trkpt lat="42.772784" lon="24.979308">
				<ele>1136.000000</ele>
				<time>2025-07-12T07:58:33Z</time>
			</trkpt>
			<trkpt lat="42.772744" lon="24.979332">
				<ele>1137.000000</ele>
				<time>2025-07-12T07:58:39Z</time>
			</trkpt>
			<trkpt lat="42.772702" lon="24.979354">
				<ele>1137.000000</ele>
				<time>2025-07-12T07:58:44Z</time>
			</trkpt>
			<trkpt lat="42.772696" lon="24.979358">
				<ele>1138.000000</ele>
				<time>2025-07-12T07:58:46Z</time>
			</trkpt>
			<trkpt lat="42.772668" lon="24.979414">
				<ele>1138.000000</ele>
				<time>2025-07-12T07:58:53Z</time>
			</trkpt>
			<trkpt lat="42.772663" lon="24.979422">
				<ele>1138.000000</ele>
				<time>2025-07-12T07:58:54Z</time>
			</trkpt>
			<trkpt lat="42.772656" lon="24.979435">
				<ele>1139.000000</ele>
				<time>2025-07-12T07:58:57Z</time>
			</trkpt>
			<trkpt lat="42.772639" lon="24.979466">
				<ele>1139.000000</ele>
				<time>2025-07-12T07:59:01Z</time>
			</trkpt>
			<trkpt lat="42.772622" lon="24.979501">
				<ele>1139.000000</ele>
				<time>2025-07-12T07:59:05Z</time>
			</trkpt>
			<trkpt lat="42.772608" lon="24.979533">
				<ele>1140.000000</ele>
				<time>2025-07-12T07:59:09Z</time>
			</trkpt>
			<trkpt lat="42.772579" lon="24.979582">
				<ele>1140.000000</ele>
				<time>2025-07-12T07:59:16Z</time>
			</trkpt>
			<trkpt lat="42.772548" lon="24.979643">
				<ele>1141.000000</ele>
				<time>2025-07-12T07:59:22Z</time>
			</trkpt>
			<trkpt lat="42.772541" lon="24.979663">
				<ele>1142.000000</ele>
				<time>2025-07-12T07:59:25Z</time>
			</trkpt>
			<trkpt lat="42.772522" lon="24.979708">
				<ele>1142.000000</ele>
				<time>2025-07-12T07:59:30Z</time>
			</trkpt>
			<trkpt lat="42.772505" lon="24.979742">
				<ele>1143.000000</ele>
				<time>2025-07-12T07:59:34Z</time>
			</trkpt>
			<trkpt lat="42.772496" lon="24.979781">
				<ele>1143.000000</ele>
				<time>2025-07-12T07:59:39Z</time>
			</trkpt>
			<trkpt lat="42.772469" lon="24.979855">
				<ele>1144.000000</ele>
				<time>2025-07-12T07:59:46Z</time>
			</trkpt>
			<trkpt lat="42.772439" lon="24.979911">
				<ele>1145.000000</ele>
				<time>2025-07-12T07:59:54Z</time>
			</trkpt>
			<trkpt lat="42.772434" lon="24.979915">
				<ele>1145.000000</ele>
				<time>2025-07-12T07:59:55Z</time>
			</trkpt>
			<trkpt lat="42.772405" lon="24.980001">
				<ele>1145.000000</ele>
				<time>2025-07-12T08:00:03Z</time>
			</trkpt>
			<trkpt lat="42.772380" lon="24.980067">
				<ele>1146.000000</ele>
				<time>2025-07-12T08:00:10Z</time>
			</trkpt>
			<trkpt lat="42.772377" lon="24.980078">
				<ele>1146.000000</ele>
				<time>2025-07-12T08:00:11Z</time>
			</trkpt>
			<trkpt lat="42.772341" lon="24.980142">
				<ele>1146.000000</ele>
				<time>2025-07-12T08:00:19Z</time>
			</trkpt>
			<trkpt lat="42.772303" lon="24.980220">
				<ele>1147.000000</ele>
				<time>2025-07-12T08:00:27Z</time>
			</trkpt>
			<trkpt lat="42.772300" lon="24.980231">
				<ele>1147.000000</ele>
				<time>2025-07-12T08:00:28Z</time>
			</trkpt>
			<trkpt lat="42.772298" lon="24.980236">
				<ele>1147.000000</ele>
				<time>2025-07-12T08:00:29Z</time>
			</trkpt>
			<trkpt lat="42.772285" lon="24.980304">
				<ele>1148.000000</ele>
				<time>2025-07-12T08:00:35Z</time>
			</trkpt>
			<trkpt lat="42.772276" lon="24.980320">
				<ele>1148.000000</ele>
				<time>2025-07-12T08:00:37Z</time>
			</trkpt>
			<trkpt lat="42.772254" lon="24.980359">
				<ele>1148.000000</ele>
				<time>2025-07-12T08:00:41Z</time>
			</trkpt>
			<trkpt lat="42.772225" lon="24.980441">
				<ele>1148.000000</ele>
				<time>2025-07-12T08:00:48Z</time>
			</trkpt>
			<trkpt lat="42.772183" lon="24.980507">
				<ele>1149.000000</ele>
				<time>2025-07-12T08:00:55Z</time>
			</trkpt>
			<trkpt lat="42.772128" lon="24.980538">
				<ele>1149.000000</ele>
				<time>2025-07-12T08:01:01Z</time>
			</trkpt>
			<trkpt lat="42.772118" lon="24.980548">
				<ele>1149.000000</ele>
				<time>2025-07-12T08:01:03Z</time>
			</trkpt>
			<trkpt lat="42.772056" lon="24.980571">
				<ele>1150.000000</ele>
				<time>2025-07-12T08:01:10Z</time>
			</trkpt>
			<trkpt lat="42.772052" lon="24.980570">
				<ele>1150.000000</ele>
				<time>2025-07-12T08:01:11Z</time>
			</trkpt>
			<trkpt lat="42.772054" lon="24.980574">
				<ele>1151.000000</ele>
				<time>2025-07-12T08:01:17Z</time>
			</trkpt>
			<trkpt lat="42.772008" lon="24.980660">
				<ele>1151.000000</ele>
				<time>2025-07-12T08:01:27Z</time>
			</trkpt>
			<trkpt lat="42.771993" lon="24.980675">
				<ele>1151.000000</ele>
				<time>2025-07-12T08:01:29Z</time>
			</trkpt>
			<trkpt lat="42.771970" lon="24.980683">
				<ele>1151.000000</ele>
				<time>2025-07-12T08:01:31Z</time>
			</trkpt>
			<trkpt lat="42.771953" lon="24.980689">
				<ele>1152.000000</ele>
				<time>2025-07-12T08:01:34Z</time>
			</trkpt>
			<trkpt lat="42.771919" lon="24.980697">
				<ele>1152.000000</ele>
				<time>2025-07-12T08:01:41Z</time>
			</trkpt>
			<trkpt lat="42.771913" lon="24.980712">
				<ele>1152.000000</ele>
				<time>2025-07-12T08:01:43Z</time>
			</trkpt>
			<trkpt lat="42.771898" lon="24.980736">
				<ele>1152.000000</ele>
				<time>2025-07-12T08:01:47Z</time>
			</trkpt>
			<trkpt lat="42.771887" lon="24.980754">
				<ele>1152.000000</ele>
				<time>2025-07-12T08:01:49Z</time>
			</trkpt>
			<trkpt lat="42.771867" lon="24.980782">
				<ele>1152.000000</ele>
				<time>2025-07-12T08:01:54Z</time>
			</trkpt>
			<trkpt lat="42.771848" lon="24.980768">
				<ele>1152.000000</ele>
				<time>2025-07-12T08:02:02Z</time>
			</trkpt>
			<trkpt lat="42.771840" lon="24.980778">
				<ele>1152.000000</ele>
				<time>2025-07-12T08:02:06Z</time>
			</trkpt>
			<trkpt lat="42.771844" lon="24.980786">
				<ele>1152.000000</ele>
				<time>2025-07-12T08:02:10Z</time>
			</trkpt>
			<trkpt lat="42.771882" lon="24.980818">
				<ele>1152.000000</ele>
				<time>2025-07-12T08:02:19Z</time>
			</trkpt>
			<trkpt lat="42.771849" lon="24.980798">
				<ele>1152.000000</ele>
				<time>2025-07-12T08:02:27Z</time>
			</trkpt>
			<trkpt lat="42.771825" lon="24.980834">
				<ele>1153.000000</ele>
				<time>2025-07-12T08:02:35Z</time>
			</trkpt>
			<trkpt lat="42.771827" lon="24.980890">
				<ele>1153.000000</ele>
				<time>2025-07-12T08:02:43Z</time>
			</trkpt>
			<trkpt lat="42.771838" lon="24.980888">
				<ele>1153.000000</ele>
				<time>2025-07-12T08:02:47Z</time>
			</trkpt>
			<trkpt lat="42.771841" lon="24.980900">
				<ele>1153.000000</ele>
				<time>2025-07-12T08:02:49Z</time>
			</trkpt>
			<trkpt lat="42.771836" lon="24.980947">
				<ele>1153.000000</ele>
				<time>2025-07-12T08:02:54Z</time>
			</trkpt>
			<trkpt lat="42.771823" lon="24.980974">
				<ele>1153.000000</ele>
				<time>2025-07-12T08:02:57Z</time>
			</trkpt>
			<trkpt lat="42.771798" lon="24.981047">
				<ele>1154.000000</ele>
				<time>2025-07-12T08:03:04Z</time>
			</trkpt>
			<trkpt lat="42.771788" lon="24.981059">
				<ele>1154.000000</ele>
				<time>2025-07-12T08:03:06Z</time>
			</trkpt>
			<trkpt lat="42.771780" lon="24.981097">
				<ele>1154.000000</ele>
				<time>2025-07-12T08:03:11Z</time>
			</trkpt>
			<trkpt lat="42.771758" lon="24.981143">
				<ele>1155.000000</ele>
				<time>2025-07-12T08:03:19Z</time>
			</trkpt>
			<trkpt lat="42.771746" lon="24.981188">
				<ele>1155.000000</ele>
				<time>2025-07-12T08:03:25Z</time>
			</trkpt>
			<trkpt lat="42.771746" lon="24.981235">
				<ele>1155.000000</ele>
				<time>2025-07-12T08:03:30Z</time>
			</trkpt>
			<trkpt lat="42.771739" lon="24.981246">
				<ele>1155.000000</ele>
				<time>2025-07-12T08:03:32Z</time>
			</trkpt>
			<trkpt lat="42.771725" lon="24.981290">
				<ele>1156.000000</ele>
				<time>2025-07-12T08:03:37Z</time>
			</trkpt>
			<trkpt lat="42.771707" lon="24.981352">
				<ele>1156.000000</ele>
				<time>2025-07-12T08:03:44Z</time>
			</trkpt>
			<trkpt lat="42.771693" lon="24.981373">
				<ele>1156.000000</ele>
				<time>2025-07-12T08:03:46Z</time>
			</trkpt>
			<trkpt lat="42.771682" lon="24.981391">
				<ele>1156.000000</ele>
				<time>2025-07-12T08:03:48Z</time>
			</trkpt>
			<trkpt lat="42.771670" lon="24.981418">
				<ele>1157.000000</ele>
				<time>2025-07-12T08:03:51Z</time>
			</trkpt>
			<trkpt lat="42.771646" lon="24.981483">
				<ele>1157.000000</ele>
				<time>2025-07-12T08:03:57Z</time>
			</trkpt>
			<trkpt lat="42.771642" lon="24.981507">
				<ele>1157.000000</ele>
				<time>2025-07-12T08:03:59Z</time>
			</trkpt>
			<trkpt lat="42.771599" lon="24.981557">
				<ele>1158.000000</ele>
				<time>2025-07-12T08:04:06Z</time>
			</trkpt>
			<trkpt lat="42.771581" lon="24.981619">
				<ele>1158.000000</ele>
				<time>2025-07-12T08:04:12Z</time>
			</trkpt>
			<trkpt lat="42.771575" lon="24.981640">
				<ele>1158.000000</ele>
				<time>2025-07-12T08:04:14Z</time>
			</trkpt>
			<trkpt lat="42.771566" lon="24.981709">
				<ele>1158.000000</ele>
				<time>2025-07-12T08:04:21Z</time>
			</trkpt>
			<trkpt lat="42.771571" lon="24.981851">
				<ele>1159.000000</ele>
				<time>2025-07-12T08:04:31Z</time>
			</trkpt>
			<trkpt lat="42.771565" lon="24.981924">
				<ele>1159.000000</ele>
				<time>2025-07-12T08:04:38Z</time>
			</trkpt>
			<trkpt lat="42.771565" lon="24.981932">
				<ele>1159.000000</ele>
				<time>2025-07-12T08:04:39Z</time>
			</trkpt>
			<trkpt lat="42.771563" lon="24.982033">
				<ele>1160.000000</ele>
				<time>2025-07-12T08:04:48Z</time>
			</trkpt>
			<trkpt lat="42.771546" lon="24.982135">
				<ele>1160.000000</ele>
				<time>2025-07-12T08:04:57Z</time>
			</trkpt>
			<trkpt lat="42.771531" lon="24.982189">
				<ele>1160.000000</ele>
				<time>2025-07-12T08:05:01Z</time>
			</trkpt>
			<trkpt lat="42.771525" lon="24.982211">
				<ele>1160.000000</ele>
				<time>2025-07-12T08:05:03Z</time>
			</trkpt>
			<trkpt lat="42.771528" lon="24.982321">
				<ele>1161.000000</ele>
				<time>2025-07-12T08:05:12Z</time>
			</trkpt>
			<trkpt lat="42.771522" lon="24.982392">
				<ele>1161.000000</ele>
				<time>2025-07-12T08:05:18Z</time>
			</trkpt>
			<trkpt lat="42.771493" lon="24.982450">
				<ele>1161.000000</ele>
				<time>2025-07-12T08:05:23Z</time>
			</trkpt>
			<trkpt lat="42.771465" lon="24.982464">
				<ele>1162.000000</ele>
				<time>2025-07-12T08:05:26Z</time>
			</trkpt>
			<trkpt lat="42.771398" lon="24.982480">
				<ele>1161.000000</ele>
				<time>2025-07-12T08:05:34Z</time>
			</trkpt>
			<trkpt lat="42.771323" lon="24.982417">
				<ele>1162.000000</ele>
				<time>2025-07-12T08:05:42Z</time>
			</trkpt>
			<trkpt lat="42.771303" lon="24.982327">
				<ele>1163.000000</ele>
				<time>2025-07-12T08:05:49Z</time>
			</trkpt>
			<trkpt lat="42.771290" lon="24.982249">
				<ele>1164.000000</ele>
				<time>2025-07-12T08:05:56Z</time>
			</trkpt>
			<trkpt lat="42.771287" lon="24.982213">
				<ele>1164.000000</ele>
				<time>2025-07-12T08:05:59Z</time>
			</trkpt>
			<trkpt lat="42.771293" lon="24.982160">
				<ele>1165.000000</ele>
				<time>2025-07-12T08:06:04Z</time>
			</trkpt>
			<trkpt lat="42.771294" lon="24.982126">
				<ele>1165.000000</ele>
				<time>2025-07-12T08:06:08Z</time>
			</trkpt>
			<trkpt lat="42.771295" lon="24.982103">
				<ele>1165.000000</ele>
				<time>2025-07-12T08:06:10Z</time>
			</trkpt>
			<trkpt lat="42.771294" lon="24.982064">
				<ele>1166.000000</ele>
				<time>2025-07-12T08:06:14Z</time>
			</trkpt>
			<trkpt lat="42.771295" lon="24.982040">
				<ele>1166.000000</ele>
				<time>2025-07-12T08:06:16Z</time>
			</trkpt>
			<trkpt lat="42.771289" lon="24.981978">
				<ele>1167.000000</ele>
				<time>2025-07-12T08:06:22Z</time>
			</trkpt>
			<trkpt lat="42.771284" lon="24.981963">
				<ele>1167.000000</ele>
				<time>2025-07-12T08:06:24Z</time>
			</trkpt>
			<trkpt lat="42.771267" lon="24.981887">
				<ele>1167.000000</ele>
				<time>2025-07-12T08:06:31Z</time>
			</trkpt>
			<trkpt lat="42.771262" lon="24.981879">
				<ele>1167.000000</ele>
				<time>2025-07-12T08:06:34Z</time>
			</trkpt>
			<trkpt lat="42.771255" lon="24.981865">
				<ele>1167.000000</ele>
				<time>2025-07-12T08:06:37Z</time>
			</trkpt>
			<trkpt lat="42.771256" lon="24.981878">
				<ele>1167.000000</ele>
				<time>2025-07-12T08:06:45Z</time>
			</trkpt>
			<trkpt lat="42.771276" lon="24.981816">
				<ele>1167.000000</ele>
				<time>2025-07-12T08:06:52Z</time>
			</trkpt>
			<trkpt lat="42.771298" lon="24.981698">
				<ele>1167.000000</ele>
				<time>2025-07-12T08:07:00Z</time>
			</trkpt>
			<trkpt lat="42.771307" lon="24.981645">
				<ele>1168.000000</ele>
				<time>2025-07-12T08:07:05Z</time>
			</trkpt>
			<trkpt lat="42.771308" lon="24.981621">
				<ele>1168.000000</ele>
				<time>2025-07-12T08:07:07Z</time>
			</trkpt>
			<trkpt lat="42.771330" lon="24.981527">
				<ele>1169.000000</ele>
				<time>2025-07-12T08:07:15Z</time>
			</trkpt>
			<trkpt lat="42.771346" lon="24.981442">
				<ele>1170.000000</ele>
				<time>2025-07-12T08:07:24Z</time>
			</trkpt>
			<trkpt lat="42.771351" lon="24.981418">
				<ele>1170.000000</ele>
				<time>2025-07-12T08:07:26Z</time>
			</trkpt>
			<trkpt lat="42.771349" lon="24.981380">
				<ele>1170.000000</ele>
				<time>2025-07-12T08:07:30Z</time>
			</trkpt>
			<trkpt lat="42.771350" lon="24.981358">
				<ele>1171.000000</ele>
				<time>2025-07-12T08:07:32Z</time>
			</trkpt>
			<trkpt lat="42.771348" lon="24.981333">
				<ele>1171.000000</ele>
				<time>2025-07-12T08:07:36Z</time>
			</trkpt>
			<trkpt lat="42.771333" lon="24.981301">
				<ele>1171.000000</ele>
				<time>2025-07-12T08:07:40Z</time>
			</trkpt>
			<trkpt lat="42.771323" lon="24.981273">
				<ele>1172.000000</ele>
				<time>2025-07-12T08:07:48Z</time>
			</trkpt>
			<trkpt lat="42.771327" lon="24.981267">
				<ele>1172.000000</ele>
				<time>2025-07-12T08:07:56Z</time>
			</trkpt>
			<trkpt lat="42.771327" lon="24.981285">
				<ele>1172.000000</ele>
				<time>2025-07-12T08:08:04Z</time>
			</trkpt>
			<trkpt lat="42.771330" lon="24.981294">
				<ele>1172.000000</ele>
				<time>2025-07-12T08:08:14Z</time>
			</trkpt>
			<trkpt lat="42.771329" lon="24.981291">
				<ele>1172.000000</ele>
				<time>2025-07-12T08:08:15Z</time>
			</trkpt>
			<trkpt lat="42.771314" lon="24.981257">
				<ele>1172.000000</ele>
				<time>2025-07-12T08:08:23Z</time>
			</trkpt>
			<trkpt lat="42.771286" lon="24.981262">
				<ele>1172.000000</ele>
				<time>2025-07-12T08:08:27Z</time>
			</trkpt>
			<trkpt lat="42.771247" lon="24.981263">
				<ele>1173.000000</ele>
				<time>2025-07-12T08:08:31Z</time>
			</trkpt>
			<trkpt lat="42.771227" lon="24.981273">
				<ele>1173.000000</ele>
				<time>2025-07-12T08:08:34Z</time>
			</trkpt>
			<trkpt lat="42.771193" lon="24.981282">
				<ele>1174.000000</ele>
				<time>2025-07-12T08:08:38Z</time>
			</trkpt>
			<trkpt lat="42.771181" lon="24.981289">
				<ele>1174.000000</ele>
				<time>2025-07-12T08:08:40Z</time>
			</trkpt>
			<trkpt lat="42.771169" lon="24.981295">
				<ele>1174.000000</ele>
				<time>2025-07-12T08:08:42Z</time>
			</trkpt>
			<trkpt lat="42.771166" lon="24.981299">
				<ele>1174.000000</ele>
				<time>2025-07-12T08:08:43Z</time>
			</trkpt>
			<trkpt lat="42.771151" lon="24.981313">
				<ele>1175.000000</ele>
				<time>2025-07-12T08:08:46Z</time>
			</trkpt>
			<trkpt lat="42.771106" lon="24.981354">
				<ele>1175.000000</ele>
				<time>2025-07-12T08:08:53Z</time>
			</trkpt>
			<trkpt lat="42.771100" lon="24.981361">
				<ele>1175.000000</ele>
				<time>2025-07-12T08:08:54Z</time>
			</trkpt>
			<trkpt lat="42.771094" lon="24.981391">
				<ele>1176.000000</ele>
				<time>2025-07-12T08:09:01Z</time>
			</trkpt>
			<trkpt lat="42.771096" lon="24.981388">
				<ele>1176.000000</ele>
				<time>2025-07-12T08:09:08Z</time>
			</trkpt>
			<trkpt lat="42.771090" lon="24.981392">
				<ele>1176.000000</ele>
				<time>2025-07-12T08:09:13Z</time>
			</trkpt>
			<trkpt lat="42.771107" lon="24.981389">
				<ele>1176.000000</ele>
				<time>2025-07-12T08:09:21Z</time>
			</trkpt>
			<trkpt lat="42.771104" lon="24.981401">
				<ele>1176.000000</ele>
				<time>2025-07-12T08:09:23Z</time>
			</trkpt>
			<trkpt lat="42.771099" lon="24.981384">
				<ele>1176.000000</ele>
				<time>2025-07-12T08:09:32Z</time>
			</trkpt>
			<trkpt lat="42.771099" lon="24.981396">
				<ele>1176.000000</ele>
				<time>2025-07-12T08:09:41Z</time>
			</trkpt>
			<trkpt lat="42.771069" lon="24.981412">
				<ele>1176.000000</ele>
				<time>2025-07-12T08:09:47Z</time>
			</trkpt>
			<trkpt lat="42.771022" lon="24.981471">
				<ele>1176.000000</ele>
				<time>2025-07-12T08:09:54Z</time>
			</trkpt>
			<trkpt lat="42.771008" lon="24.981487">
				<ele>1176.000000</ele>
				<time>2025-07-12T08:09:56Z</time>
			</trkpt>
			<trkpt lat="42.770991" lon="24.981507">
				<ele>1176.000000</ele>
				<time>2025-07-12T08:09:59Z</time>
			</trkpt>
			<trkpt lat="42.770955" lon="24.981541">
				<ele>1177.000000</ele>
				<time>2025-07-12T08:10:05Z</time>
			</trkpt>
			<trkpt lat="42.770951" lon="24.981552">
				<ele>1177.000000</ele>
				<time>2025-07-12T08:10:06Z</time>
			</trkpt>
			<trkpt lat="42.770913" lon="24.981612">
				<ele>1177.000000</ele>
				<time>2025-07-12T08:10:13Z</time>
			</trkpt>
			<trkpt lat="42.770906" lon="24.981625">
				<ele>1177.000000</ele>
				<time>2025-07-12T08:10:15Z</time>
			</trkpt>
			<trkpt lat="42.770881" lon="24.981662">
				<ele>1178.000000</ele>
				<time>2025-07-12T08:10:20Z</time>
			</trkpt>
			<trkpt lat="42.770841" lon="24.981705">
				<ele>1178.000000</ele>
				<time>2025-07-12T08:10:27Z</time>
			</trkpt>
			<trkpt lat="42.770789" lon="24.981733">
				<ele>1179.000000</ele>
				<time>2025-07-12T08:10:32Z</time>
			</trkpt>
			<trkpt lat="42.770771" lon="24.981743">
				<ele>1179.000000</ele>
				<time>2025-07-12T08:10:34Z</time>
			</trkpt>
			<trkpt lat="42.770752" lon="24.981753">
				<ele>1179.000000</ele>
				<time>2025-07-12T08:10:36Z</time>
			</trkpt>
			<trkpt lat="42.770729" lon="24.981759">
				<ele>1179.000000</ele>
				<time>2025-07-12T08:10:39Z</time>
			</trkpt>
			<trkpt lat="42.770706" lon="24.981768">
				<ele>1179.000000</ele>
				<time>2025-07-12T08:10:41Z</time>
			</trkpt>
			<trkpt lat="42.770682" lon="24.981774">
				<ele>1180.000000</ele>
				<time>2025-07-12T08:10:44Z</time>
			</trkpt>
			<trkpt lat="42.770650" lon="24.981770">
				<ele>1180.000000</ele>
				<time>2025-07-12T08:10:48Z</time>
			</trkpt>
			<trkpt lat="42.770582" lon="24.981754">
				<ele>1180.000000</ele>
				<time>2025-07-12T08:10:56Z</time>
			</trkpt>
			<trkpt lat="42.770521" lon="24.981731">
				<ele>1180.000000</ele>
				<time>2025-07-12T08:11:02Z</time>
			</trkpt>
			<trkpt lat="42.770474" lon="24.981754">
				<ele>1181.000000</ele>
				<time>2025-07-12T08:11:08Z</time>
			</trkpt>
			<trkpt lat="42.770462" lon="24.981757">
				<ele>1181.000000</ele>
				<time>2025-07-12T08:11:09Z</time>
			</trkpt>
			<trkpt lat="42.770407" lon="24.981784">
				<ele>1181.000000</ele>
				<time>2025-07-12T08:11:16Z</time>
			</trkpt>
			<trkpt lat="42.770383" lon="24.981798">
				<ele>1182.000000</ele>
				<time>2025-07-12T08:11:19Z</time>
			</trkpt>
			<trkpt lat="42.770368" lon="24.981806">
				<ele>1182.000000</ele>
				<time>2025-07-12T08:11:22Z</time>
			</trkpt>
			<trkpt lat="42.770344" lon="24.981839">
				<ele>1182.000000</ele>
				<time>2025-07-12T08:11:25Z</time>
			</trkpt>
			<trkpt lat="42.770315" lon="24.981861">
				<ele>1183.000000</ele>
				<time>2025-07-12T08:11:29Z</time>
			</trkpt>
			<trkpt lat="42.770269" lon="24.981886">
				<ele>1183.000000</ele>
				<time>2025-07-12T08:11:37Z</time>
			</trkpt>
			<trkpt lat="42.770263" lon="24.981888">
				<ele>1183.000000</ele>
				<time>2025-07-12T08:11:38Z</time>
			</trkpt>
			<trkpt lat="42.770231" lon="24.981916">
				<ele>1183.000000</ele>
				<time>2025-07-12T08:11:42Z</time>
			</trkpt>
			<trkpt lat="42.770222" lon="24.981932">
				<ele>1183.000000</ele>
				<time>2025-07-12T08:11:43Z</time>
			</trkpt>
			<trkpt lat="42.770202" lon="24.981963">
				<ele>1183.000000</ele>
				<time>2025-07-12T08:11:46Z</time>
			</trkpt>
			<trkpt lat="42.770175" lon="24.981989">
				<ele>1183.000000</ele>
				<time>2025-07-12T08:11:49Z</time>
			</trkpt>
			<trkpt lat="42.770147" lon="24.982024">
				<ele>1183.000000</ele>
				<time>2025-07-12T08:11:53Z</time>
			</trkpt>
			<trkpt lat="42.770142" lon="24.982032">
				<ele>1183.000000</ele>
				<time>2025-07-12T08:11:54Z</time>
			</trkpt>
			<trkpt lat="42.770120" lon="24.982057">
				<ele>1184.000000</ele>
				<time>2025-07-12T08:11:58Z</time>
			</trkpt>
			<trkpt lat="42.770091" lon="24.982073">
				<ele>1184.000000</ele>
				<time>2025-07-12T08:12:02Z</time>
			</trkpt>
			<trkpt lat="42.770024" lon="24.982114">
				<ele>1185.000000</ele>
				<time>2025-07-12T08:12:09Z</time>
			</trkpt>
			<trkpt lat="42.769995" lon="24.982156">
				<ele>1185.000000</ele>
				<time>2025-07-12T08:12:14Z</time>
			</trkpt>
			<trkpt lat="42.769988" lon="24.982167">
				<ele>1185.000000</ele>
				<time>2025-07-12T08:12:15Z</time>
			</trkpt>
			<trkpt lat="42.769942" lon="24.982210">
				<ele>1186.000000</ele>
				<time>2025-07-12T08:12:22Z</time>
			</trkpt>
			<trkpt lat="42.769927" lon="24.982230">
				<ele>1186.000000</ele>
				<time>2025-07-12T08:12:25Z</time>
			</trkpt>
			<trkpt lat="42.769923" lon="24.982232">
				<ele>1186.000000</ele>
				<time>2025-07-12T08:12:26Z</time>
			</trkpt>
			<trkpt lat="42.769895" lon="24.982254">
				<ele>1186.000000</ele>
				<time>2025-07-12T08:12:30Z</time>
			</trkpt>
			<trkpt lat="42.769843" lon="24.982307">
				<ele>1187.000000</ele>
				<time>2025-07-12T08:12:37Z</time>
			</trkpt>
			<trkpt lat="42.769791" lon="24.982343">
				<ele>1187.000000</ele>
				<time>2025-07-12T08:12:44Z</time>
			</trkpt>
			<trkpt lat="42.769773" lon="24.982351">
				<ele>1187.000000</ele>
				<time>2025-07-12T08:12:46Z</time>
			</trkpt>
			<trkpt lat="42.769722" lon="24.982362">
				<ele>1188.000000</ele>
				<time>2025-07-12T08:12:51Z</time>
			</trkpt>
			<trkpt lat="42.769709" lon="24.982376">
				<ele>1188.000000</ele>
				<time>2025-07-12T08:12:56Z</time>
			</trkpt>
			<trkpt lat="42.769702" lon="24.982382">
				<ele>1188.000000</ele>
				<time>2025-07-12T08:12:57Z</time>
			</trkpt>
			<trkpt lat="42.769649" lon="24.982410">
				<ele>1188.000000</ele>
				<time>2025-07-12T08:13:02Z</time>
			</trkpt>
			<trkpt lat="42.769595" lon="24.982472">
				<ele>1188.000000</ele>
				<time>2025-07-12T08:13:09Z</time>
			</trkpt>
			<trkpt lat="42.769570" lon="24.982565">
				<ele>1188.000000</ele>
				<time>2025-07-12T08:13:17Z</time>
			</trkpt>
			<trkpt lat="42.769567" lon="24.982582">
				<ele>1188.000000</ele>
				<time>2025-07-12T08:13:19Z</time>
			</trkpt>
			<trkpt lat="42.769572" lon="24.982620">
				<ele>1189.000000</ele>
				<time>2025-07-12T08:13:24Z</time>
			</trkpt>
			<trkpt lat="42.769579" lon="24.982689">
				<ele>1189.000000</ele>
				<time>2025-07-12T08:13:29Z</time>
			</trkpt>
			<trkpt lat="42.769576" lon="24.982757">
				<ele>1189.000000</ele>
				<time>2025-07-12T08:13:33Z</time>
			</trkpt>
			<trkpt lat="42.769565" lon="24.982874">
				<ele>1190.000000</ele>
				<time>2025-07-12T08:13:42Z</time>
			</trkpt>
			<trkpt lat="42.769556" lon="24.982961">
				<ele>1190.000000</ele>
				<time>2025-07-12T08:13:49Z</time>
			</trkpt>
			<trkpt lat="42.769552" lon="24.982975">
				<ele>1190.000000</ele>
				<time>2025-07-12T08:13:50Z</time>
			</trkpt>
			<trkpt lat="42.769508" lon="24.983046">
				<ele>1191.000000</ele>
				<time>2025-07-12T08:13:57Z</time>
			</trkpt>
			<trkpt lat="42.769464" lon="24.983080">
				<ele>1191.000000</ele>
				<time>2025-07-12T08:14:03Z</time>
			</trkpt>
			<trkpt lat="42.769406" lon="24.983102">
				<ele>1191.000000</ele>
				<time>2025-07-12T08:14:10Z</time>
			</trkpt>
			<trkpt lat="42.769392" lon="24.983109">
				<ele>1191.000000</ele>
				<time>2025-07-12T08:14:12Z</time>
			</trkpt>
			<trkpt lat="42.769336" lon="24.983153">
				<ele>1191.000000</ele>
				<time>2025-07-12T08:14:18Z</time>
			</trkpt>
			<trkpt lat="42.769287" lon="24.983200">
				<ele>1192.000000</ele>
				<time>2025-07-12T08:14:25Z</time>
			</trkpt>
			<trkpt lat="42.769225" lon="24.983236">
				<ele>1192.000000</ele>
				<time>2025-07-12T08:14:33Z</time>
			</trkpt>
			<trkpt lat="42.769145" lon="24.983282">
				<ele>1192.000000</ele>
				<time>2025-07-12T08:14:41Z</time>
			</trkpt>
			<trkpt lat="42.769098" lon="24.983308">
				<ele>1192.000000</ele>
				<time>2025-07-12T08:14:47Z</time>
			</trkpt>
			<trkpt lat="42.769067" lon="24.983337">
				<ele>1193.000000</ele>
				<time>2025-07-12T08:14:54Z</time>
			</trkpt>
			<trkpt lat="42.769060" lon="24.983337">
				<ele>1193.000000</ele>
				<time>2025-07-12T08:15:02Z</time>
			</trkpt>
			<trkpt lat="42.769071" lon="24.983341">
				<ele>1193.000000</ele>
				<time>2025-07-12T08:15:09Z</time>
			</trkpt>
			<trkpt lat="42.769074" lon="24.983359">
				<ele>1193.000000</ele>
				<time>2025-07-12T08:15:18Z</time>
			</trkpt>
			<trkpt lat="42.769004" lon="24.983417">
				<ele>1193.000000</ele>
				<time>2025-07-12T08:15:25Z</time>
			</trkpt>
			<trkpt lat="42.768989" lon="24.983429">
				<ele>1193.000000</ele>
				<time>2025-07-12T08:15:27Z</time>
			</trkpt>
			<trkpt lat="42.768934" lon="24.983461">
				<ele>1193.000000</ele>
				<time>2025-07-12T08:15:33Z</time>
			</trkpt>
			<trkpt lat="42.768864" lon="24.983461">
				<ele>1194.000000</ele>
				<time>2025-07-12T08:15:41Z</time>
			</trkpt>
			<trkpt lat="42.768826" lon="24.983465">
				<ele>1194.000000</ele>
				<time>2025-07-12T08:15:47Z</time>
			</trkpt>
			<trkpt lat="42.768771" lon="24.983485">
				<ele>1194.000000</ele>
				<time>2025-07-12T08:15:54Z</time>
			</trkpt>
			<trkpt lat="42.768772" lon="24.983487">
				<ele>1194.000000</ele>
				<time>2025-07-12T08:15:55Z</time>
			</trkpt>
			<trkpt lat="42.768763" lon="24.983479">
				<ele>1194.000000</ele>
				<time>2025-07-12T08:15:59Z</time>
			</trkpt>
			<trkpt lat="42.768745" lon="24.983468">
				<ele>1194.000000</ele>
				<time>2025-07-12T08:16:07Z</time>
			</trkpt>
			<trkpt lat="42.768727" lon="24.983488">
				<ele>1194.000000</ele>
				<time>2025-07-12T08:16:16Z</time>
			</trkpt>
			<trkpt lat="42.768732" lon="24.983490">
				<ele>1194.000000</ele>
				<time>2025-07-12T08:16:18Z</time>
			</trkpt>
			<trkpt lat="42.768741" lon="24.983485">
				<ele>1194.000000</ele>
				<time>2025-07-12T08:16:21Z</time>
			</trkpt>
			<trkpt lat="42.768722" lon="24.983491">
				<ele>1194.000000</ele>
				<time>2025-07-12T08:16:28Z</time>
			</trkpt>
			<trkpt lat="42.768684" lon="24.983507">
				<ele>1194.000000</ele>
				<time>2025-07-12T08:16:33Z</time>
			</trkpt>
			<trkpt lat="42.768670" lon="24.983515">
				<ele>1194.000000</ele>
				<time>2025-07-12T08:16:35Z</time>
			</trkpt>
			<trkpt lat="42.768599" lon="24.983569">
				<ele>1195.000000</ele>
				<time>2025-07-12T08:16:42Z</time>
			</trkpt>
			<trkpt lat="42.768550" lon="24.983609">
				<ele>1195.000000</ele>
				<time>2025-07-12T08:16:48Z</time>
			</trkpt>
			<trkpt lat="42.768502" lon="24.983657">
				<ele>1195.000000</ele>
				<time>2025-07-12T08:16:54Z</time>
			</trkpt>
			<trkpt lat="42.768480" lon="24.983680">
				<ele>1195.000000</ele>
				<time>2025-07-12T08:16:58Z</time>
			</trkpt>
			<trkpt lat="42.768478" lon="24.983681">
				<ele>1195.000000</ele>
				<time>2025-07-12T08:17:00Z</time>
			</trkpt>
			<trkpt lat="42.768461" lon="24.983723">
				<ele>1195.000000</ele>
				<time>2025-07-12T08:17:08Z</time>
			</trkpt>
			<trkpt lat="42.768424" lon="24.983781">
				<ele>1196.000000</ele>
				<time>2025-07-12T08:17:13Z</time>
			</trkpt>
			<trkpt lat="42.768416" lon="24.983789">
				<ele>1196.000000</ele>
				<time>2025-07-12T08:17:14Z</time>
			</trkpt>
			<trkpt lat="42.768394" lon="24.983799">
				<ele>1196.000000</ele>
				<time>2025-07-12T08:17:17Z</time>
			</trkpt>
			<trkpt lat="42.768362" lon="24.983827">
				<ele>1196.000000</ele>
				<time>2025-07-12T08:17:21Z</time>
			</trkpt>
			<trkpt lat="42.768319" lon="24.983882">
				<ele>1196.000000</ele>
				<time>2025-07-12T08:17:28Z</time>
			</trkpt>
			<trkpt lat="42.768287" lon="24.983884">
				<ele>1197.000000</ele>
				<time>2025-07-12T08:17:35Z</time>
			</trkpt>
			<trkpt lat="42.768294" lon="24.983806">
				<ele>1196.000000</ele>
				<time>2025-07-12T08:17:44Z</time>
			</trkpt>
			<trkpt lat="42.768286" lon="24.983798">
				<ele>1196.000000</ele>
				<time>2025-07-12T08:17:50Z</time>
			</trkpt>
			<trkpt lat="42.768287" lon="24.983801">
				<ele>1196.000000</ele>
				<time>2025-07-12T08:17:51Z</time>
			</trkpt>
			<trkpt lat="42.768291" lon="24.983803">
				<ele>1196.000000</ele>
				<time>2025-07-12T08:17:52Z</time>
			</trkpt>
			<trkpt lat="42.768300" lon="24.983818">
				<ele>1196.000000</ele>
				<time>2025-07-12T08:17:54Z</time>
			</trkpt>
			<trkpt lat="42.768306" lon="24.983844">
				<ele>1196.000000</ele>
				<time>2025-07-12T08:18:01Z</time>
			</trkpt>
			<trkpt lat="42.768290" lon="24.983873">
				<ele>1196.000000</ele>
				<time>2025-07-12T08:18:08Z</time>
			</trkpt>
			<trkpt lat="42.768305" lon="24.983846">
				<ele>1196.000000</ele>
				<time>2025-07-12T08:18:17Z</time>
			</trkpt>
			<trkpt lat="42.768306" lon="24.983841">
				<ele>1196.000000</ele>
				<time>2025-07-12T08:18:18Z</time>
			</trkpt>
			<trkpt lat="42.768307" lon="24.983840">
				<ele>1196.000000</ele>
				<time>2025-07-12T08:18:19Z</time>
			</trkpt>
			<trkpt lat="42.768339" lon="24.983833">
				<ele>1196.000000</ele>
				<time>2025-07-12T08:18:25Z</time>
			</trkpt>
			<trkpt lat="42.768301" lon="24.983884">
				<ele>1196.000000</ele>
				<time>2025-07-12T08:18:32Z</time>
			</trkpt>
			<trkpt lat="42.768252" lon="24.983945">
				<ele>1197.000000</ele>
				<time>2025-07-12T08:18:39Z</time>
			</trkpt>
			<trkpt lat="42.768218" lon="24.983966">
				<ele>1197.000000</ele>
				<time>2025-07-12T08:18:43Z</time>
			</trkpt>
			<trkpt lat="42.768199" lon="24.983976">
				<ele>1198.000000</ele>
				<time>2025-07-12T08:18:45Z</time>
			</trkpt>
			<trkpt lat="42.768138" lon="24.983988">
				<ele>1198.000000</ele>
				<time>2025-07-12T08:18:52Z</time>
			</trkpt>
			<trkpt lat="42.768129" lon="24.983986">
				<ele>1198.000000</ele>
				<time>2025-07-12T08:18:53Z</time>
			</trkpt>
			<trkpt lat="42.768093" lon="24.983976">
				<ele>1199.000000</ele>
				<time>2025-07-12T08:18:59Z</time>
			</trkpt>
			<trkpt lat="42.768081" lon="24.983975">
				<ele>1199.000000</ele>
				<time>2025-07-12T08:19:01Z</time>
			</trkpt>
			<trkpt lat="42.768071" lon="24.983976">
				<ele>1199.000000</ele>
				<time>2025-07-12T08:19:03Z</time>
			</trkpt>
			<trkpt lat="42.768040" lon="24.983984">
				<ele>1199.000000</ele>
				<time>2025-07-12T08:19:06Z</time>
			</trkpt>
			<trkpt lat="42.768011" lon="24.983991">
				<ele>1200.000000</ele>
				<time>2025-07-12T08:19:09Z</time>
			</trkpt>
			<trkpt lat="42.767957" lon="24.983998">
				<ele>1200.000000</ele>
				<time>2025-07-12T08:19:15Z</time>
			</trkpt>
			<trkpt lat="42.767946" lon="24.984013">
				<ele>1201.000000</ele>
				<time>2025-07-12T08:19:17Z</time>
			</trkpt>
			<trkpt lat="42.767913" lon="24.984017">
				<ele>1201.000000</ele>
				<time>2025-07-12T08:19:21Z</time>
			</trkpt>
			<trkpt lat="42.767897" lon="24.984023">
				<ele>1202.000000</ele>
				<time>2025-07-12T08:19:24Z</time>
			</trkpt>
			<trkpt lat="42.767850" lon="24.984017">
				<ele>1202.000000</ele>
				<time>2025-07-12T08:19:30Z</time>
			</trkpt>
			<trkpt lat="42.767794" lon="24.984011">
				<ele>1203.000000</ele>
				<time>2025-07-12T08:19:38Z</time>
			</trkpt>
			<trkpt lat="42.767733" lon="24.984004">
				<ele>1203.000000</ele>
				<time>2025-07-12T08:19:47Z</time>
			</trkpt>
			<trkpt lat="42.767700" lon="24.984004">
				<ele>1204.000000</ele>
				<time>2025-07-12T08:19:52Z</time>
			</trkpt>
			<trkpt lat="42.767694" lon="24.984006">
				<ele>1204.000000</ele>
				<time>2025-07-12T08:19:53Z</time>
			</trkpt>
			<trkpt lat="42.767624" lon="24.984006">
				<ele>1205.000000</ele>
				<time>2025-07-12T08:20:00Z</time>
			</trkpt>
			<trkpt lat="42.767567" lon="24.984003">
				<ele>1205.000000</ele>
				<time>2025-07-12T08:20:06Z</time>
			</trkpt>
			<trkpt lat="42.767534" lon="24.984003">
				<ele>1206.000000</ele>
				<time>2025-07-12T08:20:10Z</time>
			</trkpt>
			<trkpt lat="42.767511" lon="24.984025">
				<ele>1206.000000</ele>
				<time>2025-07-12T08:20:13Z</time>
			</trkpt>
			<trkpt lat="42.767470" lon="24.984113">
				<ele>1206.000000</ele>
				<time>2025-07-12T08:20:21Z</time>
			</trkpt>
			<trkpt lat="42.767428" lon="24.984172">
				<ele>1207.000000</ele>
				<time>2025-07-12T08:20:27Z</time>
			</trkpt>
			<trkpt lat="42.767417" lon="24.984182">
				<ele>1207.000000</ele>
				<time>2025-07-12T08:20:29Z</time>
			</trkpt>
			<trkpt lat="42.767389" lon="24.984202">
				<ele>1207.000000</ele>
				<time>2025-07-12T08:20:33Z</time>
			</trkpt>
			<trkpt lat="42.767341" lon="24.984253">
				<ele>1208.000000</ele>
				<time>2025-07-12T08:20:39Z</time>
			</trkpt>
			<trkpt lat="42.767314" lon="24.984281">
				<ele>1208.000000</ele>
				<time>2025-07-12T08:20:42Z</time>
			</trkpt>
			<trkpt lat="42.767273" lon="24.984326">
				<ele>1208.000000</ele>
				<time>2025-07-12T08:20:47Z</time>
			</trkpt>
			<trkpt lat="42.767239" lon="24.984359">
				<ele>1209.000000</ele>
				<time>2025-07-12T08:20:53Z</time>
			</trkpt>
			<trkpt lat="42.767219" lon="24.984364">
				<ele>1209.000000</ele>
				<time>2025-07-12T08:20:56Z</time>
			</trkpt>
			<trkpt lat="42.767169" lon="24.984367">
				<ele>1210.000000</ele>
				<time>2025-07-12T08:21:03Z</time>
			</trkpt>
			<trkpt lat="42.767163" lon="24.984364">
				<ele>1210.000000</ele>
				<time>2025-07-12T08:21:04Z</time>
			</trkpt>
			<trkpt lat="42.767132" lon="24.984356">
				<ele>1211.000000</ele>
				<time>2025-07-12T08:21:07Z</time>
			</trkpt>
			<trkpt lat="42.767101" lon="24.984322">
				<ele>1211.000000</ele>
				<time>2025-07-12T08:21:12Z</time>
			</trkpt>
			<trkpt lat="42.767095" lon="24.984317">
				<ele>1211.000000</ele>
				<time>2025-07-12T08:21:13Z</time>
			</trkpt>
			<trkpt lat="42.767062" lon="24.984269">
				<ele>1212.000000</ele>
				<time>2025-07-12T08:21:19Z</time>
			</trkpt>
			<trkpt lat="42.767049" lon="24.984261">
				<ele>1212.000000</ele>
				<time>2025-07-12T08:21:21Z</time>
			</trkpt>
			<trkpt lat="42.766996" lon="24.984253">
				<ele>1213.000000</ele>
				<time>2025-07-12T08:21:27Z</time>
			</trkpt>
			<trkpt lat="42.766958" lon="24.984251">
				<ele>1213.000000</ele>
				<time>2025-07-12T08:21:31Z</time>
			</trkpt>
			<trkpt lat="42.766931" lon="24.984238">
				<ele>1213.000000</ele>
				<time>2025-07-12T08:21:35Z</time>
			</trkpt>
			<trkpt lat="42.766925" lon="24.984237">
				<ele>1213.000000</ele>
				<time>2025-07-12T08:21:36Z</time>
			</trkpt>
			<trkpt lat="42.766879" lon="24.984204">
				<ele>1214.000000</ele>
				<time>2025-07-12T08:21:42Z</time>
			</trkpt>
			<trkpt lat="42.766856" lon="24.984190">
				<ele>1214.000000</ele>
				<time>2025-07-12T08:21:49Z</time>
			</trkpt>
			<trkpt lat="42.766820" lon="24.984169">
				<ele>1214.000000</ele>
				<time>2025-07-12T08:21:56Z</time>
			</trkpt>
			<trkpt lat="42.766804" lon="24.984160">
				<ele>1214.000000</ele>
				<time>2025-07-12T08:21:58Z</time>
			</trkpt>
			<trkpt lat="42.766774" lon="24.984127">
				<ele>1215.000000</ele>
				<time>2025-07-12T08:22:04Z</time>
			</trkpt>
			<trkpt lat="42.766747" lon="24.984106">
				<ele>1215.000000</ele>
				<time>2025-07-12T08:22:07Z</time>
			</trkpt>
			<trkpt lat="42.766732" lon="24.984096">
				<ele>1215.000000</ele>
				<time>2025-07-12T08:22:09Z</time>
			</trkpt>
			<trkpt lat="42.766723" lon="24.984093">
				<ele>1216.000000</ele>
				<time>2025-07-12T08:22:10Z</time>
			</trkpt>
			<trkpt lat="42.766697" lon="24.984090">
				<ele>1216.000000</ele>
				<time>2025-07-12T08:22:13Z</time>
			</trkpt>
			<trkpt lat="42.766652" lon="24.984085">
				<ele>1216.000000</ele>
				<time>2025-07-12T08:22:19Z</time>
			</trkpt>
			<trkpt lat="42.766617" lon="24.984080">
				<ele>1217.000000</ele>
				<time>2025-07-12T08:22:23Z</time>
			</trkpt>
			<trkpt lat="42.766598" lon="24.984082">
				<ele>1217.000000</ele>
				<time>2025-07-12T08:22:26Z</time>
			</trkpt>
			<trkpt lat="42.766555" lon="24.984074">
				<ele>1218.000000</ele>
				<time>2025-07-12T08:22:33Z</time>
			</trkpt>
			<trkpt lat="42.766547" lon="24.984064">
				<ele>1218.000000</ele>
				<time>2025-07-12T08:22:35Z</time>
			</trkpt>
			<trkpt lat="42.766501" lon="24.984058">
				<ele>1219.000000</ele>
				<time>2025-07-12T08:22:41Z</time>
			</trkpt>
			<trkpt lat="42.766494" lon="24.984055">
				<ele>1219.000000</ele>
				<time>2025-07-12T08:22:42Z</time>
			</trkpt>
			<trkpt lat="42.766467" lon="24.984062">
				<ele>1219.000000</ele>
				<time>2025-07-12T08:22:49Z</time>
			</trkpt>
			<trkpt lat="42.766418" lon="24.984057">
				<ele>1219.000000</ele>
				<time>2025-07-12T08:22:56Z</time>
			</trkpt>
			<trkpt lat="42.766375" lon="24.984043">
				<ele>1219.000000</ele>
				<time>2025-07-12T08:23:02Z</time>
			</trkpt>
			<trkpt lat="42.766370" lon="24.984039">
				<ele>1219.000000</ele>
				<time>2025-07-12T08:23:03Z</time>
			</trkpt>
			<trkpt lat="42.766350" lon="24.984021">
				<ele>1220.000000</ele>
				<time>2025-07-12T08:23:06Z</time>
			</trkpt>
			<trkpt lat="42.766323" lon="24.984025">
				<ele>1220.000000</ele>
				<time>2025-07-12T08:23:09Z</time>
			</trkpt>
			<trkpt lat="42.766272" lon="24.984000">
				<ele>1221.000000</ele>
				<time>2025-07-12T08:23:16Z</time>
			</trkpt>
			<trkpt lat="42.766231" lon="24.983984">
				<ele>1221.000000</ele>
				<time>2025-07-12T08:23:22Z</time>
			</trkpt>
			<trkpt lat="42.766215" lon="24.983987">
				<ele>1221.000000</ele>
				<time>2025-07-12T08:23:24Z</time>
			</trkpt>
			<trkpt lat="42.766192" lon="24.983992">
				<ele>1221.000000</ele>
				<time>2025-07-12T08:23:27Z</time>
			</trkpt>
			<trkpt lat="42.766144" lon="24.984039">
				<ele>1222.000000</ele>
				<time>2025-07-12T08:23:34Z</time>
			</trkpt>
			<trkpt lat="42.766136" lon="24.984076">
				<ele>1222.000000</ele>
				<time>2025-07-12T08:23:40Z</time>
			</trkpt>
			<trkpt lat="42.766121" lon="24.984090">
				<ele>1221.000000</ele>
				<time>2025-07-12T08:23:44Z</time>
			</trkpt>
			<trkpt lat="42.766106" lon="24.984093">
				<ele>1221.000000</ele>
				<time>2025-07-12T08:23:47Z</time>
			</trkpt>
			<trkpt lat="42.766097" lon="24.984094">
				<ele>1221.000000</ele>
				<time>2025-07-12T08:23:50Z</time>
			</trkpt>
			<trkpt lat="42.766104" lon="24.984072">
				<ele>1221.000000</ele>
				<time>2025-07-12T08:23:55Z</time>
			</trkpt>
			<trkpt lat="42.766097" lon="24.984064">
				<ele>1221.000000</ele>
				<time>2025-07-12T08:24:01Z</time>
			</trkpt>
			<trkpt lat="42.766100" lon="24.984076">
				<ele>1221.000000</ele>
				<time>2025-07-12T08:24:05Z</time>
			</trkpt>
			<trkpt lat="42.766094" lon="24.984072">
				<ele>1221.000000</ele>
				<time>2025-07-12T08:24:09Z</time>
			</trkpt>
			<trkpt lat="42.766050" lon="24.984058">
				<ele>1221.000000</ele>
				<time>2025-07-12T08:24:17Z</time>
			</trkpt>
			<trkpt lat="42.766084" lon="24.984092">
				<ele>1221.000000</ele>
				<time>2025-07-12T08:24:27Z</time>
			</trkpt>
			<trkpt lat="42.766086" lon="24.984093">
				<ele>1221.000000</ele>
				<time>2025-07-12T08:24:29Z</time>
			</trkpt>
			<trkpt lat="42.766081" lon="24.984086">
				<ele>1221.000000</ele>
				<time>2025-07-12T08:24:33Z</time>
			</trkpt>
			<trkpt lat="42.766100" lon="24.984081">
				<ele>1221.000000</ele>
				<time>2025-07-12T08:24:40Z</time>
			</trkpt>
			<trkpt lat="42.766102" lon="24.984080">
				<ele>1221.000000</ele>
				<time>2025-07-12T08:24:41Z</time>
			</trkpt>
			<trkpt lat="42.766104" lon="24.984078">
				<ele>1221.000000</ele>
				<time>2025-07-12T08:24:43Z</time>
			</trkpt>
			<trkpt lat="42.766110" lon="24.984073">
				<ele>1220.000000</ele>
				<time>2025-07-12T08:24:49Z</time>
			</trkpt>
			<trkpt lat="42.766111" lon="24.984065">
				<ele>1220.000000</ele>
				<time>2025-07-12T08:24:54Z</time>
			</trkpt>
			<trkpt lat="42.766111" lon="24.984065">
				<ele>1220.000000</ele>
				<time>2025-07-12T08:24:56Z</time>
			</trkpt>
			<trkpt lat="42.766111" lon="24.984065">
				<ele>1220.000000</ele>
				<time>2025-07-12T08:25:06Z</time>
			</trkpt>
			<trkpt lat="42.766111" lon="24.984065">
				<ele>1220.000000</ele>
				<time>2025-07-12T08:25:18Z</time>
			</trkpt>
			<trkpt lat="42.766111" lon="24.984065">
				<ele>1220.000000</ele>
				<time>2025-07-12T08:25:29Z</time>
			</trkpt>
			<trkpt lat="42.766111" lon="24.984065">
				<ele>1220.000000</ele>
				<time>2025-07-12T08:25:38Z</time>
			</trkpt>
			<trkpt lat="42.766111" lon="24.984065">
				<ele>1220.000000</ele>
				<time>2025-07-12T08:25:40Z</time>
			</trkpt>
			<trkpt lat="42.766111" lon="24.984065">
				<ele>1220.000000</ele>
				<time>2025-07-12T08:25:42Z</time>
			</trkpt>
			<trkpt lat="42.766111" lon="24.984065">
				<ele>1220.000000</ele>
				<time>2025-07-12T08:25:49Z</time>
			</trkpt>
			<trkpt lat="42.766111" lon="24.984065">
				<ele>1220.000000</ele>
				<time>2025-07-12T08:25:53Z</time>
			</trkpt>
			<trkpt lat="42.766114" lon="24.984074">
				<ele>1220.000000</ele>
				<time>2025-07-12T08:26:46Z</time>
			</trkpt>
			<trkpt lat="42.766113" lon="24.984074">
				<ele>1220.000000</ele>
				<time>2025-07-12T08:26:47Z</time>
			</trkpt>
			<trkpt lat="42.766107" lon="24.984118">
				<ele>1220.000000</ele>
				<time>2025-07-12T08:26:50Z</time>
			</trkpt>
			<trkpt lat="42.766084" lon="24.984172">
				<ele>1220.000000</ele>
				<time>2025-07-12T08:26:55Z</time>
			</trkpt>
			<trkpt lat="42.766079" lon="24.984180">
				<ele>1220.000000</ele>
				<time>2025-07-12T08:26:56Z</time>
			</trkpt>
			<trkpt lat="42.766059" lon="24.984232">
				<ele>1221.000000</ele>
				<time>2025-07-12T08:27:02Z</time>
			</trkpt>
			<trkpt lat="42.766061" lon="24.984296">
				<ele>1222.000000</ele>
				<time>2025-07-12T08:27:10Z</time>
			</trkpt>
			<trkpt lat="42.766059" lon="24.984316">
				<ele>1222.000000</ele>
				<time>2025-07-12T08:27:12Z</time>
			</trkpt>
			<trkpt lat="42.766057" lon="24.984371">
				<ele>1222.000000</ele>
				<time>2025-07-12T08:27:16Z</time>
			</trkpt>
			<trkpt lat="42.766051" lon="24.984397">
				<ele>1223.000000</ele>
				<time>2025-07-12T08:27:18Z</time>
			</trkpt>
			<trkpt lat="42.766052" lon="24.984403">
				<ele>1223.000000</ele>
				<time>2025-07-12T08:27:19Z</time>
			</trkpt>
			<trkpt lat="42.766057" lon="24.984455">
				<ele>1224.000000</ele>
				<time>2025-07-12T08:27:24Z</time>
			</trkpt>
			<trkpt lat="42.766062" lon="24.984482">
				<ele>1224.000000</ele>
				<time>2025-07-12T08:27:27Z</time>
			</trkpt>
			<trkpt lat="42.766064" lon="24.984528">
				<ele>1224.000000</ele>
				<time>2025-07-12T08:27:31Z</time>
			</trkpt>
			<trkpt lat="42.766049" lon="24.984591">
				<ele>1224.000000</ele>
				<time>2025-07-12T08:27:36Z</time>
			</trkpt>
			<trkpt lat="42.766028" lon="24.984633">
				<ele>1224.000000</ele>
				<time>2025-07-12T08:27:39Z</time>
			</trkpt>
			<trkpt lat="42.766007" lon="24.984718">
				<ele>1224.000000</ele>
				<time>2025-07-12T08:27:47Z</time>
			</trkpt>
			<trkpt lat="42.766005" lon="24.984805">
				<ele>1225.000000</ele>
				<time>2025-07-12T08:27:54Z</time>
			</trkpt>
			<trkpt lat="42.766035" lon="24.984886">
				<ele>1225.000000</ele>
				<time>2025-07-12T08:28:04Z</time>
			</trkpt>
			<trkpt lat="42.766047" lon="24.984891">
				<ele>1225.000000</ele>
				<time>2025-07-12T08:28:05Z</time>
			</trkpt>
			<trkpt lat="42.766086" lon="24.984906">
				<ele>1225.000000</ele>
				<time>2025-07-12T08:28:09Z</time>
			</trkpt>
			<trkpt lat="42.766117" lon="24.984914">
				<ele>1226.000000</ele>
				<time>2025-07-12T08:28:12Z</time>
			</trkpt>
			<trkpt lat="42.766128" lon="24.984920">
				<ele>1226.000000</ele>
				<time>2025-07-12T08:28:14Z</time>
			</trkpt>
			<trkpt lat="42.766172" lon="24.984920">
				<ele>1227.000000</ele>
				<time>2025-07-12T08:28:21Z</time>
			</trkpt>
			<trkpt lat="42.766194" lon="24.984926">
				<ele>1227.000000</ele>
				<time>2025-07-12T08:28:23Z</time>
			</trkpt>
			<trkpt lat="42.766221" lon="24.984942">
				<ele>1228.000000</ele>
				<time>2025-07-12T08:28:27Z</time>
			</trkpt>
			<trkpt lat="42.766285" lon="24.984975">
				<ele>1228.000000</ele>
				<time>2025-07-12T08:28:34Z</time>
			</trkpt>
			<trkpt lat="42.766291" lon="24.984978">
				<ele>1228.000000</ele>
				<time>2025-07-12T08:28:35Z</time>
			</trkpt>
			<trkpt lat="42.766364" lon="24.985044">
				<ele>1228.000000</ele>
				<time>2025-07-12T08:28:43Z</time>
			</trkpt>
			<trkpt lat="42.766416" lon="24.985110">
				<ele>1229.000000</ele>
				<time>2025-07-12T08:28:50Z</time>
			</trkpt>
			<trkpt lat="42.766421" lon="24.985120">
				<ele>1229.000000</ele>
				<time>2025-07-12T08:28:51Z</time>
			</trkpt>
			<trkpt lat="42.766478" lon="24.985187">
				<ele>1230.000000</ele>
				<time>2025-07-12T08:28:59Z</time>
			</trkpt>
			<trkpt lat="42.766512" lon="24.985241">
				<ele>1231.000000</ele>
				<time>2025-07-12T08:29:05Z</time>
			</trkpt>
			<trkpt lat="42.766518" lon="24.985250">
				<ele>1231.000000</ele>
				<time>2025-07-12T08:29:06Z</time>
			</trkpt>
			<trkpt lat="42.766536" lon="24.985275">
				<ele>1231.000000</ele>
				<time>2025-07-12T08:29:09Z</time>
			</trkpt>
			<trkpt lat="42.766567" lon="24.985324">
				<ele>1232.000000</ele>
				<time>2025-07-12T08:29:14Z</time>
			</trkpt>
			<trkpt lat="42.766601" lon="24.985375">
				<ele>1233.000000</ele>
				<time>2025-07-12T08:29:21Z</time>
			</trkpt>
			<trkpt lat="42.766607" lon="24.985384">
				<ele>1233.000000</ele>
				<time>2025-07-12T08:29:22Z</time>
			</trkpt>
			<trkpt lat="42.766656" lon="24.985473">
				<ele>1233.000000</ele>
				<time>2025-07-12T08:29:30Z</time>
			</trkpt>
			<trkpt lat="42.766663" lon="24.985484">
				<ele>1234.000000</ele>
				<time>2025-07-12T08:29:31Z</time>
			</trkpt>
			<trkpt lat="42.766689" lon="24.985531">
				<ele>1234.000000</ele>
				<time>2025-07-12T08:29:37Z</time>
			</trkpt>
			<trkpt lat="42.766705" lon="24.985618">
				<ele>1235.000000</ele>
				<time>2025-07-12T08:29:45Z</time>
			</trkpt>
			<trkpt lat="42.766704" lon="24.985654">
				<ele>1235.000000</ele>
				<time>2025-07-12T08:29:48Z</time>
			</trkpt>
			<trkpt lat="42.766686" lon="24.985692">
				<ele>1235.000000</ele>
				<time>2025-07-12T08:29:58Z</time>
			</trkpt>
			<trkpt lat="42.766661" lon="24.985698">
				<ele>1235.000000</ele>
				<time>2025-07-12T08:30:09Z</time>
			</trkpt>
			<trkpt lat="42.766655" lon="24.985692">
				<ele>1236.000000</ele>
				<time>2025-07-12T08:30:18Z</time>
			</trkpt>
			<trkpt lat="42.766651" lon="24.985689">
				<ele>1236.000000</ele>
				<time>2025-07-12T08:30:20Z</time>
			</trkpt>
			<trkpt lat="42.766631" lon="24.985673">
				<ele>1235.000000</ele>
				<time>2025-07-12T08:30:26Z</time>
			</trkpt>
			<trkpt lat="42.766636" lon="24.985671">
				<ele>1235.000000</ele>
				<time>2025-07-12T08:30:28Z</time>
			</trkpt>
			<trkpt lat="42.766642" lon="24.985670">
				<ele>1235.000000</ele>
				<time>2025-07-12T08:30:30Z</time>
			</trkpt>
			<trkpt lat="42.766649" lon="24.985676">
				<ele>1235.000000</ele>
				<time>2025-07-12T08:30:39Z</time>
			</trkpt>
			<trkpt lat="42.766659" lon="24.985684">
				<ele>1235.000000</ele>
				<time>2025-07-12T08:30:42Z</time>
			</trkpt>
			<trkpt lat="42.766700" lon="24.985688">
				<ele>1235.000000</ele>
				<time>2025-07-12T08:30:52Z</time>
			</trkpt>
			<trkpt lat="42.766684" lon="24.985696">
				<ele>1235.000000</ele>
				<time>2025-07-12T08:31:02Z</time>
			</trkpt>
			<trkpt lat="42.766666" lon="24.985718">
				<ele>1235.000000</ele>
				<time>2025-07-12T08:31:08Z</time>
			</trkpt>
			<trkpt lat="42.766663" lon="24.985744">
				<ele>1235.000000</ele>
				<time>2025-07-12T08:31:16Z</time>
			</trkpt>
			<trkpt lat="42.766678" lon="24.985823">
				<ele>1236.000000</ele>
				<time>2025-07-12T08:31:24Z</time>
			</trkpt>
			<trkpt lat="42.766665" lon="24.985863">
				<ele>1237.000000</ele>
				<time>2025-07-12T08:31:30Z</time>
			</trkpt>
			<trkpt lat="42.766664" lon="24.985887">
				<ele>1237.000000</ele>
				<time>2025-07-12T08:31:32Z</time>
			</trkpt>
			<trkpt lat="42.766640" lon="24.985942">
				<ele>1237.000000</ele>
				<time>2025-07-12T08:31:38Z</time>
			</trkpt>
			<trkpt lat="42.766649" lon="24.985934">
				<ele>1238.000000</ele>
				<time>2025-07-12T08:31:44Z</time>
			</trkpt>
			<trkpt lat="42.766654" lon="24.985949">
				<ele>1237.000000</ele>
				<time>2025-07-12T08:31:55Z</time>
			</trkpt>
			<trkpt lat="42.766652" lon="24.985957">
				<ele>1237.000000</ele>
				<time>2025-07-12T08:31:56Z</time>
			</trkpt>
			<trkpt lat="42.766649" lon="24.985965">
				<ele>1238.000000</ele>
				<time>2025-07-12T08:31:58Z</time>
			</trkpt>
			<trkpt lat="42.766660" lon="24.985930">
				<ele>1238.000000</ele>
				<time>2025-07-12T08:32:03Z</time>
			</trkpt>
			<trkpt lat="42.766662" lon="24.985926">
				<ele>1238.000000</ele>
				<time>2025-07-12T08:32:05Z</time>
			</trkpt>
			<trkpt lat="42.766660" lon="24.985945">
				<ele>1238.000000</ele>
				<time>2025-07-12T08:32:13Z</time>
			</trkpt>
			<trkpt lat="42.766652" lon="24.985953">
				<ele>1238.000000</ele>
				<time>2025-07-12T08:32:15Z</time>
			</trkpt>
			<trkpt lat="42.766645" lon="24.985976">
				<ele>1238.000000</ele>
				<time>2025-07-12T08:32:23Z</time>
			</trkpt>
			<trkpt lat="42.766652" lon="24.985968">
				<ele>1238.000000</ele>
				<time>2025-07-12T08:32:25Z</time>
			</trkpt>
			<trkpt lat="42.766659" lon="24.985956">
				<ele>1237.000000</ele>
				<time>2025-07-12T08:32:31Z</time>
			</trkpt>
			<trkpt lat="42.766644" lon="24.985995">
				<ele>1238.000000</ele>
				<time>2025-07-12T08:32:35Z</time>
			</trkpt>
			<trkpt lat="42.766600" lon="24.986090">
				<ele>1238.000000</ele>
				<time>2025-07-12T08:32:42Z</time>
			</trkpt>
			<trkpt lat="42.766592" lon="24.986103">
				<ele>1238.000000</ele>
				<time>2025-07-12T08:32:43Z</time>
			</trkpt>
			<trkpt lat="42.766564" lon="24.986144">
				<ele>1239.000000</ele>
				<time>2025-07-12T08:32:49Z</time>
			</trkpt>
			<trkpt lat="42.766561" lon="24.986170">
				<ele>1239.000000</ele>
				<time>2025-07-12T08:32:52Z</time>
			</trkpt>
			<trkpt lat="42.766531" lon="24.986248">
				<ele>1240.000000</ele>
				<time>2025-07-12T08:33:00Z</time>
			</trkpt>
			<trkpt lat="42.766524" lon="24.986260">
				<ele>1240.000000</ele>
				<time>2025-07-12T08:33:01Z</time>
			</trkpt>
			<trkpt lat="42.766489" lon="24.986288">
				<ele>1241.000000</ele>
				<time>2025-07-12T08:33:05Z</time>
			</trkpt>
			<trkpt lat="42.766467" lon="24.986300">
				<ele>1241.000000</ele>
				<time>2025-07-12T08:33:07Z</time>
			</trkpt>
			<trkpt lat="42.766460" lon="24.986307">
				<ele>1241.000000</ele>
				<time>2025-07-12T08:33:08Z</time>
			</trkpt>
			<trkpt lat="42.766452" lon="24.986314">
				<ele>1241.000000</ele>
				<time>2025-07-12T08:33:09Z</time>
			</trkpt>
			<trkpt lat="42.766449" lon="24.986317">
				<ele>1241.000000</ele>
				<time>2025-07-12T08:33:10Z</time>
			</trkpt>
			<trkpt lat="42.766437" lon="24.986351">
				<ele>1241.000000</ele>
				<time>2025-07-12T08:33:17Z</time>
			</trkpt>
			<trkpt lat="42.766447" lon="24.986361">
				<ele>1242.000000</ele>
				<time>2025-07-12T08:33:25Z</time>
			</trkpt>
			<trkpt lat="42.766469" lon="24.986361">
				<ele>1241.000000</ele>
				<time>2025-07-12T08:33:31Z</time>
			</trkpt>
			<trkpt lat="42.766464" lon="24.986355">
				<ele>1242.000000</ele>
				<time>2025-07-12T08:33:40Z</time>
			</trkpt>
			<trkpt lat="42.766457" lon="24.986357">
				<ele>1242.000000</ele>
				<time>2025-07-12T08:33:43Z</time>
			</trkpt>
			<trkpt lat="42.766461" lon="24.986349">
				<ele>1242.000000</ele>
				<time>2025-07-12T08:33:53Z</time>
			</trkpt>
			<trkpt lat="42.766446" lon="24.986333">
				<ele>1241.000000</ele>
				<time>2025-07-12T08:34:02Z</time>
			</trkpt>
			<trkpt lat="42.766447" lon="24.986331">
				<ele>1241.000000</ele>
				<time>2025-07-12T08:34:04Z</time>
			</trkpt>
			<trkpt lat="42.766447" lon="24.986334">
				<ele>1241.000000</ele>
				<time>2025-07-12T08:34:08Z</time>
			</trkpt>
			<trkpt lat="42.766450" lon="24.986335">
				<ele>1241.000000</ele>
				<time>2025-07-12T08:34:09Z</time>
			</trkpt>
			<trkpt lat="42.766456" lon="24.986343">
				<ele>1241.000000</ele>
				<time>2025-07-12T08:34:12Z</time>
			</trkpt>
			<trkpt lat="42.766462" lon="24.986351">
				<ele>1241.000000</ele>
				<time>2025-07-12T08:34:14Z</time>
			</trkpt>
			<trkpt lat="42.766440" lon="24.986351">
				<ele>1241.000000</ele>
				<time>2025-07-12T08:34:21Z</time>
			</trkpt>
			<trkpt lat="42.766446" lon="24.986351">
				<ele>1241.000000</ele>
				<time>2025-07-12T08:34:23Z</time>
			</trkpt>
			<trkpt lat="42.766465" lon="24.986347">
				<ele>1241.000000</ele>
				<time>2025-07-12T08:34:28Z</time>
			</trkpt>
			<trkpt lat="42.766467" lon="24.986347">
				<ele>1241.000000</ele>
				<time>2025-07-12T08:34:31Z</time>
			</trkpt>
			<trkpt lat="42.766476" lon="24.986362">
				<ele>1241.000000</ele>
				<time>2025-07-12T08:34:38Z</time>
			</trkpt>
			<trkpt lat="42.766447" lon="24.986416">
				<ele>1242.000000</ele>
				<time>2025-07-12T08:34:45Z</time>
			</trkpt>
			<trkpt lat="42.766402" lon="24.986498">
				<ele>1242.000000</ele>
				<time>2025-07-12T08:34:52Z</time>
			</trkpt>
			<trkpt lat="42.766396" lon="24.986520">
				<ele>1242.000000</ele>
				<time>2025-07-12T08:34:54Z</time>
			</trkpt>
			<trkpt lat="42.766381" lon="24.986578">
				<ele>1243.000000</ele>
				<time>2025-07-12T08:34:58Z</time>
			</trkpt>
			<trkpt lat="42.766378" lon="24.986618">
				<ele>1243.000000</ele>
				<time>2025-07-12T08:35:02Z</time>
			</trkpt>
			<trkpt lat="42.766372" lon="24.986687">
				<ele>1244.000000</ele>
				<time>2025-07-12T08:35:10Z</time>
			</trkpt>
			<trkpt lat="42.766368" lon="24.986718">
				<ele>1244.000000</ele>
				<time>2025-07-12T08:35:13Z</time>
			</trkpt>
			<trkpt lat="42.766358" lon="24.986790">
				<ele>1244.000000</ele>
				<time>2025-07-12T08:35:18Z</time>
			</trkpt>
			<trkpt lat="42.766359" lon="24.986818">
				<ele>1244.000000</ele>
				<time>2025-07-12T08:35:20Z</time>
			</trkpt>
			<trkpt lat="42.766378" lon="24.986928">
				<ele>1245.000000</ele>
				<time>2025-07-12T08:35:28Z</time>
			</trkpt>
			<trkpt lat="42.766379" lon="24.986937">
				<ele>1245.000000</ele>
				<time>2025-07-12T08:35:29Z</time>
			</trkpt>
			<trkpt lat="42.766381" lon="24.986974">
				<ele>1246.000000</ele>
				<time>2025-07-12T08:35:32Z</time>
			</trkpt>
			<trkpt lat="42.766381" lon="24.987039">
				<ele>1246.000000</ele>
				<time>2025-07-12T08:35:38Z</time>
			</trkpt>
			<trkpt lat="42.766394" lon="24.987137">
				<ele>1247.000000</ele>
				<time>2025-07-12T08:35:46Z</time>
			</trkpt>
			<trkpt lat="42.766396" lon="24.987144">
				<ele>1247.000000</ele>
				<time>2025-07-12T08:35:47Z</time>
			</trkpt>
			<trkpt lat="42.766420" lon="24.987242">
				<ele>1248.000000</ele>
				<time>2025-07-12T08:35:56Z</time>
			</trkpt>
			<trkpt lat="42.766423" lon="24.987254">
				<ele>1248.000000</ele>
				<time>2025-07-12T08:35:57Z</time>
			</trkpt>
			<trkpt lat="42.766431" lon="24.987338">
				<ele>1249.000000</ele>
				<time>2025-07-12T08:36:04Z</time>
			</trkpt>
			<trkpt lat="42.766437" lon="24.987420">
				<ele>1249.000000</ele>
				<time>2025-07-12T08:36:11Z</time>
			</trkpt>
			<trkpt lat="42.766439" lon="24.987438">
				<ele>1250.000000</ele>
				<time>2025-07-12T08:36:12Z</time>
			</trkpt>
			<trkpt lat="42.766443" lon="24.987521">
				<ele>1250.000000</ele>
				<time>2025-07-12T08:36:18Z</time>
			</trkpt>
			<trkpt lat="42.766446" lon="24.987540">
				<ele>1251.000000</ele>
				<time>2025-07-12T08:36:20Z</time>
			</trkpt>
			<trkpt lat="42.766442" lon="24.987621">
				<ele>1252.000000</ele>
				<time>2025-07-12T08:36:27Z</time>
			</trkpt>
			<trkpt lat="42.766410" lon="24.987689">
				<ele>1253.000000</ele>
				<time>2025-07-12T08:36:33Z</time>
			</trkpt>
			<trkpt lat="42.766381" lon="24.987713">
				<ele>1253.000000</ele>
				<time>2025-07-12T08:36:36Z</time>
			</trkpt>
			<trkpt lat="42.766353" lon="24.987727">
				<ele>1254.000000</ele>
				<time>2025-07-12T08:36:39Z</time>
			</trkpt>
			<trkpt lat="42.766330" lon="24.987723">
				<ele>1254.000000</ele>
				<time>2025-07-12T08:36:42Z</time>
			</trkpt>
			<trkpt lat="42.766312" lon="24.987709">
				<ele>1255.000000</ele>
				<time>2025-07-12T08:36:45Z</time>
			</trkpt>
			<trkpt lat="42.766287" lon="24.987697">
				<ele>1255.000000</ele>
				<time>2025-07-12T08:36:49Z</time>
			</trkpt>
			<trkpt lat="42.766269" lon="24.987664">
				<ele>1256.000000</ele>
				<time>2025-07-12T08:36:53Z</time>
			</trkpt>
			<trkpt lat="42.766272" lon="24.987651">
				<ele>1256.000000</ele>
				<time>2025-07-12T08:36:54Z</time>
			</trkpt>
			<trkpt lat="42.766262" lon="24.987613">
				<ele>1256.000000</ele>
				<time>2025-07-12T08:36:58Z</time>
			</trkpt>
			<trkpt lat="42.766262" lon="24.987604">
				<ele>1256.000000</ele>
				<time>2025-07-12T08:36:59Z</time>
			</trkpt>
			<trkpt lat="42.766244" lon="24.987550">
				<ele>1257.000000</ele>
				<time>2025-07-12T08:37:05Z</time>
			</trkpt>
			<trkpt lat="42.766225" lon="24.987516">
				<ele>1257.000000</ele>
				<time>2025-07-12T08:37:10Z</time>
			</trkpt>
			<trkpt lat="42.766221" lon="24.987511">
				<ele>1257.000000</ele>
				<time>2025-07-12T08:37:11Z</time>
			</trkpt>
			<trkpt lat="42.766203" lon="24.987439">
				<ele>1258.000000</ele>
				<time>2025-07-12T08:37:19Z</time>
			</trkpt>
			<trkpt lat="42.766204" lon="24.987416">
				<ele>1258.000000</ele>
				<time>2025-07-12T08:37:21Z</time>
			</trkpt>
			<trkpt lat="42.766193" lon="24.987396">
				<ele>1259.000000</ele>
				<time>2025-07-12T08:37:26Z</time>
			</trkpt>
			<trkpt lat="42.766189" lon="24.987392">
				<ele>1259.000000</ele>
				<time>2025-07-12T08:37:27Z</time>
			</trkpt>
			<trkpt lat="42.766169" lon="24.987363">
				<ele>1259.000000</ele>
				<time>2025-07-12T08:37:33Z</time>
			</trkpt>
			<trkpt lat="42.766158" lon="24.987314">
				<ele>1259.000000</ele>
				<time>2025-07-12T08:37:39Z</time>
			</trkpt>
			<trkpt lat="42.766169" lon="24.987314">
				<ele>1259.000000</ele>
				<time>2025-07-12T08:37:45Z</time>
			</trkpt>
			<trkpt lat="42.766170" lon="24.987321">
				<ele>1259.000000</ele>
				<time>2025-07-12T08:37:47Z</time>
			</trkpt>
			<trkpt lat="42.766169" lon="24.987333">
				<ele>1259.000000</ele>
				<time>2025-07-12T08:37:51Z</time>
			</trkpt>
			<trkpt lat="42.766168" lon="24.987337">
				<ele>1259.000000</ele>
				<time>2025-07-12T08:37:53Z</time>
			</trkpt>
			<trkpt lat="42.766152" lon="24.987286">
				<ele>1259.000000</ele>
				<time>2025-07-12T08:37:57Z</time>
			</trkpt>
			<trkpt lat="42.766128" lon="24.987198">
				<ele>1259.000000</ele>
				<time>2025-07-12T08:38:07Z</time>
			</trkpt>
			<trkpt lat="42.766106" lon="24.987112">
				<ele>1260.000000</ele>
				<time>2025-07-12T08:38:13Z</time>
			</trkpt>
			<trkpt lat="42.766102" lon="24.987085">
				<ele>1260.000000</ele>
				<time>2025-07-12T08:38:16Z</time>
			</trkpt>
			<trkpt lat="42.766093" lon="24.986991">
				<ele>1260.000000</ele>
				<time>2025-07-12T08:38:24Z</time>
			</trkpt>
			<trkpt lat="42.766058" lon="24.986929">
				<ele>1260.000000</ele>
				<time>2025-07-12T08:38:32Z</time>
			</trkpt>
			<trkpt lat="42.766047" lon="24.986853">
				<ele>1260.000000</ele>
				<time>2025-07-12T08:38:39Z</time>
			</trkpt>
			<trkpt lat="42.766018" lon="24.986774">
				<ele>1260.000000</ele>
				<time>2025-07-12T08:38:46Z</time>
			</trkpt>
			<trkpt lat="42.766013" lon="24.986764">
				<ele>1260.000000</ele>
				<time>2025-07-12T08:38:47Z</time>
			</trkpt>
			<trkpt lat="42.765994" lon="24.986718">
				<ele>1260.000000</ele>
				<time>2025-07-12T08:38:51Z</time>
			</trkpt>
			<trkpt lat="42.765985" lon="24.986667">
				<ele>1260.000000</ele>
				<time>2025-07-12T08:38:55Z</time>
			</trkpt>
			<trkpt lat="42.765978" lon="24.986625">
				<ele>1260.000000</ele>
				<time>2025-07-12T08:38:58Z</time>
			</trkpt>
			<trkpt lat="42.765956" lon="24.986547">
				<ele>1261.000000</ele>
				<time>2025-07-12T08:39:04Z</time>
			</trkpt>
			<trkpt lat="42.765963" lon="24.986457">
				<ele>1261.000000</ele>
				<time>2025-07-12T08:39:12Z</time>
			</trkpt>
			<trkpt lat="42.765963" lon="24.986354">
				<ele>1261.000000</ele>
				<time>2025-07-12T08:39:20Z</time>
			</trkpt>
			<trkpt lat="42.765956" lon="24.986272">
				<ele>1261.000000</ele>
				<time>2025-07-12T08:39:27Z</time>
			</trkpt>
			<trkpt lat="42.765954" lon="24.986215">
				<ele>1261.000000</ele>
				<time>2025-07-12T08:39:32Z</time>
			</trkpt>
			<trkpt lat="42.765950" lon="24.986190">
				<ele>1262.000000</ele>
				<time>2025-07-12T08:39:35Z</time>
			</trkpt>
			<trkpt lat="42.765931" lon="24.986068">
				<ele>1262.000000</ele>
				<time>2025-07-12T08:39:45Z</time>
			</trkpt>
			<trkpt lat="42.765926" lon="24.985968">
				<ele>1262.000000</ele>
				<time>2025-07-12T08:39:53Z</time>
			</trkpt>
			<trkpt lat="42.765925" lon="24.985916">
				<ele>1262.000000</ele>
				<time>2025-07-12T08:39:56Z</time>
			</trkpt>
			<trkpt lat="42.765912" lon="24.985873">
				<ele>1262.000000</ele>
				<time>2025-07-12T08:40:00Z</time>
			</trkpt>
			<trkpt lat="42.765893" lon="24.985828">
				<ele>1262.000000</ele>
				<time>2025-07-12T08:40:04Z</time>
			</trkpt>
			<trkpt lat="42.765865" lon="24.985784">
				<ele>1263.000000</ele>
				<time>2025-07-12T08:40:10Z</time>
			</trkpt>
			<trkpt lat="42.765861" lon="24.985761">
				<ele>1263.000000</ele>
				<time>2025-07-12T08:40:13Z</time>
			</trkpt>
			<trkpt lat="42.765862" lon="24.985732">
				<ele>1263.000000</ele>
				<time>2025-07-12T08:40:15Z</time>
			</trkpt>
			<trkpt lat="42.765861" lon="24.985706">
				<ele>1263.000000</ele>
				<time>2025-07-12T08:40:17Z</time>
			</trkpt>
			<trkpt lat="42.765851" lon="24.985686">
				<ele>1263.000000</ele>
				<time>2025-07-12T08:40:19Z</time>
			</trkpt>
			<trkpt lat="42.765814" lon="24.985655">
				<ele>1264.000000</ele>
				<time>2025-07-12T08:40:25Z</time>
			</trkpt>
			<trkpt lat="42.765775" lon="24.985647">
				<ele>1265.000000</ele>
				<time>2025-07-12T08:40:30Z</time>
			</trkpt>
			<trkpt lat="42.765761" lon="24.985641">
				<ele>1265.000000</ele>
				<time>2025-07-12T08:40:32Z</time>
			</trkpt>
			<trkpt lat="42.765722" lon="24.985680">
				<ele>1266.000000</ele>
				<time>2025-07-12T08:40:39Z</time>
			</trkpt>
			<trkpt lat="42.765719" lon="24.985686">
				<ele>1266.000000</ele>
				<time>2025-07-12T08:40:40Z</time>
			</trkpt>
			<trkpt lat="42.765734" lon="24.985724">
				<ele>1266.000000</ele>
				<time>2025-07-12T08:40:45Z</time>
			</trkpt>
			<trkpt lat="42.765738" lon="24.985783">
				<ele>1267.000000</ele>
				<time>2025-07-12T08:40:49Z</time>
			</trkpt>
			<trkpt lat="42.765736" lon="24.985823">
				<ele>1267.000000</ele>
				<time>2025-07-12T08:40:52Z</time>
			</trkpt>
			<trkpt lat="42.765748" lon="24.985901">
				<ele>1267.000000</ele>
				<time>2025-07-12T08:41:00Z</time>
			</trkpt>
			<trkpt lat="42.765767" lon="24.985894">
				<ele>1268.000000</ele>
				<time>2025-07-12T08:41:07Z</time>
			</trkpt>
			<trkpt lat="42.765770" lon="24.985945">
				<ele>1268.000000</ele>
				<time>2025-07-12T08:41:14Z</time>
			</trkpt>
			<trkpt lat="42.765764" lon="24.986075">
				<ele>1268.000000</ele>
				<time>2025-07-12T08:41:22Z</time>
			</trkpt>
			<trkpt lat="42.765755" lon="24.986182">
				<ele>1269.000000</ele>
				<time>2025-07-12T08:41:30Z</time>
			</trkpt>
			<trkpt lat="42.765754" lon="24.986275">
				<ele>1269.000000</ele>
				<time>2025-07-12T08:41:36Z</time>
			</trkpt>
			<trkpt lat="42.765756" lon="24.986329">
				<ele>1269.000000</ele>
				<time>2025-07-12T08:41:40Z</time>
			</trkpt>
			<trkpt lat="42.765779" lon="24.986439">
				<ele>1269.000000</ele>
				<time>2025-07-12T08:41:48Z</time>
			</trkpt>
			<trkpt lat="42.765788" lon="24.986557">
				<ele>1269.000000</ele>
				<time>2025-07-12T08:41:57Z</time>
			</trkpt>
			<trkpt lat="42.765800" lon="24.986659">
				<ele>1269.000000</ele>
				<time>2025-07-12T08:42:05Z</time>
			</trkpt>
			<trkpt lat="42.765807" lon="24.986777">
				<ele>1270.000000</ele>
				<time>2025-07-12T08:42:13Z</time>
			</trkpt>
			<trkpt lat="42.765814" lon="24.986798">
				<ele>1270.000000</ele>
				<time>2025-07-12T08:42:15Z</time>
			</trkpt>
			<trkpt lat="42.765829" lon="24.986874">
				<ele>1270.000000</ele>
				<time>2025-07-12T08:42:21Z</time>
			</trkpt>
			<trkpt lat="42.765829" lon="24.986980">
				<ele>1271.000000</ele>
				<time>2025-07-12T08:42:28Z</time>
			</trkpt>
			<trkpt lat="42.765828" lon="24.987058">
				<ele>1271.000000</ele>
				<time>2025-07-12T08:42:34Z</time>
			</trkpt>
			<trkpt lat="42.765847" lon="24.987112">
				<ele>1272.000000</ele>
				<time>2025-07-12T08:42:40Z</time>
			</trkpt>
			<trkpt lat="42.765851" lon="24.987157">
				<ele>1272.000000</ele>
				<time>2025-07-12T08:42:43Z</time>
			</trkpt>
			<trkpt lat="42.765848" lon="24.987257">
				<ele>1273.000000</ele>
				<time>2025-07-12T08:42:50Z</time>
			</trkpt>
			<trkpt lat="42.765845" lon="24.987312">
				<ele>1273.000000</ele>
				<time>2025-07-12T08:42:54Z</time>
			</trkpt>
			<trkpt lat="42.765850" lon="24.987333">
				<ele>1273.000000</ele>
				<time>2025-07-12T08:42:56Z</time>
			</trkpt>
			<trkpt lat="42.765862" lon="24.987399">
				<ele>1274.000000</ele>
				<time>2025-07-12T08:43:03Z</time>
			</trkpt>
			<trkpt lat="42.765867" lon="24.987440">
				<ele>1274.000000</ele>
				<time>2025-07-12T08:43:06Z</time>
			</trkpt>
			<trkpt lat="42.765863" lon="24.987491">
				<ele>1274.000000</ele>
				<time>2025-07-12T08:43:11Z</time>
			</trkpt>
			<trkpt lat="42.765866" lon="24.987554">
				<ele>1275.000000</ele>
				<time>2025-07-12T08:43:16Z</time>
			</trkpt>
			<trkpt lat="42.765870" lon="24.987565">
				<ele>1275.000000</ele>
				<time>2025-07-12T08:43:17Z</time>
			</trkpt>
			<trkpt lat="42.765858" lon="24.987591">
				<ele>1276.000000</ele>
				<time>2025-07-12T08:43:20Z</time>
			</trkpt>
			<trkpt lat="42.765821" lon="24.987612">
				<ele>1276.000000</ele>
				<time>2025-07-12T08:43:24Z</time>
			</trkpt>
			<trkpt lat="42.765750" lon="24.987599">
				<ele>1277.000000</ele>
				<time>2025-07-12T08:43:32Z</time>
			</trkpt>
			<trkpt lat="42.765742" lon="24.987588">
				<ele>1277.000000</ele>
				<time>2025-07-12T08:43:33Z</time>
			</trkpt>
			<trkpt lat="42.765708" lon="24.987510">
				<ele>1278.000000</ele>
				<time>2025-07-12T08:43:40Z</time>
			</trkpt>
			<trkpt lat="42.765705" lon="24.987485">
				<ele>1278.000000</ele>
				<time>2025-07-12T08:43:42Z</time>
			</trkpt>
			<trkpt lat="42.765708" lon="24.987416">
				<ele>1279.000000</ele>
				<time>2025-07-12T08:43:47Z</time>
			</trkpt>
			<trkpt lat="42.765685" lon="24.987373">
				<ele>1279.000000</ele>
				<time>2025-07-12T08:43:52Z</time>
			</trkpt>
			<trkpt lat="42.765646" lon="24.987297">
				<ele>1280.000000</ele>
				<time>2025-07-12T08:43:59Z</time>
			</trkpt>
			<trkpt lat="42.765629" lon="24.987271">
				<ele>1280.000000</ele>
				<time>2025-07-12T08:44:02Z</time>
			</trkpt>
			<trkpt lat="42.765624" lon="24.987259">
				<ele>1280.000000</ele>
				<time>2025-07-12T08:44:03Z</time>
			</trkpt>
			<trkpt lat="42.765604" lon="24.987233">
				<ele>1281.000000</ele>
				<time>2025-07-12T08:44:06Z</time>
			</trkpt>
			<trkpt lat="42.765576" lon="24.987139">
				<ele>1281.000000</ele>
				<time>2025-07-12T08:44:14Z</time>
			</trkpt>
			<trkpt lat="42.765559" lon="24.987088">
				<ele>1281.000000</ele>
				<time>2025-07-12T08:44:19Z</time>
			</trkpt>
			<trkpt lat="42.765551" lon="24.987056">
				<ele>1282.000000</ele>
				<time>2025-07-12T08:44:22Z</time>
			</trkpt>
			<trkpt lat="42.765520" lon="24.986956">
				<ele>1282.000000</ele>
				<time>2025-07-12T08:44:31Z</time>
			</trkpt>
			<trkpt lat="42.765494" lon="24.986917">
				<ele>1283.000000</ele>
				<time>2025-07-12T08:44:35Z</time>
			</trkpt>
			<trkpt lat="42.765480" lon="24.986874">
				<ele>1283.000000</ele>
				<time>2025-07-12T08:44:39Z</time>
			</trkpt>
			<trkpt lat="42.765448" lon="24.986774">
				<ele>1283.000000</ele>
				<time>2025-07-12T08:44:48Z</time>
			</trkpt>
			<trkpt lat="42.765445" lon="24.986751">
				<ele>1284.000000</ele>
				<time>2025-07-12T08:44:50Z</time>
			</trkpt>
			<trkpt lat="42.765423" lon="24.986681">
				<ele>1284.000000</ele>
				<time>2025-07-12T08:44:56Z</time>
			</trkpt>
			<trkpt lat="42.765409" lon="24.986645">
				<ele>1285.000000</ele>
				<time>2025-07-12T08:45:00Z</time>
			</trkpt>
			<trkpt lat="42.765404" lon="24.986614">
				<ele>1285.000000</ele>
				<time>2025-07-12T08:45:03Z</time>
			</trkpt>
			<trkpt lat="42.765372" lon="24.986537">
				<ele>1285.000000</ele>
				<time>2025-07-12T08:45:09Z</time>
			</trkpt>
			<trkpt lat="42.765350" lon="24.986440">
				<ele>1286.000000</ele>
				<time>2025-07-12T08:45:17Z</time>
			</trkpt>
			<trkpt lat="42.765322" lon="24.986339">
				<ele>1286.000000</ele>
				<time>2025-07-12T08:45:24Z</time>
			</trkpt>
			<trkpt lat="42.765322" lon="24.986327">
				<ele>1286.000000</ele>
				<time>2025-07-12T08:45:25Z</time>
			</trkpt>
			<trkpt lat="42.765305" lon="24.986264">
				<ele>1286.000000</ele>
				<time>2025-07-12T08:45:31Z</time>
			</trkpt>
			<trkpt lat="42.765294" lon="24.986229">
				<ele>1286.000000</ele>
				<time>2025-07-12T08:45:34Z</time>
			</trkpt>
			<trkpt lat="42.765266" lon="24.986140">
				<ele>1287.000000</ele>
				<time>2025-07-12T08:45:41Z</time>
			</trkpt>
			<trkpt lat="42.765241" lon="24.986034">
				<ele>1287.000000</ele>
				<time>2025-07-12T08:45:51Z</time>
			</trkpt>
			<trkpt lat="42.765193" lon="24.985932">
				<ele>1287.000000</ele>
				<time>2025-07-12T08:45:59Z</time>
			</trkpt>
			<trkpt lat="42.765167" lon="24.985891">
				<ele>1288.000000</ele>
				<time>2025-07-12T08:46:03Z</time>
			</trkpt>
			<trkpt lat="42.765154" lon="24.985879">
				<ele>1288.000000</ele>
				<time>2025-07-12T08:46:07Z</time>
			</trkpt>
			<trkpt lat="42.765138" lon="24.985878">
				<ele>1288.000000</ele>
				<time>2025-07-12T08:46:09Z</time>
			</trkpt>
			<trkpt lat="42.765127" lon="24.985890">
				<ele>1289.000000</ele>
				<time>2025-07-12T08:46:12Z</time>
			</trkpt>
			<trkpt lat="42.765110" lon="24.985904">
				<ele>1289.000000</ele>
				<time>2025-07-12T08:46:15Z</time>
			</trkpt>
			<trkpt lat="42.765094" lon="24.985920">
				<ele>1290.000000</ele>
				<time>2025-07-12T08:46:18Z</time>
			</trkpt>
			<trkpt lat="42.765072" lon="24.985938">
				<ele>1291.000000</ele>
				<time>2025-07-12T08:46:21Z</time>
			</trkpt>
			<trkpt lat="42.765066" lon="24.985952">
				<ele>1291.000000</ele>
				<time>2025-07-12T08:46:23Z</time>
			</trkpt>
			<trkpt lat="42.765055" lon="24.986022">
				<ele>1292.000000</ele>
				<time>2025-07-12T08:46:29Z</time>
			</trkpt>
			<trkpt lat="42.765055" lon="24.986101">
				<ele>1293.000000</ele>
				<time>2025-07-12T08:46:36Z</time>
			</trkpt>
			<trkpt lat="42.765056" lon="24.986110">
				<ele>1293.000000</ele>
				<time>2025-07-12T08:46:37Z</time>
			</trkpt>
			<trkpt lat="42.765058" lon="24.986123">
				<ele>1293.000000</ele>
				<time>2025-07-12T08:46:38Z</time>
			</trkpt>
			<trkpt lat="42.765072" lon="24.986217">
				<ele>1294.000000</ele>
				<time>2025-07-12T08:46:45Z</time>
			</trkpt>
			<trkpt lat="42.765074" lon="24.986227">
				<ele>1294.000000</ele>
				<time>2025-07-12T08:46:46Z</time>
			</trkpt>
			<trkpt lat="42.765072" lon="24.986287">
				<ele>1295.000000</ele>
				<time>2025-07-12T08:46:54Z</time>
			</trkpt>
			<trkpt lat="42.765071" lon="24.986339">
				<ele>1295.000000</ele>
				<time>2025-07-12T08:46:58Z</time>
			</trkpt>
			<trkpt lat="42.765087" lon="24.986443">
				<ele>1296.000000</ele>
				<time>2025-07-12T08:47:04Z</time>
			</trkpt>
			<trkpt lat="42.765101" lon="24.986522">
				<ele>1296.000000</ele>
				<time>2025-07-12T08:47:11Z</time>
			</trkpt>
			<trkpt lat="42.765099" lon="24.986535">
				<ele>1296.000000</ele>
				<time>2025-07-12T08:47:12Z</time>
			</trkpt>
			<trkpt lat="42.765102" lon="24.986621">
				<ele>1297.000000</ele>
				<time>2025-07-12T08:47:19Z</time>
			</trkpt>
			<trkpt lat="42.765126" lon="24.986732">
				<ele>1297.000000</ele>
				<time>2025-07-12T08:47:28Z</time>
			</trkpt>
			<trkpt lat="42.765145" lon="24.986840">
				<ele>1297.000000</ele>
				<time>2025-07-12T08:47:36Z</time>
			</trkpt>
			<trkpt lat="42.765160" lon="24.986883">
				<ele>1297.000000</ele>
				<time>2025-07-12T08:47:39Z</time>
			</trkpt>
			<trkpt lat="42.765171" lon="24.986907">
				<ele>1297.000000</ele>
				<time>2025-07-12T08:47:41Z</time>
			</trkpt>
			<trkpt lat="42.765188" lon="24.986937">
				<ele>1297.000000</ele>
				<time>2025-07-12T08:47:44Z</time>
			</trkpt>
			<trkpt lat="42.765202" lon="24.986997">
				<ele>1298.000000</ele>
				<time>2025-07-12T08:47:48Z</time>
			</trkpt>
			<trkpt lat="42.765212" lon="24.987043">
				<ele>1298.000000</ele>
				<time>2025-07-12T08:47:52Z</time>
			</trkpt>
			<trkpt lat="42.765211" lon="24.987119">
				<ele>1298.000000</ele>
				<time>2025-07-12T08:47:57Z</time>
			</trkpt>
			<trkpt lat="42.765249" lon="24.987206">
				<ele>1298.000000</ele>
				<time>2025-07-12T08:48:05Z</time>
			</trkpt>
			<trkpt lat="42.765260" lon="24.987227">
				<ele>1299.000000</ele>
				<time>2025-07-12T08:48:07Z</time>
			</trkpt>
			<trkpt lat="42.765279" lon="24.987329">
				<ele>1299.000000</ele>
				<time>2025-07-12T08:48:15Z</time>
			</trkpt>
			<trkpt lat="42.765292" lon="24.987355">
				<ele>1300.000000</ele>
				<time>2025-07-12T08:48:17Z</time>
			</trkpt>
			<trkpt lat="42.765317" lon="24.987419">
				<ele>1300.000000</ele>
				<time>2025-07-12T08:48:22Z</time>
			</trkpt>
			<trkpt lat="42.765331" lon="24.987465">
				<ele>1301.000000</ele>
				<time>2025-07-12T08:48:26Z</time>
			</trkpt>
			<trkpt lat="42.765338" lon="24.987520">
				<ele>1301.000000</ele>
				<time>2025-07-12T08:48:30Z</time>
			</trkpt>
			<trkpt lat="42.765330" lon="24.987623">
				<ele>1301.000000</ele>
				<time>2025-07-12T08:48:38Z</time>
			</trkpt>
			<trkpt lat="42.765322" lon="24.987679">
				<ele>1302.000000</ele>
				<time>2025-07-12T08:48:43Z</time>
			</trkpt>
			<trkpt lat="42.765322" lon="24.987693">
				<ele>1302.000000</ele>
				<time>2025-07-12T08:48:44Z</time>
			</trkpt>
			<trkpt lat="42.765317" lon="24.987733">
				<ele>1302.000000</ele>
				<time>2025-07-12T08:48:48Z</time>
			</trkpt>
			<trkpt lat="42.765245" lon="24.987811">
				<ele>1302.000000</ele>
				<time>2025-07-12T08:48:56Z</time>
			</trkpt>
			<trkpt lat="42.765227" lon="24.987825">
				<ele>1302.000000</ele>
				<time>2025-07-12T08:48:58Z</time>
			</trkpt>
			<trkpt lat="42.765160" lon="24.987862">
				<ele>1302.000000</ele>
				<time>2025-07-12T08:49:06Z</time>
			</trkpt>
			<trkpt lat="42.765139" lon="24.987875">
				<ele>1303.000000</ele>
				<time>2025-07-12T08:49:09Z</time>
			</trkpt>
			<trkpt lat="42.765094" lon="24.987902">
				<ele>1303.000000</ele>
				<time>2025-07-12T08:49:14Z</time>
			</trkpt>
			<trkpt lat="42.765064" lon="24.987915">
				<ele>1304.000000</ele>
				<time>2025-07-12T08:49:18Z</time>
			</trkpt>
			<trkpt lat="42.765018" lon="24.987941">
				<ele>1304.000000</ele>
				<time>2025-07-12T08:49:23Z</time>
			</trkpt>
			<trkpt lat="42.764975" lon="24.987959">
				<ele>1305.000000</ele>
				<time>2025-07-12T08:49:28Z</time>
			</trkpt>
			<trkpt lat="42.764943" lon="24.987982">
				<ele>1305.000000</ele>
				<time>2025-07-12T08:49:31Z</time>
			</trkpt>
			<trkpt lat="42.764890" lon="24.988010">
				<ele>1306.000000</ele>
				<time>2025-07-12T08:49:37Z</time>
			</trkpt>
			<trkpt lat="42.764839" lon="24.988030">
				<ele>1306.000000</ele>
				<time>2025-07-12T08:49:43Z</time>
			</trkpt>
			<trkpt lat="42.764771" lon="24.988059">
				<ele>1307.000000</ele>
				<time>2025-07-12T08:49:51Z</time>
			</trkpt>
			<trkpt lat="42.764730" lon="24.988072">
				<ele>1307.000000</ele>
				<time>2025-07-12T08:49:56Z</time>
			</trkpt>
			<trkpt lat="42.764709" lon="24.988080">
				<ele>1307.000000</ele>
				<time>2025-07-12T08:49:59Z</time>
			</trkpt>
			<trkpt lat="42.764653" lon="24.988103">
				<ele>1308.000000</ele>
				<time>2025-07-12T08:50:05Z</time>
			</trkpt>
			<trkpt lat="42.764587" lon="24.988136">
				<ele>1308.000000</ele>
				<time>2025-07-12T08:50:12Z</time>
			</trkpt>
			<trkpt lat="42.764559" lon="24.988149">
				<ele>1308.000000</ele>
				<time>2025-07-12T08:50:15Z</time>
			</trkpt>
			<trkpt lat="42.764513" lon="24.988154">
				<ele>1309.000000</ele>
				<time>2025-07-12T08:50:20Z</time>
			</trkpt>
			<trkpt lat="42.764450" lon="24.988169">
				<ele>1309.000000</ele>
				<time>2025-07-12T08:50:26Z</time>
			</trkpt>
			<trkpt lat="42.764381" lon="24.988191">
				<ele>1309.000000</ele>
				<time>2025-07-12T08:50:33Z</time>
			</trkpt>
			<trkpt lat="42.764375" lon="24.988195">
				<ele>1309.000000</ele>
				<time>2025-07-12T08:50:34Z</time>
			</trkpt>
			<trkpt lat="42.764306" lon="24.988222">
				<ele>1309.000000</ele>
				<time>2025-07-12T08:50:40Z</time>
			</trkpt>
			<trkpt lat="42.764261" lon="24.988252">
				<ele>1309.000000</ele>
				<time>2025-07-12T08:50:45Z</time>
			</trkpt>
			<trkpt lat="42.764187" lon="24.988257">
				<ele>1309.000000</ele>
				<time>2025-07-12T08:50:52Z</time>
			</trkpt>
			<trkpt lat="42.764133" lon="24.988279">
				<ele>1310.000000</ele>
				<time>2025-07-12T08:50:58Z</time>
			</trkpt>
			<trkpt lat="42.764125" lon="24.988281">
				<ele>1310.000000</ele>
				<time>2025-07-12T08:50:59Z</time>
			</trkpt>
			<trkpt lat="42.764064" lon="24.988311">
				<ele>1310.000000</ele>
				<time>2025-07-12T08:51:06Z</time>
			</trkpt>
			<trkpt lat="42.763993" lon="24.988331">
				<ele>1310.000000</ele>
				<time>2025-07-12T08:51:13Z</time>
			</trkpt>
			<trkpt lat="42.763970" lon="24.988343">
				<ele>1310.000000</ele>
				<time>2025-07-12T08:51:15Z</time>
			</trkpt>
			<trkpt lat="42.763880" lon="24.988378">
				<ele>1310.000000</ele>
				<time>2025-07-12T08:51:24Z</time>
			</trkpt>
			<trkpt lat="42.763807" lon="24.988407">
				<ele>1310.000000</ele>
				<time>2025-07-12T08:51:31Z</time>
			</trkpt>
			<trkpt lat="42.763728" lon="24.988423">
				<ele>1311.000000</ele>
				<time>2025-07-12T08:51:40Z</time>
			</trkpt>
			<trkpt lat="42.763637" lon="24.988444">
				<ele>1311.000000</ele>
				<time>2025-07-12T08:51:49Z</time>
			</trkpt>
			<trkpt lat="42.763561" lon="24.988482">
				<ele>1312.000000</ele>
				<time>2025-07-12T08:51:56Z</time>
			</trkpt>
			<trkpt lat="42.763519" lon="24.988497">
				<ele>1312.000000</ele>
				<time>2025-07-12T08:52:01Z</time>
			</trkpt>
			<trkpt lat="42.763489" lon="24.988512">
				<ele>1312.000000</ele>
				<time>2025-07-12T08:52:04Z</time>
			</trkpt>
			<trkpt lat="42.763483" lon="24.988517">
				<ele>1312.000000</ele>
				<time>2025-07-12T08:52:05Z</time>
			</trkpt>
			<trkpt lat="42.763414" lon="24.988539">
				<ele>1313.000000</ele>
				<time>2025-07-12T08:52:14Z</time>
			</trkpt>
			<trkpt lat="42.763377" lon="24.988537">
				<ele>1313.000000</ele>
				<time>2025-07-12T08:52:18Z</time>
			</trkpt>
			<trkpt lat="42.763344" lon="24.988536">
				<ele>1314.000000</ele>
				<time>2025-07-12T08:52:21Z</time>
			</trkpt>
			<trkpt lat="42.763279" lon="24.988535">
				<ele>1314.000000</ele>
				<time>2025-07-12T08:52:28Z</time>
			</trkpt>
			<trkpt lat="42.763260" lon="24.988543">
				<ele>1314.000000</ele>
				<time>2025-07-12T08:52:30Z</time>
			</trkpt>
			<trkpt lat="42.763210" lon="24.988545">
				<ele>1315.000000</ele>
				<time>2025-07-12T08:52:36Z</time>
			</trkpt>
			<trkpt lat="42.763156" lon="24.988570">
				<ele>1315.000000</ele>
				<time>2025-07-12T08:52:42Z</time>
			</trkpt>
			<trkpt lat="42.763151" lon="24.988575">
				<ele>1316.000000</ele>
				<time>2025-07-12T08:52:43Z</time>
			</trkpt>
			<trkpt lat="42.763104" lon="24.988575">
				<ele>1316.000000</ele>
				<time>2025-07-12T08:52:48Z</time>
			</trkpt>
			<trkpt lat="42.763060" lon="24.988575">
				<ele>1317.000000</ele>
				<time>2025-07-12T08:52:52Z</time>
			</trkpt>
			<trkpt lat="42.763036" lon="24.988595">
				<ele>1317.000000</ele>
				<time>2025-07-12T08:52:55Z</time>
			</trkpt>
			<trkpt lat="42.762979" lon="24.988609">
				<ele>1318.000000</ele>
				<time>2025-07-12T08:53:02Z</time>
			</trkpt>
			<trkpt lat="42.762960" lon="24.988615">
				<ele>1318.000000</ele>
				<time>2025-07-12T08:53:05Z</time>
			</trkpt>
			<trkpt lat="42.762926" lon="24.988626">
				<ele>1318.000000</ele>
				<time>2025-07-12T08:53:08Z</time>
			</trkpt>
			<trkpt lat="42.762907" lon="24.988629">
				<ele>1319.000000</ele>
				<time>2025-07-12T08:53:10Z</time>
			</trkpt>
			<trkpt lat="42.762852" lon="24.988630">
				<ele>1319.000000</ele>
				<time>2025-07-12T08:53:16Z</time>
			</trkpt>
			<trkpt lat="42.762836" lon="24.988630">
				<ele>1320.000000</ele>
				<time>2025-07-12T08:53:18Z</time>
			</trkpt>
			<trkpt lat="42.762794" lon="24.988643">
				<ele>1320.000000</ele>
				<time>2025-07-12T08:53:23Z</time>
			</trkpt>
			<trkpt lat="42.762760" lon="24.988643">
				<ele>1321.000000</ele>
				<time>2025-07-12T08:53:27Z</time>
			</trkpt>
			<trkpt lat="42.762721" lon="24.988642">
				<ele>1321.000000</ele>
				<time>2025-07-12T08:53:32Z</time>
			</trkpt>
			<trkpt lat="42.762704" lon="24.988637">
				<ele>1322.000000</ele>
				<time>2025-07-12T08:53:35Z</time>
			</trkpt>
			<trkpt lat="42.762666" lon="24.988642">
				<ele>1322.000000</ele>
				<time>2025-07-12T08:53:39Z</time>
			</trkpt>
			<trkpt lat="42.762602" lon="24.988639">
				<ele>1323.000000</ele>
				<time>2025-07-12T08:53:46Z</time>
			</trkpt>
			<trkpt lat="42.762595" lon="24.988638">
				<ele>1323.000000</ele>
				<time>2025-07-12T08:53:47Z</time>
			</trkpt>
			<trkpt lat="42.762533" lon="24.988646">
				<ele>1324.000000</ele>
				<time>2025-07-12T08:53:54Z</time>
			</trkpt>
			<trkpt lat="42.762516" lon="24.988646">
				<ele>1324.000000</ele>
				<time>2025-07-12T08:53:56Z</time>
			</trkpt>
			<trkpt lat="42.762478" lon="24.988668">
				<ele>1325.000000</ele>
				<time>2025-07-12T08:54:03Z</time>
			</trkpt>
			<trkpt lat="42.762466" lon="24.988678">
				<ele>1325.000000</ele>
				<time>2025-07-12T08:54:05Z</time>
			</trkpt>
			<trkpt lat="42.762433" lon="24.988720">
				<ele>1325.000000</ele>
				<time>2025-07-12T08:54:13Z</time>
			</trkpt>
			<trkpt lat="42.762422" lon="24.988696">
				<ele>1326.000000</ele>
				<time>2025-07-12T08:54:19Z</time>
			</trkpt>
			<trkpt lat="42.762415" lon="24.988693">
				<ele>1326.000000</ele>
				<time>2025-07-12T08:54:20Z</time>
			</trkpt>
			<trkpt lat="42.762401" lon="24.988684">
				<ele>1326.000000</ele>
				<time>2025-07-12T08:54:22Z</time>
			</trkpt>
			<trkpt lat="42.762368" lon="24.988672">
				<ele>1327.000000</ele>
				<time>2025-07-12T08:54:27Z</time>
			</trkpt>
			<trkpt lat="42.762344" lon="24.988665">
				<ele>1327.000000</ele>
				<time>2025-07-12T08:54:30Z</time>
			</trkpt>
			<trkpt lat="42.762322" lon="24.988655">
				<ele>1328.000000</ele>
				<time>2025-07-12T08:54:34Z</time>
			</trkpt>
			<trkpt lat="42.762287" lon="24.988658">
				<ele>1328.000000</ele>
				<time>2025-07-12T08:54:38Z</time>
			</trkpt>
			<trkpt lat="42.762252" lon="24.988670">
				<ele>1329.000000</ele>
				<time>2025-07-12T08:54:42Z</time>
			</trkpt>
			<trkpt lat="42.762225" lon="24.988696">
				<ele>1329.000000</ele>
				<time>2025-07-12T08:54:46Z</time>
			</trkpt>
			<trkpt lat="42.762204" lon="24.988702">
				<ele>1330.000000</ele>
				<time>2025-07-12T08:54:50Z</time>
			</trkpt>
			<trkpt lat="42.762183" lon="24.988694">
				<ele>1330.000000</ele>
				<time>2025-07-12T08:54:53Z</time>
			</trkpt>
			<trkpt lat="42.762150" lon="24.988642">
				<ele>1331.000000</ele>
				<time>2025-07-12T08:54:58Z</time>
			</trkpt>
			<trkpt lat="42.762153" lon="24.988631">
				<ele>1331.000000</ele>
				<time>2025-07-12T08:54:59Z</time>
			</trkpt>
			<trkpt lat="42.762153" lon="24.988621">
				<ele>1332.000000</ele>
				<time>2025-07-12T08:55:00Z</time>
			</trkpt>
			<trkpt lat="42.762159" lon="24.988566">
				<ele>1332.000000</ele>
				<time>2025-07-12T08:55:05Z</time>
			</trkpt>
			<trkpt lat="42.762196" lon="24.988486">
				<ele>1333.000000</ele>
				<time>2025-07-12T08:55:12Z</time>
			</trkpt>
			<trkpt lat="42.762204" lon="24.988474">
				<ele>1334.000000</ele>
				<time>2025-07-12T08:55:13Z</time>
			</trkpt>
			<trkpt lat="42.762243" lon="24.988438">
				<ele>1334.000000</ele>
				<time>2025-07-12T08:55:21Z</time>
			</trkpt>
			<trkpt lat="42.762284" lon="24.988427">
				<ele>1335.000000</ele>
				<time>2025-07-12T08:55:26Z</time>
			</trkpt>
			<trkpt lat="42.762290" lon="24.988431">
				<ele>1335.000000</ele>
				<time>2025-07-12T08:55:27Z</time>
			</trkpt>
			<trkpt lat="42.762336" lon="24.988427">
				<ele>1335.000000</ele>
				<time>2025-07-12T08:55:34Z</time>
			</trkpt>
			<trkpt lat="42.762390" lon="24.988426">
				<ele>1335.000000</ele>
				<time>2025-07-12T08:55:41Z</time>
			</trkpt>
			<trkpt lat="42.762450" lon="24.988390">
				<ele>1336.000000</ele>
				<time>2025-07-12T08:55:49Z</time>
			</trkpt>
			<trkpt lat="42.762460" lon="24.988385">
				<ele>1336.000000</ele>
				<time>2025-07-12T08:55:50Z</time>
			</trkpt>
			<trkpt lat="42.762493" lon="24.988372">
				<ele>1336.000000</ele>
				<time>2025-07-12T08:55:55Z</time>
			</trkpt>
			<trkpt lat="42.762502" lon="24.988370">
				<ele>1336.000000</ele>
				<time>2025-07-12T08:55:56Z</time>
			</trkpt>
			<trkpt lat="42.762563" lon="24.988355">
				<ele>1336.000000</ele>
				<time>2025-07-12T08:56:02Z</time>
			</trkpt>
			<trkpt lat="42.762576" lon="24.988348">
				<ele>1336.000000</ele>
				<time>2025-07-12T08:56:03Z</time>
			</trkpt>
			<trkpt lat="42.762622" lon="24.988322">
				<ele>1336.000000</ele>
				<time>2025-07-12T08:56:09Z</time>
			</trkpt>
			<trkpt lat="42.762628" lon="24.988317">
				<ele>1336.000000</ele>
				<time>2025-07-12T08:56:10Z</time>
			</trkpt>
			<trkpt lat="42.762696" lon="24.988315">
				<ele>1336.000000</ele>
				<time>2025-07-12T08:56:16Z</time>
			</trkpt>
			<trkpt lat="42.762714" lon="24.988308">
				<ele>1337.000000</ele>
				<time>2025-07-12T08:56:18Z</time>
			</trkpt>
			<trkpt lat="42.762764" lon="24.988281">
				<ele>1337.000000</ele>
				<time>2025-07-12T08:56:24Z</time>
			</trkpt>
			<trkpt lat="42.762847" lon="24.988272">
				<ele>1338.000000</ele>
				<time>2025-07-12T08:56:33Z</time>
			</trkpt>
			<trkpt lat="42.762855" lon="24.988269">
				<ele>1338.000000</ele>
				<time>2025-07-12T08:56:34Z</time>
			</trkpt>
			<trkpt lat="42.762913" lon="24.988237">
				<ele>1338.000000</ele>
				<time>2025-07-12T08:56:41Z</time>
			</trkpt>
			<trkpt lat="42.762962" lon="24.988205">
				<ele>1339.000000</ele>
				<time>2025-07-12T08:56:47Z</time>
			</trkpt>
			<trkpt lat="42.762970" lon="24.988205">
				<ele>1339.000000</ele>
				<time>2025-07-12T08:56:48Z</time>
			</trkpt>
			<trkpt lat="42.763045" lon="24.988187">
				<ele>1340.000000</ele>
				<time>2025-07-12T08:56:56Z</time>
			</trkpt>
			<trkpt lat="42.763073" lon="24.988165">
				<ele>1340.000000</ele>
				<time>2025-07-12T08:57:00Z</time>
			</trkpt>
			<trkpt lat="42.763103" lon="24.988136">
				<ele>1340.000000</ele>
				<time>2025-07-12T08:57:03Z</time>
			</trkpt>
			<trkpt lat="42.763145" lon="24.988076">
				<ele>1341.000000</ele>
				<time>2025-07-12T08:57:10Z</time>
			</trkpt>
			<trkpt lat="42.763150" lon="24.988072">
				<ele>1341.000000</ele>
				<time>2025-07-12T08:57:11Z</time>
			</trkpt>
			<trkpt lat="42.763213" lon="24.988029">
				<ele>1342.000000</ele>
				<time>2025-07-12T08:57:18Z</time>
			</trkpt>
			<trkpt lat="42.763217" lon="24.988026">
				<ele>1342.000000</ele>
				<time>2025-07-12T08:57:19Z</time>
			</trkpt>
			<trkpt lat="42.763266" lon="24.988005">
				<ele>1343.000000</ele>
				<time>2025-07-12T08:57:25Z</time>
			</trkpt>
			<trkpt lat="42.763294" lon="24.987994">
				<ele>1343.000000</ele>
				<time>2025-07-12T08:57:28Z</time>
			</trkpt>
			<trkpt lat="42.763332" lon="24.987981">
				<ele>1344.000000</ele>
				<time>2025-07-12T08:57:33Z</time>
			</trkpt>
			<trkpt lat="42.763385" lon="24.987976">
				<ele>1344.000000</ele>
				<time>2025-07-12T08:57:37Z</time>
			</trkpt>
			<trkpt lat="42.763415" lon="24.987957">
				<ele>1344.000000</ele>
				<time>2025-07-12T08:57:40Z</time>
			</trkpt>
			<trkpt lat="42.763440" lon="24.987958">
				<ele>1345.000000</ele>
				<time>2025-07-12T08:57:44Z</time>
			</trkpt>
			<trkpt lat="42.763443" lon="24.987959">
				<ele>1345.000000</ele>
				<time>2025-07-12T08:57:46Z</time>
			</trkpt>
			<trkpt lat="42.763448" lon="24.987959">
				<ele>1345.000000</ele>
				<time>2025-07-12T08:57:51Z</time>
			</trkpt>
			<trkpt lat="42.763471" lon="24.987939">
				<ele>1345.000000</ele>
				<time>2025-07-12T08:57:55Z</time>
			</trkpt>
			<trkpt lat="42.763525" lon="24.987907">
				<ele>1346.000000</ele>
				<time>2025-07-12T08:58:02Z</time>
			</trkpt>
			<trkpt lat="42.763580" lon="24.987900">
				<ele>1346.000000</ele>
				<time>2025-07-12T08:58:09Z</time>
			</trkpt>
			<trkpt lat="42.763588" lon="24.987899">
				<ele>1346.000000</ele>
				<time>2025-07-12T08:58:10Z</time>
			</trkpt>
			<trkpt lat="42.763609" lon="24.987892">
				<ele>1346.000000</ele>
				<time>2025-07-12T08:58:14Z</time>
			</trkpt>
			<trkpt lat="42.763620" lon="24.987887">
				<ele>1346.000000</ele>
				<time>2025-07-12T08:58:16Z</time>
			</trkpt>
			<trkpt lat="42.763635" lon="24.987875">
				<ele>1346.000000</ele>
				<time>2025-07-12T08:58:24Z</time>
			</trkpt>
			<trkpt lat="42.763664" lon="24.987857">
				<ele>1347.000000</ele>
				<time>2025-07-12T08:58:32Z</time>
			</trkpt>
			<trkpt lat="42.763694" lon="24.987827">
				<ele>1347.000000</ele>
				<time>2025-07-12T08:58:36Z</time>
			</trkpt>
			<trkpt lat="42.763715" lon="24.987803">
				<ele>1347.000000</ele>
				<time>2025-07-12T08:58:39Z</time>
			</trkpt>
			<trkpt lat="42.763770" lon="24.987770">
				<ele>1348.000000</ele>
				<time>2025-07-12T08:58:46Z</time>
			</trkpt>
			<trkpt lat="42.763807" lon="24.987723">
				<ele>1348.000000</ele>
				<time>2025-07-12T08:58:53Z</time>
			</trkpt>
			<trkpt lat="42.763872" lon="24.987660">
				<ele>1349.000000</ele>
				<time>2025-07-12T08:59:02Z</time>
			</trkpt>
			<trkpt lat="42.763897" lon="24.987642">
				<ele>1349.000000</ele>
				<time>2025-07-12T08:59:05Z</time>
			</trkpt>
			<trkpt lat="42.763943" lon="24.987617">
				<ele>1350.000000</ele>
				<time>2025-07-12T08:59:10Z</time>
			</trkpt>
			<trkpt lat="42.763948" lon="24.987605">
				<ele>1350.000000</ele>
				<time>2025-07-12T08:59:11Z</time>
			</trkpt>
			<trkpt lat="42.763980" lon="24.987584">
				<ele>1350.000000</ele>
				<time>2025-07-12T08:59:15Z</time>
			</trkpt>
			<trkpt lat="42.764029" lon="24.987548">
				<ele>1350.000000</ele>
				<time>2025-07-12T08:59:22Z</time>
			</trkpt>
			<trkpt lat="42.764059" lon="24.987526">
				<ele>1350.000000</ele>
				<time>2025-07-12T08:59:25Z</time>
			</trkpt>
			<trkpt lat="42.764113" lon="24.987473">
				<ele>1350.000000</ele>
				<time>2025-07-12T08:59:32Z</time>
			</trkpt>
			<trkpt lat="42.764173" lon="24.987393">
				<ele>1351.000000</ele>
				<time>2025-07-12T08:59:41Z</time>
			</trkpt>
			<trkpt lat="42.764206" lon="24.987351">
				<ele>1351.000000</ele>
				<time>2025-07-12T08:59:46Z</time>
			</trkpt>
			<trkpt lat="42.764210" lon="24.987332">
				<ele>1351.000000</ele>
				<time>2025-07-12T08:59:48Z</time>
			</trkpt>
			<trkpt lat="42.764201" lon="24.987266">
				<ele>1351.000000</ele>
				<time>2025-07-12T08:59:54Z</time>
			</trkpt>
			<trkpt lat="42.764198" lon="24.987237">
				<ele>1351.000000</ele>
				<time>2025-07-12T08:59:56Z</time>
			</trkpt>
			<trkpt lat="42.764177" lon="24.987178">
				<ele>1352.000000</ele>
				<time>2025-07-12T09:00:03Z</time>
			</trkpt>
			<trkpt lat="42.764165" lon="24.987143">
				<ele>1352.000000</ele>
				<time>2025-07-12T09:00:07Z</time>
			</trkpt>
			<trkpt lat="42.764152" lon="24.987115">
				<ele>1353.000000</ele>
				<time>2025-07-12T09:00:10Z</time>
			</trkpt>
			<trkpt lat="42.764128" lon="24.987062">
				<ele>1353.000000</ele>
				<time>2025-07-12T09:00:16Z</time>
			</trkpt>
			<trkpt lat="42.764122" lon="24.987050">
				<ele>1353.000000</ele>
				<time>2025-07-12T09:00:17Z</time>
			</trkpt>
			<trkpt lat="42.764116" lon="24.987039">
				<ele>1353.000000</ele>
				<time>2025-07-12T09:00:18Z</time>
			</trkpt>
			<trkpt lat="42.764080" lon="24.986968">
				<ele>1354.000000</ele>
				<time>2025-07-12T09:00:25Z</time>
			</trkpt>
			<trkpt lat="42.764070" lon="24.986954">
				<ele>1354.000000</ele>
				<time>2025-07-12T09:00:27Z</time>
			</trkpt>
			<trkpt lat="42.764040" lon="24.986907">
				<ele>1355.000000</ele>
				<time>2025-07-12T09:00:32Z</time>
			</trkpt>
			<trkpt lat="42.764026" lon="24.986865">
				<ele>1355.000000</ele>
				<time>2025-07-12T09:00:37Z</time>
			</trkpt>
			<trkpt lat="42.764016" lon="24.986848">
				<ele>1356.000000</ele>
				<time>2025-07-12T09:00:39Z</time>
			</trkpt>
			<trkpt lat="42.763983" lon="24.986793">
				<ele>1356.000000</ele>
				<time>2025-07-12T09:00:46Z</time>
			</trkpt>
			<trkpt lat="42.763978" lon="24.986778">
				<ele>1356.000000</ele>
				<time>2025-07-12T09:00:47Z</time>
			</trkpt>
			<trkpt lat="42.763956" lon="24.986750">
				<ele>1357.000000</ele>
				<time>2025-07-12T09:00:52Z</time>
			</trkpt>
			<trkpt lat="42.763934" lon="24.986726">
				<ele>1357.000000</ele>
				<time>2025-07-12T09:00:56Z</time>
			</trkpt>
			<trkpt lat="42.763929" lon="24.986718">
				<ele>1358.000000</ele>
				<time>2025-07-12T09:00:57Z</time>
			</trkpt>
			<trkpt lat="42.763919" lon="24.986697">
				<ele>1358.000000</ele>
				<time>2025-07-12T09:00:59Z</time>
			</trkpt>
			<trkpt lat="42.763876" lon="24.986644">
				<ele>1359.000000</ele>
				<time>2025-07-12T09:01:07Z</time>
			</trkpt>
			<trkpt lat="42.763871" lon="24.986637">
				<ele>1359.000000</ele>
				<time>2025-07-12T09:01:08Z</time>
			</trkpt>
			<trkpt lat="42.763826" lon="24.986590">
				<ele>1360.000000</ele>
				<time>2025-07-12T09:01:16Z</time>
			</trkpt>
			<trkpt lat="42.763811" lon="24.986578">
				<ele>1360.000000</ele>
				<time>2025-07-12T09:01:18Z</time>
			</trkpt>
			<trkpt lat="42.763790" lon="24.986550">
				<ele>1360.000000</ele>
				<time>2025-07-12T09:01:22Z</time>
			</trkpt>
			<trkpt lat="42.763746" lon="24.986502">
				<ele>1361.000000</ele>
				<time>2025-07-12T09:01:28Z</time>
			</trkpt>
			<trkpt lat="42.763719" lon="24.986475">
				<ele>1361.000000</ele>
				<time>2025-07-12T09:01:32Z</time>
			</trkpt>
			<trkpt lat="42.763688" lon="24.986453">
				<ele>1362.000000</ele>
				<time>2025-07-12T09:01:36Z</time>
			</trkpt>
			<trkpt lat="42.763672" lon="24.986443">
				<ele>1362.000000</ele>
				<time>2025-07-12T09:01:38Z</time>
			</trkpt>
			<trkpt lat="42.763623" lon="24.986401">
				<ele>1363.000000</ele>
				<time>2025-07-12T09:01:44Z</time>
			</trkpt>
			<trkpt lat="42.763619" lon="24.986406">
				<ele>1363.000000</ele>
				<time>2025-07-12T09:01:45Z</time>
			</trkpt>
			<trkpt lat="42.763618" lon="24.986405">
				<ele>1363.000000</ele>
				<time>2025-07-12T09:01:46Z</time>
			</trkpt>
			<trkpt lat="42.763582" lon="24.986378">
				<ele>1363.000000</ele>
				<time>2025-07-12T09:01:51Z</time>
			</trkpt>
			<trkpt lat="42.763569" lon="24.986369">
				<ele>1364.000000</ele>
				<time>2025-07-12T09:01:53Z</time>
			</trkpt>
			<trkpt lat="42.763537" lon="24.986355">
				<ele>1364.000000</ele>
				<time>2025-07-12T09:01:57Z</time>
			</trkpt>
			<trkpt lat="42.763487" lon="24.986335">
				<ele>1365.000000</ele>
				<time>2025-07-12T09:02:03Z</time>
			</trkpt>
			<trkpt lat="42.763481" lon="24.986338">
				<ele>1365.000000</ele>
				<time>2025-07-12T09:02:04Z</time>
			</trkpt>
			<trkpt lat="42.763471" lon="24.986337">
				<ele>1365.000000</ele>
				<time>2025-07-12T09:02:05Z</time>
			</trkpt>
			<trkpt lat="42.763420" lon="24.986288">
				<ele>1366.000000</ele>
				<time>2025-07-12T09:02:12Z</time>
			</trkpt>
			<trkpt lat="42.763407" lon="24.986268">
				<ele>1366.000000</ele>
				<time>2025-07-12T09:02:14Z</time>
			</trkpt>
			<trkpt lat="42.763358" lon="24.986213">
				<ele>1367.000000</ele>
				<time>2025-07-12T09:02:21Z</time>
			</trkpt>
			<trkpt lat="42.763294" lon="24.986153">
				<ele>1367.000000</ele>
				<time>2025-07-12T09:02:30Z</time>
			</trkpt>
			<trkpt lat="42.763266" lon="24.986127">
				<ele>1367.000000</ele>
				<time>2025-07-12T09:02:34Z</time>
			</trkpt>
			<trkpt lat="42.763246" lon="24.986097">
				<ele>1367.000000</ele>
				<time>2025-07-12T09:02:37Z</time>
			</trkpt>
			<trkpt lat="42.763181" lon="24.986038">
				<ele>1368.000000</ele>
				<time>2025-07-12T09:02:46Z</time>
			</trkpt>
			<trkpt lat="42.763173" lon="24.986027">
				<ele>1368.000000</ele>
				<time>2025-07-12T09:02:47Z</time>
			</trkpt>
			<trkpt lat="42.763140" lon="24.985987">
				<ele>1369.000000</ele>
				<time>2025-07-12T09:02:52Z</time>
			</trkpt>
			<trkpt lat="42.763104" lon="24.985945">
				<ele>1369.000000</ele>
				<time>2025-07-12T09:02:57Z</time>
			</trkpt>
			<trkpt lat="42.763095" lon="24.985937">
				<ele>1369.000000</ele>
				<time>2025-07-12T09:02:59Z</time>
			</trkpt>
			<trkpt lat="42.763077" lon="24.985906">
				<ele>1369.000000</ele>
				<time>2025-07-12T09:03:03Z</time>
			</trkpt>
			<trkpt lat="42.763054" lon="24.985883">
				<ele>1370.000000</ele>
				<time>2025-07-12T09:03:07Z</time>
			</trkpt>
			<trkpt lat="42.763012" lon="24.985824">
				<ele>1370.000000</ele>
				<time>2025-07-12T09:03:14Z</time>
			</trkpt>
			<trkpt lat="42.762962" lon="24.985775">
				<ele>1371.000000</ele>
				<time>2025-07-12T09:03:20Z</time>
			</trkpt>
			<trkpt lat="42.762917" lon="24.985720">
				<ele>1371.000000</ele>
				<time>2025-07-12T09:03:26Z</time>
			</trkpt>
			<trkpt lat="42.762912" lon="24.985710">
				<ele>1371.000000</ele>
				<time>2025-07-12T09:03:27Z</time>
			</trkpt>
			<trkpt lat="42.762868" lon="24.985655">
				<ele>1372.000000</ele>
				<time>2025-07-12T09:03:35Z</time>
			</trkpt>
			<trkpt lat="42.762854" lon="24.985637">
				<ele>1372.000000</ele>
				<time>2025-07-12T09:03:37Z</time>
			</trkpt>
			<trkpt lat="42.762826" lon="24.985583">
				<ele>1373.000000</ele>
				<time>2025-07-12T09:03:43Z</time>
			</trkpt>
			<trkpt lat="42.762808" lon="24.985559">
				<ele>1373.000000</ele>
				<time>2025-07-12T09:03:46Z</time>
			</trkpt>
			<trkpt lat="42.762793" lon="24.985535">
				<ele>1374.000000</ele>
				<time>2025-07-12T09:03:49Z</time>
			</trkpt>
			<trkpt lat="42.762777" lon="24.985478">
				<ele>1374.000000</ele>
				<time>2025-07-12T09:03:55Z</time>
			</trkpt>
			<trkpt lat="42.762754" lon="24.985441">
				<ele>1375.000000</ele>
				<time>2025-07-12T09:03:59Z</time>
			</trkpt>
			<trkpt lat="42.762732" lon="24.985418">
				<ele>1376.000000</ele>
				<time>2025-07-12T09:04:02Z</time>
			</trkpt>
			<trkpt lat="42.762701" lon="24.985384">
				<ele>1376.000000</ele>
				<time>2025-07-12T09:04:06Z</time>
			</trkpt>
			<trkpt lat="42.762684" lon="24.985367">
				<ele>1377.000000</ele>
				<time>2025-07-12T09:04:08Z</time>
			</trkpt>
			<trkpt lat="42.762661" lon="24.985346">
				<ele>1377.000000</ele>
				<time>2025-07-12T09:04:12Z</time>
			</trkpt>
			<trkpt lat="42.762641" lon="24.985354">
				<ele>1378.000000</ele>
				<time>2025-07-12T09:04:16Z</time>
			</trkpt>
			<trkpt lat="42.762627" lon="24.985375">
				<ele>1378.000000</ele>
				<time>2025-07-12T09:04:19Z</time>
			</trkpt>
			<trkpt lat="42.762602" lon="24.985411">
				<ele>1379.000000</ele>
				<time>2025-07-12T09:04:23Z</time>
			</trkpt>
			<trkpt lat="42.762600" lon="24.985449">
				<ele>1380.000000</ele>
				<time>2025-07-12T09:04:28Z</time>
			</trkpt>
			<trkpt lat="42.762601" lon="24.985460">
				<ele>1380.000000</ele>
				<time>2025-07-12T09:04:30Z</time>
			</trkpt>
			<trkpt lat="42.762600" lon="24.985513">
				<ele>1380.000000</ele>
				<time>2025-07-12T09:04:35Z</time>
			</trkpt>
			<trkpt lat="42.762597" lon="24.985555">
				<ele>1381.000000</ele>
				<time>2025-07-12T09:04:39Z</time>
			</trkpt>
			<trkpt lat="42.762602" lon="24.985602">
				<ele>1381.000000</ele>
				<time>2025-07-12T09:04:43Z</time>
			</trkpt>
			<trkpt lat="42.762602" lon="24.985647">
				<ele>1382.000000</ele>
				<time>2025-07-12T09:04:47Z</time>
			</trkpt>
			<trkpt lat="42.762598" lon="24.985671">
				<ele>1382.000000</ele>
				<time>2025-07-12T09:04:49Z</time>
			</trkpt>
			<trkpt lat="42.762613" lon="24.985726">
				<ele>1383.000000</ele>
				<time>2025-07-12T09:04:56Z</time>
			</trkpt>
			<trkpt lat="42.762612" lon="24.985736">
				<ele>1383.000000</ele>
				<time>2025-07-12T09:04:58Z</time>
			</trkpt>
			<trkpt lat="42.762609" lon="24.985747">
				<ele>1383.000000</ele>
				<time>2025-07-12T09:05:03Z</time>
			</trkpt>
			<trkpt lat="42.762626" lon="24.985822">
				<ele>1384.000000</ele>
				<time>2025-07-12T09:05:10Z</time>
			</trkpt>
			<trkpt lat="42.762629" lon="24.985832">
				<ele>1384.000000</ele>
				<time>2025-07-12T09:05:11Z</time>
			</trkpt>
			<trkpt lat="42.762658" lon="24.985897">
				<ele>1385.000000</ele>
				<time>2025-07-12T09:05:17Z</time>
			</trkpt>
			<trkpt lat="42.762705" lon="24.985950">
				<ele>1385.000000</ele>
				<time>2025-07-12T09:05:23Z</time>
			</trkpt>
			<trkpt lat="42.762730" lon="24.986013">
				<ele>1385.000000</ele>
				<time>2025-07-12T09:05:29Z</time>
			</trkpt>
			<trkpt lat="42.762730" lon="24.986020">
				<ele>1385.000000</ele>
				<time>2025-07-12T09:05:30Z</time>
			</trkpt>
			<trkpt lat="42.762749" lon="24.986086">
				<ele>1386.000000</ele>
				<time>2025-07-12T09:05:36Z</time>
			</trkpt>
			<trkpt lat="42.762801" lon="24.986174">
				<ele>1386.000000</ele>
				<time>2025-07-12T09:05:45Z</time>
			</trkpt>
			<trkpt lat="42.762824" lon="24.986216">
				<ele>1386.000000</ele>
				<time>2025-07-12T09:05:51Z</time>
			</trkpt>
			<trkpt lat="42.762830" lon="24.986237">
				<ele>1386.000000</ele>
				<time>2025-07-12T09:05:53Z</time>
			</trkpt>
			<trkpt lat="42.762860" lon="24.986292">
				<ele>1386.000000</ele>
				<time>2025-07-12T09:05:58Z</time>
			</trkpt>
			<trkpt lat="42.762881" lon="24.986325">
				<ele>1386.000000</ele>
				<time>2025-07-12T09:06:01Z</time>
			</trkpt>
			<trkpt lat="42.762889" lon="24.986334">
				<ele>1386.000000</ele>
				<time>2025-07-12T09:06:02Z</time>
			</trkpt>
			<trkpt lat="42.762947" lon="24.986412">
				<ele>1387.000000</ele>
				<time>2025-07-12T09:06:10Z</time>
			</trkpt>
			<trkpt lat="42.762995" lon="24.986506">
				<ele>1386.000000</ele>
				<time>2025-07-12T09:06:19Z</time>
			</trkpt>
			<trkpt lat="42.763021" lon="24.986553">
				<ele>1386.000000</ele>
				<time>2025-07-12T09:06:24Z</time>
			</trkpt>
			<trkpt lat="42.763026" lon="24.986559">
				<ele>1387.000000</ele>
				<time>2025-07-12T09:06:25Z</time>
			</trkpt>
			<trkpt lat="42.763036" lon="24.986575">
				<ele>1387.000000</ele>
				<time>2025-07-12T09:06:27Z</time>
			</trkpt>
			<trkpt lat="42.763069" lon="24.986659">
				<ele>1387.000000</ele>
				<time>2025-07-12T09:06:35Z</time>
			</trkpt>
			<trkpt lat="42.763069" lon="24.986668">
				<ele>1387.000000</ele>
				<time>2025-07-12T09:06:38Z</time>
			</trkpt>
			<trkpt lat="42.763082" lon="24.986684">
				<ele>1387.000000</ele>
				<time>2025-07-12T09:06:40Z</time>
			</trkpt>
			<trkpt lat="42.763086" lon="24.986695">
				<ele>1387.000000</ele>
				<time>2025-07-12T09:06:41Z</time>
			</trkpt>
			<trkpt lat="42.763093" lon="24.986711">
				<ele>1387.000000</ele>
				<time>2025-07-12T09:06:42Z</time>
			</trkpt>
			<trkpt lat="42.763115" lon="24.986767">
				<ele>1387.000000</ele>
				<time>2025-07-12T09:06:49Z</time>
			</trkpt>
			<trkpt lat="42.763106" lon="24.986769">
				<ele>1387.000000</ele>
				<time>2025-07-12T09:06:51Z</time>
			</trkpt>
			<trkpt lat="42.763105" lon="24.986769">
				<ele>1387.000000</ele>
				<time>2025-07-12T09:06:52Z</time>
			</trkpt>
			<trkpt lat="42.763099" lon="24.986785">
				<ele>1387.000000</ele>
				<time>2025-07-12T09:06:56Z</time>
			</trkpt>
			<trkpt lat="42.763132" lon="24.986828">
				<ele>1387.000000</ele>
				<time>2025-07-12T09:07:05Z</time>
			</trkpt>
			<trkpt lat="42.763138" lon="24.986897">
				<ele>1388.000000</ele>
				<time>2025-07-12T09:07:12Z</time>
			</trkpt>
			<trkpt lat="42.763139" lon="24.986923">
				<ele>1388.000000</ele>
				<time>2025-07-12T09:07:14Z</time>
			</trkpt>
			<trkpt lat="42.763140" lon="24.986935">
				<ele>1388.000000</ele>
				<time>2025-07-12T09:07:15Z</time>
			</trkpt>
			<trkpt lat="42.763145" lon="24.986963">
				<ele>1388.000000</ele>
				<time>2025-07-12T09:07:18Z</time>
			</trkpt>
			<trkpt lat="42.763146" lon="24.987003">
				<ele>1389.000000</ele>
				<time>2025-07-12T09:07:23Z</time>
			</trkpt>
			<trkpt lat="42.763138" lon="24.987039">
				<ele>1389.000000</ele>
				<time>2025-07-12T09:07:26Z</time>
			</trkpt>
			<trkpt lat="42.763117" lon="24.987076">
				<ele>1389.000000</ele>
				<time>2025-07-12T09:07:30Z</time>
			</trkpt>
			<trkpt lat="42.763099" lon="24.987102">
				<ele>1389.000000</ele>
				<time>2025-07-12T09:07:34Z</time>
			</trkpt>
			<trkpt lat="42.763088" lon="24.987110">
				<ele>1390.000000</ele>
				<time>2025-07-12T09:07:36Z</time>
			</trkpt>
			<trkpt lat="42.763052" lon="24.987159">
				<ele>1390.000000</ele>
				<time>2025-07-12T09:07:43Z</time>
			</trkpt>
			<trkpt lat="42.763045" lon="24.987167">
				<ele>1390.000000</ele>
				<time>2025-07-12T09:07:44Z</time>
			</trkpt>
			<trkpt lat="42.763008" lon="24.987200">
				<ele>1392.000000</ele>
				<time>2025-07-12T09:07:50Z</time>
			</trkpt>
			<trkpt lat="42.763001" lon="24.987206">
				<ele>1392.000000</ele>
				<time>2025-07-12T09:07:51Z</time>
			</trkpt>
			<trkpt lat="42.762936" lon="24.987200">
				<ele>1392.000000</ele>
				<time>2025-07-12T09:07:58Z</time>
			</trkpt>
			<trkpt lat="42.762915" lon="24.987194">
				<ele>1392.000000</ele>
				<time>2025-07-12T09:08:03Z</time>
			</trkpt>
			<trkpt lat="42.762913" lon="24.987198">
				<ele>1393.000000</ele>
				<time>2025-07-12T09:08:06Z</time>
			</trkpt>
			<trkpt lat="42.762907" lon="24.987186">
				<ele>1393.000000</ele>
				<time>2025-07-12T09:08:08Z</time>
			</trkpt>
			<trkpt lat="42.762851" lon="24.987148">
				<ele>1393.000000</ele>
				<time>2025-07-12T09:08:16Z</time>
			</trkpt>
			<trkpt lat="42.762848" lon="24.987145">
				<ele>1394.000000</ele>
				<time>2025-07-12T09:08:18Z</time>
			</trkpt>
			<trkpt lat="42.762833" lon="24.987139">
				<ele>1394.000000</ele>
				<time>2025-07-12T09:08:21Z</time>
			</trkpt>
			<trkpt lat="42.762820" lon="24.987133">
				<ele>1394.000000</ele>
				<time>2025-07-12T09:08:23Z</time>
			</trkpt>
			<trkpt lat="42.762792" lon="24.987117">
				<ele>1395.000000</ele>
				<time>2025-07-12T09:08:27Z</time>
			</trkpt>
			<trkpt lat="42.762771" lon="24.987105">
				<ele>1395.000000</ele>
				<time>2025-07-12T09:08:30Z</time>
			</trkpt>
			<trkpt lat="42.762746" lon="24.987061">
				<ele>1396.000000</ele>
				<time>2025-07-12T09:08:36Z</time>
			</trkpt>
			<trkpt lat="42.762746" lon="24.987058">
				<ele>1396.000000</ele>
				<time>2025-07-12T09:08:37Z</time>
			</trkpt>
			<trkpt lat="42.762738" lon="24.987034">
				<ele>1396.000000</ele>
				<time>2025-07-12T09:08:44Z</time>
			</trkpt>
			<trkpt lat="42.762727" lon="24.987026">
				<ele>1396.000000</ele>
				<time>2025-07-12T09:08:51Z</time>
			</trkpt>
			<trkpt lat="42.762715" lon="24.987018">
				<ele>1396.000000</ele>
				<time>2025-07-12T09:08:53Z</time>
			</trkpt>
			<trkpt lat="42.762696" lon="24.986999">
				<ele>1397.000000</ele>
				<time>2025-07-12T09:08:56Z</time>
			</trkpt>
			<trkpt lat="42.762686" lon="24.986944">
				<ele>1398.000000</ele>
				<time>2025-07-12T09:09:01Z</time>
			</trkpt>
			<trkpt lat="42.762691" lon="24.986903">
				<ele>1398.000000</ele>
				<time>2025-07-12T09:09:04Z</time>
			</trkpt>
			<trkpt lat="42.762692" lon="24.986840">
				<ele>1399.000000</ele>
				<time>2025-07-12T09:09:09Z</time>
			</trkpt>
			<trkpt lat="42.762690" lon="24.986806">
				<ele>1399.000000</ele>
				<time>2025-07-12T09:09:13Z</time>
			</trkpt>
			<trkpt lat="42.762687" lon="24.986794">
				<ele>1399.000000</ele>
				<time>2025-07-12T09:09:16Z</time>
			</trkpt>
			<trkpt lat="42.762681" lon="24.986740">
				<ele>1399.000000</ele>
				<time>2025-07-12T09:09:23Z</time>
			</trkpt>
			<trkpt lat="42.762655" lon="24.986668">
				<ele>1399.000000</ele>
				<time>2025-07-12T09:09:30Z</time>
			</trkpt>
			<trkpt lat="42.762621" lon="24.986600">
				<ele>1399.000000</ele>
				<time>2025-07-12T09:09:37Z</time>
			</trkpt>
			<trkpt lat="42.762597" lon="24.986551">
				<ele>1399.000000</ele>
				<time>2025-07-12T09:09:46Z</time>
			</trkpt>
			<trkpt lat="42.762556" lon="24.986522">
				<ele>1399.000000</ele>
				<time>2025-07-12T09:09:54Z</time>
			</trkpt>
			<trkpt lat="42.762531" lon="24.986503">
				<ele>1399.000000</ele>
				<time>2025-07-12T09:09:57Z</time>
			</trkpt>
			<trkpt lat="42.762525" lon="24.986495">
				<ele>1399.000000</ele>
				<time>2025-07-12T09:09:58Z</time>
			</trkpt>
			<trkpt lat="42.762498" lon="24.986448">
				<ele>1399.000000</ele>
				<time>2025-07-12T09:10:03Z</time>
			</trkpt>
			<trkpt lat="42.762466" lon="24.986389">
				<ele>1399.000000</ele>
				<time>2025-07-12T09:10:11Z</time>
			</trkpt>
			<trkpt lat="42.762412" lon="24.986327">
				<ele>1399.000000</ele>
				<time>2025-07-12T09:10:20Z</time>
			</trkpt>
			<trkpt lat="42.762391" lon="24.986290">
				<ele>1399.000000</ele>
				<time>2025-07-12T09:10:24Z</time>
			</trkpt>
			<trkpt lat="42.762375" lon="24.986274">
				<ele>1399.000000</ele>
				<time>2025-07-12T09:10:27Z</time>
			</trkpt>
			<trkpt lat="42.762336" lon="24.986215">
				<ele>1400.000000</ele>
				<time>2025-07-12T09:10:33Z</time>
			</trkpt>
			<trkpt lat="42.762329" lon="24.986204">
				<ele>1400.000000</ele>
				<time>2025-07-12T09:10:34Z</time>
			</trkpt>
			<trkpt lat="42.762304" lon="24.986169">
				<ele>1400.000000</ele>
				<time>2025-07-12T09:10:38Z</time>
			</trkpt>
			<trkpt lat="42.762284" lon="24.986142">
				<ele>1401.000000</ele>
				<time>2025-07-12T09:10:41Z</time>
			</trkpt>
			<trkpt lat="42.762247" lon="24.986087">
				<ele>1401.000000</ele>
				<time>2025-07-12T09:10:47Z</time>
			</trkpt>
			<trkpt lat="42.762241" lon="24.986081">
				<ele>1401.000000</ele>
				<time>2025-07-12T09:10:48Z</time>
			</trkpt>
			<trkpt lat="42.762235" lon="24.986071">
				<ele>1401.000000</ele>
				<time>2025-07-12T09:10:49Z</time>
			</trkpt>
			<trkpt lat="42.762206" lon="24.985980">
				<ele>1402.000000</ele>
				<time>2025-07-12T09:10:57Z</time>
			</trkpt>
			<trkpt lat="42.762194" lon="24.985957">
				<ele>1402.000000</ele>
				<time>2025-07-12T09:11:00Z</time>
			</trkpt>
			<trkpt lat="42.762172" lon="24.985920">
				<ele>1403.000000</ele>
				<time>2025-07-12T09:11:04Z</time>
			</trkpt>
			<trkpt lat="42.762146" lon="24.985878">
				<ele>1403.000000</ele>
				<time>2025-07-12T09:11:10Z</time>
			</trkpt>
			<trkpt lat="42.762140" lon="24.985855">
				<ele>1404.000000</ele>
				<time>2025-07-12T09:11:12Z</time>
			</trkpt>
			<trkpt lat="42.762112" lon="24.985776">
				<ele>1404.000000</ele>
				<time>2025-07-12T09:11:19Z</time>
			</trkpt>
			<trkpt lat="42.762101" lon="24.985751">
				<ele>1404.000000</ele>
				<time>2025-07-12T09:11:22Z</time>
			</trkpt>
			<trkpt lat="42.762089" lon="24.985722">
				<ele>1405.000000</ele>
				<time>2025-07-12T09:11:25Z</time>
			</trkpt>
			<trkpt lat="42.762090" lon="24.985714">
				<ele>1405.000000</ele>
				<time>2025-07-12T09:11:26Z</time>
			</trkpt>
			<trkpt lat="42.762093" lon="24.985706">
				<ele>1405.000000</ele>
				<time>2025-07-12T09:11:27Z</time>
			</trkpt>
			<trkpt lat="42.762081" lon="24.985709">
				<ele>1405.000000</ele>
				<time>2025-07-12T09:11:36Z</time>
			</trkpt>
			<trkpt lat="42.762053" lon="24.985688">
				<ele>1405.000000</ele>
				<time>2025-07-12T09:11:42Z</time>
			</trkpt>
			<trkpt lat="42.762047" lon="24.985670">
				<ele>1405.000000</ele>
				<time>2025-07-12T09:11:44Z</time>
			</trkpt>
			<trkpt lat="42.762043" lon="24.985627">
				<ele>1406.000000</ele>
				<time>2025-07-12T09:11:51Z</time>
			</trkpt>
			<trkpt lat="42.762037" lon="24.985557">
				<ele>1406.000000</ele>
				<time>2025-07-12T09:11:57Z</time>
			</trkpt>
			<trkpt lat="42.762030" lon="24.985537">
				<ele>1407.000000</ele>
				<time>2025-07-12T09:11:59Z</time>
			</trkpt>
			<trkpt lat="42.762024" lon="24.985504">
				<ele>1407.000000</ele>
				<time>2025-07-12T09:12:02Z</time>
			</trkpt>
			<trkpt lat="42.762023" lon="24.985496">
				<ele>1407.000000</ele>
				<time>2025-07-12T09:12:03Z</time>
			</trkpt>
			<trkpt lat="42.762019" lon="24.985431">
				<ele>1407.000000</ele>
				<time>2025-07-12T09:12:10Z</time>
			</trkpt>
			<trkpt lat="42.762018" lon="24.985422">
				<ele>1408.000000</ele>
				<time>2025-07-12T09:12:11Z</time>
			</trkpt>
			<trkpt lat="42.762007" lon="24.985356">
				<ele>1408.000000</ele>
				<time>2025-07-12T09:12:17Z</time>
			</trkpt>
			<trkpt lat="42.761999" lon="24.985324">
				<ele>1409.000000</ele>
				<time>2025-07-12T09:12:20Z</time>
			</trkpt>
			<trkpt lat="42.762002" lon="24.985281">
				<ele>1409.000000</ele>
				<time>2025-07-12T09:12:24Z</time>
			</trkpt>
			<trkpt lat="42.761998" lon="24.985273">
				<ele>1409.000000</ele>
				<time>2025-07-12T09:12:25Z</time>
			</trkpt>
			<trkpt lat="42.761981" lon="24.985233">
				<ele>1410.000000</ele>
				<time>2025-07-12T09:12:29Z</time>
			</trkpt>
			<trkpt lat="42.761976" lon="24.985224">
				<ele>1410.000000</ele>
				<time>2025-07-12T09:12:30Z</time>
			</trkpt>
			<trkpt lat="42.761957" lon="24.985181">
				<ele>1410.000000</ele>
				<time>2025-07-12T09:12:34Z</time>
			</trkpt>
			<trkpt lat="42.761950" lon="24.985148">
				<ele>1411.000000</ele>
				<time>2025-07-12T09:12:38Z</time>
			</trkpt>
			<trkpt lat="42.761941" lon="24.985100">
				<ele>1411.000000</ele>
				<time>2025-07-12T09:12:42Z</time>
			</trkpt>
			<trkpt lat="42.761934" lon="24.985076">
				<ele>1412.000000</ele>
				<time>2025-07-12T09:12:45Z</time>
			</trkpt>
			<trkpt lat="42.761896" lon="24.985044">
				<ele>1412.000000</ele>
				<time>2025-07-12T09:12:51Z</time>
			</trkpt>
			<trkpt lat="42.761866" lon="24.985060">
				<ele>1413.000000</ele>
				<time>2025-07-12T09:12:55Z</time>
			</trkpt>
			<trkpt lat="42.761860" lon="24.985096">
				<ele>1414.000000</ele>
				<time>2025-07-12T09:12:59Z</time>
			</trkpt>
			<trkpt lat="42.761861" lon="24.985127">
				<ele>1414.000000</ele>
				<time>2025-07-12T09:13:02Z</time>
			</trkpt>
			<trkpt lat="42.761864" lon="24.985170">
				<ele>1415.000000</ele>
				<time>2025-07-12T09:13:05Z</time>
			</trkpt>
			<trkpt lat="42.761865" lon="24.985222">
				<ele>1415.000000</ele>
				<time>2025-07-12T09:13:12Z</time>
			</trkpt>
			<trkpt lat="42.761872" lon="24.985320">
				<ele>1415.000000</ele>
				<time>2025-07-12T09:13:19Z</time>
			</trkpt>
			<trkpt lat="42.761877" lon="24.985431">
				<ele>1416.000000</ele>
				<time>2025-07-12T09:13:29Z</time>
			</trkpt>
			<trkpt lat="42.761866" lon="24.985566">
				<ele>1417.000000</ele>
				<time>2025-07-12T09:13:39Z</time>
			</trkpt>
			<trkpt lat="42.761856" lon="24.985592">
				<ele>1417.000000</ele>
				<time>2025-07-12T09:13:42Z</time>
			</trkpt>
			<trkpt lat="42.761842" lon="24.985641">
				<ele>1418.000000</ele>
				<time>2025-07-12T09:13:47Z</time>
			</trkpt>
			<trkpt lat="42.761856" lon="24.985729">
				<ele>1418.000000</ele>
				<time>2025-07-12T09:13:55Z</time>
			</trkpt>
			<trkpt lat="42.761854" lon="24.985777">
				<ele>1418.000000</ele>
				<time>2025-07-12T09:13:59Z</time>
			</trkpt>
			<trkpt lat="42.761828" lon="24.985822">
				<ele>1418.000000</ele>
				<time>2025-07-12T09:14:05Z</time>
			</trkpt>
			<trkpt lat="42.761836" lon="24.985885">
				<ele>1419.000000</ele>
				<time>2025-07-12T09:14:13Z</time>
			</trkpt>
			<trkpt lat="42.761841" lon="24.985908">
				<ele>1419.000000</ele>
				<time>2025-07-12T09:14:15Z</time>
			</trkpt>
			<trkpt lat="42.761858" lon="24.985957">
				<ele>1419.000000</ele>
				<time>2025-07-12T09:14:20Z</time>
			</trkpt>
			<trkpt lat="42.761866" lon="24.985996">
				<ele>1420.000000</ele>
				<time>2025-07-12T09:14:24Z</time>
			</trkpt>
			<trkpt lat="42.761861" lon="24.986067">
				<ele>1420.000000</ele>
				<time>2025-07-12T09:14:31Z</time>
			</trkpt>
			<trkpt lat="42.761859" lon="24.986077">
				<ele>1420.000000</ele>
				<time>2025-07-12T09:14:32Z</time>
			</trkpt>
			<trkpt lat="42.761853" lon="24.986133">
				<ele>1421.000000</ele>
				<time>2025-07-12T09:14:39Z</time>
			</trkpt>
			<trkpt lat="42.761847" lon="24.986211">
				<ele>1421.000000</ele>
				<time>2025-07-12T09:14:47Z</time>
			</trkpt>
			<trkpt lat="42.761845" lon="24.986227">
				<ele>1421.000000</ele>
				<time>2025-07-12T09:14:48Z</time>
			</trkpt>
			<trkpt lat="42.761828" lon="24.986272">
				<ele>1422.000000</ele>
				<time>2025-07-12T09:14:55Z</time>
			</trkpt>
			<trkpt lat="42.761805" lon="24.986311">
				<ele>1422.000000</ele>
				<time>2025-07-12T09:15:00Z</time>
			</trkpt>
			<trkpt lat="42.761804" lon="24.986321">
				<ele>1422.000000</ele>
				<time>2025-07-12T09:15:01Z</time>
			</trkpt>
			<trkpt lat="42.761803" lon="24.986334">
				<ele>1423.000000</ele>
				<time>2025-07-12T09:15:03Z</time>
			</trkpt>
			<trkpt lat="42.761774" lon="24.986410">
				<ele>1423.000000</ele>
				<time>2025-07-12T09:15:11Z</time>
			</trkpt>
			<trkpt lat="42.761750" lon="24.986445">
				<ele>1424.000000</ele>
				<time>2025-07-12T09:15:15Z</time>
			</trkpt>
			<trkpt lat="42.761715" lon="24.986494">
				<ele>1424.000000</ele>
				<time>2025-07-12T09:15:21Z</time>
			</trkpt>
			<trkpt lat="42.761694" lon="24.986516">
				<ele>1425.000000</ele>
				<time>2025-07-12T09:15:25Z</time>
			</trkpt>
			<trkpt lat="42.761672" lon="24.986543">
				<ele>1425.000000</ele>
				<time>2025-07-12T09:15:29Z</time>
			</trkpt>
			<trkpt lat="42.761633" lon="24.986570">
				<ele>1426.000000</ele>
				<time>2025-07-12T09:15:35Z</time>
			</trkpt>
			<trkpt lat="42.761594" lon="24.986571">
				<ele>1426.000000</ele>
				<time>2025-07-12T09:15:42Z</time>
			</trkpt>
			<trkpt lat="42.761608" lon="24.986557">
				<ele>1427.000000</ele>
				<time>2025-07-12T09:15:48Z</time>
			</trkpt>
			<trkpt lat="42.761611" lon="24.986553">
				<ele>1427.000000</ele>
				<time>2025-07-12T09:15:49Z</time>
			</trkpt>
			<trkpt lat="42.761615" lon="24.986551">
				<ele>1427.000000</ele>
				<time>2025-07-12T09:15:52Z</time>
			</trkpt>
			<trkpt lat="42.761595" lon="24.986573">
				<ele>1426.000000</ele>
				<time>2025-07-12T09:16:03Z</time>
			</trkpt>
			<trkpt lat="42.761616" lon="24.986565">
				<ele>1426.000000</ele>
				<time>2025-07-12T09:16:10Z</time>
			</trkpt>
			<trkpt lat="42.761617" lon="24.986563">
				<ele>1426.000000</ele>
				<time>2025-07-12T09:16:16Z</time>
			</trkpt>
			<trkpt lat="42.761608" lon="24.986563">
				<ele>1426.000000</ele>
				<time>2025-07-12T09:16:26Z</time>
			</trkpt>
			<trkpt lat="42.761603" lon="24.986561">
				<ele>1426.000000</ele>
				<time>2025-07-12T09:16:28Z</time>
			</trkpt>
			<trkpt lat="42.761602" lon="24.986559">
				<ele>1426.000000</ele>
				<time>2025-07-12T09:16:32Z</time>
			</trkpt>
			<trkpt lat="42.761537" lon="24.986613">
				<ele>1421.000000</ele>
				<time>2025-07-12T09:20:45Z</time>
			</trkpt>
			<trkpt lat="42.761539" lon="24.986610">
				<ele>1421.000000</ele>
				<time>2025-07-12T09:20:46Z</time>
			</trkpt>
			<trkpt lat="42.761544" lon="24.986612">
				<ele>1421.000000</ele>
				<time>2025-07-12T09:20:49Z</time>
			</trkpt>
			<trkpt lat="42.761505" lon="24.986644">
				<ele>1421.000000</ele>
				<time>2025-07-12T09:20:56Z</time>
			</trkpt>
			<trkpt lat="42.761458" lon="24.986665">
				<ele>1422.000000</ele>
				<time>2025-07-12T09:21:03Z</time>
			</trkpt>
			<trkpt lat="42.761419" lon="24.986685">
				<ele>1422.000000</ele>
				<time>2025-07-12T09:21:10Z</time>
			</trkpt>
			<trkpt lat="42.761405" lon="24.986692">
				<ele>1422.000000</ele>
				<time>2025-07-12T09:21:12Z</time>
			</trkpt>
			<trkpt lat="42.761385" lon="24.986715">
				<ele>1423.000000</ele>
				<time>2025-07-12T09:21:18Z</time>
			</trkpt>
			<trkpt lat="42.761330" lon="24.986739">
				<ele>1423.000000</ele>
				<time>2025-07-12T09:21:26Z</time>
			</trkpt>
			<trkpt lat="42.761314" lon="24.986731">
				<ele>1423.000000</ele>
				<time>2025-07-12T09:21:28Z</time>
			</trkpt>
			<trkpt lat="42.761295" lon="24.986705">
				<ele>1424.000000</ele>
				<time>2025-07-12T09:21:32Z</time>
			</trkpt>
			<trkpt lat="42.761289" lon="24.986700">
				<ele>1424.000000</ele>
				<time>2025-07-12T09:21:33Z</time>
			</trkpt>
			<trkpt lat="42.761274" lon="24.986681">
				<ele>1425.000000</ele>
				<time>2025-07-12T09:21:36Z</time>
			</trkpt>
			<trkpt lat="42.761259" lon="24.986667">
				<ele>1425.000000</ele>
				<time>2025-07-12T09:21:39Z</time>
			</trkpt>
			<trkpt lat="42.761254" lon="24.986646">
				<ele>1426.000000</ele>
				<time>2025-07-12T09:21:41Z</time>
			</trkpt>
			<trkpt lat="42.761284" lon="24.986601">
				<ele>1426.000000</ele>
				<time>2025-07-12T09:21:47Z</time>
			</trkpt>
			<trkpt lat="42.761295" lon="24.986591">
				<ele>1427.000000</ele>
				<time>2025-07-12T09:21:49Z</time>
			</trkpt>
			<trkpt lat="42.761327" lon="24.986557">
				<ele>1427.000000</ele>
				<time>2025-07-12T09:21:55Z</time>
			</trkpt>
			<trkpt lat="42.761360" lon="24.986482">
				<ele>1428.000000</ele>
				<time>2025-07-12T09:22:02Z</time>
			</trkpt>
			<trkpt lat="42.761403" lon="24.986444">
				<ele>1429.000000</ele>
				<time>2025-07-12T09:22:09Z</time>
			</trkpt>
			<trkpt lat="42.761412" lon="24.986437">
				<ele>1429.000000</ele>
				<time>2025-07-12T09:22:10Z</time>
			</trkpt>
			<trkpt lat="42.761451" lon="24.986355">
				<ele>1429.000000</ele>
				<time>2025-07-12T09:22:17Z</time>
			</trkpt>
			<trkpt lat="42.761473" lon="24.986313">
				<ele>1430.000000</ele>
				<time>2025-07-12T09:22:22Z</time>
			</trkpt>
			<trkpt lat="42.761475" lon="24.986280">
				<ele>1429.000000</ele>
				<time>2025-07-12T09:22:25Z</time>
			</trkpt>
			<trkpt lat="42.761492" lon="24.986233">
				<ele>1430.000000</ele>
				<time>2025-07-12T09:22:30Z</time>
			</trkpt>
			<trkpt lat="42.761495" lon="24.986173">
				<ele>1430.000000</ele>
				<time>2025-07-12T09:22:36Z</time>
			</trkpt>
			<trkpt lat="42.761495" lon="24.986149">
				<ele>1431.000000</ele>
				<time>2025-07-12T09:22:44Z</time>
			</trkpt>
			<trkpt lat="42.761494" lon="24.986107">
				<ele>1431.000000</ele>
				<time>2025-07-12T09:22:51Z</time>
			</trkpt>
			<trkpt lat="42.761492" lon="24.986097">
				<ele>1431.000000</ele>
				<time>2025-07-12T09:22:52Z</time>
			</trkpt>
			<trkpt lat="42.761480" lon="24.986011">
				<ele>1432.000000</ele>
				<time>2025-07-12T09:23:00Z</time>
			</trkpt>
			<trkpt lat="42.761481" lon="24.985973">
				<ele>1432.000000</ele>
				<time>2025-07-12T09:23:05Z</time>
			</trkpt>
			<trkpt lat="42.761481" lon="24.985969">
				<ele>1432.000000</ele>
				<time>2025-07-12T09:23:06Z</time>
			</trkpt>
			<trkpt lat="42.761482" lon="24.985925">
				<ele>1432.000000</ele>
				<time>2025-07-12T09:23:10Z</time>
			</trkpt>
			<trkpt lat="42.761477" lon="24.985905">
				<ele>1433.000000</ele>
				<time>2025-07-12T09:23:12Z</time>
			</trkpt>
			<trkpt lat="42.761471" lon="24.985899">
				<ele>1433.000000</ele>
				<time>2025-07-12T09:23:14Z</time>
			</trkpt>
			<trkpt lat="42.761464" lon="24.985887">
				<ele>1433.000000</ele>
				<time>2025-07-12T09:23:16Z</time>
			</trkpt>
			<trkpt lat="42.761445" lon="24.985815">
				<ele>1434.000000</ele>
				<time>2025-07-12T09:23:24Z</time>
			</trkpt>
			<trkpt lat="42.761442" lon="24.985803">
				<ele>1434.000000</ele>
				<time>2025-07-12T09:23:25Z</time>
			</trkpt>
			<trkpt lat="42.761431" lon="24.985761">
				<ele>1435.000000</ele>
				<time>2025-07-12T09:23:31Z</time>
			</trkpt>
			<trkpt lat="42.761419" lon="24.985722">
				<ele>1435.000000</ele>
				<time>2025-07-12T09:23:35Z</time>
			</trkpt>
			<trkpt lat="42.761395" lon="24.985667">
				<ele>1436.000000</ele>
				<time>2025-07-12T09:23:40Z</time>
			</trkpt>
			<trkpt lat="42.761384" lon="24.985646">
				<ele>1436.000000</ele>
				<time>2025-07-12T09:23:43Z</time>
			</trkpt>
			<trkpt lat="42.761361" lon="24.985592">
				<ele>1437.000000</ele>
				<time>2025-07-12T09:23:49Z</time>
			</trkpt>
			<trkpt lat="42.761352" lon="24.985575">
				<ele>1437.000000</ele>
				<time>2025-07-12T09:23:51Z</time>
			</trkpt>
			<trkpt lat="42.761335" lon="24.985553">
				<ele>1438.000000</ele>
				<time>2025-07-12T09:23:56Z</time>
			</trkpt>
			<trkpt lat="42.761337" lon="24.985539">
				<ele>1438.000000</ele>
				<time>2025-07-12T09:24:01Z</time>
			</trkpt>
			<trkpt lat="42.761334" lon="24.985541">
				<ele>1438.000000</ele>
				<time>2025-07-12T09:24:04Z</time>
			</trkpt>
			<trkpt lat="42.761327" lon="24.985503">
				<ele>1439.000000</ele>
				<time>2025-07-12T09:24:11Z</time>
			</trkpt>
			<trkpt lat="42.761329" lon="24.985490">
				<ele>1439.000000</ele>
				<time>2025-07-12T09:24:13Z</time>
			</trkpt>
			<trkpt lat="42.761327" lon="24.985489">
				<ele>1439.000000</ele>
				<time>2025-07-12T09:24:16Z</time>
			</trkpt>
			<trkpt lat="42.761325" lon="24.985490">
				<ele>1439.000000</ele>
				<time>2025-07-12T09:24:17Z</time>
			</trkpt>
			<trkpt lat="42.761316" lon="24.985464">
				<ele>1439.000000</ele>
				<time>2025-07-12T09:24:25Z</time>
			</trkpt>
			<trkpt lat="42.761283" lon="24.985430">
				<ele>1440.000000</ele>
				<time>2025-07-12T09:24:31Z</time>
			</trkpt>
			<trkpt lat="42.761271" lon="24.985413">
				<ele>1440.000000</ele>
				<time>2025-07-12T09:24:33Z</time>
			</trkpt>
			<trkpt lat="42.761255" lon="24.985376">
				<ele>1441.000000</ele>
				<time>2025-07-12T09:24:38Z</time>
			</trkpt>
			<trkpt lat="42.761256" lon="24.985358">
				<ele>1441.000000</ele>
				<time>2025-07-12T09:24:40Z</time>
			</trkpt>
			<trkpt lat="42.761245" lon="24.985317">
				<ele>1442.000000</ele>
				<time>2025-07-12T09:24:46Z</time>
			</trkpt>
			<trkpt lat="42.761239" lon="24.985295">
				<ele>1443.000000</ele>
				<time>2025-07-12T09:24:48Z</time>
			</trkpt>
			<trkpt lat="42.761228" lon="24.985266">
				<ele>1443.000000</ele>
				<time>2025-07-12T09:24:51Z</time>
			</trkpt>
			<trkpt lat="42.761219" lon="24.985236">
				<ele>1444.000000</ele>
				<time>2025-07-12T09:24:55Z</time>
			</trkpt>
			<trkpt lat="42.761214" lon="24.985206">
				<ele>1444.000000</ele>
				<time>2025-07-12T09:24:59Z</time>
			</trkpt>
			<trkpt lat="42.761213" lon="24.985197">
				<ele>1444.000000</ele>
				<time>2025-07-12T09:25:00Z</time>
			</trkpt>
			<trkpt lat="42.761199" lon="24.985144">
				<ele>1445.000000</ele>
				<time>2025-07-12T09:25:05Z</time>
			</trkpt>
			<trkpt lat="42.761189" lon="24.985126">
				<ele>1445.000000</ele>
				<time>2025-07-12T09:25:08Z</time>
			</trkpt>
			<trkpt lat="42.761183" lon="24.985085">
				<ele>1446.000000</ele>
				<time>2025-07-12T09:25:12Z</time>
			</trkpt>
			<trkpt lat="42.761156" lon="24.985026">
				<ele>1447.000000</ele>
				<time>2025-07-12T09:25:18Z</time>
			</trkpt>
			<trkpt lat="42.761151" lon="24.985021">
				<ele>1447.000000</ele>
				<time>2025-07-12T09:25:19Z</time>
			</trkpt>
			<trkpt lat="42.761142" lon="24.984984">
				<ele>1447.000000</ele>
				<time>2025-07-12T09:25:23Z</time>
			</trkpt>
			<trkpt lat="42.761127" lon="24.984945">
				<ele>1448.000000</ele>
				<time>2025-07-12T09:25:27Z</time>
			</trkpt>
			<trkpt lat="42.761117" lon="24.984930">
				<ele>1448.000000</ele>
				<time>2025-07-12T09:25:29Z</time>
			</trkpt>
			<trkpt lat="42.761059" lon="24.984876">
				<ele>1449.000000</ele>
				<time>2025-07-12T09:25:36Z</time>
			</trkpt>
			<trkpt lat="42.761047" lon="24.984870">
				<ele>1449.000000</ele>
				<time>2025-07-12T09:25:38Z</time>
			</trkpt>
			<trkpt lat="42.761016" lon="24.984861">
				<ele>1450.000000</ele>
				<time>2025-07-12T09:25:42Z</time>
			</trkpt>
			<trkpt lat="42.760967" lon="24.984805">
				<ele>1450.000000</ele>
				<time>2025-07-12T09:25:49Z</time>
			</trkpt>
			<trkpt lat="42.760938" lon="24.984746">
				<ele>1450.000000</ele>
				<time>2025-07-12T09:25:55Z</time>
			</trkpt>
			<trkpt lat="42.760936" lon="24.984733">
				<ele>1450.000000</ele>
				<time>2025-07-12T09:25:56Z</time>
			</trkpt>
			<trkpt lat="42.760937" lon="24.984625">
				<ele>1451.000000</ele>
				<time>2025-07-12T09:26:04Z</time>
			</trkpt>
			<trkpt lat="42.760963" lon="24.984552">
				<ele>1451.000000</ele>
				<time>2025-07-12T09:26:10Z</time>
			</trkpt>
			<trkpt lat="42.761008" lon="24.984478">
				<ele>1451.000000</ele>
				<time>2025-07-12T09:26:18Z</time>
			</trkpt>
			<trkpt lat="42.761030" lon="24.984438">
				<ele>1451.000000</ele>
				<time>2025-07-12T09:26:22Z</time>
			</trkpt>
			<trkpt lat="42.761056" lon="24.984401">
				<ele>1452.000000</ele>
				<time>2025-07-12T09:26:26Z</time>
			</trkpt>
			<trkpt lat="42.761089" lon="24.984326">
				<ele>1452.000000</ele>
				<time>2025-07-12T09:26:33Z</time>
			</trkpt>
			<trkpt lat="42.761111" lon="24.984263">
				<ele>1452.000000</ele>
				<time>2025-07-12T09:26:38Z</time>
			</trkpt>
			<trkpt lat="42.761117" lon="24.984237">
				<ele>1452.000000</ele>
				<time>2025-07-12T09:26:40Z</time>
			</trkpt>
			<trkpt lat="42.761137" lon="24.984202">
				<ele>1452.000000</ele>
				<time>2025-07-12T09:26:43Z</time>
			</trkpt>
			<trkpt lat="42.761157" lon="24.984175">
				<ele>1453.000000</ele>
				<time>2025-07-12T09:26:46Z</time>
			</trkpt>
			<trkpt lat="42.761161" lon="24.984143">
				<ele>1453.000000</ele>
				<time>2025-07-12T09:26:54Z</time>
			</trkpt>
			<trkpt lat="42.761159" lon="24.984135">
				<ele>1453.000000</ele>
				<time>2025-07-12T09:26:55Z</time>
			</trkpt>
			<trkpt lat="42.761140" lon="24.984114">
				<ele>1453.000000</ele>
				<time>2025-07-12T09:26:59Z</time>
			</trkpt>
			<trkpt lat="42.761140" lon="24.984129">
				<ele>1453.000000</ele>
				<time>2025-07-12T09:27:03Z</time>
			</trkpt>
			<trkpt lat="42.761152" lon="24.984127">
				<ele>1453.000000</ele>
				<time>2025-07-12T09:27:04Z</time>
			</trkpt>
			<trkpt lat="42.761184" lon="24.984098">
				<ele>1454.000000</ele>
				<time>2025-07-12T09:27:09Z</time>
			</trkpt>
			<trkpt lat="42.761220" lon="24.984045">
				<ele>1454.000000</ele>
				<time>2025-07-12T09:27:15Z</time>
			</trkpt>
			<trkpt lat="42.761239" lon="24.984006">
				<ele>1454.000000</ele>
				<time>2025-07-12T09:27:19Z</time>
			</trkpt>
			<trkpt lat="42.761241" lon="24.983992">
				<ele>1454.000000</ele>
				<time>2025-07-12T09:27:20Z</time>
			</trkpt>
			<trkpt lat="42.761242" lon="24.983970">
				<ele>1455.000000</ele>
				<time>2025-07-12T09:27:22Z</time>
			</trkpt>
			<trkpt lat="42.761253" lon="24.983911">
				<ele>1455.000000</ele>
				<time>2025-07-12T09:27:28Z</time>
			</trkpt>
			<trkpt lat="42.761259" lon="24.983888">
				<ele>1455.000000</ele>
				<time>2025-07-12T09:27:30Z</time>
			</trkpt>
			<trkpt lat="42.761256" lon="24.983836">
				<ele>1456.000000</ele>
				<time>2025-07-12T09:27:35Z</time>
			</trkpt>
			<trkpt lat="42.761280" lon="24.983793">
				<ele>1457.000000</ele>
				<time>2025-07-12T09:27:39Z</time>
			</trkpt>
			<trkpt lat="42.761292" lon="24.983772">
				<ele>1457.000000</ele>
				<time>2025-07-12T09:27:42Z</time>
			</trkpt>
			<trkpt lat="42.761299" lon="24.983726">
				<ele>1458.000000</ele>
				<time>2025-07-12T09:27:46Z</time>
			</trkpt>
			<trkpt lat="42.761305" lon="24.983705">
				<ele>1458.000000</ele>
				<time>2025-07-12T09:27:48Z</time>
			</trkpt>
			<trkpt lat="42.761345" lon="24.983649">
				<ele>1459.000000</ele>
				<time>2025-07-12T09:27:55Z</time>
			</trkpt>
			<trkpt lat="42.761349" lon="24.983636">
				<ele>1459.000000</ele>
				<time>2025-07-12T09:27:56Z</time>
			</trkpt>
			<trkpt lat="42.761357" lon="24.983591">
				<ele>1459.000000</ele>
				<time>2025-07-12T09:28:01Z</time>
			</trkpt>
			<trkpt lat="42.761370" lon="24.983549">
				<ele>1460.000000</ele>
				<time>2025-07-12T09:28:05Z</time>
			</trkpt>
			<trkpt lat="42.761372" lon="24.983534">
				<ele>1460.000000</ele>
				<time>2025-07-12T09:28:06Z</time>
			</trkpt>
			<trkpt lat="42.761378" lon="24.983510">
				<ele>1460.000000</ele>
				<time>2025-07-12T09:28:08Z</time>
			</trkpt>
			<trkpt lat="42.761380" lon="24.983469">
				<ele>1460.000000</ele>
				<time>2025-07-12T09:28:11Z</time>
			</trkpt>
			<trkpt lat="42.761390" lon="24.983405">
				<ele>1461.000000</ele>
				<time>2025-07-12T09:28:16Z</time>
			</trkpt>
			<trkpt lat="42.761390" lon="24.983394">
				<ele>1461.000000</ele>
				<time>2025-07-12T09:28:17Z</time>
			</trkpt>
			<trkpt lat="42.761414" lon="24.983334">
				<ele>1461.000000</ele>
				<time>2025-07-12T09:28:23Z</time>
			</trkpt>
			<trkpt lat="42.761445" lon="24.983248">
				<ele>1462.000000</ele>
				<time>2025-07-12T09:28:30Z</time>
			</trkpt>
			<trkpt lat="42.761455" lon="24.983182">
				<ele>1462.000000</ele>
				<time>2025-07-12T09:28:36Z</time>
			</trkpt>
			<trkpt lat="42.761463" lon="24.983097">
				<ele>1463.000000</ele>
				<time>2025-07-12T09:28:42Z</time>
			</trkpt>
			<trkpt lat="42.761466" lon="24.983089">
				<ele>1463.000000</ele>
				<time>2025-07-12T09:28:43Z</time>
			</trkpt>
			<trkpt lat="42.761505" lon="24.983021">
				<ele>1463.000000</ele>
				<time>2025-07-12T09:28:50Z</time>
			</trkpt>
			<trkpt lat="42.761528" lon="24.982975">
				<ele>1464.000000</ele>
				<time>2025-07-12T09:28:54Z</time>
			</trkpt>
			<trkpt lat="42.761550" lon="24.982938">
				<ele>1464.000000</ele>
				<time>2025-07-12T09:28:58Z</time>
			</trkpt>
			<trkpt lat="42.761576" lon="24.982895">
				<ele>1465.000000</ele>
				<time>2025-07-12T09:29:04Z</time>
			</trkpt>
			<trkpt lat="42.761592" lon="24.982883">
				<ele>1465.000000</ele>
				<time>2025-07-12T09:29:07Z</time>
			</trkpt>
			<trkpt lat="42.761592" lon="24.982883">
				<ele>1465.000000</ele>
				<time>2025-07-12T09:29:09Z</time>
			</trkpt>
			<trkpt lat="42.761588" lon="24.982890">
				<ele>1465.000000</ele>
				<time>2025-07-12T09:29:11Z</time>
			</trkpt>
			<trkpt lat="42.761577" lon="24.982893">
				<ele>1465.000000</ele>
				<time>2025-07-12T09:29:18Z</time>
			</trkpt>
			<trkpt lat="42.761577" lon="24.982881">
				<ele>1465.000000</ele>
				<time>2025-07-12T09:29:20Z</time>
			</trkpt>
			<trkpt lat="42.761586" lon="24.982859">
				<ele>1465.000000</ele>
				<time>2025-07-12T09:29:22Z</time>
			</trkpt>
			<trkpt lat="42.761600" lon="24.982789">
				<ele>1466.000000</ele>
				<time>2025-07-12T09:29:27Z</time>
			</trkpt>
			<trkpt lat="42.761612" lon="24.982743">
				<ele>1466.000000</ele>
				<time>2025-07-12T09:29:30Z</time>
			</trkpt>
			<trkpt lat="42.761613" lon="24.982728">
				<ele>1467.000000</ele>
				<time>2025-07-12T09:29:34Z</time>
			</trkpt>
			<trkpt lat="42.761616" lon="24.982708">
				<ele>1466.000000</ele>
				<time>2025-07-12T09:29:39Z</time>
			</trkpt>
			<trkpt lat="42.761621" lon="24.982684">
				<ele>1467.000000</ele>
				<time>2025-07-12T09:29:42Z</time>
			</trkpt>
			<trkpt lat="42.761650" lon="24.982633">
				<ele>1467.000000</ele>
				<time>2025-07-12T09:29:48Z</time>
			</trkpt>
			<trkpt lat="42.761664" lon="24.982578">
				<ele>1468.000000</ele>
				<time>2025-07-12T09:29:54Z</time>
			</trkpt>
			<trkpt lat="42.761679" lon="24.982540">
				<ele>1468.000000</ele>
				<time>2025-07-12T09:29:58Z</time>
			</trkpt>
			<trkpt lat="42.761689" lon="24.982513">
				<ele>1468.000000</ele>
				<time>2025-07-12T09:30:01Z</time>
			</trkpt>
			<trkpt lat="42.761708" lon="24.982515">
				<ele>1469.000000</ele>
				<time>2025-07-12T09:30:08Z</time>
			</trkpt>
			<trkpt lat="42.761711" lon="24.982482">
				<ele>1469.000000</ele>
				<time>2025-07-12T09:30:17Z</time>
			</trkpt>
			<trkpt lat="42.761719" lon="24.982458">
				<ele>1469.000000</ele>
				<time>2025-07-12T09:30:20Z</time>
			</trkpt>
			<trkpt lat="42.761733" lon="24.982427">
				<ele>1470.000000</ele>
				<time>2025-07-12T09:30:24Z</time>
			</trkpt>
			<trkpt lat="42.761756" lon="24.982387">
				<ele>1470.000000</ele>
				<time>2025-07-12T09:30:28Z</time>
			</trkpt>
			<trkpt lat="42.761751" lon="24.982367">
				<ele>1470.000000</ele>
				<time>2025-07-12T09:30:30Z</time>
			</trkpt>
			<trkpt lat="42.761755" lon="24.982360">
				<ele>1470.000000</ele>
				<time>2025-07-12T09:30:31Z</time>
			</trkpt>
			<trkpt lat="42.761774" lon="24.982296">
				<ele>1471.000000</ele>
				<time>2025-07-12T09:30:38Z</time>
			</trkpt>
			<trkpt lat="42.761774" lon="24.982291">
				<ele>1471.000000</ele>
				<time>2025-07-12T09:30:39Z</time>
			</trkpt>
			<trkpt lat="42.761803" lon="24.982254">
				<ele>1472.000000</ele>
				<time>2025-07-12T09:30:45Z</time>
			</trkpt>
			<trkpt lat="42.761812" lon="24.982254">
				<ele>1472.000000</ele>
				<time>2025-07-12T09:30:54Z</time>
			</trkpt>
			<trkpt lat="42.761810" lon="24.982254">
				<ele>1472.000000</ele>
				<time>2025-07-12T09:31:02Z</time>
			</trkpt>
			<trkpt lat="42.761810" lon="24.982250">
				<ele>1472.000000</ele>
				<time>2025-07-12T09:31:03Z</time>
			</trkpt>
			<trkpt lat="42.761814" lon="24.982240">
				<ele>1472.000000</ele>
				<time>2025-07-12T09:31:05Z</time>
			</trkpt>
			<trkpt lat="42.761827" lon="24.982206">
				<ele>1472.000000</ele>
				<time>2025-07-12T09:31:09Z</time>
			</trkpt>
			<trkpt lat="42.761854" lon="24.982159">
				<ele>1473.000000</ele>
				<time>2025-07-12T09:31:16Z</time>
			</trkpt>
			<trkpt lat="42.761858" lon="24.982151">
				<ele>1473.000000</ele>
				<time>2025-07-12T09:31:17Z</time>
			</trkpt>
			<trkpt lat="42.761888" lon="24.982112">
				<ele>1474.000000</ele>
				<time>2025-07-12T09:31:23Z</time>
			</trkpt>
			<trkpt lat="42.761893" lon="24.982104">
				<ele>1475.000000</ele>
				<time>2025-07-12T09:31:24Z</time>
			</trkpt>
			<trkpt lat="42.761926" lon="24.982072">
				<ele>1475.000000</ele>
				<time>2025-07-12T09:31:30Z</time>
			</trkpt>
			<trkpt lat="42.761927" lon="24.982060">
				<ele>1475.000000</ele>
				<time>2025-07-12T09:31:31Z</time>
			</trkpt>
			<trkpt lat="42.761929" lon="24.982041">
				<ele>1476.000000</ele>
				<time>2025-07-12T09:31:33Z</time>
			</trkpt>
			<trkpt lat="42.761929" lon="24.981987">
				<ele>1476.000000</ele>
				<time>2025-07-12T09:31:39Z</time>
			</trkpt>
			<trkpt lat="42.761927" lon="24.981983">
				<ele>1477.000000</ele>
				<time>2025-07-12T09:31:41Z</time>
			</trkpt>
			<trkpt lat="42.761905" lon="24.981990">
				<ele>1477.000000</ele>
				<time>2025-07-12T09:31:46Z</time>
			</trkpt>
			<trkpt lat="42.761900" lon="24.981985">
				<ele>1477.000000</ele>
				<time>2025-07-12T09:31:47Z</time>
			</trkpt>
			<trkpt lat="42.761839" lon="24.981983">
				<ele>1478.000000</ele>
				<time>2025-07-12T09:31:53Z</time>
			</trkpt>
			<trkpt lat="42.761830" lon="24.981989">
				<ele>1478.000000</ele>
				<time>2025-07-12T09:31:54Z</time>
			</trkpt>
			<trkpt lat="42.761813" lon="24.982030">
				<ele>1478.000000</ele>
				<time>2025-07-12T09:32:00Z</time>
			</trkpt>
			<trkpt lat="42.761788" lon="24.982055">
				<ele>1479.000000</ele>
				<time>2025-07-12T09:32:04Z</time>
			</trkpt>
			<trkpt lat="42.761764" lon="24.982080">
				<ele>1479.000000</ele>
				<time>2025-07-12T09:32:08Z</time>
			</trkpt>
			<trkpt lat="42.761736" lon="24.982159">
				<ele>1480.000000</ele>
				<time>2025-07-12T09:32:16Z</time>
			</trkpt>
			<trkpt lat="42.761676" lon="24.982205">
				<ele>1480.000000</ele>
				<time>2025-07-12T09:32:24Z</time>
			</trkpt>
			<trkpt lat="42.761631" lon="24.982253">
				<ele>1481.000000</ele>
				<time>2025-07-12T09:32:31Z</time>
			</trkpt>
			<trkpt lat="42.761620" lon="24.982268">
				<ele>1481.000000</ele>
				<time>2025-07-12T09:32:33Z</time>
			</trkpt>
			<trkpt lat="42.761580" lon="24.982315">
				<ele>1481.000000</ele>
				<time>2025-07-12T09:32:40Z</time>
			</trkpt>
			<trkpt lat="42.761521" lon="24.982368">
				<ele>1482.000000</ele>
				<time>2025-07-12T09:32:48Z</time>
			</trkpt>
			<trkpt lat="42.761499" lon="24.982401">
				<ele>1482.000000</ele>
				<time>2025-07-12T09:32:51Z</time>
			</trkpt>
			<trkpt lat="42.761473" lon="24.982435">
				<ele>1482.000000</ele>
				<time>2025-07-12T09:32:56Z</time>
			</trkpt>
			<trkpt lat="42.761434" lon="24.982498">
				<ele>1483.000000</ele>
				<time>2025-07-12T09:33:03Z</time>
			</trkpt>
			<trkpt lat="42.761419" lon="24.982515">
				<ele>1483.000000</ele>
				<time>2025-07-12T09:33:05Z</time>
			</trkpt>
			<trkpt lat="42.761410" lon="24.982525">
				<ele>1483.000000</ele>
				<time>2025-07-12T09:33:06Z</time>
			</trkpt>
			<trkpt lat="42.761354" lon="24.982579">
				<ele>1483.000000</ele>
				<time>2025-07-12T09:33:14Z</time>
			</trkpt>
			<trkpt lat="42.761330" lon="24.982604">
				<ele>1484.000000</ele>
				<time>2025-07-12T09:33:18Z</time>
			</trkpt>
			<trkpt lat="42.761316" lon="24.982625">
				<ele>1484.000000</ele>
				<time>2025-07-12T09:33:21Z</time>
			</trkpt>
			<trkpt lat="42.761277" lon="24.982696">
				<ele>1485.000000</ele>
				<time>2025-07-12T09:33:30Z</time>
			</trkpt>
			<trkpt lat="42.761268" lon="24.982706">
				<ele>1485.000000</ele>
				<time>2025-07-12T09:33:32Z</time>
			</trkpt>
			<trkpt lat="42.761236" lon="24.982734">
				<ele>1486.000000</ele>
				<time>2025-07-12T09:33:40Z</time>
			</trkpt>
			<trkpt lat="42.761210" lon="24.982775">
				<ele>1486.000000</ele>
				<time>2025-07-12T09:33:47Z</time>
			</trkpt>
			<trkpt lat="42.761206" lon="24.982779">
				<ele>1486.000000</ele>
				<time>2025-07-12T09:33:48Z</time>
			</trkpt>
			<trkpt lat="42.761173" lon="24.982826">
				<ele>1487.000000</ele>
				<time>2025-07-12T09:33:55Z</time>
			</trkpt>
			<trkpt lat="42.761167" lon="24.982831">
				<ele>1487.000000</ele>
				<time>2025-07-12T09:33:56Z</time>
			</trkpt>
			<trkpt lat="42.761129" lon="24.982873">
				<ele>1488.000000</ele>
				<time>2025-07-12T09:34:02Z</time>
			</trkpt>
			<trkpt lat="42.761113" lon="24.982903">
				<ele>1488.000000</ele>
				<time>2025-07-12T09:34:07Z</time>
			</trkpt>
			<trkpt lat="42.761108" lon="24.982930">
				<ele>1488.000000</ele>
				<time>2025-07-12T09:34:11Z</time>
			</trkpt>
			<trkpt lat="42.761082" lon="24.982983">
				<ele>1489.000000</ele>
				<time>2025-07-12T09:34:17Z</time>
			</trkpt>
			<trkpt lat="42.761064" lon="24.983000">
				<ele>1489.000000</ele>
				<time>2025-07-12T09:34:20Z</time>
			</trkpt>
			<trkpt lat="42.761047" lon="24.983025">
				<ele>1489.000000</ele>
				<time>2025-07-12T09:34:24Z</time>
			</trkpt>
			<trkpt lat="42.761007" lon="24.983089">
				<ele>1490.000000</ele>
				<time>2025-07-12T09:34:31Z</time>
			</trkpt>
			<trkpt lat="42.760981" lon="24.983125">
				<ele>1490.000000</ele>
				<time>2025-07-12T09:34:36Z</time>
			</trkpt>
			<trkpt lat="42.760956" lon="24.983197">
				<ele>1491.000000</ele>
				<time>2025-07-12T09:34:43Z</time>
			</trkpt>
			<trkpt lat="42.760938" lon="24.983219">
				<ele>1491.000000</ele>
				<time>2025-07-12T09:34:46Z</time>
			</trkpt>
			<trkpt lat="42.760903" lon="24.983270">
				<ele>1492.000000</ele>
				<time>2025-07-12T09:34:52Z</time>
			</trkpt>
			<trkpt lat="42.760881" lon="24.983308">
				<ele>1492.000000</ele>
				<time>2025-07-12T09:34:57Z</time>
			</trkpt>
			<trkpt lat="42.760862" lon="24.983329">
				<ele>1493.000000</ele>
				<time>2025-07-12T09:35:01Z</time>
			</trkpt>
			<trkpt lat="42.760842" lon="24.983351">
				<ele>1493.000000</ele>
				<time>2025-07-12T09:35:06Z</time>
			</trkpt>
			<trkpt lat="42.760826" lon="24.983371">
				<ele>1493.000000</ele>
				<time>2025-07-12T09:35:09Z</time>
			</trkpt>
			<trkpt lat="42.760777" lon="24.983435">
				<ele>1494.000000</ele>
				<time>2025-07-12T09:35:17Z</time>
			</trkpt>
			<trkpt lat="42.760764" lon="24.983455">
				<ele>1494.000000</ele>
				<time>2025-07-12T09:35:19Z</time>
			</trkpt>
			<trkpt lat="42.760727" lon="24.983492">
				<ele>1495.000000</ele>
				<time>2025-07-12T09:35:25Z</time>
			</trkpt>
			<trkpt lat="42.760697" lon="24.983528">
				<ele>1495.000000</ele>
				<time>2025-07-12T09:35:30Z</time>
			</trkpt>
			<trkpt lat="42.760686" lon="24.983549">
				<ele>1496.000000</ele>
				<time>2025-07-12T09:35:33Z</time>
			</trkpt>
			<trkpt lat="42.760631" lon="24.983620">
				<ele>1496.000000</ele>
				<time>2025-07-12T09:35:42Z</time>
			</trkpt>
			<trkpt lat="42.760585" lon="24.983685">
				<ele>1497.000000</ele>
				<time>2025-07-12T09:35:51Z</time>
			</trkpt>
			<trkpt lat="42.760570" lon="24.983697">
				<ele>1498.000000</ele>
				<time>2025-07-12T09:35:53Z</time>
			</trkpt>
			<trkpt lat="42.760522" lon="24.983738">
				<ele>1499.000000</ele>
				<time>2025-07-12T09:36:00Z</time>
			</trkpt>
			<trkpt lat="42.760518" lon="24.983743">
				<ele>1499.000000</ele>
				<time>2025-07-12T09:36:01Z</time>
			</trkpt>
			<trkpt lat="42.760476" lon="24.983806">
				<ele>1499.000000</ele>
				<time>2025-07-12T09:36:10Z</time>
			</trkpt>
			<trkpt lat="42.760448" lon="24.983831">
				<ele>1500.000000</ele>
				<time>2025-07-12T09:36:15Z</time>
			</trkpt>
			<trkpt lat="42.760418" lon="24.983866">
				<ele>1500.000000</ele>
				<time>2025-07-12T09:36:20Z</time>
			</trkpt>
			<trkpt lat="42.760366" lon="24.983932">
				<ele>1501.000000</ele>
				<time>2025-07-12T09:36:28Z</time>
			</trkpt>
			<trkpt lat="42.760362" lon="24.983937">
				<ele>1501.000000</ele>
				<time>2025-07-12T09:36:29Z</time>
			</trkpt>
			<trkpt lat="42.760295" lon="24.983990">
				<ele>1501.000000</ele>
				<time>2025-07-12T09:36:38Z</time>
			</trkpt>
			<trkpt lat="42.760289" lon="24.983992">
				<ele>1502.000000</ele>
				<time>2025-07-12T09:36:39Z</time>
			</trkpt>
			<trkpt lat="42.760268" lon="24.984013">
				<ele>1502.000000</ele>
				<time>2025-07-12T09:36:42Z</time>
			</trkpt>
			<trkpt lat="42.760255" lon="24.984018">
				<ele>1502.000000</ele>
				<time>2025-07-12T09:36:44Z</time>
			</trkpt>
			<trkpt lat="42.760234" lon="24.984030">
				<ele>1502.000000</ele>
				<time>2025-07-12T09:36:47Z</time>
			</trkpt>
			<trkpt lat="42.760221" lon="24.984035">
				<ele>1503.000000</ele>
				<time>2025-07-12T09:36:49Z</time>
			</trkpt>
			<trkpt lat="42.760187" lon="24.984034">
				<ele>1503.000000</ele>
				<time>2025-07-12T09:36:52Z</time>
			</trkpt>
			<trkpt lat="42.760144" lon="24.984021">
				<ele>1503.000000</ele>
				<time>2025-07-12T09:36:57Z</time>
			</trkpt>
			<trkpt lat="42.760105" lon="24.983996">
				<ele>1504.000000</ele>
				<time>2025-07-12T09:37:04Z</time>
			</trkpt>
			<trkpt lat="42.760100" lon="24.983991">
				<ele>1504.000000</ele>
				<time>2025-07-12T09:37:05Z</time>
			</trkpt>
			<trkpt lat="42.760050" lon="24.983994">
				<ele>1505.000000</ele>
				<time>2025-07-12T09:37:12Z</time>
			</trkpt>
			<trkpt lat="42.760025" lon="24.983995">
				<ele>1505.000000</ele>
				<time>2025-07-12T09:37:16Z</time>
			</trkpt>
			<trkpt lat="42.760006" lon="24.983996">
				<ele>1505.000000</ele>
				<time>2025-07-12T09:37:18Z</time>
			</trkpt>
			<trkpt lat="42.759979" lon="24.984030">
				<ele>1505.000000</ele>
				<time>2025-07-12T09:37:24Z</time>
			</trkpt>
			<trkpt lat="42.759955" lon="24.984131">
				<ele>1506.000000</ele>
				<time>2025-07-12T09:37:33Z</time>
			</trkpt>
			<trkpt lat="42.759953" lon="24.984141">
				<ele>1506.000000</ele>
				<time>2025-07-12T09:37:34Z</time>
			</trkpt>
			<trkpt lat="42.759959" lon="24.984199">
				<ele>1507.000000</ele>
				<time>2025-07-12T09:37:40Z</time>
			</trkpt>
			<trkpt lat="42.759960" lon="24.984212">
				<ele>1507.000000</ele>
				<time>2025-07-12T09:37:42Z</time>
			</trkpt>
			<trkpt lat="42.759959" lon="24.984235">
				<ele>1507.000000</ele>
				<time>2025-07-12T09:37:44Z</time>
			</trkpt>
			<trkpt lat="42.759961" lon="24.984247">
				<ele>1507.000000</ele>
				<time>2025-07-12T09:37:47Z</time>
			</trkpt>
			<trkpt lat="42.759982" lon="24.984304">
				<ele>1508.000000</ele>
				<time>2025-07-12T09:37:55Z</time>
			</trkpt>
			<trkpt lat="42.759982" lon="24.984389">
				<ele>1508.000000</ele>
				<time>2025-07-12T09:38:02Z</time>
			</trkpt>
			<trkpt lat="42.759979" lon="24.984430">
				<ele>1508.000000</ele>
				<time>2025-07-12T09:38:04Z</time>
			</trkpt>
			<trkpt lat="42.759973" lon="24.984495">
				<ele>1509.000000</ele>
				<time>2025-07-12T09:38:10Z</time>
			</trkpt>
			<trkpt lat="42.759972" lon="24.984580">
				<ele>1509.000000</ele>
				<time>2025-07-12T09:38:16Z</time>
			</trkpt>
			<trkpt lat="42.759971" lon="24.984609">
				<ele>1509.000000</ele>
				<time>2025-07-12T09:38:18Z</time>
			</trkpt>
			<trkpt lat="42.759959" lon="24.984674">
				<ele>1510.000000</ele>
				<time>2025-07-12T09:38:23Z</time>
			</trkpt>
			<trkpt lat="42.759955" lon="24.984725">
				<ele>1510.000000</ele>
				<time>2025-07-12T09:38:27Z</time>
			</trkpt>
			<trkpt lat="42.759955" lon="24.984735">
				<ele>1510.000000</ele>
				<time>2025-07-12T09:38:28Z</time>
			</trkpt>
			<trkpt lat="42.759931" lon="24.984820">
				<ele>1511.000000</ele>
				<time>2025-07-12T09:38:37Z</time>
			</trkpt>
			<trkpt lat="42.759913" lon="24.984844">
				<ele>1511.000000</ele>
				<time>2025-07-12T09:38:40Z</time>
			</trkpt>
			<trkpt lat="42.759885" lon="24.984894">
				<ele>1512.000000</ele>
				<time>2025-07-12T09:38:45Z</time>
			</trkpt>
			<trkpt lat="42.759850" lon="24.984950">
				<ele>1512.000000</ele>
				<time>2025-07-12T09:38:52Z</time>
			</trkpt>
			<trkpt lat="42.759819" lon="24.985008">
				<ele>1513.000000</ele>
				<time>2025-07-12T09:38:59Z</time>
			</trkpt>
			<trkpt lat="42.759805" lon="24.985037">
				<ele>1513.000000</ele>
				<time>2025-07-12T09:39:02Z</time>
			</trkpt>
			<trkpt lat="42.759768" lon="24.985093">
				<ele>1514.000000</ele>
				<time>2025-07-12T09:39:09Z</time>
			</trkpt>
			<trkpt lat="42.759739" lon="24.985122">
				<ele>1514.000000</ele>
				<time>2025-07-12T09:39:13Z</time>
			</trkpt>
			<trkpt lat="42.759705" lon="24.985127">
				<ele>1515.000000</ele>
				<time>2025-07-12T09:39:17Z</time>
			</trkpt>
			<trkpt lat="42.759667" lon="24.985138">
				<ele>1516.000000</ele>
				<time>2025-07-12T09:39:21Z</time>
			</trkpt>
			<trkpt lat="42.759600" lon="24.985178">
				<ele>1516.000000</ele>
				<time>2025-07-12T09:39:28Z</time>
			</trkpt>
			<trkpt lat="42.759531" lon="24.985202">
				<ele>1516.000000</ele>
				<time>2025-07-12T09:39:36Z</time>
			</trkpt>
			<trkpt lat="42.759519" lon="24.985205">
				<ele>1517.000000</ele>
				<time>2025-07-12T09:39:38Z</time>
			</trkpt>
			<trkpt lat="42.759491" lon="24.985216">
				<ele>1517.000000</ele>
				<time>2025-07-12T09:39:44Z</time>
			</trkpt>
			<trkpt lat="42.759448" lon="24.985195">
				<ele>1518.000000</ele>
				<time>2025-07-12T09:39:50Z</time>
			</trkpt>
			<trkpt lat="42.759438" lon="24.985191">
				<ele>1518.000000</ele>
				<time>2025-07-12T09:39:51Z</time>
			</trkpt>
			<trkpt lat="42.759405" lon="24.985186">
				<ele>1518.000000</ele>
				<time>2025-07-12T09:39:56Z</time>
			</trkpt>
			<trkpt lat="42.759366" lon="24.985217">
				<ele>1518.000000</ele>
				<time>2025-07-12T09:40:02Z</time>
			</trkpt>
			<trkpt lat="42.759349" lon="24.985257">
				<ele>1519.000000</ele>
				<time>2025-07-12T09:40:07Z</time>
			</trkpt>
			<trkpt lat="42.759343" lon="24.985268">
				<ele>1519.000000</ele>
				<time>2025-07-12T09:40:08Z</time>
			</trkpt>
			<trkpt lat="42.759312" lon="24.985321">
				<ele>1520.000000</ele>
				<time>2025-07-12T09:40:14Z</time>
			</trkpt>
			<trkpt lat="42.759300" lon="24.985338">
				<ele>1520.000000</ele>
				<time>2025-07-12T09:40:16Z</time>
			</trkpt>
			<trkpt lat="42.759292" lon="24.985356">
				<ele>1521.000000</ele>
				<time>2025-07-12T09:40:18Z</time>
			</trkpt>
			<trkpt lat="42.759289" lon="24.985431">
				<ele>1522.000000</ele>
				<time>2025-07-12T09:44:53Z</time>
			</trkpt>
			<trkpt lat="42.759288" lon="24.985430">
				<ele>1522.000000</ele>
				<time>2025-07-12T09:44:54Z</time>
			</trkpt>
			<trkpt lat="42.759296" lon="24.985444">
				<ele>1522.000000</ele>
				<time>2025-07-12T09:44:57Z</time>
			</trkpt>
			<trkpt lat="42.759301" lon="24.985482">
				<ele>1522.000000</ele>
				<time>2025-07-12T09:45:02Z</time>
			</trkpt>
			<trkpt lat="42.759302" lon="24.985490">
				<ele>1522.000000</ele>
				<time>2025-07-12T09:45:03Z</time>
			</trkpt>
			<trkpt lat="42.759302" lon="24.985500">
				<ele>1522.000000</ele>
				<time>2025-07-12T09:45:04Z</time>
			</trkpt>
			<trkpt lat="42.759291" lon="24.985543">
				<ele>1523.000000</ele>
				<time>2025-07-12T09:45:10Z</time>
			</trkpt>
			<trkpt lat="42.759283" lon="24.985559">
				<ele>1523.000000</ele>
				<time>2025-07-12T09:45:13Z</time>
			</trkpt>
			<trkpt lat="42.759277" lon="24.985611">
				<ele>1524.000000</ele>
				<time>2025-07-12T09:45:19Z</time>
			</trkpt>
			<trkpt lat="42.759272" lon="24.985634">
				<ele>1524.000000</ele>
				<time>2025-07-12T09:45:21Z</time>
			</trkpt>
			<trkpt lat="42.759256" lon="24.985676">
				<ele>1524.000000</ele>
				<time>2025-07-12T09:45:26Z</time>
			</trkpt>
			<trkpt lat="42.759252" lon="24.985701">
				<ele>1524.000000</ele>
				<time>2025-07-12T09:45:33Z</time>
			</trkpt>
			<trkpt lat="42.759255" lon="24.985692">
				<ele>1525.000000</ele>
				<time>2025-07-12T09:45:42Z</time>
			</trkpt>
			<trkpt lat="42.759262" lon="24.985700">
				<ele>1525.000000</ele>
				<time>2025-07-12T09:45:51Z</time>
			</trkpt>
			<trkpt lat="42.759256" lon="24.985676">
				<ele>1525.000000</ele>
				<time>2025-07-12T09:46:00Z</time>
			</trkpt>
			<trkpt lat="42.759256" lon="24.985676">
				<ele>1525.000000</ele>
				<time>2025-07-12T09:46:01Z</time>
			</trkpt>
			<trkpt lat="42.759238" lon="24.985696">
				<ele>1525.000000</ele>
				<time>2025-07-12T09:46:08Z</time>
			</trkpt>
			<trkpt lat="42.759233" lon="24.985705">
				<ele>1525.000000</ele>
				<time>2025-07-12T09:46:09Z</time>
			</trkpt>
			<trkpt lat="42.759233" lon="24.985710">
				<ele>1525.000000</ele>
				<time>2025-07-12T09:46:14Z</time>
			</trkpt>
			<trkpt lat="42.759231" lon="24.985756">
				<ele>1526.000000</ele>
				<time>2025-07-12T09:46:21Z</time>
			</trkpt>
			<trkpt lat="42.759226" lon="24.985779">
				<ele>1526.000000</ele>
				<time>2025-07-12T09:46:23Z</time>
			</trkpt>
			<trkpt lat="42.759209" lon="24.985842">
				<ele>1527.000000</ele>
				<time>2025-07-12T09:46:28Z</time>
			</trkpt>
			<trkpt lat="42.759186" lon="24.985875">
				<ele>1527.000000</ele>
				<time>2025-07-12T09:46:31Z</time>
			</trkpt>
			<trkpt lat="42.759162" lon="24.985910">
				<ele>1528.000000</ele>
				<time>2025-07-12T09:46:35Z</time>
			</trkpt>
			<trkpt lat="42.759142" lon="24.985934">
				<ele>1528.000000</ele>
				<time>2025-07-12T09:46:38Z</time>
			</trkpt>
			<trkpt lat="42.759129" lon="24.985958">
				<ele>1528.000000</ele>
				<time>2025-07-12T09:46:41Z</time>
			</trkpt>
			<trkpt lat="42.759126" lon="24.985968">
				<ele>1528.000000</ele>
				<time>2025-07-12T09:46:42Z</time>
			</trkpt>
			<trkpt lat="42.759100" lon="24.986035">
				<ele>1529.000000</ele>
				<time>2025-07-12T09:46:47Z</time>
			</trkpt>
			<trkpt lat="42.759097" lon="24.986056">
				<ele>1529.000000</ele>
				<time>2025-07-12T09:46:49Z</time>
			</trkpt>
			<trkpt lat="42.759093" lon="24.986079">
				<ele>1529.000000</ele>
				<time>2025-07-12T09:46:51Z</time>
			</trkpt>
			<trkpt lat="42.759080" lon="24.986138">
				<ele>1530.000000</ele>
				<time>2025-07-12T09:46:56Z</time>
			</trkpt>
			<trkpt lat="42.759063" lon="24.986190">
				<ele>1530.000000</ele>
				<time>2025-07-12T09:47:00Z</time>
			</trkpt>
			<trkpt lat="42.759020" lon="24.986274">
				<ele>1531.000000</ele>
				<time>2025-07-12T09:47:08Z</time>
			</trkpt>
			<trkpt lat="42.759002" lon="24.986321">
				<ele>1531.000000</ele>
				<time>2025-07-12T09:47:12Z</time>
			</trkpt>
			<trkpt lat="42.758987" lon="24.986380">
				<ele>1532.000000</ele>
				<time>2025-07-12T09:47:17Z</time>
			</trkpt>
			<trkpt lat="42.758969" lon="24.986495">
				<ele>1532.000000</ele>
				<time>2025-07-12T09:47:26Z</time>
			</trkpt>
			<trkpt lat="42.758957" lon="24.986557">
				<ele>1532.000000</ele>
				<time>2025-07-12T09:47:31Z</time>
			</trkpt>
			<trkpt lat="42.758942" lon="24.986587">
				<ele>1533.000000</ele>
				<time>2025-07-12T09:47:35Z</time>
			</trkpt>
			<trkpt lat="42.758924" lon="24.986675">
				<ele>1533.000000</ele>
				<time>2025-07-12T09:47:42Z</time>
			</trkpt>
			<trkpt lat="42.758919" lon="24.986710">
				<ele>1533.000000</ele>
				<time>2025-07-12T09:47:45Z</time>
			</trkpt>
			<trkpt lat="42.758895" lon="24.986783">
				<ele>1534.000000</ele>
				<time>2025-07-12T09:47:51Z</time>
			</trkpt>
			<trkpt lat="42.758883" lon="24.986821">
				<ele>1535.000000</ele>
				<time>2025-07-12T09:47:54Z</time>
			</trkpt>
			<trkpt lat="42.758859" lon="24.986866">
				<ele>1535.000000</ele>
				<time>2025-07-12T09:47:59Z</time>
			</trkpt>
			<trkpt lat="42.758852" lon="24.986878">
				<ele>1536.000000</ele>
				<time>2025-07-12T09:48:00Z</time>
			</trkpt>
			<trkpt lat="42.758830" lon="24.986936">
				<ele>1537.000000</ele>
				<time>2025-07-12T09:48:06Z</time>
			</trkpt>
			<trkpt lat="42.758825" lon="24.986943">
				<ele>1537.000000</ele>
				<time>2025-07-12T09:48:07Z</time>
			</trkpt>
			<trkpt lat="42.758783" lon="24.986998">
				<ele>1538.000000</ele>
				<time>2025-07-12T09:48:15Z</time>
			</trkpt>
			<trkpt lat="42.758775" lon="24.987013">
				<ele>1538.000000</ele>
				<time>2025-07-12T09:48:17Z</time>
			</trkpt>
			<trkpt lat="42.758750" lon="24.987076">
				<ele>1539.000000</ele>
				<time>2025-07-12T09:48:23Z</time>
			</trkpt>
			<trkpt lat="42.758758" lon="24.987076">
				<ele>1539.000000</ele>
				<time>2025-07-12T09:48:24Z</time>
			</trkpt>
			<trkpt lat="42.758757" lon="24.987082">
				<ele>1539.000000</ele>
				<time>2025-07-12T09:48:25Z</time>
			</trkpt>
			<trkpt lat="42.758728" lon="24.987145">
				<ele>1540.000000</ele>
				<time>2025-07-12T09:48:31Z</time>
			</trkpt>
			<trkpt lat="42.758723" lon="24.987149">
				<ele>1540.000000</ele>
				<time>2025-07-12T09:48:32Z</time>
			</trkpt>
			<trkpt lat="42.758692" lon="24.987167">
				<ele>1541.000000</ele>
				<time>2025-07-12T09:48:36Z</time>
			</trkpt>
			<trkpt lat="42.758685" lon="24.987176">
				<ele>1541.000000</ele>
				<time>2025-07-12T09:48:38Z</time>
			</trkpt>
			<trkpt lat="42.758681" lon="24.987184">
				<ele>1541.000000</ele>
				<time>2025-07-12T09:48:39Z</time>
			</trkpt>
			<trkpt lat="42.758653" lon="24.987224">
				<ele>1542.000000</ele>
				<time>2025-07-12T09:48:44Z</time>
			</trkpt>
			<trkpt lat="42.758637" lon="24.987258">
				<ele>1543.000000</ele>
				<time>2025-07-12T09:48:47Z</time>
			</trkpt>
			<trkpt lat="42.758629" lon="24.987275">
				<ele>1543.000000</ele>
				<time>2025-07-12T09:48:49Z</time>
			</trkpt>
			<trkpt lat="42.758617" lon="24.987296">
				<ele>1544.000000</ele>
				<time>2025-07-12T09:48:52Z</time>
			</trkpt>
			<trkpt lat="42.758607" lon="24.987343">
				<ele>1544.000000</ele>
				<time>2025-07-12T09:48:58Z</time>
			</trkpt>
			<trkpt lat="42.758604" lon="24.987388">
				<ele>1545.000000</ele>
				<time>2025-07-12T09:49:04Z</time>
			</trkpt>
			<trkpt lat="42.758603" lon="24.987406">
				<ele>1545.000000</ele>
				<time>2025-07-12T09:49:05Z</time>
			</trkpt>
			<trkpt lat="42.758607" lon="24.987485">
				<ele>1546.000000</ele>
				<time>2025-07-12T09:49:12Z</time>
			</trkpt>
			<trkpt lat="42.758610" lon="24.987498">
				<ele>1546.000000</ele>
				<time>2025-07-12T09:49:13Z</time>
			</trkpt>
			<trkpt lat="42.758607" lon="24.987566">
				<ele>1547.000000</ele>
				<time>2025-07-12T09:49:18Z</time>
			</trkpt>
			<trkpt lat="42.758607" lon="24.987599">
				<ele>1547.000000</ele>
				<time>2025-07-12T09:49:21Z</time>
			</trkpt>
			<trkpt lat="42.758607" lon="24.987631">
				<ele>1548.000000</ele>
				<time>2025-07-12T09:49:25Z</time>
			</trkpt>
			<trkpt lat="42.758610" lon="24.987695">
				<ele>1548.000000</ele>
				<time>2025-07-12T09:49:31Z</time>
			</trkpt>
			<trkpt lat="42.758613" lon="24.987702">
				<ele>1549.000000</ele>
				<time>2025-07-12T09:49:32Z</time>
			</trkpt>
			<trkpt lat="42.758617" lon="24.987770">
				<ele>1549.000000</ele>
				<time>2025-07-12T09:49:39Z</time>
			</trkpt>
			<trkpt lat="42.758618" lon="24.987778">
				<ele>1550.000000</ele>
				<time>2025-07-12T09:49:40Z</time>
			</trkpt>
			<trkpt lat="42.758615" lon="24.987819">
				<ele>1550.000000</ele>
				<time>2025-07-12T09:49:46Z</time>
			</trkpt>
			<trkpt lat="42.758612" lon="24.987839">
				<ele>1551.000000</ele>
				<time>2025-07-12T09:49:49Z</time>
			</trkpt>
			<trkpt lat="42.758611" lon="24.987871">
				<ele>1551.000000</ele>
				<time>2025-07-12T09:49:53Z</time>
			</trkpt>
			<trkpt lat="42.758608" lon="24.987882">
				<ele>1551.000000</ele>
				<time>2025-07-12T09:49:54Z</time>
			</trkpt>
			<trkpt lat="42.758596" lon="24.987910">
				<ele>1552.000000</ele>
				<time>2025-07-12T09:49:57Z</time>
			</trkpt>
			<trkpt lat="42.758590" lon="24.987941">
				<ele>1552.000000</ele>
				<time>2025-07-12T09:50:00Z</time>
			</trkpt>
			<trkpt lat="42.758577" lon="24.987993">
				<ele>1553.000000</ele>
				<time>2025-07-12T09:50:06Z</time>
			</trkpt>
			<trkpt lat="42.758575" lon="24.988055">
				<ele>1553.000000</ele>
				<time>2025-07-12T09:50:13Z</time>
			</trkpt>
			<trkpt lat="42.758565" lon="24.988091">
				<ele>1554.000000</ele>
				<time>2025-07-12T09:50:17Z</time>
			</trkpt>
			<trkpt lat="42.758562" lon="24.988106">
				<ele>1554.000000</ele>
				<time>2025-07-12T09:50:19Z</time>
			</trkpt>
			<trkpt lat="42.758522" lon="24.988191">
				<ele>1555.000000</ele>
				<time>2025-07-12T09:50:26Z</time>
			</trkpt>
			<trkpt lat="42.758518" lon="24.988195">
				<ele>1555.000000</ele>
				<time>2025-07-12T09:50:27Z</time>
			</trkpt>
			<trkpt lat="42.758502" lon="24.988237">
				<ele>1555.000000</ele>
				<time>2025-07-12T09:50:32Z</time>
			</trkpt>
			<trkpt lat="42.758488" lon="24.988309">
				<ele>1556.000000</ele>
				<time>2025-07-12T09:50:39Z</time>
			</trkpt>
			<trkpt lat="42.758484" lon="24.988322">
				<ele>1556.000000</ele>
				<time>2025-07-12T09:50:40Z</time>
			</trkpt>
			<trkpt lat="42.758445" lon="24.988402">
				<ele>1557.000000</ele>
				<time>2025-07-12T09:50:49Z</time>
			</trkpt>
			<trkpt lat="42.758427" lon="24.988465">
				<ele>1557.000000</ele>
				<time>2025-07-12T09:50:55Z</time>
			</trkpt>
			<trkpt lat="42.758425" lon="24.988473">
				<ele>1557.000000</ele>
				<time>2025-07-12T09:50:56Z</time>
			</trkpt>
			<trkpt lat="42.758387" lon="24.988568">
				<ele>1557.000000</ele>
				<time>2025-07-12T09:51:05Z</time>
			</trkpt>
			<trkpt lat="42.758379" lon="24.988592">
				<ele>1558.000000</ele>
				<time>2025-07-12T09:51:09Z</time>
			</trkpt>
			<trkpt lat="42.758367" lon="24.988613">
				<ele>1558.000000</ele>
				<time>2025-07-12T09:51:12Z</time>
			</trkpt>
			<trkpt lat="42.758337" lon="24.988684">
				<ele>1558.000000</ele>
				<time>2025-07-12T09:51:21Z</time>
			</trkpt>
			<trkpt lat="42.758308" lon="24.988737">
				<ele>1559.000000</ele>
				<time>2025-07-12T09:51:27Z</time>
			</trkpt>
			<trkpt lat="42.758294" lon="24.988764">
				<ele>1559.000000</ele>
				<time>2025-07-12T09:51:30Z</time>
			</trkpt>
			<trkpt lat="42.758248" lon="24.988861">
				<ele>1560.000000</ele>
				<time>2025-07-12T09:51:40Z</time>
			</trkpt>
			<trkpt lat="42.758210" lon="24.988938">
				<ele>1560.000000</ele>
				<time>2025-07-12T09:51:49Z</time>
			</trkpt>
			<trkpt lat="42.758199" lon="24.988972">
				<ele>1561.000000</ele>
				<time>2025-07-12T09:51:53Z</time>
			</trkpt>
			<trkpt lat="42.758191" lon="24.988989">
				<ele>1561.000000</ele>
				<time>2025-07-12T09:51:55Z</time>
			</trkpt>
			<trkpt lat="42.758186" lon="24.988999">
				<ele>1561.000000</ele>
				<time>2025-07-12T09:51:56Z</time>
			</trkpt>
			<trkpt lat="42.758131" lon="24.989066">
				<ele>1562.000000</ele>
				<time>2025-07-12T09:52:05Z</time>
			</trkpt>
			<trkpt lat="42.758117" lon="24.989085">
				<ele>1562.000000</ele>
				<time>2025-07-12T09:52:08Z</time>
			</trkpt>
			<trkpt lat="42.758089" lon="24.989142">
				<ele>1563.000000</ele>
				<time>2025-07-12T09:52:14Z</time>
			</trkpt>
			<trkpt lat="42.758072" lon="24.989184">
				<ele>1563.000000</ele>
				<time>2025-07-12T09:52:20Z</time>
			</trkpt>
			<trkpt lat="42.758059" lon="24.989199">
				<ele>1563.000000</ele>
				<time>2025-07-12T09:52:22Z</time>
			</trkpt>
			<trkpt lat="42.758009" lon="24.989266">
				<ele>1564.000000</ele>
				<time>2025-07-12T09:52:31Z</time>
			</trkpt>
			<trkpt lat="42.758005" lon="24.989275">
				<ele>1564.000000</ele>
				<time>2025-07-12T09:52:32Z</time>
			</trkpt>
			<trkpt lat="42.757961" lon="24.989360">
				<ele>1565.000000</ele>
				<time>2025-07-12T09:52:41Z</time>
			</trkpt>
			<trkpt lat="42.757957" lon="24.989368">
				<ele>1565.000000</ele>
				<time>2025-07-12T09:52:42Z</time>
			</trkpt>
			<trkpt lat="42.757944" lon="24.989394">
				<ele>1565.000000</ele>
				<time>2025-07-12T09:52:46Z</time>
			</trkpt>
			<trkpt lat="42.757921" lon="24.989431">
				<ele>1566.000000</ele>
				<time>2025-07-12T09:52:51Z</time>
			</trkpt>
			<trkpt lat="42.757908" lon="24.989449">
				<ele>1566.000000</ele>
				<time>2025-07-12T09:52:53Z</time>
			</trkpt>
			<trkpt lat="42.757883" lon="24.989488">
				<ele>1566.000000</ele>
				<time>2025-07-12T09:52:58Z</time>
			</trkpt>
			<trkpt lat="42.757860" lon="24.989534">
				<ele>1567.000000</ele>
				<time>2025-07-12T09:53:04Z</time>
			</trkpt>
			<trkpt lat="42.757847" lon="24.989558">
				<ele>1567.000000</ele>
				<time>2025-07-12T09:53:07Z</time>
			</trkpt>
			<trkpt lat="42.757811" lon="24.989626">
				<ele>1568.000000</ele>
				<time>2025-07-12T09:53:15Z</time>
			</trkpt>
			<trkpt lat="42.757808" lon="24.989636">
				<ele>1568.000000</ele>
				<time>2025-07-12T09:53:16Z</time>
			</trkpt>
			<trkpt lat="42.757797" lon="24.989689">
				<ele>1569.000000</ele>
				<time>2025-07-12T09:53:22Z</time>
			</trkpt>
			<trkpt lat="42.757792" lon="24.989708">
				<ele>1569.000000</ele>
				<time>2025-07-12T09:53:24Z</time>
			</trkpt>
			<trkpt lat="42.757769" lon="24.989754">
				<ele>1569.000000</ele>
				<time>2025-07-12T09:53:29Z</time>
			</trkpt>
			<trkpt lat="42.757749" lon="24.989786">
				<ele>1570.000000</ele>
				<time>2025-07-12T09:53:33Z</time>
			</trkpt>
			<trkpt lat="42.757727" lon="24.989833">
				<ele>1570.000000</ele>
				<time>2025-07-12T09:53:40Z</time>
			</trkpt>
			<trkpt lat="42.757726" lon="24.989840">
				<ele>1570.000000</ele>
				<time>2025-07-12T09:53:41Z</time>
			</trkpt>
			<trkpt lat="42.757704" lon="24.989911">
				<ele>1571.000000</ele>
				<time>2025-07-12T09:53:49Z</time>
			</trkpt>
			<trkpt lat="42.757701" lon="24.989929">
				<ele>1571.000000</ele>
				<time>2025-07-12T09:53:51Z</time>
			</trkpt>
			<trkpt lat="42.757679" lon="24.990002">
				<ele>1572.000000</ele>
				<time>2025-07-12T09:53:58Z</time>
			</trkpt>
			<trkpt lat="42.757659" lon="24.990037">
				<ele>1572.000000</ele>
				<time>2025-07-12T09:54:02Z</time>
			</trkpt>
			<trkpt lat="42.757639" lon="24.990072">
				<ele>1573.000000</ele>
				<time>2025-07-12T09:54:07Z</time>
			</trkpt>
			<trkpt lat="42.757606" lon="24.990133">
				<ele>1573.000000</ele>
				<time>2025-07-12T09:54:14Z</time>
			</trkpt>
			<trkpt lat="42.757602" lon="24.990156">
				<ele>1574.000000</ele>
				<time>2025-07-12T09:54:16Z</time>
			</trkpt>
			<trkpt lat="42.757577" lon="24.990212">
				<ele>1574.000000</ele>
				<time>2025-07-12T09:54:23Z</time>
			</trkpt>
			<trkpt lat="42.757554" lon="24.990257">
				<ele>1574.000000</ele>
				<time>2025-07-12T09:54:28Z</time>
			</trkpt>
			<trkpt lat="42.757532" lon="24.990292">
				<ele>1575.000000</ele>
				<time>2025-07-12T09:54:32Z</time>
			</trkpt>
			<trkpt lat="42.757474" lon="24.990355">
				<ele>1575.000000</ele>
				<time>2025-07-12T09:54:40Z</time>
			</trkpt>
			<trkpt lat="42.757469" lon="24.990364">
				<ele>1576.000000</ele>
				<time>2025-07-12T09:54:41Z</time>
			</trkpt>
			<trkpt lat="42.757430" lon="24.990408">
				<ele>1576.000000</ele>
				<time>2025-07-12T09:54:48Z</time>
			</trkpt>
			<trkpt lat="42.757423" lon="24.990415">
				<ele>1577.000000</ele>
				<time>2025-07-12T09:54:49Z</time>
			</trkpt>
			<trkpt lat="42.757366" lon="24.990407">
				<ele>1578.000000</ele>
				<time>2025-07-12T09:54:56Z</time>
			</trkpt>
			<trkpt lat="42.757359" lon="24.990404">
				<ele>1578.000000</ele>
				<time>2025-07-12T09:54:57Z</time>
			</trkpt>
			<trkpt lat="42.757302" lon="24.990383">
				<ele>1579.000000</ele>
				<time>2025-07-12T09:55:05Z</time>
			</trkpt>
			<trkpt lat="42.757306" lon="24.990381">
				<ele>1579.000000</ele>
				<time>2025-07-12T09:55:06Z</time>
			</trkpt>
			<trkpt lat="42.757305" lon="24.990365">
				<ele>1579.000000</ele>
				<time>2025-07-12T09:55:14Z</time>
			</trkpt>
			<trkpt lat="42.757300" lon="24.990365">
				<ele>1579.000000</ele>
				<time>2025-07-12T09:55:22Z</time>
			</trkpt>
			<trkpt lat="42.757301" lon="24.990365">
				<ele>1579.000000</ele>
				<time>2025-07-12T09:55:23Z</time>
			</trkpt>
			<trkpt lat="42.757301" lon="24.990369">
				<ele>1578.000000</ele>
				<time>2025-07-12T09:55:38Z</time>
			</trkpt>
			<trkpt lat="42.757300" lon="24.990384">
				<ele>1578.000000</ele>
				<time>2025-07-12T09:55:44Z</time>
			</trkpt>
			<trkpt lat="42.757276" lon="24.990372">
				<ele>1578.000000</ele>
				<time>2025-07-12T09:55:47Z</time>
			</trkpt>
			<trkpt lat="42.757208" lon="24.990339">
				<ele>1579.000000</ele>
				<time>2025-07-12T09:55:55Z</time>
			</trkpt>
			<trkpt lat="42.757189" lon="24.990330">
				<ele>1580.000000</ele>
				<time>2025-07-12T09:55:58Z</time>
			</trkpt>
			<trkpt lat="42.757181" lon="24.990328">
				<ele>1580.000000</ele>
				<time>2025-07-12T09:55:59Z</time>
			</trkpt>
			<trkpt lat="42.757173" lon="24.990324">
				<ele>1579.000000</ele>
				<time>2025-07-12T09:56:00Z</time>
			</trkpt>
			<trkpt lat="42.757166" lon="24.990318">
				<ele>1579.000000</ele>
				<time>2025-07-12T09:56:01Z</time>
			</trkpt>
			<trkpt lat="42.757133" lon="24.990296">
				<ele>1579.000000</ele>
				<time>2025-07-12T09:56:08Z</time>
			</trkpt>
			<trkpt lat="42.757134" lon="24.990294">
				<ele>1579.000000</ele>
				<time>2025-07-12T09:56:19Z</time>
			</trkpt>
			<trkpt lat="42.757134" lon="24.990294">
				<ele>1579.000000</ele>
				<time>2025-07-12T09:56:28Z</time>
			</trkpt>
			<trkpt lat="42.757136" lon="24.990296">
				<ele>1579.000000</ele>
				<time>2025-07-12T09:56:39Z</time>
			</trkpt>
			<trkpt lat="42.757136" lon="24.990297">
				<ele>1579.000000</ele>
				<time>2025-07-12T09:56:45Z</time>
			</trkpt>
			<trkpt lat="42.757137" lon="24.990298">
				<ele>1579.000000</ele>
				<time>2025-07-12T09:56:48Z</time>
			</trkpt>
			<trkpt lat="42.757143" lon="24.990301">
				<ele>1579.000000</ele>
				<time>2025-07-12T09:56:53Z</time>
			</trkpt>
			<trkpt lat="42.757134" lon="24.990294">
				<ele>1578.000000</ele>
				<time>2025-07-12T09:57:01Z</time>
			</trkpt>
			<trkpt lat="42.757134" lon="24.990294">
				<ele>1578.000000</ele>
				<time>2025-07-12T09:57:02Z</time>
			</trkpt>
			<trkpt lat="42.757140" lon="24.990301">
				<ele>1578.000000</ele>
				<time>2025-07-12T09:57:09Z</time>
			</trkpt>
			<trkpt lat="42.757134" lon="24.990294">
				<ele>1579.000000</ele>
				<time>2025-07-12T09:57:14Z</time>
			</trkpt>
			<trkpt lat="42.757134" lon="24.990294">
				<ele>1579.000000</ele>
				<time>2025-07-12T09:57:19Z</time>
			</trkpt>
			<trkpt lat="42.757134" lon="24.990294">
				<ele>1579.000000</ele>
				<time>2025-07-12T09:57:27Z</time>
			</trkpt>
			<trkpt lat="42.757129" lon="24.990309">
				<ele>1579.000000</ele>
				<time>2025-07-12T09:57:34Z</time>
			</trkpt>
			<trkpt lat="42.757131" lon="24.990306">
				<ele>1578.000000</ele>
				<time>2025-07-12T09:57:41Z</time>
			</trkpt>
			<trkpt lat="42.757130" lon="24.990304">
				<ele>1578.000000</ele>
				<time>2025-07-12T09:57:43Z</time>
			</trkpt>
			<trkpt lat="42.757134" lon="24.990294">
				<ele>1578.000000</ele>
				<time>2025-07-12T09:57:52Z</time>
			</trkpt>
			<trkpt lat="42.757134" lon="24.990294">
				<ele>1578.000000</ele>
				<time>2025-07-12T09:57:58Z</time>
			</trkpt>
			<trkpt lat="42.757134" lon="24.990294">
				<ele>1578.000000</ele>
				<time>2025-07-12T09:58:01Z</time>
			</trkpt>
			<trkpt lat="42.757141" lon="24.990317">
				<ele>1578.000000</ele>
				<time>2025-07-12T09:58:12Z</time>
			</trkpt>
			<trkpt lat="42.757138" lon="24.990314">
				<ele>1578.000000</ele>
				<time>2025-07-12T09:58:17Z</time>
			</trkpt>
			<trkpt lat="42.757140" lon="24.990316">
				<ele>1578.000000</ele>
				<time>2025-07-12T09:58:20Z</time>
			</trkpt>
			<trkpt lat="42.757134" lon="24.990314">
				<ele>1578.000000</ele>
				<time>2025-07-12T09:58:22Z</time>
			</trkpt>
			<trkpt lat="42.757131" lon="24.990314">
				<ele>1578.000000</ele>
				<time>2025-07-12T09:58:23Z</time>
			</trkpt>
			<trkpt lat="42.757124" lon="24.990313">
				<ele>1577.000000</ele>
				<time>2025-07-12T09:58:26Z</time>
			</trkpt>
			<trkpt lat="42.757129" lon="24.990309">
				<ele>1577.000000</ele>
				<time>2025-07-12T09:58:28Z</time>
			</trkpt>
			<trkpt lat="42.757132" lon="24.990306">
				<ele>1577.000000</ele>
				<time>2025-07-12T09:58:29Z</time>
			</trkpt>
			<trkpt lat="42.757129" lon="24.990313">
				<ele>1577.000000</ele>
				<time>2025-07-12T09:58:42Z</time>
			</trkpt>
			<trkpt lat="42.757111" lon="24.990314">
				<ele>1577.000000</ele>
				<time>2025-07-12T09:58:48Z</time>
			</trkpt>
			<trkpt lat="42.757104" lon="24.990310">
				<ele>1577.000000</ele>
				<time>2025-07-12T09:58:49Z</time>
			</trkpt>
			<trkpt lat="42.757074" lon="24.990267">
				<ele>1576.000000</ele>
				<time>2025-07-12T09:58:56Z</time>
			</trkpt>
			<trkpt lat="42.757035" lon="24.990245">
				<ele>1575.000000</ele>
				<time>2025-07-12T09:59:03Z</time>
			</trkpt>
			<trkpt lat="42.757008" lon="24.990238">
				<ele>1575.000000</ele>
				<time>2025-07-12T09:59:07Z</time>
			</trkpt>
			<trkpt lat="42.756998" lon="24.990231">
				<ele>1575.000000</ele>
				<time>2025-07-12T09:59:09Z</time>
			</trkpt>
			<trkpt lat="42.756995" lon="24.990229">
				<ele>1575.000000</ele>
				<time>2025-07-12T09:59:10Z</time>
			</trkpt>
			<trkpt lat="42.756993" lon="24.990227">
				<ele>1575.000000</ele>
				<time>2025-07-12T09:59:25Z</time>
			</trkpt>
			<trkpt lat="42.756993" lon="24.990227">
				<ele>1575.000000</ele>
				<time>2025-07-12T09:59:26Z</time>
			</trkpt>
			<trkpt lat="42.756987" lon="24.990211">
				<ele>1575.000000</ele>
				<time>2025-07-12T09:59:33Z</time>
			</trkpt>
			<trkpt lat="42.756986" lon="24.990208">
				<ele>1575.000000</ele>
				<time>2025-07-12T09:59:36Z</time>
			</trkpt>
			<trkpt lat="42.756985" lon="24.990206">
				<ele>1574.000000</ele>
				<time>2025-07-12T09:59:39Z</time>
			</trkpt>
			<trkpt lat="42.756986" lon="24.990206">
				<ele>1574.000000</ele>
				<time>2025-07-12T09:59:42Z</time>
			</trkpt>
			<trkpt lat="42.756988" lon="24.990207">
				<ele>1574.000000</ele>
				<time>2025-07-12T09:59:46Z</time>
			</trkpt>
			<trkpt lat="42.756981" lon="24.990207">
				<ele>1574.000000</ele>
				<time>2025-07-12T09:59:51Z</time>
			</trkpt>
			<trkpt lat="42.756957" lon="24.990200">
				<ele>1574.000000</ele>
				<time>2025-07-12T09:59:55Z</time>
			</trkpt>
			<trkpt lat="42.756934" lon="24.990192">
				<ele>1574.000000</ele>
				<time>2025-07-12T10:00:00Z</time>
			</trkpt>
			<trkpt lat="42.756916" lon="24.990186">
				<ele>1574.000000</ele>
				<time>2025-07-12T10:00:04Z</time>
			</trkpt>
			<trkpt lat="42.756902" lon="24.990178">
				<ele>1574.000000</ele>
				<time>2025-07-12T10:00:06Z</time>
			</trkpt>
			<trkpt lat="42.756893" lon="24.990175">
				<ele>1573.000000</ele>
				<time>2025-07-12T10:00:08Z</time>
			</trkpt>
			<trkpt lat="42.756874" lon="24.990174">
				<ele>1574.000000</ele>
				<time>2025-07-12T10:00:12Z</time>
			</trkpt>
			<trkpt lat="42.756820" lon="24.990145">
				<ele>1573.000000</ele>
				<time>2025-07-12T10:00:20Z</time>
			</trkpt>
			<trkpt lat="42.756782" lon="24.990135">
				<ele>1573.000000</ele>
				<time>2025-07-12T10:00:26Z</time>
			</trkpt>
			<trkpt lat="42.756766" lon="24.990131">
				<ele>1572.000000</ele>
				<time>2025-07-12T10:00:28Z</time>
			</trkpt>
			<trkpt lat="42.756722" lon="24.990115">
				<ele>1572.000000</ele>
				<time>2025-07-12T10:00:36Z</time>
			</trkpt>
			<trkpt lat="42.756700" lon="24.990105">
				<ele>1572.000000</ele>
				<time>2025-07-12T10:00:43Z</time>
			</trkpt>
			<trkpt lat="42.756640" lon="24.990064">
				<ele>1572.000000</ele>
				<time>2025-07-12T10:00:52Z</time>
			</trkpt>
			<trkpt lat="42.756624" lon="24.990056">
				<ele>1572.000000</ele>
				<time>2025-07-12T10:00:54Z</time>
			</trkpt>
			<trkpt lat="42.756616" lon="24.990053">
				<ele>1571.000000</ele>
				<time>2025-07-12T10:00:55Z</time>
			</trkpt>
			<trkpt lat="42.756572" lon="24.990041">
				<ele>1571.000000</ele>
				<time>2025-07-12T10:01:00Z</time>
			</trkpt>
			<trkpt lat="42.756495" lon="24.990045">
				<ele>1571.000000</ele>
				<time>2025-07-12T10:01:08Z</time>
			</trkpt>
			<trkpt lat="42.756424" lon="24.990060">
				<ele>1571.000000</ele>
				<time>2025-07-12T10:01:16Z</time>
			</trkpt>
			<trkpt lat="42.756406" lon="24.990064">
				<ele>1570.000000</ele>
				<time>2025-07-12T10:01:18Z</time>
			</trkpt>
			<trkpt lat="42.756334" lon="24.990097">
				<ele>1570.000000</ele>
				<time>2025-07-12T10:01:25Z</time>
			</trkpt>
			<trkpt lat="42.756295" lon="24.990112">
				<ele>1569.000000</ele>
				<time>2025-07-12T10:01:29Z</time>
			</trkpt>
			<trkpt lat="42.756248" lon="24.990128">
				<ele>1569.000000</ele>
				<time>2025-07-12T10:01:34Z</time>
			</trkpt>
			<trkpt lat="42.756241" lon="24.990133">
				<ele>1569.000000</ele>
				<time>2025-07-12T10:01:35Z</time>
			</trkpt>
			<trkpt lat="42.756207" lon="24.990147">
				<ele>1568.000000</ele>
				<time>2025-07-12T10:01:39Z</time>
			</trkpt>
			<trkpt lat="42.756162" lon="24.990149">
				<ele>1568.000000</ele>
				<time>2025-07-12T10:01:44Z</time>
			</trkpt>
			<trkpt lat="42.756132" lon="24.990144">
				<ele>1567.000000</ele>
				<time>2025-07-12T10:01:47Z</time>
			</trkpt>
			<trkpt lat="42.756094" lon="24.990151">
				<ele>1566.000000</ele>
				<time>2025-07-12T10:01:51Z</time>
			</trkpt>
			<trkpt lat="42.756083" lon="24.990155">
				<ele>1566.000000</ele>
				<time>2025-07-12T10:01:52Z</time>
			</trkpt>
			<trkpt lat="42.755981" lon="24.990162">
				<ele>1566.000000</ele>
				<time>2025-07-12T10:02:02Z</time>
			</trkpt>
			<trkpt lat="42.755948" lon="24.990153">
				<ele>1566.000000</ele>
				<time>2025-07-12T10:02:06Z</time>
			</trkpt>
			<trkpt lat="42.755900" lon="24.990129">
				<ele>1566.000000</ele>
				<time>2025-07-12T10:02:12Z</time>
			</trkpt>
			<trkpt lat="42.755840" lon="24.990098">
				<ele>1565.000000</ele>
				<time>2025-07-12T10:02:19Z</time>
			</trkpt>
			<trkpt lat="42.755813" lon="24.990081">
				<ele>1564.000000</ele>
				<time>2025-07-12T10:02:22Z</time>
			</trkpt>
			<trkpt lat="42.755803" lon="24.990073">
				<ele>1564.000000</ele>
				<time>2025-07-12T10:02:23Z</time>
			</trkpt>
			<trkpt lat="42.755788" lon="24.990053">
				<ele>1564.000000</ele>
				<time>2025-07-12T10:02:30Z</time>
			</trkpt>
			<trkpt lat="42.755775" lon="24.990043">
				<ele>1564.000000</ele>
				<time>2025-07-12T10:02:32Z</time>
			</trkpt>
			<trkpt lat="42.755728" lon="24.989968">
				<ele>1563.000000</ele>
				<time>2025-07-12T10:02:39Z</time>
			</trkpt>
			<trkpt lat="42.755673" lon="24.989899">
				<ele>1563.000000</ele>
				<time>2025-07-12T10:02:47Z</time>
			</trkpt>
			<trkpt lat="42.755652" lon="24.989889">
				<ele>1562.000000</ele>
				<time>2025-07-12T10:02:49Z</time>
			</trkpt>
			<trkpt lat="42.755604" lon="24.989850">
				<ele>1562.000000</ele>
				<time>2025-07-12T10:02:55Z</time>
			</trkpt>
			<trkpt lat="42.755562" lon="24.989816">
				<ele>1562.000000</ele>
				<time>2025-07-12T10:03:00Z</time>
			</trkpt>
			<trkpt lat="42.755545" lon="24.989795">
				<ele>1562.000000</ele>
				<time>2025-07-12T10:03:02Z</time>
			</trkpt>
			<trkpt lat="42.755513" lon="24.989746">
				<ele>1561.000000</ele>
				<time>2025-07-12T10:03:07Z</time>
			</trkpt>
			<trkpt lat="42.755476" lon="24.989732">
				<ele>1561.000000</ele>
				<time>2025-07-12T10:03:12Z</time>
			</trkpt>
			<trkpt lat="42.755454" lon="24.989724">
				<ele>1560.000000</ele>
				<time>2025-07-12T10:03:15Z</time>
			</trkpt>
			<trkpt lat="42.755417" lon="24.989728">
				<ele>1560.000000</ele>
				<time>2025-07-12T10:03:20Z</time>
			</trkpt>
			<trkpt lat="42.755399" lon="24.989738">
				<ele>1559.000000</ele>
				<time>2025-07-12T10:03:22Z</time>
			</trkpt>
			<trkpt lat="42.755385" lon="24.989754">
				<ele>1559.000000</ele>
				<time>2025-07-12T10:03:24Z</time>
			</trkpt>
			<trkpt lat="42.755378" lon="24.989824">
				<ele>1559.000000</ele>
				<time>2025-07-12T10:03:31Z</time>
			</trkpt>
			<trkpt lat="42.755397" lon="24.989960">
				<ele>1559.000000</ele>
				<time>2025-07-12T10:03:41Z</time>
			</trkpt>
			<trkpt lat="42.755405" lon="24.990072">
				<ele>1559.000000</ele>
				<time>2025-07-12T10:03:50Z</time>
			</trkpt>
			<trkpt lat="42.755417" lon="24.990167">
				<ele>1559.000000</ele>
				<time>2025-07-12T10:03:58Z</time>
			</trkpt>
			<trkpt lat="42.755408" lon="24.990254">
				<ele>1558.000000</ele>
				<time>2025-07-12T10:04:05Z</time>
			</trkpt>
			<trkpt lat="42.755408" lon="24.990267">
				<ele>1558.000000</ele>
				<time>2025-07-12T10:04:06Z</time>
			</trkpt>
			<trkpt lat="42.755413" lon="24.990414">
				<ele>1558.000000</ele>
				<time>2025-07-12T10:04:17Z</time>
			</trkpt>
			<trkpt lat="42.755436" lon="24.990509">
				<ele>1558.000000</ele>
				<time>2025-07-12T10:04:25Z</time>
			</trkpt>
			<trkpt lat="42.755444" lon="24.990549">
				<ele>1558.000000</ele>
				<time>2025-07-12T10:04:28Z</time>
			</trkpt>
			<trkpt lat="42.755450" lon="24.990632">
				<ele>1557.000000</ele>
				<time>2025-07-12T10:04:34Z</time>
			</trkpt>
			<trkpt lat="42.755457" lon="24.990685">
				<ele>1557.000000</ele>
				<time>2025-07-12T10:04:39Z</time>
			</trkpt>
			<trkpt lat="42.755464" lon="24.990710">
				<ele>1556.000000</ele>
				<time>2025-07-12T10:04:41Z</time>
			</trkpt>
			<trkpt lat="42.755452" lon="24.990719">
				<ele>1557.000000</ele>
				<time>2025-07-12T10:04:43Z</time>
			</trkpt>
			<trkpt lat="42.755447" lon="24.990731">
				<ele>1557.000000</ele>
				<time>2025-07-12T10:04:47Z</time>
			</trkpt>
			<trkpt lat="42.755446" lon="24.990742">
				<ele>1557.000000</ele>
				<time>2025-07-12T10:04:48Z</time>
			</trkpt>
			<trkpt lat="42.755452" lon="24.990776">
				<ele>1556.000000</ele>
				<time>2025-07-12T10:04:52Z</time>
			</trkpt>
			<trkpt lat="42.755462" lon="24.990815">
				<ele>1556.000000</ele>
				<time>2025-07-12T10:04:56Z</time>
			</trkpt>
			<trkpt lat="42.755462" lon="24.990919">
				<ele>1556.000000</ele>
				<time>2025-07-12T10:05:07Z</time>
			</trkpt>
			<trkpt lat="42.755458" lon="24.990978">
				<ele>1556.000000</ele>
				<time>2025-07-12T10:05:12Z</time>
			</trkpt>
			<trkpt lat="42.755453" lon="24.991002">
				<ele>1556.000000</ele>
				<time>2025-07-12T10:05:15Z</time>
			</trkpt>
			<trkpt lat="42.755453" lon="24.991020">
				<ele>1556.000000</ele>
				<time>2025-07-12T10:05:17Z</time>
			</trkpt>
			<trkpt lat="42.755444" lon="24.991108">
				<ele>1555.000000</ele>
				<time>2025-07-12T10:05:24Z</time>
			</trkpt>
			<trkpt lat="42.755417" lon="24.991205">
				<ele>1555.000000</ele>
				<time>2025-07-12T10:05:33Z</time>
			</trkpt>
			<trkpt lat="42.755397" lon="24.991259">
				<ele>1555.000000</ele>
				<time>2025-07-12T10:05:38Z</time>
			</trkpt>
			<trkpt lat="42.755393" lon="24.991272">
				<ele>1554.000000</ele>
				<time>2025-07-12T10:05:39Z</time>
			</trkpt>
			<trkpt lat="42.755345" lon="24.991371">
				<ele>1554.000000</ele>
				<time>2025-07-12T10:05:48Z</time>
			</trkpt>
			<trkpt lat="42.755300" lon="24.991452">
				<ele>1554.000000</ele>
				<time>2025-07-12T10:05:56Z</time>
			</trkpt>
			<trkpt lat="42.755268" lon="24.991478">
				<ele>1553.000000</ele>
				<time>2025-07-12T10:06:00Z</time>
			</trkpt>
			<trkpt lat="42.755239" lon="24.991508">
				<ele>1553.000000</ele>
				<time>2025-07-12T10:06:04Z</time>
			</trkpt>
			<trkpt lat="42.755153" lon="24.991576">
				<ele>1552.000000</ele>
				<time>2025-07-12T10:06:14Z</time>
			</trkpt>
			<trkpt lat="42.755123" lon="24.991596">
				<ele>1552.000000</ele>
				<time>2025-07-12T10:06:18Z</time>
			</trkpt>
			<trkpt lat="42.755083" lon="24.991642">
				<ele>1552.000000</ele>
				<time>2025-07-12T10:06:24Z</time>
			</trkpt>
			<trkpt lat="42.755011" lon="24.991709">
				<ele>1551.000000</ele>
				<time>2025-07-12T10:06:33Z</time>
			</trkpt>
			<trkpt lat="42.754994" lon="24.991723">
				<ele>1551.000000</ele>
				<time>2025-07-12T10:06:35Z</time>
			</trkpt>
			<trkpt lat="42.754918" lon="24.991772">
				<ele>1551.000000</ele>
				<time>2025-07-12T10:06:45Z</time>
			</trkpt>
			<trkpt lat="42.754838" lon="24.991822">
				<ele>1550.000000</ele>
				<time>2025-07-12T10:06:55Z</time>
			</trkpt>
			<trkpt lat="42.754830" lon="24.991827">
				<ele>1550.000000</ele>
				<time>2025-07-12T10:06:56Z</time>
			</trkpt>
			<trkpt lat="42.754748" lon="24.991875">
				<ele>1550.000000</ele>
				<time>2025-07-12T10:07:04Z</time>
			</trkpt>
			<trkpt lat="42.754676" lon="24.991916">
				<ele>1549.000000</ele>
				<time>2025-07-12T10:07:13Z</time>
			</trkpt>
			<trkpt lat="42.754651" lon="24.991930">
				<ele>1549.000000</ele>
				<time>2025-07-12T10:07:16Z</time>
			</trkpt>
			<trkpt lat="42.754580" lon="24.991985">
				<ele>1549.000000</ele>
				<time>2025-07-12T10:07:24Z</time>
			</trkpt>
			<trkpt lat="42.754508" lon="24.992014">
				<ele>1548.000000</ele>
				<time>2025-07-12T10:07:33Z</time>
			</trkpt>
			<trkpt lat="42.754429" lon="24.992056">
				<ele>1548.000000</ele>
				<time>2025-07-12T10:07:42Z</time>
			</trkpt>
			<trkpt lat="42.754414" lon="24.992056">
				<ele>1548.000000</ele>
				<time>2025-07-12T10:07:45Z</time>
			</trkpt>
			<trkpt lat="42.754409" lon="24.992059">
				<ele>1548.000000</ele>
				<time>2025-07-12T10:07:53Z</time>
			</trkpt>
			<trkpt lat="42.754394" lon="24.992073">
				<ele>1547.000000</ele>
				<time>2025-07-12T10:07:59Z</time>
			</trkpt>
			<trkpt lat="42.754343" lon="24.992113">
				<ele>1547.000000</ele>
				<time>2025-07-12T10:08:06Z</time>
			</trkpt>
			<trkpt lat="42.754330" lon="24.992121">
				<ele>1547.000000</ele>
				<time>2025-07-12T10:08:08Z</time>
			</trkpt>
			<trkpt lat="42.754298" lon="24.992144">
				<ele>1546.000000</ele>
				<time>2025-07-12T10:08:12Z</time>
			</trkpt>
			<trkpt lat="42.754271" lon="24.992164">
				<ele>1546.000000</ele>
				<time>2025-07-12T10:08:16Z</time>
			</trkpt>
			<trkpt lat="42.754208" lon="24.992185">
				<ele>1546.000000</ele>
				<time>2025-07-12T10:08:22Z</time>
			</trkpt>
			<trkpt lat="42.754192" lon="24.992197">
				<ele>1546.000000</ele>
				<time>2025-07-12T10:08:24Z</time>
			</trkpt>
			<trkpt lat="42.754139" lon="24.992231">
				<ele>1545.000000</ele>
				<time>2025-07-12T10:08:30Z</time>
			</trkpt>
			<trkpt lat="42.754064" lon="24.992276">
				<ele>1545.000000</ele>
				<time>2025-07-12T10:08:38Z</time>
			</trkpt>
			<trkpt lat="42.754053" lon="24.992279">
				<ele>1545.000000</ele>
				<time>2025-07-12T10:08:39Z</time>
			</trkpt>
			<trkpt lat="42.753984" lon="24.992293">
				<ele>1544.000000</ele>
				<time>2025-07-12T10:08:48Z</time>
			</trkpt>
			<trkpt lat="42.753919" lon="24.992290">
				<ele>1544.000000</ele>
				<time>2025-07-12T10:08:55Z</time>
			</trkpt>
			<trkpt lat="42.753836" lon="24.992335">
				<ele>1543.000000</ele>
				<time>2025-07-12T10:09:03Z</time>
			</trkpt>
			<trkpt lat="42.753803" lon="24.992372">
				<ele>1543.000000</ele>
				<time>2025-07-12T10:09:08Z</time>
			</trkpt>
			<trkpt lat="42.753762" lon="24.992393">
				<ele>1542.000000</ele>
				<time>2025-07-12T10:09:12Z</time>
			</trkpt>
			<trkpt lat="42.753700" lon="24.992415">
				<ele>1542.000000</ele>
				<time>2025-07-12T10:09:19Z</time>
			</trkpt>
			<trkpt lat="42.753630" lon="24.992437">
				<ele>1541.000000</ele>
				<time>2025-07-12T10:09:27Z</time>
			</trkpt>
			<trkpt lat="42.753586" lon="24.992474">
				<ele>1541.000000</ele>
				<time>2025-07-12T10:09:33Z</time>
			</trkpt>
			<trkpt lat="42.753547" lon="24.992506">
				<ele>1541.000000</ele>
				<time>2025-07-12T10:09:38Z</time>
			</trkpt>
			<trkpt lat="42.753537" lon="24.992511">
				<ele>1541.000000</ele>
				<time>2025-07-12T10:09:39Z</time>
			</trkpt>
			<trkpt lat="42.753515" lon="24.992526">
				<ele>1540.000000</ele>
				<time>2025-07-12T10:09:42Z</time>
			</trkpt>
			<trkpt lat="42.753476" lon="24.992539">
				<ele>1540.000000</ele>
				<time>2025-07-12T10:09:51Z</time>
			</trkpt>
			<trkpt lat="42.753461" lon="24.992555">
				<ele>1540.000000</ele>
				<time>2025-07-12T10:09:54Z</time>
			</trkpt>
			<trkpt lat="42.753441" lon="24.992547">
				<ele>1539.000000</ele>
				<time>2025-07-12T10:09:58Z</time>
			</trkpt>
			<trkpt lat="42.753410" lon="24.992555">
				<ele>1538.000000</ele>
				<time>2025-07-12T10:10:04Z</time>
			</trkpt>
			<trkpt lat="42.753412" lon="24.992545">
				<ele>1539.000000</ele>
				<time>2025-07-12T10:10:10Z</time>
			</trkpt>
			<trkpt lat="42.753412" lon="24.992538">
				<ele>1539.000000</ele>
				<time>2025-07-12T10:10:14Z</time>
			</trkpt>
			<trkpt lat="42.753417" lon="24.992537">
				<ele>1540.000000</ele>
				<time>2025-07-12T10:10:20Z</time>
			</trkpt>
			<trkpt lat="42.753415" lon="24.992537">
				<ele>1540.000000</ele>
				<time>2025-07-12T10:10:32Z</time>
			</trkpt>
			<trkpt lat="42.753415" lon="24.992535">
				<ele>1541.000000</ele>
				<time>2025-07-12T10:10:35Z</time>
			</trkpt>
			<trkpt lat="42.753415" lon="24.992535">
				<ele>1540.000000</ele>
				<time>2025-07-12T10:10:42Z</time>
			</trkpt>
			<trkpt lat="42.753415" lon="24.992535">
				<ele>1541.000000</ele>
				<time>2025-07-12T10:10:50Z</time>
			</trkpt>
			<trkpt lat="42.753404" lon="24.992549">
				<ele>1540.000000</ele>
				<time>2025-07-12T10:10:55Z</time>
			</trkpt>
			<trkpt lat="42.753385" lon="24.992563">
				<ele>1540.000000</ele>
				<time>2025-07-12T10:10:57Z</time>
			</trkpt>
			<trkpt lat="42.753333" lon="24.992592">
				<ele>1540.000000</ele>
				<time>2025-07-12T10:11:03Z</time>
			</trkpt>
			<trkpt lat="42.753289" lon="24.992577">
				<ele>1541.000000</ele>
				<time>2025-07-12T10:11:08Z</time>
			</trkpt>
			<trkpt lat="42.753269" lon="24.992551">
				<ele>1540.000000</ele>
				<time>2025-07-12T10:11:11Z</time>
			</trkpt>
			<trkpt lat="42.753224" lon="24.992470">
				<ele>1539.000000</ele>
				<time>2025-07-12T10:11:18Z</time>
			</trkpt>
			<trkpt lat="42.753208" lon="24.992419">
				<ele>1539.000000</ele>
				<time>2025-07-12T10:11:22Z</time>
			</trkpt>
			<trkpt lat="42.753186" lon="24.992366">
				<ele>1538.000000</ele>
				<time>2025-07-12T10:11:29Z</time>
			</trkpt>
			<trkpt lat="42.753178" lon="24.992348">
				<ele>1538.000000</ele>
				<time>2025-07-12T10:11:31Z</time>
			</trkpt>
			<trkpt lat="42.753169" lon="24.992307">
				<ele>1538.000000</ele>
				<time>2025-07-12T10:11:36Z</time>
			</trkpt>
			<trkpt lat="42.753152" lon="24.992264">
				<ele>1538.000000</ele>
				<time>2025-07-12T10:11:41Z</time>
			</trkpt>
			<trkpt lat="42.753145" lon="24.992244">
				<ele>1537.000000</ele>
				<time>2025-07-12T10:11:43Z</time>
			</trkpt>
			<trkpt lat="42.753100" lon="24.992134">
				<ele>1537.000000</ele>
				<time>2025-07-12T10:11:51Z</time>
			</trkpt>
			<trkpt lat="42.753062" lon="24.992082">
				<ele>1536.000000</ele>
				<time>2025-07-12T10:11:56Z</time>
			</trkpt>
			<trkpt lat="42.753050" lon="24.992066">
				<ele>1536.000000</ele>
				<time>2025-07-12T10:11:58Z</time>
			</trkpt>
			<trkpt lat="42.752995" lon="24.991973">
				<ele>1536.000000</ele>
				<time>2025-07-12T10:12:07Z</time>
			</trkpt>
			<trkpt lat="42.752974" lon="24.991938">
				<ele>1535.000000</ele>
				<time>2025-07-12T10:12:10Z</time>
			</trkpt>
			<trkpt lat="42.752921" lon="24.991849">
				<ele>1535.000000</ele>
				<time>2025-07-12T10:12:17Z</time>
			</trkpt>
			<trkpt lat="42.752903" lon="24.991795">
				<ele>1534.000000</ele>
				<time>2025-07-12T10:12:22Z</time>
			</trkpt>
			<trkpt lat="42.752883" lon="24.991764">
				<ele>1534.000000</ele>
				<time>2025-07-12T10:12:25Z</time>
			</trkpt>
			<trkpt lat="42.752813" lon="24.991662">
				<ele>1534.000000</ele>
				<time>2025-07-12T10:12:34Z</time>
			</trkpt>
			<trkpt lat="42.752780" lon="24.991570">
				<ele>1533.000000</ele>
				<time>2025-07-12T10:12:41Z</time>
			</trkpt>
			<trkpt lat="42.752772" lon="24.991540">
				<ele>1533.000000</ele>
				<time>2025-07-12T10:12:43Z</time>
			</trkpt>
			<trkpt lat="42.752760" lon="24.991440">
				<ele>1532.000000</ele>
				<time>2025-07-12T10:12:49Z</time>
			</trkpt>
			<trkpt lat="42.752756" lon="24.991415">
				<ele>1532.000000</ele>
				<time>2025-07-12T10:12:51Z</time>
			</trkpt>
			<trkpt lat="42.752746" lon="24.991381">
				<ele>1532.000000</ele>
				<time>2025-07-12T10:12:56Z</time>
			</trkpt>
			<trkpt lat="42.752720" lon="24.991331">
				<ele>1531.000000</ele>
				<time>2025-07-12T10:13:03Z</time>
			</trkpt>
			<trkpt lat="42.752706" lon="24.991308">
				<ele>1531.000000</ele>
				<time>2025-07-12T10:13:05Z</time>
			</trkpt>
			<trkpt lat="42.752701" lon="24.991300">
				<ele>1531.000000</ele>
				<time>2025-07-12T10:13:09Z</time>
			</trkpt>
			<trkpt lat="42.752715" lon="24.991296">
				<ele>1531.000000</ele>
				<time>2025-07-12T10:13:19Z</time>
			</trkpt>
			<trkpt lat="42.752722" lon="24.991303">
				<ele>1531.000000</ele>
				<time>2025-07-12T10:13:28Z</time>
			</trkpt>
			<trkpt lat="42.752725" lon="24.991301">
				<ele>1531.000000</ele>
				<time>2025-07-12T10:13:33Z</time>
			</trkpt>
			<trkpt lat="42.752708" lon="24.991287">
				<ele>1531.000000</ele>
				<time>2025-07-12T10:13:43Z</time>
			</trkpt>
			<trkpt lat="42.752681" lon="24.991222">
				<ele>1531.000000</ele>
				<time>2025-07-12T10:13:52Z</time>
			</trkpt>
			<trkpt lat="42.752675" lon="24.991198">
				<ele>1531.000000</ele>
				<time>2025-07-12T10:13:55Z</time>
			</trkpt>
			<trkpt lat="42.752657" lon="24.991175">
				<ele>1531.000000</ele>
				<time>2025-07-12T10:13:58Z</time>
			</trkpt>
			<trkpt lat="42.752625" lon="24.991110">
				<ele>1531.000000</ele>
				<time>2025-07-12T10:14:05Z</time>
			</trkpt>
			<trkpt lat="42.752584" lon="24.991040">
				<ele>1531.000000</ele>
				<time>2025-07-12T10:14:12Z</time>
			</trkpt>
			<trkpt lat="42.752573" lon="24.991024">
				<ele>1531.000000</ele>
				<time>2025-07-12T10:14:15Z</time>
			</trkpt>
			<trkpt lat="42.752565" lon="24.991020">
				<ele>1531.000000</ele>
				<time>2025-07-12T10:14:16Z</time>
			</trkpt>
			<trkpt lat="42.752533" lon="24.991009">
				<ele>1531.000000</ele>
				<time>2025-07-12T10:14:19Z</time>
			</trkpt>
			<trkpt lat="42.752518" lon="24.991036">
				<ele>1531.000000</ele>
				<time>2025-07-12T10:14:23Z</time>
			</trkpt>
			<trkpt lat="42.752512" lon="24.991049">
				<ele>1531.000000</ele>
				<time>2025-07-12T10:14:24Z</time>
			</trkpt>
			<trkpt lat="42.752507" lon="24.991112">
				<ele>1531.000000</ele>
				<time>2025-07-12T10:14:31Z</time>
			</trkpt>
			<trkpt lat="42.752506" lon="24.991151">
				<ele>1532.000000</ele>
				<time>2025-07-12T10:14:35Z</time>
			</trkpt>
			<trkpt lat="42.752501" lon="24.991200">
				<ele>1532.000000</ele>
				<time>2025-07-12T10:14:38Z</time>
			</trkpt>
			<trkpt lat="42.752505" lon="24.991242">
				<ele>1532.000000</ele>
				<time>2025-07-12T10:14:41Z</time>
			</trkpt>
			<trkpt lat="42.752504" lon="24.991268">
				<ele>1532.000000</ele>
				<time>2025-07-12T10:14:43Z</time>
			</trkpt>
			<trkpt lat="42.752503" lon="24.991283">
				<ele>1532.000000</ele>
				<time>2025-07-12T10:14:44Z</time>
			</trkpt>
			<trkpt lat="42.752500" lon="24.991318">
				<ele>1532.000000</ele>
				<time>2025-07-12T10:14:46Z</time>
			</trkpt>
			<trkpt lat="42.752490" lon="24.991359">
				<ele>1533.000000</ele>
				<time>2025-07-12T10:14:50Z</time>
			</trkpt>
			<trkpt lat="42.752487" lon="24.991367">
				<ele>1533.000000</ele>
				<time>2025-07-12T10:14:51Z</time>
			</trkpt>
			<trkpt lat="42.752470" lon="24.991487">
				<ele>1533.000000</ele>
				<time>2025-07-12T10:14:59Z</time>
			</trkpt>
			<trkpt lat="42.752464" lon="24.991554">
				<ele>1533.000000</ele>
				<time>2025-07-12T10:15:04Z</time>
			</trkpt>
			<trkpt lat="42.752460" lon="24.991639">
				<ele>1533.000000</ele>
				<time>2025-07-12T10:15:10Z</time>
			</trkpt>
			<trkpt lat="42.752443" lon="24.991748">
				<ele>1534.000000</ele>
				<time>2025-07-12T10:15:18Z</time>
			</trkpt>
			<trkpt lat="42.752436" lon="24.991806">
				<ele>1534.000000</ele>
				<time>2025-07-12T10:15:23Z</time>
			</trkpt>
			<trkpt lat="42.752424" lon="24.991866">
				<ele>1534.000000</ele>
				<time>2025-07-12T10:15:27Z</time>
			</trkpt>
			<trkpt lat="42.752397" lon="24.991989">
				<ele>1535.000000</ele>
				<time>2025-07-12T10:15:36Z</time>
			</trkpt>
			<trkpt lat="42.752388" lon="24.992026">
				<ele>1535.000000</ele>
				<time>2025-07-12T10:15:38Z</time>
			</trkpt>
			<trkpt lat="42.752363" lon="24.992099">
				<ele>1535.000000</ele>
				<time>2025-07-12T10:15:44Z</time>
			</trkpt>
			<trkpt lat="42.752353" lon="24.992136">
				<ele>1535.000000</ele>
				<time>2025-07-12T10:15:47Z</time>
			</trkpt>
			<trkpt lat="42.752322" lon="24.992276">
				<ele>1536.000000</ele>
				<time>2025-07-12T10:15:56Z</time>
			</trkpt>
			<trkpt lat="42.752317" lon="24.992290">
				<ele>1536.000000</ele>
				<time>2025-07-12T10:15:57Z</time>
			</trkpt>
			<trkpt lat="42.752298" lon="24.992365">
				<ele>1536.000000</ele>
				<time>2025-07-12T10:16:03Z</time>
			</trkpt>
			<trkpt lat="42.752285" lon="24.992405">
				<ele>1537.000000</ele>
				<time>2025-07-12T10:16:07Z</time>
			</trkpt>
			<trkpt lat="42.752251" lon="24.992397">
				<ele>1536.000000</ele>
				<time>2025-07-12T10:16:14Z</time>
			</trkpt>
			<trkpt lat="42.752247" lon="24.992398">
				<ele>1536.000000</ele>
				<time>2025-07-12T10:16:15Z</time>
			</trkpt>
			<trkpt lat="42.752235" lon="24.992419">
				<ele>1537.000000</ele>
				<time>2025-07-12T10:16:18Z</time>
			</trkpt>
			<trkpt lat="42.752224" lon="24.992506">
				<ele>1536.000000</ele>
				<time>2025-07-12T10:16:24Z</time>
			</trkpt>
			<trkpt lat="42.752212" lon="24.992626">
				<ele>1537.000000</ele>
				<time>2025-07-12T10:16:33Z</time>
			</trkpt>
			<trkpt lat="42.752208" lon="24.992716">
				<ele>1537.000000</ele>
				<time>2025-07-12T10:16:39Z</time>
			</trkpt>
			<trkpt lat="42.752204" lon="24.992755">
				<ele>1537.000000</ele>
				<time>2025-07-12T10:16:42Z</time>
			</trkpt>
			<trkpt lat="42.752188" lon="24.992872">
				<ele>1537.000000</ele>
				<time>2025-07-12T10:16:51Z</time>
			</trkpt>
			<trkpt lat="42.752151" lon="24.992975">
				<ele>1538.000000</ele>
				<time>2025-07-12T10:16:59Z</time>
			</trkpt>
			<trkpt lat="42.752113" lon="24.993048">
				<ele>1538.000000</ele>
				<time>2025-07-12T10:17:05Z</time>
			</trkpt>
			<trkpt lat="42.752096" lon="24.993078">
				<ele>1538.000000</ele>
				<time>2025-07-12T10:17:08Z</time>
			</trkpt>
			<trkpt lat="42.752093" lon="24.993082">
				<ele>1538.000000</ele>
				<time>2025-07-12T10:17:09Z</time>
			</trkpt>
			<trkpt lat="42.752071" lon="24.993128">
				<ele>1539.000000</ele>
				<time>2025-07-12T10:17:14Z</time>
			</trkpt>
			<trkpt lat="42.752058" lon="24.993151">
				<ele>1539.000000</ele>
				<time>2025-07-12T10:17:17Z</time>
			</trkpt>
			<trkpt lat="42.752003" lon="24.993272">
				<ele>1539.000000</ele>
				<time>2025-07-12T10:17:27Z</time>
			</trkpt>
			<trkpt lat="42.751997" lon="24.993288">
				<ele>1539.000000</ele>
				<time>2025-07-12T10:17:28Z</time>
			</trkpt>
			<trkpt lat="42.751942" lon="24.993391">
				<ele>1540.000000</ele>
				<time>2025-07-12T10:17:36Z</time>
			</trkpt>
			<trkpt lat="42.751881" lon="24.993482">
				<ele>1541.000000</ele>
				<time>2025-07-12T10:17:45Z</time>
			</trkpt>
			<trkpt lat="42.751844" lon="24.993550">
				<ele>1541.000000</ele>
				<time>2025-07-12T10:17:51Z</time>
			</trkpt>
			<trkpt lat="42.751820" lon="24.993571">
				<ele>1542.000000</ele>
				<time>2025-07-12T10:17:54Z</time>
			</trkpt>
			<trkpt lat="42.751811" lon="24.993585">
				<ele>1542.000000</ele>
				<time>2025-07-12T10:17:57Z</time>
			</trkpt>
			<trkpt lat="42.751800" lon="24.993614">
				<ele>1543.000000</ele>
				<time>2025-07-12T10:18:00Z</time>
			</trkpt>
			<trkpt lat="42.751792" lon="24.993647">
				<ele>1543.000000</ele>
				<time>2025-07-12T10:18:07Z</time>
			</trkpt>
			<trkpt lat="42.751756" lon="24.993693">
				<ele>1543.000000</ele>
				<time>2025-07-12T10:18:13Z</time>
			</trkpt>
			<trkpt lat="42.751709" lon="24.993792">
				<ele>1544.000000</ele>
				<time>2025-07-12T10:18:23Z</time>
			</trkpt>
			<trkpt lat="42.751703" lon="24.993803">
				<ele>1544.000000</ele>
				<time>2025-07-12T10:18:24Z</time>
			</trkpt>
			<trkpt lat="42.751664" lon="24.993859">
				<ele>1543.000000</ele>
				<time>2025-07-12T10:18:29Z</time>
			</trkpt>
			<trkpt lat="42.751642" lon="24.993899">
				<ele>1544.000000</ele>
				<time>2025-07-12T10:18:33Z</time>
			</trkpt>
			<trkpt lat="42.751635" lon="24.993910">
				<ele>1544.000000</ele>
				<time>2025-07-12T10:18:34Z</time>
			</trkpt>
			<trkpt lat="42.751577" lon="24.993980">
				<ele>1544.000000</ele>
				<time>2025-07-12T10:18:42Z</time>
			</trkpt>
			<trkpt lat="42.751569" lon="24.993990">
				<ele>1544.000000</ele>
				<time>2025-07-12T10:18:43Z</time>
			</trkpt>
			<trkpt lat="42.751528" lon="24.994027">
				<ele>1545.000000</ele>
				<time>2025-07-12T10:18:48Z</time>
			</trkpt>
			<trkpt lat="42.751491" lon="24.994061">
				<ele>1545.000000</ele>
				<time>2025-07-12T10:18:53Z</time>
			</trkpt>
			<trkpt lat="42.751485" lon="24.994068">
				<ele>1545.000000</ele>
				<time>2025-07-12T10:18:54Z</time>
			</trkpt>
			<trkpt lat="42.751443" lon="24.994123">
				<ele>1545.000000</ele>
				<time>2025-07-12T10:19:00Z</time>
			</trkpt>
			<trkpt lat="42.751395" lon="24.994163">
				<ele>1544.000000</ele>
				<time>2025-07-12T10:19:04Z</time>
			</trkpt>
			<trkpt lat="42.751360" lon="24.994155">
				<ele>1544.000000</ele>
				<time>2025-07-12T10:19:07Z</time>
			</trkpt>
			<trkpt lat="42.751352" lon="24.994155">
				<ele>1545.000000</ele>
				<time>2025-07-12T10:19:08Z</time>
			</trkpt>
			<trkpt lat="42.751204" lon="24.994076">
				<ele>1545.000000</ele>
				<time>2025-07-12T11:02:00Z</time>
			</trkpt>
			<trkpt lat="42.751205" lon="24.994078">
				<ele>1546.000000</ele>
				<time>2025-07-12T11:02:02Z</time>
			</trkpt>
			<trkpt lat="42.751210" lon="24.993965">
				<ele>1547.000000</ele>
				<time>2025-07-12T11:03:06Z</time>
			</trkpt>
			<trkpt lat="42.751206" lon="24.993958">
				<ele>1547.000000</ele>
				<time>2025-07-12T11:03:07Z</time>
			</trkpt>
			<trkpt lat="42.751180" lon="24.993903">
				<ele>1547.000000</ele>
				<time>2025-07-12T11:03:11Z</time>
			</trkpt>
			<trkpt lat="42.751136" lon="24.993862">
				<ele>1547.000000</ele>
				<time>2025-07-12T11:03:16Z</time>
			</trkpt>
			<trkpt lat="42.751114" lon="24.993808">
				<ele>1548.000000</ele>
				<time>2025-07-12T11:03:20Z</time>
			</trkpt>
			<trkpt lat="42.751113" lon="24.993788">
				<ele>1548.000000</ele>
				<time>2025-07-12T11:03:21Z</time>
			</trkpt>
			<trkpt lat="42.751114" lon="24.993756">
				<ele>1548.000000</ele>
				<time>2025-07-12T11:03:23Z</time>
			</trkpt>
			<trkpt lat="42.751115" lon="24.993729">
				<ele>1549.000000</ele>
				<time>2025-07-12T11:03:25Z</time>
			</trkpt>
			<trkpt lat="42.751117" lon="24.993703">
				<ele>1549.000000</ele>
				<time>2025-07-12T11:03:28Z</time>
			</trkpt>
			<trkpt lat="42.751115" lon="24.993693">
				<ele>1550.000000</ele>
				<time>2025-07-12T11:03:29Z</time>
			</trkpt>
			<trkpt lat="42.751113" lon="24.993655">
				<ele>1551.000000</ele>
				<time>2025-07-12T11:03:33Z</time>
			</trkpt>
			<trkpt lat="42.751108" lon="24.993640">
				<ele>1551.000000</ele>
				<time>2025-07-12T11:03:35Z</time>
			</trkpt>
			<trkpt lat="42.751098" lon="24.993601">
				<ele>1552.000000</ele>
				<time>2025-07-12T11:03:39Z</time>
			</trkpt>
			<trkpt lat="42.751097" lon="24.993593">
				<ele>1552.000000</ele>
				<time>2025-07-12T11:03:40Z</time>
			</trkpt>
			<trkpt lat="42.751089" lon="24.993555">
				<ele>1553.000000</ele>
				<time>2025-07-12T11:03:44Z</time>
			</trkpt>
			<trkpt lat="42.751083" lon="24.993526">
				<ele>1554.000000</ele>
				<time>2025-07-12T11:03:47Z</time>
			</trkpt>
			<trkpt lat="42.751082" lon="24.993516">
				<ele>1554.000000</ele>
				<time>2025-07-12T11:03:48Z</time>
			</trkpt>
			<trkpt lat="42.751079" lon="24.993504">
				<ele>1555.000000</ele>
				<time>2025-07-12T11:03:50Z</time>
			</trkpt>
			<trkpt lat="42.751068" lon="24.993479">
				<ele>1555.000000</ele>
				<time>2025-07-12T11:03:53Z</time>
			</trkpt>
			<trkpt lat="42.751052" lon="24.993446">
				<ele>1556.000000</ele>
				<time>2025-07-12T11:03:57Z</time>
			</trkpt>
			<trkpt lat="42.751045" lon="24.993396">
				<ele>1557.000000</ele>
				<time>2025-07-12T11:04:01Z</time>
			</trkpt>
			<trkpt lat="42.751061" lon="24.993357">
				<ele>1558.000000</ele>
				<time>2025-07-12T11:04:05Z</time>
			</trkpt>
			<trkpt lat="42.751063" lon="24.993383">
				<ele>1559.000000</ele>
				<time>2025-07-12T11:04:08Z</time>
			</trkpt>
			<trkpt lat="42.751055" lon="24.993382">
				<ele>1559.000000</ele>
				<time>2025-07-12T11:04:11Z</time>
			</trkpt>
			<trkpt lat="42.751049" lon="24.993339">
				<ele>1559.000000</ele>
				<time>2025-07-12T11:04:14Z</time>
			</trkpt>
			<trkpt lat="42.751048" lon="24.993324">
				<ele>1560.000000</ele>
				<time>2025-07-12T11:04:16Z</time>
			</trkpt>
			<trkpt lat="42.751044" lon="24.993292">
				<ele>1561.000000</ele>
				<time>2025-07-12T11:04:20Z</time>
			</trkpt>
			<trkpt lat="42.751042" lon="24.993280">
				<ele>1561.000000</ele>
				<time>2025-07-12T11:04:21Z</time>
			</trkpt>
			<trkpt lat="42.751035" lon="24.993243">
				<ele>1562.000000</ele>
				<time>2025-07-12T11:04:25Z</time>
			</trkpt>
			<trkpt lat="42.751032" lon="24.993211">
				<ele>1563.000000</ele>
				<time>2025-07-12T11:04:28Z</time>
			</trkpt>
			<trkpt lat="42.751031" lon="24.993204">
				<ele>1563.000000</ele>
				<time>2025-07-12T11:04:29Z</time>
			</trkpt>
			<trkpt lat="42.751026" lon="24.993164">
				<ele>1564.000000</ele>
				<time>2025-07-12T11:04:34Z</time>
			</trkpt>
			<trkpt lat="42.751024" lon="24.993158">
				<ele>1564.000000</ele>
				<time>2025-07-12T11:04:35Z</time>
			</trkpt>
			<trkpt lat="42.751023" lon="24.993147">
				<ele>1564.000000</ele>
				<time>2025-07-12T11:04:36Z</time>
			</trkpt>
			<trkpt lat="42.751027" lon="24.993125">
				<ele>1565.000000</ele>
				<time>2025-07-12T11:04:39Z</time>
			</trkpt>
			<trkpt lat="42.751023" lon="24.993093">
				<ele>1566.000000</ele>
				<time>2025-07-12T11:04:43Z</time>
			</trkpt>
			<trkpt lat="42.751019" lon="24.993088">
				<ele>1566.000000</ele>
				<time>2025-07-12T11:04:44Z</time>
			</trkpt>
			<trkpt lat="42.751009" lon="24.993061">
				<ele>1567.000000</ele>
				<time>2025-07-12T11:04:47Z</time>
			</trkpt>
			<trkpt lat="42.751008" lon="24.993035">
				<ele>1567.000000</ele>
				<time>2025-07-12T11:04:50Z</time>
			</trkpt>
			<trkpt lat="42.751003" lon="24.993021">
				<ele>1568.000000</ele>
				<time>2025-07-12T11:04:52Z</time>
			</trkpt>
			<trkpt lat="42.750996" lon="24.993015">
				<ele>1569.000000</ele>
				<time>2025-07-12T11:04:55Z</time>
			</trkpt>
			<trkpt lat="42.750993" lon="24.992987">
				<ele>1569.000000</ele>
				<time>2025-07-12T11:04:58Z</time>
			</trkpt>
			<trkpt lat="42.750990" lon="24.992960">
				<ele>1570.000000</ele>
				<time>2025-07-12T11:05:01Z</time>
			</trkpt>
			<trkpt lat="42.750983" lon="24.992934">
				<ele>1571.000000</ele>
				<time>2025-07-12T11:05:04Z</time>
			</trkpt>
			<trkpt lat="42.750980" lon="24.992919">
				<ele>1571.000000</ele>
				<time>2025-07-12T11:05:05Z</time>
			</trkpt>
			<trkpt lat="42.750986" lon="24.992887">
				<ele>1571.000000</ele>
				<time>2025-07-12T11:05:09Z</time>
			</trkpt>
			<trkpt lat="42.750988" lon="24.992876">
				<ele>1572.000000</ele>
				<time>2025-07-12T11:05:11Z</time>
			</trkpt>
			<trkpt lat="42.750987" lon="24.992873">
				<ele>1572.000000</ele>
				<time>2025-07-12T11:05:12Z</time>
			</trkpt>
			<trkpt lat="42.750998" lon="24.992854">
				<ele>1573.000000</ele>
				<time>2025-07-12T11:05:16Z</time>
			</trkpt>
			<trkpt lat="42.751002" lon="24.992857">
				<ele>1573.000000</ele>
				<time>2025-07-12T11:05:18Z</time>
			</trkpt>
			<trkpt lat="42.750999" lon="24.992857">
				<ele>1573.000000</ele>
				<time>2025-07-12T11:05:27Z</time>
			</trkpt>
			<trkpt lat="42.750998" lon="24.992856">
				<ele>1573.000000</ele>
				<time>2025-07-12T11:05:35Z</time>
			</trkpt>
			<trkpt lat="42.751006" lon="24.992826">
				<ele>1573.000000</ele>
				<time>2025-07-12T11:05:41Z</time>
			</trkpt>
			<trkpt lat="42.751003" lon="24.992825">
				<ele>1573.000000</ele>
				<time>2025-07-12T11:05:42Z</time>
			</trkpt>
			<trkpt lat="42.751002" lon="24.992833">
				<ele>1574.000000</ele>
				<time>2025-07-12T11:05:47Z</time>
			</trkpt>
			<trkpt lat="42.751000" lon="24.992791">
				<ele>1574.000000</ele>
				<time>2025-07-12T11:05:54Z</time>
			</trkpt>
			<trkpt lat="42.750996" lon="24.992785">
				<ele>1574.000000</ele>
				<time>2025-07-12T11:05:55Z</time>
			</trkpt>
			<trkpt lat="42.750991" lon="24.992740">
				<ele>1575.000000</ele>
				<time>2025-07-12T11:06:00Z</time>
			</trkpt>
			<trkpt lat="42.750994" lon="24.992735">
				<ele>1575.000000</ele>
				<time>2025-07-12T11:06:01Z</time>
			</trkpt>
			<trkpt lat="42.750995" lon="24.992724">
				<ele>1575.000000</ele>
				<time>2025-07-12T11:06:02Z</time>
			</trkpt>
			<trkpt lat="42.750995" lon="24.992665">
				<ele>1576.000000</ele>
				<time>2025-07-12T11:06:08Z</time>
			</trkpt>
			<trkpt lat="42.750993" lon="24.992659">
				<ele>1576.000000</ele>
				<time>2025-07-12T11:06:09Z</time>
			</trkpt>
			<trkpt lat="42.750992" lon="24.992645">
				<ele>1576.000000</ele>
				<time>2025-07-12T11:06:10Z</time>
			</trkpt>
			<trkpt lat="42.750992" lon="24.992585">
				<ele>1577.000000</ele>
				<time>2025-07-12T11:06:15Z</time>
			</trkpt>
			<trkpt lat="42.751011" lon="24.992533">
				<ele>1577.000000</ele>
				<time>2025-07-12T11:06:19Z</time>
			</trkpt>
			<trkpt lat="42.751020" lon="24.992510">
				<ele>1577.000000</ele>
				<time>2025-07-12T11:06:22Z</time>
			</trkpt>
			<trkpt lat="42.751023" lon="24.992443">
				<ele>1578.000000</ele>
				<time>2025-07-12T11:06:28Z</time>
			</trkpt>
			<trkpt lat="42.751023" lon="24.992407">
				<ele>1578.000000</ele>
				<time>2025-07-12T11:06:31Z</time>
			</trkpt>
			<trkpt lat="42.751020" lon="24.992364">
				<ele>1579.000000</ele>
				<time>2025-07-12T11:06:36Z</time>
			</trkpt>
			<trkpt lat="42.751021" lon="24.992339">
				<ele>1579.000000</ele>
				<time>2025-07-12T11:06:38Z</time>
			</trkpt>
			<trkpt lat="42.751024" lon="24.992268">
				<ele>1580.000000</ele>
				<time>2025-07-12T11:06:44Z</time>
			</trkpt>
			<trkpt lat="42.751023" lon="24.992232">
				<ele>1580.000000</ele>
				<time>2025-07-12T11:06:48Z</time>
			</trkpt>
			<trkpt lat="42.751020" lon="24.992187">
				<ele>1580.000000</ele>
				<time>2025-07-12T11:06:52Z</time>
			</trkpt>
			<trkpt lat="42.751018" lon="24.992172">
				<ele>1580.000000</ele>
				<time>2025-07-12T11:06:54Z</time>
			</trkpt>
			<trkpt lat="42.751026" lon="24.992179">
				<ele>1581.000000</ele>
				<time>2025-07-12T11:06:58Z</time>
			</trkpt>
			<trkpt lat="42.751018" lon="24.992146">
				<ele>1580.000000</ele>
				<time>2025-07-12T11:07:06Z</time>
			</trkpt>
			<trkpt lat="42.751013" lon="24.992055">
				<ele>1581.000000</ele>
				<time>2025-07-12T11:07:13Z</time>
			</trkpt>
			<trkpt lat="42.751012" lon="24.992022">
				<ele>1581.000000</ele>
				<time>2025-07-12T11:07:21Z</time>
			</trkpt>
			<trkpt lat="42.751012" lon="24.992027">
				<ele>1580.000000</ele>
				<time>2025-07-12T11:07:24Z</time>
			</trkpt>
			<trkpt lat="42.751006" lon="24.991991">
				<ele>1580.000000</ele>
				<time>2025-07-12T11:07:28Z</time>
			</trkpt>
			<trkpt lat="42.751007" lon="24.991951">
				<ele>1580.000000</ele>
				<time>2025-07-12T11:07:30Z</time>
			</trkpt>
			<trkpt lat="42.751011" lon="24.991843">
				<ele>1581.000000</ele>
				<time>2025-07-12T11:07:39Z</time>
			</trkpt>
			<trkpt lat="42.751010" lon="24.991824">
				<ele>1582.000000</ele>
				<time>2025-07-12T11:07:41Z</time>
			</trkpt>
			<trkpt lat="42.751012" lon="24.991782">
				<ele>1582.000000</ele>
				<time>2025-07-12T11:07:44Z</time>
			</trkpt>
			<trkpt lat="42.751016" lon="24.991753">
				<ele>1583.000000</ele>
				<time>2025-07-12T11:07:46Z</time>
			</trkpt>
			<trkpt lat="42.751027" lon="24.991693">
				<ele>1583.000000</ele>
				<time>2025-07-12T11:07:51Z</time>
			</trkpt>
			<trkpt lat="42.751033" lon="24.991661">
				<ele>1584.000000</ele>
				<time>2025-07-12T11:07:54Z</time>
			</trkpt>
			<trkpt lat="42.751042" lon="24.991622">
				<ele>1584.000000</ele>
				<time>2025-07-12T11:07:59Z</time>
			</trkpt>
			<trkpt lat="42.751038" lon="24.991618">
				<ele>1584.000000</ele>
				<time>2025-07-12T11:08:05Z</time>
			</trkpt>
			<trkpt lat="42.751045" lon="24.991621">
				<ele>1584.000000</ele>
				<time>2025-07-12T11:08:10Z</time>
			</trkpt>
			<trkpt lat="42.751057" lon="24.991642">
				<ele>1583.000000</ele>
				<time>2025-07-12T11:08:20Z</time>
			</trkpt>
			<trkpt lat="42.751065" lon="24.991647">
				<ele>1583.000000</ele>
				<time>2025-07-12T11:08:24Z</time>
			</trkpt>
			<trkpt lat="42.751062" lon="24.991646">
				<ele>1583.000000</ele>
				<time>2025-07-12T11:08:28Z</time>
			</trkpt>
			<trkpt lat="42.751061" lon="24.991645">
				<ele>1583.000000</ele>
				<time>2025-07-12T11:08:30Z</time>
			</trkpt>
			<trkpt lat="42.751047" lon="24.991568">
				<ele>1583.000000</ele>
				<time>2025-07-12T11:08:35Z</time>
			</trkpt>
			<trkpt lat="42.751036" lon="24.991452">
				<ele>1585.000000</ele>
				<time>2025-07-12T11:08:44Z</time>
			</trkpt>
			<trkpt lat="42.751033" lon="24.991411">
				<ele>1585.000000</ele>
				<time>2025-07-12T11:08:48Z</time>
			</trkpt>
			<trkpt lat="42.751025" lon="24.991377">
				<ele>1586.000000</ele>
				<time>2025-07-12T11:08:51Z</time>
			</trkpt>
			<trkpt lat="42.751013" lon="24.991323">
				<ele>1586.000000</ele>
				<time>2025-07-12T11:08:55Z</time>
			</trkpt>
			<trkpt lat="42.750993" lon="24.991246">
				<ele>1587.000000</ele>
				<time>2025-07-12T11:09:01Z</time>
			</trkpt>
			<trkpt lat="42.750987" lon="24.991198">
				<ele>1588.000000</ele>
				<time>2025-07-12T11:09:05Z</time>
			</trkpt>
			<trkpt lat="42.750970" lon="24.991141">
				<ele>1588.000000</ele>
				<time>2025-07-12T11:09:10Z</time>
			</trkpt>
			<trkpt lat="42.750967" lon="24.991091">
				<ele>1589.000000</ele>
				<time>2025-07-12T11:09:14Z</time>
			</trkpt>
			<trkpt lat="42.750964" lon="24.991065">
				<ele>1589.000000</ele>
				<time>2025-07-12T11:09:16Z</time>
			</trkpt>
			<trkpt lat="42.750966" lon="24.991018">
				<ele>1590.000000</ele>
				<time>2025-07-12T11:09:21Z</time>
			</trkpt>
			<trkpt lat="42.750969" lon="24.990998">
				<ele>1590.000000</ele>
				<time>2025-07-12T11:09:23Z</time>
			</trkpt>
			<trkpt lat="42.750972" lon="24.990986">
				<ele>1590.000000</ele>
				<time>2025-07-12T11:09:25Z</time>
			</trkpt>
			<trkpt lat="42.750969" lon="24.990978">
				<ele>1590.000000</ele>
				<time>2025-07-12T11:09:28Z</time>
			</trkpt>
			<trkpt lat="42.750967" lon="24.990968">
				<ele>1590.000000</ele>
				<time>2025-07-12T11:09:29Z</time>
			</trkpt>
			<trkpt lat="42.750975" lon="24.990934">
				<ele>1591.000000</ele>
				<time>2025-07-12T11:09:36Z</time>
			</trkpt>
			<trkpt lat="42.750979" lon="24.990909">
				<ele>1591.000000</ele>
				<time>2025-07-12T11:09:45Z</time>
			</trkpt>
			<trkpt lat="42.750979" lon="24.990848">
				<ele>1592.000000</ele>
				<time>2025-07-12T11:09:51Z</time>
			</trkpt>
			<trkpt lat="42.750980" lon="24.990825">
				<ele>1593.000000</ele>
				<time>2025-07-12T11:09:53Z</time>
			</trkpt>
			<trkpt lat="42.750984" lon="24.990765">
				<ele>1593.000000</ele>
				<time>2025-07-12T11:09:58Z</time>
			</trkpt>
			<trkpt lat="42.750991" lon="24.990736">
				<ele>1594.000000</ele>
				<time>2025-07-12T11:10:01Z</time>
			</trkpt>
			<trkpt lat="42.750992" lon="24.990702">
				<ele>1594.000000</ele>
				<time>2025-07-12T11:10:04Z</time>
			</trkpt>
			<trkpt lat="42.750991" lon="24.990636">
				<ele>1595.000000</ele>
				<time>2025-07-12T11:10:10Z</time>
			</trkpt>
			<trkpt lat="42.750987" lon="24.990600">
				<ele>1595.000000</ele>
				<time>2025-07-12T11:10:13Z</time>
			</trkpt>
			<trkpt lat="42.750966" lon="24.990503">
				<ele>1597.000000</ele>
				<time>2025-07-12T11:10:21Z</time>
			</trkpt>
			<trkpt lat="42.750964" lon="24.990493">
				<ele>1597.000000</ele>
				<time>2025-07-12T11:10:22Z</time>
			</trkpt>
			<trkpt lat="42.750946" lon="24.990415">
				<ele>1598.000000</ele>
				<time>2025-07-12T11:10:29Z</time>
			</trkpt>
			<trkpt lat="42.750943" lon="24.990407">
				<ele>1598.000000</ele>
				<time>2025-07-12T11:10:30Z</time>
			</trkpt>
			<trkpt lat="42.750936" lon="24.990376">
				<ele>1598.000000</ele>
				<time>2025-07-12T11:10:33Z</time>
			</trkpt>
			<trkpt lat="42.750928" lon="24.990344">
				<ele>1599.000000</ele>
				<time>2025-07-12T11:10:36Z</time>
			</trkpt>
			<trkpt lat="42.750920" lon="24.990300">
				<ele>1600.000000</ele>
				<time>2025-07-12T11:10:41Z</time>
			</trkpt>
			<trkpt lat="42.750917" lon="24.990280">
				<ele>1600.000000</ele>
				<time>2025-07-12T11:10:43Z</time>
			</trkpt>
			<trkpt lat="42.750902" lon="24.990210">
				<ele>1601.000000</ele>
				<time>2025-07-12T11:10:50Z</time>
			</trkpt>
			<trkpt lat="42.750900" lon="24.990198">
				<ele>1601.000000</ele>
				<time>2025-07-12T11:10:51Z</time>
			</trkpt>
			<trkpt lat="42.750891" lon="24.990141">
				<ele>1602.000000</ele>
				<time>2025-07-12T11:10:57Z</time>
			</trkpt>
			<trkpt lat="42.750889" lon="24.990135">
				<ele>1602.000000</ele>
				<time>2025-07-12T11:10:58Z</time>
			</trkpt>
			<trkpt lat="42.750884" lon="24.990112">
				<ele>1602.000000</ele>
				<time>2025-07-12T11:11:00Z</time>
			</trkpt>
			<trkpt lat="42.750877" lon="24.990064">
				<ele>1603.000000</ele>
				<time>2025-07-12T11:11:04Z</time>
			</trkpt>
			<trkpt lat="42.750872" lon="24.990037">
				<ele>1603.000000</ele>
				<time>2025-07-12T11:11:07Z</time>
			</trkpt>
			<trkpt lat="42.750864" lon="24.989997">
				<ele>1603.000000</ele>
				<time>2025-07-12T11:11:12Z</time>
			</trkpt>
			<trkpt lat="42.750863" lon="24.989980">
				<ele>1603.000000</ele>
				<time>2025-07-12T11:11:14Z</time>
			</trkpt>
			<trkpt lat="42.750843" lon="24.989905">
				<ele>1604.000000</ele>
				<time>2025-07-12T11:11:23Z</time>
			</trkpt>
			<trkpt lat="42.750837" lon="24.989861">
				<ele>1605.000000</ele>
				<time>2025-07-12T11:11:29Z</time>
			</trkpt>
			<trkpt lat="42.750835" lon="24.989787">
				<ele>1605.000000</ele>
				<time>2025-07-12T11:11:36Z</time>
			</trkpt>
			<trkpt lat="42.750837" lon="24.989767">
				<ele>1606.000000</ele>
				<time>2025-07-12T11:11:38Z</time>
			</trkpt>
			<trkpt lat="42.750840" lon="24.989727">
				<ele>1607.000000</ele>
				<time>2025-07-12T11:11:43Z</time>
			</trkpt>
			<trkpt lat="42.750833" lon="24.989691">
				<ele>1608.000000</ele>
				<time>2025-07-12T11:11:47Z</time>
			</trkpt>
			<trkpt lat="42.750830" lon="24.989677">
				<ele>1608.000000</ele>
				<time>2025-07-12T11:11:48Z</time>
			</trkpt>
			<trkpt lat="42.750813" lon="24.989630">
				<ele>1608.000000</ele>
				<time>2025-07-12T11:11:53Z</time>
			</trkpt>
			<trkpt lat="42.750803" lon="24.989618">
				<ele>1609.000000</ele>
				<time>2025-07-12T11:11:55Z</time>
			</trkpt>
			<trkpt lat="42.750796" lon="24.989581">
				<ele>1609.000000</ele>
				<time>2025-07-12T11:11:58Z</time>
			</trkpt>
			<trkpt lat="42.750784" lon="24.989557">
				<ele>1609.000000</ele>
				<time>2025-07-12T11:12:02Z</time>
			</trkpt>
			<trkpt lat="42.750764" lon="24.989533">
				<ele>1610.000000</ele>
				<time>2025-07-12T11:12:06Z</time>
			</trkpt>
			<trkpt lat="42.750748" lon="24.989495">
				<ele>1611.000000</ele>
				<time>2025-07-12T11:12:10Z</time>
			</trkpt>
			<trkpt lat="42.750744" lon="24.989478">
				<ele>1611.000000</ele>
				<time>2025-07-12T11:12:12Z</time>
			</trkpt>
			<trkpt lat="42.750723" lon="24.989441">
				<ele>1612.000000</ele>
				<time>2025-07-12T11:12:17Z</time>
			</trkpt>
			<trkpt lat="42.750719" lon="24.989433">
				<ele>1612.000000</ele>
				<time>2025-07-12T11:12:18Z</time>
			</trkpt>
			<trkpt lat="42.750705" lon="24.989369">
				<ele>1613.000000</ele>
				<time>2025-07-12T11:12:24Z</time>
			</trkpt>
			<trkpt lat="42.750698" lon="24.989339">
				<ele>1613.000000</ele>
				<time>2025-07-12T11:12:27Z</time>
			</trkpt>
			<trkpt lat="42.750697" lon="24.989309">
				<ele>1614.000000</ele>
				<time>2025-07-12T11:12:30Z</time>
			</trkpt>
			<trkpt lat="42.750701" lon="24.989271">
				<ele>1615.000000</ele>
				<time>2025-07-12T11:12:35Z</time>
			</trkpt>
			<trkpt lat="42.750714" lon="24.989254">
				<ele>1616.000000</ele>
				<time>2025-07-12T11:12:42Z</time>
			</trkpt>
			<trkpt lat="42.750716" lon="24.989219">
				<ele>1616.000000</ele>
				<time>2025-07-12T11:12:50Z</time>
			</trkpt>
			<trkpt lat="42.750717" lon="24.989215">
				<ele>1617.000000</ele>
				<time>2025-07-12T11:12:51Z</time>
			</trkpt>
			<trkpt lat="42.750710" lon="24.989166">
				<ele>1617.000000</ele>
				<time>2025-07-12T11:12:58Z</time>
			</trkpt>
			<trkpt lat="42.750711" lon="24.989154">
				<ele>1618.000000</ele>
				<time>2025-07-12T11:13:00Z</time>
			</trkpt>
			<trkpt lat="42.750726" lon="24.989126">
				<ele>1619.000000</ele>
				<time>2025-07-12T11:13:05Z</time>
			</trkpt>
			<trkpt lat="42.750727" lon="24.989119">
				<ele>1619.000000</ele>
				<time>2025-07-12T11:13:06Z</time>
			</trkpt>
			<trkpt lat="42.750740" lon="24.989074">
				<ele>1620.000000</ele>
				<time>2025-07-12T11:13:12Z</time>
			</trkpt>
			<trkpt lat="42.750739" lon="24.989069">
				<ele>1620.000000</ele>
				<time>2025-07-12T11:13:13Z</time>
			</trkpt>
			<trkpt lat="42.750729" lon="24.989050">
				<ele>1621.000000</ele>
				<time>2025-07-12T11:13:17Z</time>
			</trkpt>
			<trkpt lat="42.750733" lon="24.989028">
				<ele>1621.000000</ele>
				<time>2025-07-12T11:13:21Z</time>
			</trkpt>
			<trkpt lat="42.750729" lon="24.989001">
				<ele>1622.000000</ele>
				<time>2025-07-12T11:13:26Z</time>
			</trkpt>
			<trkpt lat="42.750726" lon="24.988981">
				<ele>1623.000000</ele>
				<time>2025-07-12T11:13:28Z</time>
			</trkpt>
			<trkpt lat="42.750727" lon="24.988949">
				<ele>1623.000000</ele>
				<time>2025-07-12T11:13:32Z</time>
			</trkpt>
			<trkpt lat="42.750734" lon="24.988930">
				<ele>1624.000000</ele>
				<time>2025-07-12T11:13:35Z</time>
			</trkpt>
			<trkpt lat="42.750735" lon="24.988909">
				<ele>1624.000000</ele>
				<time>2025-07-12T11:13:38Z</time>
			</trkpt>
			<trkpt lat="42.750726" lon="24.988875">
				<ele>1625.000000</ele>
				<time>2025-07-12T11:13:42Z</time>
			</trkpt>
			<trkpt lat="42.750709" lon="24.988853">
				<ele>1625.000000</ele>
				<time>2025-07-12T11:13:46Z</time>
			</trkpt>
			<trkpt lat="42.750700" lon="24.988849">
				<ele>1626.000000</ele>
				<time>2025-07-12T11:13:48Z</time>
			</trkpt>
			<trkpt lat="42.750686" lon="24.988836">
				<ele>1626.000000</ele>
				<time>2025-07-12T11:13:55Z</time>
			</trkpt>
			<trkpt lat="42.750672" lon="24.988802">
				<ele>1627.000000</ele>
				<time>2025-07-12T11:13:59Z</time>
			</trkpt>
			<trkpt lat="42.750669" lon="24.988779">
				<ele>1627.000000</ele>
				<time>2025-07-12T11:14:01Z</time>
			</trkpt>
			<trkpt lat="42.750665" lon="24.988761">
				<ele>1628.000000</ele>
				<time>2025-07-12T11:14:03Z</time>
			</trkpt>
			<trkpt lat="42.750660" lon="24.988735">
				<ele>1629.000000</ele>
				<time>2025-07-12T11:14:08Z</time>
			</trkpt>
			<trkpt lat="42.750662" lon="24.988729">
				<ele>1629.000000</ele>
				<time>2025-07-12T11:14:09Z</time>
			</trkpt>
			<trkpt lat="42.750661" lon="24.988692">
				<ele>1630.000000</ele>
				<time>2025-07-12T11:14:14Z</time>
			</trkpt>
			<trkpt lat="42.750658" lon="24.988685">
				<ele>1630.000000</ele>
				<time>2025-07-12T11:14:15Z</time>
			</trkpt>
			<trkpt lat="42.750653" lon="24.988635">
				<ele>1631.000000</ele>
				<time>2025-07-12T11:14:21Z</time>
			</trkpt>
			<trkpt lat="42.750654" lon="24.988629">
				<ele>1631.000000</ele>
				<time>2025-07-12T11:14:22Z</time>
			</trkpt>
			<trkpt lat="42.750667" lon="24.988587">
				<ele>1632.000000</ele>
				<time>2025-07-12T11:14:28Z</time>
			</trkpt>
			<trkpt lat="42.750669" lon="24.988579">
				<ele>1632.000000</ele>
				<time>2025-07-12T11:14:29Z</time>
			</trkpt>
			<trkpt lat="42.750669" lon="24.988544">
				<ele>1633.000000</ele>
				<time>2025-07-12T11:14:35Z</time>
			</trkpt>
			<trkpt lat="42.750667" lon="24.988541">
				<ele>1634.000000</ele>
				<time>2025-07-12T11:14:36Z</time>
			</trkpt>
			<trkpt lat="42.750657" lon="24.988525">
				<ele>1634.000000</ele>
				<time>2025-07-12T11:14:39Z</time>
			</trkpt>
			<trkpt lat="42.750654" lon="24.988511">
				<ele>1635.000000</ele>
				<time>2025-07-12T11:14:41Z</time>
			</trkpt>
			<trkpt lat="42.750654" lon="24.988482">
				<ele>1636.000000</ele>
				<time>2025-07-12T11:14:46Z</time>
			</trkpt>
			<trkpt lat="42.750662" lon="24.988474">
				<ele>1636.000000</ele>
				<time>2025-07-12T11:14:48Z</time>
			</trkpt>
			<trkpt lat="42.750666" lon="24.988457">
				<ele>1637.000000</ele>
				<time>2025-07-12T11:14:51Z</time>
			</trkpt>
			<trkpt lat="42.750655" lon="24.988425">
				<ele>1637.000000</ele>
				<time>2025-07-12T11:14:56Z</time>
			</trkpt>
			<trkpt lat="42.750652" lon="24.988389">
				<ele>1638.000000</ele>
				<time>2025-07-12T11:15:00Z</time>
			</trkpt>
			<trkpt lat="42.750650" lon="24.988372">
				<ele>1638.000000</ele>
				<time>2025-07-12T11:15:03Z</time>
			</trkpt>
			<trkpt lat="42.750648" lon="24.988356">
				<ele>1639.000000</ele>
				<time>2025-07-12T11:15:05Z</time>
			</trkpt>
			<trkpt lat="42.750651" lon="24.988350">
				<ele>1639.000000</ele>
				<time>2025-07-12T11:15:06Z</time>
			</trkpt>
			<trkpt lat="42.750643" lon="24.988328">
				<ele>1640.000000</ele>
				<time>2025-07-12T11:15:10Z</time>
			</trkpt>
			<trkpt lat="42.750616" lon="24.988304">
				<ele>1640.000000</ele>
				<time>2025-07-12T11:15:15Z</time>
			</trkpt>
			<trkpt lat="42.750605" lon="24.988276">
				<ele>1641.000000</ele>
				<time>2025-07-12T11:15:18Z</time>
			</trkpt>
			<trkpt lat="42.750604" lon="24.988256">
				<ele>1641.000000</ele>
				<time>2025-07-12T11:15:21Z</time>
			</trkpt>
			<trkpt lat="42.750612" lon="24.988220">
				<ele>1642.000000</ele>
				<time>2025-07-12T11:15:26Z</time>
			</trkpt>
			<trkpt lat="42.750618" lon="24.988213">
				<ele>1642.000000</ele>
				<time>2025-07-12T11:15:27Z</time>
			</trkpt>
			<trkpt lat="42.750616" lon="24.988190">
				<ele>1643.000000</ele>
				<time>2025-07-12T11:15:32Z</time>
			</trkpt>
			<trkpt lat="42.750613" lon="24.988165">
				<ele>1643.000000</ele>
				<time>2025-07-12T11:15:36Z</time>
			</trkpt>
			<trkpt lat="42.750597" lon="24.988144">
				<ele>1644.000000</ele>
				<time>2025-07-12T11:15:40Z</time>
			</trkpt>
			<trkpt lat="42.750589" lon="24.988128">
				<ele>1644.000000</ele>
				<time>2025-07-12T11:15:42Z</time>
			</trkpt>
			<trkpt lat="42.750581" lon="24.988102">
				<ele>1645.000000</ele>
				<time>2025-07-12T11:15:47Z</time>
			</trkpt>
			<trkpt lat="42.750573" lon="24.988085">
				<ele>1645.000000</ele>
				<time>2025-07-12T11:15:50Z</time>
			</trkpt>
			<trkpt lat="42.750564" lon="24.988073">
				<ele>1646.000000</ele>
				<time>2025-07-12T11:15:52Z</time>
			</trkpt>
			<trkpt lat="42.750565" lon="24.988041">
				<ele>1646.000000</ele>
				<time>2025-07-12T11:15:55Z</time>
			</trkpt>
			<trkpt lat="42.750564" lon="24.988028">
				<ele>1647.000000</ele>
				<time>2025-07-12T11:15:58Z</time>
			</trkpt>
			<trkpt lat="42.750562" lon="24.988000">
				<ele>1649.000000</ele>
				<time>2025-07-12T11:16:03Z</time>
			</trkpt>
			<trkpt lat="42.750558" lon="24.987990">
				<ele>1649.000000</ele>
				<time>2025-07-12T11:16:05Z</time>
			</trkpt>
			<trkpt lat="42.750550" lon="24.987971">
				<ele>1650.000000</ele>
				<time>2025-07-12T11:16:11Z</time>
			</trkpt>
			<trkpt lat="42.750540" lon="24.987934">
				<ele>1649.000000</ele>
				<time>2025-07-12T11:16:18Z</time>
			</trkpt>
			<trkpt lat="42.750538" lon="24.987922">
				<ele>1649.000000</ele>
				<time>2025-07-12T11:16:26Z</time>
			</trkpt>
			<trkpt lat="42.750531" lon="24.987872">
				<ele>1650.000000</ele>
				<time>2025-07-12T11:16:35Z</time>
			</trkpt>
			<trkpt lat="42.750506" lon="24.987788">
				<ele>1650.000000</ele>
				<time>2025-07-12T11:16:42Z</time>
			</trkpt>
			<trkpt lat="42.750502" lon="24.987752">
				<ele>1651.000000</ele>
				<time>2025-07-12T11:16:45Z</time>
			</trkpt>
			<trkpt lat="42.750506" lon="24.987705">
				<ele>1652.000000</ele>
				<time>2025-07-12T11:16:50Z</time>
			</trkpt>
			<trkpt lat="42.750505" lon="24.987698">
				<ele>1652.000000</ele>
				<time>2025-07-12T11:16:51Z</time>
			</trkpt>
			<trkpt lat="42.750486" lon="24.987655">
				<ele>1653.000000</ele>
				<time>2025-07-12T11:16:57Z</time>
			</trkpt>
			<trkpt lat="42.750475" lon="24.987580">
				<ele>1654.000000</ele>
				<time>2025-07-12T11:17:04Z</time>
			</trkpt>
			<trkpt lat="42.750482" lon="24.987573">
				<ele>1654.000000</ele>
				<time>2025-07-12T11:17:05Z</time>
			</trkpt>
			<trkpt lat="42.750487" lon="24.987554">
				<ele>1655.000000</ele>
				<time>2025-07-12T11:17:08Z</time>
			</trkpt>
			<trkpt lat="42.750488" lon="24.987528">
				<ele>1656.000000</ele>
				<time>2025-07-12T11:17:11Z</time>
			</trkpt>
			<trkpt lat="42.750486" lon="24.987518">
				<ele>1656.000000</ele>
				<time>2025-07-12T11:17:12Z</time>
			</trkpt>
			<trkpt lat="42.750472" lon="24.987485">
				<ele>1656.000000</ele>
				<time>2025-07-12T11:17:17Z</time>
			</trkpt>
			<trkpt lat="42.750477" lon="24.987428">
				<ele>1657.000000</ele>
				<time>2025-07-12T11:17:22Z</time>
			</trkpt>
			<trkpt lat="42.750472" lon="24.987375">
				<ele>1658.000000</ele>
				<time>2025-07-12T11:17:27Z</time>
			</trkpt>
			<trkpt lat="42.750472" lon="24.987368">
				<ele>1658.000000</ele>
				<time>2025-07-12T11:17:28Z</time>
			</trkpt>
			<trkpt lat="42.750473" lon="24.987359">
				<ele>1658.000000</ele>
				<time>2025-07-12T11:17:29Z</time>
			</trkpt>
			<trkpt lat="42.750475" lon="24.987316">
				<ele>1659.000000</ele>
				<time>2025-07-12T11:17:34Z</time>
			</trkpt>
			<trkpt lat="42.750476" lon="24.987310">
				<ele>1660.000000</ele>
				<time>2025-07-12T11:17:36Z</time>
			</trkpt>
			<trkpt lat="42.750474" lon="24.987275">
				<ele>1660.000000</ele>
				<time>2025-07-12T11:17:40Z</time>
			</trkpt>
			<trkpt lat="42.750475" lon="24.987269">
				<ele>1661.000000</ele>
				<time>2025-07-12T11:17:42Z</time>
			</trkpt>
			<trkpt lat="42.750473" lon="24.987207">
				<ele>1661.000000</ele>
				<time>2025-07-12T11:17:49Z</time>
			</trkpt>
			<trkpt lat="42.750475" lon="24.987196">
				<ele>1662.000000</ele>
				<time>2025-07-12T11:17:50Z</time>
			</trkpt>
			<trkpt lat="42.750493" lon="24.987145">
				<ele>1663.000000</ele>
				<time>2025-07-12T11:17:56Z</time>
			</trkpt>
			<trkpt lat="42.750502" lon="24.987156">
				<ele>1663.000000</ele>
				<time>2025-07-12T11:17:58Z</time>
			</trkpt>
			<trkpt lat="42.750507" lon="24.987164">
				<ele>1662.000000</ele>
				<time>2025-07-12T11:18:05Z</time>
			</trkpt>
			<trkpt lat="42.750506" lon="24.987168">
				<ele>1662.000000</ele>
				<time>2025-07-12T11:18:11Z</time>
			</trkpt>
			<trkpt lat="42.750506" lon="24.987168">
				<ele>1662.000000</ele>
				<time>2025-07-12T11:18:18Z</time>
			</trkpt>
			<trkpt lat="42.750498" lon="24.987149">
				<ele>1661.000000</ele>
				<time>2025-07-12T11:18:27Z</time>
			</trkpt>
			<trkpt lat="42.750491" lon="24.987123">
				<ele>1662.000000</ele>
				<time>2025-07-12T11:18:30Z</time>
			</trkpt>
			<trkpt lat="42.750494" lon="24.987102">
				<ele>1662.000000</ele>
				<time>2025-07-12T11:18:32Z</time>
			</trkpt>
			<trkpt lat="42.750499" lon="24.987082">
				<ele>1663.000000</ele>
				<time>2025-07-12T11:18:34Z</time>
			</trkpt>
			<trkpt lat="42.750505" lon="24.987050">
				<ele>1664.000000</ele>
				<time>2025-07-12T11:18:38Z</time>
			</trkpt>
			<trkpt lat="42.750506" lon="24.987043">
				<ele>1664.000000</ele>
				<time>2025-07-12T11:18:39Z</time>
			</trkpt>
			<trkpt lat="42.750500" lon="24.987006">
				<ele>1664.000000</ele>
				<time>2025-07-12T11:18:45Z</time>
			</trkpt>
			<trkpt lat="42.750500" lon="24.986999">
				<ele>1664.000000</ele>
				<time>2025-07-12T11:18:46Z</time>
			</trkpt>
			<trkpt lat="42.750506" lon="24.986959">
				<ele>1665.000000</ele>
				<time>2025-07-12T11:18:50Z</time>
			</trkpt>
			<trkpt lat="42.750527" lon="24.986925">
				<ele>1665.000000</ele>
				<time>2025-07-12T11:18:54Z</time>
			</trkpt>
			<trkpt lat="42.750535" lon="24.986889">
				<ele>1666.000000</ele>
				<time>2025-07-12T11:18:57Z</time>
			</trkpt>
			<trkpt lat="42.750536" lon="24.986853">
				<ele>1666.000000</ele>
				<time>2025-07-12T11:19:00Z</time>
			</trkpt>
			<trkpt lat="42.750534" lon="24.986767">
				<ele>1667.000000</ele>
				<time>2025-07-12T11:19:09Z</time>
			</trkpt>
			<trkpt lat="42.750524" lon="24.986681">
				<ele>1667.000000</ele>
				<time>2025-07-12T11:19:16Z</time>
			</trkpt>
			<trkpt lat="42.750526" lon="24.986645">
				<ele>1667.000000</ele>
				<time>2025-07-12T11:19:19Z</time>
			</trkpt>
			<trkpt lat="42.750538" lon="24.986573">
				<ele>1668.000000</ele>
				<time>2025-07-12T11:19:26Z</time>
			</trkpt>
			<trkpt lat="42.750542" lon="24.986561">
				<ele>1668.000000</ele>
				<time>2025-07-12T11:19:27Z</time>
			</trkpt>
			<trkpt lat="42.750579" lon="24.986477">
				<ele>1669.000000</ele>
				<time>2025-07-12T11:19:36Z</time>
			</trkpt>
			<trkpt lat="42.750584" lon="24.986469">
				<ele>1669.000000</ele>
				<time>2025-07-12T11:19:37Z</time>
			</trkpt>
			<trkpt lat="42.750612" lon="24.986414">
				<ele>1670.000000</ele>
				<time>2025-07-12T11:19:43Z</time>
			</trkpt>
			<trkpt lat="42.750628" lon="24.986380">
				<ele>1670.000000</ele>
				<time>2025-07-12T11:19:47Z</time>
			</trkpt>
			<trkpt lat="42.750656" lon="24.986335">
				<ele>1670.000000</ele>
				<time>2025-07-12T11:19:52Z</time>
			</trkpt>
			<trkpt lat="42.750673" lon="24.986300">
				<ele>1671.000000</ele>
				<time>2025-07-12T11:19:56Z</time>
			</trkpt>
			<trkpt lat="42.750705" lon="24.986236">
				<ele>1671.000000</ele>
				<time>2025-07-12T11:20:04Z</time>
			</trkpt>
			<trkpt lat="42.750718" lon="24.986172">
				<ele>1672.000000</ele>
				<time>2025-07-12T11:20:12Z</time>
			</trkpt>
			<trkpt lat="42.750748" lon="24.986111">
				<ele>1672.000000</ele>
				<time>2025-07-12T11:20:19Z</time>
			</trkpt>
			<trkpt lat="42.750770" lon="24.986103">
				<ele>1672.000000</ele>
				<time>2025-07-12T11:20:25Z</time>
			</trkpt>
			<trkpt lat="42.750769" lon="24.986106">
				<ele>1671.000000</ele>
				<time>2025-07-12T11:20:36Z</time>
			</trkpt>
			<trkpt lat="42.750768" lon="24.986105">
				<ele>1671.000000</ele>
				<time>2025-07-12T11:20:45Z</time>
			</trkpt>
			<trkpt lat="42.750767" lon="24.986102">
				<ele>1671.000000</ele>
				<time>2025-07-12T11:20:47Z</time>
			</trkpt>
			<trkpt lat="42.750763" lon="24.986091">
				<ele>1671.000000</ele>
				<time>2025-07-12T11:20:50Z</time>
			</trkpt>
			<trkpt lat="42.750779" lon="24.986056">
				<ele>1671.000000</ele>
				<time>2025-07-12T11:20:54Z</time>
			</trkpt>
			<trkpt lat="42.750779" lon="24.986017">
				<ele>1672.000000</ele>
				<time>2025-07-12T11:21:01Z</time>
			</trkpt>
			<trkpt lat="42.750776" lon="24.986005">
				<ele>1673.000000</ele>
				<time>2025-07-12T11:21:02Z</time>
			</trkpt>
			<trkpt lat="42.750786" lon="24.985975">
				<ele>1673.000000</ele>
				<time>2025-07-12T11:21:05Z</time>
			</trkpt>
			<trkpt lat="42.750808" lon="24.985938">
				<ele>1673.000000</ele>
				<time>2025-07-12T11:21:09Z</time>
			</trkpt>
			<trkpt lat="42.750823" lon="24.985895">
				<ele>1673.000000</ele>
				<time>2025-07-12T11:21:14Z</time>
			</trkpt>
			<trkpt lat="42.750825" lon="24.985885">
				<ele>1674.000000</ele>
				<time>2025-07-12T11:21:15Z</time>
			</trkpt>
			<trkpt lat="42.750827" lon="24.985866">
				<ele>1674.000000</ele>
				<time>2025-07-12T11:21:17Z</time>
			</trkpt>
			<trkpt lat="42.750851" lon="24.985794">
				<ele>1674.000000</ele>
				<time>2025-07-12T11:21:24Z</time>
			</trkpt>
			<trkpt lat="42.750857" lon="24.985773">
				<ele>1674.000000</ele>
				<time>2025-07-12T11:21:26Z</time>
			</trkpt>
			<trkpt lat="42.750869" lon="24.985776">
				<ele>1674.000000</ele>
				<time>2025-07-12T11:21:30Z</time>
			</trkpt>
			<trkpt lat="42.750870" lon="24.985779">
				<ele>1674.000000</ele>
				<time>2025-07-12T11:21:31Z</time>
			</trkpt>
			<trkpt lat="42.750871" lon="24.985769">
				<ele>1674.000000</ele>
				<time>2025-07-12T11:21:37Z</time>
			</trkpt>
			<trkpt lat="42.750871" lon="24.985765">
				<ele>1674.000000</ele>
				<time>2025-07-12T11:21:39Z</time>
			</trkpt>
			<trkpt lat="42.750870" lon="24.985763">
				<ele>1674.000000</ele>
				<time>2025-07-12T11:21:46Z</time>
			</trkpt>
			<trkpt lat="42.750869" lon="24.985741">
				<ele>1674.000000</ele>
				<time>2025-07-12T11:21:53Z</time>
			</trkpt>
			<trkpt lat="42.750878" lon="24.985680">
				<ele>1674.000000</ele>
				<time>2025-07-12T11:21:59Z</time>
			</trkpt>
			<trkpt lat="42.750888" lon="24.985641">
				<ele>1675.000000</ele>
				<time>2025-07-12T11:22:03Z</time>
			</trkpt>
			<trkpt lat="42.750899" lon="24.985590">
				<ele>1675.000000</ele>
				<time>2025-07-12T11:22:08Z</time>
			</trkpt>
			<trkpt lat="42.750903" lon="24.985578">
				<ele>1675.000000</ele>
				<time>2025-07-12T11:22:09Z</time>
			</trkpt>
			<trkpt lat="42.750926" lon="24.985492">
				<ele>1675.000000</ele>
				<time>2025-07-12T11:22:17Z</time>
			</trkpt>
			<trkpt lat="42.750942" lon="24.985444">
				<ele>1675.000000</ele>
				<time>2025-07-12T11:22:24Z</time>
			</trkpt>
			<trkpt lat="42.750967" lon="24.985405">
				<ele>1676.000000</ele>
				<time>2025-07-12T11:22:29Z</time>
			</trkpt>
			<trkpt lat="42.750979" lon="24.985384">
				<ele>1676.000000</ele>
				<time>2025-07-12T11:22:34Z</time>
			</trkpt>
			<trkpt lat="42.750977" lon="24.985370">
				<ele>1676.000000</ele>
				<time>2025-07-12T11:22:39Z</time>
			</trkpt>
			<trkpt lat="42.750944" lon="24.985351">
				<ele>1677.000000</ele>
				<time>2025-07-12T11:22:45Z</time>
			</trkpt>
			<trkpt lat="42.750929" lon="24.985356">
				<ele>1677.000000</ele>
				<time>2025-07-12T11:22:47Z</time>
			</trkpt>
			<trkpt lat="42.750903" lon="24.985343">
				<ele>1678.000000</ele>
				<time>2025-07-12T11:22:51Z</time>
			</trkpt>
			<trkpt lat="42.750901" lon="24.985325">
				<ele>1678.000000</ele>
				<time>2025-07-12T11:22:53Z</time>
			</trkpt>
			<trkpt lat="42.750883" lon="24.985292">
				<ele>1679.000000</ele>
				<time>2025-07-12T11:22:57Z</time>
			</trkpt>
			<trkpt lat="42.750875" lon="24.985276">
				<ele>1679.000000</ele>
				<time>2025-07-12T11:22:59Z</time>
			</trkpt>
			<trkpt lat="42.750858" lon="24.985236">
				<ele>1680.000000</ele>
				<time>2025-07-12T11:23:04Z</time>
			</trkpt>
			<trkpt lat="42.750864" lon="24.985213">
				<ele>1680.000000</ele>
				<time>2025-07-12T11:23:06Z</time>
			</trkpt>
			<trkpt lat="42.750870" lon="24.985169">
				<ele>1681.000000</ele>
				<time>2025-07-12T11:23:12Z</time>
			</trkpt>
			<trkpt lat="42.750870" lon="24.985122">
				<ele>1681.000000</ele>
				<time>2025-07-12T11:23:17Z</time>
			</trkpt>
			<trkpt lat="42.750867" lon="24.985106">
				<ele>1681.000000</ele>
				<time>2025-07-12T11:23:19Z</time>
			</trkpt>
			<trkpt lat="42.750855" lon="24.985071">
				<ele>1682.000000</ele>
				<time>2025-07-12T11:23:24Z</time>
			</trkpt>
			<trkpt lat="42.750852" lon="24.985051">
				<ele>1682.000000</ele>
				<time>2025-07-12T11:23:26Z</time>
			</trkpt>
			<trkpt lat="42.750852" lon="24.985040">
				<ele>1682.000000</ele>
				<time>2025-07-12T11:23:27Z</time>
			</trkpt>
			<trkpt lat="42.750850" lon="24.985028">
				<ele>1683.000000</ele>
				<time>2025-07-12T11:23:28Z</time>
			</trkpt>
			<trkpt lat="42.750851" lon="24.984996">
				<ele>1683.000000</ele>
				<time>2025-07-12T11:23:32Z</time>
			</trkpt>
			<trkpt lat="42.750852" lon="24.985005">
				<ele>1684.000000</ele>
				<time>2025-07-12T11:23:35Z</time>
			</trkpt>
			<trkpt lat="42.750849" lon="24.984975">
				<ele>1683.000000</ele>
				<time>2025-07-12T11:23:39Z</time>
			</trkpt>
			<trkpt lat="42.750831" lon="24.984955">
				<ele>1683.000000</ele>
				<time>2025-07-12T11:23:43Z</time>
			</trkpt>
			<trkpt lat="42.750813" lon="24.984954">
				<ele>1684.000000</ele>
				<time>2025-07-12T11:23:46Z</time>
			</trkpt>
			<trkpt lat="42.750801" lon="24.984920">
				<ele>1684.000000</ele>
				<time>2025-07-12T11:23:53Z</time>
			</trkpt>
			<trkpt lat="42.750799" lon="24.984912">
				<ele>1685.000000</ele>
				<time>2025-07-12T11:23:54Z</time>
			</trkpt>
			<trkpt lat="42.750811" lon="24.984872">
				<ele>1685.000000</ele>
				<time>2025-07-12T11:23:59Z</time>
			</trkpt>
			<trkpt lat="42.750825" lon="24.984841">
				<ele>1686.000000</ele>
				<time>2025-07-12T11:24:02Z</time>
			</trkpt>
			<trkpt lat="42.750825" lon="24.984839">
				<ele>1686.000000</ele>
				<time>2025-07-12T11:24:06Z</time>
			</trkpt>
			<trkpt lat="42.750827" lon="24.984793">
				<ele>1686.000000</ele>
				<time>2025-07-12T11:24:12Z</time>
			</trkpt>
			<trkpt lat="42.750828" lon="24.984784">
				<ele>1687.000000</ele>
				<time>2025-07-12T11:24:13Z</time>
			</trkpt>
			<trkpt lat="42.750825" lon="24.984741">
				<ele>1688.000000</ele>
				<time>2025-07-12T11:24:18Z</time>
			</trkpt>
			<trkpt lat="42.750826" lon="24.984699">
				<ele>1688.000000</ele>
				<time>2025-07-12T11:24:22Z</time>
			</trkpt>
			<trkpt lat="42.750826" lon="24.984679">
				<ele>1689.000000</ele>
				<time>2025-07-12T11:24:24Z</time>
			</trkpt>
			<trkpt lat="42.750822" lon="24.984629">
				<ele>1690.000000</ele>
				<time>2025-07-12T11:24:29Z</time>
			</trkpt>
			<trkpt lat="42.750822" lon="24.984620">
				<ele>1690.000000</ele>
				<time>2025-07-12T11:24:30Z</time>
			</trkpt>
			<trkpt lat="42.750796" lon="24.984587">
				<ele>1691.000000</ele>
				<time>2025-07-12T11:24:36Z</time>
			</trkpt>
			<trkpt lat="42.750794" lon="24.984576">
				<ele>1691.000000</ele>
				<time>2025-07-12T11:24:37Z</time>
			</trkpt>
			<trkpt lat="42.750781" lon="24.984505">
				<ele>1692.000000</ele>
				<time>2025-07-12T11:24:44Z</time>
			</trkpt>
			<trkpt lat="42.750784" lon="24.984455">
				<ele>1693.000000</ele>
				<time>2025-07-12T11:24:50Z</time>
			</trkpt>
			<trkpt lat="42.750778" lon="24.984448">
				<ele>1693.000000</ele>
				<time>2025-07-12T11:24:55Z</time>
			</trkpt>
			<trkpt lat="42.750781" lon="24.984444">
				<ele>1693.000000</ele>
				<time>2025-07-12T11:24:56Z</time>
			</trkpt>
			<trkpt lat="42.750791" lon="24.984376">
				<ele>1694.000000</ele>
				<time>2025-07-12T11:25:03Z</time>
			</trkpt>
			<trkpt lat="42.750794" lon="24.984355">
				<ele>1694.000000</ele>
				<time>2025-07-12T11:25:09Z</time>
			</trkpt>
			<trkpt lat="42.750809" lon="24.984290">
				<ele>1694.000000</ele>
				<time>2025-07-12T11:25:16Z</time>
			</trkpt>
			<trkpt lat="42.750809" lon="24.984265">
				<ele>1694.000000</ele>
				<time>2025-07-12T11:25:19Z</time>
			</trkpt>
			<trkpt lat="42.750811" lon="24.984222">
				<ele>1695.000000</ele>
				<time>2025-07-12T11:25:23Z</time>
			</trkpt>
			<trkpt lat="42.750822" lon="24.984180">
				<ele>1695.000000</ele>
				<time>2025-07-12T11:25:27Z</time>
			</trkpt>
			<trkpt lat="42.750833" lon="24.984127">
				<ele>1696.000000</ele>
				<time>2025-07-12T11:25:32Z</time>
			</trkpt>
			<trkpt lat="42.750835" lon="24.984092">
				<ele>1696.000000</ele>
				<time>2025-07-12T11:25:35Z</time>
			</trkpt>
			<trkpt lat="42.750835" lon="24.984081">
				<ele>1696.000000</ele>
				<time>2025-07-12T11:25:36Z</time>
			</trkpt>
			<trkpt lat="42.750848" lon="24.984026">
				<ele>1697.000000</ele>
				<time>2025-07-12T11:25:41Z</time>
			</trkpt>
			<trkpt lat="42.750861" lon="24.984004">
				<ele>1697.000000</ele>
				<time>2025-07-12T11:25:44Z</time>
			</trkpt>
			<trkpt lat="42.750872" lon="24.983962">
				<ele>1698.000000</ele>
				<time>2025-07-12T11:25:50Z</time>
			</trkpt>
			<trkpt lat="42.750870" lon="24.983941">
				<ele>1699.000000</ele>
				<time>2025-07-12T11:25:52Z</time>
			</trkpt>
			<trkpt lat="42.750879" lon="24.983892">
				<ele>1700.000000</ele>
				<time>2025-07-12T11:25:57Z</time>
			</trkpt>
			<trkpt lat="42.750879" lon="24.983888">
				<ele>1700.000000</ele>
				<time>2025-07-12T11:25:58Z</time>
			</trkpt>
			<trkpt lat="42.750882" lon="24.983880">
				<ele>1700.000000</ele>
				<time>2025-07-12T11:25:59Z</time>
			</trkpt>
			<trkpt lat="42.750895" lon="24.983831">
				<ele>1700.000000</ele>
				<time>2025-07-12T11:26:04Z</time>
			</trkpt>
			<trkpt lat="42.750907" lon="24.983801">
				<ele>1701.000000</ele>
				<time>2025-07-12T11:26:07Z</time>
			</trkpt>
			<trkpt lat="42.750929" lon="24.983751">
				<ele>1702.000000</ele>
				<time>2025-07-12T11:26:12Z</time>
			</trkpt>
			<trkpt lat="42.750934" lon="24.983744">
				<ele>1702.000000</ele>
				<time>2025-07-12T11:26:13Z</time>
			</trkpt>
			<trkpt lat="42.750949" lon="24.983672">
				<ele>1703.000000</ele>
				<time>2025-07-12T11:26:20Z</time>
			</trkpt>
			<trkpt lat="42.750952" lon="24.983660">
				<ele>1703.000000</ele>
				<time>2025-07-12T11:26:21Z</time>
			</trkpt>
			<trkpt lat="42.750972" lon="24.983606">
				<ele>1704.000000</ele>
				<time>2025-07-12T11:26:27Z</time>
			</trkpt>
			<trkpt lat="42.750979" lon="24.983593">
				<ele>1704.000000</ele>
				<time>2025-07-12T11:26:29Z</time>
			</trkpt>
			<trkpt lat="42.751007" lon="24.983544">
				<ele>1705.000000</ele>
				<time>2025-07-12T11:26:36Z</time>
			</trkpt>
			<trkpt lat="42.751044" lon="24.983508">
				<ele>1706.000000</ele>
				<time>2025-07-12T11:26:44Z</time>
			</trkpt>
			<trkpt lat="42.751046" lon="24.983523">
				<ele>1706.000000</ele>
				<time>2025-07-12T11:26:54Z</time>
			</trkpt>
			<trkpt lat="42.751052" lon="24.983506">
				<ele>1706.000000</ele>
				<time>2025-07-12T11:27:06Z</time>
			</trkpt>
			<trkpt lat="42.751057" lon="24.983476">
				<ele>1706.000000</ele>
				<time>2025-07-12T11:27:12Z</time>
			</trkpt>
			<trkpt lat="42.751059" lon="24.983477">
				<ele>1706.000000</ele>
				<time>2025-07-12T11:27:13Z</time>
			</trkpt>
			<trkpt lat="42.751065" lon="24.983453">
				<ele>1706.000000</ele>
				<time>2025-07-12T11:27:18Z</time>
			</trkpt>
			<trkpt lat="42.751080" lon="24.983447">
				<ele>1706.000000</ele>
				<time>2025-07-12T11:27:25Z</time>
			</trkpt>
			<trkpt lat="42.751081" lon="24.983443">
				<ele>1706.000000</ele>
				<time>2025-07-12T11:27:26Z</time>
			</trkpt>
			<trkpt lat="42.751080" lon="24.983451">
				<ele>1706.000000</ele>
				<time>2025-07-12T11:27:41Z</time>
			</trkpt>
			<trkpt lat="42.751079" lon="24.983448">
				<ele>1707.000000</ele>
				<time>2025-07-12T11:27:47Z</time>
			</trkpt>
			<trkpt lat="42.751079" lon="24.983453">
				<ele>1706.000000</ele>
				<time>2025-07-12T11:27:54Z</time>
			</trkpt>
			<trkpt lat="42.751079" lon="24.983453">
				<ele>1706.000000</ele>
				<time>2025-07-12T11:27:56Z</time>
			</trkpt>
			<trkpt lat="42.751078" lon="24.983452">
				<ele>1706.000000</ele>
				<time>2025-07-12T11:27:57Z</time>
			</trkpt>
			<trkpt lat="42.751085" lon="24.983428">
				<ele>1706.000000</ele>
				<time>2025-07-12T11:28:02Z</time>
			</trkpt>
			<trkpt lat="42.751089" lon="24.983425">
				<ele>1706.000000</ele>
				<time>2025-07-12T11:28:03Z</time>
			</trkpt>
			<trkpt lat="42.751090" lon="24.983417">
				<ele>1706.000000</ele>
				<time>2025-07-12T11:28:10Z</time>
			</trkpt>
			<trkpt lat="42.751088" lon="24.983418">
				<ele>1706.000000</ele>
				<time>2025-07-12T11:28:12Z</time>
			</trkpt>
			<trkpt lat="42.751087" lon="24.983414">
				<ele>1706.000000</ele>
				<time>2025-07-12T11:28:20Z</time>
			</trkpt>
			<trkpt lat="42.751098" lon="24.983402">
				<ele>1706.000000</ele>
				<time>2025-07-12T11:28:22Z</time>
			</trkpt>
			<trkpt lat="42.751111" lon="24.983400">
				<ele>1707.000000</ele>
				<time>2025-07-12T11:28:27Z</time>
			</trkpt>
			<trkpt lat="42.751167" lon="24.983382">
				<ele>1707.000000</ele>
				<time>2025-07-12T11:28:34Z</time>
			</trkpt>
			<trkpt lat="42.751198" lon="24.983367">
				<ele>1707.000000</ele>
				<time>2025-07-12T11:28:38Z</time>
			</trkpt>
			<trkpt lat="42.751217" lon="24.983349">
				<ele>1707.000000</ele>
				<time>2025-07-12T11:28:40Z</time>
			</trkpt>
			<trkpt lat="42.751218" lon="24.983322">
				<ele>1708.000000</ele>
				<time>2025-07-12T11:28:43Z</time>
			</trkpt>
			<trkpt lat="42.751230" lon="24.983304">
				<ele>1708.000000</ele>
				<time>2025-07-12T11:28:45Z</time>
			</trkpt>
			<trkpt lat="42.751235" lon="24.983298">
				<ele>1708.000000</ele>
				<time>2025-07-12T11:28:46Z</time>
			</trkpt>
			<trkpt lat="42.751249" lon="24.983263">
				<ele>1708.000000</ele>
				<time>2025-07-12T11:28:50Z</time>
			</trkpt>
			<trkpt lat="42.751269" lon="24.983227">
				<ele>1709.000000</ele>
				<time>2025-07-12T11:28:54Z</time>
			</trkpt>
			<trkpt lat="42.751334" lon="24.983161">
				<ele>1709.000000</ele>
				<time>2025-07-12T11:29:03Z</time>
			</trkpt>
			<trkpt lat="42.751375" lon="24.983133">
				<ele>1709.000000</ele>
				<time>2025-07-12T11:29:09Z</time>
			</trkpt>
			<trkpt lat="42.751376" lon="24.983131">
				<ele>1710.000000</ele>
				<time>2025-07-12T11:29:10Z</time>
			</trkpt>
			<trkpt lat="42.751375" lon="24.983133">
				<ele>1710.000000</ele>
				<time>2025-07-12T11:29:23Z</time>
			</trkpt>
			<trkpt lat="42.751374" lon="24.983141">
				<ele>1709.000000</ele>
				<time>2025-07-12T11:29:31Z</time>
			</trkpt>
			<trkpt lat="42.751378" lon="24.983138">
				<ele>1709.000000</ele>
				<time>2025-07-12T11:29:35Z</time>
			</trkpt>
			<trkpt lat="42.751380" lon="24.983130">
				<ele>1710.000000</ele>
				<time>2025-07-12T11:29:41Z</time>
			</trkpt>
			<trkpt lat="42.751416" lon="24.983093">
				<ele>1710.000000</ele>
				<time>2025-07-12T11:29:47Z</time>
			</trkpt>
			<trkpt lat="42.751425" lon="24.983087">
				<ele>1710.000000</ele>
				<time>2025-07-12T11:29:48Z</time>
			</trkpt>
			<trkpt lat="42.751483" lon="24.983082">
				<ele>1710.000000</ele>
				<time>2025-07-12T11:29:55Z</time>
			</trkpt>
			<trkpt lat="42.751516" lon="24.983068">
				<ele>1710.000000</ele>
				<time>2025-07-12T11:29:58Z</time>
			</trkpt>
			<trkpt lat="42.751596" lon="24.983050">
				<ele>1710.000000</ele>
				<time>2025-07-12T11:30:08Z</time>
			</trkpt>
			<trkpt lat="42.751626" lon="24.983042">
				<ele>1710.000000</ele>
				<time>2025-07-12T11:30:11Z</time>
			</trkpt>
			<trkpt lat="42.751677" lon="24.983019">
				<ele>1711.000000</ele>
				<time>2025-07-12T11:30:17Z</time>
			</trkpt>
			<trkpt lat="42.751713" lon="24.982992">
				<ele>1711.000000</ele>
				<time>2025-07-12T11:30:22Z</time>
			</trkpt>
			<trkpt lat="42.751749" lon="24.982975">
				<ele>1711.000000</ele>
				<time>2025-07-12T11:30:25Z</time>
			</trkpt>
			<trkpt lat="42.751761" lon="24.982977">
				<ele>1712.000000</ele>
				<time>2025-07-12T11:30:26Z</time>
			</trkpt>
			<trkpt lat="42.751795" lon="24.982966">
				<ele>1712.000000</ele>
				<time>2025-07-12T11:30:30Z</time>
			</trkpt>
			<trkpt lat="42.751815" lon="24.982942">
				<ele>1713.000000</ele>
				<time>2025-07-12T11:30:34Z</time>
			</trkpt>
			<trkpt lat="42.751847" lon="24.982930">
				<ele>1713.000000</ele>
				<time>2025-07-12T11:30:38Z</time>
			</trkpt>
			<trkpt lat="42.751852" lon="24.982925">
				<ele>1714.000000</ele>
				<time>2025-07-12T11:30:39Z</time>
			</trkpt>
			<trkpt lat="42.751855" lon="24.982920">
				<ele>1714.000000</ele>
				<time>2025-07-12T11:30:42Z</time>
			</trkpt>
			<trkpt lat="42.751856" lon="24.982918">
				<ele>1714.000000</ele>
				<time>2025-07-12T11:30:44Z</time>
			</trkpt>
			<trkpt lat="42.751856" lon="24.982918">
				<ele>1714.000000</ele>
				<time>2025-07-12T11:30:45Z</time>
			</trkpt>
			<trkpt lat="42.751856" lon="24.982918">
				<ele>1714.000000</ele>
				<time>2025-07-12T11:30:48Z</time>
			</trkpt>
			<trkpt lat="42.751856" lon="24.982918">
				<ele>1714.000000</ele>
				<time>2025-07-12T11:30:53Z</time>
			</trkpt>
			<trkpt lat="42.751856" lon="24.982918">
				<ele>1714.000000</ele>
				<time>2025-07-12T11:30:59Z</time>
			</trkpt>
			<trkpt lat="42.751855" lon="24.982929">
				<ele>1715.000000</ele>
				<time>2025-07-12T11:31:08Z</time>
			</trkpt>
			<trkpt lat="42.751869" lon="24.982917">
				<ele>1714.000000</ele>
				<time>2025-07-12T11:31:12Z</time>
			</trkpt>
			<trkpt lat="42.751878" lon="24.982905">
				<ele>1714.000000</ele>
				<time>2025-07-12T11:31:13Z</time>
			</trkpt>
			<trkpt lat="42.751912" lon="24.982877">
				<ele>1715.000000</ele>
				<time>2025-07-12T11:31:18Z</time>
			</trkpt>
			<trkpt lat="42.751950" lon="24.982861">
				<ele>1716.000000</ele>
				<time>2025-07-12T11:31:23Z</time>
			</trkpt>
			<trkpt lat="42.751967" lon="24.982848">
				<ele>1716.000000</ele>
				<time>2025-07-12T11:31:25Z</time>
			</trkpt>
			<trkpt lat="42.751990" lon="24.982835">
				<ele>1717.000000</ele>
				<time>2025-07-12T11:31:29Z</time>
			</trkpt>
			<trkpt lat="42.752003" lon="24.982808">
				<ele>1717.000000</ele>
				<time>2025-07-12T11:31:32Z</time>
			</trkpt>
			<trkpt lat="42.752035" lon="24.982776">
				<ele>1718.000000</ele>
				<time>2025-07-12T11:31:37Z</time>
			</trkpt>
			<trkpt lat="42.752043" lon="24.982768">
				<ele>1718.000000</ele>
				<time>2025-07-12T11:31:38Z</time>
			</trkpt>
			<trkpt lat="42.752100" lon="24.982709">
				<ele>1719.000000</ele>
				<time>2025-07-12T11:31:46Z</time>
			</trkpt>
			<trkpt lat="42.752105" lon="24.982709">
				<ele>1719.000000</ele>
				<time>2025-07-12T11:31:47Z</time>
			</trkpt>
			<trkpt lat="42.752119" lon="24.982722">
				<ele>1719.000000</ele>
				<time>2025-07-12T11:31:49Z</time>
			</trkpt>
			<trkpt lat="42.752150" lon="24.982733">
				<ele>1720.000000</ele>
				<time>2025-07-12T11:31:53Z</time>
			</trkpt>
			<trkpt lat="42.752159" lon="24.982734">
				<ele>1720.000000</ele>
				<time>2025-07-12T11:31:54Z</time>
			</trkpt>
			<trkpt lat="42.752206" lon="24.982734">
				<ele>1721.000000</ele>
				<time>2025-07-12T11:32:00Z</time>
			</trkpt>
			<trkpt lat="42.752206" lon="24.982738">
				<ele>1721.000000</ele>
				<time>2025-07-12T11:32:01Z</time>
			</trkpt>
			<trkpt lat="42.752215" lon="24.982733">
				<ele>1722.000000</ele>
				<time>2025-07-12T11:32:06Z</time>
			</trkpt>
			<trkpt lat="42.752249" lon="24.982701">
				<ele>1723.000000</ele>
				<time>2025-07-12T11:32:12Z</time>
			</trkpt>
			<trkpt lat="42.752272" lon="24.982705">
				<ele>1723.000000</ele>
				<time>2025-07-12T11:32:14Z</time>
			</trkpt>
			<trkpt lat="42.752295" lon="24.982693">
				<ele>1724.000000</ele>
				<time>2025-07-12T11:32:17Z</time>
			</trkpt>
			<trkpt lat="42.752323" lon="24.982658">
				<ele>1725.000000</ele>
				<time>2025-07-12T11:32:22Z</time>
			</trkpt>
			<trkpt lat="42.752326" lon="24.982654">
				<ele>1725.000000</ele>
				<time>2025-07-12T11:32:23Z</time>
			</trkpt>
			<trkpt lat="42.752362" lon="24.982633">
				<ele>1726.000000</ele>
				<time>2025-07-12T11:32:28Z</time>
			</trkpt>
			<trkpt lat="42.752368" lon="24.982633">
				<ele>1726.000000</ele>
				<time>2025-07-12T11:32:29Z</time>
			</trkpt>
			<trkpt lat="42.752381" lon="24.982631">
				<ele>1726.000000</ele>
				<time>2025-07-12T11:32:36Z</time>
			</trkpt>
			<trkpt lat="42.752373" lon="24.982637">
				<ele>1726.000000</ele>
				<time>2025-07-12T11:32:49Z</time>
			</trkpt>
			<trkpt lat="42.752406" lon="24.982645">
				<ele>1727.000000</ele>
				<time>2025-07-12T11:32:54Z</time>
			</trkpt>
			<trkpt lat="42.752418" lon="24.982649">
				<ele>1728.000000</ele>
				<time>2025-07-12T11:32:57Z</time>
			</trkpt>
			<trkpt lat="42.752426" lon="24.982645">
				<ele>1728.000000</ele>
				<time>2025-07-12T11:33:03Z</time>
			</trkpt>
			<trkpt lat="42.752452" lon="24.982641">
				<ele>1728.000000</ele>
				<time>2025-07-12T11:33:06Z</time>
			</trkpt>
			<trkpt lat="42.752469" lon="24.982645">
				<ele>1728.000000</ele>
				<time>2025-07-12T11:33:08Z</time>
			</trkpt>
			<trkpt lat="42.752486" lon="24.982645">
				<ele>1729.000000</ele>
				<time>2025-07-12T11:33:11Z</time>
			</trkpt>
			<trkpt lat="42.752521" lon="24.982629">
				<ele>1730.000000</ele>
				<time>2025-07-12T11:33:16Z</time>
			</trkpt>
			<trkpt lat="42.752528" lon="24.982637">
				<ele>1730.000000</ele>
				<time>2025-07-12T11:33:22Z</time>
			</trkpt>
			<trkpt lat="42.752525" lon="24.982642">
				<ele>1730.000000</ele>
				<time>2025-07-12T11:33:27Z</time>
			</trkpt>
			<trkpt lat="42.752536" lon="24.982633">
				<ele>1730.000000</ele>
				<time>2025-07-12T11:33:31Z</time>
			</trkpt>
			<trkpt lat="42.752535" lon="24.982630">
				<ele>1731.000000</ele>
				<time>2025-07-12T11:33:33Z</time>
			</trkpt>
			<trkpt lat="42.752551" lon="24.982625">
				<ele>1731.000000</ele>
				<time>2025-07-12T11:33:39Z</time>
			</trkpt>
			<trkpt lat="42.752554" lon="24.982623">
				<ele>1731.000000</ele>
				<time>2025-07-12T11:33:40Z</time>
			</trkpt>
			<trkpt lat="42.752558" lon="24.982620">
				<ele>1731.000000</ele>
				<time>2025-07-12T11:33:43Z</time>
			</trkpt>
			<trkpt lat="42.752558" lon="24.982620">
				<ele>1731.000000</ele>
				<time>2025-07-12T11:33:48Z</time>
			</trkpt>
			<trkpt lat="42.752553" lon="24.982616">
				<ele>1732.000000</ele>
				<time>2025-07-12T11:33:51Z</time>
			</trkpt>
			<trkpt lat="42.752556" lon="24.982610">
				<ele>1732.000000</ele>
				<time>2025-07-12T11:33:56Z</time>
			</trkpt>
			<trkpt lat="42.752556" lon="24.982608">
				<ele>1731.000000</ele>
				<time>2025-07-12T11:34:01Z</time>
			</trkpt>
			<trkpt lat="42.752566" lon="24.982604">
				<ele>1732.000000</ele>
				<time>2025-07-12T11:34:04Z</time>
			</trkpt>
			<trkpt lat="42.752588" lon="24.982595">
				<ele>1732.000000</ele>
				<time>2025-07-12T11:34:08Z</time>
			</trkpt>
			<trkpt lat="42.752611" lon="24.982590">
				<ele>1733.000000</ele>
				<time>2025-07-12T11:34:12Z</time>
			</trkpt>
			<trkpt lat="42.752625" lon="24.982557">
				<ele>1733.000000</ele>
				<time>2025-07-12T11:34:16Z</time>
			</trkpt>
			<trkpt lat="42.752645" lon="24.982535">
				<ele>1734.000000</ele>
				<time>2025-07-12T11:34:19Z</time>
			</trkpt>
			<trkpt lat="42.752655" lon="24.982540">
				<ele>1735.000000</ele>
				<time>2025-07-12T11:34:21Z</time>
			</trkpt>
			<trkpt lat="42.752682" lon="24.982527">
				<ele>1735.000000</ele>
				<time>2025-07-12T11:34:27Z</time>
			</trkpt>
			<trkpt lat="42.752686" lon="24.982521">
				<ele>1736.000000</ele>
				<time>2025-07-12T11:34:28Z</time>
			</trkpt>
			<trkpt lat="42.752712" lon="24.982481">
				<ele>1737.000000</ele>
				<time>2025-07-12T11:34:33Z</time>
			</trkpt>
			<trkpt lat="42.752738" lon="24.982461">
				<ele>1737.000000</ele>
				<time>2025-07-12T11:34:39Z</time>
			</trkpt>
			<trkpt lat="42.752751" lon="24.982464">
				<ele>1738.000000</ele>
				<time>2025-07-12T11:34:42Z</time>
			</trkpt>
			<trkpt lat="42.752779" lon="24.982461">
				<ele>1739.000000</ele>
				<time>2025-07-12T11:34:46Z</time>
			</trkpt>
			<trkpt lat="42.752783" lon="24.982461">
				<ele>1739.000000</ele>
				<time>2025-07-12T11:34:47Z</time>
			</trkpt>
			<trkpt lat="42.752801" lon="24.982443">
				<ele>1740.000000</ele>
				<time>2025-07-12T11:34:52Z</time>
			</trkpt>
			<trkpt lat="42.752806" lon="24.982439">
				<ele>1740.000000</ele>
				<time>2025-07-12T11:34:54Z</time>
			</trkpt>
			<trkpt lat="42.752830" lon="24.982423">
				<ele>1741.000000</ele>
				<time>2025-07-12T11:34:59Z</time>
			</trkpt>
			<trkpt lat="42.752834" lon="24.982423">
				<ele>1741.000000</ele>
				<time>2025-07-12T11:35:00Z</time>
			</trkpt>
			<trkpt lat="42.752869" lon="24.982419">
				<ele>1742.000000</ele>
				<time>2025-07-12T11:35:06Z</time>
			</trkpt>
			<trkpt lat="42.752875" lon="24.982407">
				<ele>1742.000000</ele>
				<time>2025-07-12T11:35:08Z</time>
			</trkpt>
			<trkpt lat="42.752881" lon="24.982376">
				<ele>1743.000000</ele>
				<time>2025-07-12T11:35:12Z</time>
			</trkpt>
			<trkpt lat="42.752901" lon="24.982354">
				<ele>1743.000000</ele>
				<time>2025-07-12T11:35:16Z</time>
			</trkpt>
			<trkpt lat="42.752915" lon="24.982362">
				<ele>1744.000000</ele>
				<time>2025-07-12T11:35:19Z</time>
			</trkpt>
			<trkpt lat="42.752937" lon="24.982360">
				<ele>1744.000000</ele>
				<time>2025-07-12T11:35:23Z</time>
			</trkpt>
			<trkpt lat="42.752947" lon="24.982368">
				<ele>1745.000000</ele>
				<time>2025-07-12T11:35:25Z</time>
			</trkpt>
			<trkpt lat="42.752972" lon="24.982392">
				<ele>1745.000000</ele>
				<time>2025-07-12T11:35:29Z</time>
			</trkpt>
			<trkpt lat="42.752972" lon="24.982394">
				<ele>1745.000000</ele>
				<time>2025-07-12T11:35:33Z</time>
			</trkpt>
			<trkpt lat="42.752995" lon="24.982376">
				<ele>1746.000000</ele>
				<time>2025-07-12T11:35:40Z</time>
			</trkpt>
			<trkpt lat="42.752993" lon="24.982366">
				<ele>1747.000000</ele>
				<time>2025-07-12T11:35:45Z</time>
			</trkpt>
			<trkpt lat="42.753008" lon="24.982343">
				<ele>1747.000000</ele>
				<time>2025-07-12T11:35:51Z</time>
			</trkpt>
			<trkpt lat="42.753034" lon="24.982343">
				<ele>1748.000000</ele>
				<time>2025-07-12T11:35:58Z</time>
			</trkpt>
			<trkpt lat="42.753034" lon="24.982342">
				<ele>1748.000000</ele>
				<time>2025-07-12T11:35:59Z</time>
			</trkpt>
			<trkpt lat="42.753052" lon="24.982352">
				<ele>1748.000000</ele>
				<time>2025-07-12T11:36:06Z</time>
			</trkpt>
			<trkpt lat="42.753059" lon="24.982356">
				<ele>1748.000000</ele>
				<time>2025-07-12T11:36:07Z</time>
			</trkpt>
			<trkpt lat="42.753081" lon="24.982390">
				<ele>1749.000000</ele>
				<time>2025-07-12T11:36:11Z</time>
			</trkpt>
			<trkpt lat="42.753096" lon="24.982415">
				<ele>1749.000000</ele>
				<time>2025-07-12T11:36:14Z</time>
			</trkpt>
			<trkpt lat="42.753121" lon="24.982473">
				<ele>1749.000000</ele>
				<time>2025-07-12T11:36:21Z</time>
			</trkpt>
			<trkpt lat="42.753140" lon="24.982498">
				<ele>1750.000000</ele>
				<time>2025-07-12T11:36:25Z</time>
			</trkpt>
			<trkpt lat="42.753161" lon="24.982492">
				<ele>1750.000000</ele>
				<time>2025-07-12T11:36:29Z</time>
			</trkpt>
			<trkpt lat="42.753173" lon="24.982481">
				<ele>1751.000000</ele>
				<time>2025-07-12T11:36:32Z</time>
			</trkpt>
			<trkpt lat="42.753192" lon="24.982474">
				<ele>1751.000000</ele>
				<time>2025-07-12T11:36:35Z</time>
			</trkpt>
			<trkpt lat="42.753194" lon="24.982476">
				<ele>1751.000000</ele>
				<time>2025-07-12T11:36:36Z</time>
			</trkpt>
			<trkpt lat="42.753204" lon="24.982472">
				<ele>1752.000000</ele>
				<time>2025-07-12T11:36:38Z</time>
			</trkpt>
			<trkpt lat="42.753233" lon="24.982464">
				<ele>1753.000000</ele>
				<time>2025-07-12T11:36:43Z</time>
			</trkpt>
			<trkpt lat="42.753241" lon="24.982464">
				<ele>1753.000000</ele>
				<time>2025-07-12T11:36:45Z</time>
			</trkpt>
			<trkpt lat="42.753247" lon="24.982465">
				<ele>1753.000000</ele>
				<time>2025-07-12T11:36:49Z</time>
			</trkpt>
			<trkpt lat="42.753256" lon="24.982443">
				<ele>1753.000000</ele>
				<time>2025-07-12T11:37:01Z</time>
			</trkpt>
			<trkpt lat="42.753263" lon="24.982431">
				<ele>1754.000000</ele>
				<time>2025-07-12T11:37:03Z</time>
			</trkpt>
			<trkpt lat="42.753268" lon="24.982397">
				<ele>1755.000000</ele>
				<time>2025-07-12T11:37:10Z</time>
			</trkpt>
			<trkpt lat="42.753283" lon="24.982392">
				<ele>1755.000000</ele>
				<time>2025-07-12T11:37:15Z</time>
			</trkpt>
			<trkpt lat="42.753287" lon="24.982388">
				<ele>1755.000000</ele>
				<time>2025-07-12T11:37:17Z</time>
			</trkpt>
			<trkpt lat="42.753298" lon="24.982379">
				<ele>1755.000000</ele>
				<time>2025-07-12T11:37:24Z</time>
			</trkpt>
			<trkpt lat="42.753307" lon="24.982391">
				<ele>1755.000000</ele>
				<time>2025-07-12T11:37:30Z</time>
			</trkpt>
			<trkpt lat="42.753329" lon="24.982439">
				<ele>1756.000000</ele>
				<time>2025-07-12T11:37:35Z</time>
			</trkpt>
			<trkpt lat="42.753334" lon="24.982431">
				<ele>1756.000000</ele>
				<time>2025-07-12T11:37:37Z</time>
			</trkpt>
			<trkpt lat="42.753348" lon="24.982451">
				<ele>1756.000000</ele>
				<time>2025-07-12T11:37:42Z</time>
			</trkpt>
			<trkpt lat="42.753379" lon="24.982456">
				<ele>1757.000000</ele>
				<time>2025-07-12T11:37:47Z</time>
			</trkpt>
			<trkpt lat="42.753386" lon="24.982445">
				<ele>1758.000000</ele>
				<time>2025-07-12T11:37:49Z</time>
			</trkpt>
			<trkpt lat="42.753394" lon="24.982431">
				<ele>1758.000000</ele>
				<time>2025-07-12T11:37:51Z</time>
			</trkpt>
			<trkpt lat="42.753397" lon="24.982427">
				<ele>1758.000000</ele>
				<time>2025-07-12T11:37:52Z</time>
			</trkpt>
			<trkpt lat="42.753413" lon="24.982409">
				<ele>1759.000000</ele>
				<time>2025-07-12T11:37:56Z</time>
			</trkpt>
			<trkpt lat="42.753423" lon="24.982405">
				<ele>1759.000000</ele>
				<time>2025-07-12T11:37:59Z</time>
			</trkpt>
			<trkpt lat="42.753441" lon="24.982376">
				<ele>1760.000000</ele>
				<time>2025-07-12T11:38:04Z</time>
			</trkpt>
			<trkpt lat="42.753446" lon="24.982368">
				<ele>1760.000000</ele>
				<time>2025-07-12T11:38:05Z</time>
			</trkpt>
			<trkpt lat="42.753451" lon="24.982317">
				<ele>1762.000000</ele>
				<time>2025-07-12T11:38:11Z</time>
			</trkpt>
			<trkpt lat="42.753439" lon="24.982258">
				<ele>1762.000000</ele>
				<time>2025-07-12T11:38:18Z</time>
			</trkpt>
			<trkpt lat="42.753447" lon="24.982199">
				<ele>1762.000000</ele>
				<time>2025-07-12T11:38:25Z</time>
			</trkpt>
			<trkpt lat="42.753467" lon="24.982193">
				<ele>1763.000000</ele>
				<time>2025-07-12T11:38:29Z</time>
			</trkpt>
			<trkpt lat="42.753471" lon="24.982182">
				<ele>1763.000000</ele>
				<time>2025-07-12T11:38:31Z</time>
			</trkpt>
			<trkpt lat="42.753476" lon="24.982177">
				<ele>1763.000000</ele>
				<time>2025-07-12T11:38:32Z</time>
			</trkpt>
			<trkpt lat="42.753481" lon="24.982177">
				<ele>1764.000000</ele>
				<time>2025-07-12T11:38:36Z</time>
			</trkpt>
			<trkpt lat="42.753485" lon="24.982177">
				<ele>1764.000000</ele>
				<time>2025-07-12T11:38:37Z</time>
			</trkpt>
			<trkpt lat="42.753508" lon="24.982193">
				<ele>1765.000000</ele>
				<time>2025-07-12T11:38:44Z</time>
			</trkpt>
			<trkpt lat="42.753513" lon="24.982193">
				<ele>1765.000000</ele>
				<time>2025-07-12T11:38:45Z</time>
			</trkpt>
			<trkpt lat="42.753544" lon="24.982190">
				<ele>1766.000000</ele>
				<time>2025-07-12T11:38:50Z</time>
			</trkpt>
			<trkpt lat="42.753552" lon="24.982189">
				<ele>1766.000000</ele>
				<time>2025-07-12T11:38:52Z</time>
			</trkpt>
			<trkpt lat="42.753560" lon="24.982189">
				<ele>1767.000000</ele>
				<time>2025-07-12T11:38:54Z</time>
			</trkpt>
			<trkpt lat="42.753591" lon="24.982199">
				<ele>1768.000000</ele>
				<time>2025-07-12T11:39:00Z</time>
			</trkpt>
			<trkpt lat="42.753594" lon="24.982195">
				<ele>1768.000000</ele>
				<time>2025-07-12T11:39:01Z</time>
			</trkpt>
			<trkpt lat="42.753615" lon="24.982170">
				<ele>1768.000000</ele>
				<time>2025-07-12T11:39:04Z</time>
			</trkpt>
			<trkpt lat="42.753622" lon="24.982179">
				<ele>1769.000000</ele>
				<time>2025-07-12T11:39:06Z</time>
			</trkpt>
			<trkpt lat="42.753634" lon="24.982193">
				<ele>1769.000000</ele>
				<time>2025-07-12T11:39:08Z</time>
			</trkpt>
			<trkpt lat="42.753651" lon="24.982210">
				<ele>1770.000000</ele>
				<time>2025-07-12T11:39:12Z</time>
			</trkpt>
			<trkpt lat="42.753663" lon="24.982217">
				<ele>1770.000000</ele>
				<time>2025-07-12T11:39:14Z</time>
			</trkpt>
			<trkpt lat="42.753683" lon="24.982219">
				<ele>1771.000000</ele>
				<time>2025-07-12T11:39:19Z</time>
			</trkpt>
			<trkpt lat="42.753687" lon="24.982218">
				<ele>1771.000000</ele>
				<time>2025-07-12T11:39:20Z</time>
			</trkpt>
			<trkpt lat="42.753725" lon="24.982241">
				<ele>1772.000000</ele>
				<time>2025-07-12T11:39:27Z</time>
			</trkpt>
			<trkpt lat="42.753731" lon="24.982244">
				<ele>1772.000000</ele>
				<time>2025-07-12T11:39:28Z</time>
			</trkpt>
			<trkpt lat="42.753768" lon="24.982254">
				<ele>1773.000000</ele>
				<time>2025-07-12T11:39:35Z</time>
			</trkpt>
			<trkpt lat="42.753797" lon="24.982224">
				<ele>1773.000000</ele>
				<time>2025-07-12T11:39:40Z</time>
			</trkpt>
			<trkpt lat="42.753810" lon="24.982209">
				<ele>1774.000000</ele>
				<time>2025-07-12T11:39:43Z</time>
			</trkpt>
			<trkpt lat="42.753838" lon="24.982182">
				<ele>1774.000000</ele>
				<time>2025-07-12T11:39:48Z</time>
			</trkpt>
			<trkpt lat="42.753850" lon="24.982178">
				<ele>1775.000000</ele>
				<time>2025-07-12T11:39:50Z</time>
			</trkpt>
			<trkpt lat="42.753870" lon="24.982179">
				<ele>1775.000000</ele>
				<time>2025-07-12T11:39:54Z</time>
			</trkpt>
			<trkpt lat="42.753881" lon="24.982175">
				<ele>1776.000000</ele>
				<time>2025-07-12T11:39:56Z</time>
			</trkpt>
			<trkpt lat="42.753885" lon="24.982174">
				<ele>1776.000000</ele>
				<time>2025-07-12T11:39:57Z</time>
			</trkpt>
			<trkpt lat="42.753911" lon="24.982142">
				<ele>1777.000000</ele>
				<time>2025-07-12T11:40:02Z</time>
			</trkpt>
			<trkpt lat="42.753917" lon="24.982136">
				<ele>1777.000000</ele>
				<time>2025-07-12T11:40:03Z</time>
			</trkpt>
			<trkpt lat="42.753945" lon="24.982108">
				<ele>1778.000000</ele>
				<time>2025-07-12T11:40:08Z</time>
			</trkpt>
			<trkpt lat="42.753970" lon="24.982087">
				<ele>1778.000000</ele>
				<time>2025-07-12T11:40:12Z</time>
			</trkpt>
			<trkpt lat="42.753997" lon="24.982089">
				<ele>1779.000000</ele>
				<time>2025-07-12T11:40:16Z</time>
			</trkpt>
			<trkpt lat="42.754010" lon="24.982089">
				<ele>1779.000000</ele>
				<time>2025-07-12T11:40:18Z</time>
			</trkpt>
			<trkpt lat="42.754014" lon="24.982091">
				<ele>1779.000000</ele>
				<time>2025-07-12T11:40:23Z</time>
			</trkpt>
			<trkpt lat="42.754039" lon="24.982083">
				<ele>1780.000000</ele>
				<time>2025-07-12T11:40:28Z</time>
			</trkpt>
			<trkpt lat="42.754052" lon="24.982083">
				<ele>1780.000000</ele>
				<time>2025-07-12T11:40:31Z</time>
			</trkpt>
			<trkpt lat="42.754060" lon="24.982077">
				<ele>1780.000000</ele>
				<time>2025-07-12T11:40:37Z</time>
			</trkpt>
			<trkpt lat="42.754046" lon="24.982067">
				<ele>1780.000000</ele>
				<time>2025-07-12T11:40:50Z</time>
			</trkpt>
			<trkpt lat="42.754070" lon="24.982042">
				<ele>1780.000000</ele>
				<time>2025-07-12T11:40:59Z</time>
			</trkpt>
			<trkpt lat="42.754078" lon="24.982041">
				<ele>1780.000000</ele>
				<time>2025-07-12T11:41:00Z</time>
			</trkpt>
			<trkpt lat="42.754082" lon="24.982042">
				<ele>1781.000000</ele>
				<time>2025-07-12T11:41:02Z</time>
			</trkpt>
			<trkpt lat="42.754081" lon="24.982044">
				<ele>1781.000000</ele>
				<time>2025-07-12T11:41:05Z</time>
			</trkpt>
			<trkpt lat="42.754087" lon="24.982042">
				<ele>1781.000000</ele>
				<time>2025-07-12T11:41:07Z</time>
			</trkpt>
			<trkpt lat="42.754110" lon="24.982038">
				<ele>1782.000000</ele>
				<time>2025-07-12T11:41:12Z</time>
			</trkpt>
			<trkpt lat="42.754113" lon="24.982026">
				<ele>1782.000000</ele>
				<time>2025-07-12T11:41:21Z</time>
			</trkpt>
			<trkpt lat="42.754117" lon="24.982018">
				<ele>1782.000000</ele>
				<time>2025-07-12T11:41:22Z</time>
			</trkpt>
			<trkpt lat="42.754128" lon="24.982005">
				<ele>1782.000000</ele>
				<time>2025-07-12T11:41:24Z</time>
			</trkpt>
			<trkpt lat="42.754141" lon="24.982000">
				<ele>1783.000000</ele>
				<time>2025-07-12T11:41:27Z</time>
			</trkpt>
			<trkpt lat="42.754158" lon="24.981987">
				<ele>1784.000000</ele>
				<time>2025-07-12T11:41:30Z</time>
			</trkpt>
			<trkpt lat="42.754169" lon="24.981979">
				<ele>1784.000000</ele>
				<time>2025-07-12T11:41:32Z</time>
			</trkpt>
			<trkpt lat="42.754186" lon="24.981950">
				<ele>1785.000000</ele>
				<time>2025-07-12T11:41:36Z</time>
			</trkpt>
			<trkpt lat="42.754193" lon="24.981934">
				<ele>1785.000000</ele>
				<time>2025-07-12T11:41:38Z</time>
			</trkpt>
			<trkpt lat="42.754238" lon="24.981910">
				<ele>1786.000000</ele>
				<time>2025-07-12T11:41:45Z</time>
			</trkpt>
			<trkpt lat="42.754270" lon="24.981894">
				<ele>1787.000000</ele>
				<time>2025-07-12T11:41:50Z</time>
			</trkpt>
			<trkpt lat="42.754279" lon="24.981891">
				<ele>1788.000000</ele>
				<time>2025-07-12T11:41:53Z</time>
			</trkpt>
			<trkpt lat="42.754311" lon="24.981891">
				<ele>1789.000000</ele>
				<time>2025-07-12T11:41:58Z</time>
			</trkpt>
			<trkpt lat="42.754319" lon="24.981890">
				<ele>1789.000000</ele>
				<time>2025-07-12T11:41:59Z</time>
			</trkpt>
			<trkpt lat="42.754364" lon="24.981876">
				<ele>1790.000000</ele>
				<time>2025-07-12T11:42:05Z</time>
			</trkpt>
			<trkpt lat="42.754396" lon="24.981880">
				<ele>1791.000000</ele>
				<time>2025-07-12T11:42:10Z</time>
			</trkpt>
			<trkpt lat="42.754403" lon="24.981887">
				<ele>1791.000000</ele>
				<time>2025-07-12T11:42:11Z</time>
			</trkpt>
			<trkpt lat="42.754455" lon="24.981873">
				<ele>1792.000000</ele>
				<time>2025-07-12T11:42:18Z</time>
			</trkpt>
			<trkpt lat="42.754461" lon="24.981865">
				<ele>1792.000000</ele>
				<time>2025-07-12T11:42:19Z</time>
			</trkpt>
			<trkpt lat="42.754493" lon="24.981818">
				<ele>1793.000000</ele>
				<time>2025-07-12T11:42:25Z</time>
			</trkpt>
			<trkpt lat="42.754517" lon="24.981776">
				<ele>1794.000000</ele>
				<time>2025-07-12T11:42:33Z</time>
			</trkpt>
			<trkpt lat="42.754532" lon="24.981754">
				<ele>1794.000000</ele>
				<time>2025-07-12T11:42:39Z</time>
			</trkpt>
			<trkpt lat="42.754540" lon="24.981741">
				<ele>1795.000000</ele>
				<time>2025-07-12T11:42:41Z</time>
			</trkpt>
			<trkpt lat="42.754547" lon="24.981733">
				<ele>1795.000000</ele>
				<time>2025-07-12T11:42:45Z</time>
			</trkpt>
			<trkpt lat="42.754552" lon="24.981721">
				<ele>1795.000000</ele>
				<time>2025-07-12T11:42:47Z</time>
			</trkpt>
			<trkpt lat="42.754543" lon="24.981700">
				<ele>1795.000000</ele>
				<time>2025-07-12T11:42:57Z</time>
			</trkpt>
			<trkpt lat="42.754558" lon="24.981700">
				<ele>1795.000000</ele>
				<time>2025-07-12T11:43:07Z</time>
			</trkpt>
			<trkpt lat="42.754554" lon="24.981694">
				<ele>1795.000000</ele>
				<time>2025-07-12T11:43:15Z</time>
			</trkpt>
			<trkpt lat="42.754583" lon="24.981674">
				<ele>1796.000000</ele>
				<time>2025-07-12T11:43:22Z</time>
			</trkpt>
			<trkpt lat="42.754589" lon="24.981670">
				<ele>1796.000000</ele>
				<time>2025-07-12T11:43:23Z</time>
			</trkpt>
			<trkpt lat="42.754606" lon="24.981651">
				<ele>1797.000000</ele>
				<time>2025-07-12T11:43:26Z</time>
			</trkpt>
			<trkpt lat="42.754618" lon="24.981643">
				<ele>1797.000000</ele>
				<time>2025-07-12T11:43:28Z</time>
			</trkpt>
			<trkpt lat="42.754627" lon="24.981637">
				<ele>1797.000000</ele>
				<time>2025-07-12T11:43:29Z</time>
			</trkpt>
			<trkpt lat="42.754641" lon="24.981629">
				<ele>1798.000000</ele>
				<time>2025-07-12T11:43:31Z</time>
			</trkpt>
			<trkpt lat="42.754649" lon="24.981628">
				<ele>1798.000000</ele>
				<time>2025-07-12T11:43:32Z</time>
			</trkpt>
			<trkpt lat="42.754689" lon="24.981637">
				<ele>1798.000000</ele>
				<time>2025-07-12T11:43:37Z</time>
			</trkpt>
			<trkpt lat="42.754715" lon="24.981625">
				<ele>1799.000000</ele>
				<time>2025-07-12T11:43:41Z</time>
			</trkpt>
			<trkpt lat="42.754723" lon="24.981619">
				<ele>1799.000000</ele>
				<time>2025-07-12T11:43:42Z</time>
			</trkpt>
			<trkpt lat="42.754743" lon="24.981601">
				<ele>1800.000000</ele>
				<time>2025-07-12T11:43:45Z</time>
			</trkpt>
			<trkpt lat="42.754779" lon="24.981582">
				<ele>1800.000000</ele>
				<time>2025-07-12T11:43:50Z</time>
			</trkpt>
			<trkpt lat="42.754819" lon="24.981552">
				<ele>1801.000000</ele>
				<time>2025-07-12T11:43:55Z</time>
			</trkpt>
			<trkpt lat="42.754837" lon="24.981540">
				<ele>1801.000000</ele>
				<time>2025-07-12T11:43:58Z</time>
			</trkpt>
			<trkpt lat="42.754861" lon="24.981513">
				<ele>1802.000000</ele>
				<time>2025-07-12T11:44:02Z</time>
			</trkpt>
			<trkpt lat="42.754886" lon="24.981468">
				<ele>1802.000000</ele>
				<time>2025-07-12T11:44:07Z</time>
			</trkpt>
			<trkpt lat="42.754902" lon="24.981436">
				<ele>1803.000000</ele>
				<time>2025-07-12T11:44:11Z</time>
			</trkpt>
			<trkpt lat="42.754918" lon="24.981415">
				<ele>1803.000000</ele>
				<time>2025-07-12T11:44:16Z</time>
			</trkpt>
			<trkpt lat="42.754941" lon="24.981405">
				<ele>1804.000000</ele>
				<time>2025-07-12T11:44:26Z</time>
			</trkpt>
			<trkpt lat="42.754944" lon="24.981400">
				<ele>1804.000000</ele>
				<time>2025-07-12T11:44:27Z</time>
			</trkpt>
			<trkpt lat="42.754979" lon="24.981350">
				<ele>1804.000000</ele>
				<time>2025-07-12T11:44:34Z</time>
			</trkpt>
			<trkpt lat="42.755008" lon="24.981345">
				<ele>1804.000000</ele>
				<time>2025-07-12T11:44:40Z</time>
			</trkpt>
			<trkpt lat="42.755016" lon="24.981346">
				<ele>1805.000000</ele>
				<time>2025-07-12T11:44:43Z</time>
			</trkpt>
			<trkpt lat="42.755025" lon="24.981341">
				<ele>1805.000000</ele>
				<time>2025-07-12T11:44:45Z</time>
			</trkpt>
			<trkpt lat="42.755035" lon="24.981324">
				<ele>1805.000000</ele>
				<time>2025-07-12T11:44:47Z</time>
			</trkpt>
			<trkpt lat="42.755043" lon="24.981312">
				<ele>1805.000000</ele>
				<time>2025-07-12T11:44:49Z</time>
			</trkpt>
			<trkpt lat="42.755073" lon="24.981299">
				<ele>1805.000000</ele>
				<time>2025-07-12T11:44:52Z</time>
			</trkpt>
			<trkpt lat="42.755098" lon="24.981295">
				<ele>1805.000000</ele>
				<time>2025-07-12T11:44:55Z</time>
			</trkpt>
			<trkpt lat="42.755108" lon="24.981291">
				<ele>1805.000000</ele>
				<time>2025-07-12T11:44:56Z</time>
			</trkpt>
			<trkpt lat="42.755153" lon="24.981279">
				<ele>1805.000000</ele>
				<time>2025-07-12T11:45:01Z</time>
			</trkpt>
			<trkpt lat="42.755207" lon="24.981261">
				<ele>1806.000000</ele>
				<time>2025-07-12T11:45:08Z</time>
			</trkpt>
			<trkpt lat="42.755218" lon="24.981249">
				<ele>1806.000000</ele>
				<time>2025-07-12T11:45:10Z</time>
			</trkpt>
			<trkpt lat="42.755236" lon="24.981231">
				<ele>1806.000000</ele>
				<time>2025-07-12T11:45:13Z</time>
			</trkpt>
			<trkpt lat="42.755247" lon="24.981214">
				<ele>1806.000000</ele>
				<time>2025-07-12T11:45:15Z</time>
			</trkpt>
			<trkpt lat="42.755254" lon="24.981206">
				<ele>1806.000000</ele>
				<time>2025-07-12T11:45:16Z</time>
			</trkpt>
			<trkpt lat="42.755262" lon="24.981199">
				<ele>1806.000000</ele>
				<time>2025-07-12T11:45:17Z</time>
			</trkpt>
			<trkpt lat="42.755276" lon="24.981187">
				<ele>1807.000000</ele>
				<time>2025-07-12T11:45:19Z</time>
			</trkpt>
			<trkpt lat="42.755342" lon="24.981135">
				<ele>1807.000000</ele>
				<time>2025-07-12T11:45:27Z</time>
			</trkpt>
			<trkpt lat="42.755397" lon="24.981114">
				<ele>1807.000000</ele>
				<time>2025-07-12T11:45:35Z</time>
			</trkpt>
			<trkpt lat="42.755428" lon="24.981093">
				<ele>1808.000000</ele>
				<time>2025-07-12T11:45:39Z</time>
			</trkpt>
			<trkpt lat="42.755457" lon="24.981055">
				<ele>1809.000000</ele>
				<time>2025-07-12T11:45:44Z</time>
			</trkpt>
			<trkpt lat="42.755476" lon="24.981018">
				<ele>1809.000000</ele>
				<time>2025-07-12T11:45:48Z</time>
			</trkpt>
			<trkpt lat="42.755508" lon="24.980992">
				<ele>1810.000000</ele>
				<time>2025-07-12T11:45:52Z</time>
			</trkpt>
			<trkpt lat="42.755546" lon="24.980984">
				<ele>1810.000000</ele>
				<time>2025-07-12T11:45:56Z</time>
			</trkpt>
			<trkpt lat="42.755580" lon="24.980970">
				<ele>1811.000000</ele>
				<time>2025-07-12T11:46:00Z</time>
			</trkpt>
			<trkpt lat="42.755607" lon="24.980962">
				<ele>1811.000000</ele>
				<time>2025-07-12T11:46:03Z</time>
			</trkpt>
			<trkpt lat="42.755675" lon="24.980947">
				<ele>1812.000000</ele>
				<time>2025-07-12T11:46:10Z</time>
			</trkpt>
			<trkpt lat="42.755695" lon="24.980948">
				<ele>1812.000000</ele>
				<time>2025-07-12T11:46:13Z</time>
			</trkpt>
			<trkpt lat="42.755732" lon="24.980943">
				<ele>1812.000000</ele>
				<time>2025-07-12T11:46:17Z</time>
			</trkpt>
			<trkpt lat="42.755734" lon="24.980944">
				<ele>1811.000000</ele>
				<time>2025-07-12T11:46:27Z</time>
			</trkpt>
			<trkpt lat="42.755726" lon="24.980941">
				<ele>1811.000000</ele>
				<time>2025-07-12T11:46:40Z</time>
			</trkpt>
			<trkpt lat="42.755715" lon="24.980943">
				<ele>1811.000000</ele>
				<time>2025-07-12T11:46:49Z</time>
			</trkpt>
			<trkpt lat="42.755719" lon="24.980960">
				<ele>1811.000000</ele>
				<time>2025-07-12T11:46:54Z</time>
			</trkpt>
			<trkpt lat="42.755687" lon="24.980964">
				<ele>1811.000000</ele>
				<time>2025-07-12T11:46:57Z</time>
			</trkpt>
			<trkpt lat="42.755673" lon="24.980959">
				<ele>1811.000000</ele>
				<time>2025-07-12T11:47:03Z</time>
			</trkpt>
			<trkpt lat="42.755678" lon="24.980952">
				<ele>1811.000000</ele>
				<time>2025-07-12T11:47:08Z</time>
			</trkpt>
			<trkpt lat="42.755671" lon="24.980951">
				<ele>1811.000000</ele>
				<time>2025-07-12T11:47:09Z</time>
			</trkpt>
			<trkpt lat="42.755668" lon="24.980962">
				<ele>1811.000000</ele>
				<time>2025-07-12T11:47:11Z</time>
			</trkpt>
			<trkpt lat="42.755688" lon="24.980964">
				<ele>1811.000000</ele>
				<time>2025-07-12T11:47:15Z</time>
			</trkpt>
			<trkpt lat="42.755738" lon="24.980937">
				<ele>1810.000000</ele>
				<time>2025-07-12T11:47:23Z</time>
			</trkpt>
			<trkpt lat="42.755749" lon="24.980927">
				<ele>1810.000000</ele>
				<time>2025-07-12T11:47:26Z</time>
			</trkpt>
			<trkpt lat="42.755714" lon="24.980944">
				<ele>1810.000000</ele>
				<time>2025-07-12T11:47:30Z</time>
			</trkpt>
			<trkpt lat="42.755694" lon="24.980971">
				<ele>1810.000000</ele>
				<time>2025-07-12T11:47:36Z</time>
			</trkpt>
			<trkpt lat="42.755687" lon="24.980982">
				<ele>1810.000000</ele>
				<time>2025-07-12T11:47:43Z</time>
			</trkpt>
			<trkpt lat="42.755688" lon="24.980983">
				<ele>1810.000000</ele>
				<time>2025-07-12T11:47:47Z</time>
			</trkpt>
			<trkpt lat="42.755677" lon="24.980975">
				<ele>1810.000000</ele>
				<time>2025-07-12T11:47:51Z</time>
			</trkpt>
			<trkpt lat="42.755697" lon="24.980948">
				<ele>1810.000000</ele>
				<time>2025-07-12T11:47:56Z</time>
			</trkpt>
			<trkpt lat="42.755698" lon="24.980947">
				<ele>1810.000000</ele>
				<time>2025-07-12T11:47:57Z</time>
			</trkpt>
			<trkpt lat="42.755717" lon="24.980947">
				<ele>1810.000000</ele>
				<time>2025-07-12T11:48:01Z</time>
			</trkpt>
			<trkpt lat="42.755746" lon="24.980933">
				<ele>1810.000000</ele>
				<time>2025-07-12T11:48:07Z</time>
			</trkpt>
			<trkpt lat="42.755789" lon="24.980900">
				<ele>1810.000000</ele>
				<time>2025-07-12T11:48:13Z</time>
			</trkpt>
			<trkpt lat="42.755842" lon="24.980874">
				<ele>1811.000000</ele>
				<time>2025-07-12T11:48:19Z</time>
			</trkpt>
			<trkpt lat="42.755922" lon="24.980893">
				<ele>1810.000000</ele>
				<time>2025-07-12T11:48:28Z</time>
			</trkpt>
			<trkpt lat="42.755962" lon="24.980893">
				<ele>1810.000000</ele>
				<time>2025-07-12T11:48:32Z</time>
			</trkpt>
			<trkpt lat="42.755999" lon="24.980878">
				<ele>1811.000000</ele>
				<time>2025-07-12T11:48:36Z</time>
			</trkpt>
			<trkpt lat="42.756039" lon="24.980809">
				<ele>1811.000000</ele>
				<time>2025-07-12T11:48:44Z</time>
			</trkpt>
			<trkpt lat="42.756043" lon="24.980801">
				<ele>1811.000000</ele>
				<time>2025-07-12T11:48:45Z</time>
			</trkpt>
			<trkpt lat="42.756082" lon="24.980751">
				<ele>1812.000000</ele>
				<time>2025-07-12T11:48:51Z</time>
			</trkpt>
			<trkpt lat="42.756088" lon="24.980746">
				<ele>1812.000000</ele>
				<time>2025-07-12T11:48:52Z</time>
			</trkpt>
			<trkpt lat="42.756118" lon="24.980724">
				<ele>1813.000000</ele>
				<time>2025-07-12T11:48:56Z</time>
			</trkpt>
			<trkpt lat="42.756127" lon="24.980709">
				<ele>1813.000000</ele>
				<time>2025-07-12T11:48:58Z</time>
			</trkpt>
			<trkpt lat="42.756131" lon="24.980700">
				<ele>1813.000000</ele>
				<time>2025-07-12T11:49:00Z</time>
			</trkpt>
			<trkpt lat="42.756132" lon="24.980695">
				<ele>1813.000000</ele>
				<time>2025-07-12T11:49:01Z</time>
			</trkpt>
			<trkpt lat="42.756150" lon="24.980654">
				<ele>1814.000000</ele>
				<time>2025-07-12T11:49:06Z</time>
			</trkpt>
			<trkpt lat="42.756169" lon="24.980620">
				<ele>1815.000000</ele>
				<time>2025-07-12T11:49:13Z</time>
			</trkpt>
			<trkpt lat="42.756187" lon="24.980546">
				<ele>1816.000000</ele>
				<time>2025-07-12T11:49:21Z</time>
			</trkpt>
			<trkpt lat="42.756187" lon="24.980535">
				<ele>1816.000000</ele>
				<time>2025-07-12T11:49:22Z</time>
			</trkpt>
			<trkpt lat="42.756186" lon="24.980485">
				<ele>1817.000000</ele>
				<time>2025-07-12T11:49:27Z</time>
			</trkpt>
			<trkpt lat="42.756194" lon="24.980468">
				<ele>1817.000000</ele>
				<time>2025-07-12T11:49:29Z</time>
			</trkpt>
			<trkpt lat="42.756192" lon="24.980477">
				<ele>1817.000000</ele>
				<time>2025-07-12T11:49:32Z</time>
			</trkpt>
			<trkpt lat="42.756192" lon="24.980473">
				<ele>1817.000000</ele>
				<time>2025-07-12T11:49:34Z</time>
			</trkpt>
			<trkpt lat="42.756222" lon="24.980434">
				<ele>1818.000000</ele>
				<time>2025-07-12T11:49:39Z</time>
			</trkpt>
			<trkpt lat="42.756239" lon="24.980414">
				<ele>1818.000000</ele>
				<time>2025-07-12T11:49:42Z</time>
			</trkpt>
			<trkpt lat="42.756255" lon="24.980392">
				<ele>1819.000000</ele>
				<time>2025-07-12T11:49:45Z</time>
			</trkpt>
			<trkpt lat="42.756290" lon="24.980350">
				<ele>1820.000000</ele>
				<time>2025-07-12T11:49:51Z</time>
			</trkpt>
			<trkpt lat="42.756295" lon="24.980342">
				<ele>1820.000000</ele>
				<time>2025-07-12T11:49:52Z</time>
			</trkpt>
			<trkpt lat="42.756322" lon="24.980295">
				<ele>1821.000000</ele>
				<time>2025-07-12T11:50:00Z</time>
			</trkpt>
			<trkpt lat="42.756322" lon="24.980292">
				<ele>1821.000000</ele>
				<time>2025-07-12T11:50:09Z</time>
			</trkpt>
			<trkpt lat="42.756350" lon="24.980243">
				<ele>1822.000000</ele>
				<time>2025-07-12T11:50:16Z</time>
			</trkpt>
			<trkpt lat="42.756360" lon="24.980229">
				<ele>1822.000000</ele>
				<time>2025-07-12T11:50:18Z</time>
			</trkpt>
			<trkpt lat="42.756377" lon="24.980192">
				<ele>1823.000000</ele>
				<time>2025-07-12T11:50:23Z</time>
			</trkpt>
			<trkpt lat="42.756386" lon="24.980182">
				<ele>1824.000000</ele>
				<time>2025-07-12T11:50:25Z</time>
			</trkpt>
			<trkpt lat="42.756411" lon="24.980164">
				<ele>1824.000000</ele>
				<time>2025-07-12T11:50:32Z</time>
			</trkpt>
			<trkpt lat="42.756416" lon="24.980158">
				<ele>1825.000000</ele>
				<time>2025-07-12T11:50:33Z</time>
			</trkpt>
			<trkpt lat="42.756424" lon="24.980147">
				<ele>1825.000000</ele>
				<time>2025-07-12T11:50:38Z</time>
			</trkpt>
			<trkpt lat="42.756445" lon="24.980149">
				<ele>1825.000000</ele>
				<time>2025-07-12T11:50:47Z</time>
			</trkpt>
			<trkpt lat="42.756444" lon="24.980156">
				<ele>1825.000000</ele>
				<time>2025-07-12T11:50:49Z</time>
			</trkpt>
			<trkpt lat="42.756440" lon="24.980153">
				<ele>1825.000000</ele>
				<time>2025-07-12T11:50:55Z</time>
			</trkpt>
			<trkpt lat="42.756437" lon="24.980157">
				<ele>1825.000000</ele>
				<time>2025-07-12T11:51:02Z</time>
			</trkpt>
			<trkpt lat="42.756437" lon="24.980152">
				<ele>1825.000000</ele>
				<time>2025-07-12T11:51:04Z</time>
			</trkpt>
			<trkpt lat="42.756436" lon="24.980156">
				<ele>1825.000000</ele>
				<time>2025-07-12T11:51:10Z</time>
			</trkpt>
			<trkpt lat="42.756434" lon="24.980157">
				<ele>1825.000000</ele>
				<time>2025-07-12T11:51:17Z</time>
			</trkpt>
			<trkpt lat="42.756432" lon="24.980156">
				<ele>1825.000000</ele>
				<time>2025-07-12T11:51:27Z</time>
			</trkpt>
			<trkpt lat="42.756430" lon="24.980154">
				<ele>1825.000000</ele>
				<time>2025-07-12T11:51:30Z</time>
			</trkpt>
			<trkpt lat="42.756427" lon="24.980152">
				<ele>1825.000000</ele>
				<time>2025-07-12T11:51:36Z</time>
			</trkpt>
			<trkpt lat="42.756425" lon="24.980152">
				<ele>1825.000000</ele>
				<time>2025-07-12T11:51:39Z</time>
			</trkpt>
			<trkpt lat="42.756434" lon="24.980157">
				<ele>1825.000000</ele>
				<time>2025-07-12T11:51:40Z</time>
			</trkpt>
			<trkpt lat="42.756434" lon="24.980157">
				<ele>1825.000000</ele>
				<time>2025-07-12T11:51:48Z</time>
			</trkpt>
			<trkpt lat="42.756434" lon="24.980157">
				<ele>1825.000000</ele>
				<time>2025-07-12T11:51:52Z</time>
			</trkpt>
			<trkpt lat="42.756429" lon="24.980150">
				<ele>1825.000000</ele>
				<time>2025-07-12T11:51:56Z</time>
			</trkpt>
			<trkpt lat="42.756435" lon="24.980156">
				<ele>1825.000000</ele>
				<time>2025-07-12T11:52:01Z</time>
			</trkpt>
			<trkpt lat="42.756430" lon="24.980122">
				<ele>1825.000000</ele>
				<time>2025-07-12T11:52:08Z</time>
			</trkpt>
			<trkpt lat="42.756431" lon="24.980084">
				<ele>1826.000000</ele>
				<time>2025-07-12T11:52:12Z</time>
			</trkpt>
			<trkpt lat="42.756437" lon="24.980064">
				<ele>1826.000000</ele>
				<time>2025-07-12T11:52:14Z</time>
			</trkpt>
			<trkpt lat="42.756447" lon="24.980046">
				<ele>1827.000000</ele>
				<time>2025-07-12T11:52:16Z</time>
			</trkpt>
			<trkpt lat="42.756474" lon="24.980000">
				<ele>1828.000000</ele>
				<time>2025-07-12T11:52:21Z</time>
			</trkpt>
			<trkpt lat="42.756516" lon="24.979952">
				<ele>1829.000000</ele>
				<time>2025-07-12T11:52:28Z</time>
			</trkpt>
			<trkpt lat="42.756519" lon="24.979944">
				<ele>1829.000000</ele>
				<time>2025-07-12T11:52:29Z</time>
			</trkpt>
			<trkpt lat="42.756527" lon="24.979915">
				<ele>1829.000000</ele>
				<time>2025-07-12T11:52:32Z</time>
			</trkpt>
			<trkpt lat="42.756538" lon="24.979882">
				<ele>1830.000000</ele>
				<time>2025-07-12T11:52:35Z</time>
			</trkpt>
			<trkpt lat="42.756544" lon="24.979875">
				<ele>1830.000000</ele>
				<time>2025-07-12T11:52:36Z</time>
			</trkpt>
			<trkpt lat="42.756566" lon="24.979822">
				<ele>1831.000000</ele>
				<time>2025-07-12T11:52:41Z</time>
			</trkpt>
			<trkpt lat="42.756578" lon="24.979801">
				<ele>1832.000000</ele>
				<time>2025-07-12T11:52:43Z</time>
			</trkpt>
			<trkpt lat="42.756581" lon="24.979795">
				<ele>1832.000000</ele>
				<time>2025-07-12T11:52:44Z</time>
			</trkpt>
			<trkpt lat="42.756580" lon="24.979785">
				<ele>1832.000000</ele>
				<time>2025-07-12T11:52:45Z</time>
			</trkpt>
			<trkpt lat="42.756585" lon="24.979722">
				<ele>1833.000000</ele>
				<time>2025-07-12T11:52:50Z</time>
			</trkpt>
			<trkpt lat="42.756588" lon="24.979710">
				<ele>1833.000000</ele>
				<time>2025-07-12T11:52:51Z</time>
			</trkpt>
			<trkpt lat="42.756600" lon="24.979683">
				<ele>1833.000000</ele>
				<time>2025-07-12T11:52:53Z</time>
			</trkpt>
			<trkpt lat="42.756622" lon="24.979624">
				<ele>1834.000000</ele>
				<time>2025-07-12T11:52:59Z</time>
			</trkpt>
			<trkpt lat="42.756627" lon="24.979616">
				<ele>1834.000000</ele>
				<time>2025-07-12T11:53:00Z</time>
			</trkpt>
			<trkpt lat="42.756660" lon="24.979551">
				<ele>1835.000000</ele>
				<time>2025-07-12T11:53:07Z</time>
			</trkpt>
			<trkpt lat="42.756670" lon="24.979535">
				<ele>1836.000000</ele>
				<time>2025-07-12T11:53:09Z</time>
			</trkpt>
			<trkpt lat="42.756698" lon="24.979502">
				<ele>1836.000000</ele>
				<time>2025-07-12T11:53:14Z</time>
			</trkpt>
			<trkpt lat="42.756738" lon="24.979459">
				<ele>1837.000000</ele>
				<time>2025-07-12T11:53:20Z</time>
			</trkpt>
			<trkpt lat="42.756748" lon="24.979455">
				<ele>1837.000000</ele>
				<time>2025-07-12T11:53:21Z</time>
			</trkpt>
			<trkpt lat="42.756765" lon="24.979447">
				<ele>1838.000000</ele>
				<time>2025-07-12T11:53:23Z</time>
			</trkpt>
			<trkpt lat="42.756787" lon="24.979418">
				<ele>1838.000000</ele>
				<time>2025-07-12T11:53:27Z</time>
			</trkpt>
			<trkpt lat="42.756793" lon="24.979409">
				<ele>1838.000000</ele>
				<time>2025-07-12T11:53:28Z</time>
			</trkpt>
			<trkpt lat="42.756836" lon="24.979366">
				<ele>1839.000000</ele>
				<time>2025-07-12T11:53:35Z</time>
			</trkpt>
			<trkpt lat="42.756838" lon="24.979366">
				<ele>1840.000000</ele>
				<time>2025-07-12T11:53:37Z</time>
			</trkpt>
			<trkpt lat="42.756841" lon="24.979362">
				<ele>1839.000000</ele>
				<time>2025-07-12T11:53:41Z</time>
			</trkpt>
			<trkpt lat="42.756896" lon="24.979321">
				<ele>1840.000000</ele>
				<time>2025-07-12T11:53:48Z</time>
			</trkpt>
			<trkpt lat="42.756903" lon="24.979299">
				<ele>1841.000000</ele>
				<time>2025-07-12T11:53:50Z</time>
			</trkpt>
			<trkpt lat="42.756922" lon="24.979240">
				<ele>1841.000000</ele>
				<time>2025-07-12T11:53:56Z</time>
			</trkpt>
			<trkpt lat="42.756961" lon="24.979164">
				<ele>1842.000000</ele>
				<time>2025-07-12T11:54:03Z</time>
			</trkpt>
			<trkpt lat="42.756992" lon="24.979115">
				<ele>1842.000000</ele>
				<time>2025-07-12T11:54:08Z</time>
			</trkpt>
			<trkpt lat="42.757015" lon="24.979075">
				<ele>1843.000000</ele>
				<time>2025-07-12T11:54:13Z</time>
			</trkpt>
			<trkpt lat="42.757021" lon="24.979073">
				<ele>1843.000000</ele>
				<time>2025-07-12T11:54:15Z</time>
			</trkpt>
			<trkpt lat="42.757018" lon="24.979061">
				<ele>1842.000000</ele>
				<time>2025-07-12T11:54:22Z</time>
			</trkpt>
			<trkpt lat="42.757022" lon="24.979065">
				<ele>1843.000000</ele>
				<time>2025-07-12T11:54:28Z</time>
			</trkpt>
			<trkpt lat="42.757027" lon="24.979060">
				<ele>1843.000000</ele>
				<time>2025-07-12T11:54:37Z</time>
			</trkpt>
			<trkpt lat="42.757024" lon="24.979054">
				<ele>1842.000000</ele>
				<time>2025-07-12T11:54:40Z</time>
			</trkpt>
			<trkpt lat="42.757021" lon="24.979052">
				<ele>1842.000000</ele>
				<time>2025-07-12T11:54:41Z</time>
			</trkpt>
			<trkpt lat="42.757018" lon="24.979028">
				<ele>1842.000000</ele>
				<time>2025-07-12T11:54:44Z</time>
			</trkpt>
			<trkpt lat="42.757019" lon="24.979012">
				<ele>1842.000000</ele>
				<time>2025-07-12T11:54:45Z</time>
			</trkpt>
			<trkpt lat="42.757033" lon="24.978938">
				<ele>1842.000000</ele>
				<time>2025-07-12T11:54:50Z</time>
			</trkpt>
			<trkpt lat="42.757042" lon="24.978918">
				<ele>1842.000000</ele>
				<time>2025-07-12T11:54:52Z</time>
			</trkpt>
			<trkpt lat="42.757059" lon="24.978890">
				<ele>1842.000000</ele>
				<time>2025-07-12T11:54:55Z</time>
			</trkpt>
			<trkpt lat="42.757111" lon="24.978857">
				<ele>1842.000000</ele>
				<time>2025-07-12T11:55:02Z</time>
			</trkpt>
			<trkpt lat="42.757119" lon="24.978863">
				<ele>1842.000000</ele>
				<time>2025-07-12T11:55:07Z</time>
			</trkpt>
			<trkpt lat="42.757122" lon="24.978864">
				<ele>1842.000000</ele>
				<time>2025-07-12T11:55:09Z</time>
			</trkpt>
			<trkpt lat="42.757123" lon="24.978860">
				<ele>1842.000000</ele>
				<time>2025-07-12T11:55:18Z</time>
			</trkpt>
			<trkpt lat="42.757123" lon="24.978857">
				<ele>1842.000000</ele>
				<time>2025-07-12T11:55:19Z</time>
			</trkpt>
			<trkpt lat="42.757128" lon="24.978857">
				<ele>1842.000000</ele>
				<time>2025-07-12T11:55:31Z</time>
			</trkpt>
			<trkpt lat="42.757122" lon="24.978851">
				<ele>1842.000000</ele>
				<time>2025-07-12T11:55:36Z</time>
			</trkpt>
			<trkpt lat="42.757130" lon="24.978833">
				<ele>1842.000000</ele>
				<time>2025-07-12T11:55:38Z</time>
			</trkpt>
			<trkpt lat="42.757156" lon="24.978798">
				<ele>1841.000000</ele>
				<time>2025-07-12T11:55:44Z</time>
			</trkpt>
			<trkpt lat="42.757168" lon="24.978743">
				<ele>1841.000000</ele>
				<time>2025-07-12T11:55:49Z</time>
			</trkpt>
			<trkpt lat="42.757167" lon="24.978733">
				<ele>1841.000000</ele>
				<time>2025-07-12T11:55:50Z</time>
			</trkpt>
			<trkpt lat="42.757166" lon="24.978722">
				<ele>1840.000000</ele>
				<time>2025-07-12T11:55:51Z</time>
			</trkpt>
			<trkpt lat="42.757169" lon="24.978653">
				<ele>1840.000000</ele>
				<time>2025-07-12T11:55:57Z</time>
			</trkpt>
			<trkpt lat="42.757184" lon="24.978633">
				<ele>1839.000000</ele>
				<time>2025-07-12T11:55:59Z</time>
			</trkpt>
			<trkpt lat="42.757189" lon="24.978615">
				<ele>1839.000000</ele>
				<time>2025-07-12T11:56:02Z</time>
			</trkpt>
			<trkpt lat="42.757191" lon="24.978582">
				<ele>1839.000000</ele>
				<time>2025-07-12T11:56:05Z</time>
			</trkpt>
			<trkpt lat="42.757193" lon="24.978573">
				<ele>1839.000000</ele>
				<time>2025-07-12T11:56:09Z</time>
			</trkpt>
			<trkpt lat="42.757193" lon="24.978573">
				<ele>1838.000000</ele>
				<time>2025-07-12T11:56:12Z</time>
			</trkpt>
			<trkpt lat="42.757227" lon="24.978517">
				<ele>1838.000000</ele>
				<time>2025-07-12T11:56:18Z</time>
			</trkpt>
			<trkpt lat="42.757239" lon="24.978446">
				<ele>1837.000000</ele>
				<time>2025-07-12T11:56:24Z</time>
			</trkpt>
			<trkpt lat="42.757273" lon="24.978320">
				<ele>1837.000000</ele>
				<time>2025-07-12T11:56:33Z</time>
			</trkpt>
			<trkpt lat="42.757282" lon="24.978236">
				<ele>1836.000000</ele>
				<time>2025-07-12T11:56:38Z</time>
			</trkpt>
			<trkpt lat="42.757292" lon="24.978199">
				<ele>1836.000000</ele>
				<time>2025-07-12T11:56:41Z</time>
			</trkpt>
			<trkpt lat="42.757314" lon="24.978100">
				<ele>1836.000000</ele>
				<time>2025-07-12T11:56:50Z</time>
			</trkpt>
			<trkpt lat="42.757340" lon="24.977982">
				<ele>1836.000000</ele>
				<time>2025-07-12T11:56:59Z</time>
			</trkpt>
			<trkpt lat="42.757357" lon="24.977923">
				<ele>1835.000000</ele>
				<time>2025-07-12T11:57:04Z</time>
			</trkpt>
			<trkpt lat="42.757386" lon="24.977878">
				<ele>1835.000000</ele>
				<time>2025-07-12T11:57:09Z</time>
			</trkpt>
			<trkpt lat="42.757407" lon="24.977852">
				<ele>1835.000000</ele>
				<time>2025-07-12T11:57:16Z</time>
			</trkpt>
			<trkpt lat="42.757425" lon="24.977784">
				<ele>1835.000000</ele>
				<time>2025-07-12T11:57:22Z</time>
			</trkpt>
			<trkpt lat="42.757423" lon="24.977762">
				<ele>1835.000000</ele>
				<time>2025-07-12T11:57:24Z</time>
			</trkpt>
			<trkpt lat="42.757431" lon="24.977691">
				<ele>1836.000000</ele>
				<time>2025-07-12T11:57:29Z</time>
			</trkpt>
			<trkpt lat="42.757452" lon="24.977645">
				<ele>1836.000000</ele>
				<time>2025-07-12T11:57:33Z</time>
			</trkpt>
			<trkpt lat="42.757462" lon="24.977614">
				<ele>1836.000000</ele>
				<time>2025-07-12T11:57:37Z</time>
			</trkpt>
			<trkpt lat="42.757475" lon="24.977560">
				<ele>1836.000000</ele>
				<time>2025-07-12T11:57:43Z</time>
			</trkpt>
			<trkpt lat="42.757479" lon="24.977550">
				<ele>1836.000000</ele>
				<time>2025-07-12T11:57:44Z</time>
			</trkpt>
			<trkpt lat="42.757498" lon="24.977497">
				<ele>1837.000000</ele>
				<time>2025-07-12T11:57:48Z</time>
			</trkpt>
			<trkpt lat="42.757514" lon="24.977455">
				<ele>1837.000000</ele>
				<time>2025-07-12T11:57:52Z</time>
			</trkpt>
			<trkpt lat="42.757531" lon="24.977429">
				<ele>1837.000000</ele>
				<time>2025-07-12T11:57:56Z</time>
			</trkpt>
			<trkpt lat="42.757533" lon="24.977433">
				<ele>1838.000000</ele>
				<time>2025-07-12T11:57:59Z</time>
			</trkpt>
			<trkpt lat="42.757534" lon="24.977426">
				<ele>1838.000000</ele>
				<time>2025-07-12T11:58:07Z</time>
			</trkpt>
			<trkpt lat="42.757534" lon="24.977426">
				<ele>1837.000000</ele>
				<time>2025-07-12T11:58:14Z</time>
			</trkpt>
			<trkpt lat="42.757534" lon="24.977426">
				<ele>1837.000000</ele>
				<time>2025-07-12T11:58:23Z</time>
			</trkpt>
			<trkpt lat="42.757535" lon="24.977424">
				<ele>1837.000000</ele>
				<time>2025-07-12T11:58:33Z</time>
			</trkpt>
			<trkpt lat="42.757543" lon="24.977400">
				<ele>1837.000000</ele>
				<time>2025-07-12T11:58:37Z</time>
			</trkpt>
			<trkpt lat="42.757542" lon="24.977397">
				<ele>1838.000000</ele>
				<time>2025-07-12T11:58:39Z</time>
			</trkpt>
			<trkpt lat="42.757542" lon="24.977397">
				<ele>1837.000000</ele>
				<time>2025-07-12T11:58:40Z</time>
			</trkpt>
			<trkpt lat="42.757542" lon="24.977397">
				<ele>1837.000000</ele>
				<time>2025-07-12T11:58:43Z</time>
			</trkpt>
			<trkpt lat="42.757548" lon="24.977359">
				<ele>1837.000000</ele>
				<time>2025-07-12T11:58:47Z</time>
			</trkpt>
			<trkpt lat="42.757569" lon="24.977275">
				<ele>1839.000000</ele>
				<time>2025-07-12T11:58:54Z</time>
			</trkpt>
			<trkpt lat="42.757577" lon="24.977236">
				<ele>1839.000000</ele>
				<time>2025-07-12T11:58:57Z</time>
			</trkpt>
			<trkpt lat="42.757585" lon="24.977190">
				<ele>1840.000000</ele>
				<time>2025-07-12T11:59:00Z</time>
			</trkpt>
			<trkpt lat="42.757611" lon="24.977119">
				<ele>1841.000000</ele>
				<time>2025-07-12T11:59:07Z</time>
			</trkpt>
			<trkpt lat="42.757614" lon="24.977109">
				<ele>1841.000000</ele>
				<time>2025-07-12T11:59:08Z</time>
			</trkpt>
			<trkpt lat="42.757627" lon="24.977074">
				<ele>1842.000000</ele>
				<time>2025-07-12T11:59:11Z</time>
			</trkpt>
			<trkpt lat="42.757633" lon="24.977060">
				<ele>1842.000000</ele>
				<time>2025-07-12T11:59:12Z</time>
			</trkpt>
			<trkpt lat="42.757643" lon="24.977035">
				<ele>1842.000000</ele>
				<time>2025-07-12T11:59:14Z</time>
			</trkpt>
			<trkpt lat="42.757658" lon="24.976991">
				<ele>1843.000000</ele>
				<time>2025-07-12T11:59:18Z</time>
			</trkpt>
			<trkpt lat="42.757652" lon="24.976909">
				<ele>1844.000000</ele>
				<time>2025-07-12T11:59:25Z</time>
			</trkpt>
			<trkpt lat="42.757647" lon="24.976894">
				<ele>1844.000000</ele>
				<time>2025-07-12T11:59:26Z</time>
			</trkpt>
			<trkpt lat="42.757650" lon="24.976878">
				<ele>1844.000000</ele>
				<time>2025-07-12T11:59:27Z</time>
			</trkpt>
			<trkpt lat="42.757687" lon="24.976818">
				<ele>1845.000000</ele>
				<time>2025-07-12T11:59:34Z</time>
			</trkpt>
			<trkpt lat="42.757704" lon="24.976792">
				<ele>1846.000000</ele>
				<time>2025-07-12T11:59:39Z</time>
			</trkpt>
			<trkpt lat="42.757702" lon="24.976793">
				<ele>1846.000000</ele>
				<time>2025-07-12T11:59:40Z</time>
			</trkpt>
			<trkpt lat="42.757704" lon="24.976789">
				<ele>1846.000000</ele>
				<time>2025-07-12T11:59:42Z</time>
			</trkpt>
			<trkpt lat="42.757704" lon="24.976792">
				<ele>1846.000000</ele>
				<time>2025-07-12T11:59:47Z</time>
			</trkpt>
			<trkpt lat="42.757702" lon="24.976793">
				<ele>1846.000000</ele>
				<time>2025-07-12T11:59:48Z</time>
			</trkpt>
			<trkpt lat="42.757708" lon="24.976765">
				<ele>1846.000000</ele>
				<time>2025-07-12T11:59:54Z</time>
			</trkpt>
			<trkpt lat="42.757749" lon="24.976687">
				<ele>1847.000000</ele>
				<time>2025-07-12T12:00:01Z</time>
			</trkpt>
			<trkpt lat="42.757753" lon="24.976677">
				<ele>1847.000000</ele>
				<time>2025-07-12T12:00:02Z</time>
			</trkpt>
			<trkpt lat="42.757782" lon="24.976619">
				<ele>1848.000000</ele>
				<time>2025-07-12T12:00:08Z</time>
			</trkpt>
			<trkpt lat="42.757786" lon="24.976606">
				<ele>1849.000000</ele>
				<time>2025-07-12T12:00:10Z</time>
			</trkpt>
			<trkpt lat="42.757799" lon="24.976560">
				<ele>1849.000000</ele>
				<time>2025-07-12T12:00:14Z</time>
			</trkpt>
			<trkpt lat="42.757820" lon="24.976518">
				<ele>1850.000000</ele>
				<time>2025-07-12T12:00:18Z</time>
			</trkpt>
			<trkpt lat="42.757824" lon="24.976508">
				<ele>1851.000000</ele>
				<time>2025-07-12T12:00:19Z</time>
			</trkpt>
			<trkpt lat="42.757836" lon="24.976465">
				<ele>1852.000000</ele>
				<time>2025-07-12T12:00:24Z</time>
			</trkpt>
			<trkpt lat="42.757853" lon="24.976421">
				<ele>1853.000000</ele>
				<time>2025-07-12T12:00:28Z</time>
			</trkpt>
			<trkpt lat="42.757859" lon="24.976406">
				<ele>1853.000000</ele>
				<time>2025-07-12T12:00:29Z</time>
			</trkpt>
			<trkpt lat="42.757880" lon="24.976348">
				<ele>1854.000000</ele>
				<time>2025-07-12T12:00:34Z</time>
			</trkpt>
			<trkpt lat="42.757889" lon="24.976328">
				<ele>1854.000000</ele>
				<time>2025-07-12T12:00:36Z</time>
			</trkpt>
			<trkpt lat="42.757914" lon="24.976292">
				<ele>1855.000000</ele>
				<time>2025-07-12T12:00:40Z</time>
			</trkpt>
			<trkpt lat="42.757937" lon="24.976245">
				<ele>1856.000000</ele>
				<time>2025-07-12T12:00:45Z</time>
			</trkpt>
			<trkpt lat="42.757956" lon="24.976201">
				<ele>1857.000000</ele>
				<time>2025-07-12T12:00:50Z</time>
			</trkpt>
			<trkpt lat="42.757977" lon="24.976154">
				<ele>1858.000000</ele>
				<time>2025-07-12T12:00:55Z</time>
			</trkpt>
			<trkpt lat="42.757994" lon="24.976121">
				<ele>1859.000000</ele>
				<time>2025-07-12T12:01:00Z</time>
			</trkpt>
			<trkpt lat="42.758019" lon="24.976087">
				<ele>1861.000000</ele>
				<time>2025-07-12T12:01:04Z</time>
			</trkpt>
			<trkpt lat="42.758030" lon="24.976068">
				<ele>1861.000000</ele>
				<time>2025-07-12T12:01:06Z</time>
			</trkpt>
			<trkpt lat="42.758036" lon="24.976044">
				<ele>1862.000000</ele>
				<time>2025-07-12T12:01:09Z</time>
			</trkpt>
			<trkpt lat="42.758055" lon="24.975997">
				<ele>1863.000000</ele>
				<time>2025-07-12T12:01:13Z</time>
			</trkpt>
			<trkpt lat="42.758063" lon="24.975969">
				<ele>1864.000000</ele>
				<time>2025-07-12T12:01:17Z</time>
			</trkpt>
			<trkpt lat="42.758067" lon="24.975940">
				<ele>1865.000000</ele>
				<time>2025-07-12T12:01:21Z</time>
			</trkpt>
			<trkpt lat="42.758076" lon="24.975906">
				<ele>1866.000000</ele>
				<time>2025-07-12T12:01:25Z</time>
			</trkpt>
			<trkpt lat="42.758079" lon="24.975899">
				<ele>1866.000000</ele>
				<time>2025-07-12T12:01:26Z</time>
			</trkpt>
			<trkpt lat="42.758093" lon="24.975881">
				<ele>1867.000000</ele>
				<time>2025-07-12T12:01:29Z</time>
			</trkpt>
			<trkpt lat="42.758100" lon="24.975872">
				<ele>1867.000000</ele>
				<time>2025-07-12T12:01:30Z</time>
			</trkpt>
			<trkpt lat="42.758118" lon="24.975839">
				<ele>1868.000000</ele>
				<time>2025-07-12T12:01:36Z</time>
			</trkpt>
			<trkpt lat="42.758121" lon="24.975832">
				<ele>1868.000000</ele>
				<time>2025-07-12T12:01:37Z</time>
			</trkpt>
			<trkpt lat="42.758121" lon="24.975843">
				<ele>1869.000000</ele>
				<time>2025-07-12T12:01:42Z</time>
			</trkpt>
			<trkpt lat="42.758118" lon="24.975837">
				<ele>1869.000000</ele>
				<time>2025-07-12T12:01:47Z</time>
			</trkpt>
			<trkpt lat="42.758120" lon="24.975843">
				<ele>1869.000000</ele>
				<time>2025-07-12T12:01:50Z</time>
			</trkpt>
			<trkpt lat="42.758119" lon="24.975847">
				<ele>1869.000000</ele>
				<time>2025-07-12T12:02:01Z</time>
			</trkpt>
			<trkpt lat="42.758119" lon="24.975847">
				<ele>1869.000000</ele>
				<time>2025-07-12T12:02:13Z</time>
			</trkpt>
			<trkpt lat="42.758119" lon="24.975847">
				<ele>1869.000000</ele>
				<time>2025-07-12T12:02:18Z</time>
			</trkpt>
			<trkpt lat="42.758119" lon="24.975847">
				<ele>1869.000000</ele>
				<time>2025-07-12T12:02:24Z</time>
			</trkpt>
			<trkpt lat="42.758119" lon="24.975847">
				<ele>1869.000000</ele>
				<time>2025-07-12T12:02:29Z</time>
			</trkpt>
			<trkpt lat="42.758119" lon="24.975847">
				<ele>1868.000000</ele>
				<time>2025-07-12T12:02:34Z</time>
			</trkpt>
			<trkpt lat="42.758119" lon="24.975847">
				<ele>1868.000000</ele>
				<time>2025-07-12T12:02:36Z</time>
			</trkpt>
			<trkpt lat="42.758119" lon="24.975847">
				<ele>1868.000000</ele>
				<time>2025-07-12T12:02:40Z</time>
			</trkpt>
			<trkpt lat="42.758119" lon="24.975847">
				<ele>1868.000000</ele>
				<time>2025-07-12T12:02:44Z</time>
			</trkpt>
			<trkpt lat="42.758119" lon="24.975847">
				<ele>1868.000000</ele>
				<time>2025-07-12T12:02:48Z</time>
			</trkpt>
			<trkpt lat="42.758119" lon="24.975847">
				<ele>1868.000000</ele>
				<time>2025-07-12T12:02:58Z</time>
			</trkpt>
			<trkpt lat="42.758119" lon="24.975847">
				<ele>1868.000000</ele>
				<time>2025-07-12T12:02:59Z</time>
			</trkpt>
			<trkpt lat="42.758119" lon="24.975847">
				<ele>1868.000000</ele>
				<time>2025-07-12T12:03:06Z</time>
			</trkpt>
			<trkpt lat="42.758121" lon="24.975847">
				<ele>1868.000000</ele>
				<time>2025-07-12T12:03:14Z</time>
			</trkpt>
			<trkpt lat="42.758121" lon="24.975834">
				<ele>1868.000000</ele>
				<time>2025-07-12T12:03:21Z</time>
			</trkpt>
			<trkpt lat="42.758132" lon="24.975808">
				<ele>1868.000000</ele>
				<time>2025-07-12T12:03:27Z</time>
			</trkpt>
			<trkpt lat="42.758129" lon="24.975806">
				<ele>1869.000000</ele>
				<time>2025-07-12T12:03:28Z</time>
			</trkpt>
			<trkpt lat="42.758120" lon="24.975789">
				<ele>1869.000000</ele>
				<time>2025-07-12T12:03:31Z</time>
			</trkpt>
			<trkpt lat="42.758130" lon="24.975746">
				<ele>1870.000000</ele>
				<time>2025-07-12T12:03:36Z</time>
			</trkpt>
			<trkpt lat="42.758133" lon="24.975738">
				<ele>1870.000000</ele>
				<time>2025-07-12T12:03:37Z</time>
			</trkpt>
			<trkpt lat="42.758135" lon="24.975739">
				<ele>1871.000000</ele>
				<time>2025-07-12T12:03:39Z</time>
			</trkpt>
			<trkpt lat="42.758135" lon="24.975741">
				<ele>1871.000000</ele>
				<time>2025-07-12T12:03:42Z</time>
			</trkpt>
			<trkpt lat="42.758133" lon="24.975751">
				<ele>1871.000000</ele>
				<time>2025-07-12T12:03:43Z</time>
			</trkpt>
			<trkpt lat="42.758137" lon="24.975745">
				<ele>1871.000000</ele>
				<time>2025-07-12T12:03:50Z</time>
			</trkpt>
			<trkpt lat="42.758155" lon="24.975712">
				<ele>1871.000000</ele>
				<time>2025-07-12T12:03:55Z</time>
			</trkpt>
			<trkpt lat="42.758165" lon="24.975700">
				<ele>1872.000000</ele>
				<time>2025-07-12T12:03:57Z</time>
			</trkpt>
			<trkpt lat="42.758166" lon="24.975692">
				<ele>1872.000000</ele>
				<time>2025-07-12T12:03:58Z</time>
			</trkpt>
			<trkpt lat="42.758182" lon="24.975678">
				<ele>1873.000000</ele>
				<time>2025-07-12T12:04:02Z</time>
			</trkpt>
			<trkpt lat="42.758187" lon="24.975674">
				<ele>1873.000000</ele>
				<time>2025-07-12T12:04:04Z</time>
			</trkpt>
			<trkpt lat="42.758188" lon="24.975670">
				<ele>1874.000000</ele>
				<time>2025-07-12T12:04:08Z</time>
			</trkpt>
			<trkpt lat="42.758183" lon="24.975676">
				<ele>1874.000000</ele>
				<time>2025-07-12T12:04:11Z</time>
			</trkpt>
			<trkpt lat="42.758208" lon="24.975627">
				<ele>1874.000000</ele>
				<time>2025-07-12T12:04:17Z</time>
			</trkpt>
			<trkpt lat="42.758210" lon="24.975616">
				<ele>1875.000000</ele>
				<time>2025-07-12T12:04:20Z</time>
			</trkpt>
			<trkpt lat="42.758209" lon="24.975605">
				<ele>1876.000000</ele>
				<time>2025-07-12T12:04:24Z</time>
			</trkpt>
			<trkpt lat="42.758212" lon="24.975570">
				<ele>1876.000000</ele>
				<time>2025-07-12T12:04:28Z</time>
			</trkpt>
			<trkpt lat="42.758218" lon="24.975534">
				<ele>1877.000000</ele>
				<time>2025-07-12T12:04:34Z</time>
			</trkpt>
			<trkpt lat="42.758216" lon="24.975534">
				<ele>1878.000000</ele>
				<time>2025-07-12T12:04:35Z</time>
			</trkpt>
			<trkpt lat="42.758220" lon="24.975519">
				<ele>1878.000000</ele>
				<time>2025-07-12T12:04:37Z</time>
			</trkpt>
			<trkpt lat="42.758224" lon="24.975509">
				<ele>1878.000000</ele>
				<time>2025-07-12T12:04:39Z</time>
			</trkpt>
			<trkpt lat="42.758234" lon="24.975487">
				<ele>1879.000000</ele>
				<time>2025-07-12T12:04:46Z</time>
			</trkpt>
			<trkpt lat="42.758239" lon="24.975475">
				<ele>1880.000000</ele>
				<time>2025-07-12T12:04:48Z</time>
			</trkpt>
			<trkpt lat="42.758252" lon="24.975446">
				<ele>1881.000000</ele>
				<time>2025-07-12T12:04:52Z</time>
			</trkpt>
			<trkpt lat="42.758257" lon="24.975440">
				<ele>1881.000000</ele>
				<time>2025-07-12T12:04:53Z</time>
			</trkpt>
			<trkpt lat="42.758275" lon="24.975425">
				<ele>1882.000000</ele>
				<time>2025-07-12T12:04:59Z</time>
			</trkpt>
			<trkpt lat="42.758275" lon="24.975421">
				<ele>1882.000000</ele>
				<time>2025-07-12T12:05:00Z</time>
			</trkpt>
			<trkpt lat="42.758285" lon="24.975401">
				<ele>1883.000000</ele>
				<time>2025-07-12T12:05:05Z</time>
			</trkpt>
			<trkpt lat="42.758287" lon="24.975395">
				<ele>1883.000000</ele>
				<time>2025-07-12T12:05:08Z</time>
			</trkpt>
			<trkpt lat="42.758300" lon="24.975356">
				<ele>1884.000000</ele>
				<time>2025-07-12T12:05:13Z</time>
			</trkpt>
			<trkpt lat="42.758302" lon="24.975349">
				<ele>1884.000000</ele>
				<time>2025-07-12T12:05:14Z</time>
			</trkpt>
			<trkpt lat="42.758311" lon="24.975332">
				<ele>1885.000000</ele>
				<time>2025-07-12T12:05:19Z</time>
			</trkpt>
			<trkpt lat="42.758309" lon="24.975333">
				<ele>1885.000000</ele>
				<time>2025-07-12T12:05:20Z</time>
			</trkpt>
			<trkpt lat="42.758323" lon="24.975282">
				<ele>1886.000000</ele>
				<time>2025-07-12T12:05:27Z</time>
			</trkpt>
			<trkpt lat="42.758331" lon="24.975266">
				<ele>1887.000000</ele>
				<time>2025-07-12T12:05:33Z</time>
			</trkpt>
			<trkpt lat="42.758331" lon="24.975258">
				<ele>1887.000000</ele>
				<time>2025-07-12T12:05:34Z</time>
			</trkpt>
			<trkpt lat="42.758335" lon="24.975223">
				<ele>1888.000000</ele>
				<time>2025-07-12T12:05:39Z</time>
			</trkpt>
			<trkpt lat="42.758334" lon="24.975214">
				<ele>1888.000000</ele>
				<time>2025-07-12T12:05:41Z</time>
			</trkpt>
			<trkpt lat="42.758337" lon="24.975181">
				<ele>1889.000000</ele>
				<time>2025-07-12T12:05:46Z</time>
			</trkpt>
			<trkpt lat="42.758338" lon="24.975177">
				<ele>1889.000000</ele>
				<time>2025-07-12T12:05:47Z</time>
			</trkpt>
			<trkpt lat="42.758338" lon="24.975138">
				<ele>1890.000000</ele>
				<time>2025-07-12T12:05:52Z</time>
			</trkpt>
			<trkpt lat="42.758340" lon="24.975128">
				<ele>1890.000000</ele>
				<time>2025-07-12T12:05:53Z</time>
			</trkpt>
			<trkpt lat="42.758334" lon="24.975098">
				<ele>1891.000000</ele>
				<time>2025-07-12T12:05:58Z</time>
			</trkpt>
			<trkpt lat="42.758343" lon="24.975096">
				<ele>1891.000000</ele>
				<time>2025-07-12T12:05:59Z</time>
			</trkpt>
			<trkpt lat="42.758356" lon="24.975096">
				<ele>1892.000000</ele>
				<time>2025-07-12T12:06:03Z</time>
			</trkpt>
			<trkpt lat="42.758348" lon="24.975093">
				<ele>1892.000000</ele>
				<time>2025-07-12T12:06:11Z</time>
			</trkpt>
			<trkpt lat="42.758358" lon="24.975071">
				<ele>1892.000000</ele>
				<time>2025-07-12T12:06:17Z</time>
			</trkpt>
			<trkpt lat="42.758389" lon="24.975050">
				<ele>1893.000000</ele>
				<time>2025-07-12T12:06:24Z</time>
			</trkpt>
			<trkpt lat="42.758402" lon="24.975057">
				<ele>1893.000000</ele>
				<time>2025-07-12T12:06:31Z</time>
			</trkpt>
			<trkpt lat="42.758428" lon="24.975045">
				<ele>1894.000000</ele>
				<time>2025-07-12T12:06:36Z</time>
			</trkpt>
			<trkpt lat="42.758436" lon="24.975041">
				<ele>1894.000000</ele>
				<time>2025-07-12T12:06:37Z</time>
			</trkpt>
			<trkpt lat="42.758451" lon="24.975033">
				<ele>1895.000000</ele>
				<time>2025-07-12T12:06:40Z</time>
			</trkpt>
			<trkpt lat="42.758480" lon="24.975020">
				<ele>1896.000000</ele>
				<time>2025-07-12T12:06:44Z</time>
			</trkpt>
			<trkpt lat="42.758496" lon="24.975012">
				<ele>1896.000000</ele>
				<time>2025-07-12T12:06:46Z</time>
			</trkpt>
			<trkpt lat="42.758534" lon="24.974990">
				<ele>1897.000000</ele>
				<time>2025-07-12T12:06:51Z</time>
			</trkpt>
			<trkpt lat="42.758542" lon="24.974990">
				<ele>1897.000000</ele>
				<time>2025-07-12T12:06:52Z</time>
			</trkpt>
			<trkpt lat="42.758569" lon="24.974971">
				<ele>1898.000000</ele>
				<time>2025-07-12T12:06:58Z</time>
			</trkpt>
			<trkpt lat="42.758624" lon="24.974965">
				<ele>1898.000000</ele>
				<time>2025-07-12T12:07:04Z</time>
			</trkpt>
			<trkpt lat="42.758639" lon="24.974945">
				<ele>1899.000000</ele>
				<time>2025-07-12T12:07:07Z</time>
			</trkpt>
			<trkpt lat="42.758654" lon="24.974931">
				<ele>1899.000000</ele>
				<time>2025-07-12T12:07:09Z</time>
			</trkpt>
			<trkpt lat="42.758655" lon="24.974931">
				<ele>1899.000000</ele>
				<time>2025-07-12T12:07:10Z</time>
			</trkpt>
			<trkpt lat="42.758671" lon="24.974923">
				<ele>1900.000000</ele>
				<time>2025-07-12T12:07:13Z</time>
			</trkpt>
			<trkpt lat="42.758696" lon="24.974923">
				<ele>1900.000000</ele>
				<time>2025-07-12T12:07:18Z</time>
			</trkpt>
			<trkpt lat="42.758693" lon="24.974923">
				<ele>1901.000000</ele>
				<time>2025-07-12T12:07:20Z</time>
			</trkpt>
			<trkpt lat="42.758694" lon="24.974925">
				<ele>1901.000000</ele>
				<time>2025-07-12T12:07:25Z</time>
			</trkpt>
			<trkpt lat="42.758694" lon="24.974923">
				<ele>1900.000000</ele>
				<time>2025-07-12T12:07:28Z</time>
			</trkpt>
			<trkpt lat="42.758694" lon="24.974925">
				<ele>1900.000000</ele>
				<time>2025-07-12T12:07:38Z</time>
			</trkpt>
			<trkpt lat="42.758694" lon="24.974925">
				<ele>1900.000000</ele>
				<time>2025-07-12T12:07:39Z</time>
			</trkpt>
			<trkpt lat="42.758699" lon="24.974927">
				<ele>1901.000000</ele>
				<time>2025-07-12T12:07:52Z</time>
			</trkpt>
			<trkpt lat="42.758693" lon="24.974924">
				<ele>1901.000000</ele>
				<time>2025-07-12T12:07:56Z</time>
			</trkpt>
			<trkpt lat="42.758694" lon="24.974925">
				<ele>1900.000000</ele>
				<time>2025-07-12T12:07:57Z</time>
			</trkpt>
			<trkpt lat="42.758694" lon="24.974925">
				<ele>1900.000000</ele>
				<time>2025-07-12T12:08:02Z</time>
			</trkpt>
			<trkpt lat="42.758694" lon="24.974925">
				<ele>1900.000000</ele>
				<time>2025-07-12T12:08:05Z</time>
			</trkpt>
			<trkpt lat="42.758694" lon="24.974925">
				<ele>1900.000000</ele>
				<time>2025-07-12T12:08:06Z</time>
			</trkpt>
			<trkpt lat="42.758692" lon="24.974920">
				<ele>1900.000000</ele>
				<time>2025-07-12T12:08:15Z</time>
			</trkpt>
			<trkpt lat="42.758695" lon="24.974919">
				<ele>1900.000000</ele>
				<time>2025-07-12T12:08:22Z</time>
			</trkpt>
			<trkpt lat="42.758694" lon="24.974925">
				<ele>1900.000000</ele>
				<time>2025-07-12T12:08:28Z</time>
			</trkpt>
			<trkpt lat="42.758694" lon="24.974925">
				<ele>1900.000000</ele>
				<time>2025-07-12T12:08:32Z</time>
			</trkpt>
			<trkpt lat="42.758704" lon="24.974924">
				<ele>1900.000000</ele>
				<time>2025-07-12T12:08:36Z</time>
			</trkpt>
			<trkpt lat="42.758727" lon="24.974920">
				<ele>1900.000000</ele>
				<time>2025-07-12T12:08:39Z</time>
			</trkpt>
			<trkpt lat="42.758787" lon="24.974919">
				<ele>1900.000000</ele>
				<time>2025-07-12T12:08:46Z</time>
			</trkpt>
			<trkpt lat="42.758822" lon="24.974929">
				<ele>1901.000000</ele>
				<time>2025-07-12T12:08:51Z</time>
			</trkpt>
			<trkpt lat="42.758851" lon="24.974931">
				<ele>1901.000000</ele>
				<time>2025-07-12T12:08:54Z</time>
			</trkpt>
			<trkpt lat="42.758859" lon="24.974929">
				<ele>1902.000000</ele>
				<time>2025-07-12T12:08:55Z</time>
			</trkpt>
			<trkpt lat="42.758890" lon="24.974937">
				<ele>1902.000000</ele>
				<time>2025-07-12T12:09:01Z</time>
			</trkpt>
			<trkpt lat="42.758901" lon="24.974935">
				<ele>1903.000000</ele>
				<time>2025-07-12T12:09:03Z</time>
			</trkpt>
			<trkpt lat="42.758927" lon="24.974933">
				<ele>1903.000000</ele>
				<time>2025-07-12T12:09:07Z</time>
			</trkpt>
			<trkpt lat="42.758946" lon="24.974929">
				<ele>1904.000000</ele>
				<time>2025-07-12T12:09:10Z</time>
			</trkpt>
			<trkpt lat="42.758967" lon="24.974923">
				<ele>1904.000000</ele>
				<time>2025-07-12T12:09:14Z</time>
			</trkpt>
			<trkpt lat="42.758969" lon="24.974928">
				<ele>1905.000000</ele>
				<time>2025-07-12T12:09:17Z</time>
			</trkpt>
			<trkpt lat="42.758968" lon="24.974928">
				<ele>1905.000000</ele>
				<time>2025-07-12T12:09:19Z</time>
			</trkpt>
			<trkpt lat="42.758965" lon="24.974921">
				<ele>1905.000000</ele>
				<time>2025-07-12T12:09:29Z</time>
			</trkpt>
			<trkpt lat="42.758974" lon="24.974914">
				<ele>1904.000000</ele>
				<time>2025-07-12T12:09:34Z</time>
			</trkpt>
			<trkpt lat="42.758981" lon="24.974908">
				<ele>1905.000000</ele>
				<time>2025-07-12T12:09:35Z</time>
			</trkpt>
			<trkpt lat="42.758992" lon="24.974901">
				<ele>1905.000000</ele>
				<time>2025-07-12T12:09:37Z</time>
			</trkpt>
			<trkpt lat="42.759016" lon="24.974894">
				<ele>1906.000000</ele>
				<time>2025-07-12T12:09:41Z</time>
			</trkpt>
			<trkpt lat="42.759028" lon="24.974893">
				<ele>1906.000000</ele>
				<time>2025-07-12T12:09:43Z</time>
			</trkpt>
			<trkpt lat="42.759044" lon="24.974892">
				<ele>1907.000000</ele>
				<time>2025-07-12T12:09:45Z</time>
			</trkpt>
			<trkpt lat="42.759071" lon="24.974909">
				<ele>1908.000000</ele>
				<time>2025-07-12T12:09:49Z</time>
			</trkpt>
			<trkpt lat="42.759085" lon="24.974908">
				<ele>1908.000000</ele>
				<time>2025-07-12T12:09:51Z</time>
			</trkpt>
			<trkpt lat="42.759097" lon="24.974904">
				<ele>1908.000000</ele>
				<time>2025-07-12T12:09:52Z</time>
			</trkpt>
			<trkpt lat="42.759119" lon="24.974902">
				<ele>1908.000000</ele>
				<time>2025-07-12T12:09:55Z</time>
			</trkpt>
			<trkpt lat="42.759191" lon="24.974864">
				<ele>1909.000000</ele>
				<time>2025-07-12T12:10:04Z</time>
			</trkpt>
			<trkpt lat="42.759254" lon="24.974841">
				<ele>1908.000000</ele>
				<time>2025-07-12T12:10:11Z</time>
			</trkpt>
			<trkpt lat="42.759285" lon="24.974821">
				<ele>1908.000000</ele>
				<time>2025-07-12T12:10:17Z</time>
			</trkpt>
			<trkpt lat="42.759339" lon="24.974752">
				<ele>1907.000000</ele>
				<time>2025-07-12T12:10:25Z</time>
			</trkpt>
			<trkpt lat="42.759373" lon="24.974695">
				<ele>1907.000000</ele>
				<time>2025-07-12T12:10:30Z</time>
			</trkpt>
			<trkpt lat="42.759398" lon="24.974670">
				<ele>1907.000000</ele>
				<time>2025-07-12T12:10:33Z</time>
			</trkpt>
			<trkpt lat="42.759493" lon="24.974626">
				<ele>1908.000000</ele>
				<time>2025-07-12T12:10:43Z</time>
			</trkpt>
			<trkpt lat="42.759540" lon="24.974573">
				<ele>1908.000000</ele>
				<time>2025-07-12T12:10:50Z</time>
			</trkpt>
			<trkpt lat="42.759605" lon="24.974522">
				<ele>1909.000000</ele>
				<time>2025-07-12T12:10:59Z</time>
			</trkpt>
			<trkpt lat="42.759634" lon="24.974509">
				<ele>1909.000000</ele>
				<time>2025-07-12T12:11:02Z</time>
			</trkpt>
			<trkpt lat="42.759668" lon="24.974507">
				<ele>1909.000000</ele>
				<time>2025-07-12T12:11:06Z</time>
			</trkpt>
			<trkpt lat="42.759701" lon="24.974505">
				<ele>1910.000000</ele>
				<time>2025-07-12T12:11:13Z</time>
			</trkpt>
			<trkpt lat="42.759707" lon="24.974505">
				<ele>1910.000000</ele>
				<time>2025-07-12T12:11:14Z</time>
			</trkpt>
			<trkpt lat="42.759755" lon="24.974485">
				<ele>1910.000000</ele>
				<time>2025-07-12T12:11:21Z</time>
			</trkpt>
			<trkpt lat="42.759805" lon="24.974449">
				<ele>1911.000000</ele>
				<time>2025-07-12T12:11:29Z</time>
			</trkpt>
			<trkpt lat="42.759840" lon="24.974438">
				<ele>1911.000000</ele>
				<time>2025-07-12T12:11:34Z</time>
			</trkpt>
			<trkpt lat="42.759848" lon="24.974440">
				<ele>1911.000000</ele>
				<time>2025-07-12T12:11:35Z</time>
			</trkpt>
			<trkpt lat="42.759861" lon="24.974446">
				<ele>1911.000000</ele>
				<time>2025-07-12T12:11:37Z</time>
			</trkpt>
			<trkpt lat="42.759762" lon="24.974418">
				<ele>1916.000000</ele>
				<time>2025-07-12T13:12:41Z</time>
			</trkpt>
			<trkpt lat="42.759770" lon="24.974432">
				<ele>1916.000000</ele>
				<time>2025-07-12T13:12:42Z</time>
			</trkpt>
			<trkpt lat="42.759782" lon="24.974467">
				<ele>1915.000000</ele>
				<time>2025-07-12T13:12:47Z</time>
			</trkpt>
			<trkpt lat="42.759782" lon="24.974480">
				<ele>1915.000000</ele>
				<time>2025-07-12T13:12:50Z</time>
			</trkpt>
			<trkpt lat="42.759783" lon="24.974487">
				<ele>1915.000000</ele>
				<time>2025-07-12T13:12:52Z</time>
			</trkpt>
			<trkpt lat="42.759785" lon="24.974493">
				<ele>1915.000000</ele>
				<time>2025-07-12T13:12:54Z</time>
			</trkpt>
			<trkpt lat="42.759786" lon="24.974497">
				<ele>1915.000000</ele>
				<time>2025-07-12T13:12:56Z</time>
			</trkpt>
			<trkpt lat="42.759815" lon="24.974500">
				<ele>1915.000000</ele>
				<time>2025-07-12T13:13:01Z</time>
			</trkpt>
			<trkpt lat="42.759862" lon="24.974526">
				<ele>1915.000000</ele>
				<time>2025-07-12T13:13:08Z</time>
			</trkpt>
			<trkpt lat="42.759885" lon="24.974554">
				<ele>1915.000000</ele>
				<time>2025-07-12T13:13:17Z</time>
			</trkpt>
			<trkpt lat="42.759882" lon="24.974566">
				<ele>1914.000000</ele>
				<time>2025-07-12T13:13:24Z</time>
			</trkpt>
			<trkpt lat="42.759886" lon="24.974577">
				<ele>1914.000000</ele>
				<time>2025-07-12T13:13:26Z</time>
			</trkpt>
			<trkpt lat="42.759896" lon="24.974595">
				<ele>1913.000000</ele>
				<time>2025-07-12T13:13:31Z</time>
			</trkpt>
			<trkpt lat="42.759892" lon="24.974594">
				<ele>1913.000000</ele>
				<time>2025-07-12T13:13:34Z</time>
			</trkpt>
			<trkpt lat="42.759897" lon="24.974605">
				<ele>1913.000000</ele>
				<time>2025-07-12T13:13:39Z</time>
			</trkpt>
			<trkpt lat="42.759896" lon="24.974621">
				<ele>1913.000000</ele>
				<time>2025-07-12T13:13:48Z</time>
			</trkpt>
			<trkpt lat="42.759897" lon="24.974652">
				<ele>1912.000000</ele>
				<time>2025-07-12T13:13:56Z</time>
			</trkpt>
			<trkpt lat="42.759899" lon="24.974654">
				<ele>1912.000000</ele>
				<time>2025-07-12T13:13:58Z</time>
			</trkpt>
			<trkpt lat="42.759901" lon="24.974657">
				<ele>1911.000000</ele>
				<time>2025-07-12T13:14:01Z</time>
			</trkpt>
			<trkpt lat="42.759904" lon="24.974661">
				<ele>1911.000000</ele>
				<time>2025-07-12T13:14:07Z</time>
			</trkpt>
			<trkpt lat="42.759905" lon="24.974656">
				<ele>1911.000000</ele>
				<time>2025-07-12T13:14:11Z</time>
			</trkpt>
			<trkpt lat="42.759917" lon="24.974662">
				<ele>1910.000000</ele>
				<time>2025-07-12T13:14:16Z</time>
			</trkpt>
			<trkpt lat="42.759921" lon="24.974670">
				<ele>1910.000000</ele>
				<time>2025-07-12T13:14:18Z</time>
			</trkpt>
			<trkpt lat="42.759926" lon="24.974674">
				<ele>1910.000000</ele>
				<time>2025-07-12T13:14:21Z</time>
			</trkpt>
			<trkpt lat="42.759921" lon="24.974668">
				<ele>1909.000000</ele>
				<time>2025-07-12T13:14:25Z</time>
			</trkpt>
			<trkpt lat="42.759961" lon="24.974660">
				<ele>1909.000000</ele>
				<time>2025-07-12T13:14:33Z</time>
			</trkpt>
			<trkpt lat="42.759953" lon="24.974673">
				<ele>1909.000000</ele>
				<time>2025-07-12T13:14:41Z</time>
			</trkpt>
			<trkpt lat="42.759942" lon="24.974695">
				<ele>1908.000000</ele>
				<time>2025-07-12T13:14:49Z</time>
			</trkpt>
			<trkpt lat="42.759950" lon="24.974696">
				<ele>1908.000000</ele>
				<time>2025-07-12T13:14:52Z</time>
			</trkpt>
			<trkpt lat="42.759947" lon="24.974713">
				<ele>1907.000000</ele>
				<time>2025-07-12T13:14:55Z</time>
			</trkpt>
			<trkpt lat="42.759930" lon="24.974733">
				<ele>1906.000000</ele>
				<time>2025-07-12T13:14:59Z</time>
			</trkpt>
			<trkpt lat="42.759906" lon="24.974732">
				<ele>1906.000000</ele>
				<time>2025-07-12T13:15:04Z</time>
			</trkpt>
			<trkpt lat="42.759907" lon="24.974732">
				<ele>1906.000000</ele>
				<time>2025-07-12T13:15:08Z</time>
			</trkpt>
			<trkpt lat="42.759907" lon="24.974732">
				<ele>1906.000000</ele>
				<time>2025-07-12T13:15:11Z</time>
			</trkpt>
			<trkpt lat="42.759907" lon="24.974732">
				<ele>1905.000000</ele>
				<time>2025-07-12T13:15:18Z</time>
			</trkpt>
			<trkpt lat="42.759907" lon="24.974732">
				<ele>1905.000000</ele>
				<time>2025-07-12T13:15:20Z</time>
			</trkpt>
			<trkpt lat="42.759940" lon="24.974733">
				<ele>1905.000000</ele>
				<time>2025-07-12T13:15:25Z</time>
			</trkpt>
			<trkpt lat="42.759960" lon="24.974733">
				<ele>1904.000000</ele>
				<time>2025-07-12T13:15:28Z</time>
			</trkpt>
			<trkpt lat="42.759968" lon="24.974737">
				<ele>1904.000000</ele>
				<time>2025-07-12T13:15:29Z</time>
			</trkpt>
			<trkpt lat="42.759957" lon="24.974758">
				<ele>1904.000000</ele>
				<time>2025-07-12T13:15:36Z</time>
			</trkpt>
			<trkpt lat="42.759945" lon="24.974779">
				<ele>1903.000000</ele>
				<time>2025-07-12T13:15:40Z</time>
			</trkpt>
			<trkpt lat="42.759938" lon="24.974794">
				<ele>1903.000000</ele>
				<time>2025-07-12T13:15:43Z</time>
			</trkpt>
			<trkpt lat="42.759939" lon="24.974800">
				<ele>1903.000000</ele>
				<time>2025-07-12T13:15:45Z</time>
			</trkpt>
			<trkpt lat="42.759940" lon="24.974790">
				<ele>1903.000000</ele>
				<time>2025-07-12T13:15:47Z</time>
			</trkpt>
			<trkpt lat="42.759939" lon="24.974782">
				<ele>1903.000000</ele>
				<time>2025-07-12T13:15:51Z</time>
			</trkpt>
			<trkpt lat="42.759939" lon="24.974782">
				<ele>1903.000000</ele>
				<time>2025-07-12T13:15:55Z</time>
			</trkpt>
			<trkpt lat="42.759939" lon="24.974782">
				<ele>1903.000000</ele>
				<time>2025-07-12T13:15:58Z</time>
			</trkpt>
			<trkpt lat="42.759939" lon="24.974782">
				<ele>1903.000000</ele>
				<time>2025-07-12T13:16:02Z</time>
			</trkpt>
			<trkpt lat="42.759939" lon="24.974782">
				<ele>1903.000000</ele>
				<time>2025-07-12T13:16:04Z</time>
			</trkpt>
			<trkpt lat="42.759939" lon="24.974782">
				<ele>1903.000000</ele>
				<time>2025-07-12T13:16:13Z</time>
			</trkpt>
			<trkpt lat="42.759953" lon="24.974795">
				<ele>1902.000000</ele>
				<time>2025-07-12T13:16:19Z</time>
			</trkpt>
			<trkpt lat="42.759968" lon="24.974790">
				<ele>1901.000000</ele>
				<time>2025-07-12T13:16:28Z</time>
			</trkpt>
			<trkpt lat="42.759970" lon="24.974788">
				<ele>1901.000000</ele>
				<time>2025-07-12T13:16:32Z</time>
			</trkpt>
			<trkpt lat="42.759998" lon="24.974796">
				<ele>1901.000000</ele>
				<time>2025-07-12T13:16:36Z</time>
			</trkpt>
			<trkpt lat="42.759999" lon="24.974815">
				<ele>1900.000000</ele>
				<time>2025-07-12T13:16:40Z</time>
			</trkpt>
			<trkpt lat="42.759998" lon="24.974843">
				<ele>1899.000000</ele>
				<time>2025-07-12T13:16:46Z</time>
			</trkpt>
			<trkpt lat="42.760000" lon="24.974846">
				<ele>1899.000000</ele>
				<time>2025-07-12T13:16:47Z</time>
			</trkpt>
			<trkpt lat="42.760015" lon="24.974864">
				<ele>1898.000000</ele>
				<time>2025-07-12T13:16:53Z</time>
			</trkpt>
			<trkpt lat="42.760017" lon="24.974864">
				<ele>1898.000000</ele>
				<time>2025-07-12T13:16:55Z</time>
			</trkpt>
			<trkpt lat="42.760017" lon="24.974865">
				<ele>1897.000000</ele>
				<time>2025-07-12T13:16:59Z</time>
			</trkpt>
			<trkpt lat="42.760028" lon="24.974876">
				<ele>1897.000000</ele>
				<time>2025-07-12T13:17:04Z</time>
			</trkpt>
			<trkpt lat="42.760030" lon="24.974870">
				<ele>1897.000000</ele>
				<time>2025-07-12T13:17:05Z</time>
			</trkpt>
			<trkpt lat="42.760037" lon="24.974872">
				<ele>1896.000000</ele>
				<time>2025-07-12T13:17:12Z</time>
			</trkpt>
			<trkpt lat="42.760039" lon="24.974872">
				<ele>1896.000000</ele>
				<time>2025-07-12T13:17:15Z</time>
			</trkpt>
			<trkpt lat="42.760071" lon="24.974886">
				<ele>1895.000000</ele>
				<time>2025-07-12T13:17:21Z</time>
			</trkpt>
			<trkpt lat="42.760074" lon="24.974889">
				<ele>1895.000000</ele>
				<time>2025-07-12T13:17:22Z</time>
			</trkpt>
			<trkpt lat="42.760084" lon="24.974898">
				<ele>1894.000000</ele>
				<time>2025-07-12T13:17:27Z</time>
			</trkpt>
			<trkpt lat="42.760085" lon="24.974892">
				<ele>1894.000000</ele>
				<time>2025-07-12T13:17:28Z</time>
			</trkpt>
			<trkpt lat="42.760081" lon="24.974890">
				<ele>1894.000000</ele>
				<time>2025-07-12T13:17:37Z</time>
			</trkpt>
			<trkpt lat="42.760081" lon="24.974890">
				<ele>1894.000000</ele>
				<time>2025-07-12T13:17:42Z</time>
			</trkpt>
			<trkpt lat="42.760081" lon="24.974890">
				<ele>1894.000000</ele>
				<time>2025-07-12T13:17:45Z</time>
			</trkpt>
			<trkpt lat="42.760081" lon="24.974890">
				<ele>1894.000000</ele>
				<time>2025-07-12T13:17:46Z</time>
			</trkpt>
			<trkpt lat="42.760088" lon="24.974894">
				<ele>1893.000000</ele>
				<time>2025-07-12T13:17:53Z</time>
			</trkpt>
			<trkpt lat="42.760098" lon="24.974898">
				<ele>1892.000000</ele>
				<time>2025-07-12T13:17:57Z</time>
			</trkpt>
			<trkpt lat="42.760107" lon="24.974910">
				<ele>1892.000000</ele>
				<time>2025-07-12T13:18:02Z</time>
			</trkpt>
			<trkpt lat="42.760107" lon="24.974910">
				<ele>1891.000000</ele>
				<time>2025-07-12T13:18:04Z</time>
			</trkpt>
			<trkpt lat="42.760118" lon="24.974923">
				<ele>1891.000000</ele>
				<time>2025-07-12T13:18:08Z</time>
			</trkpt>
			<trkpt lat="42.760123" lon="24.974928">
				<ele>1891.000000</ele>
				<time>2025-07-12T13:18:09Z</time>
			</trkpt>
			<trkpt lat="42.760129" lon="24.974957">
				<ele>1890.000000</ele>
				<time>2025-07-12T13:18:14Z</time>
			</trkpt>
			<trkpt lat="42.760117" lon="24.974983">
				<ele>1890.000000</ele>
				<time>2025-07-12T13:18:17Z</time>
			</trkpt>
			<trkpt lat="42.760102" lon="24.974999">
				<ele>1889.000000</ele>
				<time>2025-07-12T13:18:21Z</time>
			</trkpt>
			<trkpt lat="42.760098" lon="24.974995">
				<ele>1889.000000</ele>
				<time>2025-07-12T13:18:26Z</time>
			</trkpt>
			<trkpt lat="42.760098" lon="24.974995">
				<ele>1888.000000</ele>
				<time>2025-07-12T13:18:36Z</time>
			</trkpt>
			<trkpt lat="42.760106" lon="24.974994">
				<ele>1888.000000</ele>
				<time>2025-07-12T13:18:42Z</time>
			</trkpt>
			<trkpt lat="42.760120" lon="24.974996">
				<ele>1888.000000</ele>
				<time>2025-07-12T13:18:43Z</time>
			</trkpt>
			<trkpt lat="42.760137" lon="24.974998">
				<ele>1888.000000</ele>
				<time>2025-07-12T13:18:45Z</time>
			</trkpt>
			<trkpt lat="42.760143" lon="24.975002">
				<ele>1888.000000</ele>
				<time>2025-07-12T13:18:46Z</time>
			</trkpt>
			<trkpt lat="42.760158" lon="24.975020">
				<ele>1887.000000</ele>
				<time>2025-07-12T13:18:50Z</time>
			</trkpt>
			<trkpt lat="42.760160" lon="24.975020">
				<ele>1886.000000</ele>
				<time>2025-07-12T13:18:53Z</time>
			</trkpt>
			<trkpt lat="42.760182" lon="24.975026">
				<ele>1886.000000</ele>
				<time>2025-07-12T13:18:57Z</time>
			</trkpt>
			<trkpt lat="42.760185" lon="24.975034">
				<ele>1885.000000</ele>
				<time>2025-07-12T13:19:02Z</time>
			</trkpt>
			<trkpt lat="42.760200" lon="24.975033">
				<ele>1885.000000</ele>
				<time>2025-07-12T13:19:06Z</time>
			</trkpt>
			<trkpt lat="42.760234" lon="24.975042">
				<ele>1884.000000</ele>
				<time>2025-07-12T13:19:12Z</time>
			</trkpt>
			<trkpt lat="42.760242" lon="24.975061">
				<ele>1883.000000</ele>
				<time>2025-07-12T13:19:17Z</time>
			</trkpt>
			<trkpt lat="42.760248" lon="24.975066">
				<ele>1882.000000</ele>
				<time>2025-07-12T13:19:20Z</time>
			</trkpt>
			<trkpt lat="42.760253" lon="24.975069">
				<ele>1882.000000</ele>
				<time>2025-07-12T13:19:23Z</time>
			</trkpt>
			<trkpt lat="42.760239" lon="24.975070">
				<ele>1881.000000</ele>
				<time>2025-07-12T13:19:26Z</time>
			</trkpt>
			<trkpt lat="42.760242" lon="24.975065">
				<ele>1881.000000</ele>
				<time>2025-07-12T13:19:31Z</time>
			</trkpt>
			<trkpt lat="42.760263" lon="24.975061">
				<ele>1880.000000</ele>
				<time>2025-07-12T13:19:34Z</time>
			</trkpt>
			<trkpt lat="42.760282" lon="24.975083">
				<ele>1880.000000</ele>
				<time>2025-07-12T13:19:37Z</time>
			</trkpt>
			<trkpt lat="42.760289" lon="24.975100">
				<ele>1879.000000</ele>
				<time>2025-07-12T13:19:40Z</time>
			</trkpt>
			<trkpt lat="42.760295" lon="24.975109">
				<ele>1878.000000</ele>
				<time>2025-07-12T13:19:43Z</time>
			</trkpt>
			<trkpt lat="42.760316" lon="24.975130">
				<ele>1877.000000</ele>
				<time>2025-07-12T13:19:49Z</time>
			</trkpt>
			<trkpt lat="42.760330" lon="24.975177">
				<ele>1876.000000</ele>
				<time>2025-07-12T13:19:55Z</time>
			</trkpt>
			<trkpt lat="42.760334" lon="24.975188">
				<ele>1876.000000</ele>
				<time>2025-07-12T13:19:57Z</time>
			</trkpt>
			<trkpt lat="42.760323" lon="24.975185">
				<ele>1875.000000</ele>
				<time>2025-07-12T13:20:05Z</time>
			</trkpt>
			<trkpt lat="42.760324" lon="24.975187">
				<ele>1875.000000</ele>
				<time>2025-07-12T13:20:06Z</time>
			</trkpt>
			<trkpt lat="42.760395" lon="24.975243">
				<ele>1875.000000</ele>
				<time>2025-07-12T13:20:14Z</time>
			</trkpt>
			<trkpt lat="42.760424" lon="24.975274">
				<ele>1874.000000</ele>
				<time>2025-07-12T13:20:21Z</time>
			</trkpt>
			<trkpt lat="42.760429" lon="24.975279">
				<ele>1874.000000</ele>
				<time>2025-07-12T13:20:22Z</time>
			</trkpt>
			<trkpt lat="42.760451" lon="24.975309">
				<ele>1873.000000</ele>
				<time>2025-07-12T13:20:27Z</time>
			</trkpt>
			<trkpt lat="42.760444" lon="24.975311">
				<ele>1873.000000</ele>
				<time>2025-07-12T13:20:29Z</time>
			</trkpt>
			<trkpt lat="42.760438" lon="24.975310">
				<ele>1873.000000</ele>
				<time>2025-07-12T13:20:37Z</time>
			</trkpt>
			<trkpt lat="42.760438" lon="24.975310">
				<ele>1873.000000</ele>
				<time>2025-07-12T13:20:38Z</time>
			</trkpt>
			<trkpt lat="42.760438" lon="24.975310">
				<ele>1872.000000</ele>
				<time>2025-07-12T13:20:48Z</time>
			</trkpt>
			<trkpt lat="42.760458" lon="24.975315">
				<ele>1872.000000</ele>
				<time>2025-07-12T13:20:53Z</time>
			</trkpt>
			<trkpt lat="42.760487" lon="24.975346">
				<ele>1871.000000</ele>
				<time>2025-07-12T13:20:58Z</time>
			</trkpt>
			<trkpt lat="42.760514" lon="24.975373">
				<ele>1870.000000</ele>
				<time>2025-07-12T13:21:02Z</time>
			</trkpt>
			<trkpt lat="42.760547" lon="24.975396">
				<ele>1870.000000</ele>
				<time>2025-07-12T13:21:09Z</time>
			</trkpt>
			<trkpt lat="42.760541" lon="24.975401">
				<ele>1870.000000</ele>
				<time>2025-07-12T13:21:17Z</time>
			</trkpt>
			<trkpt lat="42.760541" lon="24.975401">
				<ele>1870.000000</ele>
				<time>2025-07-12T13:21:19Z</time>
			</trkpt>
			<trkpt lat="42.760541" lon="24.975401">
				<ele>1870.000000</ele>
				<time>2025-07-12T13:21:22Z</time>
			</trkpt>
			<trkpt lat="42.760541" lon="24.975401">
				<ele>1869.000000</ele>
				<time>2025-07-12T13:21:26Z</time>
			</trkpt>
			<trkpt lat="42.760547" lon="24.975425">
				<ele>1869.000000</ele>
				<time>2025-07-12T13:21:31Z</time>
			</trkpt>
			<trkpt lat="42.760548" lon="24.975428">
				<ele>1869.000000</ele>
				<time>2025-07-12T13:21:33Z</time>
			</trkpt>
			<trkpt lat="42.760551" lon="24.975429">
				<ele>1868.000000</ele>
				<time>2025-07-12T13:21:41Z</time>
			</trkpt>
			<trkpt lat="42.760554" lon="24.975440">
				<ele>1868.000000</ele>
				<time>2025-07-12T13:21:44Z</time>
			</trkpt>
			<trkpt lat="42.760551" lon="24.975429">
				<ele>1868.000000</ele>
				<time>2025-07-12T13:21:49Z</time>
			</trkpt>
			<trkpt lat="42.760564" lon="24.975438">
				<ele>1867.000000</ele>
				<time>2025-07-12T13:21:56Z</time>
			</trkpt>
			<trkpt lat="42.760574" lon="24.975443">
				<ele>1867.000000</ele>
				<time>2025-07-12T13:22:02Z</time>
			</trkpt>
			<trkpt lat="42.760576" lon="24.975448">
				<ele>1867.000000</ele>
				<time>2025-07-12T13:22:03Z</time>
			</trkpt>
			<trkpt lat="42.760577" lon="24.975472">
				<ele>1866.000000</ele>
				<time>2025-07-12T13:22:11Z</time>
			</trkpt>
			<trkpt lat="42.760578" lon="24.975472">
				<ele>1866.000000</ele>
				<time>2025-07-12T13:22:12Z</time>
			</trkpt>
			<trkpt lat="42.760579" lon="24.975472">
				<ele>1866.000000</ele>
				<time>2025-07-12T13:22:13Z</time>
			</trkpt>
			<trkpt lat="42.760579" lon="24.975472">
				<ele>1866.000000</ele>
				<time>2025-07-12T13:22:17Z</time>
			</trkpt>
			<trkpt lat="42.760579" lon="24.975472">
				<ele>1866.000000</ele>
				<time>2025-07-12T13:22:21Z</time>
			</trkpt>
			<trkpt lat="42.760579" lon="24.975472">
				<ele>1865.000000</ele>
				<time>2025-07-12T13:22:25Z</time>
			</trkpt>
			<trkpt lat="42.760579" lon="24.975472">
				<ele>1865.000000</ele>
				<time>2025-07-12T13:22:28Z</time>
			</trkpt>
			<trkpt lat="42.760580" lon="24.975480">
				<ele>1865.000000</ele>
				<time>2025-07-12T13:22:31Z</time>
			</trkpt>
			<trkpt lat="42.760581" lon="24.975487">
				<ele>1864.000000</ele>
				<time>2025-07-12T13:22:32Z</time>
			</trkpt>
			<trkpt lat="42.760579" lon="24.975472">
				<ele>1864.000000</ele>
				<time>2025-07-12T13:22:38Z</time>
			</trkpt>
			<trkpt lat="42.760579" lon="24.975472">
				<ele>1864.000000</ele>
				<time>2025-07-12T13:22:40Z</time>
			</trkpt>
			<trkpt lat="42.760588" lon="24.975505">
				<ele>1864.000000</ele>
				<time>2025-07-12T13:22:47Z</time>
			</trkpt>
			<trkpt lat="42.760589" lon="24.975506">
				<ele>1864.000000</ele>
				<time>2025-07-12T13:22:49Z</time>
			</trkpt>
			<trkpt lat="42.760589" lon="24.975527">
				<ele>1863.000000</ele>
				<time>2025-07-12T13:22:59Z</time>
			</trkpt>
			<trkpt lat="42.760587" lon="24.975527">
				<ele>1862.000000</ele>
				<time>2025-07-12T13:23:00Z</time>
			</trkpt>
			<trkpt lat="42.760573" lon="24.975530">
				<ele>1862.000000</ele>
				<time>2025-07-12T13:23:05Z</time>
			</trkpt>
			<trkpt lat="42.760572" lon="24.975535">
				<ele>1861.000000</ele>
				<time>2025-07-12T13:23:08Z</time>
			</trkpt>
			<trkpt lat="42.760568" lon="24.975545">
				<ele>1861.000000</ele>
				<time>2025-07-12T13:23:11Z</time>
			</trkpt>
			<trkpt lat="42.760567" lon="24.975553">
				<ele>1860.000000</ele>
				<time>2025-07-12T13:23:14Z</time>
			</trkpt>
			<trkpt lat="42.760573" lon="24.975562">
				<ele>1860.000000</ele>
				<time>2025-07-12T13:23:17Z</time>
			</trkpt>
			<trkpt lat="42.760625" lon="24.975588">
				<ele>1859.000000</ele>
				<time>2025-07-12T13:23:24Z</time>
			</trkpt>
			<trkpt lat="42.760643" lon="24.975576">
				<ele>1860.000000</ele>
				<time>2025-07-12T13:23:27Z</time>
			</trkpt>
			<trkpt lat="42.760644" lon="24.975568">
				<ele>1860.000000</ele>
				<time>2025-07-12T13:23:31Z</time>
			</trkpt>
			<trkpt lat="42.760644" lon="24.975568">
				<ele>1859.000000</ele>
				<time>2025-07-12T13:23:39Z</time>
			</trkpt>
			<trkpt lat="42.760644" lon="24.975568">
				<ele>1859.000000</ele>
				<time>2025-07-12T13:23:48Z</time>
			</trkpt>
			<trkpt lat="42.760644" lon="24.975568">
				<ele>1859.000000</ele>
				<time>2025-07-12T13:23:55Z</time>
			</trkpt>
			<trkpt lat="42.760644" lon="24.975568">
				<ele>1858.000000</ele>
				<time>2025-07-12T13:24:00Z</time>
			</trkpt>
			<trkpt lat="42.760644" lon="24.975568">
				<ele>1858.000000</ele>
				<time>2025-07-12T13:24:02Z</time>
			</trkpt>
			<trkpt lat="42.760644" lon="24.975568">
				<ele>1857.000000</ele>
				<time>2025-07-12T13:24:09Z</time>
			</trkpt>
			<trkpt lat="42.760644" lon="24.975568">
				<ele>1857.000000</ele>
				<time>2025-07-12T13:24:18Z</time>
			</trkpt>
			<trkpt lat="42.760644" lon="24.975568">
				<ele>1856.000000</ele>
				<time>2025-07-12T13:24:20Z</time>
			</trkpt>
			<trkpt lat="42.760653" lon="24.975560">
				<ele>1856.000000</ele>
				<time>2025-07-12T13:24:25Z</time>
			</trkpt>
			<trkpt lat="42.760673" lon="24.975534">
				<ele>1856.000000</ele>
				<time>2025-07-12T13:24:26Z</time>
			</trkpt>
			<trkpt lat="42.760680" lon="24.975523">
				<ele>1856.000000</ele>
				<time>2025-07-12T13:24:33Z</time>
			</trkpt>
			<trkpt lat="42.760680" lon="24.975523">
				<ele>1856.000000</ele>
				<time>2025-07-12T13:24:38Z</time>
			</trkpt>
			<trkpt lat="42.760680" lon="24.975523">
				<ele>1856.000000</ele>
				<time>2025-07-12T13:24:42Z</time>
			</trkpt>
			<trkpt lat="42.760680" lon="24.975523">
				<ele>1855.000000</ele>
				<time>2025-07-12T13:24:47Z</time>
			</trkpt>
			<trkpt lat="42.760680" lon="24.975523">
				<ele>1855.000000</ele>
				<time>2025-07-12T13:24:51Z</time>
			</trkpt>
			<trkpt lat="42.760680" lon="24.975523">
				<ele>1855.000000</ele>
				<time>2025-07-12T13:25:02Z</time>
			</trkpt>
			<trkpt lat="42.760680" lon="24.975523">
				<ele>1856.000000</ele>
				<time>2025-07-12T13:25:09Z</time>
			</trkpt>
			<trkpt lat="42.760680" lon="24.975523">
				<ele>1856.000000</ele>
				<time>2025-07-12T13:25:18Z</time>
			</trkpt>
			<trkpt lat="42.760680" lon="24.975523">
				<ele>1856.000000</ele>
				<time>2025-07-12T13:25:31Z</time>
			</trkpt>
			<trkpt lat="42.760688" lon="24.975519">
				<ele>1856.000000</ele>
				<time>2025-07-12T13:25:40Z</time>
			</trkpt>
			<trkpt lat="42.760697" lon="24.975502">
				<ele>1855.000000</ele>
				<time>2025-07-12T13:25:47Z</time>
			</trkpt>
			<trkpt lat="42.760692" lon="24.975509">
				<ele>1855.000000</ele>
				<time>2025-07-12T13:25:50Z</time>
			</trkpt>
			<trkpt lat="42.760698" lon="24.975497">
				<ele>1855.000000</ele>
				<time>2025-07-12T13:25:55Z</time>
			</trkpt>
			<trkpt lat="42.760695" lon="24.975495">
				<ele>1855.000000</ele>
				<time>2025-07-12T13:25:59Z</time>
			</trkpt>
			<trkpt lat="42.760693" lon="24.975495">
				<ele>1855.000000</ele>
				<time>2025-07-12T13:26:03Z</time>
			</trkpt>
			<trkpt lat="42.760693" lon="24.975495">
				<ele>1854.000000</ele>
				<time>2025-07-12T13:26:04Z</time>
			</trkpt>
			<trkpt lat="42.760694" lon="24.975493">
				<ele>1854.000000</ele>
				<time>2025-07-12T13:26:09Z</time>
			</trkpt>
			<trkpt lat="42.760695" lon="24.975493">
				<ele>1854.000000</ele>
				<time>2025-07-12T13:26:10Z</time>
			</trkpt>
			<trkpt lat="42.760693" lon="24.975495">
				<ele>1854.000000</ele>
				<time>2025-07-12T13:26:22Z</time>
			</trkpt>
			<trkpt lat="42.760693" lon="24.975495">
				<ele>1854.000000</ele>
				<time>2025-07-12T13:26:25Z</time>
			</trkpt>
			<trkpt lat="42.760696" lon="24.975483">
				<ele>1853.000000</ele>
				<time>2025-07-12T13:26:32Z</time>
			</trkpt>
			<trkpt lat="42.760697" lon="24.975482">
				<ele>1853.000000</ele>
				<time>2025-07-12T13:26:34Z</time>
			</trkpt>
			<trkpt lat="42.760704" lon="24.975478">
				<ele>1852.000000</ele>
				<time>2025-07-12T13:26:39Z</time>
			</trkpt>
			<trkpt lat="42.760704" lon="24.975478">
				<ele>1852.000000</ele>
				<time>2025-07-12T13:26:41Z</time>
			</trkpt>
			<trkpt lat="42.760704" lon="24.975478">
				<ele>1852.000000</ele>
				<time>2025-07-12T13:26:44Z</time>
			</trkpt>
			<trkpt lat="42.760704" lon="24.975478">
				<ele>1851.000000</ele>
				<time>2025-07-12T13:26:46Z</time>
			</trkpt>
			<trkpt lat="42.760704" lon="24.975478">
				<ele>1851.000000</ele>
				<time>2025-07-12T13:26:50Z</time>
			</trkpt>
			<trkpt lat="42.760704" lon="24.975478">
				<ele>1851.000000</ele>
				<time>2025-07-12T13:26:53Z</time>
			</trkpt>
			<trkpt lat="42.760704" lon="24.975478">
				<ele>1851.000000</ele>
				<time>2025-07-12T13:27:05Z</time>
			</trkpt>
			<trkpt lat="42.760704" lon="24.975478">
				<ele>1851.000000</ele>
				<time>2025-07-12T13:27:09Z</time>
			</trkpt>
			<trkpt lat="42.760704" lon="24.975478">
				<ele>1850.000000</ele>
				<time>2025-07-12T13:27:14Z</time>
			</trkpt>
			<trkpt lat="42.760716" lon="24.975450">
				<ele>1850.000000</ele>
				<time>2025-07-12T13:27:27Z</time>
			</trkpt>
			<trkpt lat="42.760734" lon="24.975429">
				<ele>1850.000000</ele>
				<time>2025-07-12T13:27:31Z</time>
			</trkpt>
			<trkpt lat="42.760733" lon="24.975428">
				<ele>1850.000000</ele>
				<time>2025-07-12T13:27:32Z</time>
			</trkpt>
			<trkpt lat="42.760733" lon="24.975428">
				<ele>1849.000000</ele>
				<time>2025-07-12T13:27:34Z</time>
			</trkpt>
			<trkpt lat="42.760733" lon="24.975428">
				<ele>1849.000000</ele>
				<time>2025-07-12T13:27:40Z</time>
			</trkpt>
			<trkpt lat="42.760733" lon="24.975428">
				<ele>1848.000000</ele>
				<time>2025-07-12T13:27:42Z</time>
			</trkpt>
			<trkpt lat="42.760741" lon="24.975403">
				<ele>1847.000000</ele>
				<time>2025-07-12T13:27:51Z</time>
			</trkpt>
			<trkpt lat="42.760755" lon="24.975397">
				<ele>1846.000000</ele>
				<time>2025-07-12T13:27:57Z</time>
			</trkpt>
			<trkpt lat="42.760756" lon="24.975399">
				<ele>1846.000000</ele>
				<time>2025-07-12T13:27:59Z</time>
			</trkpt>
			<trkpt lat="42.760754" lon="24.975381">
				<ele>1847.000000</ele>
				<time>2025-07-12T13:28:05Z</time>
			</trkpt>
			<trkpt lat="42.760754" lon="24.975380">
				<ele>1846.000000</ele>
				<time>2025-07-12T13:28:06Z</time>
			</trkpt>
			<trkpt lat="42.760758" lon="24.975377">
				<ele>1846.000000</ele>
				<time>2025-07-12T13:28:07Z</time>
			</trkpt>
			<trkpt lat="42.760764" lon="24.975370">
				<ele>1845.000000</ele>
				<time>2025-07-12T13:28:11Z</time>
			</trkpt>
			<trkpt lat="42.760774" lon="24.975332">
				<ele>1845.000000</ele>
				<time>2025-07-12T13:28:16Z</time>
			</trkpt>
			<trkpt lat="42.760780" lon="24.975330">
				<ele>1844.000000</ele>
				<time>2025-07-12T13:28:20Z</time>
			</trkpt>
			<trkpt lat="42.760778" lon="24.975336">
				<ele>1844.000000</ele>
				<time>2025-07-12T13:28:22Z</time>
			</trkpt>
			<trkpt lat="42.760775" lon="24.975341">
				<ele>1844.000000</ele>
				<time>2025-07-12T13:28:32Z</time>
			</trkpt>
			<trkpt lat="42.760775" lon="24.975341">
				<ele>1843.000000</ele>
				<time>2025-07-12T13:28:35Z</time>
			</trkpt>
			<trkpt lat="42.760775" lon="24.975341">
				<ele>1843.000000</ele>
				<time>2025-07-12T13:28:40Z</time>
			</trkpt>
			<trkpt lat="42.760785" lon="24.975334">
				<ele>1843.000000</ele>
				<time>2025-07-12T13:28:44Z</time>
			</trkpt>
			<trkpt lat="42.760791" lon="24.975337">
				<ele>1843.000000</ele>
				<time>2025-07-12T13:28:47Z</time>
			</trkpt>
			<trkpt lat="42.760791" lon="24.975344">
				<ele>1842.000000</ele>
				<time>2025-07-12T13:28:50Z</time>
			</trkpt>
			<trkpt lat="42.760795" lon="24.975346">
				<ele>1842.000000</ele>
				<time>2025-07-12T13:28:52Z</time>
			</trkpt>
			<trkpt lat="42.760794" lon="24.975340">
				<ele>1842.000000</ele>
				<time>2025-07-12T13:28:55Z</time>
			</trkpt>
			<trkpt lat="42.760813" lon="24.975318">
				<ele>1841.000000</ele>
				<time>2025-07-12T13:29:03Z</time>
			</trkpt>
			<trkpt lat="42.760815" lon="24.975311">
				<ele>1840.000000</ele>
				<time>2025-07-12T13:29:09Z</time>
			</trkpt>
			<trkpt lat="42.760814" lon="24.975309">
				<ele>1840.000000</ele>
				<time>2025-07-12T13:29:10Z</time>
			</trkpt>
			<trkpt lat="42.760825" lon="24.975291">
				<ele>1839.000000</ele>
				<time>2025-07-12T13:29:14Z</time>
			</trkpt>
			<trkpt lat="42.760828" lon="24.975293">
				<ele>1839.000000</ele>
				<time>2025-07-12T13:29:15Z</time>
			</trkpt>
			<trkpt lat="42.760831" lon="24.975291">
				<ele>1839.000000</ele>
				<time>2025-07-12T13:29:17Z</time>
			</trkpt>
			<trkpt lat="42.760835" lon="24.975277">
				<ele>1838.000000</ele>
				<time>2025-07-12T13:29:22Z</time>
			</trkpt>
			<trkpt lat="42.760825" lon="24.975271">
				<ele>1838.000000</ele>
				<time>2025-07-12T13:29:29Z</time>
			</trkpt>
			<trkpt lat="42.760826" lon="24.975271">
				<ele>1838.000000</ele>
				<time>2025-07-12T13:29:30Z</time>
			</trkpt>
			<trkpt lat="42.760833" lon="24.975256">
				<ele>1837.000000</ele>
				<time>2025-07-12T13:29:36Z</time>
			</trkpt>
			<trkpt lat="42.760840" lon="24.975251">
				<ele>1837.000000</ele>
				<time>2025-07-12T13:29:39Z</time>
			</trkpt>
			<trkpt lat="42.760848" lon="24.975234">
				<ele>1837.000000</ele>
				<time>2025-07-12T13:29:42Z</time>
			</trkpt>
			<trkpt lat="42.760850" lon="24.975231">
				<ele>1836.000000</ele>
				<time>2025-07-12T13:29:43Z</time>
			</trkpt>
			<trkpt lat="42.760850" lon="24.975201">
				<ele>1835.000000</ele>
				<time>2025-07-12T13:29:49Z</time>
			</trkpt>
			<trkpt lat="42.760848" lon="24.975185">
				<ele>1835.000000</ele>
				<time>2025-07-12T13:29:51Z</time>
			</trkpt>
			<trkpt lat="42.760819" lon="24.975144">
				<ele>1835.000000</ele>
				<time>2025-07-12T13:29:59Z</time>
			</trkpt>
			<trkpt lat="42.760817" lon="24.975130">
				<ele>1834.000000</ele>
				<time>2025-07-12T13:30:02Z</time>
			</trkpt>
			<trkpt lat="42.760808" lon="24.975094">
				<ele>1834.000000</ele>
				<time>2025-07-12T13:30:08Z</time>
			</trkpt>
			<trkpt lat="42.760794" lon="24.975067">
				<ele>1833.000000</ele>
				<time>2025-07-12T13:30:12Z</time>
			</trkpt>
			<trkpt lat="42.760792" lon="24.975043">
				<ele>1832.000000</ele>
				<time>2025-07-12T13:30:16Z</time>
			</trkpt>
			<trkpt lat="42.760793" lon="24.975037">
				<ele>1832.000000</ele>
				<time>2025-07-12T13:30:18Z</time>
			</trkpt>
			<trkpt lat="42.760798" lon="24.975016">
				<ele>1831.000000</ele>
				<time>2025-07-12T13:30:24Z</time>
			</trkpt>
			<trkpt lat="42.760795" lon="24.975008">
				<ele>1831.000000</ele>
				<time>2025-07-12T13:30:27Z</time>
			</trkpt>
			<trkpt lat="42.760787" lon="24.974984">
				<ele>1830.000000</ele>
				<time>2025-07-12T13:30:31Z</time>
			</trkpt>
			<trkpt lat="42.760786" lon="24.974963">
				<ele>1830.000000</ele>
				<time>2025-07-12T13:30:34Z</time>
			</trkpt>
			<trkpt lat="42.760783" lon="24.974923">
				<ele>1829.000000</ele>
				<time>2025-07-12T13:30:40Z</time>
			</trkpt>
			<trkpt lat="42.760779" lon="24.974914">
				<ele>1829.000000</ele>
				<time>2025-07-12T13:30:42Z</time>
			</trkpt>
			<trkpt lat="42.760777" lon="24.974904">
				<ele>1829.000000</ele>
				<time>2025-07-12T13:30:44Z</time>
			</trkpt>
			<trkpt lat="42.760779" lon="24.974897">
				<ele>1829.000000</ele>
				<time>2025-07-12T13:30:46Z</time>
			</trkpt>
			<trkpt lat="42.760768" lon="24.974873">
				<ele>1829.000000</ele>
				<time>2025-07-12T13:30:52Z</time>
			</trkpt>
			<trkpt lat="42.760766" lon="24.974855">
				<ele>1828.000000</ele>
				<time>2025-07-12T13:30:57Z</time>
			</trkpt>
			<trkpt lat="42.760768" lon="24.974851">
				<ele>1827.000000</ele>
				<time>2025-07-12T13:30:58Z</time>
			</trkpt>
			<trkpt lat="42.760767" lon="24.974849">
				<ele>1827.000000</ele>
				<time>2025-07-12T13:31:04Z</time>
			</trkpt>
			<trkpt lat="42.760775" lon="24.974831">
				<ele>1827.000000</ele>
				<time>2025-07-12T13:31:08Z</time>
			</trkpt>
			<trkpt lat="42.760770" lon="24.974805">
				<ele>1826.000000</ele>
				<time>2025-07-12T13:31:11Z</time>
			</trkpt>
			<trkpt lat="42.760768" lon="24.974780">
				<ele>1825.000000</ele>
				<time>2025-07-12T13:31:15Z</time>
			</trkpt>
			<trkpt lat="42.760771" lon="24.974746">
				<ele>1825.000000</ele>
				<time>2025-07-12T13:31:19Z</time>
			</trkpt>
			<trkpt lat="42.760769" lon="24.974732">
				<ele>1824.000000</ele>
				<time>2025-07-12T13:31:20Z</time>
			</trkpt>
			<trkpt lat="42.760761" lon="24.974691">
				<ele>1823.000000</ele>
				<time>2025-07-12T13:31:27Z</time>
			</trkpt>
			<trkpt lat="42.760761" lon="24.974692">
				<ele>1823.000000</ele>
				<time>2025-07-12T13:31:28Z</time>
			</trkpt>
			<trkpt lat="42.760747" lon="24.974662">
				<ele>1822.000000</ele>
				<time>2025-07-12T13:31:34Z</time>
			</trkpt>
			<trkpt lat="42.760746" lon="24.974656">
				<ele>1822.000000</ele>
				<time>2025-07-12T13:31:36Z</time>
			</trkpt>
			<trkpt lat="42.760734" lon="24.974615">
				<ele>1822.000000</ele>
				<time>2025-07-12T13:31:42Z</time>
			</trkpt>
			<trkpt lat="42.760715" lon="24.974577">
				<ele>1822.000000</ele>
				<time>2025-07-12T13:31:48Z</time>
			</trkpt>
			<trkpt lat="42.760716" lon="24.974524">
				<ele>1821.000000</ele>
				<time>2025-07-12T13:31:56Z</time>
			</trkpt>
			<trkpt lat="42.760714" lon="24.974526">
				<ele>1821.000000</ele>
				<time>2025-07-12T13:31:57Z</time>
			</trkpt>
			<trkpt lat="42.760720" lon="24.974514">
				<ele>1821.000000</ele>
				<time>2025-07-12T13:32:03Z</time>
			</trkpt>
			<trkpt lat="42.760728" lon="24.974496">
				<ele>1820.000000</ele>
				<time>2025-07-12T13:32:07Z</time>
			</trkpt>
			<trkpt lat="42.760723" lon="24.974499">
				<ele>1820.000000</ele>
				<time>2025-07-12T13:32:10Z</time>
			</trkpt>
			<trkpt lat="42.760726" lon="24.974446">
				<ele>1819.000000</ele>
				<time>2025-07-12T13:32:16Z</time>
			</trkpt>
			<trkpt lat="42.760726" lon="24.974395">
				<ele>1818.000000</ele>
				<time>2025-07-12T13:32:23Z</time>
			</trkpt>
			<trkpt lat="42.760727" lon="24.974381">
				<ele>1818.000000</ele>
				<time>2025-07-12T13:32:25Z</time>
			</trkpt>
			<trkpt lat="42.760739" lon="24.974350">
				<ele>1817.000000</ele>
				<time>2025-07-12T13:32:30Z</time>
			</trkpt>
			<trkpt lat="42.760738" lon="24.974342">
				<ele>1817.000000</ele>
				<time>2025-07-12T13:32:33Z</time>
			</trkpt>
			<trkpt lat="42.760738" lon="24.974336">
				<ele>1816.000000</ele>
				<time>2025-07-12T13:32:46Z</time>
			</trkpt>
			<trkpt lat="42.760727" lon="24.974273">
				<ele>1817.000000</ele>
				<time>2025-07-12T13:32:53Z</time>
			</trkpt>
			<trkpt lat="42.760713" lon="24.974229">
				<ele>1816.000000</ele>
				<time>2025-07-12T13:32:59Z</time>
			</trkpt>
			<trkpt lat="42.760705" lon="24.974220">
				<ele>1815.000000</ele>
				<time>2025-07-12T13:33:02Z</time>
			</trkpt>
			<trkpt lat="42.760698" lon="24.974210">
				<ele>1815.000000</ele>
				<time>2025-07-12T13:33:08Z</time>
			</trkpt>
			<trkpt lat="42.760699" lon="24.974202">
				<ele>1815.000000</ele>
				<time>2025-07-12T13:33:09Z</time>
			</trkpt>
			<trkpt lat="42.760700" lon="24.974192">
				<ele>1814.000000</ele>
				<time>2025-07-12T13:33:14Z</time>
			</trkpt>
			<trkpt lat="42.760699" lon="24.974192">
				<ele>1814.000000</ele>
				<time>2025-07-12T13:33:15Z</time>
			</trkpt>
			<trkpt lat="42.760696" lon="24.974167">
				<ele>1814.000000</ele>
				<time>2025-07-12T13:33:20Z</time>
			</trkpt>
			<trkpt lat="42.760696" lon="24.974155">
				<ele>1813.000000</ele>
				<time>2025-07-12T13:33:23Z</time>
			</trkpt>
			<trkpt lat="42.760702" lon="24.974174">
				<ele>1813.000000</ele>
				<time>2025-07-12T13:33:30Z</time>
			</trkpt>
			<trkpt lat="42.760699" lon="24.974172">
				<ele>1813.000000</ele>
				<time>2025-07-12T13:33:32Z</time>
			</trkpt>
			<trkpt lat="42.760699" lon="24.974142">
				<ele>1813.000000</ele>
				<time>2025-07-12T13:33:38Z</time>
			</trkpt>
			<trkpt lat="42.760700" lon="24.974138">
				<ele>1812.000000</ele>
				<time>2025-07-12T13:33:44Z</time>
			</trkpt>
			<trkpt lat="42.760700" lon="24.974122">
				<ele>1812.000000</ele>
				<time>2025-07-12T13:33:47Z</time>
			</trkpt>
			<trkpt lat="42.760696" lon="24.974091">
				<ele>1811.000000</ele>
				<time>2025-07-12T13:33:51Z</time>
			</trkpt>
			<trkpt lat="42.760700" lon="24.974092">
				<ele>1811.000000</ele>
				<time>2025-07-12T13:33:55Z</time>
			</trkpt>
			<trkpt lat="42.760703" lon="24.974088">
				<ele>1811.000000</ele>
				<time>2025-07-12T13:33:57Z</time>
			</trkpt>
			<trkpt lat="42.760708" lon="24.974084">
				<ele>1810.000000</ele>
				<time>2025-07-12T13:33:59Z</time>
			</trkpt>
			<trkpt lat="42.760713" lon="24.974078">
				<ele>1810.000000</ele>
				<time>2025-07-12T13:34:06Z</time>
			</trkpt>
			<trkpt lat="42.760716" lon="24.974074">
				<ele>1810.000000</ele>
				<time>2025-07-12T13:34:07Z</time>
			</trkpt>
			<trkpt lat="42.760729" lon="24.973994">
				<ele>1809.000000</ele>
				<time>2025-07-12T13:34:16Z</time>
			</trkpt>
			<trkpt lat="42.760730" lon="24.973977">
				<ele>1809.000000</ele>
				<time>2025-07-12T13:34:22Z</time>
			</trkpt>
			<trkpt lat="42.760726" lon="24.973911">
				<ele>1808.000000</ele>
				<time>2025-07-12T13:34:31Z</time>
			</trkpt>
			<trkpt lat="42.760701" lon="24.973859">
				<ele>1808.000000</ele>
				<time>2025-07-12T13:34:39Z</time>
			</trkpt>
			<trkpt lat="42.760698" lon="24.973860">
				<ele>1808.000000</ele>
				<time>2025-07-12T13:34:40Z</time>
			</trkpt>
			<trkpt lat="42.760693" lon="24.973855">
				<ele>1807.000000</ele>
				<time>2025-07-12T13:34:43Z</time>
			</trkpt>
			<trkpt lat="42.760693" lon="24.973854">
				<ele>1807.000000</ele>
				<time>2025-07-12T13:34:44Z</time>
			</trkpt>
			<trkpt lat="42.760707" lon="24.973831">
				<ele>1807.000000</ele>
				<time>2025-07-12T13:34:50Z</time>
			</trkpt>
			<trkpt lat="42.760708" lon="24.973830">
				<ele>1806.000000</ele>
				<time>2025-07-12T13:34:51Z</time>
			</trkpt>
			<trkpt lat="42.760724" lon="24.973828">
				<ele>1806.000000</ele>
				<time>2025-07-12T13:34:57Z</time>
			</trkpt>
			<trkpt lat="42.760725" lon="24.973826">
				<ele>1805.000000</ele>
				<time>2025-07-12T13:34:58Z</time>
			</trkpt>
			<trkpt lat="42.760722" lon="24.973820">
				<ele>1805.000000</ele>
				<time>2025-07-12T13:35:03Z</time>
			</trkpt>
			<trkpt lat="42.760724" lon="24.973826">
				<ele>1804.000000</ele>
				<time>2025-07-12T13:35:05Z</time>
			</trkpt>
			<trkpt lat="42.760734" lon="24.973801">
				<ele>1804.000000</ele>
				<time>2025-07-12T13:35:08Z</time>
			</trkpt>
			<trkpt lat="42.760722" lon="24.973809">
				<ele>1803.000000</ele>
				<time>2025-07-12T13:35:15Z</time>
			</trkpt>
			<trkpt lat="42.760724" lon="24.973803">
				<ele>1803.000000</ele>
				<time>2025-07-12T13:35:17Z</time>
			</trkpt>
			<trkpt lat="42.760723" lon="24.973801">
				<ele>1803.000000</ele>
				<time>2025-07-12T13:35:18Z</time>
			</trkpt>
			<trkpt lat="42.760716" lon="24.973773">
				<ele>1802.000000</ele>
				<time>2025-07-12T13:35:26Z</time>
			</trkpt>
			<trkpt lat="42.760716" lon="24.973775">
				<ele>1802.000000</ele>
				<time>2025-07-12T13:35:27Z</time>
			</trkpt>
			<trkpt lat="42.760717" lon="24.973746">
				<ele>1801.000000</ele>
				<time>2025-07-12T13:35:32Z</time>
			</trkpt>
			<trkpt lat="42.760730" lon="24.973728">
				<ele>1800.000000</ele>
				<time>2025-07-12T13:35:37Z</time>
			</trkpt>
			<trkpt lat="42.760732" lon="24.973724">
				<ele>1800.000000</ele>
				<time>2025-07-12T13:35:38Z</time>
			</trkpt>
			<trkpt lat="42.760738" lon="24.973712">
				<ele>1799.000000</ele>
				<time>2025-07-12T13:35:45Z</time>
			</trkpt>
			<trkpt lat="42.760750" lon="24.973694">
				<ele>1799.000000</ele>
				<time>2025-07-12T13:35:49Z</time>
			</trkpt>
			<trkpt lat="42.760753" lon="24.973687">
				<ele>1799.000000</ele>
				<time>2025-07-12T13:35:52Z</time>
			</trkpt>
			<trkpt lat="42.760756" lon="24.973669">
				<ele>1798.000000</ele>
				<time>2025-07-12T13:36:00Z</time>
			</trkpt>
			<trkpt lat="42.760755" lon="24.973665">
				<ele>1798.000000</ele>
				<time>2025-07-12T13:36:03Z</time>
			</trkpt>
			<trkpt lat="42.760757" lon="24.973663">
				<ele>1798.000000</ele>
				<time>2025-07-12T13:36:07Z</time>
			</trkpt>
			<trkpt lat="42.760759" lon="24.973623">
				<ele>1797.000000</ele>
				<time>2025-07-12T13:36:15Z</time>
			</trkpt>
			<trkpt lat="42.760757" lon="24.973589">
				<ele>1797.000000</ele>
				<time>2025-07-12T13:36:20Z</time>
			</trkpt>
			<trkpt lat="42.760759" lon="24.973591">
				<ele>1797.000000</ele>
				<time>2025-07-12T13:36:22Z</time>
			</trkpt>
			<trkpt lat="42.760759" lon="24.973587">
				<ele>1796.000000</ele>
				<time>2025-07-12T13:36:25Z</time>
			</trkpt>
			<trkpt lat="42.760759" lon="24.973584">
				<ele>1796.000000</ele>
				<time>2025-07-12T13:36:26Z</time>
			</trkpt>
			<trkpt lat="42.760758" lon="24.973577">
				<ele>1796.000000</ele>
				<time>2025-07-12T13:36:29Z</time>
			</trkpt>
			<trkpt lat="42.760755" lon="24.973541">
				<ele>1796.000000</ele>
				<time>2025-07-12T13:36:36Z</time>
			</trkpt>
			<trkpt lat="42.760755" lon="24.973526">
				<ele>1795.000000</ele>
				<time>2025-07-12T13:36:41Z</time>
			</trkpt>
			<trkpt lat="42.760759" lon="24.973518">
				<ele>1795.000000</ele>
				<time>2025-07-12T13:36:43Z</time>
			</trkpt>
			<trkpt lat="42.760761" lon="24.973521">
				<ele>1795.000000</ele>
				<time>2025-07-12T13:36:44Z</time>
			</trkpt>
			<trkpt lat="42.760765" lon="24.973514">
				<ele>1794.000000</ele>
				<time>2025-07-12T13:36:48Z</time>
			</trkpt>
			<trkpt lat="42.760765" lon="24.973510">
				<ele>1794.000000</ele>
				<time>2025-07-12T13:36:49Z</time>
			</trkpt>
			<trkpt lat="42.760759" lon="24.973485">
				<ele>1793.000000</ele>
				<time>2025-07-12T13:36:53Z</time>
			</trkpt>
			<trkpt lat="42.760762" lon="24.973445">
				<ele>1793.000000</ele>
				<time>2025-07-12T13:37:01Z</time>
			</trkpt>
			<trkpt lat="42.760769" lon="24.973418">
				<ele>1793.000000</ele>
				<time>2025-07-12T13:37:05Z</time>
			</trkpt>
			<trkpt lat="42.760772" lon="24.973396">
				<ele>1793.000000</ele>
				<time>2025-07-12T13:37:08Z</time>
			</trkpt>
			<trkpt lat="42.760780" lon="24.973361">
				<ele>1792.000000</ele>
				<time>2025-07-12T13:37:14Z</time>
			</trkpt>
			<trkpt lat="42.760775" lon="24.973340">
				<ele>1791.000000</ele>
				<time>2025-07-12T13:37:16Z</time>
			</trkpt>
			<trkpt lat="42.760766" lon="24.973327">
				<ele>1791.000000</ele>
				<time>2025-07-12T13:37:20Z</time>
			</trkpt>
			<trkpt lat="42.760764" lon="24.973319">
				<ele>1791.000000</ele>
				<time>2025-07-12T13:37:23Z</time>
			</trkpt>
			<trkpt lat="42.760764" lon="24.973305">
				<ele>1791.000000</ele>
				<time>2025-07-12T13:37:25Z</time>
			</trkpt>
			<trkpt lat="42.760751" lon="24.973270">
				<ele>1790.000000</ele>
				<time>2025-07-12T13:37:31Z</time>
			</trkpt>
			<trkpt lat="42.760752" lon="24.973264">
				<ele>1790.000000</ele>
				<time>2025-07-12T13:37:34Z</time>
			</trkpt>
			<trkpt lat="42.760758" lon="24.973217">
				<ele>1788.000000</ele>
				<time>2025-07-12T13:37:39Z</time>
			</trkpt>
			<trkpt lat="42.760766" lon="24.973211">
				<ele>1787.000000</ele>
				<time>2025-07-12T13:37:45Z</time>
			</trkpt>
			<trkpt lat="42.760770" lon="24.973199">
				<ele>1787.000000</ele>
				<time>2025-07-12T13:37:47Z</time>
			</trkpt>
			<trkpt lat="42.760771" lon="24.973180">
				<ele>1786.000000</ele>
				<time>2025-07-12T13:37:52Z</time>
			</trkpt>
			<trkpt lat="42.760770" lon="24.973174">
				<ele>1786.000000</ele>
				<time>2025-07-12T13:37:55Z</time>
			</trkpt>
			<trkpt lat="42.760769" lon="24.973156">
				<ele>1785.000000</ele>
				<time>2025-07-12T13:38:03Z</time>
			</trkpt>
			<trkpt lat="42.760773" lon="24.973105">
				<ele>1784.000000</ele>
				<time>2025-07-12T13:38:12Z</time>
			</trkpt>
			<trkpt lat="42.760775" lon="24.973095">
				<ele>1784.000000</ele>
				<time>2025-07-12T13:38:14Z</time>
			</trkpt>
			<trkpt lat="42.760777" lon="24.973049">
				<ele>1783.000000</ele>
				<time>2025-07-12T13:38:20Z</time>
			</trkpt>
			<trkpt lat="42.760784" lon="24.973034">
				<ele>1783.000000</ele>
				<time>2025-07-12T13:38:22Z</time>
			</trkpt>
			<trkpt lat="42.760804" lon="24.972979">
				<ele>1782.000000</ele>
				<time>2025-07-12T13:38:29Z</time>
			</trkpt>
			<trkpt lat="42.760802" lon="24.972979">
				<ele>1782.000000</ele>
				<time>2025-07-12T13:38:31Z</time>
			</trkpt>
			<trkpt lat="42.760801" lon="24.972961">
				<ele>1782.000000</ele>
				<time>2025-07-12T13:38:36Z</time>
			</trkpt>
			<trkpt lat="42.760793" lon="24.972927">
				<ele>1782.000000</ele>
				<time>2025-07-12T13:38:41Z</time>
			</trkpt>
			<trkpt lat="42.760791" lon="24.972885">
				<ele>1781.000000</ele>
				<time>2025-07-12T13:38:46Z</time>
			</trkpt>
			<trkpt lat="42.760790" lon="24.972871">
				<ele>1781.000000</ele>
				<time>2025-07-12T13:38:48Z</time>
			</trkpt>
			<trkpt lat="42.760809" lon="24.972847">
				<ele>1780.000000</ele>
				<time>2025-07-12T13:38:53Z</time>
			</trkpt>
			<trkpt lat="42.760810" lon="24.972836">
				<ele>1779.000000</ele>
				<time>2025-07-12T13:38:56Z</time>
			</trkpt>
			<trkpt lat="42.760812" lon="24.972822">
				<ele>1779.000000</ele>
				<time>2025-07-12T13:38:59Z</time>
			</trkpt>
			<trkpt lat="42.760820" lon="24.972804">
				<ele>1778.000000</ele>
				<time>2025-07-12T13:39:05Z</time>
			</trkpt>
			<trkpt lat="42.760826" lon="24.972792">
				<ele>1778.000000</ele>
				<time>2025-07-12T13:39:09Z</time>
			</trkpt>
			<trkpt lat="42.760833" lon="24.972779">
				<ele>1777.000000</ele>
				<time>2025-07-12T13:39:13Z</time>
			</trkpt>
			<trkpt lat="42.760829" lon="24.972787">
				<ele>1776.000000</ele>
				<time>2025-07-12T13:39:14Z</time>
			</trkpt>
			<trkpt lat="42.760831" lon="24.972771">
				<ele>1776.000000</ele>
				<time>2025-07-12T13:39:20Z</time>
			</trkpt>
			<trkpt lat="42.760831" lon="24.972763">
				<ele>1776.000000</ele>
				<time>2025-07-12T13:39:22Z</time>
			</trkpt>
			<trkpt lat="42.760839" lon="24.972727">
				<ele>1775.000000</ele>
				<time>2025-07-12T13:39:27Z</time>
			</trkpt>
			<trkpt lat="42.760841" lon="24.972734">
				<ele>1774.000000</ele>
				<time>2025-07-12T13:39:36Z</time>
			</trkpt>
			<trkpt lat="42.760843" lon="24.972731">
				<ele>1774.000000</ele>
				<time>2025-07-12T13:39:37Z</time>
			</trkpt>
			<trkpt lat="42.760866" lon="24.972737">
				<ele>1774.000000</ele>
				<time>2025-07-12T13:39:43Z</time>
			</trkpt>
			<trkpt lat="42.760871" lon="24.972728">
				<ele>1773.000000</ele>
				<time>2025-07-12T13:39:45Z</time>
			</trkpt>
			<trkpt lat="42.760889" lon="24.972703">
				<ele>1772.000000</ele>
				<time>2025-07-12T13:39:51Z</time>
			</trkpt>
			<trkpt lat="42.760893" lon="24.972698">
				<ele>1772.000000</ele>
				<time>2025-07-12T13:39:52Z</time>
			</trkpt>
			<trkpt lat="42.760907" lon="24.972661">
				<ele>1771.000000</ele>
				<time>2025-07-12T13:39:57Z</time>
			</trkpt>
			<trkpt lat="42.760908" lon="24.972656">
				<ele>1771.000000</ele>
				<time>2025-07-12T13:40:00Z</time>
			</trkpt>
			<trkpt lat="42.760916" lon="24.972624">
				<ele>1771.000000</ele>
				<time>2025-07-12T13:40:05Z</time>
			</trkpt>
			<trkpt lat="42.760921" lon="24.972616">
				<ele>1771.000000</ele>
				<time>2025-07-12T13:40:07Z</time>
			</trkpt>
			<trkpt lat="42.760933" lon="24.972589">
				<ele>1771.000000</ele>
				<time>2025-07-12T13:40:11Z</time>
			</trkpt>
			<trkpt lat="42.760946" lon="24.972561">
				<ele>1771.000000</ele>
				<time>2025-07-12T13:40:13Z</time>
			</trkpt>
			<trkpt lat="42.760961" lon="24.972513">
				<ele>1770.000000</ele>
				<time>2025-07-12T13:40:19Z</time>
			</trkpt>
			<trkpt lat="42.760965" lon="24.972491">
				<ele>1770.000000</ele>
				<time>2025-07-12T13:40:21Z</time>
			</trkpt>
			<trkpt lat="42.760967" lon="24.972462">
				<ele>1769.000000</ele>
				<time>2025-07-12T13:40:26Z</time>
			</trkpt>
			<trkpt lat="42.760970" lon="24.972459">
				<ele>1769.000000</ele>
				<time>2025-07-12T13:40:27Z</time>
			</trkpt>
			<trkpt lat="42.760983" lon="24.972446">
				<ele>1769.000000</ele>
				<time>2025-07-12T13:40:33Z</time>
			</trkpt>
			<trkpt lat="42.760985" lon="24.972437">
				<ele>1769.000000</ele>
				<time>2025-07-12T13:40:34Z</time>
			</trkpt>
			<trkpt lat="42.760987" lon="24.972431">
				<ele>1769.000000</ele>
				<time>2025-07-12T13:40:35Z</time>
			</trkpt>
			<trkpt lat="42.761000" lon="24.972416">
				<ele>1768.000000</ele>
				<time>2025-07-12T13:40:40Z</time>
			</trkpt>
			<trkpt lat="42.760999" lon="24.972420">
				<ele>1768.000000</ele>
				<time>2025-07-12T13:40:41Z</time>
			</trkpt>
			<trkpt lat="42.761015" lon="24.972420">
				<ele>1768.000000</ele>
				<time>2025-07-12T13:40:48Z</time>
			</trkpt>
			<trkpt lat="42.761015" lon="24.972399">
				<ele>1767.000000</ele>
				<time>2025-07-12T13:40:51Z</time>
			</trkpt>
			<trkpt lat="42.761022" lon="24.972382">
				<ele>1766.000000</ele>
				<time>2025-07-12T13:40:54Z</time>
			</trkpt>
			<trkpt lat="42.761019" lon="24.972376">
				<ele>1766.000000</ele>
				<time>2025-07-12T13:40:57Z</time>
			</trkpt>
			<trkpt lat="42.761032" lon="24.972352">
				<ele>1765.000000</ele>
				<time>2025-07-12T13:41:01Z</time>
			</trkpt>
			<trkpt lat="42.761034" lon="24.972350">
				<ele>1765.000000</ele>
				<time>2025-07-12T13:41:04Z</time>
			</trkpt>
			<trkpt lat="42.761037" lon="24.972338">
				<ele>1764.000000</ele>
				<time>2025-07-12T13:41:06Z</time>
			</trkpt>
			<trkpt lat="42.761048" lon="24.972330">
				<ele>1764.000000</ele>
				<time>2025-07-12T13:41:10Z</time>
			</trkpt>
			<trkpt lat="42.761058" lon="24.972321">
				<ele>1763.000000</ele>
				<time>2025-07-12T13:41:13Z</time>
			</trkpt>
			<trkpt lat="42.761066" lon="24.972315">
				<ele>1762.000000</ele>
				<time>2025-07-12T13:41:16Z</time>
			</trkpt>
			<trkpt lat="42.761071" lon="24.972290">
				<ele>1761.000000</ele>
				<time>2025-07-12T13:41:22Z</time>
			</trkpt>
			<trkpt lat="42.761091" lon="24.972267">
				<ele>1760.000000</ele>
				<time>2025-07-12T13:41:28Z</time>
			</trkpt>
			<trkpt lat="42.761110" lon="24.972268">
				<ele>1759.000000</ele>
				<time>2025-07-12T13:41:33Z</time>
			</trkpt>
			<trkpt lat="42.761118" lon="24.972255">
				<ele>1759.000000</ele>
				<time>2025-07-12T13:41:36Z</time>
			</trkpt>
			<trkpt lat="42.761138" lon="24.972243">
				<ele>1758.000000</ele>
				<time>2025-07-12T13:41:40Z</time>
			</trkpt>
			<trkpt lat="42.761155" lon="24.972240">
				<ele>1758.000000</ele>
				<time>2025-07-12T13:41:43Z</time>
			</trkpt>
			<trkpt lat="42.761157" lon="24.972239">
				<ele>1757.000000</ele>
				<time>2025-07-12T13:41:45Z</time>
			</trkpt>
			<trkpt lat="42.761177" lon="24.972214">
				<ele>1756.000000</ele>
				<time>2025-07-12T13:41:51Z</time>
			</trkpt>
			<trkpt lat="42.761183" lon="24.972205">
				<ele>1756.000000</ele>
				<time>2025-07-12T13:41:52Z</time>
			</trkpt>
			<trkpt lat="42.761192" lon="24.972175">
				<ele>1755.000000</ele>
				<time>2025-07-12T13:41:58Z</time>
			</trkpt>
			<trkpt lat="42.761193" lon="24.972163">
				<ele>1755.000000</ele>
				<time>2025-07-12T13:42:00Z</time>
			</trkpt>
			<trkpt lat="42.761198" lon="24.972137">
				<ele>1755.000000</ele>
				<time>2025-07-12T13:42:03Z</time>
			</trkpt>
			<trkpt lat="42.761204" lon="24.972112">
				<ele>1754.000000</ele>
				<time>2025-07-12T13:42:06Z</time>
			</trkpt>
			<trkpt lat="42.761204" lon="24.972081">
				<ele>1754.000000</ele>
				<time>2025-07-12T13:42:10Z</time>
			</trkpt>
			<trkpt lat="42.761195" lon="24.972066">
				<ele>1753.000000</ele>
				<time>2025-07-12T13:42:13Z</time>
			</trkpt>
			<trkpt lat="42.761184" lon="24.972050">
				<ele>1752.000000</ele>
				<time>2025-07-12T13:42:18Z</time>
			</trkpt>
			<trkpt lat="42.761185" lon="24.972018">
				<ele>1751.000000</ele>
				<time>2025-07-12T13:42:24Z</time>
			</trkpt>
			<trkpt lat="42.761182" lon="24.972012">
				<ele>1751.000000</ele>
				<time>2025-07-12T13:42:25Z</time>
			</trkpt>
			<trkpt lat="42.761190" lon="24.971991">
				<ele>1750.000000</ele>
				<time>2025-07-12T13:42:31Z</time>
			</trkpt>
			<trkpt lat="42.761198" lon="24.971977">
				<ele>1748.000000</ele>
				<time>2025-07-12T13:42:38Z</time>
			</trkpt>
			<trkpt lat="42.761201" lon="24.971973">
				<ele>1748.000000</ele>
				<time>2025-07-12T13:42:39Z</time>
			</trkpt>
			<trkpt lat="42.761206" lon="24.971947">
				<ele>1747.000000</ele>
				<time>2025-07-12T13:42:44Z</time>
			</trkpt>
			<trkpt lat="42.761205" lon="24.971947">
				<ele>1747.000000</ele>
				<time>2025-07-12T13:42:45Z</time>
			</trkpt>
			<trkpt lat="42.761209" lon="24.971956">
				<ele>1747.000000</ele>
				<time>2025-07-12T13:42:55Z</time>
			</trkpt>
			<trkpt lat="42.761211" lon="24.971955">
				<ele>1747.000000</ele>
				<time>2025-07-12T13:43:06Z</time>
			</trkpt>
			<trkpt lat="42.761212" lon="24.971948">
				<ele>1747.000000</ele>
				<time>2025-07-12T13:43:13Z</time>
			</trkpt>
			<trkpt lat="42.761209" lon="24.971947">
				<ele>1746.000000</ele>
				<time>2025-07-12T13:43:15Z</time>
			</trkpt>
			<trkpt lat="42.761202" lon="24.971947">
				<ele>1746.000000</ele>
				<time>2025-07-12T13:43:21Z</time>
			</trkpt>
			<trkpt lat="42.761212" lon="24.971912">
				<ele>1745.000000</ele>
				<time>2025-07-12T13:43:28Z</time>
			</trkpt>
			<trkpt lat="42.761217" lon="24.971906">
				<ele>1745.000000</ele>
				<time>2025-07-12T13:43:30Z</time>
			</trkpt>
			<trkpt lat="42.761219" lon="24.971909">
				<ele>1745.000000</ele>
				<time>2025-07-12T13:43:32Z</time>
			</trkpt>
			<trkpt lat="42.761216" lon="24.971914">
				<ele>1744.000000</ele>
				<time>2025-07-12T13:43:34Z</time>
			</trkpt>
			<trkpt lat="42.761219" lon="24.971910">
				<ele>1744.000000</ele>
				<time>2025-07-12T13:43:35Z</time>
			</trkpt>
			<trkpt lat="42.761212" lon="24.971896">
				<ele>1744.000000</ele>
				<time>2025-07-12T13:43:41Z</time>
			</trkpt>
			<trkpt lat="42.761213" lon="24.971886">
				<ele>1743.000000</ele>
				<time>2025-07-12T13:43:44Z</time>
			</trkpt>
			<trkpt lat="42.761213" lon="24.971881">
				<ele>1743.000000</ele>
				<time>2025-07-12T13:43:46Z</time>
			</trkpt>
			<trkpt lat="42.761214" lon="24.971876">
				<ele>1743.000000</ele>
				<time>2025-07-12T13:43:48Z</time>
			</trkpt>
			<trkpt lat="42.761216" lon="24.971876">
				<ele>1743.000000</ele>
				<time>2025-07-12T13:43:49Z</time>
			</trkpt>
			<trkpt lat="42.761217" lon="24.971878">
				<ele>1742.000000</ele>
				<time>2025-07-12T13:43:50Z</time>
			</trkpt>
			<trkpt lat="42.761215" lon="24.971881">
				<ele>1742.000000</ele>
				<time>2025-07-12T13:43:55Z</time>
			</trkpt>
			<trkpt lat="42.761220" lon="24.971868">
				<ele>1742.000000</ele>
				<time>2025-07-12T13:43:58Z</time>
			</trkpt>
			<trkpt lat="42.761233" lon="24.971843">
				<ele>1741.000000</ele>
				<time>2025-07-12T13:44:03Z</time>
			</trkpt>
			<trkpt lat="42.761241" lon="24.971833">
				<ele>1740.000000</ele>
				<time>2025-07-12T13:44:06Z</time>
			</trkpt>
			<trkpt lat="42.761246" lon="24.971821">
				<ele>1740.000000</ele>
				<time>2025-07-12T13:44:08Z</time>
			</trkpt>
			<trkpt lat="42.761258" lon="24.971800">
				<ele>1739.000000</ele>
				<time>2025-07-12T13:44:14Z</time>
			</trkpt>
			<trkpt lat="42.761263" lon="24.971799">
				<ele>1739.000000</ele>
				<time>2025-07-12T13:44:15Z</time>
			</trkpt>
			<trkpt lat="42.761268" lon="24.971791">
				<ele>1738.000000</ele>
				<time>2025-07-12T13:44:21Z</time>
			</trkpt>
			<trkpt lat="42.761273" lon="24.971772">
				<ele>1738.000000</ele>
				<time>2025-07-12T13:44:25Z</time>
			</trkpt>
			<trkpt lat="42.761278" lon="24.971756">
				<ele>1737.000000</ele>
				<time>2025-07-12T13:44:28Z</time>
			</trkpt>
			<trkpt lat="42.761286" lon="24.971745">
				<ele>1737.000000</ele>
				<time>2025-07-12T13:44:30Z</time>
			</trkpt>
			<trkpt lat="42.761316" lon="24.971733">
				<ele>1736.000000</ele>
				<time>2025-07-12T13:44:36Z</time>
			</trkpt>
			<trkpt lat="42.761331" lon="24.971725">
				<ele>1736.000000</ele>
				<time>2025-07-12T13:44:41Z</time>
			</trkpt>
			<trkpt lat="42.761346" lon="24.971717">
				<ele>1735.000000</ele>
				<time>2025-07-12T13:44:44Z</time>
			</trkpt>
			<trkpt lat="42.761355" lon="24.971709">
				<ele>1735.000000</ele>
				<time>2025-07-12T13:44:46Z</time>
			</trkpt>
			<trkpt lat="42.761360" lon="24.971707">
				<ele>1735.000000</ele>
				<time>2025-07-12T13:44:47Z</time>
			</trkpt>
			<trkpt lat="42.761371" lon="24.971694">
				<ele>1734.000000</ele>
				<time>2025-07-12T13:44:51Z</time>
			</trkpt>
			<trkpt lat="42.761382" lon="24.971682">
				<ele>1734.000000</ele>
				<time>2025-07-12T13:44:54Z</time>
			</trkpt>
			<trkpt lat="42.761383" lon="24.971686">
				<ele>1733.000000</ele>
				<time>2025-07-12T13:44:58Z</time>
			</trkpt>
			<trkpt lat="42.761383" lon="24.971690">
				<ele>1733.000000</ele>
				<time>2025-07-12T13:45:01Z</time>
			</trkpt>
			<trkpt lat="42.761386" lon="24.971693">
				<ele>1733.000000</ele>
				<time>2025-07-12T13:45:12Z</time>
			</trkpt>
			<trkpt lat="42.761387" lon="24.971685">
				<ele>1732.000000</ele>
				<time>2025-07-12T13:45:16Z</time>
			</trkpt>
			<trkpt lat="42.761390" lon="24.971674">
				<ele>1732.000000</ele>
				<time>2025-07-12T13:45:19Z</time>
			</trkpt>
			<trkpt lat="42.761402" lon="24.971646">
				<ele>1731.000000</ele>
				<time>2025-07-12T13:45:27Z</time>
			</trkpt>
			<trkpt lat="42.761399" lon="24.971633">
				<ele>1731.000000</ele>
				<time>2025-07-12T13:45:35Z</time>
			</trkpt>
			<trkpt lat="42.761412" lon="24.971640">
				<ele>1730.000000</ele>
				<time>2025-07-12T13:45:42Z</time>
			</trkpt>
			<trkpt lat="42.761419" lon="24.971627">
				<ele>1730.000000</ele>
				<time>2025-07-12T13:45:45Z</time>
			</trkpt>
			<trkpt lat="42.761429" lon="24.971629">
				<ele>1730.000000</ele>
				<time>2025-07-12T13:45:47Z</time>
			</trkpt>
			<trkpt lat="42.761432" lon="24.971629">
				<ele>1730.000000</ele>
				<time>2025-07-12T13:45:48Z</time>
			</trkpt>
			<trkpt lat="42.761435" lon="24.971623">
				<ele>1730.000000</ele>
				<time>2025-07-12T13:45:51Z</time>
			</trkpt>
			<trkpt lat="42.761436" lon="24.971623">
				<ele>1730.000000</ele>
				<time>2025-07-12T13:45:59Z</time>
			</trkpt>
			<trkpt lat="42.761437" lon="24.971630">
				<ele>1729.000000</ele>
				<time>2025-07-12T13:46:10Z</time>
			</trkpt>
			<trkpt lat="42.761435" lon="24.971631">
				<ele>1729.000000</ele>
				<time>2025-07-12T13:46:12Z</time>
			</trkpt>
			<trkpt lat="42.761436" lon="24.971623">
				<ele>1729.000000</ele>
				<time>2025-07-12T13:46:18Z</time>
			</trkpt>
			<trkpt lat="42.761436" lon="24.971623">
				<ele>1729.000000</ele>
				<time>2025-07-12T13:46:21Z</time>
			</trkpt>
			<trkpt lat="42.761436" lon="24.971615">
				<ele>1729.000000</ele>
				<time>2025-07-12T13:46:27Z</time>
			</trkpt>
			<trkpt lat="42.761431" lon="24.971593">
				<ele>1728.000000</ele>
				<time>2025-07-12T13:46:32Z</time>
			</trkpt>
			<trkpt lat="42.761428" lon="24.971597">
				<ele>1728.000000</ele>
				<time>2025-07-12T13:46:34Z</time>
			</trkpt>
			<trkpt lat="42.761447" lon="24.971589">
				<ele>1727.000000</ele>
				<time>2025-07-12T13:46:41Z</time>
			</trkpt>
			<trkpt lat="42.761452" lon="24.971586">
				<ele>1727.000000</ele>
				<time>2025-07-12T13:46:42Z</time>
			</trkpt>
			<trkpt lat="42.761462" lon="24.971583">
				<ele>1727.000000</ele>
				<time>2025-07-12T13:46:47Z</time>
			</trkpt>
			<trkpt lat="42.761467" lon="24.971578">
				<ele>1726.000000</ele>
				<time>2025-07-12T13:46:53Z</time>
			</trkpt>
			<trkpt lat="42.761469" lon="24.971572">
				<ele>1726.000000</ele>
				<time>2025-07-12T13:46:54Z</time>
			</trkpt>
			<trkpt lat="42.761474" lon="24.971560">
				<ele>1725.000000</ele>
				<time>2025-07-12T13:47:01Z</time>
			</trkpt>
			<trkpt lat="42.761472" lon="24.971560">
				<ele>1725.000000</ele>
				<time>2025-07-12T13:47:06Z</time>
			</trkpt>
			<trkpt lat="42.761468" lon="24.971556">
				<ele>1725.000000</ele>
				<time>2025-07-12T13:47:09Z</time>
			</trkpt>
			<trkpt lat="42.761482" lon="24.971552">
				<ele>1724.000000</ele>
				<time>2025-07-12T13:47:16Z</time>
			</trkpt>
			<trkpt lat="42.761488" lon="24.971560">
				<ele>1725.000000</ele>
				<time>2025-07-12T13:47:24Z</time>
			</trkpt>
			<trkpt lat="42.761488" lon="24.971560">
				<ele>1725.000000</ele>
				<time>2025-07-12T13:47:25Z</time>
			</trkpt>
			<trkpt lat="42.761488" lon="24.971560">
				<ele>1724.000000</ele>
				<time>2025-07-12T13:47:28Z</time>
			</trkpt>
			<trkpt lat="42.761488" lon="24.971560">
				<ele>1724.000000</ele>
				<time>2025-07-12T13:47:32Z</time>
			</trkpt>
			<trkpt lat="42.761496" lon="24.971558">
				<ele>1723.000000</ele>
				<time>2025-07-12T13:47:35Z</time>
			</trkpt>
			<trkpt lat="42.761504" lon="24.971544">
				<ele>1723.000000</ele>
				<time>2025-07-12T13:47:40Z</time>
			</trkpt>
			<trkpt lat="42.761515" lon="24.971539">
				<ele>1723.000000</ele>
				<time>2025-07-12T13:47:43Z</time>
			</trkpt>
			<trkpt lat="42.761525" lon="24.971538">
				<ele>1722.000000</ele>
				<time>2025-07-12T13:47:50Z</time>
			</trkpt>
			<trkpt lat="42.761528" lon="24.971538">
				<ele>1722.000000</ele>
				<time>2025-07-12T13:47:51Z</time>
			</trkpt>
			<trkpt lat="42.761537" lon="24.971542">
				<ele>1721.000000</ele>
				<time>2025-07-12T13:47:55Z</time>
			</trkpt>
			<trkpt lat="42.761542" lon="24.971534">
				<ele>1720.000000</ele>
				<time>2025-07-12T13:47:57Z</time>
			</trkpt>
			<trkpt lat="42.761547" lon="24.971530">
				<ele>1720.000000</ele>
				<time>2025-07-12T13:47:59Z</time>
			</trkpt>
			<trkpt lat="42.761559" lon="24.971530">
				<ele>1719.000000</ele>
				<time>2025-07-12T13:48:04Z</time>
			</trkpt>
			<trkpt lat="42.761569" lon="24.971534">
				<ele>1719.000000</ele>
				<time>2025-07-12T13:48:07Z</time>
			</trkpt>
			<trkpt lat="42.761579" lon="24.971540">
				<ele>1718.000000</ele>
				<time>2025-07-12T13:48:10Z</time>
			</trkpt>
			<trkpt lat="42.761583" lon="24.971538">
				<ele>1718.000000</ele>
				<time>2025-07-12T13:48:13Z</time>
			</trkpt>
			<trkpt lat="42.761590" lon="24.971535">
				<ele>1717.000000</ele>
				<time>2025-07-12T13:48:21Z</time>
			</trkpt>
			<trkpt lat="42.761585" lon="24.971530">
				<ele>1717.000000</ele>
				<time>2025-07-12T13:48:31Z</time>
			</trkpt>
			<trkpt lat="42.761594" lon="24.971526">
				<ele>1717.000000</ele>
				<time>2025-07-12T13:48:39Z</time>
			</trkpt>
			<trkpt lat="42.761591" lon="24.971508">
				<ele>1716.000000</ele>
				<time>2025-07-12T13:48:46Z</time>
			</trkpt>
			<trkpt lat="42.761595" lon="24.971501">
				<ele>1716.000000</ele>
				<time>2025-07-12T13:48:48Z</time>
			</trkpt>
			<trkpt lat="42.761597" lon="24.971493">
				<ele>1715.000000</ele>
				<time>2025-07-12T13:48:53Z</time>
			</trkpt>
			<trkpt lat="42.761599" lon="24.971483">
				<ele>1715.000000</ele>
				<time>2025-07-12T13:48:57Z</time>
			</trkpt>
			<trkpt lat="42.761597" lon="24.971462">
				<ele>1714.000000</ele>
				<time>2025-07-12T13:49:03Z</time>
			</trkpt>
			<trkpt lat="42.761596" lon="24.971461">
				<ele>1714.000000</ele>
				<time>2025-07-12T13:49:04Z</time>
			</trkpt>
			<trkpt lat="42.761611" lon="24.971438">
				<ele>1713.000000</ele>
				<time>2025-07-12T13:49:12Z</time>
			</trkpt>
			<trkpt lat="42.761611" lon="24.971437">
				<ele>1713.000000</ele>
				<time>2025-07-12T13:49:13Z</time>
			</trkpt>
			<trkpt lat="42.761625" lon="24.971449">
				<ele>1712.000000</ele>
				<time>2025-07-12T13:49:20Z</time>
			</trkpt>
			<trkpt lat="42.761640" lon="24.971462">
				<ele>1712.000000</ele>
				<time>2025-07-12T13:49:26Z</time>
			</trkpt>
			<trkpt lat="42.761640" lon="24.971462">
				<ele>1712.000000</ele>
				<time>2025-07-12T13:49:27Z</time>
			</trkpt>
			<trkpt lat="42.761660" lon="24.971452">
				<ele>1711.000000</ele>
				<time>2025-07-12T13:49:35Z</time>
			</trkpt>
			<trkpt lat="42.761662" lon="24.971450">
				<ele>1711.000000</ele>
				<time>2025-07-12T13:49:36Z</time>
			</trkpt>
			<trkpt lat="42.761665" lon="24.971448">
				<ele>1710.000000</ele>
				<time>2025-07-12T13:49:43Z</time>
			</trkpt>
			<trkpt lat="42.761676" lon="24.971440">
				<ele>1710.000000</ele>
				<time>2025-07-12T13:49:49Z</time>
			</trkpt>
			<trkpt lat="42.761691" lon="24.971422">
				<ele>1709.000000</ele>
				<time>2025-07-12T13:49:54Z</time>
			</trkpt>
			<trkpt lat="42.761693" lon="24.971422">
				<ele>1709.000000</ele>
				<time>2025-07-12T13:49:55Z</time>
			</trkpt>
			<trkpt lat="42.761712" lon="24.971412">
				<ele>1708.000000</ele>
				<time>2025-07-12T13:50:00Z</time>
			</trkpt>
			<trkpt lat="42.761716" lon="24.971416">
				<ele>1708.000000</ele>
				<time>2025-07-12T13:50:03Z</time>
			</trkpt>
			<trkpt lat="42.761730" lon="24.971414">
				<ele>1707.000000</ele>
				<time>2025-07-12T13:50:07Z</time>
			</trkpt>
			<trkpt lat="42.761733" lon="24.971409">
				<ele>1707.000000</ele>
				<time>2025-07-12T13:50:10Z</time>
			</trkpt>
			<trkpt lat="42.761742" lon="24.971394">
				<ele>1706.000000</ele>
				<time>2025-07-12T13:50:15Z</time>
			</trkpt>
			<trkpt lat="42.761751" lon="24.971416">
				<ele>1705.000000</ele>
				<time>2025-07-12T13:50:25Z</time>
			</trkpt>
			<trkpt lat="42.761779" lon="24.971432">
				<ele>1705.000000</ele>
				<time>2025-07-12T13:50:32Z</time>
			</trkpt>
			<trkpt lat="42.761788" lon="24.971420">
				<ele>1704.000000</ele>
				<time>2025-07-12T13:50:35Z</time>
			</trkpt>
			<trkpt lat="42.761791" lon="24.971408">
				<ele>1704.000000</ele>
				<time>2025-07-12T13:50:37Z</time>
			</trkpt>
			<trkpt lat="42.761792" lon="24.971394">
				<ele>1703.000000</ele>
				<time>2025-07-12T13:50:39Z</time>
			</trkpt>
			<trkpt lat="42.761794" lon="24.971387">
				<ele>1703.000000</ele>
				<time>2025-07-12T13:50:41Z</time>
			</trkpt>
			<trkpt lat="42.761803" lon="24.971363">
				<ele>1702.000000</ele>
				<time>2025-07-12T13:50:44Z</time>
			</trkpt>
			<trkpt lat="42.761816" lon="24.971361">
				<ele>1702.000000</ele>
				<time>2025-07-12T13:50:49Z</time>
			</trkpt>
			<trkpt lat="42.761832" lon="24.971369">
				<ele>1701.000000</ele>
				<time>2025-07-12T13:50:52Z</time>
			</trkpt>
			<trkpt lat="42.761843" lon="24.971355">
				<ele>1700.000000</ele>
				<time>2025-07-12T13:50:57Z</time>
			</trkpt>
			<trkpt lat="42.761844" lon="24.971353">
				<ele>1700.000000</ele>
				<time>2025-07-12T13:50:58Z</time>
			</trkpt>
			<trkpt lat="42.761867" lon="24.971338">
				<ele>1699.000000</ele>
				<time>2025-07-12T13:51:04Z</time>
			</trkpt>
			<trkpt lat="42.761867" lon="24.971332">
				<ele>1699.000000</ele>
				<time>2025-07-12T13:51:05Z</time>
			</trkpt>
			<trkpt lat="42.761870" lon="24.971322">
				<ele>1698.000000</ele>
				<time>2025-07-12T13:51:09Z</time>
			</trkpt>
			<trkpt lat="42.761878" lon="24.971306">
				<ele>1697.000000</ele>
				<time>2025-07-12T13:51:12Z</time>
			</trkpt>
			<trkpt lat="42.761876" lon="24.971315">
				<ele>1697.000000</ele>
				<time>2025-07-12T13:51:16Z</time>
			</trkpt>
			<trkpt lat="42.761887" lon="24.971311">
				<ele>1696.000000</ele>
				<time>2025-07-12T13:51:19Z</time>
			</trkpt>
			<trkpt lat="42.761900" lon="24.971306">
				<ele>1696.000000</ele>
				<time>2025-07-12T13:51:22Z</time>
			</trkpt>
			<trkpt lat="42.761912" lon="24.971298">
				<ele>1695.000000</ele>
				<time>2025-07-12T13:51:27Z</time>
			</trkpt>
			<trkpt lat="42.761911" lon="24.971287">
				<ele>1694.000000</ele>
				<time>2025-07-12T13:51:29Z</time>
			</trkpt>
			<trkpt lat="42.761915" lon="24.971265">
				<ele>1693.000000</ele>
				<time>2025-07-12T13:51:33Z</time>
			</trkpt>
			<trkpt lat="42.761924" lon="24.971255">
				<ele>1692.000000</ele>
				<time>2025-07-12T13:51:36Z</time>
			</trkpt>
			<trkpt lat="42.761924" lon="24.971248">
				<ele>1692.000000</ele>
				<time>2025-07-12T13:51:37Z</time>
			</trkpt>
			<trkpt lat="42.761939" lon="24.971214">
				<ele>1691.000000</ele>
				<time>2025-07-12T13:51:42Z</time>
			</trkpt>
			<trkpt lat="42.761938" lon="24.971212">
				<ele>1691.000000</ele>
				<time>2025-07-12T13:51:43Z</time>
			</trkpt>
			<trkpt lat="42.761966" lon="24.971214">
				<ele>1690.000000</ele>
				<time>2025-07-12T13:51:48Z</time>
			</trkpt>
			<trkpt lat="42.761971" lon="24.971210">
				<ele>1689.000000</ele>
				<time>2025-07-12T13:51:50Z</time>
			</trkpt>
			<trkpt lat="42.761978" lon="24.971208">
				<ele>1689.000000</ele>
				<time>2025-07-12T13:51:52Z</time>
			</trkpt>
			<trkpt lat="42.761995" lon="24.971213">
				<ele>1688.000000</ele>
				<time>2025-07-12T13:51:56Z</time>
			</trkpt>
			<trkpt lat="42.761997" lon="24.971213">
				<ele>1687.000000</ele>
				<time>2025-07-12T13:51:57Z</time>
			</trkpt>
			<trkpt lat="42.761994" lon="24.971201">
				<ele>1687.000000</ele>
				<time>2025-07-12T13:52:01Z</time>
			</trkpt>
			<trkpt lat="42.761988" lon="24.971201">
				<ele>1687.000000</ele>
				<time>2025-07-12T13:52:04Z</time>
			</trkpt>
			<trkpt lat="42.761995" lon="24.971210">
				<ele>1687.000000</ele>
				<time>2025-07-12T13:52:10Z</time>
			</trkpt>
			<trkpt lat="42.762011" lon="24.971198">
				<ele>1686.000000</ele>
				<time>2025-07-12T13:52:15Z</time>
			</trkpt>
			<trkpt lat="42.762011" lon="24.971197">
				<ele>1686.000000</ele>
				<time>2025-07-12T13:52:17Z</time>
			</trkpt>
			<trkpt lat="42.762011" lon="24.971197">
				<ele>1686.000000</ele>
				<time>2025-07-12T13:52:23Z</time>
			</trkpt>
			<trkpt lat="42.762011" lon="24.971197">
				<ele>1686.000000</ele>
				<time>2025-07-12T13:52:26Z</time>
			</trkpt>
			<trkpt lat="42.762015" lon="24.971200">
				<ele>1685.000000</ele>
				<time>2025-07-12T13:52:29Z</time>
			</trkpt>
			<trkpt lat="42.762035" lon="24.971202">
				<ele>1684.000000</ele>
				<time>2025-07-12T13:52:36Z</time>
			</trkpt>
			<trkpt lat="42.762053" lon="24.971188">
				<ele>1683.000000</ele>
				<time>2025-07-12T13:52:41Z</time>
			</trkpt>
			<trkpt lat="42.762062" lon="24.971184">
				<ele>1683.000000</ele>
				<time>2025-07-12T13:52:43Z</time>
			</trkpt>
			<trkpt lat="42.762068" lon="24.971174">
				<ele>1682.000000</ele>
				<time>2025-07-12T13:52:46Z</time>
			</trkpt>
			<trkpt lat="42.762078" lon="24.971157">
				<ele>1681.000000</ele>
				<time>2025-07-12T13:52:51Z</time>
			</trkpt>
			<trkpt lat="42.762080" lon="24.971149">
				<ele>1681.000000</ele>
				<time>2025-07-12T13:52:53Z</time>
			</trkpt>
			<trkpt lat="42.762081" lon="24.971142">
				<ele>1681.000000</ele>
				<time>2025-07-12T13:52:55Z</time>
			</trkpt>
			<trkpt lat="42.762084" lon="24.971126">
				<ele>1680.000000</ele>
				<time>2025-07-12T13:52:59Z</time>
			</trkpt>
			<trkpt lat="42.762084" lon="24.971114">
				<ele>1680.000000</ele>
				<time>2025-07-12T13:53:01Z</time>
			</trkpt>
			<trkpt lat="42.762087" lon="24.971104">
				<ele>1679.000000</ele>
				<time>2025-07-12T13:53:07Z</time>
			</trkpt>
			<trkpt lat="42.762097" lon="24.971092">
				<ele>1679.000000</ele>
				<time>2025-07-12T13:53:11Z</time>
			</trkpt>
			<trkpt lat="42.762111" lon="24.971078">
				<ele>1678.000000</ele>
				<time>2025-07-12T13:53:17Z</time>
			</trkpt>
			<trkpt lat="42.762135" lon="24.971068">
				<ele>1677.000000</ele>
				<time>2025-07-12T13:53:24Z</time>
			</trkpt>
			<trkpt lat="42.762137" lon="24.971064">
				<ele>1677.000000</ele>
				<time>2025-07-12T13:53:25Z</time>
			</trkpt>
			<trkpt lat="42.762153" lon="24.971028">
				<ele>1676.000000</ele>
				<time>2025-07-12T13:53:31Z</time>
			</trkpt>
			<trkpt lat="42.762177" lon="24.971012">
				<ele>1674.000000</ele>
				<time>2025-07-12T13:53:37Z</time>
			</trkpt>
			<trkpt lat="42.762181" lon="24.971015">
				<ele>1674.000000</ele>
				<time>2025-07-12T13:53:38Z</time>
			</trkpt>
			<trkpt lat="42.762207" lon="24.971007">
				<ele>1673.000000</ele>
				<time>2025-07-12T13:53:45Z</time>
			</trkpt>
			<trkpt lat="42.762213" lon="24.971002">
				<ele>1673.000000</ele>
				<time>2025-07-12T13:53:47Z</time>
			</trkpt>
			<trkpt lat="42.762239" lon="24.970996">
				<ele>1672.000000</ele>
				<time>2025-07-12T13:53:51Z</time>
			</trkpt>
			<trkpt lat="42.762239" lon="24.970986">
				<ele>1672.000000</ele>
				<time>2025-07-12T13:53:55Z</time>
			</trkpt>
			<trkpt lat="42.762238" lon="24.970972">
				<ele>1671.000000</ele>
				<time>2025-07-12T13:53:59Z</time>
			</trkpt>
			<trkpt lat="42.762239" lon="24.970970">
				<ele>1671.000000</ele>
				<time>2025-07-12T13:54:04Z</time>
			</trkpt>
			<trkpt lat="42.762252" lon="24.970964">
				<ele>1670.000000</ele>
				<time>2025-07-12T13:54:07Z</time>
			</trkpt>
			<trkpt lat="42.762262" lon="24.970960">
				<ele>1670.000000</ele>
				<time>2025-07-12T13:54:10Z</time>
			</trkpt>
			<trkpt lat="42.762270" lon="24.970961">
				<ele>1669.000000</ele>
				<time>2025-07-12T13:54:13Z</time>
			</trkpt>
			<trkpt lat="42.762288" lon="24.970972">
				<ele>1668.000000</ele>
				<time>2025-07-12T13:54:18Z</time>
			</trkpt>
			<trkpt lat="42.762293" lon="24.970970">
				<ele>1668.000000</ele>
				<time>2025-07-12T13:54:20Z</time>
			</trkpt>
			<trkpt lat="42.762306" lon="24.970968">
				<ele>1668.000000</ele>
				<time>2025-07-12T13:54:23Z</time>
			</trkpt>
			<trkpt lat="42.762309" lon="24.970972">
				<ele>1668.000000</ele>
				<time>2025-07-12T13:54:25Z</time>
			</trkpt>
			<trkpt lat="42.762323" lon="24.970964">
				<ele>1667.000000</ele>
				<time>2025-07-12T13:54:32Z</time>
			</trkpt>
			<trkpt lat="42.762342" lon="24.970962">
				<ele>1665.000000</ele>
				<time>2025-07-12T13:54:36Z</time>
			</trkpt>
			<trkpt lat="42.762373" lon="24.970949">
				<ele>1665.000000</ele>
				<time>2025-07-12T13:54:40Z</time>
			</trkpt>
			<trkpt lat="42.762386" lon="24.970926">
				<ele>1664.000000</ele>
				<time>2025-07-12T13:54:42Z</time>
			</trkpt>
			<trkpt lat="42.762403" lon="24.970880">
				<ele>1664.000000</ele>
				<time>2025-07-12T13:54:46Z</time>
			</trkpt>
			<trkpt lat="42.762406" lon="24.970859">
				<ele>1664.000000</ele>
				<time>2025-07-12T13:54:54Z</time>
			</trkpt>
			<trkpt lat="42.762406" lon="24.970858">
				<ele>1664.000000</ele>
				<time>2025-07-12T13:54:57Z</time>
			</trkpt>
			<trkpt lat="42.762423" lon="24.970838">
				<ele>1664.000000</ele>
				<time>2025-07-12T13:55:02Z</time>
			</trkpt>
			<trkpt lat="42.762438" lon="24.970816">
				<ele>1663.000000</ele>
				<time>2025-07-12T13:55:05Z</time>
			</trkpt>
			<trkpt lat="42.762449" lon="24.970829">
				<ele>1663.000000</ele>
				<time>2025-07-12T13:55:11Z</time>
			</trkpt>
			<trkpt lat="42.762452" lon="24.970825">
				<ele>1663.000000</ele>
				<time>2025-07-12T13:55:19Z</time>
			</trkpt>
			<trkpt lat="42.762457" lon="24.970817">
				<ele>1662.000000</ele>
				<time>2025-07-12T13:55:21Z</time>
			</trkpt>
			<trkpt lat="42.762473" lon="24.970791">
				<ele>1661.000000</ele>
				<time>2025-07-12T13:55:27Z</time>
			</trkpt>
			<trkpt lat="42.762474" lon="24.970787">
				<ele>1661.000000</ele>
				<time>2025-07-12T13:55:28Z</time>
			</trkpt>
			<trkpt lat="42.762483" lon="24.970769">
				<ele>1660.000000</ele>
				<time>2025-07-12T13:55:33Z</time>
			</trkpt>
			<trkpt lat="42.762490" lon="24.970761">
				<ele>1659.000000</ele>
				<time>2025-07-12T13:55:36Z</time>
			</trkpt>
			<trkpt lat="42.762494" lon="24.970746">
				<ele>1659.000000</ele>
				<time>2025-07-12T13:55:39Z</time>
			</trkpt>
			<trkpt lat="42.762502" lon="24.970741">
				<ele>1658.000000</ele>
				<time>2025-07-12T13:55:41Z</time>
			</trkpt>
			<trkpt lat="42.762506" lon="24.970733">
				<ele>1658.000000</ele>
				<time>2025-07-12T13:55:44Z</time>
			</trkpt>
			<trkpt lat="42.762508" lon="24.970717">
				<ele>1657.000000</ele>
				<time>2025-07-12T13:55:46Z</time>
			</trkpt>
			<trkpt lat="42.762511" lon="24.970699">
				<ele>1657.000000</ele>
				<time>2025-07-12T13:55:48Z</time>
			</trkpt>
			<trkpt lat="42.762519" lon="24.970677">
				<ele>1656.000000</ele>
				<time>2025-07-12T13:55:52Z</time>
			</trkpt>
			<trkpt lat="42.762520" lon="24.970671">
				<ele>1656.000000</ele>
				<time>2025-07-12T13:55:53Z</time>
			</trkpt>
			<trkpt lat="42.762518" lon="24.970674">
				<ele>1655.000000</ele>
				<time>2025-07-12T13:55:54Z</time>
			</trkpt>
			<trkpt lat="42.762529" lon="24.970661">
				<ele>1655.000000</ele>
				<time>2025-07-12T13:55:58Z</time>
			</trkpt>
			<trkpt lat="42.762530" lon="24.970646">
				<ele>1655.000000</ele>
				<time>2025-07-12T13:56:00Z</time>
			</trkpt>
			<trkpt lat="42.762545" lon="24.970635">
				<ele>1655.000000</ele>
				<time>2025-07-12T13:56:06Z</time>
			</trkpt>
			<trkpt lat="42.762548" lon="24.970636">
				<ele>1655.000000</ele>
				<time>2025-07-12T13:56:07Z</time>
			</trkpt>
			<trkpt lat="42.762580" lon="24.970648">
				<ele>1653.000000</ele>
				<time>2025-07-12T13:56:14Z</time>
			</trkpt>
			<trkpt lat="42.762592" lon="24.970644">
				<ele>1653.000000</ele>
				<time>2025-07-12T13:56:16Z</time>
			</trkpt>
			<trkpt lat="42.762587" lon="24.970644">
				<ele>1653.000000</ele>
				<time>2025-07-12T13:56:23Z</time>
			</trkpt>
			<trkpt lat="42.762582" lon="24.970614">
				<ele>1653.000000</ele>
				<time>2025-07-12T13:56:29Z</time>
			</trkpt>
			<trkpt lat="42.762578" lon="24.970622">
				<ele>1653.000000</ele>
				<time>2025-07-12T13:56:38Z</time>
			</trkpt>
			<trkpt lat="42.762579" lon="24.970632">
				<ele>1653.000000</ele>
				<time>2025-07-12T13:56:45Z</time>
			</trkpt>
			<trkpt lat="42.762603" lon="24.970632">
				<ele>1653.000000</ele>
				<time>2025-07-12T13:56:52Z</time>
			</trkpt>
			<trkpt lat="42.762604" lon="24.970630">
				<ele>1653.000000</ele>
				<time>2025-07-12T13:56:59Z</time>
			</trkpt>
			<trkpt lat="42.762614" lon="24.970624">
				<ele>1652.000000</ele>
				<time>2025-07-12T13:57:02Z</time>
			</trkpt>
			<trkpt lat="42.762629" lon="24.970630">
				<ele>1652.000000</ele>
				<time>2025-07-12T13:57:06Z</time>
			</trkpt>
			<trkpt lat="42.762638" lon="24.970626">
				<ele>1651.000000</ele>
				<time>2025-07-12T13:57:09Z</time>
			</trkpt>
			<trkpt lat="42.762646" lon="24.970618">
				<ele>1651.000000</ele>
				<time>2025-07-12T13:57:12Z</time>
			</trkpt>
			<trkpt lat="42.762657" lon="24.970618">
				<ele>1650.000000</ele>
				<time>2025-07-12T13:57:15Z</time>
			</trkpt>
			<trkpt lat="42.762661" lon="24.970614">
				<ele>1650.000000</ele>
				<time>2025-07-12T13:57:16Z</time>
			</trkpt>
			<trkpt lat="42.762666" lon="24.970610">
				<ele>1650.000000</ele>
				<time>2025-07-12T13:57:19Z</time>
			</trkpt>
			<trkpt lat="42.762677" lon="24.970584">
				<ele>1649.000000</ele>
				<time>2025-07-12T13:57:23Z</time>
			</trkpt>
			<trkpt lat="42.762685" lon="24.970584">
				<ele>1648.000000</ele>
				<time>2025-07-12T13:57:26Z</time>
			</trkpt>
			<trkpt lat="42.762690" lon="24.970581">
				<ele>1648.000000</ele>
				<time>2025-07-12T13:57:27Z</time>
			</trkpt>
			<trkpt lat="42.762711" lon="24.970557">
				<ele>1647.000000</ele>
				<time>2025-07-12T13:57:34Z</time>
			</trkpt>
			<trkpt lat="42.762715" lon="24.970538">
				<ele>1647.000000</ele>
				<time>2025-07-12T13:57:42Z</time>
			</trkpt>
			<trkpt lat="42.762709" lon="24.970555">
				<ele>1647.000000</ele>
				<time>2025-07-12T13:57:48Z</time>
			</trkpt>
			<trkpt lat="42.762710" lon="24.970555">
				<ele>1647.000000</ele>
				<time>2025-07-12T13:57:49Z</time>
			</trkpt>
			<trkpt lat="42.762727" lon="24.970547">
				<ele>1646.000000</ele>
				<time>2025-07-12T13:57:53Z</time>
			</trkpt>
			<trkpt lat="42.762739" lon="24.970537">
				<ele>1645.000000</ele>
				<time>2025-07-12T13:57:56Z</time>
			</trkpt>
			<trkpt lat="42.762741" lon="24.970525">
				<ele>1644.000000</ele>
				<time>2025-07-12T13:57:58Z</time>
			</trkpt>
			<trkpt lat="42.762759" lon="24.970479">
				<ele>1644.000000</ele>
				<time>2025-07-12T13:58:03Z</time>
			</trkpt>
			<trkpt lat="42.762765" lon="24.970467">
				<ele>1643.000000</ele>
				<time>2025-07-12T13:58:04Z</time>
			</trkpt>
			<trkpt lat="42.762775" lon="24.970459">
				<ele>1643.000000</ele>
				<time>2025-07-12T13:58:06Z</time>
			</trkpt>
			<trkpt lat="42.762790" lon="24.970451">
				<ele>1642.000000</ele>
				<time>2025-07-12T13:58:08Z</time>
			</trkpt>
			<trkpt lat="42.762804" lon="24.970450">
				<ele>1642.000000</ele>
				<time>2025-07-12T13:58:10Z</time>
			</trkpt>
			<trkpt lat="42.762791" lon="24.970445">
				<ele>1641.000000</ele>
				<time>2025-07-12T13:58:16Z</time>
			</trkpt>
			<trkpt lat="42.762797" lon="24.970439">
				<ele>1641.000000</ele>
				<time>2025-07-12T13:58:18Z</time>
			</trkpt>
			<trkpt lat="42.762799" lon="24.970434">
				<ele>1641.000000</ele>
				<time>2025-07-12T13:58:19Z</time>
			</trkpt>
			<trkpt lat="42.762807" lon="24.970424">
				<ele>1640.000000</ele>
				<time>2025-07-12T13:58:22Z</time>
			</trkpt>
			<trkpt lat="42.762814" lon="24.970414">
				<ele>1639.000000</ele>
				<time>2025-07-12T13:58:24Z</time>
			</trkpt>
			<trkpt lat="42.762815" lon="24.970416">
				<ele>1639.000000</ele>
				<time>2025-07-12T13:58:31Z</time>
			</trkpt>
			<trkpt lat="42.762821" lon="24.970412">
				<ele>1639.000000</ele>
				<time>2025-07-12T13:58:34Z</time>
			</trkpt>
			<trkpt lat="42.762841" lon="24.970412">
				<ele>1638.000000</ele>
				<time>2025-07-12T13:58:39Z</time>
			</trkpt>
			<trkpt lat="42.762848" lon="24.970400">
				<ele>1638.000000</ele>
				<time>2025-07-12T13:58:41Z</time>
			</trkpt>
			<trkpt lat="42.762861" lon="24.970378">
				<ele>1637.000000</ele>
				<time>2025-07-12T13:58:45Z</time>
			</trkpt>
			<trkpt lat="42.762867" lon="24.970361">
				<ele>1636.000000</ele>
				<time>2025-07-12T13:58:48Z</time>
			</trkpt>
			<trkpt lat="42.762872" lon="24.970353">
				<ele>1636.000000</ele>
				<time>2025-07-12T13:58:49Z</time>
			</trkpt>
			<trkpt lat="42.762895" lon="24.970327">
				<ele>1635.000000</ele>
				<time>2025-07-12T13:58:53Z</time>
			</trkpt>
			<trkpt lat="42.762915" lon="24.970305">
				<ele>1634.000000</ele>
				<time>2025-07-12T13:58:57Z</time>
			</trkpt>
			<trkpt lat="42.762924" lon="24.970298">
				<ele>1634.000000</ele>
				<time>2025-07-12T13:58:58Z</time>
			</trkpt>
			<trkpt lat="42.762934" lon="24.970292">
				<ele>1633.000000</ele>
				<time>2025-07-12T13:58:59Z</time>
			</trkpt>
			<trkpt lat="42.762961" lon="24.970276">
				<ele>1632.000000</ele>
				<time>2025-07-12T13:59:03Z</time>
			</trkpt>
			<trkpt lat="42.762962" lon="24.970270">
				<ele>1632.000000</ele>
				<time>2025-07-12T13:59:04Z</time>
			</trkpt>
			<trkpt lat="42.762963" lon="24.970264">
				<ele>1632.000000</ele>
				<time>2025-07-12T13:59:11Z</time>
			</trkpt>
			<trkpt lat="42.762976" lon="24.970268">
				<ele>1632.000000</ele>
				<time>2025-07-12T13:59:13Z</time>
			</trkpt>
			<trkpt lat="42.762988" lon="24.970272">
				<ele>1631.000000</ele>
				<time>2025-07-12T13:59:15Z</time>
			</trkpt>
			<trkpt lat="42.763015" lon="24.970255">
				<ele>1631.000000</ele>
				<time>2025-07-12T13:59:19Z</time>
			</trkpt>
			<trkpt lat="42.763025" lon="24.970239">
				<ele>1630.000000</ele>
				<time>2025-07-12T13:59:21Z</time>
			</trkpt>
			<trkpt lat="42.763096" lon="24.970180">
				<ele>1629.000000</ele>
				<time>2025-07-12T13:59:28Z</time>
			</trkpt>
			<trkpt lat="42.763119" lon="24.970167">
				<ele>1628.000000</ele>
				<time>2025-07-12T13:59:35Z</time>
			</trkpt>
			<trkpt lat="42.763131" lon="24.970162">
				<ele>1628.000000</ele>
				<time>2025-07-12T13:59:36Z</time>
			</trkpt>
			<trkpt lat="42.763134" lon="24.970158">
				<ele>1628.000000</ele>
				<time>2025-07-12T13:59:37Z</time>
			</trkpt>
			<trkpt lat="42.763135" lon="24.970151">
				<ele>1628.000000</ele>
				<time>2025-07-12T13:59:38Z</time>
			</trkpt>
			<trkpt lat="42.763164" lon="24.970117">
				<ele>1627.000000</ele>
				<time>2025-07-12T13:59:42Z</time>
			</trkpt>
			<trkpt lat="42.763179" lon="24.970095">
				<ele>1627.000000</ele>
				<time>2025-07-12T13:59:44Z</time>
			</trkpt>
			<trkpt lat="42.763194" lon="24.970078">
				<ele>1626.000000</ele>
				<time>2025-07-12T13:59:49Z</time>
			</trkpt>
			<trkpt lat="42.763204" lon="24.970069">
				<ele>1626.000000</ele>
				<time>2025-07-12T13:59:51Z</time>
			</trkpt>
			<trkpt lat="42.763224" lon="24.970046">
				<ele>1625.000000</ele>
				<time>2025-07-12T13:59:55Z</time>
			</trkpt>
			<trkpt lat="42.763248" lon="24.970023">
				<ele>1625.000000</ele>
				<time>2025-07-12T13:59:58Z</time>
			</trkpt>
			<trkpt lat="42.763259" lon="24.970022">
				<ele>1625.000000</ele>
				<time>2025-07-12T14:00:01Z</time>
			</trkpt>
			<trkpt lat="42.763272" lon="24.970007">
				<ele>1625.000000</ele>
				<time>2025-07-12T14:00:03Z</time>
			</trkpt>
			<trkpt lat="42.763282" lon="24.969991">
				<ele>1624.000000</ele>
				<time>2025-07-12T14:00:09Z</time>
			</trkpt>
			<trkpt lat="42.763305" lon="24.969966">
				<ele>1624.000000</ele>
				<time>2025-07-12T14:00:16Z</time>
			</trkpt>
			<trkpt lat="42.763329" lon="24.969958">
				<ele>1624.000000</ele>
				<time>2025-07-12T14:00:20Z</time>
			</trkpt>
			<trkpt lat="42.763327" lon="24.969952">
				<ele>1623.000000</ele>
				<time>2025-07-12T14:00:22Z</time>
			</trkpt>
			<trkpt lat="42.763378" lon="24.969918">
				<ele>1623.000000</ele>
				<time>2025-07-12T14:00:29Z</time>
			</trkpt>
			<trkpt lat="42.763391" lon="24.969899">
				<ele>1623.000000</ele>
				<time>2025-07-12T14:00:35Z</time>
			</trkpt>
			<trkpt lat="42.763390" lon="24.969892">
				<ele>1623.000000</ele>
				<time>2025-07-12T14:00:36Z</time>
			</trkpt>
			<trkpt lat="42.763370" lon="24.969924">
				<ele>1623.000000</ele>
				<time>2025-07-12T14:00:42Z</time>
			</trkpt>
			<trkpt lat="42.763384" lon="24.969924">
				<ele>1622.000000</ele>
				<time>2025-07-12T14:00:48Z</time>
			</trkpt>
			<trkpt lat="42.763399" lon="24.969936">
				<ele>1621.000000</ele>
				<time>2025-07-12T14:00:52Z</time>
			</trkpt>
			<trkpt lat="42.763390" lon="24.969943">
				<ele>1621.000000</ele>
				<time>2025-07-12T14:00:55Z</time>
			</trkpt>
			<trkpt lat="42.763400" lon="24.969964">
				<ele>1621.000000</ele>
				<time>2025-07-12T14:01:00Z</time>
			</trkpt>
			<trkpt lat="42.763405" lon="24.969964">
				<ele>1620.000000</ele>
				<time>2025-07-12T14:01:02Z</time>
			</trkpt>
			<trkpt lat="42.763417" lon="24.969968">
				<ele>1619.000000</ele>
				<time>2025-07-12T14:01:08Z</time>
			</trkpt>
			<trkpt lat="42.763425" lon="24.969974">
				<ele>1618.000000</ele>
				<time>2025-07-12T14:01:12Z</time>
			</trkpt>
			<trkpt lat="42.763426" lon="24.969979">
				<ele>1618.000000</ele>
				<time>2025-07-12T14:01:14Z</time>
			</trkpt>
			<trkpt lat="42.763447" lon="24.969974">
				<ele>1617.000000</ele>
				<time>2025-07-12T14:01:18Z</time>
			</trkpt>
			<trkpt lat="42.763461" lon="24.969963">
				<ele>1616.000000</ele>
				<time>2025-07-12T14:01:22Z</time>
			</trkpt>
			<trkpt lat="42.763471" lon="24.969956">
				<ele>1616.000000</ele>
				<time>2025-07-12T14:01:28Z</time>
			</trkpt>
			<trkpt lat="42.763477" lon="24.969948">
				<ele>1616.000000</ele>
				<time>2025-07-12T14:01:30Z</time>
			</trkpt>
			<trkpt lat="42.763482" lon="24.969938">
				<ele>1615.000000</ele>
				<time>2025-07-12T14:01:35Z</time>
			</trkpt>
			<trkpt lat="42.763493" lon="24.969930">
				<ele>1615.000000</ele>
				<time>2025-07-12T14:01:38Z</time>
			</trkpt>
			<trkpt lat="42.763523" lon="24.969918">
				<ele>1614.000000</ele>
				<time>2025-07-12T14:01:44Z</time>
			</trkpt>
			<trkpt lat="42.763528" lon="24.969909">
				<ele>1614.000000</ele>
				<time>2025-07-12T14:01:46Z</time>
			</trkpt>
			<trkpt lat="42.763550" lon="24.969909">
				<ele>1613.000000</ele>
				<time>2025-07-12T14:01:50Z</time>
			</trkpt>
			<trkpt lat="42.763559" lon="24.969903">
				<ele>1613.000000</ele>
				<time>2025-07-12T14:01:52Z</time>
			</trkpt>
			<trkpt lat="42.763575" lon="24.969888">
				<ele>1613.000000</ele>
				<time>2025-07-12T14:01:54Z</time>
			</trkpt>
			<trkpt lat="42.763583" lon="24.969876">
				<ele>1612.000000</ele>
				<time>2025-07-12T14:01:56Z</time>
			</trkpt>
			<trkpt lat="42.763611" lon="24.969838">
				<ele>1612.000000</ele>
				<time>2025-07-12T14:02:02Z</time>
			</trkpt>
			<trkpt lat="42.763615" lon="24.969832">
				<ele>1611.000000</ele>
				<time>2025-07-12T14:02:03Z</time>
			</trkpt>
			<trkpt lat="42.763633" lon="24.969795">
				<ele>1611.000000</ele>
				<time>2025-07-12T14:02:09Z</time>
			</trkpt>
			<trkpt lat="42.763637" lon="24.969787">
				<ele>1610.000000</ele>
				<time>2025-07-12T14:02:10Z</time>
			</trkpt>
			<trkpt lat="42.763679" lon="24.969746">
				<ele>1609.000000</ele>
				<time>2025-07-12T14:02:17Z</time>
			</trkpt>
			<trkpt lat="42.763749" lon="24.969656">
				<ele>1608.000000</ele>
				<time>2025-07-12T14:02:26Z</time>
			</trkpt>
			<trkpt lat="42.763778" lon="24.969602">
				<ele>1608.000000</ele>
				<time>2025-07-12T14:02:32Z</time>
			</trkpt>
			<trkpt lat="42.763779" lon="24.969602">
				<ele>1608.000000</ele>
				<time>2025-07-12T14:02:33Z</time>
			</trkpt>
			<trkpt lat="42.763795" lon="24.969594">
				<ele>1607.000000</ele>
				<time>2025-07-12T14:02:43Z</time>
			</trkpt>
			<trkpt lat="42.763809" lon="24.969585">
				<ele>1607.000000</ele>
				<time>2025-07-12T14:02:45Z</time>
			</trkpt>
			<trkpt lat="42.763839" lon="24.969549">
				<ele>1606.000000</ele>
				<time>2025-07-12T14:02:51Z</time>
			</trkpt>
			<trkpt lat="42.763846" lon="24.969545">
				<ele>1606.000000</ele>
				<time>2025-07-12T14:02:52Z</time>
			</trkpt>
			<trkpt lat="42.763866" lon="24.969534">
				<ele>1605.000000</ele>
				<time>2025-07-12T14:02:55Z</time>
			</trkpt>
			<trkpt lat="42.763873" lon="24.969521">
				<ele>1604.000000</ele>
				<time>2025-07-12T14:02:57Z</time>
			</trkpt>
			<trkpt lat="42.763897" lon="24.969507">
				<ele>1604.000000</ele>
				<time>2025-07-12T14:03:01Z</time>
			</trkpt>
			<trkpt lat="42.763900" lon="24.969500">
				<ele>1604.000000</ele>
				<time>2025-07-12T14:03:02Z</time>
			</trkpt>
			<trkpt lat="42.763920" lon="24.969478">
				<ele>1603.000000</ele>
				<time>2025-07-12T14:03:07Z</time>
			</trkpt>
			<trkpt lat="42.763923" lon="24.969472">
				<ele>1602.000000</ele>
				<time>2025-07-12T14:03:08Z</time>
			</trkpt>
			<trkpt lat="42.763938" lon="24.969462">
				<ele>1602.000000</ele>
				<time>2025-07-12T14:03:11Z</time>
			</trkpt>
			<trkpt lat="42.763943" lon="24.969462">
				<ele>1602.000000</ele>
				<time>2025-07-12T14:03:12Z</time>
			</trkpt>
			<trkpt lat="42.763960" lon="24.969456">
				<ele>1601.000000</ele>
				<time>2025-07-12T14:03:15Z</time>
			</trkpt>
			<trkpt lat="42.763965" lon="24.969459">
				<ele>1601.000000</ele>
				<time>2025-07-12T14:03:16Z</time>
			</trkpt>
			<trkpt lat="42.763990" lon="24.969448">
				<ele>1599.000000</ele>
				<time>2025-07-12T14:03:21Z</time>
			</trkpt>
			<trkpt lat="42.763997" lon="24.969445">
				<ele>1599.000000</ele>
				<time>2025-07-12T14:03:23Z</time>
			</trkpt>
			<trkpt lat="42.764017" lon="24.969437">
				<ele>1598.000000</ele>
				<time>2025-07-12T14:03:26Z</time>
			</trkpt>
			<trkpt lat="42.764026" lon="24.969421">
				<ele>1597.000000</ele>
				<time>2025-07-12T14:03:29Z</time>
			</trkpt>
			<trkpt lat="42.764030" lon="24.969420">
				<ele>1597.000000</ele>
				<time>2025-07-12T14:03:30Z</time>
			</trkpt>
			<trkpt lat="42.764045" lon="24.969411">
				<ele>1596.000000</ele>
				<time>2025-07-12T14:03:33Z</time>
			</trkpt>
			<trkpt lat="42.764070" lon="24.969382">
				<ele>1595.000000</ele>
				<time>2025-07-12T14:03:39Z</time>
			</trkpt>
			<trkpt lat="42.764097" lon="24.969374">
				<ele>1594.000000</ele>
				<time>2025-07-12T14:03:43Z</time>
			</trkpt>
			<trkpt lat="42.764114" lon="24.969356">
				<ele>1593.000000</ele>
				<time>2025-07-12T14:03:47Z</time>
			</trkpt>
			<trkpt lat="42.764125" lon="24.969349">
				<ele>1592.000000</ele>
				<time>2025-07-12T14:03:49Z</time>
			</trkpt>
			<trkpt lat="42.764132" lon="24.969338">
				<ele>1592.000000</ele>
				<time>2025-07-12T14:03:51Z</time>
			</trkpt>
			<trkpt lat="42.764165" lon="24.969334">
				<ele>1590.000000</ele>
				<time>2025-07-12T14:03:56Z</time>
			</trkpt>
			<trkpt lat="42.764178" lon="24.969335">
				<ele>1590.000000</ele>
				<time>2025-07-12T14:03:58Z</time>
			</trkpt>
			<trkpt lat="42.764205" lon="24.969329">
				<ele>1589.000000</ele>
				<time>2025-07-12T14:04:01Z</time>
			</trkpt>
			<trkpt lat="42.764221" lon="24.969327">
				<ele>1589.000000</ele>
				<time>2025-07-12T14:04:04Z</time>
			</trkpt>
			<trkpt lat="42.764229" lon="24.969322">
				<ele>1588.000000</ele>
				<time>2025-07-12T14:04:06Z</time>
			</trkpt>
			<trkpt lat="42.764249" lon="24.969326">
				<ele>1587.000000</ele>
				<time>2025-07-12T14:04:10Z</time>
			</trkpt>
			<trkpt lat="42.764266" lon="24.969331">
				<ele>1586.000000</ele>
				<time>2025-07-12T14:04:12Z</time>
			</trkpt>
			<trkpt lat="42.764276" lon="24.969331">
				<ele>1586.000000</ele>
				<time>2025-07-12T14:04:14Z</time>
			</trkpt>
			<trkpt lat="42.764305" lon="24.969335">
				<ele>1585.000000</ele>
				<time>2025-07-12T14:04:18Z</time>
			</trkpt>
			<trkpt lat="42.764317" lon="24.969342">
				<ele>1584.000000</ele>
				<time>2025-07-12T14:04:21Z</time>
			</trkpt>
			<trkpt lat="42.764328" lon="24.969340">
				<ele>1584.000000</ele>
				<time>2025-07-12T14:04:23Z</time>
			</trkpt>
			<trkpt lat="42.764363" lon="24.969335">
				<ele>1583.000000</ele>
				<time>2025-07-12T14:04:27Z</time>
			</trkpt>
			<trkpt lat="42.764381" lon="24.969335">
				<ele>1582.000000</ele>
				<time>2025-07-12T14:04:29Z</time>
			</trkpt>
			<trkpt lat="42.764384" lon="24.969331">
				<ele>1582.000000</ele>
				<time>2025-07-12T14:04:30Z</time>
			</trkpt>
			<trkpt lat="42.764399" lon="24.969330">
				<ele>1582.000000</ele>
				<time>2025-07-12T14:04:32Z</time>
			</trkpt>
			<trkpt lat="42.764421" lon="24.969325">
				<ele>1581.000000</ele>
				<time>2025-07-12T14:04:36Z</time>
			</trkpt>
			<trkpt lat="42.764439" lon="24.969314">
				<ele>1580.000000</ele>
				<time>2025-07-12T14:04:38Z</time>
			</trkpt>
			<trkpt lat="42.764455" lon="24.969295">
				<ele>1580.000000</ele>
				<time>2025-07-12T14:04:42Z</time>
			</trkpt>
			<trkpt lat="42.764471" lon="24.969289">
				<ele>1579.000000</ele>
				<time>2025-07-12T14:04:45Z</time>
			</trkpt>
			<trkpt lat="42.764487" lon="24.969285">
				<ele>1578.000000</ele>
				<time>2025-07-12T14:04:50Z</time>
			</trkpt>
			<trkpt lat="42.764521" lon="24.969266">
				<ele>1577.000000</ele>
				<time>2025-07-12T14:04:57Z</time>
			</trkpt>
			<trkpt lat="42.764529" lon="24.969263">
				<ele>1577.000000</ele>
				<time>2025-07-12T14:04:58Z</time>
			</trkpt>
			<trkpt lat="42.764548" lon="24.969262">
				<ele>1576.000000</ele>
				<time>2025-07-12T14:05:01Z</time>
			</trkpt>
			<trkpt lat="42.764575" lon="24.969262">
				<ele>1575.000000</ele>
				<time>2025-07-12T14:05:07Z</time>
			</trkpt>
			<trkpt lat="42.764589" lon="24.969242">
				<ele>1575.000000</ele>
				<time>2025-07-12T14:05:14Z</time>
			</trkpt>
			<trkpt lat="42.764598" lon="24.969230">
				<ele>1574.000000</ele>
				<time>2025-07-12T14:05:17Z</time>
			</trkpt>
			<trkpt lat="42.764629" lon="24.969215">
				<ele>1573.000000</ele>
				<time>2025-07-12T14:05:22Z</time>
			</trkpt>
			<trkpt lat="42.764643" lon="24.969209">
				<ele>1573.000000</ele>
				<time>2025-07-12T14:05:24Z</time>
			</trkpt>
			<trkpt lat="42.764663" lon="24.969193">
				<ele>1572.000000</ele>
				<time>2025-07-12T14:05:29Z</time>
			</trkpt>
			<trkpt lat="42.764663" lon="24.969191">
				<ele>1572.000000</ele>
				<time>2025-07-12T14:05:30Z</time>
			</trkpt>
			<trkpt lat="42.764699" lon="24.969175">
				<ele>1571.000000</ele>
				<time>2025-07-12T14:05:35Z</time>
			</trkpt>
			<trkpt lat="42.764711" lon="24.969165">
				<ele>1571.000000</ele>
				<time>2025-07-12T14:05:42Z</time>
			</trkpt>
			<trkpt lat="42.764724" lon="24.969162">
				<ele>1571.000000</ele>
				<time>2025-07-12T14:05:46Z</time>
			</trkpt>
			<trkpt lat="42.764725" lon="24.969167">
				<ele>1571.000000</ele>
				<time>2025-07-12T14:05:49Z</time>
			</trkpt>
			<trkpt lat="42.764724" lon="24.969169">
				<ele>1571.000000</ele>
				<time>2025-07-12T14:05:51Z</time>
			</trkpt>
			<trkpt lat="42.764733" lon="24.969180">
				<ele>1570.000000</ele>
				<time>2025-07-12T14:05:56Z</time>
			</trkpt>
			<trkpt lat="42.764756" lon="24.969169">
				<ele>1570.000000</ele>
				<time>2025-07-12T14:06:00Z</time>
			</trkpt>
			<trkpt lat="42.764787" lon="24.969158">
				<ele>1569.000000</ele>
				<time>2025-07-12T14:06:04Z</time>
			</trkpt>
			<trkpt lat="42.764809" lon="24.969142">
				<ele>1569.000000</ele>
				<time>2025-07-12T14:06:06Z</time>
			</trkpt>
			<trkpt lat="42.764827" lon="24.969120">
				<ele>1568.000000</ele>
				<time>2025-07-12T14:06:10Z</time>
			</trkpt>
			<trkpt lat="42.764833" lon="24.969110">
				<ele>1567.000000</ele>
				<time>2025-07-12T14:06:13Z</time>
			</trkpt>
			<trkpt lat="42.764856" lon="24.969091">
				<ele>1567.000000</ele>
				<time>2025-07-12T14:06:17Z</time>
			</trkpt>
			<trkpt lat="42.764891" lon="24.969077">
				<ele>1566.000000</ele>
				<time>2025-07-12T14:06:23Z</time>
			</trkpt>
			<trkpt lat="42.764899" lon="24.969069">
				<ele>1566.000000</ele>
				<time>2025-07-12T14:06:24Z</time>
			</trkpt>
			<trkpt lat="42.764938" lon="24.969044">
				<ele>1565.000000</ele>
				<time>2025-07-12T14:06:28Z</time>
			</trkpt>
			<trkpt lat="42.764973" lon="24.969042">
				<ele>1565.000000</ele>
				<time>2025-07-12T14:06:32Z</time>
			</trkpt>
			<trkpt lat="42.765004" lon="24.969050">
				<ele>1564.000000</ele>
				<time>2025-07-12T14:06:38Z</time>
			</trkpt>
			<trkpt lat="42.765012" lon="24.969053">
				<ele>1564.000000</ele>
				<time>2025-07-12T14:06:39Z</time>
			</trkpt>
			<trkpt lat="42.765050" lon="24.969067">
				<ele>1563.000000</ele>
				<time>2025-07-12T14:06:45Z</time>
			</trkpt>
			<trkpt lat="42.765074" lon="24.969074">
				<ele>1563.000000</ele>
				<time>2025-07-12T14:06:50Z</time>
			</trkpt>
			<trkpt lat="42.765089" lon="24.969066">
				<ele>1563.000000</ele>
				<time>2025-07-12T14:06:52Z</time>
			</trkpt>
			<trkpt lat="42.765118" lon="24.969055">
				<ele>1562.000000</ele>
				<time>2025-07-12T14:06:56Z</time>
			</trkpt>
			<trkpt lat="42.765124" lon="24.969061">
				<ele>1562.000000</ele>
				<time>2025-07-12T14:06:57Z</time>
			</trkpt>
			<trkpt lat="42.765127" lon="24.969061">
				<ele>1562.000000</ele>
				<time>2025-07-12T14:06:58Z</time>
			</trkpt>
			<trkpt lat="42.765154" lon="24.969070">
				<ele>1562.000000</ele>
				<time>2025-07-12T14:07:05Z</time>
			</trkpt>
			<trkpt lat="42.765179" lon="24.969062">
				<ele>1561.000000</ele>
				<time>2025-07-12T14:07:09Z</time>
			</trkpt>
			<trkpt lat="42.765187" lon="24.969061">
				<ele>1561.000000</ele>
				<time>2025-07-12T14:07:10Z</time>
			</trkpt>
			<trkpt lat="42.765201" lon="24.969049">
				<ele>1561.000000</ele>
				<time>2025-07-12T14:07:13Z</time>
			</trkpt>
			<trkpt lat="42.765233" lon="24.969028">
				<ele>1561.000000</ele>
				<time>2025-07-12T14:07:16Z</time>
			</trkpt>
			<trkpt lat="42.765289" lon="24.968988">
				<ele>1561.000000</ele>
				<time>2025-07-12T14:07:22Z</time>
			</trkpt>
			<trkpt lat="42.765342" lon="24.968964">
				<ele>1560.000000</ele>
				<time>2025-07-12T14:07:30Z</time>
			</trkpt>
			<trkpt lat="42.765349" lon="24.968956">
				<ele>1560.000000</ele>
				<time>2025-07-12T14:07:32Z</time>
			</trkpt>
			<trkpt lat="42.765351" lon="24.968930">
				<ele>1559.000000</ele>
				<time>2025-07-12T14:07:37Z</time>
			</trkpt>
			<trkpt lat="42.765381" lon="24.968944">
				<ele>1558.000000</ele>
				<time>2025-07-12T14:07:43Z</time>
			</trkpt>
			<trkpt lat="42.765410" lon="24.968947">
				<ele>1558.000000</ele>
				<time>2025-07-12T14:07:47Z</time>
			</trkpt>
			<trkpt lat="42.765440" lon="24.968939">
				<ele>1558.000000</ele>
				<time>2025-07-12T14:07:51Z</time>
			</trkpt>
			<trkpt lat="42.765448" lon="24.968913">
				<ele>1557.000000</ele>
				<time>2025-07-12T14:07:59Z</time>
			</trkpt>
			<trkpt lat="42.765452" lon="24.968910">
				<ele>1557.000000</ele>
				<time>2025-07-12T14:08:00Z</time>
			</trkpt>
			<trkpt lat="42.765453" lon="24.968906">
				<ele>1556.000000</ele>
				<time>2025-07-12T14:08:02Z</time>
			</trkpt>
			<trkpt lat="42.765455" lon="24.968909">
				<ele>1557.000000</ele>
				<time>2025-07-12T14:08:07Z</time>
			</trkpt>
			<trkpt lat="42.765457" lon="24.968889">
				<ele>1557.000000</ele>
				<time>2025-07-12T14:08:15Z</time>
			</trkpt>
			<trkpt lat="42.765504" lon="24.968875">
				<ele>1556.000000</ele>
				<time>2025-07-12T14:08:20Z</time>
			</trkpt>
			<trkpt lat="42.765521" lon="24.968867">
				<ele>1556.000000</ele>
				<time>2025-07-12T14:08:22Z</time>
			</trkpt>
			<trkpt lat="42.765539" lon="24.968857">
				<ele>1555.000000</ele>
				<time>2025-07-12T14:08:24Z</time>
			</trkpt>
			<trkpt lat="42.765576" lon="24.968841">
				<ele>1554.000000</ele>
				<time>2025-07-12T14:08:29Z</time>
			</trkpt>
			<trkpt lat="42.765582" lon="24.968834">
				<ele>1554.000000</ele>
				<time>2025-07-12T14:08:30Z</time>
			</trkpt>
			<trkpt lat="42.765630" lon="24.968788">
				<ele>1553.000000</ele>
				<time>2025-07-12T14:08:37Z</time>
			</trkpt>
			<trkpt lat="42.765637" lon="24.968784">
				<ele>1553.000000</ele>
				<time>2025-07-12T14:08:38Z</time>
			</trkpt>
			<trkpt lat="42.765673" lon="24.968756">
				<ele>1553.000000</ele>
				<time>2025-07-12T14:08:44Z</time>
			</trkpt>
			<trkpt lat="42.765710" lon="24.968753">
				<ele>1554.000000</ele>
				<time>2025-07-12T14:08:50Z</time>
			</trkpt>
			<trkpt lat="42.765761" lon="24.968727">
				<ele>1553.000000</ele>
				<time>2025-07-12T14:08:56Z</time>
			</trkpt>
			<trkpt lat="42.765779" lon="24.968715">
				<ele>1553.000000</ele>
				<time>2025-07-12T14:08:59Z</time>
			</trkpt>
			<trkpt lat="42.765786" lon="24.968712">
				<ele>1553.000000</ele>
				<time>2025-07-12T14:09:01Z</time>
			</trkpt>
			<trkpt lat="42.765800" lon="24.968707">
				<ele>1553.000000</ele>
				<time>2025-07-12T14:09:04Z</time>
			</trkpt>
			<trkpt lat="42.765811" lon="24.968702">
				<ele>1552.000000</ele>
				<time>2025-07-12T14:09:06Z</time>
			</trkpt>
			<trkpt lat="42.765817" lon="24.968662">
				<ele>1551.000000</ele>
				<time>2025-07-12T14:09:11Z</time>
			</trkpt>
			<trkpt lat="42.765816" lon="24.968657">
				<ele>1551.000000</ele>
				<time>2025-07-12T14:09:12Z</time>
			</trkpt>
			<trkpt lat="42.765832" lon="24.968617">
				<ele>1550.000000</ele>
				<time>2025-07-12T14:09:18Z</time>
			</trkpt>
			<trkpt lat="42.765837" lon="24.968613">
				<ele>1550.000000</ele>
				<time>2025-07-12T14:09:19Z</time>
			</trkpt>
			<trkpt lat="42.765867" lon="24.968622">
				<ele>1550.000000</ele>
				<time>2025-07-12T14:09:24Z</time>
			</trkpt>
			<trkpt lat="42.765895" lon="24.968609">
				<ele>1549.000000</ele>
				<time>2025-07-12T14:09:30Z</time>
			</trkpt>
			<trkpt lat="42.765904" lon="24.968579">
				<ele>1548.000000</ele>
				<time>2025-07-12T14:09:35Z</time>
			</trkpt>
			<trkpt lat="42.765910" lon="24.968562">
				<ele>1547.000000</ele>
				<time>2025-07-12T14:09:38Z</time>
			</trkpt>
			<trkpt lat="42.765913" lon="24.968546">
				<ele>1547.000000</ele>
				<time>2025-07-12T14:09:41Z</time>
			</trkpt>
			<trkpt lat="42.765907" lon="24.968529">
				<ele>1546.000000</ele>
				<time>2025-07-12T14:09:45Z</time>
			</trkpt>
			<trkpt lat="42.765914" lon="24.968525">
				<ele>1546.000000</ele>
				<time>2025-07-12T14:09:47Z</time>
			</trkpt>
			<trkpt lat="42.765920" lon="24.968513">
				<ele>1545.000000</ele>
				<time>2025-07-12T14:09:52Z</time>
			</trkpt>
			<trkpt lat="42.765922" lon="24.968509">
				<ele>1545.000000</ele>
				<time>2025-07-12T14:09:54Z</time>
			</trkpt>
			<trkpt lat="42.765950" lon="24.968483">
				<ele>1544.000000</ele>
				<time>2025-07-12T14:10:00Z</time>
			</trkpt>
			<trkpt lat="42.765958" lon="24.968473">
				<ele>1544.000000</ele>
				<time>2025-07-12T14:10:03Z</time>
			</trkpt>
			<trkpt lat="42.765976" lon="24.968481">
				<ele>1543.000000</ele>
				<time>2025-07-12T14:10:06Z</time>
			</trkpt>
			<trkpt lat="42.765995" lon="24.968487">
				<ele>1543.000000</ele>
				<time>2025-07-12T14:10:10Z</time>
			</trkpt>
			<trkpt lat="42.766012" lon="24.968488">
				<ele>1542.000000</ele>
				<time>2025-07-12T14:10:13Z</time>
			</trkpt>
			<trkpt lat="42.766050" lon="24.968477">
				<ele>1542.000000</ele>
				<time>2025-07-12T14:10:17Z</time>
			</trkpt>
			<trkpt lat="42.766053" lon="24.968468">
				<ele>1541.000000</ele>
				<time>2025-07-12T14:10:18Z</time>
			</trkpt>
			<trkpt lat="42.766056" lon="24.968452">
				<ele>1541.000000</ele>
				<time>2025-07-12T14:10:20Z</time>
			</trkpt>
			<trkpt lat="42.766061" lon="24.968436">
				<ele>1541.000000</ele>
				<time>2025-07-12T14:10:22Z</time>
			</trkpt>
			<trkpt lat="42.766089" lon="24.968394">
				<ele>1540.000000</ele>
				<time>2025-07-12T14:10:27Z</time>
			</trkpt>
			<trkpt lat="42.766096" lon="24.968389">
				<ele>1539.000000</ele>
				<time>2025-07-12T14:10:28Z</time>
			</trkpt>
			<trkpt lat="42.766151" lon="24.968369">
				<ele>1539.000000</ele>
				<time>2025-07-12T14:10:35Z</time>
			</trkpt>
			<trkpt lat="42.766152" lon="24.968369">
				<ele>1538.000000</ele>
				<time>2025-07-12T14:10:36Z</time>
			</trkpt>
			<trkpt lat="42.766159" lon="24.968383">
				<ele>1539.000000</ele>
				<time>2025-07-12T14:10:40Z</time>
			</trkpt>
			<trkpt lat="42.766164" lon="24.968381">
				<ele>1539.000000</ele>
				<time>2025-07-12T14:10:42Z</time>
			</trkpt>
			<trkpt lat="42.766163" lon="24.968381">
				<ele>1539.000000</ele>
				<time>2025-07-12T14:10:48Z</time>
			</trkpt>
			<trkpt lat="42.766189" lon="24.968352">
				<ele>1538.000000</ele>
				<time>2025-07-12T14:10:55Z</time>
			</trkpt>
			<trkpt lat="42.766193" lon="24.968336">
				<ele>1537.000000</ele>
				<time>2025-07-12T14:10:57Z</time>
			</trkpt>
			<trkpt lat="42.766205" lon="24.968296">
				<ele>1537.000000</ele>
				<time>2025-07-12T14:11:02Z</time>
			</trkpt>
			<trkpt lat="42.766233" lon="24.968318">
				<ele>1537.000000</ele>
				<time>2025-07-12T14:11:07Z</time>
			</trkpt>
			<trkpt lat="42.766237" lon="24.968316">
				<ele>1536.000000</ele>
				<time>2025-07-12T14:11:08Z</time>
			</trkpt>
			<trkpt lat="42.766243" lon="24.968315">
				<ele>1536.000000</ele>
				<time>2025-07-12T14:11:09Z</time>
			</trkpt>
			<trkpt lat="42.766272" lon="24.968296">
				<ele>1535.000000</ele>
				<time>2025-07-12T14:11:14Z</time>
			</trkpt>
			<trkpt lat="42.766282" lon="24.968261">
				<ele>1535.000000</ele>
				<time>2025-07-12T14:11:17Z</time>
			</trkpt>
			<trkpt lat="42.766282" lon="24.968242">
				<ele>1534.000000</ele>
				<time>2025-07-12T14:11:19Z</time>
			</trkpt>
			<trkpt lat="42.766297" lon="24.968220">
				<ele>1533.000000</ele>
				<time>2025-07-12T14:11:23Z</time>
			</trkpt>
			<trkpt lat="42.766320" lon="24.968197">
				<ele>1533.000000</ele>
				<time>2025-07-12T14:11:26Z</time>
			</trkpt>
			<trkpt lat="42.766343" lon="24.968174">
				<ele>1533.000000</ele>
				<time>2025-07-12T14:11:29Z</time>
			</trkpt>
			<trkpt lat="42.766353" lon="24.968137">
				<ele>1532.000000</ele>
				<time>2025-07-12T14:11:34Z</time>
			</trkpt>
			<trkpt lat="42.766355" lon="24.968127">
				<ele>1532.000000</ele>
				<time>2025-07-12T14:11:35Z</time>
			</trkpt>
			<trkpt lat="42.766373" lon="24.968090">
				<ele>1531.000000</ele>
				<time>2025-07-12T14:11:39Z</time>
			</trkpt>
			<trkpt lat="42.766382" lon="24.968031">
				<ele>1530.000000</ele>
				<time>2025-07-12T14:11:45Z</time>
			</trkpt>
			<trkpt lat="42.766390" lon="24.967986">
				<ele>1529.000000</ele>
				<time>2025-07-12T14:11:50Z</time>
			</trkpt>
			<trkpt lat="42.766414" lon="24.967972">
				<ele>1528.000000</ele>
				<time>2025-07-12T14:11:54Z</time>
			</trkpt>
			<trkpt lat="42.766431" lon="24.967921">
				<ele>1528.000000</ele>
				<time>2025-07-12T14:11:59Z</time>
			</trkpt>
			<trkpt lat="42.766433" lon="24.967911">
				<ele>1528.000000</ele>
				<time>2025-07-12T14:12:00Z</time>
			</trkpt>
			<trkpt lat="42.766455" lon="24.967850">
				<ele>1527.000000</ele>
				<time>2025-07-12T14:12:06Z</time>
			</trkpt>
			<trkpt lat="42.766464" lon="24.967827">
				<ele>1527.000000</ele>
				<time>2025-07-12T14:12:08Z</time>
			</trkpt>
			<trkpt lat="42.766486" lon="24.967793">
				<ele>1527.000000</ele>
				<time>2025-07-12T14:12:11Z</time>
			</trkpt>
			<trkpt lat="42.766509" lon="24.967752">
				<ele>1526.000000</ele>
				<time>2025-07-12T14:12:16Z</time>
			</trkpt>
			<trkpt lat="42.766541" lon="24.967687">
				<ele>1526.000000</ele>
				<time>2025-07-12T14:12:23Z</time>
			</trkpt>
			<trkpt lat="42.766555" lon="24.967664">
				<ele>1526.000000</ele>
				<time>2025-07-12T14:12:25Z</time>
			</trkpt>
			<trkpt lat="42.766592" lon="24.967618">
				<ele>1525.000000</ele>
				<time>2025-07-12T14:12:31Z</time>
			</trkpt>
			<trkpt lat="42.766625" lon="24.967579">
				<ele>1525.000000</ele>
				<time>2025-07-12T14:12:36Z</time>
			</trkpt>
			<trkpt lat="42.766637" lon="24.967546">
				<ele>1524.000000</ele>
				<time>2025-07-12T14:12:39Z</time>
			</trkpt>
			<trkpt lat="42.766659" lon="24.967508">
				<ele>1524.000000</ele>
				<time>2025-07-12T14:12:45Z</time>
			</trkpt>
			<trkpt lat="42.766665" lon="24.967504">
				<ele>1523.000000</ele>
				<time>2025-07-12T14:12:46Z</time>
			</trkpt>
			<trkpt lat="42.766710" lon="24.967504">
				<ele>1522.000000</ele>
				<time>2025-07-12T14:12:52Z</time>
			</trkpt>
			<trkpt lat="42.766733" lon="24.967497">
				<ele>1522.000000</ele>
				<time>2025-07-12T14:12:55Z</time>
			</trkpt>
			<trkpt lat="42.766768" lon="24.967461">
				<ele>1521.000000</ele>
				<time>2025-07-12T14:13:00Z</time>
			</trkpt>
			<trkpt lat="42.766790" lon="24.967445">
				<ele>1521.000000</ele>
				<time>2025-07-12T14:13:03Z</time>
			</trkpt>
			<trkpt lat="42.766798" lon="24.967427">
				<ele>1521.000000</ele>
				<time>2025-07-12T14:13:10Z</time>
			</trkpt>
			<trkpt lat="42.766810" lon="24.967453">
				<ele>1521.000000</ele>
				<time>2025-07-12T14:13:20Z</time>
			</trkpt>
			<trkpt lat="42.766806" lon="24.967442">
				<ele>1521.000000</ele>
				<time>2025-07-12T14:13:30Z</time>
			</trkpt>
			<trkpt lat="42.766835" lon="24.967475">
				<ele>1521.000000</ele>
				<time>2025-07-12T14:13:34Z</time>
			</trkpt>
			<trkpt lat="42.766846" lon="24.967477">
				<ele>1520.000000</ele>
				<time>2025-07-12T14:13:36Z</time>
			</trkpt>
			<trkpt lat="42.766853" lon="24.967478">
				<ele>1520.000000</ele>
				<time>2025-07-12T14:13:37Z</time>
			</trkpt>
			<trkpt lat="42.766898" lon="24.967473">
				<ele>1519.000000</ele>
				<time>2025-07-12T14:13:43Z</time>
			</trkpt>
			<trkpt lat="42.766901" lon="24.967477">
				<ele>1519.000000</ele>
				<time>2025-07-12T14:13:44Z</time>
			</trkpt>
			<trkpt lat="42.766936" lon="24.967504">
				<ele>1518.000000</ele>
				<time>2025-07-12T14:13:50Z</time>
			</trkpt>
			<trkpt lat="42.766954" lon="24.967508">
				<ele>1517.000000</ele>
				<time>2025-07-12T14:13:53Z</time>
			</trkpt>
			<trkpt lat="42.766998" lon="24.967482">
				<ele>1517.000000</ele>
				<time>2025-07-12T14:13:59Z</time>
			</trkpt>
			<trkpt lat="42.767006" lon="24.967478">
				<ele>1517.000000</ele>
				<time>2025-07-12T14:14:00Z</time>
			</trkpt>
			<trkpt lat="42.767065" lon="24.967459">
				<ele>1516.000000</ele>
				<time>2025-07-12T14:14:06Z</time>
			</trkpt>
			<trkpt lat="42.767100" lon="24.967424">
				<ele>1516.000000</ele>
				<time>2025-07-12T14:14:11Z</time>
			</trkpt>
			<trkpt lat="42.767106" lon="24.967420">
				<ele>1516.000000</ele>
				<time>2025-07-12T14:14:12Z</time>
			</trkpt>
			<trkpt lat="42.767130" lon="24.967396">
				<ele>1515.000000</ele>
				<time>2025-07-12T14:14:17Z</time>
			</trkpt>
			<trkpt lat="42.767138" lon="24.967390">
				<ele>1515.000000</ele>
				<time>2025-07-12T14:14:18Z</time>
			</trkpt>
			<trkpt lat="42.767154" lon="24.967376">
				<ele>1514.000000</ele>
				<time>2025-07-12T14:14:20Z</time>
			</trkpt>
			<trkpt lat="42.767175" lon="24.967369">
				<ele>1514.000000</ele>
				<time>2025-07-12T14:14:23Z</time>
			</trkpt>
			<trkpt lat="42.767187" lon="24.967360">
				<ele>1513.000000</ele>
				<time>2025-07-12T14:14:28Z</time>
			</trkpt>
			<trkpt lat="42.767208" lon="24.967347">
				<ele>1511.000000</ele>
				<time>2025-07-12T14:14:34Z</time>
			</trkpt>
			<trkpt lat="42.767212" lon="24.967341">
				<ele>1511.000000</ele>
				<time>2025-07-12T14:14:35Z</time>
			</trkpt>
			<trkpt lat="42.767237" lon="24.967314">
				<ele>1510.000000</ele>
				<time>2025-07-12T14:14:40Z</time>
			</trkpt>
			<trkpt lat="42.767241" lon="24.967308">
				<ele>1510.000000</ele>
				<time>2025-07-12T14:14:42Z</time>
			</trkpt>
			<trkpt lat="42.767245" lon="24.967293">
				<ele>1509.000000</ele>
				<time>2025-07-12T14:14:45Z</time>
			</trkpt>
			<trkpt lat="42.767264" lon="24.967259">
				<ele>1509.000000</ele>
				<time>2025-07-12T14:14:49Z</time>
			</trkpt>
			<trkpt lat="42.767269" lon="24.967259">
				<ele>1508.000000</ele>
				<time>2025-07-12T14:14:50Z</time>
			</trkpt>
			<trkpt lat="42.767298" lon="24.967254">
				<ele>1507.000000</ele>
				<time>2025-07-12T14:14:56Z</time>
			</trkpt>
			<trkpt lat="42.767289" lon="24.967257">
				<ele>1507.000000</ele>
				<time>2025-07-12T14:14:57Z</time>
			</trkpt>
			<trkpt lat="42.767297" lon="24.967263">
				<ele>1507.000000</ele>
				<time>2025-07-12T14:15:02Z</time>
			</trkpt>
			<trkpt lat="42.767303" lon="24.967262">
				<ele>1506.000000</ele>
				<time>2025-07-12T14:15:06Z</time>
			</trkpt>
			<trkpt lat="42.767328" lon="24.967251">
				<ele>1505.000000</ele>
				<time>2025-07-12T14:15:10Z</time>
			</trkpt>
			<trkpt lat="42.767334" lon="24.967239">
				<ele>1505.000000</ele>
				<time>2025-07-12T14:15:13Z</time>
			</trkpt>
			<trkpt lat="42.767340" lon="24.967239">
				<ele>1504.000000</ele>
				<time>2025-07-12T14:15:17Z</time>
			</trkpt>
			<trkpt lat="42.767338" lon="24.967243">
				<ele>1504.000000</ele>
				<time>2025-07-12T14:15:18Z</time>
			</trkpt>
			<trkpt lat="42.767335" lon="24.967241">
				<ele>1504.000000</ele>
				<time>2025-07-12T14:15:24Z</time>
			</trkpt>
			<trkpt lat="42.767337" lon="24.967239">
				<ele>1504.000000</ele>
				<time>2025-07-12T14:15:25Z</time>
			</trkpt>
			<trkpt lat="42.767359" lon="24.967234">
				<ele>1504.000000</ele>
				<time>2025-07-12T14:15:31Z</time>
			</trkpt>
			<trkpt lat="42.767372" lon="24.967234">
				<ele>1503.000000</ele>
				<time>2025-07-12T14:15:38Z</time>
			</trkpt>
			<trkpt lat="42.767371" lon="24.967247">
				<ele>1503.000000</ele>
				<time>2025-07-12T14:15:42Z</time>
			</trkpt>
			<trkpt lat="42.767371" lon="24.967239">
				<ele>1503.000000</ele>
				<time>2025-07-12T14:15:43Z</time>
			</trkpt>
			<trkpt lat="42.767370" lon="24.967234">
				<ele>1502.000000</ele>
				<time>2025-07-12T14:15:49Z</time>
			</trkpt>
			<trkpt lat="42.767368" lon="24.967239">
				<ele>1502.000000</ele>
				<time>2025-07-12T14:15:50Z</time>
			</trkpt>
			<trkpt lat="42.767378" lon="24.967239">
				<ele>1501.000000</ele>
				<time>2025-07-12T14:15:57Z</time>
			</trkpt>
			<trkpt lat="42.767388" lon="24.967225">
				<ele>1501.000000</ele>
				<time>2025-07-12T14:16:02Z</time>
			</trkpt>
			<trkpt lat="42.767395" lon="24.967215">
				<ele>1500.000000</ele>
				<time>2025-07-12T14:16:05Z</time>
			</trkpt>
			<trkpt lat="42.767429" lon="24.967202">
				<ele>1500.000000</ele>
				<time>2025-07-12T14:16:10Z</time>
			</trkpt>
			<trkpt lat="42.767439" lon="24.967198">
				<ele>1499.000000</ele>
				<time>2025-07-12T14:16:12Z</time>
			</trkpt>
			<trkpt lat="42.767457" lon="24.967188">
				<ele>1499.000000</ele>
				<time>2025-07-12T14:16:19Z</time>
			</trkpt>
			<trkpt lat="42.767461" lon="24.967184">
				<ele>1498.000000</ele>
				<time>2025-07-12T14:16:20Z</time>
			</trkpt>
			<trkpt lat="42.767466" lon="24.967182">
				<ele>1497.000000</ele>
				<time>2025-07-12T14:16:24Z</time>
			</trkpt>
			<trkpt lat="42.767478" lon="24.967179">
				<ele>1497.000000</ele>
				<time>2025-07-12T14:16:27Z</time>
			</trkpt>
			<trkpt lat="42.767486" lon="24.967180">
				<ele>1496.000000</ele>
				<time>2025-07-12T14:16:29Z</time>
			</trkpt>
			<trkpt lat="42.767502" lon="24.967176">
				<ele>1495.000000</ele>
				<time>2025-07-12T14:16:34Z</time>
			</trkpt>
			<trkpt lat="42.767506" lon="24.967180">
				<ele>1495.000000</ele>
				<time>2025-07-12T14:16:36Z</time>
			</trkpt>
			<trkpt lat="42.767535" lon="24.967163">
				<ele>1494.000000</ele>
				<time>2025-07-12T14:16:44Z</time>
			</trkpt>
			<trkpt lat="42.767554" lon="24.967156">
				<ele>1493.000000</ele>
				<time>2025-07-12T14:16:49Z</time>
			</trkpt>
			<trkpt lat="42.767563" lon="24.967152">
				<ele>1492.000000</ele>
				<time>2025-07-12T14:16:52Z</time>
			</trkpt>
			<trkpt lat="42.767566" lon="24.967149">
				<ele>1492.000000</ele>
				<time>2025-07-12T14:16:57Z</time>
			</trkpt>
			<trkpt lat="42.767564" lon="24.967148">
				<ele>1491.000000</ele>
				<time>2025-07-12T14:16:59Z</time>
			</trkpt>
			<trkpt lat="42.767561" lon="24.967151">
				<ele>1491.000000</ele>
				<time>2025-07-12T14:17:03Z</time>
			</trkpt>
			<trkpt lat="42.767554" lon="24.967151">
				<ele>1492.000000</ele>
				<time>2025-07-12T14:17:07Z</time>
			</trkpt>
			<trkpt lat="42.767548" lon="24.967158">
				<ele>1492.000000</ele>
				<time>2025-07-12T14:17:15Z</time>
			</trkpt>
			<trkpt lat="42.767547" lon="24.967160">
				<ele>1491.000000</ele>
				<time>2025-07-12T14:17:16Z</time>
			</trkpt>
			<trkpt lat="42.767595" lon="24.967132">
				<ele>1492.000000</ele>
				<time>2025-07-12T14:17:24Z</time>
			</trkpt>
			<trkpt lat="42.767598" lon="24.967119">
				<ele>1491.000000</ele>
				<time>2025-07-12T14:17:29Z</time>
			</trkpt>
			<trkpt lat="42.767612" lon="24.967116">
				<ele>1490.000000</ele>
				<time>2025-07-12T14:17:33Z</time>
			</trkpt>
			<trkpt lat="42.767618" lon="24.967111">
				<ele>1490.000000</ele>
				<time>2025-07-12T14:17:37Z</time>
			</trkpt>
			<trkpt lat="42.767624" lon="24.967099">
				<ele>1489.000000</ele>
				<time>2025-07-12T14:17:41Z</time>
			</trkpt>
			<trkpt lat="42.767633" lon="24.967089">
				<ele>1489.000000</ele>
				<time>2025-07-12T14:17:45Z</time>
			</trkpt>
			<trkpt lat="42.767645" lon="24.967065">
				<ele>1488.000000</ele>
				<time>2025-07-12T14:17:48Z</time>
			</trkpt>
			<trkpt lat="42.767656" lon="24.967033">
				<ele>1488.000000</ele>
				<time>2025-07-12T14:17:55Z</time>
			</trkpt>
			<trkpt lat="42.767663" lon="24.967031">
				<ele>1488.000000</ele>
				<time>2025-07-12T14:17:56Z</time>
			</trkpt>
			<trkpt lat="42.767699" lon="24.967036">
				<ele>1486.000000</ele>
				<time>2025-07-12T14:18:03Z</time>
			</trkpt>
			<trkpt lat="42.767698" lon="24.967031">
				<ele>1486.000000</ele>
				<time>2025-07-12T14:18:08Z</time>
			</trkpt>
			<trkpt lat="42.767699" lon="24.967027">
				<ele>1486.000000</ele>
				<time>2025-07-12T14:18:09Z</time>
			</trkpt>
			<trkpt lat="42.767703" lon="24.967031">
				<ele>1486.000000</ele>
				<time>2025-07-12T14:18:16Z</time>
			</trkpt>
			<trkpt lat="42.767728" lon="24.967041">
				<ele>1485.000000</ele>
				<time>2025-07-12T14:18:22Z</time>
			</trkpt>
			<trkpt lat="42.767732" lon="24.967042">
				<ele>1485.000000</ele>
				<time>2025-07-12T14:18:23Z</time>
			</trkpt>
			<trkpt lat="42.767751" lon="24.967033">
				<ele>1484.000000</ele>
				<time>2025-07-12T14:18:31Z</time>
			</trkpt>
			<trkpt lat="42.767756" lon="24.967030">
				<ele>1484.000000</ele>
				<time>2025-07-12T14:18:32Z</time>
			</trkpt>
			<trkpt lat="42.767789" lon="24.967022">
				<ele>1483.000000</ele>
				<time>2025-07-12T14:18:37Z</time>
			</trkpt>
			<trkpt lat="42.767804" lon="24.967014">
				<ele>1482.000000</ele>
				<time>2025-07-12T14:18:41Z</time>
			</trkpt>
			<trkpt lat="42.767813" lon="24.967015">
				<ele>1482.000000</ele>
				<time>2025-07-12T14:18:43Z</time>
			</trkpt>
			<trkpt lat="42.767823" lon="24.967017">
				<ele>1482.000000</ele>
				<time>2025-07-12T14:18:47Z</time>
			</trkpt>
			<trkpt lat="42.767828" lon="24.967013">
				<ele>1481.000000</ele>
				<time>2025-07-12T14:18:54Z</time>
			</trkpt>
			<trkpt lat="42.767831" lon="24.967014">
				<ele>1481.000000</ele>
				<time>2025-07-12T14:18:57Z</time>
			</trkpt>
			<trkpt lat="42.767848" lon="24.967007">
				<ele>1481.000000</ele>
				<time>2025-07-12T14:19:02Z</time>
			</trkpt>
			<trkpt lat="42.767861" lon="24.966998">
				<ele>1481.000000</ele>
				<time>2025-07-12T14:19:09Z</time>
			</trkpt>
			<trkpt lat="42.767870" lon="24.966994">
				<ele>1481.000000</ele>
				<time>2025-07-12T14:19:12Z</time>
			</trkpt>
			<trkpt lat="42.767896" lon="24.966981">
				<ele>1481.000000</ele>
				<time>2025-07-12T14:19:16Z</time>
			</trkpt>
			<trkpt lat="42.767901" lon="24.966978">
				<ele>1481.000000</ele>
				<time>2025-07-12T14:19:21Z</time>
			</trkpt>
			<trkpt lat="42.767921" lon="24.966972">
				<ele>1480.000000</ele>
				<time>2025-07-12T14:19:27Z</time>
			</trkpt>
			<trkpt lat="42.767922" lon="24.966975">
				<ele>1480.000000</ele>
				<time>2025-07-12T14:19:28Z</time>
			</trkpt>
			<trkpt lat="42.767928" lon="24.966976">
				<ele>1480.000000</ele>
				<time>2025-07-12T14:19:31Z</time>
			</trkpt>
			<trkpt lat="42.767940" lon="24.966971">
				<ele>1479.000000</ele>
				<time>2025-07-12T14:19:35Z</time>
			</trkpt>
			<trkpt lat="42.767970" lon="24.966972">
				<ele>1479.000000</ele>
				<time>2025-07-12T14:19:39Z</time>
			</trkpt>
			<trkpt lat="42.767999" lon="24.966960">
				<ele>1478.000000</ele>
				<time>2025-07-12T14:19:43Z</time>
			</trkpt>
			<trkpt lat="42.768007" lon="24.966960">
				<ele>1478.000000</ele>
				<time>2025-07-12T14:19:44Z</time>
			</trkpt>
			<trkpt lat="42.768033" lon="24.966964">
				<ele>1477.000000</ele>
				<time>2025-07-12T14:19:50Z</time>
			</trkpt>
			<trkpt lat="42.768040" lon="24.966964">
				<ele>1476.000000</ele>
				<time>2025-07-12T14:19:52Z</time>
			</trkpt>
			<trkpt lat="42.768045" lon="24.966967">
				<ele>1476.000000</ele>
				<time>2025-07-12T14:19:55Z</time>
			</trkpt>
			<trkpt lat="42.768071" lon="24.966943">
				<ele>1476.000000</ele>
				<time>2025-07-12T14:20:02Z</time>
			</trkpt>
			<trkpt lat="42.768075" lon="24.966940">
				<ele>1476.000000</ele>
				<time>2025-07-12T14:20:03Z</time>
			</trkpt>
			<trkpt lat="42.768090" lon="24.966931">
				<ele>1476.000000</ele>
				<time>2025-07-12T14:20:07Z</time>
			</trkpt>
			<trkpt lat="42.768098" lon="24.966930">
				<ele>1475.000000</ele>
				<time>2025-07-12T14:20:08Z</time>
			</trkpt>
			<trkpt lat="42.768116" lon="24.966934">
				<ele>1475.000000</ele>
				<time>2025-07-12T14:20:11Z</time>
			</trkpt>
			<trkpt lat="42.768121" lon="24.966930">
				<ele>1474.000000</ele>
				<time>2025-07-12T14:20:15Z</time>
			</trkpt>
			<trkpt lat="42.768125" lon="24.966923">
				<ele>1474.000000</ele>
				<time>2025-07-12T14:20:18Z</time>
			</trkpt>
			<trkpt lat="42.768149" lon="24.966901">
				<ele>1473.000000</ele>
				<time>2025-07-12T14:20:24Z</time>
			</trkpt>
			<trkpt lat="42.768152" lon="24.966903">
				<ele>1473.000000</ele>
				<time>2025-07-12T14:20:25Z</time>
			</trkpt>
			<trkpt lat="42.768156" lon="24.966903">
				<ele>1473.000000</ele>
				<time>2025-07-12T14:20:26Z</time>
			</trkpt>
			<trkpt lat="42.768182" lon="24.966887">
				<ele>1472.000000</ele>
				<time>2025-07-12T14:20:34Z</time>
			</trkpt>
			<trkpt lat="42.768187" lon="24.966877">
				<ele>1472.000000</ele>
				<time>2025-07-12T14:20:36Z</time>
			</trkpt>
			<trkpt lat="42.768210" lon="24.966852">
				<ele>1471.000000</ele>
				<time>2025-07-12T14:20:42Z</time>
			</trkpt>
			<trkpt lat="42.768220" lon="24.966841">
				<ele>1471.000000</ele>
				<time>2025-07-12T14:20:45Z</time>
			</trkpt>
			<trkpt lat="42.768236" lon="24.966803">
				<ele>1470.000000</ele>
				<time>2025-07-12T14:20:51Z</time>
			</trkpt>
			<trkpt lat="42.768241" lon="24.966794">
				<ele>1470.000000</ele>
				<time>2025-07-12T14:20:52Z</time>
			</trkpt>
			<trkpt lat="42.768269" lon="24.966751">
				<ele>1469.000000</ele>
				<time>2025-07-12T14:20:58Z</time>
			</trkpt>
			<trkpt lat="42.768284" lon="24.966718">
				<ele>1469.000000</ele>
				<time>2025-07-12T14:21:05Z</time>
			</trkpt>
			<trkpt lat="42.768285" lon="24.966715">
				<ele>1469.000000</ele>
				<time>2025-07-12T14:21:06Z</time>
			</trkpt>
			<trkpt lat="42.768315" lon="24.966677">
				<ele>1468.000000</ele>
				<time>2025-07-12T14:21:12Z</time>
			</trkpt>
			<trkpt lat="42.768330" lon="24.966660">
				<ele>1468.000000</ele>
				<time>2025-07-12T14:21:16Z</time>
			</trkpt>
			<trkpt lat="42.768336" lon="24.966660">
				<ele>1467.000000</ele>
				<time>2025-07-12T14:21:20Z</time>
			</trkpt>
			<trkpt lat="42.768352" lon="24.966635">
				<ele>1466.000000</ele>
				<time>2025-07-12T14:21:24Z</time>
			</trkpt>
			<trkpt lat="42.768360" lon="24.966617">
				<ele>1466.000000</ele>
				<time>2025-07-12T14:21:26Z</time>
			</trkpt>
			<trkpt lat="42.768373" lon="24.966567">
				<ele>1466.000000</ele>
				<time>2025-07-12T14:21:34Z</time>
			</trkpt>
			<trkpt lat="42.768371" lon="24.966562">
				<ele>1465.000000</ele>
				<time>2025-07-12T14:21:36Z</time>
			</trkpt>
			<trkpt lat="42.768382" lon="24.966534">
				<ele>1464.000000</ele>
				<time>2025-07-12T14:21:39Z</time>
			</trkpt>
			<trkpt lat="42.768407" lon="24.966500">
				<ele>1463.000000</ele>
				<time>2025-07-12T14:21:44Z</time>
			</trkpt>
			<trkpt lat="42.768392" lon="24.966476">
				<ele>1462.000000</ele>
				<time>2025-07-12T14:21:48Z</time>
			</trkpt>
			<trkpt lat="42.768383" lon="24.966457">
				<ele>1461.000000</ele>
				<time>2025-07-12T14:21:51Z</time>
			</trkpt>
			<trkpt lat="42.768389" lon="24.966425">
				<ele>1461.000000</ele>
				<time>2025-07-12T14:21:54Z</time>
			</trkpt>
			<trkpt lat="42.768397" lon="24.966416">
				<ele>1460.000000</ele>
				<time>2025-07-12T14:21:56Z</time>
			</trkpt>
			<trkpt lat="42.768417" lon="24.966394">
				<ele>1460.000000</ele>
				<time>2025-07-12T14:22:02Z</time>
			</trkpt>
			<trkpt lat="42.768421" lon="24.966392">
				<ele>1460.000000</ele>
				<time>2025-07-12T14:22:03Z</time>
			</trkpt>
			<trkpt lat="42.768423" lon="24.966382">
				<ele>1459.000000</ele>
				<time>2025-07-12T14:22:08Z</time>
			</trkpt>
			<trkpt lat="42.768423" lon="24.966381">
				<ele>1458.000000</ele>
				<time>2025-07-12T14:22:11Z</time>
			</trkpt>
			<trkpt lat="42.768434" lon="24.966385">
				<ele>1459.000000</ele>
				<time>2025-07-12T14:22:14Z</time>
			</trkpt>
			<trkpt lat="42.768445" lon="24.966385">
				<ele>1458.000000</ele>
				<time>2025-07-12T14:22:17Z</time>
			</trkpt>
			<trkpt lat="42.768456" lon="24.966382">
				<ele>1458.000000</ele>
				<time>2025-07-12T14:22:19Z</time>
			</trkpt>
			<trkpt lat="42.768460" lon="24.966384">
				<ele>1457.000000</ele>
				<time>2025-07-12T14:22:20Z</time>
			</trkpt>
			<trkpt lat="42.768460" lon="24.966381">
				<ele>1456.000000</ele>
				<time>2025-07-12T14:22:22Z</time>
			</trkpt>
			<trkpt lat="42.768472" lon="24.966378">
				<ele>1455.000000</ele>
				<time>2025-07-12T14:22:25Z</time>
			</trkpt>
			<trkpt lat="42.768478" lon="24.966380">
				<ele>1455.000000</ele>
				<time>2025-07-12T14:22:28Z</time>
			</trkpt>
			<trkpt lat="42.768478" lon="24.966378">
				<ele>1455.000000</ele>
				<time>2025-07-12T14:22:29Z</time>
			</trkpt>
			<trkpt lat="42.768477" lon="24.966377">
				<ele>1455.000000</ele>
				<time>2025-07-12T14:22:31Z</time>
			</trkpt>
			<trkpt lat="42.768469" lon="24.966378">
				<ele>1453.000000</ele>
				<time>2025-07-12T14:22:34Z</time>
			</trkpt>
			<trkpt lat="42.768468" lon="24.966378">
				<ele>1453.000000</ele>
				<time>2025-07-12T14:22:35Z</time>
			</trkpt>
			<trkpt lat="42.768452" lon="24.966376">
				<ele>1452.000000</ele>
				<time>2025-07-12T14:22:40Z</time>
			</trkpt>
			<trkpt lat="42.768451" lon="24.966377">
				<ele>1452.000000</ele>
				<time>2025-07-12T14:22:42Z</time>
			</trkpt>
			<trkpt lat="42.768466" lon="24.966385">
				<ele>1451.000000</ele>
				<time>2025-07-12T14:22:44Z</time>
			</trkpt>
			<trkpt lat="42.768476" lon="24.966382">
				<ele>1449.000000</ele>
				<time>2025-07-12T14:22:46Z</time>
			</trkpt>
			<trkpt lat="42.768476" lon="24.966378">
				<ele>1448.000000</ele>
				<time>2025-07-12T14:22:48Z</time>
			</trkpt>
			<trkpt lat="42.768473" lon="24.966378">
				<ele>1448.000000</ele>
				<time>2025-07-12T14:22:49Z</time>
			</trkpt>
			<trkpt lat="42.768477" lon="24.966378">
				<ele>1447.000000</ele>
				<time>2025-07-12T14:22:52Z</time>
			</trkpt>
			<trkpt lat="42.768480" lon="24.966377">
				<ele>1446.000000</ele>
				<time>2025-07-12T14:22:56Z</time>
			</trkpt>
			<trkpt lat="42.768481" lon="24.966376">
				<ele>1446.000000</ele>
				<time>2025-07-12T14:22:57Z</time>
			</trkpt>
			<trkpt lat="42.768485" lon="24.966378">
				<ele>1445.000000</ele>
				<time>2025-07-12T14:23:00Z</time>
			</trkpt>
			<trkpt lat="42.768492" lon="24.966374">
				<ele>1443.000000</ele>
				<time>2025-07-12T14:23:03Z</time>
			</trkpt>
			<trkpt lat="42.768514" lon="24.966378">
				<ele>1442.000000</ele>
				<time>2025-07-12T14:23:06Z</time>
			</trkpt>
			<trkpt lat="42.768522" lon="24.966380">
				<ele>1441.000000</ele>
				<time>2025-07-12T14:23:07Z</time>
			</trkpt>
			<trkpt lat="42.768529" lon="24.966384">
				<ele>1440.000000</ele>
				<time>2025-07-12T14:23:10Z</time>
			</trkpt>
			<trkpt lat="42.768533" lon="24.966354">
				<ele>1439.000000</ele>
				<time>2025-07-12T14:23:13Z</time>
			</trkpt>
			<trkpt lat="42.768547" lon="24.966343">
				<ele>1438.000000</ele>
				<time>2025-07-12T14:23:15Z</time>
			</trkpt>
			<trkpt lat="42.768563" lon="24.966348">
				<ele>1437.000000</ele>
				<time>2025-07-12T14:23:19Z</time>
			</trkpt>
			<trkpt lat="42.768578" lon="24.966345">
				<ele>1436.000000</ele>
				<time>2025-07-12T14:23:22Z</time>
			</trkpt>
			<trkpt lat="42.768584" lon="24.966339">
				<ele>1435.000000</ele>
				<time>2025-07-12T14:23:24Z</time>
			</trkpt>
			<trkpt lat="42.768589" lon="24.966338">
				<ele>1434.000000</ele>
				<time>2025-07-12T14:23:25Z</time>
			</trkpt>
			<trkpt lat="42.768608" lon="24.966323">
				<ele>1433.000000</ele>
				<time>2025-07-12T14:23:30Z</time>
			</trkpt>
			<trkpt lat="42.768613" lon="24.966319">
				<ele>1433.000000</ele>
				<time>2025-07-12T14:23:31Z</time>
			</trkpt>
			<trkpt lat="42.768613" lon="24.966317">
				<ele>1433.000000</ele>
				<time>2025-07-12T14:23:33Z</time>
			</trkpt>
			<trkpt lat="42.768620" lon="24.966319">
				<ele>1432.000000</ele>
				<time>2025-07-12T14:23:34Z</time>
			</trkpt>
			<trkpt lat="42.768624" lon="24.966323">
				<ele>1432.000000</ele>
				<time>2025-07-12T14:23:35Z</time>
			</trkpt>
			<trkpt lat="42.768632" lon="24.966330">
				<ele>1432.000000</ele>
				<time>2025-07-12T14:23:37Z</time>
			</trkpt>
			<trkpt lat="42.768636" lon="24.966330">
				<ele>1432.000000</ele>
				<time>2025-07-12T14:23:38Z</time>
			</trkpt>
			<trkpt lat="42.768656" lon="24.966337">
				<ele>1431.000000</ele>
				<time>2025-07-12T14:23:41Z</time>
			</trkpt>
			<trkpt lat="42.768674" lon="24.966337">
				<ele>1430.000000</ele>
				<time>2025-07-12T14:23:44Z</time>
			</trkpt>
			<trkpt lat="42.768691" lon="24.966313">
				<ele>1429.000000</ele>
				<time>2025-07-12T14:23:49Z</time>
			</trkpt>
			<trkpt lat="42.768695" lon="24.966295">
				<ele>1428.000000</ele>
				<time>2025-07-12T14:23:51Z</time>
			</trkpt>
			<trkpt lat="42.768699" lon="24.966291">
				<ele>1427.000000</ele>
				<time>2025-07-12T14:23:52Z</time>
			</trkpt>
			<trkpt lat="42.768706" lon="24.966299">
				<ele>1426.000000</ele>
				<time>2025-07-12T14:23:55Z</time>
			</trkpt>
			<trkpt lat="42.768713" lon="24.966310">
				<ele>1425.000000</ele>
				<time>2025-07-12T14:23:57Z</time>
			</trkpt>
			<trkpt lat="42.768718" lon="24.966317">
				<ele>1425.000000</ele>
				<time>2025-07-12T14:23:59Z</time>
			</trkpt>
			<trkpt lat="42.768726" lon="24.966333">
				<ele>1424.000000</ele>
				<time>2025-07-12T14:24:03Z</time>
			</trkpt>
			<trkpt lat="42.768729" lon="24.966335">
				<ele>1423.000000</ele>
				<time>2025-07-12T14:24:06Z</time>
			</trkpt>
			<trkpt lat="42.768731" lon="24.966334">
				<ele>1423.000000</ele>
				<time>2025-07-12T14:24:07Z</time>
			</trkpt>
			<trkpt lat="42.768740" lon="24.966356">
				<ele>1422.000000</ele>
				<time>2025-07-12T14:24:13Z</time>
			</trkpt>
			<trkpt lat="42.768742" lon="24.966354">
				<ele>1421.000000</ele>
				<time>2025-07-12T14:24:16Z</time>
			</trkpt>
			<trkpt lat="42.768739" lon="24.966346">
				<ele>1421.000000</ele>
				<time>2025-07-12T14:24:18Z</time>
			</trkpt>
			<trkpt lat="42.768740" lon="24.966348">
				<ele>1420.000000</ele>
				<time>2025-07-12T14:24:19Z</time>
			</trkpt>
			<trkpt lat="42.768755" lon="24.966354">
				<ele>1420.000000</ele>
				<time>2025-07-12T14:24:24Z</time>
			</trkpt>
			<trkpt lat="42.768761" lon="24.966350">
				<ele>1419.000000</ele>
				<time>2025-07-12T14:24:25Z</time>
			</trkpt>
			<trkpt lat="42.768775" lon="24.966339">
				<ele>1418.000000</ele>
				<time>2025-07-12T14:24:28Z</time>
			</trkpt>
			<trkpt lat="42.768781" lon="24.966334">
				<ele>1418.000000</ele>
				<time>2025-07-12T14:24:29Z</time>
			</trkpt>
			<trkpt lat="42.768790" lon="24.966319">
				<ele>1417.000000</ele>
				<time>2025-07-12T14:24:31Z</time>
			</trkpt>
			<trkpt lat="42.768799" lon="24.966309">
				<ele>1417.000000</ele>
				<time>2025-07-12T14:24:32Z</time>
			</trkpt>
			<trkpt lat="42.768818" lon="24.966293">
				<ele>1416.000000</ele>
				<time>2025-07-12T14:24:35Z</time>
			</trkpt>
			<trkpt lat="42.768830" lon="24.966290">
				<ele>1415.000000</ele>
				<time>2025-07-12T14:24:38Z</time>
			</trkpt>
			<trkpt lat="42.768839" lon="24.966280">
				<ele>1414.000000</ele>
				<time>2025-07-12T14:24:41Z</time>
			</trkpt>
			<trkpt lat="42.768864" lon="24.966256">
				<ele>1413.000000</ele>
				<time>2025-07-12T14:24:44Z</time>
			</trkpt>
			<trkpt lat="42.768875" lon="24.966248">
				<ele>1412.000000</ele>
				<time>2025-07-12T14:24:45Z</time>
			</trkpt>
			<trkpt lat="42.768893" lon="24.966242">
				<ele>1411.000000</ele>
				<time>2025-07-12T14:24:48Z</time>
			</trkpt>
			<trkpt lat="42.768911" lon="24.966234">
				<ele>1410.000000</ele>
				<time>2025-07-12T14:24:51Z</time>
			</trkpt>
			<trkpt lat="42.768936" lon="24.966231">
				<ele>1409.000000</ele>
				<time>2025-07-12T14:24:54Z</time>
			</trkpt>
			<trkpt lat="42.768964" lon="24.966213">
				<ele>1408.000000</ele>
				<time>2025-07-12T14:24:58Z</time>
			</trkpt>
			<trkpt lat="42.768976" lon="24.966209">
				<ele>1407.000000</ele>
				<time>2025-07-12T14:25:01Z</time>
			</trkpt>
			<trkpt lat="42.769005" lon="24.966205">
				<ele>1406.000000</ele>
				<time>2025-07-12T14:25:05Z</time>
			</trkpt>
			<trkpt lat="42.769039" lon="24.966204">
				<ele>1405.000000</ele>
				<time>2025-07-12T14:25:14Z</time>
			</trkpt>
			<trkpt lat="42.769025" lon="24.966199">
				<ele>1405.000000</ele>
				<time>2025-07-12T14:25:24Z</time>
			</trkpt>
			<trkpt lat="42.769022" lon="24.966197">
				<ele>1405.000000</ele>
				<time>2025-07-12T14:25:29Z</time>
			</trkpt>
			<trkpt lat="42.769025" lon="24.966193">
				<ele>1405.000000</ele>
				<time>2025-07-12T14:25:31Z</time>
			</trkpt>
			<trkpt lat="42.769048" lon="24.966183">
				<ele>1404.000000</ele>
				<time>2025-07-12T14:25:41Z</time>
			</trkpt>
			<trkpt lat="42.769069" lon="24.966180">
				<ele>1404.000000</ele>
				<time>2025-07-12T14:25:45Z</time>
			</trkpt>
			<trkpt lat="42.769096" lon="24.966179">
				<ele>1403.000000</ele>
				<time>2025-07-12T14:25:50Z</time>
			</trkpt>
			<trkpt lat="42.769105" lon="24.966176">
				<ele>1403.000000</ele>
				<time>2025-07-12T14:25:52Z</time>
			</trkpt>
			<trkpt lat="42.769142" lon="24.966175">
				<ele>1403.000000</ele>
				<time>2025-07-12T14:25:57Z</time>
			</trkpt>
			<trkpt lat="42.769140" lon="24.966169">
				<ele>1402.000000</ele>
				<time>2025-07-12T14:26:05Z</time>
			</trkpt>
			<trkpt lat="42.769181" lon="24.966180">
				<ele>1402.000000</ele>
				<time>2025-07-12T14:26:13Z</time>
			</trkpt>
			<trkpt lat="42.769200" lon="24.966183">
				<ele>1402.000000</ele>
				<time>2025-07-12T14:26:18Z</time>
			</trkpt>
			<trkpt lat="42.769220" lon="24.966185">
				<ele>1402.000000</ele>
				<time>2025-07-12T14:26:21Z</time>
			</trkpt>
			<trkpt lat="42.769221" lon="24.966187">
				<ele>1402.000000</ele>
				<time>2025-07-12T14:26:22Z</time>
			</trkpt>
			<trkpt lat="42.769247" lon="24.966183">
				<ele>1402.000000</ele>
				<time>2025-07-12T14:26:30Z</time>
			</trkpt>
			<trkpt lat="42.769267" lon="24.966170">
				<ele>1402.000000</ele>
				<time>2025-07-12T14:26:32Z</time>
			</trkpt>
			<trkpt lat="42.769283" lon="24.966162">
				<ele>1402.000000</ele>
				<time>2025-07-12T14:26:35Z</time>
			</trkpt>
			<trkpt lat="42.769289" lon="24.966177">
				<ele>1402.000000</ele>
				<time>2025-07-12T14:26:41Z</time>
			</trkpt>
			<trkpt lat="42.769281" lon="24.966189">
				<ele>1402.000000</ele>
				<time>2025-07-12T14:26:49Z</time>
			</trkpt>
			<trkpt lat="42.769348" lon="24.966166">
				<ele>1402.000000</ele>
				<time>2025-07-12T14:26:59Z</time>
			</trkpt>
			<trkpt lat="42.769428" lon="24.966165">
				<ele>1402.000000</ele>
				<time>2025-07-12T14:27:06Z</time>
			</trkpt>
			<trkpt lat="42.769476" lon="24.966146">
				<ele>1402.000000</ele>
				<time>2025-07-12T14:27:10Z</time>
			</trkpt>
			<trkpt lat="42.769498" lon="24.966132">
				<ele>1401.000000</ele>
				<time>2025-07-12T14:27:12Z</time>
			</trkpt>
			<trkpt lat="42.769587" lon="24.966125">
				<ele>1402.000000</ele>
				<time>2025-07-12T14:27:21Z</time>
			</trkpt>
			<trkpt lat="42.769665" lon="24.966114">
				<ele>1402.000000</ele>
				<time>2025-07-12T14:27:29Z</time>
			</trkpt>
			<trkpt lat="42.769726" lon="24.966078">
				<ele>1402.000000</ele>
				<time>2025-07-12T14:27:36Z</time>
			</trkpt>
			<trkpt lat="42.769736" lon="24.966071">
				<ele>1402.000000</ele>
				<time>2025-07-12T14:27:37Z</time>
			</trkpt>
			<trkpt lat="42.769810" lon="24.966018">
				<ele>1401.000000</ele>
				<time>2025-07-12T14:27:46Z</time>
			</trkpt>
			<trkpt lat="42.769900" lon="24.965951">
				<ele>1401.000000</ele>
				<time>2025-07-12T14:27:55Z</time>
			</trkpt>
			<trkpt lat="42.769902" lon="24.965951">
				<ele>1401.000000</ele>
				<time>2025-07-12T14:27:59Z</time>
			</trkpt>
			<trkpt lat="42.769894" lon="24.965957">
				<ele>1401.000000</ele>
				<time>2025-07-12T14:28:01Z</time>
			</trkpt>
			<trkpt lat="42.769919" lon="24.965955">
				<ele>1402.000000</ele>
				<time>2025-07-12T14:28:05Z</time>
			</trkpt>
			<trkpt lat="42.769934" lon="24.965948">
				<ele>1402.000000</ele>
				<time>2025-07-12T14:28:06Z</time>
			</trkpt>
			<trkpt lat="42.769946" lon="24.965945">
				<ele>1402.000000</ele>
				<time>2025-07-12T14:28:07Z</time>
			</trkpt>
			<trkpt lat="42.769987" lon="24.965924">
				<ele>1402.000000</ele>
				<time>2025-07-12T14:28:13Z</time>
			</trkpt>
			<trkpt lat="42.769998" lon="24.965916">
				<ele>1403.000000</ele>
				<time>2025-07-12T14:28:16Z</time>
			</trkpt>
			<trkpt lat="42.770009" lon="24.965906">
				<ele>1402.000000</ele>
				<time>2025-07-12T14:28:19Z</time>
			</trkpt>
			<trkpt lat="42.770005" lon="24.965896">
				<ele>1402.000000</ele>
				<time>2025-07-12T14:28:25Z</time>
			</trkpt>
			<trkpt lat="42.770014" lon="24.965879">
				<ele>1402.000000</ele>
				<time>2025-07-12T14:28:29Z</time>
			</trkpt>
			<trkpt lat="42.770027" lon="24.965879">
				<ele>1401.000000</ele>
				<time>2025-07-12T14:28:32Z</time>
			</trkpt>
			<trkpt lat="42.770075" lon="24.965866">
				<ele>1401.000000</ele>
				<time>2025-07-12T14:28:38Z</time>
			</trkpt>
			<trkpt lat="42.770087" lon="24.965853">
				<ele>1401.000000</ele>
				<time>2025-07-12T14:28:45Z</time>
			</trkpt>
			<trkpt lat="42.770091" lon="24.965846">
				<ele>1401.000000</ele>
				<time>2025-07-12T14:28:46Z</time>
			</trkpt>
			<trkpt lat="42.770114" lon="24.965812">
				<ele>1399.000000</ele>
				<time>2025-07-12T14:28:53Z</time>
			</trkpt>
			<trkpt lat="42.770149" lon="24.965769">
				<ele>1398.000000</ele>
				<time>2025-07-12T14:28:59Z</time>
			</trkpt>
			<trkpt lat="42.770156" lon="24.965761">
				<ele>1398.000000</ele>
				<time>2025-07-12T14:29:00Z</time>
			</trkpt>
			<trkpt lat="42.770177" lon="24.965736">
				<ele>1397.000000</ele>
				<time>2025-07-12T14:29:06Z</time>
			</trkpt>
			<trkpt lat="42.770187" lon="24.965727">
				<ele>1397.000000</ele>
				<time>2025-07-12T14:29:08Z</time>
			</trkpt>
			<trkpt lat="42.770240" lon="24.965684">
				<ele>1396.000000</ele>
				<time>2025-07-12T14:29:16Z</time>
			</trkpt>
			<trkpt lat="42.770277" lon="24.965631">
				<ele>1396.000000</ele>
				<time>2025-07-12T14:29:22Z</time>
			</trkpt>
			<trkpt lat="42.770317" lon="24.965584">
				<ele>1396.000000</ele>
				<time>2025-07-12T14:29:29Z</time>
			</trkpt>
			<trkpt lat="42.770356" lon="24.965580">
				<ele>1396.000000</ele>
				<time>2025-07-12T14:29:36Z</time>
			</trkpt>
			<trkpt lat="42.770375" lon="24.965571">
				<ele>1395.000000</ele>
				<time>2025-07-12T14:29:40Z</time>
			</trkpt>
			<trkpt lat="42.770370" lon="24.965547">
				<ele>1395.000000</ele>
				<time>2025-07-12T14:29:44Z</time>
			</trkpt>
			<trkpt lat="42.770378" lon="24.965525">
				<ele>1394.000000</ele>
				<time>2025-07-12T14:29:49Z</time>
			</trkpt>
			<trkpt lat="42.770377" lon="24.965511">
				<ele>1394.000000</ele>
				<time>2025-07-12T14:29:52Z</time>
			</trkpt>
			<trkpt lat="42.770381" lon="24.965495">
				<ele>1393.000000</ele>
				<time>2025-07-12T14:29:55Z</time>
			</trkpt>
			<trkpt lat="42.770393" lon="24.965478">
				<ele>1392.000000</ele>
				<time>2025-07-12T14:29:59Z</time>
			</trkpt>
			<trkpt lat="42.770380" lon="24.965483">
				<ele>1392.000000</ele>
				<time>2025-07-12T14:30:02Z</time>
			</trkpt>
			<trkpt lat="42.770369" lon="24.965485">
				<ele>1392.000000</ele>
				<time>2025-07-12T14:30:06Z</time>
			</trkpt>
			<trkpt lat="42.770379" lon="24.965466">
				<ele>1391.000000</ele>
				<time>2025-07-12T14:30:10Z</time>
			</trkpt>
			<trkpt lat="42.770393" lon="24.965453">
				<ele>1390.000000</ele>
				<time>2025-07-12T14:30:13Z</time>
			</trkpt>
			<trkpt lat="42.770403" lon="24.965433">
				<ele>1390.000000</ele>
				<time>2025-07-12T14:30:18Z</time>
			</trkpt>
			<trkpt lat="42.770410" lon="24.965423">
				<ele>1389.000000</ele>
				<time>2025-07-12T14:30:20Z</time>
			</trkpt>
			<trkpt lat="42.770420" lon="24.965411">
				<ele>1389.000000</ele>
				<time>2025-07-12T14:30:26Z</time>
			</trkpt>
			<trkpt lat="42.770428" lon="24.965405">
				<ele>1388.000000</ele>
				<time>2025-07-12T14:30:28Z</time>
			</trkpt>
			<trkpt lat="42.770459" lon="24.965398">
				<ele>1388.000000</ele>
				<time>2025-07-12T14:30:34Z</time>
			</trkpt>
			<trkpt lat="42.770453" lon="24.965406">
				<ele>1387.000000</ele>
				<time>2025-07-12T14:30:35Z</time>
			</trkpt>
			<trkpt lat="42.770470" lon="24.965403">
				<ele>1387.000000</ele>
				<time>2025-07-12T14:30:42Z</time>
			</trkpt>
			<trkpt lat="42.770515" lon="24.965387">
				<ele>1386.000000</ele>
				<time>2025-07-12T14:30:48Z</time>
			</trkpt>
			<trkpt lat="42.770516" lon="24.965387">
				<ele>1386.000000</ele>
				<time>2025-07-12T14:30:49Z</time>
			</trkpt>
			<trkpt lat="42.770549" lon="24.965360">
				<ele>1385.000000</ele>
				<time>2025-07-12T14:30:56Z</time>
			</trkpt>
			<trkpt lat="42.770554" lon="24.965358">
				<ele>1385.000000</ele>
				<time>2025-07-12T14:30:57Z</time>
			</trkpt>
			<trkpt lat="42.770587" lon="24.965330">
				<ele>1384.000000</ele>
				<time>2025-07-12T14:31:03Z</time>
			</trkpt>
			<trkpt lat="42.770608" lon="24.965328">
				<ele>1383.000000</ele>
				<time>2025-07-12T14:31:08Z</time>
			</trkpt>
			<trkpt lat="42.770618" lon="24.965322">
				<ele>1382.000000</ele>
				<time>2025-07-12T14:31:11Z</time>
			</trkpt>
			<trkpt lat="42.770642" lon="24.965314">
				<ele>1382.000000</ele>
				<time>2025-07-12T14:31:14Z</time>
			</trkpt>
			<trkpt lat="42.770662" lon="24.965281">
				<ele>1381.000000</ele>
				<time>2025-07-12T14:31:18Z</time>
			</trkpt>
			<trkpt lat="42.770667" lon="24.965279">
				<ele>1381.000000</ele>
				<time>2025-07-12T14:31:20Z</time>
			</trkpt>
			<trkpt lat="42.770654" lon="24.965281">
				<ele>1381.000000</ele>
				<time>2025-07-12T14:31:26Z</time>
			</trkpt>
			<trkpt lat="42.770666" lon="24.965267">
				<ele>1381.000000</ele>
				<time>2025-07-12T14:31:33Z</time>
			</trkpt>
			<trkpt lat="42.770668" lon="24.965242">
				<ele>1381.000000</ele>
				<time>2025-07-12T14:31:39Z</time>
			</trkpt>
			<trkpt lat="42.770678" lon="24.965230">
				<ele>1380.000000</ele>
				<time>2025-07-12T14:31:41Z</time>
			</trkpt>
			<trkpt lat="42.770708" lon="24.965204">
				<ele>1380.000000</ele>
				<time>2025-07-12T14:31:45Z</time>
			</trkpt>
			<trkpt lat="42.770716" lon="24.965167">
				<ele>1380.000000</ele>
				<time>2025-07-12T14:31:48Z</time>
			</trkpt>
			<trkpt lat="42.770717" lon="24.965157">
				<ele>1380.000000</ele>
				<time>2025-07-12T14:31:49Z</time>
			</trkpt>
			<trkpt lat="42.770731" lon="24.965116">
				<ele>1379.000000</ele>
				<time>2025-07-12T14:31:54Z</time>
			</trkpt>
			<trkpt lat="42.770731" lon="24.965119">
				<ele>1379.000000</ele>
				<time>2025-07-12T14:31:57Z</time>
			</trkpt>
			<trkpt lat="42.770760" lon="24.965088">
				<ele>1378.000000</ele>
				<time>2025-07-12T14:32:02Z</time>
			</trkpt>
			<trkpt lat="42.770778" lon="24.965061">
				<ele>1378.000000</ele>
				<time>2025-07-12T14:32:05Z</time>
			</trkpt>
			<trkpt lat="42.770807" lon="24.965018">
				<ele>1377.000000</ele>
				<time>2025-07-12T14:32:11Z</time>
			</trkpt>
			<trkpt lat="42.770831" lon="24.965002">
				<ele>1377.000000</ele>
				<time>2025-07-12T14:32:15Z</time>
			</trkpt>
			<trkpt lat="42.770846" lon="24.964994">
				<ele>1376.000000</ele>
				<time>2025-07-12T14:32:17Z</time>
			</trkpt>
			<trkpt lat="42.770861" lon="24.964959">
				<ele>1376.000000</ele>
				<time>2025-07-12T14:32:22Z</time>
			</trkpt>
			<trkpt lat="42.770875" lon="24.964958">
				<ele>1375.000000</ele>
				<time>2025-07-12T14:32:24Z</time>
			</trkpt>
			<trkpt lat="42.770878" lon="24.964957">
				<ele>1375.000000</ele>
				<time>2025-07-12T14:32:25Z</time>
			</trkpt>
			<trkpt lat="42.770907" lon="24.964926">
				<ele>1375.000000</ele>
				<time>2025-07-12T14:32:30Z</time>
			</trkpt>
			<trkpt lat="42.770927" lon="24.964911">
				<ele>1374.000000</ele>
				<time>2025-07-12T14:32:33Z</time>
			</trkpt>
			<trkpt lat="42.770946" lon="24.964898">
				<ele>1374.000000</ele>
				<time>2025-07-12T14:32:35Z</time>
			</trkpt>
			<trkpt lat="42.770979" lon="24.964888">
				<ele>1373.000000</ele>
				<time>2025-07-12T14:32:40Z</time>
			</trkpt>
			<trkpt lat="42.770999" lon="24.964874">
				<ele>1372.000000</ele>
				<time>2025-07-12T14:32:45Z</time>
			</trkpt>
			<trkpt lat="42.771010" lon="24.964864">
				<ele>1372.000000</ele>
				<time>2025-07-12T14:32:47Z</time>
			</trkpt>
			<trkpt lat="42.771020" lon="24.964858">
				<ele>1372.000000</ele>
				<time>2025-07-12T14:32:48Z</time>
			</trkpt>
			<trkpt lat="42.771029" lon="24.964852">
				<ele>1371.000000</ele>
				<time>2025-07-12T14:32:49Z</time>
			</trkpt>
			<trkpt lat="42.771069" lon="24.964824">
				<ele>1370.000000</ele>
				<time>2025-07-12T14:32:54Z</time>
			</trkpt>
			<trkpt lat="42.771101" lon="24.964807">
				<ele>1369.000000</ele>
				<time>2025-07-12T14:32:58Z</time>
			</trkpt>
			<trkpt lat="42.771130" lon="24.964774">
				<ele>1368.000000</ele>
				<time>2025-07-12T14:33:01Z</time>
			</trkpt>
			<trkpt lat="42.771138" lon="24.964746">
				<ele>1368.000000</ele>
				<time>2025-07-12T14:33:03Z</time>
			</trkpt>
			<trkpt lat="42.771145" lon="24.964717">
				<ele>1368.000000</ele>
				<time>2025-07-12T14:33:07Z</time>
			</trkpt>
			<trkpt lat="42.771158" lon="24.964707">
				<ele>1367.000000</ele>
				<time>2025-07-12T14:33:09Z</time>
			</trkpt>
			<trkpt lat="42.771164" lon="24.964689">
				<ele>1367.000000</ele>
				<time>2025-07-12T14:33:11Z</time>
			</trkpt>
			<trkpt lat="42.771185" lon="24.964668">
				<ele>1366.000000</ele>
				<time>2025-07-12T14:33:15Z</time>
			</trkpt>
			<trkpt lat="42.771196" lon="24.964659">
				<ele>1366.000000</ele>
				<time>2025-07-12T14:33:17Z</time>
			</trkpt>
			<trkpt lat="42.771238" lon="24.964616">
				<ele>1365.000000</ele>
				<time>2025-07-12T14:33:23Z</time>
			</trkpt>
			<trkpt lat="42.771252" lon="24.964588">
				<ele>1364.000000</ele>
				<time>2025-07-12T14:33:30Z</time>
			</trkpt>
			<trkpt lat="42.771268" lon="24.964575">
				<ele>1364.000000</ele>
				<time>2025-07-12T14:33:33Z</time>
			</trkpt>
			<trkpt lat="42.771306" lon="24.964532">
				<ele>1363.000000</ele>
				<time>2025-07-12T14:33:39Z</time>
			</trkpt>
			<trkpt lat="42.771345" lon="24.964506">
				<ele>1361.000000</ele>
				<time>2025-07-12T14:33:45Z</time>
			</trkpt>
			<trkpt lat="42.771355" lon="24.964494">
				<ele>1361.000000</ele>
				<time>2025-07-12T14:33:46Z</time>
			</trkpt>
			<trkpt lat="42.771386" lon="24.964440">
				<ele>1360.000000</ele>
				<time>2025-07-12T14:33:52Z</time>
			</trkpt>
			<trkpt lat="42.771386" lon="24.964426">
				<ele>1360.000000</ele>
				<time>2025-07-12T14:33:54Z</time>
			</trkpt>
			<trkpt lat="42.771384" lon="24.964423">
				<ele>1360.000000</ele>
				<time>2025-07-12T14:33:55Z</time>
			</trkpt>
			<trkpt lat="42.771382" lon="24.964422">
				<ele>1360.000000</ele>
				<time>2025-07-12T14:33:56Z</time>
			</trkpt>
			<trkpt lat="42.771384" lon="24.964450">
				<ele>1360.000000</ele>
				<time>2025-07-12T14:34:03Z</time>
			</trkpt>
			<trkpt lat="42.771381" lon="24.964443">
				<ele>1360.000000</ele>
				<time>2025-07-12T14:34:10Z</time>
			</trkpt>
			<trkpt lat="42.771371" lon="24.964403">
				<ele>1359.000000</ele>
				<time>2025-07-12T14:34:18Z</time>
			</trkpt>
			<trkpt lat="42.771376" lon="24.964400">
				<ele>1359.000000</ele>
				<time>2025-07-12T14:34:20Z</time>
			</trkpt>
			<trkpt lat="42.771385" lon="24.964363">
				<ele>1359.000000</ele>
				<time>2025-07-12T14:34:25Z</time>
			</trkpt>
			<trkpt lat="42.771328" lon="24.964322">
				<ele>1359.000000</ele>
				<time>2025-07-12T14:34:33Z</time>
			</trkpt>
			<trkpt lat="42.771289" lon="24.964308">
				<ele>1359.000000</ele>
				<time>2025-07-12T14:34:40Z</time>
			</trkpt>
			<trkpt lat="42.771259" lon="24.964304">
				<ele>1359.000000</ele>
				<time>2025-07-12T14:34:45Z</time>
			</trkpt>
			<trkpt lat="42.771243" lon="24.964330">
				<ele>1359.000000</ele>
				<time>2025-07-12T14:34:53Z</time>
			</trkpt>
			<trkpt lat="42.771253" lon="24.964330">
				<ele>1359.000000</ele>
				<time>2025-07-12T14:35:00Z</time>
			</trkpt>
			<trkpt lat="42.771252" lon="24.964328">
				<ele>1359.000000</ele>
				<time>2025-07-12T14:35:01Z</time>
			</trkpt>
			<trkpt lat="42.771218" lon="24.964326">
				<ele>1359.000000</ele>
				<time>2025-07-12T14:35:04Z</time>
			</trkpt>
			<trkpt lat="42.771222" lon="24.964309">
				<ele>1360.000000</ele>
				<time>2025-07-12T14:35:14Z</time>
			</trkpt>
			<trkpt lat="42.771223" lon="24.964302">
				<ele>1360.000000</ele>
				<time>2025-07-12T14:35:22Z</time>
			</trkpt>
			<trkpt lat="42.771219" lon="24.964304">
				<ele>1360.000000</ele>
				<time>2025-07-12T14:35:24Z</time>
			</trkpt>
			<trkpt lat="42.771215" lon="24.964306">
				<ele>1359.000000</ele>
				<time>2025-07-12T14:35:31Z</time>
			</trkpt>
			<trkpt lat="42.771223" lon="24.964309">
				<ele>1359.000000</ele>
				<time>2025-07-12T14:35:36Z</time>
			</trkpt>
			<trkpt lat="42.771216" lon="24.964305">
				<ele>1359.000000</ele>
				<time>2025-07-12T14:35:38Z</time>
			</trkpt>
			<trkpt lat="42.771208" lon="24.964301">
				<ele>1359.000000</ele>
				<time>2025-07-12T14:35:46Z</time>
			</trkpt>
			<trkpt lat="42.771208" lon="24.964301">
				<ele>1359.000000</ele>
				<time>2025-07-12T14:35:50Z</time>
			</trkpt>
			<trkpt lat="42.771208" lon="24.964301">
				<ele>1359.000000</ele>
				<time>2025-07-12T14:35:54Z</time>
			</trkpt>
			<trkpt lat="42.771249" lon="24.964292">
				<ele>1359.000000</ele>
				<time>2025-07-12T14:36:05Z</time>
			</trkpt>
			<trkpt lat="42.771248" lon="24.964280">
				<ele>1359.000000</ele>
				<time>2025-07-12T14:36:08Z</time>
			</trkpt>
			<trkpt lat="42.771286" lon="24.964310">
				<ele>1359.000000</ele>
				<time>2025-07-12T14:37:03Z</time>
			</trkpt>
			<trkpt lat="42.771293" lon="24.964310">
				<ele>1359.000000</ele>
				<time>2025-07-12T14:37:04Z</time>
			</trkpt>
			<trkpt lat="42.771317" lon="24.964314">
				<ele>1359.000000</ele>
				<time>2025-07-12T14:37:06Z</time>
			</trkpt>
			<trkpt lat="42.771365" lon="24.964356">
				<ele>1359.000000</ele>
				<time>2025-07-12T14:37:12Z</time>
			</trkpt>
			<trkpt lat="42.771433" lon="24.964400">
				<ele>1360.000000</ele>
				<time>2025-07-12T14:37:19Z</time>
			</trkpt>
			<trkpt lat="42.771456" lon="24.964400">
				<ele>1366.000000</ele>
				<time>2025-07-12T14:59:03Z</time>
			</trkpt>
			<trkpt lat="42.771439" lon="24.964365">
				<ele>1365.000000</ele>
				<time>2025-07-12T14:59:08Z</time>
			</trkpt>
			<trkpt lat="42.771433" lon="24.964344">
				<ele>1365.000000</ele>
				<time>2025-07-12T14:59:11Z</time>
			</trkpt>
			<trkpt lat="42.771449" lon="24.964313">
				<ele>1365.000000</ele>
				<time>2025-07-12T14:59:14Z</time>
			</trkpt>
			<trkpt lat="42.771457" lon="24.964265">
				<ele>1365.000000</ele>
				<time>2025-07-12T14:59:19Z</time>
			</trkpt>
			<trkpt lat="42.771455" lon="24.964253">
				<ele>1365.000000</ele>
				<time>2025-07-12T14:59:20Z</time>
			</trkpt>
			<trkpt lat="42.771461" lon="24.964204">
				<ele>1364.000000</ele>
				<time>2025-07-12T14:59:25Z</time>
			</trkpt>
			<trkpt lat="42.771464" lon="24.964191">
				<ele>1364.000000</ele>
				<time>2025-07-12T14:59:26Z</time>
			</trkpt>
			<trkpt lat="42.771469" lon="24.964175">
				<ele>1364.000000</ele>
				<time>2025-07-12T14:59:28Z</time>
			</trkpt>
			<trkpt lat="42.771480" lon="24.964140">
				<ele>1364.000000</ele>
				<time>2025-07-12T14:59:31Z</time>
			</trkpt>
			<trkpt lat="42.771515" lon="24.964076">
				<ele>1363.000000</ele>
				<time>2025-07-12T14:59:39Z</time>
			</trkpt>
			<trkpt lat="42.771531" lon="24.964043">
				<ele>1363.000000</ele>
				<time>2025-07-12T14:59:42Z</time>
			</trkpt>
			<trkpt lat="42.771564" lon="24.963997">
				<ele>1362.000000</ele>
				<time>2025-07-12T14:59:46Z</time>
			</trkpt>
			<trkpt lat="42.771576" lon="24.963972">
				<ele>1362.000000</ele>
				<time>2025-07-12T14:59:49Z</time>
			</trkpt>
			<trkpt lat="42.771576" lon="24.963925">
				<ele>1361.000000</ele>
				<time>2025-07-12T14:59:53Z</time>
			</trkpt>
			<trkpt lat="42.771571" lon="24.963921">
				<ele>1361.000000</ele>
				<time>2025-07-12T14:59:54Z</time>
			</trkpt>
			<trkpt lat="42.771567" lon="24.963915">
				<ele>1360.000000</ele>
				<time>2025-07-12T14:59:55Z</time>
			</trkpt>
			<trkpt lat="42.771555" lon="24.963869">
				<ele>1360.000000</ele>
				<time>2025-07-12T14:59:59Z</time>
			</trkpt>
			<trkpt lat="42.771558" lon="24.963833">
				<ele>1359.000000</ele>
				<time>2025-07-12T15:00:01Z</time>
			</trkpt>
			<trkpt lat="42.771559" lon="24.963791">
				<ele>1358.000000</ele>
				<time>2025-07-12T15:00:04Z</time>
			</trkpt>
			<trkpt lat="42.771563" lon="24.963767">
				<ele>1358.000000</ele>
				<time>2025-07-12T15:00:07Z</time>
			</trkpt>
			<trkpt lat="42.771565" lon="24.963722">
				<ele>1357.000000</ele>
				<time>2025-07-12T15:00:12Z</time>
			</trkpt>
			<trkpt lat="42.771576" lon="24.963697">
				<ele>1357.000000</ele>
				<time>2025-07-12T15:00:14Z</time>
			</trkpt>
			<trkpt lat="42.771583" lon="24.963681">
				<ele>1357.000000</ele>
				<time>2025-07-12T15:00:15Z</time>
			</trkpt>
			<trkpt lat="42.771632" lon="24.963625">
				<ele>1357.000000</ele>
				<time>2025-07-12T15:00:22Z</time>
			</trkpt>
			<trkpt lat="42.771642" lon="24.963624">
				<ele>1356.000000</ele>
				<time>2025-07-12T15:00:23Z</time>
			</trkpt>
			<trkpt lat="42.771655" lon="24.963626">
				<ele>1356.000000</ele>
				<time>2025-07-12T15:00:24Z</time>
			</trkpt>
			<trkpt lat="42.771693" lon="24.963656">
				<ele>1356.000000</ele>
				<time>2025-07-12T15:00:28Z</time>
			</trkpt>
			<trkpt lat="42.771718" lon="24.963706">
				<ele>1356.000000</ele>
				<time>2025-07-12T15:00:33Z</time>
			</trkpt>
			<trkpt lat="42.771745" lon="24.963758">
				<ele>1355.000000</ele>
				<time>2025-07-12T15:00:39Z</time>
			</trkpt>
			<trkpt lat="42.771761" lon="24.963787">
				<ele>1355.000000</ele>
				<time>2025-07-12T15:00:42Z</time>
			</trkpt>
			<trkpt lat="42.771788" lon="24.963844">
				<ele>1354.000000</ele>
				<time>2025-07-12T15:00:48Z</time>
			</trkpt>
			<trkpt lat="42.771794" lon="24.963857">
				<ele>1354.000000</ele>
				<time>2025-07-12T15:00:49Z</time>
			</trkpt>
			<trkpt lat="42.771826" lon="24.963881">
				<ele>1353.000000</ele>
				<time>2025-07-12T15:00:54Z</time>
			</trkpt>
			<trkpt lat="42.771842" lon="24.963893">
				<ele>1353.000000</ele>
				<time>2025-07-12T15:00:57Z</time>
			</trkpt>
			<trkpt lat="42.771850" lon="24.963887">
				<ele>1353.000000</ele>
				<time>2025-07-12T15:00:59Z</time>
			</trkpt>
			<trkpt lat="42.771863" lon="24.963862">
				<ele>1352.000000</ele>
				<time>2025-07-12T15:01:03Z</time>
			</trkpt>
			<trkpt lat="42.771872" lon="24.963849">
				<ele>1352.000000</ele>
				<time>2025-07-12T15:01:05Z</time>
			</trkpt>
			<trkpt lat="42.771881" lon="24.963825">
				<ele>1351.000000</ele>
				<time>2025-07-12T15:01:08Z</time>
			</trkpt>
			<trkpt lat="42.771895" lon="24.963798">
				<ele>1351.000000</ele>
				<time>2025-07-12T15:01:12Z</time>
			</trkpt>
			<trkpt lat="42.771908" lon="24.963761">
				<ele>1350.000000</ele>
				<time>2025-07-12T15:01:15Z</time>
			</trkpt>
			<trkpt lat="42.771914" lon="24.963740">
				<ele>1350.000000</ele>
				<time>2025-07-12T15:01:17Z</time>
			</trkpt>
			<trkpt lat="42.771915" lon="24.963736">
				<ele>1350.000000</ele>
				<time>2025-07-12T15:01:18Z</time>
			</trkpt>
			<trkpt lat="42.771920" lon="24.963710">
				<ele>1349.000000</ele>
				<time>2025-07-12T15:01:22Z</time>
			</trkpt>
			<trkpt lat="42.771926" lon="24.963693">
				<ele>1349.000000</ele>
				<time>2025-07-12T15:01:24Z</time>
			</trkpt>
			<trkpt lat="42.771931" lon="24.963676">
				<ele>1348.000000</ele>
				<time>2025-07-12T15:01:28Z</time>
			</trkpt>
			<trkpt lat="42.771949" lon="24.963645">
				<ele>1347.000000</ele>
				<time>2025-07-12T15:01:33Z</time>
			</trkpt>
			<trkpt lat="42.771958" lon="24.963638">
				<ele>1347.000000</ele>
				<time>2025-07-12T15:01:34Z</time>
			</trkpt>
			<trkpt lat="42.771984" lon="24.963596">
				<ele>1346.000000</ele>
				<time>2025-07-12T15:01:39Z</time>
			</trkpt>
			<trkpt lat="42.771989" lon="24.963588">
				<ele>1346.000000</ele>
				<time>2025-07-12T15:01:40Z</time>
			</trkpt>
			<trkpt lat="42.771995" lon="24.963579">
				<ele>1345.000000</ele>
				<time>2025-07-12T15:01:42Z</time>
			</trkpt>
			<trkpt lat="42.772024" lon="24.963604">
				<ele>1345.000000</ele>
				<time>2025-07-12T15:01:46Z</time>
			</trkpt>
			<trkpt lat="42.772041" lon="24.963628">
				<ele>1344.000000</ele>
				<time>2025-07-12T15:01:48Z</time>
			</trkpt>
			<trkpt lat="42.772089" lon="24.963702">
				<ele>1343.000000</ele>
				<time>2025-07-12T15:01:55Z</time>
			</trkpt>
			<trkpt lat="42.772121" lon="24.963740">
				<ele>1343.000000</ele>
				<time>2025-07-12T15:02:00Z</time>
			</trkpt>
			<trkpt lat="42.772138" lon="24.963740">
				<ele>1342.000000</ele>
				<time>2025-07-12T15:02:02Z</time>
			</trkpt>
			<trkpt lat="42.772160" lon="24.963728">
				<ele>1342.000000</ele>
				<time>2025-07-12T15:02:05Z</time>
			</trkpt>
			<trkpt lat="42.772179" lon="24.963704">
				<ele>1341.000000</ele>
				<time>2025-07-12T15:02:07Z</time>
			</trkpt>
			<trkpt lat="42.772195" lon="24.963677">
				<ele>1341.000000</ele>
				<time>2025-07-12T15:02:09Z</time>
			</trkpt>
			<trkpt lat="42.772213" lon="24.963600">
				<ele>1340.000000</ele>
				<time>2025-07-12T15:02:15Z</time>
			</trkpt>
			<trkpt lat="42.772219" lon="24.963563">
				<ele>1340.000000</ele>
				<time>2025-07-12T15:02:17Z</time>
			</trkpt>
			<trkpt lat="42.772263" lon="24.963476">
				<ele>1340.000000</ele>
				<time>2025-07-12T15:02:25Z</time>
			</trkpt>
			<trkpt lat="42.772285" lon="24.963436">
				<ele>1339.000000</ele>
				<time>2025-07-12T15:02:28Z</time>
			</trkpt>
			<trkpt lat="42.772313" lon="24.963408">
				<ele>1339.000000</ele>
				<time>2025-07-12T15:02:31Z</time>
			</trkpt>
			<trkpt lat="42.772346" lon="24.963382">
				<ele>1338.000000</ele>
				<time>2025-07-12T15:02:35Z</time>
			</trkpt>
			<trkpt lat="42.772392" lon="24.963362">
				<ele>1338.000000</ele>
				<time>2025-07-12T15:02:41Z</time>
			</trkpt>
			<trkpt lat="42.772448" lon="24.963334">
				<ele>1337.000000</ele>
				<time>2025-07-12T15:02:48Z</time>
			</trkpt>
			<trkpt lat="42.772513" lon="24.963292">
				<ele>1337.000000</ele>
				<time>2025-07-12T15:02:55Z</time>
			</trkpt>
			<trkpt lat="42.772549" lon="24.963278">
				<ele>1337.000000</ele>
				<time>2025-07-12T15:03:00Z</time>
			</trkpt>
			<trkpt lat="42.772605" lon="24.963244">
				<ele>1338.000000</ele>
				<time>2025-07-12T15:03:05Z</time>
			</trkpt>
			<trkpt lat="42.772652" lon="24.963207">
				<ele>1337.000000</ele>
				<time>2025-07-12T15:03:11Z</time>
			</trkpt>
			<trkpt lat="42.772709" lon="24.963212">
				<ele>1337.000000</ele>
				<time>2025-07-12T15:03:18Z</time>
			</trkpt>
			<trkpt lat="42.772757" lon="24.963197">
				<ele>1336.000000</ele>
				<time>2025-07-12T15:03:25Z</time>
			</trkpt>
			<trkpt lat="42.772810" lon="24.963141">
				<ele>1335.000000</ele>
				<time>2025-07-12T15:03:32Z</time>
			</trkpt>
			<trkpt lat="42.772823" lon="24.963121">
				<ele>1335.000000</ele>
				<time>2025-07-12T15:03:34Z</time>
			</trkpt>
			<trkpt lat="42.772869" lon="24.963081">
				<ele>1334.000000</ele>
				<time>2025-07-12T15:03:39Z</time>
			</trkpt>
			<trkpt lat="42.772890" lon="24.963054">
				<ele>1334.000000</ele>
				<time>2025-07-12T15:03:42Z</time>
			</trkpt>
			<trkpt lat="42.772916" lon="24.963047">
				<ele>1333.000000</ele>
				<time>2025-07-12T15:03:46Z</time>
			</trkpt>
			<trkpt lat="42.772979" lon="24.963042">
				<ele>1333.000000</ele>
				<time>2025-07-12T15:03:52Z</time>
			</trkpt>
			<trkpt lat="42.772999" lon="24.963042">
				<ele>1333.000000</ele>
				<time>2025-07-12T15:03:54Z</time>
			</trkpt>
			<trkpt lat="42.773033" lon="24.963052">
				<ele>1333.000000</ele>
				<time>2025-07-12T15:03:58Z</time>
			</trkpt>
			<trkpt lat="42.773067" lon="24.963087">
				<ele>1333.000000</ele>
				<time>2025-07-12T15:04:05Z</time>
			</trkpt>
			<trkpt lat="42.773049" lon="24.963111">
				<ele>1333.000000</ele>
				<time>2025-07-12T15:04:13Z</time>
			</trkpt>
			<trkpt lat="42.773049" lon="24.963115">
				<ele>1333.000000</ele>
				<time>2025-07-12T15:04:16Z</time>
			</trkpt>
			<trkpt lat="42.773081" lon="24.963070">
				<ele>1333.000000</ele>
				<time>2025-07-12T15:04:24Z</time>
			</trkpt>
			<trkpt lat="42.773123" lon="24.963032">
				<ele>1332.000000</ele>
				<time>2025-07-12T15:04:30Z</time>
			</trkpt>
			<trkpt lat="42.773154" lon="24.963001">
				<ele>1331.000000</ele>
				<time>2025-07-12T15:04:35Z</time>
			</trkpt>
			<trkpt lat="42.773181" lon="24.962989">
				<ele>1330.000000</ele>
				<time>2025-07-12T15:04:40Z</time>
			</trkpt>
			<trkpt lat="42.773201" lon="24.962976">
				<ele>1330.000000</ele>
				<time>2025-07-12T15:04:43Z</time>
			</trkpt>
			<trkpt lat="42.773245" lon="24.962953">
				<ele>1329.000000</ele>
				<time>2025-07-12T15:04:49Z</time>
			</trkpt>
			<trkpt lat="42.773261" lon="24.962941">
				<ele>1329.000000</ele>
				<time>2025-07-12T15:04:51Z</time>
			</trkpt>
			<trkpt lat="42.773281" lon="24.962905">
				<ele>1328.000000</ele>
				<time>2025-07-12T15:04:57Z</time>
			</trkpt>
			<trkpt lat="42.773288" lon="24.962901">
				<ele>1328.000000</ele>
				<time>2025-07-12T15:04:58Z</time>
			</trkpt>
			<trkpt lat="42.773320" lon="24.962875">
				<ele>1328.000000</ele>
				<time>2025-07-12T15:05:01Z</time>
			</trkpt>
			<trkpt lat="42.773332" lon="24.962865">
				<ele>1328.000000</ele>
				<time>2025-07-12T15:05:02Z</time>
			</trkpt>
			<trkpt lat="42.773345" lon="24.962831">
				<ele>1327.000000</ele>
				<time>2025-07-12T15:05:05Z</time>
			</trkpt>
			<trkpt lat="42.773361" lon="24.962816">
				<ele>1326.000000</ele>
				<time>2025-07-12T15:05:09Z</time>
			</trkpt>
			<trkpt lat="42.773367" lon="24.962812">
				<ele>1326.000000</ele>
				<time>2025-07-12T15:05:10Z</time>
			</trkpt>
			<trkpt lat="42.773371" lon="24.962818">
				<ele>1326.000000</ele>
				<time>2025-07-12T15:05:12Z</time>
			</trkpt>
			<trkpt lat="42.773344" lon="24.962816">
				<ele>1326.000000</ele>
				<time>2025-07-12T15:05:16Z</time>
			</trkpt>
			<trkpt lat="42.773346" lon="24.962803">
				<ele>1326.000000</ele>
				<time>2025-07-12T15:05:19Z</time>
			</trkpt>
			<trkpt lat="42.773347" lon="24.962804">
				<ele>1326.000000</ele>
				<time>2025-07-12T15:05:20Z</time>
			</trkpt>
			<trkpt lat="42.773332" lon="24.962826">
				<ele>1326.000000</ele>
				<time>2025-07-12T15:05:29Z</time>
			</trkpt>
			<trkpt lat="42.773340" lon="24.962832">
				<ele>1326.000000</ele>
				<time>2025-07-12T15:05:37Z</time>
			</trkpt>
			<trkpt lat="42.773348" lon="24.962800">
				<ele>1326.000000</ele>
				<time>2025-07-12T15:05:43Z</time>
			</trkpt>
			<trkpt lat="42.773359" lon="24.962802">
				<ele>1326.000000</ele>
				<time>2025-07-12T15:05:45Z</time>
			</trkpt>
			<trkpt lat="42.773395" lon="24.962769">
				<ele>1326.000000</ele>
				<time>2025-07-12T15:05:52Z</time>
			</trkpt>
			<trkpt lat="42.773407" lon="24.962748">
				<ele>1326.000000</ele>
				<time>2025-07-12T15:05:54Z</time>
			</trkpt>
			<trkpt lat="42.773420" lon="24.962732">
				<ele>1325.000000</ele>
				<time>2025-07-12T15:05:55Z</time>
			</trkpt>
			<trkpt lat="42.773457" lon="24.962706">
				<ele>1325.000000</ele>
				<time>2025-07-12T15:06:01Z</time>
			</trkpt>
			<trkpt lat="42.773480" lon="24.962704">
				<ele>1324.000000</ele>
				<time>2025-07-12T15:06:05Z</time>
			</trkpt>
			<trkpt lat="42.773495" lon="24.962702">
				<ele>1324.000000</ele>
				<time>2025-07-12T15:06:07Z</time>
			</trkpt>
			<trkpt lat="42.773516" lon="24.962704">
				<ele>1324.000000</ele>
				<time>2025-07-12T15:06:09Z</time>
			</trkpt>
			<trkpt lat="42.773542" lon="24.962701">
				<ele>1323.000000</ele>
				<time>2025-07-12T15:06:13Z</time>
			</trkpt>
			<trkpt lat="42.773557" lon="24.962688">
				<ele>1323.000000</ele>
				<time>2025-07-12T15:06:17Z</time>
			</trkpt>
			<trkpt lat="42.773591" lon="24.962677">
				<ele>1322.000000</ele>
				<time>2025-07-12T15:06:20Z</time>
			</trkpt>
			<trkpt lat="42.773632" lon="24.962669">
				<ele>1321.000000</ele>
				<time>2025-07-12T15:06:25Z</time>
			</trkpt>
			<trkpt lat="42.773641" lon="24.962668">
				<ele>1321.000000</ele>
				<time>2025-07-12T15:06:26Z</time>
			</trkpt>
			<trkpt lat="42.773713" lon="24.962661">
				<ele>1321.000000</ele>
				<time>2025-07-12T15:06:33Z</time>
			</trkpt>
			<trkpt lat="42.773791" lon="24.962670">
				<ele>1320.000000</ele>
				<time>2025-07-12T15:06:41Z</time>
			</trkpt>
			<trkpt lat="42.773852" lon="24.962700">
				<ele>1319.000000</ele>
				<time>2025-07-12T15:06:48Z</time>
			</trkpt>
			<trkpt lat="42.773901" lon="24.962733">
				<ele>1319.000000</ele>
				<time>2025-07-12T15:06:53Z</time>
			</trkpt>
			<trkpt lat="42.773922" lon="24.962753">
				<ele>1319.000000</ele>
				<time>2025-07-12T15:06:57Z</time>
			</trkpt>
			<trkpt lat="42.773938" lon="24.962786">
				<ele>1319.000000</ele>
				<time>2025-07-12T15:07:00Z</time>
			</trkpt>
			<trkpt lat="42.773955" lon="24.962828">
				<ele>1318.000000</ele>
				<time>2025-07-12T15:07:04Z</time>
			</trkpt>
			<trkpt lat="42.773963" lon="24.962865">
				<ele>1318.000000</ele>
				<time>2025-07-12T15:07:07Z</time>
			</trkpt>
			<trkpt lat="42.773989" lon="24.962900">
				<ele>1317.000000</ele>
				<time>2025-07-12T15:07:13Z</time>
			</trkpt>
			<trkpt lat="42.773997" lon="24.962910">
				<ele>1317.000000</ele>
				<time>2025-07-12T15:07:15Z</time>
			</trkpt>
			<trkpt lat="42.774019" lon="24.962944">
				<ele>1316.000000</ele>
				<time>2025-07-12T15:07:21Z</time>
			</trkpt>
			<trkpt lat="42.774020" lon="24.962948">
				<ele>1316.000000</ele>
				<time>2025-07-12T15:07:22Z</time>
			</trkpt>
			<trkpt lat="42.774034" lon="24.962975">
				<ele>1315.000000</ele>
				<time>2025-07-12T15:07:27Z</time>
			</trkpt>
			<trkpt lat="42.774060" lon="24.963005">
				<ele>1315.000000</ele>
				<time>2025-07-12T15:07:33Z</time>
			</trkpt>
			<trkpt lat="42.774068" lon="24.963012">
				<ele>1314.000000</ele>
				<time>2025-07-12T15:07:35Z</time>
			</trkpt>
			<trkpt lat="42.774080" lon="24.963022">
				<ele>1314.000000</ele>
				<time>2025-07-12T15:07:39Z</time>
			</trkpt>
			<trkpt lat="42.774091" lon="24.963034">
				<ele>1313.000000</ele>
				<time>2025-07-12T15:07:43Z</time>
			</trkpt>
			<trkpt lat="42.774118" lon="24.963046">
				<ele>1313.000000</ele>
				<time>2025-07-12T15:07:47Z</time>
			</trkpt>
			<trkpt lat="42.774145" lon="24.963069">
				<ele>1312.000000</ele>
				<time>2025-07-12T15:07:51Z</time>
			</trkpt>
			<trkpt lat="42.774175" lon="24.963081">
				<ele>1312.000000</ele>
				<time>2025-07-12T15:07:55Z</time>
			</trkpt>
			<trkpt lat="42.774212" lon="24.963099">
				<ele>1311.000000</ele>
				<time>2025-07-12T15:07:58Z</time>
			</trkpt>
			<trkpt lat="42.774235" lon="24.963114">
				<ele>1310.000000</ele>
				<time>2025-07-12T15:08:02Z</time>
			</trkpt>
			<trkpt lat="42.774245" lon="24.963128">
				<ele>1310.000000</ele>
				<time>2025-07-12T15:08:04Z</time>
			</trkpt>
			<trkpt lat="42.774252" lon="24.963140">
				<ele>1309.000000</ele>
				<time>2025-07-12T15:08:07Z</time>
			</trkpt>
			<trkpt lat="42.774261" lon="24.963154">
				<ele>1308.000000</ele>
				<time>2025-07-12T15:08:12Z</time>
			</trkpt>
			<trkpt lat="42.774261" lon="24.963157">
				<ele>1308.000000</ele>
				<time>2025-07-12T15:08:14Z</time>
			</trkpt>
			<trkpt lat="42.774274" lon="24.963160">
				<ele>1307.000000</ele>
				<time>2025-07-12T15:08:19Z</time>
			</trkpt>
			<trkpt lat="42.774319" lon="24.963177">
				<ele>1306.000000</ele>
				<time>2025-07-12T15:08:24Z</time>
			</trkpt>
			<trkpt lat="42.774326" lon="24.963181">
				<ele>1306.000000</ele>
				<time>2025-07-12T15:08:25Z</time>
			</trkpt>
			<trkpt lat="42.774349" lon="24.963189">
				<ele>1305.000000</ele>
				<time>2025-07-12T15:08:31Z</time>
			</trkpt>
			<trkpt lat="42.774351" lon="24.963191">
				<ele>1305.000000</ele>
				<time>2025-07-12T15:08:32Z</time>
			</trkpt>
			<trkpt lat="42.774393" lon="24.963204">
				<ele>1304.000000</ele>
				<time>2025-07-12T15:08:38Z</time>
			</trkpt>
			<trkpt lat="42.774413" lon="24.963216">
				<ele>1303.000000</ele>
				<time>2025-07-12T15:08:41Z</time>
			</trkpt>
			<trkpt lat="42.774427" lon="24.963224">
				<ele>1303.000000</ele>
				<time>2025-07-12T15:08:43Z</time>
			</trkpt>
			<trkpt lat="42.774455" lon="24.963240">
				<ele>1302.000000</ele>
				<time>2025-07-12T15:08:48Z</time>
			</trkpt>
			<trkpt lat="42.774462" lon="24.963246">
				<ele>1302.000000</ele>
				<time>2025-07-12T15:08:49Z</time>
			</trkpt>
			<trkpt lat="42.774504" lon="24.963248">
				<ele>1301.000000</ele>
				<time>2025-07-12T15:08:54Z</time>
			</trkpt>
			<trkpt lat="42.774520" lon="24.963258">
				<ele>1300.000000</ele>
				<time>2025-07-12T15:08:56Z</time>
			</trkpt>
			<trkpt lat="42.774537" lon="24.963278">
				<ele>1299.000000</ele>
				<time>2025-07-12T15:08:59Z</time>
			</trkpt>
			<trkpt lat="42.774572" lon="24.963327">
				<ele>1298.000000</ele>
				<time>2025-07-12T15:09:05Z</time>
			</trkpt>
			<trkpt lat="42.774580" lon="24.963335">
				<ele>1298.000000</ele>
				<time>2025-07-12T15:09:06Z</time>
			</trkpt>
			<trkpt lat="42.774597" lon="24.963378">
				<ele>1297.000000</ele>
				<time>2025-07-12T15:09:11Z</time>
			</trkpt>
			<trkpt lat="42.774599" lon="24.963385">
				<ele>1297.000000</ele>
				<time>2025-07-12T15:09:12Z</time>
			</trkpt>
			<trkpt lat="42.774633" lon="24.963439">
				<ele>1296.000000</ele>
				<time>2025-07-12T15:09:17Z</time>
			</trkpt>
			<trkpt lat="42.774658" lon="24.963482">
				<ele>1296.000000</ele>
				<time>2025-07-12T15:09:22Z</time>
			</trkpt>
			<trkpt lat="42.774678" lon="24.963508">
				<ele>1295.000000</ele>
				<time>2025-07-12T15:09:26Z</time>
			</trkpt>
			<trkpt lat="42.774703" lon="24.963514">
				<ele>1294.000000</ele>
				<time>2025-07-12T15:09:30Z</time>
			</trkpt>
			<trkpt lat="42.774714" lon="24.963515">
				<ele>1294.000000</ele>
				<time>2025-07-12T15:09:31Z</time>
			</trkpt>
			<trkpt lat="42.774748" lon="24.963522">
				<ele>1293.000000</ele>
				<time>2025-07-12T15:09:35Z</time>
			</trkpt>
			<trkpt lat="42.774767" lon="24.963508">
				<ele>1292.000000</ele>
				<time>2025-07-12T15:09:39Z</time>
			</trkpt>
			<trkpt lat="42.774780" lon="24.963518">
				<ele>1291.000000</ele>
				<time>2025-07-12T15:09:42Z</time>
			</trkpt>
			<trkpt lat="42.774784" lon="24.963524">
				<ele>1290.000000</ele>
				<time>2025-07-12T15:09:43Z</time>
			</trkpt>
			<trkpt lat="42.774810" lon="24.963530">
				<ele>1290.000000</ele>
				<time>2025-07-12T15:09:47Z</time>
			</trkpt>
			<trkpt lat="42.774816" lon="24.963530">
				<ele>1289.000000</ele>
				<time>2025-07-12T15:09:48Z</time>
			</trkpt>
			<trkpt lat="42.774828" lon="24.963518">
				<ele>1288.000000</ele>
				<time>2025-07-12T15:09:52Z</time>
			</trkpt>
			<trkpt lat="42.774846" lon="24.963529">
				<ele>1288.000000</ele>
				<time>2025-07-12T15:09:57Z</time>
			</trkpt>
			<trkpt lat="42.774850" lon="24.963533">
				<ele>1287.000000</ele>
				<time>2025-07-12T15:09:58Z</time>
			</trkpt>
			<trkpt lat="42.774898" lon="24.963549">
				<ele>1286.000000</ele>
				<time>2025-07-12T15:10:05Z</time>
			</trkpt>
			<trkpt lat="42.774939" lon="24.963495">
				<ele>1285.000000</ele>
				<time>2025-07-12T15:10:13Z</time>
			</trkpt>
			<trkpt lat="42.774962" lon="24.963457">
				<ele>1284.000000</ele>
				<time>2025-07-12T15:10:17Z</time>
			</trkpt>
			<trkpt lat="42.775004" lon="24.963415">
				<ele>1284.000000</ele>
				<time>2025-07-12T15:10:23Z</time>
			</trkpt>
			<trkpt lat="42.775033" lon="24.963386">
				<ele>1283.000000</ele>
				<time>2025-07-12T15:10:26Z</time>
			</trkpt>
			<trkpt lat="42.775044" lon="24.963362">
				<ele>1283.000000</ele>
				<time>2025-07-12T15:10:29Z</time>
			</trkpt>
			<trkpt lat="42.775059" lon="24.963339">
				<ele>1282.000000</ele>
				<time>2025-07-12T15:10:32Z</time>
			</trkpt>
			<trkpt lat="42.775097" lon="24.963307">
				<ele>1281.000000</ele>
				<time>2025-07-12T15:10:36Z</time>
			</trkpt>
			<trkpt lat="42.775142" lon="24.963264">
				<ele>1280.000000</ele>
				<time>2025-07-12T15:10:42Z</time>
			</trkpt>
			<trkpt lat="42.775150" lon="24.963256">
				<ele>1280.000000</ele>
				<time>2025-07-12T15:10:43Z</time>
			</trkpt>
			<trkpt lat="42.775230" lon="24.963229">
				<ele>1279.000000</ele>
				<time>2025-07-12T15:10:48Z</time>
			</trkpt>
			<trkpt lat="42.775289" lon="24.963192">
				<ele>1278.000000</ele>
				<time>2025-07-12T15:10:54Z</time>
			</trkpt>
			<trkpt lat="42.775297" lon="24.963187">
				<ele>1277.000000</ele>
				<time>2025-07-12T15:10:55Z</time>
			</trkpt>
			<trkpt lat="42.775318" lon="24.963174">
				<ele>1277.000000</ele>
				<time>2025-07-12T15:10:58Z</time>
			</trkpt>
			<trkpt lat="42.775333" lon="24.963170">
				<ele>1276.000000</ele>
				<time>2025-07-12T15:11:01Z</time>
			</trkpt>
			<trkpt lat="42.775339" lon="24.963180">
				<ele>1276.000000</ele>
				<time>2025-07-12T15:11:04Z</time>
			</trkpt>
			<trkpt lat="42.775346" lon="24.963183">
				<ele>1275.000000</ele>
				<time>2025-07-12T15:11:09Z</time>
			</trkpt>
			<trkpt lat="42.775378" lon="24.963154">
				<ele>1275.000000</ele>
				<time>2025-07-12T15:11:13Z</time>
			</trkpt>
			<trkpt lat="42.775382" lon="24.963152">
				<ele>1275.000000</ele>
				<time>2025-07-12T15:11:14Z</time>
			</trkpt>
			<trkpt lat="42.775384" lon="24.963137">
				<ele>1274.000000</ele>
				<time>2025-07-12T15:11:16Z</time>
			</trkpt>
			<trkpt lat="42.775411" lon="24.963095">
				<ele>1273.000000</ele>
				<time>2025-07-12T15:11:20Z</time>
			</trkpt>
			<trkpt lat="42.775422" lon="24.963077">
				<ele>1273.000000</ele>
				<time>2025-07-12T15:11:22Z</time>
			</trkpt>
			<trkpt lat="42.775433" lon="24.963058">
				<ele>1272.000000</ele>
				<time>2025-07-12T15:11:24Z</time>
			</trkpt>
			<trkpt lat="42.775474" lon="24.963011">
				<ele>1271.000000</ele>
				<time>2025-07-12T15:11:30Z</time>
			</trkpt>
			<trkpt lat="42.775482" lon="24.963005">
				<ele>1271.000000</ele>
				<time>2025-07-12T15:11:31Z</time>
			</trkpt>
			<trkpt lat="42.775508" lon="24.962979">
				<ele>1270.000000</ele>
				<time>2025-07-12T15:11:36Z</time>
			</trkpt>
			<trkpt lat="42.775515" lon="24.962972">
				<ele>1270.000000</ele>
				<time>2025-07-12T15:11:37Z</time>
			</trkpt>
			<trkpt lat="42.775558" lon="24.962928">
				<ele>1269.000000</ele>
				<time>2025-07-12T15:11:43Z</time>
			</trkpt>
			<trkpt lat="42.775591" lon="24.962882">
				<ele>1269.000000</ele>
				<time>2025-07-12T15:11:50Z</time>
			</trkpt>
			<trkpt lat="42.775583" lon="24.962875">
				<ele>1268.000000</ele>
				<time>2025-07-12T15:11:53Z</time>
			</trkpt>
			<trkpt lat="42.775578" lon="24.962878">
				<ele>1268.000000</ele>
				<time>2025-07-12T15:11:56Z</time>
			</trkpt>
			<trkpt lat="42.775540" lon="24.962917">
				<ele>1268.000000</ele>
				<time>2025-07-12T15:12:03Z</time>
			</trkpt>
			<trkpt lat="42.775549" lon="24.962913">
				<ele>1268.000000</ele>
				<time>2025-07-12T15:12:08Z</time>
			</trkpt>
			<trkpt lat="42.775559" lon="24.962916">
				<ele>1269.000000</ele>
				<time>2025-07-12T15:12:13Z</time>
			</trkpt>
			<trkpt lat="42.775564" lon="24.962920">
				<ele>1269.000000</ele>
				<time>2025-07-12T15:12:15Z</time>
			</trkpt>
			<trkpt lat="42.775558" lon="24.962922">
				<ele>1268.000000</ele>
				<time>2025-07-12T15:12:22Z</time>
			</trkpt>
			<trkpt lat="42.775553" lon="24.962913">
				<ele>1268.000000</ele>
				<time>2025-07-12T15:12:30Z</time>
			</trkpt>
			<trkpt lat="42.775541" lon="24.962914">
				<ele>1268.000000</ele>
				<time>2025-07-12T15:12:41Z</time>
			</trkpt>
			<trkpt lat="42.775529" lon="24.962920">
				<ele>1268.000000</ele>
				<time>2025-07-12T15:12:44Z</time>
			</trkpt>
			<trkpt lat="42.775520" lon="24.962926">
				<ele>1268.000000</ele>
				<time>2025-07-12T15:12:46Z</time>
			</trkpt>
			<trkpt lat="42.775518" lon="24.962946">
				<ele>1268.000000</ele>
				<time>2025-07-12T15:12:54Z</time>
			</trkpt>
			<trkpt lat="42.775554" lon="24.962857">
				<ele>1267.000000</ele>
				<time>2025-07-12T15:13:01Z</time>
			</trkpt>
			<trkpt lat="42.775605" lon="24.962794">
				<ele>1266.000000</ele>
				<time>2025-07-12T15:13:06Z</time>
			</trkpt>
			<trkpt lat="42.775617" lon="24.962779">
				<ele>1266.000000</ele>
				<time>2025-07-12T15:13:08Z</time>
			</trkpt>
			<trkpt lat="42.775653" lon="24.962740">
				<ele>1265.000000</ele>
				<time>2025-07-12T15:13:13Z</time>
			</trkpt>
			<trkpt lat="42.775669" lon="24.962718">
				<ele>1264.000000</ele>
				<time>2025-07-12T15:13:16Z</time>
			</trkpt>
			<trkpt lat="42.775676" lon="24.962706">
				<ele>1264.000000</ele>
				<time>2025-07-12T15:13:18Z</time>
			</trkpt>
			<trkpt lat="42.775697" lon="24.962684">
				<ele>1263.000000</ele>
				<time>2025-07-12T15:13:22Z</time>
			</trkpt>
			<trkpt lat="42.775697" lon="24.962684">
				<ele>1262.000000</ele>
				<time>2025-07-12T15:13:23Z</time>
			</trkpt>
			<trkpt lat="42.775713" lon="24.962661">
				<ele>1261.000000</ele>
				<time>2025-07-12T15:13:28Z</time>
			</trkpt>
			<trkpt lat="42.775722" lon="24.962647">
				<ele>1261.000000</ele>
				<time>2025-07-12T15:13:30Z</time>
			</trkpt>
			<trkpt lat="42.775730" lon="24.962610">
				<ele>1260.000000</ele>
				<time>2025-07-12T15:13:34Z</time>
			</trkpt>
			<trkpt lat="42.775734" lon="24.962609">
				<ele>1260.000000</ele>
				<time>2025-07-12T15:13:35Z</time>
			</trkpt>
			<trkpt lat="42.775739" lon="24.962596">
				<ele>1259.000000</ele>
				<time>2025-07-12T15:13:39Z</time>
			</trkpt>
			<trkpt lat="42.775741" lon="24.962584">
				<ele>1258.000000</ele>
				<time>2025-07-12T15:13:42Z</time>
			</trkpt>
			<trkpt lat="42.775736" lon="24.962567">
				<ele>1258.000000</ele>
				<time>2025-07-12T15:13:44Z</time>
			</trkpt>
			<trkpt lat="42.775749" lon="24.962517">
				<ele>1257.000000</ele>
				<time>2025-07-12T15:13:49Z</time>
			</trkpt>
			<trkpt lat="42.775775" lon="24.962503">
				<ele>1256.000000</ele>
				<time>2025-07-12T15:13:54Z</time>
			</trkpt>
			<trkpt lat="42.775780" lon="24.962488">
				<ele>1255.000000</ele>
				<time>2025-07-12T15:13:56Z</time>
			</trkpt>
			<trkpt lat="42.775795" lon="24.962470">
				<ele>1255.000000</ele>
				<time>2025-07-12T15:13:58Z</time>
			</trkpt>
			<trkpt lat="42.775800" lon="24.962460">
				<ele>1255.000000</ele>
				<time>2025-07-12T15:13:59Z</time>
			</trkpt>
			<trkpt lat="42.775816" lon="24.962434">
				<ele>1254.000000</ele>
				<time>2025-07-12T15:14:03Z</time>
			</trkpt>
			<trkpt lat="42.775826" lon="24.962417">
				<ele>1254.000000</ele>
				<time>2025-07-12T15:14:06Z</time>
			</trkpt>
			<trkpt lat="42.775844" lon="24.962403">
				<ele>1253.000000</ele>
				<time>2025-07-12T15:14:10Z</time>
			</trkpt>
			<trkpt lat="42.775853" lon="24.962397">
				<ele>1252.000000</ele>
				<time>2025-07-12T15:14:14Z</time>
			</trkpt>
			<trkpt lat="42.775855" lon="24.962383">
				<ele>1252.000000</ele>
				<time>2025-07-12T15:14:17Z</time>
			</trkpt>
			<trkpt lat="42.775869" lon="24.962374">
				<ele>1251.000000</ele>
				<time>2025-07-12T15:14:19Z</time>
			</trkpt>
			<trkpt lat="42.775882" lon="24.962352">
				<ele>1250.000000</ele>
				<time>2025-07-12T15:14:23Z</time>
			</trkpt>
			<trkpt lat="42.775892" lon="24.962317">
				<ele>1249.000000</ele>
				<time>2025-07-12T15:14:29Z</time>
			</trkpt>
			<trkpt lat="42.775888" lon="24.962308">
				<ele>1249.000000</ele>
				<time>2025-07-12T15:14:30Z</time>
			</trkpt>
			<trkpt lat="42.775889" lon="24.962277">
				<ele>1248.000000</ele>
				<time>2025-07-12T15:14:35Z</time>
			</trkpt>
			<trkpt lat="42.775893" lon="24.962269">
				<ele>1247.000000</ele>
				<time>2025-07-12T15:14:37Z</time>
			</trkpt>
			<trkpt lat="42.775894" lon="24.962269">
				<ele>1247.000000</ele>
				<time>2025-07-12T15:14:39Z</time>
			</trkpt>
			<trkpt lat="42.775920" lon="24.962234">
				<ele>1246.000000</ele>
				<time>2025-07-12T15:14:45Z</time>
			</trkpt>
			<trkpt lat="42.775926" lon="24.962228">
				<ele>1245.000000</ele>
				<time>2025-07-12T15:14:46Z</time>
			</trkpt>
			<trkpt lat="42.775960" lon="24.962208">
				<ele>1244.000000</ele>
				<time>2025-07-12T15:14:51Z</time>
			</trkpt>
			<trkpt lat="42.775955" lon="24.962193">
				<ele>1244.000000</ele>
				<time>2025-07-12T15:14:53Z</time>
			</trkpt>
			<trkpt lat="42.775949" lon="24.962182">
				<ele>1243.000000</ele>
				<time>2025-07-12T15:14:55Z</time>
			</trkpt>
			<trkpt lat="42.775978" lon="24.962149">
				<ele>1242.000000</ele>
				<time>2025-07-12T15:15:00Z</time>
			</trkpt>
			<trkpt lat="42.775982" lon="24.962143">
				<ele>1242.000000</ele>
				<time>2025-07-12T15:15:01Z</time>
			</trkpt>
			<trkpt lat="42.776004" lon="24.962110">
				<ele>1241.000000</ele>
				<time>2025-07-12T15:15:05Z</time>
			</trkpt>
			<trkpt lat="42.776028" lon="24.962083">
				<ele>1240.000000</ele>
				<time>2025-07-12T15:15:10Z</time>
			</trkpt>
			<trkpt lat="42.776031" lon="24.962077">
				<ele>1240.000000</ele>
				<time>2025-07-12T15:15:11Z</time>
			</trkpt>
			<trkpt lat="42.776047" lon="24.962077">
				<ele>1239.000000</ele>
				<time>2025-07-12T15:15:14Z</time>
			</trkpt>
			<trkpt lat="42.776055" lon="24.962065">
				<ele>1239.000000</ele>
				<time>2025-07-12T15:15:16Z</time>
			</trkpt>
			<trkpt lat="42.776058" lon="24.962059">
				<ele>1238.000000</ele>
				<time>2025-07-12T15:15:17Z</time>
			</trkpt>
			<trkpt lat="42.776063" lon="24.962039">
				<ele>1238.000000</ele>
				<time>2025-07-12T15:15:20Z</time>
			</trkpt>
			<trkpt lat="42.776066" lon="24.962016">
				<ele>1238.000000</ele>
				<time>2025-07-12T15:15:22Z</time>
			</trkpt>
			<trkpt lat="42.776067" lon="24.962005">
				<ele>1237.000000</ele>
				<time>2025-07-12T15:15:24Z</time>
			</trkpt>
			<trkpt lat="42.776057" lon="24.961992">
				<ele>1237.000000</ele>
				<time>2025-07-12T15:15:26Z</time>
			</trkpt>
			<trkpt lat="42.776059" lon="24.961973">
				<ele>1236.000000</ele>
				<time>2025-07-12T15:15:28Z</time>
			</trkpt>
			<trkpt lat="42.776074" lon="24.961949">
				<ele>1236.000000</ele>
				<time>2025-07-12T15:15:31Z</time>
			</trkpt>
			<trkpt lat="42.776080" lon="24.961945">
				<ele>1235.000000</ele>
				<time>2025-07-12T15:15:33Z</time>
			</trkpt>
			<trkpt lat="42.776104" lon="24.961938">
				<ele>1235.000000</ele>
				<time>2025-07-12T15:15:38Z</time>
			</trkpt>
			<trkpt lat="42.776128" lon="24.961935">
				<ele>1234.000000</ele>
				<time>2025-07-12T15:15:41Z</time>
			</trkpt>
			<trkpt lat="42.776133" lon="24.961937">
				<ele>1234.000000</ele>
				<time>2025-07-12T15:15:44Z</time>
			</trkpt>
			<trkpt lat="42.776150" lon="24.961900">
				<ele>1233.000000</ele>
				<time>2025-07-12T15:15:50Z</time>
			</trkpt>
			<trkpt lat="42.776158" lon="24.961892">
				<ele>1233.000000</ele>
				<time>2025-07-12T15:15:52Z</time>
			</trkpt>
			<trkpt lat="42.776150" lon="24.961874">
				<ele>1232.000000</ele>
				<time>2025-07-12T15:15:57Z</time>
			</trkpt>
			<trkpt lat="42.776154" lon="24.961866">
				<ele>1232.000000</ele>
				<time>2025-07-12T15:15:59Z</time>
			</trkpt>
			<trkpt lat="42.776162" lon="24.961855">
				<ele>1231.000000</ele>
				<time>2025-07-12T15:16:03Z</time>
			</trkpt>
			<trkpt lat="42.776168" lon="24.961839">
				<ele>1231.000000</ele>
				<time>2025-07-12T15:16:05Z</time>
			</trkpt>
			<trkpt lat="42.776183" lon="24.961819">
				<ele>1230.000000</ele>
				<time>2025-07-12T15:16:10Z</time>
			</trkpt>
			<trkpt lat="42.776188" lon="24.961819">
				<ele>1230.000000</ele>
				<time>2025-07-12T15:16:13Z</time>
			</trkpt>
			<trkpt lat="42.776201" lon="24.961815">
				<ele>1229.000000</ele>
				<time>2025-07-12T15:16:19Z</time>
			</trkpt>
			<trkpt lat="42.776201" lon="24.961815">
				<ele>1228.000000</ele>
				<time>2025-07-12T15:16:20Z</time>
			</trkpt>
			<trkpt lat="42.776210" lon="24.961801">
				<ele>1228.000000</ele>
				<time>2025-07-12T15:16:27Z</time>
			</trkpt>
			<trkpt lat="42.776225" lon="24.961792">
				<ele>1228.000000</ele>
				<time>2025-07-12T15:16:29Z</time>
			</trkpt>
			<trkpt lat="42.776237" lon="24.961774">
				<ele>1228.000000</ele>
				<time>2025-07-12T15:16:36Z</time>
			</trkpt>
			<trkpt lat="42.776242" lon="24.961776">
				<ele>1228.000000</ele>
				<time>2025-07-12T15:16:37Z</time>
			</trkpt>
			<trkpt lat="42.776274" lon="24.961766">
				<ele>1227.000000</ele>
				<time>2025-07-12T15:16:43Z</time>
			</trkpt>
			<trkpt lat="42.776297" lon="24.961757">
				<ele>1226.000000</ele>
				<time>2025-07-12T15:16:46Z</time>
			</trkpt>
			<trkpt lat="42.776302" lon="24.961753">
				<ele>1226.000000</ele>
				<time>2025-07-12T15:16:49Z</time>
			</trkpt>
			<trkpt lat="42.776321" lon="24.961761">
				<ele>1225.000000</ele>
				<time>2025-07-12T15:16:53Z</time>
			</trkpt>
			<trkpt lat="42.776338" lon="24.961762">
				<ele>1225.000000</ele>
				<time>2025-07-12T15:16:55Z</time>
			</trkpt>
			<trkpt lat="42.776343" lon="24.961785">
				<ele>1225.000000</ele>
				<time>2025-07-12T15:17:00Z</time>
			</trkpt>
			<trkpt lat="42.776336" lon="24.961805">
				<ele>1224.000000</ele>
				<time>2025-07-12T15:17:05Z</time>
			</trkpt>
			<trkpt lat="42.776346" lon="24.961809">
				<ele>1224.000000</ele>
				<time>2025-07-12T15:17:09Z</time>
			</trkpt>
			<trkpt lat="42.776365" lon="24.961841">
				<ele>1224.000000</ele>
				<time>2025-07-12T15:17:16Z</time>
			</trkpt>
			<trkpt lat="42.776395" lon="24.961859">
				<ele>1223.000000</ele>
				<time>2025-07-12T15:17:22Z</time>
			</trkpt>
			<trkpt lat="42.776397" lon="24.961862">
				<ele>1223.000000</ele>
				<time>2025-07-12T15:17:23Z</time>
			</trkpt>
			<trkpt lat="42.776398" lon="24.961879">
				<ele>1222.000000</ele>
				<time>2025-07-12T15:17:28Z</time>
			</trkpt>
			<trkpt lat="42.776407" lon="24.961895">
				<ele>1222.000000</ele>
				<time>2025-07-12T15:17:30Z</time>
			</trkpt>
			<trkpt lat="42.776411" lon="24.961900">
				<ele>1222.000000</ele>
				<time>2025-07-12T15:17:31Z</time>
			</trkpt>
			<trkpt lat="42.776440" lon="24.961942">
				<ele>1221.000000</ele>
				<time>2025-07-12T15:17:38Z</time>
			</trkpt>
			<trkpt lat="42.776452" lon="24.961954">
				<ele>1221.000000</ele>
				<time>2025-07-12T15:17:40Z</time>
			</trkpt>
			<trkpt lat="42.776458" lon="24.961953">
				<ele>1221.000000</ele>
				<time>2025-07-12T15:17:44Z</time>
			</trkpt>
			<trkpt lat="42.776465" lon="24.961971">
				<ele>1220.000000</ele>
				<time>2025-07-12T15:17:50Z</time>
			</trkpt>
			<trkpt lat="42.776468" lon="24.961977">
				<ele>1220.000000</ele>
				<time>2025-07-12T15:17:52Z</time>
			</trkpt>
			<trkpt lat="42.776462" lon="24.961988">
				<ele>1220.000000</ele>
				<time>2025-07-12T15:17:58Z</time>
			</trkpt>
			<trkpt lat="42.776461" lon="24.961986">
				<ele>1220.000000</ele>
				<time>2025-07-12T15:18:01Z</time>
			</trkpt>
			<trkpt lat="42.776473" lon="24.961996">
				<ele>1220.000000</ele>
				<time>2025-07-12T15:18:06Z</time>
			</trkpt>
			<trkpt lat="42.776496" lon="24.961974">
				<ele>1219.000000</ele>
				<time>2025-07-12T15:18:16Z</time>
			</trkpt>
			<trkpt lat="42.776493" lon="24.961985">
				<ele>1219.000000</ele>
				<time>2025-07-12T15:18:22Z</time>
			</trkpt>
			<trkpt lat="42.776497" lon="24.961990">
				<ele>1219.000000</ele>
				<time>2025-07-12T15:18:23Z</time>
			</trkpt>
			<trkpt lat="42.776500" lon="24.962001">
				<ele>1219.000000</ele>
				<time>2025-07-12T15:18:25Z</time>
			</trkpt>
			<trkpt lat="42.776511" lon="24.962012">
				<ele>1218.000000</ele>
				<time>2025-07-12T15:18:31Z</time>
			</trkpt>
			<trkpt lat="42.776521" lon="24.962008">
				<ele>1218.000000</ele>
				<time>2025-07-12T15:18:34Z</time>
			</trkpt>
			<trkpt lat="42.776520" lon="24.961984">
				<ele>1217.000000</ele>
				<time>2025-07-12T15:18:39Z</time>
			</trkpt>
			<trkpt lat="42.776538" lon="24.961986">
				<ele>1216.000000</ele>
				<time>2025-07-12T15:18:44Z</time>
			</trkpt>
			<trkpt lat="42.776532" lon="24.961992">
				<ele>1215.000000</ele>
				<time>2025-07-12T15:18:46Z</time>
			</trkpt>
			<trkpt lat="42.776517" lon="24.962005">
				<ele>1215.000000</ele>
				<time>2025-07-12T15:18:50Z</time>
			</trkpt>
			<trkpt lat="42.776497" lon="24.962012">
				<ele>1215.000000</ele>
				<time>2025-07-12T15:18:54Z</time>
			</trkpt>
			<trkpt lat="42.776499" lon="24.962012">
				<ele>1215.000000</ele>
				<time>2025-07-12T15:18:57Z</time>
			</trkpt>
			<trkpt lat="42.776531" lon="24.962001">
				<ele>1215.000000</ele>
				<time>2025-07-12T15:19:02Z</time>
			</trkpt>
			<trkpt lat="42.776580" lon="24.961971">
				<ele>1215.000000</ele>
				<time>2025-07-12T15:19:08Z</time>
			</trkpt>
			<trkpt lat="42.776589" lon="24.961963">
				<ele>1215.000000</ele>
				<time>2025-07-12T15:19:09Z</time>
			</trkpt>
			<trkpt lat="42.776596" lon="24.961958">
				<ele>1214.000000</ele>
				<time>2025-07-12T15:19:10Z</time>
			</trkpt>
			<trkpt lat="42.776625" lon="24.961930">
				<ele>1214.000000</ele>
				<time>2025-07-12T15:19:15Z</time>
			</trkpt>
			<trkpt lat="42.776627" lon="24.961921">
				<ele>1213.000000</ele>
				<time>2025-07-12T15:19:18Z</time>
			</trkpt>
			<trkpt lat="42.776633" lon="24.961907">
				<ele>1212.000000</ele>
				<time>2025-07-12T15:19:20Z</time>
			</trkpt>
			<trkpt lat="42.776649" lon="24.961896">
				<ele>1211.000000</ele>
				<time>2025-07-12T15:19:23Z</time>
			</trkpt>
			<trkpt lat="42.776653" lon="24.961891">
				<ele>1211.000000</ele>
				<time>2025-07-12T15:19:24Z</time>
			</trkpt>
			<trkpt lat="42.776655" lon="24.961904">
				<ele>1210.000000</ele>
				<time>2025-07-12T15:19:30Z</time>
			</trkpt>
			<trkpt lat="42.776657" lon="24.961904">
				<ele>1211.000000</ele>
				<time>2025-07-12T15:19:31Z</time>
			</trkpt>
			<trkpt lat="42.776659" lon="24.961903">
				<ele>1211.000000</ele>
				<time>2025-07-12T15:19:33Z</time>
			</trkpt>
			<trkpt lat="42.776670" lon="24.961887">
				<ele>1210.000000</ele>
				<time>2025-07-12T15:19:37Z</time>
			</trkpt>
			<trkpt lat="42.776689" lon="24.961886">
				<ele>1210.000000</ele>
				<time>2025-07-12T15:19:40Z</time>
			</trkpt>
			<trkpt lat="42.776690" lon="24.961902">
				<ele>1209.000000</ele>
				<time>2025-07-12T15:19:45Z</time>
			</trkpt>
			<trkpt lat="42.776692" lon="24.961904">
				<ele>1209.000000</ele>
				<time>2025-07-12T15:19:46Z</time>
			</trkpt>
			<trkpt lat="42.776702" lon="24.961896">
				<ele>1209.000000</ele>
				<time>2025-07-12T15:19:48Z</time>
			</trkpt>
			<trkpt lat="42.776731" lon="24.961874">
				<ele>1209.000000</ele>
				<time>2025-07-12T15:19:54Z</time>
			</trkpt>
			<trkpt lat="42.776738" lon="24.961866">
				<ele>1209.000000</ele>
				<time>2025-07-12T15:19:55Z</time>
			</trkpt>
			<trkpt lat="42.776753" lon="24.961862">
				<ele>1208.000000</ele>
				<time>2025-07-12T15:19:58Z</time>
			</trkpt>
			<trkpt lat="42.776758" lon="24.961860">
				<ele>1208.000000</ele>
				<time>2025-07-12T15:20:01Z</time>
			</trkpt>
			<trkpt lat="42.776760" lon="24.961862">
				<ele>1208.000000</ele>
				<time>2025-07-12T15:20:02Z</time>
			</trkpt>
			<trkpt lat="42.776773" lon="24.961835">
				<ele>1207.000000</ele>
				<time>2025-07-12T15:20:07Z</time>
			</trkpt>
			<trkpt lat="42.776774" lon="24.961835">
				<ele>1207.000000</ele>
				<time>2025-07-12T15:20:08Z</time>
			</trkpt>
			<trkpt lat="42.776791" lon="24.961825">
				<ele>1207.000000</ele>
				<time>2025-07-12T15:20:14Z</time>
			</trkpt>
			<trkpt lat="42.776798" lon="24.961823">
				<ele>1206.000000</ele>
				<time>2025-07-12T15:20:17Z</time>
			</trkpt>
			<trkpt lat="42.776808" lon="24.961809">
				<ele>1205.000000</ele>
				<time>2025-07-12T15:20:21Z</time>
			</trkpt>
			<trkpt lat="42.776810" lon="24.961803">
				<ele>1205.000000</ele>
				<time>2025-07-12T15:20:23Z</time>
			</trkpt>
			<trkpt lat="42.776815" lon="24.961785">
				<ele>1204.000000</ele>
				<time>2025-07-12T15:20:28Z</time>
			</trkpt>
			<trkpt lat="42.776816" lon="24.961782">
				<ele>1204.000000</ele>
				<time>2025-07-12T15:20:29Z</time>
			</trkpt>
			<trkpt lat="42.776818" lon="24.961756">
				<ele>1203.000000</ele>
				<time>2025-07-12T15:20:35Z</time>
			</trkpt>
			<trkpt lat="42.776822" lon="24.961738">
				<ele>1203.000000</ele>
				<time>2025-07-12T15:20:37Z</time>
			</trkpt>
			<trkpt lat="42.776822" lon="24.961693">
				<ele>1202.000000</ele>
				<time>2025-07-12T15:20:42Z</time>
			</trkpt>
			<trkpt lat="42.776830" lon="24.961678">
				<ele>1201.000000</ele>
				<time>2025-07-12T15:20:45Z</time>
			</trkpt>
			<trkpt lat="42.776839" lon="24.961662">
				<ele>1201.000000</ele>
				<time>2025-07-12T15:20:49Z</time>
			</trkpt>
			<trkpt lat="42.776845" lon="24.961656">
				<ele>1201.000000</ele>
				<time>2025-07-12T15:20:55Z</time>
			</trkpt>
			<trkpt lat="42.776830" lon="24.961635">
				<ele>1200.000000</ele>
				<time>2025-07-12T15:21:03Z</time>
			</trkpt>
			<trkpt lat="42.776829" lon="24.961593">
				<ele>1199.000000</ele>
				<time>2025-07-12T15:21:09Z</time>
			</trkpt>
			<trkpt lat="42.776827" lon="24.961584">
				<ele>1199.000000</ele>
				<time>2025-07-12T15:21:10Z</time>
			</trkpt>
			<trkpt lat="42.776851" lon="24.961571">
				<ele>1197.000000</ele>
				<time>2025-07-12T15:21:16Z</time>
			</trkpt>
			<trkpt lat="42.776894" lon="24.961561">
				<ele>1197.000000</ele>
				<time>2025-07-12T15:21:23Z</time>
			</trkpt>
			<trkpt lat="42.776912" lon="24.961564">
				<ele>1196.000000</ele>
				<time>2025-07-12T15:21:26Z</time>
			</trkpt>
			<trkpt lat="42.776947" lon="24.961571">
				<ele>1196.000000</ele>
				<time>2025-07-12T15:21:31Z</time>
			</trkpt>
			<trkpt lat="42.776948" lon="24.961573">
				<ele>1195.000000</ele>
				<time>2025-07-12T15:21:32Z</time>
			</trkpt>
			<trkpt lat="42.776978" lon="24.961584">
				<ele>1195.000000</ele>
				<time>2025-07-12T15:21:38Z</time>
			</trkpt>
			<trkpt lat="42.776983" lon="24.961581">
				<ele>1194.000000</ele>
				<time>2025-07-12T15:21:39Z</time>
			</trkpt>
			<trkpt lat="42.777000" lon="24.961568">
				<ele>1193.000000</ele>
				<time>2025-07-12T15:21:45Z</time>
			</trkpt>
			<trkpt lat="42.777003" lon="24.961565">
				<ele>1193.000000</ele>
				<time>2025-07-12T15:21:46Z</time>
			</trkpt>
			<trkpt lat="42.777020" lon="24.961554">
				<ele>1192.000000</ele>
				<time>2025-07-12T15:21:52Z</time>
			</trkpt>
			<trkpt lat="42.777015" lon="24.961550">
				<ele>1192.000000</ele>
				<time>2025-07-12T15:21:55Z</time>
			</trkpt>
			<trkpt lat="42.777053" lon="24.961511">
				<ele>1191.000000</ele>
				<time>2025-07-12T15:22:04Z</time>
			</trkpt>
			<trkpt lat="42.777082" lon="24.961479">
				<ele>1190.000000</ele>
				<time>2025-07-12T15:22:10Z</time>
			</trkpt>
			<trkpt lat="42.777087" lon="24.961477">
				<ele>1190.000000</ele>
				<time>2025-07-12T15:22:12Z</time>
			</trkpt>
			<trkpt lat="42.777107" lon="24.961455">
				<ele>1189.000000</ele>
				<time>2025-07-12T15:22:17Z</time>
			</trkpt>
			<trkpt lat="42.777121" lon="24.961447">
				<ele>1188.000000</ele>
				<time>2025-07-12T15:22:20Z</time>
			</trkpt>
			<trkpt lat="42.777131" lon="24.961448">
				<ele>1188.000000</ele>
				<time>2025-07-12T15:22:22Z</time>
			</trkpt>
			<trkpt lat="42.777159" lon="24.961436">
				<ele>1187.000000</ele>
				<time>2025-07-12T15:22:28Z</time>
			</trkpt>
			<trkpt lat="42.777168" lon="24.961432">
				<ele>1186.000000</ele>
				<time>2025-07-12T15:22:30Z</time>
			</trkpt>
			<trkpt lat="42.777179" lon="24.961428">
				<ele>1186.000000</ele>
				<time>2025-07-12T15:22:33Z</time>
			</trkpt>
			<trkpt lat="42.777193" lon="24.961420">
				<ele>1184.000000</ele>
				<time>2025-07-12T15:22:37Z</time>
			</trkpt>
			<trkpt lat="42.777197" lon="24.961418">
				<ele>1184.000000</ele>
				<time>2025-07-12T15:22:38Z</time>
			</trkpt>
			<trkpt lat="42.777205" lon="24.961393">
				<ele>1183.000000</ele>
				<time>2025-07-12T15:22:42Z</time>
			</trkpt>
			<trkpt lat="42.777208" lon="24.961355">
				<ele>1182.000000</ele>
				<time>2025-07-12T15:22:46Z</time>
			</trkpt>
			<trkpt lat="42.777212" lon="24.961329">
				<ele>1181.000000</ele>
				<time>2025-07-12T15:22:48Z</time>
			</trkpt>
			<trkpt lat="42.777218" lon="24.961324">
				<ele>1181.000000</ele>
				<time>2025-07-12T15:22:50Z</time>
			</trkpt>
			<trkpt lat="42.777239" lon="24.961296">
				<ele>1180.000000</ele>
				<time>2025-07-12T15:22:54Z</time>
			</trkpt>
			<trkpt lat="42.777248" lon="24.961285">
				<ele>1180.000000</ele>
				<time>2025-07-12T15:22:55Z</time>
			</trkpt>
			<trkpt lat="42.777273" lon="24.961257">
				<ele>1179.000000</ele>
				<time>2025-07-12T15:22:59Z</time>
			</trkpt>
			<trkpt lat="42.777281" lon="24.961250">
				<ele>1178.000000</ele>
				<time>2025-07-12T15:23:00Z</time>
			</trkpt>
			<trkpt lat="42.777307" lon="24.961233">
				<ele>1177.000000</ele>
				<time>2025-07-12T15:23:03Z</time>
			</trkpt>
			<trkpt lat="42.777336" lon="24.961212">
				<ele>1176.000000</ele>
				<time>2025-07-12T15:23:08Z</time>
			</trkpt>
			<trkpt lat="42.777349" lon="24.961204">
				<ele>1175.000000</ele>
				<time>2025-07-12T15:23:18Z</time>
			</trkpt>
			<trkpt lat="42.777390" lon="24.961179">
				<ele>1174.000000</ele>
				<time>2025-07-12T15:23:23Z</time>
			</trkpt>
			<trkpt lat="42.777405" lon="24.961164">
				<ele>1173.000000</ele>
				<time>2025-07-12T15:23:27Z</time>
			</trkpt>
			<trkpt lat="42.777407" lon="24.961155">
				<ele>1173.000000</ele>
				<time>2025-07-12T15:23:29Z</time>
			</trkpt>
			<trkpt lat="42.777414" lon="24.961123">
				<ele>1172.000000</ele>
				<time>2025-07-12T15:23:33Z</time>
			</trkpt>
			<trkpt lat="42.777416" lon="24.961117">
				<ele>1172.000000</ele>
				<time>2025-07-12T15:23:35Z</time>
			</trkpt>
			<trkpt lat="42.777421" lon="24.961109">
				<ele>1172.000000</ele>
				<time>2025-07-12T15:23:44Z</time>
			</trkpt>
			<trkpt lat="42.777442" lon="24.961098">
				<ele>1172.000000</ele>
				<time>2025-07-12T15:23:56Z</time>
			</trkpt>
			<trkpt lat="42.777451" lon="24.961069">
				<ele>1171.000000</ele>
				<time>2025-07-12T15:24:02Z</time>
			</trkpt>
			<trkpt lat="42.777456" lon="24.961060">
				<ele>1170.000000</ele>
				<time>2025-07-12T15:24:04Z</time>
			</trkpt>
			<trkpt lat="42.777462" lon="24.961056">
				<ele>1170.000000</ele>
				<time>2025-07-12T15:24:06Z</time>
			</trkpt>
			<trkpt lat="42.777459" lon="24.961056">
				<ele>1169.000000</ele>
				<time>2025-07-12T15:24:12Z</time>
			</trkpt>
			<trkpt lat="42.777458" lon="24.961058">
				<ele>1169.000000</ele>
				<time>2025-07-12T15:24:13Z</time>
			</trkpt>
			<trkpt lat="42.777469" lon="24.961051">
				<ele>1169.000000</ele>
				<time>2025-07-12T15:24:17Z</time>
			</trkpt>
			<trkpt lat="42.777468" lon="24.961051">
				<ele>1169.000000</ele>
				<time>2025-07-12T15:24:18Z</time>
			</trkpt>
			<trkpt lat="42.777468" lon="24.961050">
				<ele>1169.000000</ele>
				<time>2025-07-12T15:24:19Z</time>
			</trkpt>
			<trkpt lat="42.777468" lon="24.961049">
				<ele>1169.000000</ele>
				<time>2025-07-12T15:24:20Z</time>
			</trkpt>
			<trkpt lat="42.777468" lon="24.961047">
				<ele>1169.000000</ele>
				<time>2025-07-12T15:24:23Z</time>
			</trkpt>
			<trkpt lat="42.777472" lon="24.961045">
				<ele>1169.000000</ele>
				<time>2025-07-12T15:24:24Z</time>
			</trkpt>
			<trkpt lat="42.777508" lon="24.961026">
				<ele>1167.000000</ele>
				<time>2025-07-12T15:24:30Z</time>
			</trkpt>
			<trkpt lat="42.777520" lon="24.961019">
				<ele>1167.000000</ele>
				<time>2025-07-12T15:24:32Z</time>
			</trkpt>
			<trkpt lat="42.777550" lon="24.961013">
				<ele>1166.000000</ele>
				<time>2025-07-12T15:24:36Z</time>
			</trkpt>
			<trkpt lat="42.777561" lon="24.961001">
				<ele>1166.000000</ele>
				<time>2025-07-12T15:24:39Z</time>
			</trkpt>
			<trkpt lat="42.777561" lon="24.960994">
				<ele>1165.000000</ele>
				<time>2025-07-12T15:24:41Z</time>
			</trkpt>
			<trkpt lat="42.777580" lon="24.960990">
				<ele>1164.000000</ele>
				<time>2025-07-12T15:24:46Z</time>
			</trkpt>
			<trkpt lat="42.777590" lon="24.960988">
				<ele>1164.000000</ele>
				<time>2025-07-12T15:24:47Z</time>
			</trkpt>
			<trkpt lat="42.777631" lon="24.960975">
				<ele>1163.000000</ele>
				<time>2025-07-12T15:24:52Z</time>
			</trkpt>
			<trkpt lat="42.777637" lon="24.960974">
				<ele>1163.000000</ele>
				<time>2025-07-12T15:24:53Z</time>
			</trkpt>
			<trkpt lat="42.777643" lon="24.960971">
				<ele>1162.000000</ele>
				<time>2025-07-12T15:24:57Z</time>
			</trkpt>
			<trkpt lat="42.777636" lon="24.960962">
				<ele>1162.000000</ele>
				<time>2025-07-12T15:25:02Z</time>
			</trkpt>
			<trkpt lat="42.777648" lon="24.960959">
				<ele>1162.000000</ele>
				<time>2025-07-12T15:25:13Z</time>
			</trkpt>
			<trkpt lat="42.777655" lon="24.960968">
				<ele>1162.000000</ele>
				<time>2025-07-12T15:25:22Z</time>
			</trkpt>
			<trkpt lat="42.777694" lon="24.960958">
				<ele>1161.000000</ele>
				<time>2025-07-12T15:25:29Z</time>
			</trkpt>
			<trkpt lat="42.777710" lon="24.960950">
				<ele>1160.000000</ele>
				<time>2025-07-12T15:25:31Z</time>
			</trkpt>
			<trkpt lat="42.777725" lon="24.960932">
				<ele>1160.000000</ele>
				<time>2025-07-12T15:25:34Z</time>
			</trkpt>
			<trkpt lat="42.777743" lon="24.960908">
				<ele>1159.000000</ele>
				<time>2025-07-12T15:25:38Z</time>
			</trkpt>
			<trkpt lat="42.777746" lon="24.960903">
				<ele>1158.000000</ele>
				<time>2025-07-12T15:25:39Z</time>
			</trkpt>
			<trkpt lat="42.777764" lon="24.960862">
				<ele>1157.000000</ele>
				<time>2025-07-12T15:25:43Z</time>
			</trkpt>
			<trkpt lat="42.777775" lon="24.960848">
				<ele>1157.000000</ele>
				<time>2025-07-12T15:25:46Z</time>
			</trkpt>
			<trkpt lat="42.777778" lon="24.960840">
				<ele>1156.000000</ele>
				<time>2025-07-12T15:25:47Z</time>
			</trkpt>
			<trkpt lat="42.777789" lon="24.960809">
				<ele>1155.000000</ele>
				<time>2025-07-12T15:25:51Z</time>
			</trkpt>
			<trkpt lat="42.777800" lon="24.960803">
				<ele>1154.000000</ele>
				<time>2025-07-12T15:25:55Z</time>
			</trkpt>
			<trkpt lat="42.777810" lon="24.960795">
				<ele>1154.000000</ele>
				<time>2025-07-12T15:25:57Z</time>
			</trkpt>
			<trkpt lat="42.777850" lon="24.960781">
				<ele>1153.000000</ele>
				<time>2025-07-12T15:26:03Z</time>
			</trkpt>
			<trkpt lat="42.777854" lon="24.960779">
				<ele>1153.000000</ele>
				<time>2025-07-12T15:26:04Z</time>
			</trkpt>
			<trkpt lat="42.777863" lon="24.960767">
				<ele>1153.000000</ele>
				<time>2025-07-12T15:26:11Z</time>
			</trkpt>
			<trkpt lat="42.777860" lon="24.960777">
				<ele>1153.000000</ele>
				<time>2025-07-12T15:26:19Z</time>
			</trkpt>
			<trkpt lat="42.777859" lon="24.960781">
				<ele>1153.000000</ele>
				<time>2025-07-12T15:26:24Z</time>
			</trkpt>
			<trkpt lat="42.777872" lon="24.960777">
				<ele>1153.000000</ele>
				<time>2025-07-12T15:26:29Z</time>
			</trkpt>
			<trkpt lat="42.777921" lon="24.960770">
				<ele>1152.000000</ele>
				<time>2025-07-12T15:26:36Z</time>
			</trkpt>
			<trkpt lat="42.777927" lon="24.960769">
				<ele>1152.000000</ele>
				<time>2025-07-12T15:26:37Z</time>
			</trkpt>
			<trkpt lat="42.777972" lon="24.960738">
				<ele>1151.000000</ele>
				<time>2025-07-12T15:26:44Z</time>
			</trkpt>
			<trkpt lat="42.778042" lon="24.960726">
				<ele>1150.000000</ele>
				<time>2025-07-12T15:26:52Z</time>
			</trkpt>
			<trkpt lat="42.778051" lon="24.960724">
				<ele>1150.000000</ele>
				<time>2025-07-12T15:26:53Z</time>
			</trkpt>
			<trkpt lat="42.778094" lon="24.960722">
				<ele>1149.000000</ele>
				<time>2025-07-12T15:26:59Z</time>
			</trkpt>
			<trkpt lat="42.778104" lon="24.960723">
				<ele>1148.000000</ele>
				<time>2025-07-12T15:27:00Z</time>
			</trkpt>
			<trkpt lat="42.778137" lon="24.960718">
				<ele>1147.000000</ele>
				<time>2025-07-12T15:27:05Z</time>
			</trkpt>
			<trkpt lat="42.778146" lon="24.960707">
				<ele>1147.000000</ele>
				<time>2025-07-12T15:27:07Z</time>
			</trkpt>
			<trkpt lat="42.778188" lon="24.960685">
				<ele>1146.000000</ele>
				<time>2025-07-12T15:27:14Z</time>
			</trkpt>
			<trkpt lat="42.778195" lon="24.960685">
				<ele>1146.000000</ele>
				<time>2025-07-12T15:27:15Z</time>
			</trkpt>
			<trkpt lat="42.778213" lon="24.960697">
				<ele>1145.000000</ele>
				<time>2025-07-12T15:27:19Z</time>
			</trkpt>
			<trkpt lat="42.778217" lon="24.960715">
				<ele>1145.000000</ele>
				<time>2025-07-12T15:27:22Z</time>
			</trkpt>
			<trkpt lat="42.778225" lon="24.960744">
				<ele>1144.000000</ele>
				<time>2025-07-12T15:27:26Z</time>
			</trkpt>
			<trkpt lat="42.778233" lon="24.960755">
				<ele>1143.000000</ele>
				<time>2025-07-12T15:27:30Z</time>
			</trkpt>
			<trkpt lat="42.778241" lon="24.960764">
				<ele>1143.000000</ele>
				<time>2025-07-12T15:27:32Z</time>
			</trkpt>
			<trkpt lat="42.778260" lon="24.960769">
				<ele>1142.000000</ele>
				<time>2025-07-12T15:27:36Z</time>
			</trkpt>
			<trkpt lat="42.778296" lon="24.960756">
				<ele>1141.000000</ele>
				<time>2025-07-12T15:27:41Z</time>
			</trkpt>
			<trkpt lat="42.778301" lon="24.960767">
				<ele>1140.000000</ele>
				<time>2025-07-12T15:27:43Z</time>
			</trkpt>
			<trkpt lat="42.778308" lon="24.960763">
				<ele>1140.000000</ele>
				<time>2025-07-12T15:27:45Z</time>
			</trkpt>
			<trkpt lat="42.778313" lon="24.960755">
				<ele>1139.000000</ele>
				<time>2025-07-12T15:27:48Z</time>
			</trkpt>
			<trkpt lat="42.778316" lon="24.960752">
				<ele>1139.000000</ele>
				<time>2025-07-12T15:27:49Z</time>
			</trkpt>
			<trkpt lat="42.778321" lon="24.960748">
				<ele>1138.000000</ele>
				<time>2025-07-12T15:27:50Z</time>
			</trkpt>
			<trkpt lat="42.778354" lon="24.960734">
				<ele>1138.000000</ele>
				<time>2025-07-12T15:27:54Z</time>
			</trkpt>
			<trkpt lat="42.778384" lon="24.960718">
				<ele>1137.000000</ele>
				<time>2025-07-12T15:27:58Z</time>
			</trkpt>
			<trkpt lat="42.778404" lon="24.960699">
				<ele>1136.000000</ele>
				<time>2025-07-12T15:28:01Z</time>
			</trkpt>
			<trkpt lat="42.778417" lon="24.960675">
				<ele>1136.000000</ele>
				<time>2025-07-12T15:28:06Z</time>
			</trkpt>
			<trkpt lat="42.778432" lon="24.960620">
				<ele>1135.000000</ele>
				<time>2025-07-12T15:28:12Z</time>
			</trkpt>
			<trkpt lat="42.778431" lon="24.960612">
				<ele>1135.000000</ele>
				<time>2025-07-12T15:28:13Z</time>
			</trkpt>
			<trkpt lat="42.778456" lon="24.960567">
				<ele>1134.000000</ele>
				<time>2025-07-12T15:28:19Z</time>
			</trkpt>
			<trkpt lat="42.778465" lon="24.960557">
				<ele>1134.000000</ele>
				<time>2025-07-12T15:28:20Z</time>
			</trkpt>
			<trkpt lat="42.778494" lon="24.960545">
				<ele>1133.000000</ele>
				<time>2025-07-12T15:28:26Z</time>
			</trkpt>
			<trkpt lat="42.778500" lon="24.960547">
				<ele>1133.000000</ele>
				<time>2025-07-12T15:28:28Z</time>
			</trkpt>
			<trkpt lat="42.778527" lon="24.960567">
				<ele>1132.000000</ele>
				<time>2025-07-12T15:28:33Z</time>
			</trkpt>
			<trkpt lat="42.778529" lon="24.960577">
				<ele>1132.000000</ele>
				<time>2025-07-12T15:28:35Z</time>
			</trkpt>
			<trkpt lat="42.778528" lon="24.960579">
				<ele>1131.000000</ele>
				<time>2025-07-12T15:28:36Z</time>
			</trkpt>
			<trkpt lat="42.778531" lon="24.960585">
				<ele>1131.000000</ele>
				<time>2025-07-12T15:28:37Z</time>
			</trkpt>
			<trkpt lat="42.778550" lon="24.960610">
				<ele>1130.000000</ele>
				<time>2025-07-12T15:28:41Z</time>
			</trkpt>
			<trkpt lat="42.778566" lon="24.960626">
				<ele>1130.000000</ele>
				<time>2025-07-12T15:28:43Z</time>
			</trkpt>
			<trkpt lat="42.778577" lon="24.960642">
				<ele>1129.000000</ele>
				<time>2025-07-12T15:28:45Z</time>
			</trkpt>
			<trkpt lat="42.778587" lon="24.960664">
				<ele>1129.000000</ele>
				<time>2025-07-12T15:28:47Z</time>
			</trkpt>
			<trkpt lat="42.778593" lon="24.960675">
				<ele>1129.000000</ele>
				<time>2025-07-12T15:28:48Z</time>
			</trkpt>
			<trkpt lat="42.778613" lon="24.960710">
				<ele>1128.000000</ele>
				<time>2025-07-12T15:28:52Z</time>
			</trkpt>
			<trkpt lat="42.778615" lon="24.960715">
				<ele>1128.000000</ele>
				<time>2025-07-12T15:28:53Z</time>
			</trkpt>
			<trkpt lat="42.778638" lon="24.960756">
				<ele>1127.000000</ele>
				<time>2025-07-12T15:28:59Z</time>
			</trkpt>
			<trkpt lat="42.778645" lon="24.960769">
				<ele>1127.000000</ele>
				<time>2025-07-12T15:29:01Z</time>
			</trkpt>
			<trkpt lat="42.778639" lon="24.960793">
				<ele>1126.000000</ele>
				<time>2025-07-12T15:29:06Z</time>
			</trkpt>
			<trkpt lat="42.778651" lon="24.960813">
				<ele>1126.000000</ele>
				<time>2025-07-12T15:29:10Z</time>
			</trkpt>
			<trkpt lat="42.778678" lon="24.960850">
				<ele>1125.000000</ele>
				<time>2025-07-12T15:29:15Z</time>
			</trkpt>
			<trkpt lat="42.778706" lon="24.960877">
				<ele>1125.000000</ele>
				<time>2025-07-12T15:29:19Z</time>
			</trkpt>
			<trkpt lat="42.778719" lon="24.960917">
				<ele>1124.000000</ele>
				<time>2025-07-12T15:29:23Z</time>
			</trkpt>
			<trkpt lat="42.778724" lon="24.960923">
				<ele>1123.000000</ele>
				<time>2025-07-12T15:29:24Z</time>
			</trkpt>
			<trkpt lat="42.778748" lon="24.960951">
				<ele>1123.000000</ele>
				<time>2025-07-12T15:29:30Z</time>
			</trkpt>
			<trkpt lat="42.778756" lon="24.960940">
				<ele>1123.000000</ele>
				<time>2025-07-12T15:29:37Z</time>
			</trkpt>
			<trkpt lat="42.778762" lon="24.960946">
				<ele>1123.000000</ele>
				<time>2025-07-12T15:29:41Z</time>
			</trkpt>
			<trkpt lat="42.778757" lon="24.960964">
				<ele>1123.000000</ele>
				<time>2025-07-12T15:29:44Z</time>
			</trkpt>
			<trkpt lat="42.778764" lon="24.961001">
				<ele>1122.000000</ele>
				<time>2025-07-12T15:29:48Z</time>
			</trkpt>
			<trkpt lat="42.778772" lon="24.961022">
				<ele>1122.000000</ele>
				<time>2025-07-12T15:29:52Z</time>
			</trkpt>
			<trkpt lat="42.778782" lon="24.961030">
				<ele>1122.000000</ele>
				<time>2025-07-12T15:30:01Z</time>
			</trkpt>
			<trkpt lat="42.778791" lon="24.961047">
				<ele>1121.000000</ele>
				<time>2025-07-12T15:30:03Z</time>
			</trkpt>
			<trkpt lat="42.778789" lon="24.961086">
				<ele>1120.000000</ele>
				<time>2025-07-12T15:30:09Z</time>
			</trkpt>
			<trkpt lat="42.778804" lon="24.961151">
				<ele>1119.000000</ele>
				<time>2025-07-12T15:30:16Z</time>
			</trkpt>
			<trkpt lat="42.778807" lon="24.961153">
				<ele>1119.000000</ele>
				<time>2025-07-12T15:30:17Z</time>
			</trkpt>
			<trkpt lat="42.778820" lon="24.961139">
				<ele>1119.000000</ele>
				<time>2025-07-12T15:30:22Z</time>
			</trkpt>
			<trkpt lat="42.778812" lon="24.961170">
				<ele>1118.000000</ele>
				<time>2025-07-12T15:30:29Z</time>
			</trkpt>
			<trkpt lat="42.778816" lon="24.961190">
				<ele>1118.000000</ele>
				<time>2025-07-12T15:30:31Z</time>
			</trkpt>
			<trkpt lat="42.778822" lon="24.961229">
				<ele>1117.000000</ele>
				<time>2025-07-12T15:30:35Z</time>
			</trkpt>
			<trkpt lat="42.778826" lon="24.961245">
				<ele>1117.000000</ele>
				<time>2025-07-12T15:30:37Z</time>
			</trkpt>
			<trkpt lat="42.778828" lon="24.961255">
				<ele>1117.000000</ele>
				<time>2025-07-12T15:30:38Z</time>
			</trkpt>
			<trkpt lat="42.778853" lon="24.961288">
				<ele>1116.000000</ele>
				<time>2025-07-12T15:30:43Z</time>
			</trkpt>
			<trkpt lat="42.778854" lon="24.961293">
				<ele>1116.000000</ele>
				<time>2025-07-12T15:30:44Z</time>
			</trkpt>
			<trkpt lat="42.778866" lon="24.961322">
				<ele>1115.000000</ele>
				<time>2025-07-12T15:30:48Z</time>
			</trkpt>
			<trkpt lat="42.778881" lon="24.961347">
				<ele>1114.000000</ele>
				<time>2025-07-12T15:30:52Z</time>
			</trkpt>
			<trkpt lat="42.778886" lon="24.961363">
				<ele>1113.000000</ele>
				<time>2025-07-12T15:30:54Z</time>
			</trkpt>
			<trkpt lat="42.778892" lon="24.961375">
				<ele>1112.000000</ele>
				<time>2025-07-12T15:30:57Z</time>
			</trkpt>
			<trkpt lat="42.778902" lon="24.961399">
				<ele>1112.000000</ele>
				<time>2025-07-12T15:31:00Z</time>
			</trkpt>
			<trkpt lat="42.778918" lon="24.961415">
				<ele>1111.000000</ele>
				<time>2025-07-12T15:31:04Z</time>
			</trkpt>
			<trkpt lat="42.778928" lon="24.961424">
				<ele>1111.000000</ele>
				<time>2025-07-12T15:31:07Z</time>
			</trkpt>
			<trkpt lat="42.778916" lon="24.961423">
				<ele>1111.000000</ele>
				<time>2025-07-12T15:31:14Z</time>
			</trkpt>
			<trkpt lat="42.778928" lon="24.961418">
				<ele>1111.000000</ele>
				<time>2025-07-12T15:31:19Z</time>
			</trkpt>
			<trkpt lat="42.778938" lon="24.961410">
				<ele>1110.000000</ele>
				<time>2025-07-12T15:31:22Z</time>
			</trkpt>
			<trkpt lat="42.778945" lon="24.961397">
				<ele>1110.000000</ele>
				<time>2025-07-12T15:31:24Z</time>
			</trkpt>
			<trkpt lat="42.778960" lon="24.961376">
				<ele>1109.000000</ele>
				<time>2025-07-12T15:31:27Z</time>
			</trkpt>
			<trkpt lat="42.778987" lon="24.961355">
				<ele>1108.000000</ele>
				<time>2025-07-12T15:31:31Z</time>
			</trkpt>
			<trkpt lat="42.779009" lon="24.961338">
				<ele>1107.000000</ele>
				<time>2025-07-12T15:31:36Z</time>
			</trkpt>
			<trkpt lat="42.779025" lon="24.961326">
				<ele>1106.000000</ele>
				<time>2025-07-12T15:31:39Z</time>
			</trkpt>
			<trkpt lat="42.779031" lon="24.961325">
				<ele>1106.000000</ele>
				<time>2025-07-12T15:31:40Z</time>
			</trkpt>
			<trkpt lat="42.779084" lon="24.961306">
				<ele>1105.000000</ele>
				<time>2025-07-12T15:31:46Z</time>
			</trkpt>
			<trkpt lat="42.779080" lon="24.961289">
				<ele>1105.000000</ele>
				<time>2025-07-12T15:31:54Z</time>
			</trkpt>
			<trkpt lat="42.779064" lon="24.961282">
				<ele>1105.000000</ele>
				<time>2025-07-12T15:32:01Z</time>
			</trkpt>
			<trkpt lat="42.779073" lon="24.961275">
				<ele>1105.000000</ele>
				<time>2025-07-12T15:32:02Z</time>
			</trkpt>
			<trkpt lat="42.779065" lon="24.961270">
				<ele>1105.000000</ele>
				<time>2025-07-12T15:32:08Z</time>
			</trkpt>
			<trkpt lat="42.779069" lon="24.961270">
				<ele>1104.000000</ele>
				<time>2025-07-12T15:32:09Z</time>
			</trkpt>
			<trkpt lat="42.779087" lon="24.961224">
				<ele>1103.000000</ele>
				<time>2025-07-12T15:32:15Z</time>
			</trkpt>
			<trkpt lat="42.779095" lon="24.961196">
				<ele>1102.000000</ele>
				<time>2025-07-12T15:32:20Z</time>
			</trkpt>
			<trkpt lat="42.779105" lon="24.961186">
				<ele>1102.000000</ele>
				<time>2025-07-12T15:32:22Z</time>
			</trkpt>
			<trkpt lat="42.779129" lon="24.961161">
				<ele>1101.000000</ele>
				<time>2025-07-12T15:32:25Z</time>
			</trkpt>
			<trkpt lat="42.779147" lon="24.961141">
				<ele>1100.000000</ele>
				<time>2025-07-12T15:32:29Z</time>
			</trkpt>
			<trkpt lat="42.779149" lon="24.961137">
				<ele>1100.000000</ele>
				<time>2025-07-12T15:32:30Z</time>
			</trkpt>
			<trkpt lat="42.779169" lon="24.961105">
				<ele>1099.000000</ele>
				<time>2025-07-12T15:32:34Z</time>
			</trkpt>
			<trkpt lat="42.779173" lon="24.961093">
				<ele>1098.000000</ele>
				<time>2025-07-12T15:32:37Z</time>
			</trkpt>
			<trkpt lat="42.779177" lon="24.961089">
				<ele>1098.000000</ele>
				<time>2025-07-12T15:32:38Z</time>
			</trkpt>
			<trkpt lat="42.779197" lon="24.961080">
				<ele>1096.000000</ele>
				<time>2025-07-12T15:32:42Z</time>
			</trkpt>
			<trkpt lat="42.779205" lon="24.961077">
				<ele>1096.000000</ele>
				<time>2025-07-12T15:32:43Z</time>
			</trkpt>
			<trkpt lat="42.779224" lon="24.961069">
				<ele>1095.000000</ele>
				<time>2025-07-12T15:32:45Z</time>
			</trkpt>
			<trkpt lat="42.779247" lon="24.961053">
				<ele>1094.000000</ele>
				<time>2025-07-12T15:32:48Z</time>
			</trkpt>
			<trkpt lat="42.779288" lon="24.961031">
				<ele>1093.000000</ele>
				<time>2025-07-12T15:32:53Z</time>
			</trkpt>
			<trkpt lat="42.779293" lon="24.961031">
				<ele>1093.000000</ele>
				<time>2025-07-12T15:32:54Z</time>
			</trkpt>
			<trkpt lat="42.779322" lon="24.961025">
				<ele>1092.000000</ele>
				<time>2025-07-12T15:32:57Z</time>
			</trkpt>
			<trkpt lat="42.779365" lon="24.961009">
				<ele>1090.000000</ele>
				<time>2025-07-12T15:33:01Z</time>
			</trkpt>
			<trkpt lat="42.779391" lon="24.961002">
				<ele>1090.000000</ele>
				<time>2025-07-12T15:33:04Z</time>
			</trkpt>
			<trkpt lat="42.779401" lon="24.960998">
				<ele>1089.000000</ele>
				<time>2025-07-12T15:33:05Z</time>
			</trkpt>
			<trkpt lat="42.779429" lon="24.960991">
				<ele>1088.000000</ele>
				<time>2025-07-12T15:33:08Z</time>
			</trkpt>
			<trkpt lat="42.779429" lon="24.960997">
				<ele>1088.000000</ele>
				<time>2025-07-12T15:33:09Z</time>
			</trkpt>
			<trkpt lat="42.779447" lon="24.961010">
				<ele>1088.000000</ele>
				<time>2025-07-12T15:33:14Z</time>
			</trkpt>
			<trkpt lat="42.779444" lon="24.961011">
				<ele>1088.000000</ele>
				<time>2025-07-12T15:33:15Z</time>
			</trkpt>
			<trkpt lat="42.779443" lon="24.961013">
				<ele>1088.000000</ele>
				<time>2025-07-12T15:33:16Z</time>
			</trkpt>
			<trkpt lat="42.779456" lon="24.961022">
				<ele>1088.000000</ele>
				<time>2025-07-12T15:33:18Z</time>
			</trkpt>
			<trkpt lat="42.779465" lon="24.961025">
				<ele>1088.000000</ele>
				<time>2025-07-12T15:33:22Z</time>
			</trkpt>
			<trkpt lat="42.779500" lon="24.961013">
				<ele>1088.000000</ele>
				<time>2025-07-12T15:33:31Z</time>
			</trkpt>
			<trkpt lat="42.779502" lon="24.961014">
				<ele>1088.000000</ele>
				<time>2025-07-12T15:33:40Z</time>
			</trkpt>
			<trkpt lat="42.779478" lon="24.961007">
				<ele>1088.000000</ele>
				<time>2025-07-12T15:33:43Z</time>
			</trkpt>
			<trkpt lat="42.779459" lon="24.960999">
				<ele>1088.000000</ele>
				<time>2025-07-12T15:33:46Z</time>
			</trkpt>
			<trkpt lat="42.779457" lon="24.960998">
				<ele>1088.000000</ele>
				<time>2025-07-12T15:33:48Z</time>
			</trkpt>
			<trkpt lat="42.779454" lon="24.960994">
				<ele>1088.000000</ele>
				<time>2025-07-12T15:33:51Z</time>
			</trkpt>
			<trkpt lat="42.779456" lon="24.960995">
				<ele>1088.000000</ele>
				<time>2025-07-12T15:33:59Z</time>
			</trkpt>
			<trkpt lat="42.779455" lon="24.960988">
				<ele>1087.000000</ele>
				<time>2025-07-12T15:34:07Z</time>
			</trkpt>
			<trkpt lat="42.779445" lon="24.960992">
				<ele>1087.000000</ele>
				<time>2025-07-12T15:34:14Z</time>
			</trkpt>
			<trkpt lat="42.779464" lon="24.960987">
				<ele>1087.000000</ele>
				<time>2025-07-12T15:34:21Z</time>
			</trkpt>
			<trkpt lat="42.779469" lon="24.961018">
				<ele>1087.000000</ele>
				<time>2025-07-12T15:34:28Z</time>
			</trkpt>
			<trkpt lat="42.779452" lon="24.961034">
				<ele>1087.000000</ele>
				<time>2025-07-12T15:34:38Z</time>
			</trkpt>
			<trkpt lat="42.779453" lon="24.961039">
				<ele>1087.000000</ele>
				<time>2025-07-12T15:34:47Z</time>
			</trkpt>
			<trkpt lat="42.779460" lon="24.961045">
				<ele>1087.000000</ele>
				<time>2025-07-12T15:34:50Z</time>
			</trkpt>
			<trkpt lat="42.779460" lon="24.961045">
				<ele>1087.000000</ele>
				<time>2025-07-12T15:34:51Z</time>
			</trkpt>
			<trkpt lat="42.779459" lon="24.961047">
				<ele>1087.000000</ele>
				<time>2025-07-12T15:34:53Z</time>
			</trkpt>
			<trkpt lat="42.779462" lon="24.961039">
				<ele>1088.000000</ele>
				<time>2025-07-12T15:34:56Z</time>
			</trkpt>
			<trkpt lat="42.779472" lon="24.961033">
				<ele>1088.000000</ele>
				<time>2025-07-12T15:35:02Z</time>
			</trkpt>
			<trkpt lat="42.779465" lon="24.961009">
				<ele>1088.000000</ele>
				<time>2025-07-12T15:35:11Z</time>
			</trkpt>
			<trkpt lat="42.779479" lon="24.961010">
				<ele>1087.000000</ele>
				<time>2025-07-12T15:35:18Z</time>
			</trkpt>
			<trkpt lat="42.779489" lon="24.961021">
				<ele>1087.000000</ele>
				<time>2025-07-12T15:35:24Z</time>
			</trkpt>
			<trkpt lat="42.779489" lon="24.961007">
				<ele>1087.000000</ele>
				<time>2025-07-12T15:35:32Z</time>
			</trkpt>
			<trkpt lat="42.779513" lon="24.960995">
				<ele>1086.000000</ele>
				<time>2025-07-12T15:35:40Z</time>
			</trkpt>
			<trkpt lat="42.779516" lon="24.960995">
				<ele>1086.000000</ele>
				<time>2025-07-12T15:35:42Z</time>
			</trkpt>
			<trkpt lat="42.779528" lon="24.960982">
				<ele>1085.000000</ele>
				<time>2025-07-12T15:35:45Z</time>
			</trkpt>
			<trkpt lat="42.779533" lon="24.960972">
				<ele>1084.000000</ele>
				<time>2025-07-12T15:35:47Z</time>
			</trkpt>
			<trkpt lat="42.779533" lon="24.960967">
				<ele>1084.000000</ele>
				<time>2025-07-12T15:35:49Z</time>
			</trkpt>
			<trkpt lat="42.779557" lon="24.960946">
				<ele>1082.000000</ele>
				<time>2025-07-12T15:35:54Z</time>
			</trkpt>
			<trkpt lat="42.779584" lon="24.960936">
				<ele>1082.000000</ele>
				<time>2025-07-12T15:35:58Z</time>
			</trkpt>
			<trkpt lat="42.779587" lon="24.960933">
				<ele>1081.000000</ele>
				<time>2025-07-12T15:36:00Z</time>
			</trkpt>
			<trkpt lat="42.779619" lon="24.960924">
				<ele>1080.000000</ele>
				<time>2025-07-12T15:36:06Z</time>
			</trkpt>
			<trkpt lat="42.779654" lon="24.960921">
				<ele>1079.000000</ele>
				<time>2025-07-12T15:36:12Z</time>
			</trkpt>
			<trkpt lat="42.779661" lon="24.960920">
				<ele>1079.000000</ele>
				<time>2025-07-12T15:36:13Z</time>
			</trkpt>
			<trkpt lat="42.779692" lon="24.960923">
				<ele>1078.000000</ele>
				<time>2025-07-12T15:36:20Z</time>
			</trkpt>
			<trkpt lat="42.779699" lon="24.960924">
				<ele>1078.000000</ele>
				<time>2025-07-12T15:36:22Z</time>
			</trkpt>
			<trkpt lat="42.779709" lon="24.960907">
				<ele>1077.000000</ele>
				<time>2025-07-12T15:36:27Z</time>
			</trkpt>
			<trkpt lat="42.779724" lon="24.960903">
				<ele>1076.000000</ele>
				<time>2025-07-12T15:36:29Z</time>
			</trkpt>
			<trkpt lat="42.779743" lon="24.960909">
				<ele>1076.000000</ele>
				<time>2025-07-12T15:36:33Z</time>
			</trkpt>
			<trkpt lat="42.779758" lon="24.960921">
				<ele>1075.000000</ele>
				<time>2025-07-12T15:36:36Z</time>
			</trkpt>
			<trkpt lat="42.779789" lon="24.960929">
				<ele>1075.000000</ele>
				<time>2025-07-12T15:36:43Z</time>
			</trkpt>
			<trkpt lat="42.779816" lon="24.960917">
				<ele>1073.000000</ele>
				<time>2025-07-12T15:36:49Z</time>
			</trkpt>
			<trkpt lat="42.779836" lon="24.960911">
				<ele>1073.000000</ele>
				<time>2025-07-12T15:36:51Z</time>
			</trkpt>
			<trkpt lat="42.779875" lon="24.960891">
				<ele>1072.000000</ele>
				<time>2025-07-12T15:36:55Z</time>
			</trkpt>
			<trkpt lat="42.779913" lon="24.960893">
				<ele>1071.000000</ele>
				<time>2025-07-12T15:36:59Z</time>
			</trkpt>
			<trkpt lat="42.779953" lon="24.960921">
				<ele>1070.000000</ele>
				<time>2025-07-12T15:37:03Z</time>
			</trkpt>
			<trkpt lat="42.779968" lon="24.960950">
				<ele>1069.000000</ele>
				<time>2025-07-12T15:37:05Z</time>
			</trkpt>
			<trkpt lat="42.779991" lon="24.960976">
				<ele>1069.000000</ele>
				<time>2025-07-12T15:37:08Z</time>
			</trkpt>
			<trkpt lat="42.780010" lon="24.960998">
				<ele>1068.000000</ele>
				<time>2025-07-12T15:37:11Z</time>
			</trkpt>
			<trkpt lat="42.780032" lon="24.961001">
				<ele>1067.000000</ele>
				<time>2025-07-12T15:37:14Z</time>
			</trkpt>
			<trkpt lat="42.780049" lon="24.961013">
				<ele>1066.000000</ele>
				<time>2025-07-12T15:37:17Z</time>
			</trkpt>
			<trkpt lat="42.780060" lon="24.961025">
				<ele>1065.000000</ele>
				<time>2025-07-12T15:37:18Z</time>
			</trkpt>
			<trkpt lat="42.780092" lon="24.961049">
				<ele>1064.000000</ele>
				<time>2025-07-12T15:37:22Z</time>
			</trkpt>
			<trkpt lat="42.780094" lon="24.961056">
				<ele>1064.000000</ele>
				<time>2025-07-12T15:37:23Z</time>
			</trkpt>
			<trkpt lat="42.780117" lon="24.961109">
				<ele>1064.000000</ele>
				<time>2025-07-12T15:37:29Z</time>
			</trkpt>
			<trkpt lat="42.780126" lon="24.961119">
				<ele>1063.000000</ele>
				<time>2025-07-12T15:37:30Z</time>
			</trkpt>
			<trkpt lat="42.780146" lon="24.961145">
				<ele>1062.000000</ele>
				<time>2025-07-12T15:37:33Z</time>
			</trkpt>
			<trkpt lat="42.780154" lon="24.961174">
				<ele>1061.000000</ele>
				<time>2025-07-12T15:37:35Z</time>
			</trkpt>
			<trkpt lat="42.780152" lon="24.961179">
				<ele>1061.000000</ele>
				<time>2025-07-12T15:37:36Z</time>
			</trkpt>
			<trkpt lat="42.780151" lon="24.961204">
				<ele>1060.000000</ele>
				<time>2025-07-12T15:37:40Z</time>
			</trkpt>
			<trkpt lat="42.780147" lon="24.961207">
				<ele>1060.000000</ele>
				<time>2025-07-12T15:37:41Z</time>
			</trkpt>
			<trkpt lat="42.780149" lon="24.961206">
				<ele>1060.000000</ele>
				<time>2025-07-12T15:37:43Z</time>
			</trkpt>
			<trkpt lat="42.780139" lon="24.961215">
				<ele>1060.000000</ele>
				<time>2025-07-12T15:37:48Z</time>
			</trkpt>
			<trkpt lat="42.780143" lon="24.961267">
				<ele>1059.000000</ele>
				<time>2025-07-12T15:37:55Z</time>
			</trkpt>
			<trkpt lat="42.780143" lon="24.961275">
				<ele>1059.000000</ele>
				<time>2025-07-12T15:37:56Z</time>
			</trkpt>
			<trkpt lat="42.780149" lon="24.961353">
				<ele>1058.000000</ele>
				<time>2025-07-12T15:38:02Z</time>
			</trkpt>
			<trkpt lat="42.780133" lon="24.961345">
				<ele>1057.000000</ele>
				<time>2025-07-12T15:38:09Z</time>
			</trkpt>
			<trkpt lat="42.780135" lon="24.961353">
				<ele>1057.000000</ele>
				<time>2025-07-12T15:38:11Z</time>
			</trkpt>
			<trkpt lat="42.780140" lon="24.961349">
				<ele>1057.000000</ele>
				<time>2025-07-12T15:38:16Z</time>
			</trkpt>
			<trkpt lat="42.780164" lon="24.961393">
				<ele>1057.000000</ele>
				<time>2025-07-12T15:38:24Z</time>
			</trkpt>
			<trkpt lat="42.780168" lon="24.961399">
				<ele>1057.000000</ele>
				<time>2025-07-12T15:38:25Z</time>
			</trkpt>
			<trkpt lat="42.780179" lon="24.961402">
				<ele>1056.000000</ele>
				<time>2025-07-12T15:38:28Z</time>
			</trkpt>
			<trkpt lat="42.780187" lon="24.961397">
				<ele>1056.000000</ele>
				<time>2025-07-12T15:38:30Z</time>
			</trkpt>
			<trkpt lat="42.780200" lon="24.961393">
				<ele>1055.000000</ele>
				<time>2025-07-12T15:38:33Z</time>
			</trkpt>
			<trkpt lat="42.780206" lon="24.961389">
				<ele>1054.000000</ele>
				<time>2025-07-12T15:38:34Z</time>
			</trkpt>
			<trkpt lat="42.780211" lon="24.961381">
				<ele>1054.000000</ele>
				<time>2025-07-12T15:38:35Z</time>
			</trkpt>
			<trkpt lat="42.780230" lon="24.961379">
				<ele>1053.000000</ele>
				<time>2025-07-12T15:38:37Z</time>
			</trkpt>
			<trkpt lat="42.780253" lon="24.961375">
				<ele>1052.000000</ele>
				<time>2025-07-12T15:38:40Z</time>
			</trkpt>
			<trkpt lat="42.780278" lon="24.961375">
				<ele>1051.000000</ele>
				<time>2025-07-12T15:38:43Z</time>
			</trkpt>
			<trkpt lat="42.780304" lon="24.961369">
				<ele>1050.000000</ele>
				<time>2025-07-12T15:38:46Z</time>
			</trkpt>
			<trkpt lat="42.780314" lon="24.961371">
				<ele>1050.000000</ele>
				<time>2025-07-12T15:38:47Z</time>
			</trkpt>
			<trkpt lat="42.780331" lon="24.961372">
				<ele>1049.000000</ele>
				<time>2025-07-12T15:38:49Z</time>
			</trkpt>
			<trkpt lat="42.780346" lon="24.961361">
				<ele>1048.000000</ele>
				<time>2025-07-12T15:38:51Z</time>
			</trkpt>
			<trkpt lat="42.780358" lon="24.961357">
				<ele>1048.000000</ele>
				<time>2025-07-12T15:38:52Z</time>
			</trkpt>
			<trkpt lat="42.780367" lon="24.961356">
				<ele>1048.000000</ele>
				<time>2025-07-12T15:38:53Z</time>
			</trkpt>
			<trkpt lat="42.780377" lon="24.961360">
				<ele>1047.000000</ele>
				<time>2025-07-12T15:38:55Z</time>
			</trkpt>
			<trkpt lat="42.780401" lon="24.961360">
				<ele>1046.000000</ele>
				<time>2025-07-12T15:38:58Z</time>
			</trkpt>
			<trkpt lat="42.780419" lon="24.961359">
				<ele>1045.000000</ele>
				<time>2025-07-12T15:39:00Z</time>
			</trkpt>
			<trkpt lat="42.780434" lon="24.961351">
				<ele>1044.000000</ele>
				<time>2025-07-12T15:39:02Z</time>
			</trkpt>
			<trkpt lat="42.780465" lon="24.961334">
				<ele>1043.000000</ele>
				<time>2025-07-12T15:39:06Z</time>
			</trkpt>
			<trkpt lat="42.780473" lon="24.961328">
				<ele>1043.000000</ele>
				<time>2025-07-12T15:39:08Z</time>
			</trkpt>
			<trkpt lat="42.780483" lon="24.961318">
				<ele>1042.000000</ele>
				<time>2025-07-12T15:39:10Z</time>
			</trkpt>
			<trkpt lat="42.780511" lon="24.961300">
				<ele>1041.000000</ele>
				<time>2025-07-12T15:39:14Z</time>
			</trkpt>
			<trkpt lat="42.780535" lon="24.961293">
				<ele>1040.000000</ele>
				<time>2025-07-12T15:39:16Z</time>
			</trkpt>
			<trkpt lat="42.780551" lon="24.961292">
				<ele>1040.000000</ele>
				<time>2025-07-12T15:39:18Z</time>
			</trkpt>
			<trkpt lat="42.780575" lon="24.961298">
				<ele>1040.000000</ele>
				<time>2025-07-12T15:39:20Z</time>
			</trkpt>
			<trkpt lat="42.780584" lon="24.961308">
				<ele>1040.000000</ele>
				<time>2025-07-12T15:39:22Z</time>
			</trkpt>
			<trkpt lat="42.780593" lon="24.961308">
				<ele>1040.000000</ele>
				<time>2025-07-12T15:39:29Z</time>
			</trkpt>
			<trkpt lat="42.780594" lon="24.961308">
				<ele>1039.000000</ele>
				<time>2025-07-12T15:39:30Z</time>
			</trkpt>
			<trkpt lat="42.780607" lon="24.961296">
				<ele>1039.000000</ele>
				<time>2025-07-12T15:39:35Z</time>
			</trkpt>
			<trkpt lat="42.780619" lon="24.961294">
				<ele>1038.000000</ele>
				<time>2025-07-12T15:39:39Z</time>
			</trkpt>
			<trkpt lat="42.780623" lon="24.961294">
				<ele>1038.000000</ele>
				<time>2025-07-12T15:39:45Z</time>
			</trkpt>
			<trkpt lat="42.780616" lon="24.961300">
				<ele>1038.000000</ele>
				<time>2025-07-12T15:39:46Z</time>
			</trkpt>
			<trkpt lat="42.780636" lon="24.961296">
				<ele>1037.000000</ele>
				<time>2025-07-12T15:39:51Z</time>
			</trkpt>
			<trkpt lat="42.780662" lon="24.961279">
				<ele>1035.000000</ele>
				<time>2025-07-12T15:39:56Z</time>
			</trkpt>
			<trkpt lat="42.780678" lon="24.961270">
				<ele>1035.000000</ele>
				<time>2025-07-12T15:39:58Z</time>
			</trkpt>
			<trkpt lat="42.780706" lon="24.961243">
				<ele>1035.000000</ele>
				<time>2025-07-12T15:40:04Z</time>
			</trkpt>
			<trkpt lat="42.780700" lon="24.961239">
				<ele>1035.000000</ele>
				<time>2025-07-12T15:40:13Z</time>
			</trkpt>
			<trkpt lat="42.780670" lon="24.961237">
				<ele>1035.000000</ele>
				<time>2025-07-12T15:40:19Z</time>
			</trkpt>
			<trkpt lat="42.780701" lon="24.961241">
				<ele>1034.000000</ele>
				<time>2025-07-12T15:40:26Z</time>
			</trkpt>
			<trkpt lat="42.780720" lon="24.961250">
				<ele>1034.000000</ele>
				<time>2025-07-12T15:40:32Z</time>
			</trkpt>
			<trkpt lat="42.780742" lon="24.961263">
				<ele>1034.000000</ele>
				<time>2025-07-12T15:40:40Z</time>
			</trkpt>
			<trkpt lat="42.780722" lon="24.961265">
				<ele>1034.000000</ele>
				<time>2025-07-12T15:40:48Z</time>
			</trkpt>
			<trkpt lat="42.780745" lon="24.961273">
				<ele>1034.000000</ele>
				<time>2025-07-12T15:40:54Z</time>
			</trkpt>
			<trkpt lat="42.780765" lon="24.961282">
				<ele>1034.000000</ele>
				<time>2025-07-12T15:41:03Z</time>
			</trkpt>
			<trkpt lat="42.780757" lon="24.961271">
				<ele>1034.000000</ele>
				<time>2025-07-12T15:41:09Z</time>
			</trkpt>
			<trkpt lat="42.780753" lon="24.961253">
				<ele>1034.000000</ele>
				<time>2025-07-12T15:41:17Z</time>
			</trkpt>
			<trkpt lat="42.780742" lon="24.961229">
				<ele>1034.000000</ele>
				<time>2025-07-12T15:41:22Z</time>
			</trkpt>
			<trkpt lat="42.780742" lon="24.961194">
				<ele>1033.000000</ele>
				<time>2025-07-12T15:41:27Z</time>
			</trkpt>
			<trkpt lat="42.780761" lon="24.961183">
				<ele>1033.000000</ele>
				<time>2025-07-12T15:41:32Z</time>
			</trkpt>
			<trkpt lat="42.780777" lon="24.961170">
				<ele>1032.000000</ele>
				<time>2025-07-12T15:41:34Z</time>
			</trkpt>
			<trkpt lat="42.780810" lon="24.961145">
				<ele>1032.000000</ele>
				<time>2025-07-12T15:41:38Z</time>
			</trkpt>
			<trkpt lat="42.780838" lon="24.961137">
				<ele>1031.000000</ele>
				<time>2025-07-12T15:41:41Z</time>
			</trkpt>
			<trkpt lat="42.780862" lon="24.961131">
				<ele>1031.000000</ele>
				<time>2025-07-12T15:41:44Z</time>
			</trkpt>
			<trkpt lat="42.780882" lon="24.961119">
				<ele>1030.000000</ele>
				<time>2025-07-12T15:41:46Z</time>
			</trkpt>
			<trkpt lat="42.780901" lon="24.961088">
				<ele>1029.000000</ele>
				<time>2025-07-12T15:41:51Z</time>
			</trkpt>
			<trkpt lat="42.780915" lon="24.961068">
				<ele>1029.000000</ele>
				<time>2025-07-12T15:41:53Z</time>
			</trkpt>
			<trkpt lat="42.780923" lon="24.961043">
				<ele>1029.000000</ele>
				<time>2025-07-12T15:41:55Z</time>
			</trkpt>
			<trkpt lat="42.780931" lon="24.961027">
				<ele>1029.000000</ele>
				<time>2025-07-12T15:41:57Z</time>
			</trkpt>
			<trkpt lat="42.780953" lon="24.960992">
				<ele>1028.000000</ele>
				<time>2025-07-12T15:42:04Z</time>
			</trkpt>
			<trkpt lat="42.780958" lon="24.960984">
				<ele>1028.000000</ele>
				<time>2025-07-12T15:42:05Z</time>
			</trkpt>
			<trkpt lat="42.780988" lon="24.960960">
				<ele>1027.000000</ele>
				<time>2025-07-12T15:42:10Z</time>
			</trkpt>
			<trkpt lat="42.780991" lon="24.960959">
				<ele>1027.000000</ele>
				<time>2025-07-12T15:42:11Z</time>
			</trkpt>
			<trkpt lat="42.780992" lon="24.960959">
				<ele>1027.000000</ele>
				<time>2025-07-12T15:42:12Z</time>
			</trkpt>
			<trkpt lat="42.781013" lon="24.960921">
				<ele>1026.000000</ele>
				<time>2025-07-12T15:42:18Z</time>
			</trkpt>
			<trkpt lat="42.781023" lon="24.960901">
				<ele>1025.000000</ele>
				<time>2025-07-12T15:42:20Z</time>
			</trkpt>
			<trkpt lat="42.781034" lon="24.960892">
				<ele>1025.000000</ele>
				<time>2025-07-12T15:42:23Z</time>
			</trkpt>
			<trkpt lat="42.781044" lon="24.960878">
				<ele>1024.000000</ele>
				<time>2025-07-12T15:42:26Z</time>
			</trkpt>
			<trkpt lat="42.781059" lon="24.960858">
				<ele>1023.000000</ele>
				<time>2025-07-12T15:42:29Z</time>
			</trkpt>
			<trkpt lat="42.781072" lon="24.960830">
				<ele>1023.000000</ele>
				<time>2025-07-12T15:42:33Z</time>
			</trkpt>
			<trkpt lat="42.781072" lon="24.960824">
				<ele>1022.000000</ele>
				<time>2025-07-12T15:42:34Z</time>
			</trkpt>
			<trkpt lat="42.781103" lon="24.960781">
				<ele>1021.000000</ele>
				<time>2025-07-12T15:42:40Z</time>
			</trkpt>
			<trkpt lat="42.781156" lon="24.960738">
				<ele>1020.000000</ele>
				<time>2025-07-12T15:42:46Z</time>
			</trkpt>
			<trkpt lat="42.781176" lon="24.960719">
				<ele>1020.000000</ele>
				<time>2025-07-12T15:42:49Z</time>
			</trkpt>
			<trkpt lat="42.781186" lon="24.960718">
				<ele>1019.000000</ele>
				<time>2025-07-12T15:42:50Z</time>
			</trkpt>
			<trkpt lat="42.781193" lon="24.960718">
				<ele>1019.000000</ele>
				<time>2025-07-12T15:42:51Z</time>
			</trkpt>
			<trkpt lat="42.781219" lon="24.960734">
				<ele>1018.000000</ele>
				<time>2025-07-12T15:42:55Z</time>
			</trkpt>
			<trkpt lat="42.781217" lon="24.960738">
				<ele>1018.000000</ele>
				<time>2025-07-12T15:42:56Z</time>
			</trkpt>
			<trkpt lat="42.781245" lon="24.960746">
				<ele>1017.000000</ele>
				<time>2025-07-12T15:43:02Z</time>
			</trkpt>
			<trkpt lat="42.781251" lon="24.960747">
				<ele>1017.000000</ele>
				<time>2025-07-12T15:43:03Z</time>
			</trkpt>
			<trkpt lat="42.781284" lon="24.960751">
				<ele>1016.000000</ele>
				<time>2025-07-12T15:43:08Z</time>
			</trkpt>
			<trkpt lat="42.781297" lon="24.960755">
				<ele>1015.000000</ele>
				<time>2025-07-12T15:43:10Z</time>
			</trkpt>
			<trkpt lat="42.781310" lon="24.960760">
				<ele>1015.000000</ele>
				<time>2025-07-12T15:43:15Z</time>
			</trkpt>
			<trkpt lat="42.781316" lon="24.960763">
				<ele>1015.000000</ele>
				<time>2025-07-12T15:43:19Z</time>
			</trkpt>
			<trkpt lat="42.781349" lon="24.960764">
				<ele>1014.000000</ele>
				<time>2025-07-12T15:43:26Z</time>
			</trkpt>
			<trkpt lat="42.781364" lon="24.960756">
				<ele>1013.000000</ele>
				<time>2025-07-12T15:43:28Z</time>
			</trkpt>
			<trkpt lat="42.781399" lon="24.960755">
				<ele>1013.000000</ele>
				<time>2025-07-12T15:43:33Z</time>
			</trkpt>
			<trkpt lat="42.781403" lon="24.960756">
				<ele>1012.000000</ele>
				<time>2025-07-12T15:43:35Z</time>
			</trkpt>
			<trkpt lat="42.781417" lon="24.960760">
				<ele>1011.000000</ele>
				<time>2025-07-12T15:43:37Z</time>
			</trkpt>
			<trkpt lat="42.781473" lon="24.960775">
				<ele>1011.000000</ele>
				<time>2025-07-12T15:43:43Z</time>
			</trkpt>
			<trkpt lat="42.781484" lon="24.960774">
				<ele>1010.000000</ele>
				<time>2025-07-12T15:43:44Z</time>
			</trkpt>
			<trkpt lat="42.781520" lon="24.960756">
				<ele>1009.000000</ele>
				<time>2025-07-12T15:43:49Z</time>
			</trkpt>
			<trkpt lat="42.781526" lon="24.960756">
				<ele>1009.000000</ele>
				<time>2025-07-12T15:43:50Z</time>
			</trkpt>
			<trkpt lat="42.781531" lon="24.960744">
				<ele>1009.000000</ele>
				<time>2025-07-12T15:43:53Z</time>
			</trkpt>
			<trkpt lat="42.781547" lon="24.960734">
				<ele>1008.000000</ele>
				<time>2025-07-12T15:43:56Z</time>
			</trkpt>
			<trkpt lat="42.781553" lon="24.960731">
				<ele>1008.000000</ele>
				<time>2025-07-12T15:43:57Z</time>
			</trkpt>
			<trkpt lat="42.781595" lon="24.960720">
				<ele>1007.000000</ele>
				<time>2025-07-12T15:44:02Z</time>
			</trkpt>
			<trkpt lat="42.781604" lon="24.960718">
				<ele>1007.000000</ele>
				<time>2025-07-12T15:44:03Z</time>
			</trkpt>
			<trkpt lat="42.781656" lon="24.960693">
				<ele>1006.000000</ele>
				<time>2025-07-12T15:44:08Z</time>
			</trkpt>
			<trkpt lat="42.781667" lon="24.960687">
				<ele>1006.000000</ele>
				<time>2025-07-12T15:44:10Z</time>
			</trkpt>
			<trkpt lat="42.781698" lon="24.960697">
				<ele>1005.000000</ele>
				<time>2025-07-12T15:44:16Z</time>
			</trkpt>
			<trkpt lat="42.781696" lon="24.960697">
				<ele>1004.000000</ele>
				<time>2025-07-12T15:44:18Z</time>
			</trkpt>
			<trkpt lat="42.781705" lon="24.960730">
				<ele>1004.000000</ele>
				<time>2025-07-12T15:44:26Z</time>
			</trkpt>
			<trkpt lat="42.781720" lon="24.960722">
				<ele>1004.000000</ele>
				<time>2025-07-12T15:44:31Z</time>
			</trkpt>
			<trkpt lat="42.781734" lon="24.960722">
				<ele>1004.000000</ele>
				<time>2025-07-12T15:44:33Z</time>
			</trkpt>
			<trkpt lat="42.781738" lon="24.960720">
				<ele>1004.000000</ele>
				<time>2025-07-12T15:44:34Z</time>
			</trkpt>
			<trkpt lat="42.781779" lon="24.960722">
				<ele>1003.000000</ele>
				<time>2025-07-12T15:44:39Z</time>
			</trkpt>
			<trkpt lat="42.781789" lon="24.960732">
				<ele>1002.000000</ele>
				<time>2025-07-12T15:44:41Z</time>
			</trkpt>
			<trkpt lat="42.781801" lon="24.960742">
				<ele>1002.000000</ele>
				<time>2025-07-12T15:44:43Z</time>
			</trkpt>
			<trkpt lat="42.781813" lon="24.960763">
				<ele>1001.000000</ele>
				<time>2025-07-12T15:44:49Z</time>
			</trkpt>
			<trkpt lat="42.781832" lon="24.960778">
				<ele>1001.000000</ele>
				<time>2025-07-12T15:44:58Z</time>
			</trkpt>
			<trkpt lat="42.781835" lon="24.960806">
				<ele>1000.000000</ele>
				<time>2025-07-12T15:45:03Z</time>
			</trkpt>
			<trkpt lat="42.781856" lon="24.960814">
				<ele>1000.000000</ele>
				<time>2025-07-12T15:45:06Z</time>
			</trkpt>
			<trkpt lat="42.781898" lon="24.960844">
				<ele>1000.000000</ele>
				<time>2025-07-12T15:45:16Z</time>
			</trkpt>
			<trkpt lat="42.781902" lon="24.960845">
				<ele>1000.000000</ele>
				<time>2025-07-12T15:45:18Z</time>
			</trkpt>
			<trkpt lat="42.781890" lon="24.960824">
				<ele>1000.000000</ele>
				<time>2025-07-12T15:45:25Z</time>
			</trkpt>
			<trkpt lat="42.781886" lon="24.960806">
				<ele>1001.000000</ele>
				<time>2025-07-12T15:45:30Z</time>
			</trkpt>
			<trkpt lat="42.781885" lon="24.960799">
				<ele>1000.000000</ele>
				<time>2025-07-12T15:45:34Z</time>
			</trkpt>
			<trkpt lat="42.781884" lon="24.960802">
				<ele>1000.000000</ele>
				<time>2025-07-12T15:45:35Z</time>
			</trkpt>
			<trkpt lat="42.781868" lon="24.960795">
				<ele>1000.000000</ele>
				<time>2025-07-12T15:45:44Z</time>
			</trkpt>
			<trkpt lat="42.781853" lon="24.960799">
				<ele>1000.000000</ele>
				<time>2025-07-12T15:45:50Z</time>
			</trkpt>
			<trkpt lat="42.781835" lon="24.960807">
				<ele>1000.000000</ele>
				<time>2025-07-12T15:45:59Z</time>
			</trkpt>
			<trkpt lat="42.781834" lon="24.960806">
				<ele>1000.000000</ele>
				<time>2025-07-12T15:46:00Z</time>
			</trkpt>
			<trkpt lat="42.781847" lon="24.960811">
				<ele>1000.000000</ele>
				<time>2025-07-12T15:46:06Z</time>
			</trkpt>
			<trkpt lat="42.781859" lon="24.960833">
				<ele>999.000000</ele>
				<time>2025-07-12T15:46:13Z</time>
			</trkpt>
			<trkpt lat="42.781866" lon="24.960846">
				<ele>999.000000</ele>
				<time>2025-07-12T15:46:14Z</time>
			</trkpt>
			<trkpt lat="42.781893" lon="24.960877">
				<ele>999.000000</ele>
				<time>2025-07-12T15:46:19Z</time>
			</trkpt>
			<trkpt lat="42.781951" lon="24.960938">
				<ele>998.000000</ele>
				<time>2025-07-12T15:46:28Z</time>
			</trkpt>
			<trkpt lat="42.781968" lon="24.960962">
				<ele>998.000000</ele>
				<time>2025-07-12T15:46:30Z</time>
			</trkpt>
			<trkpt lat="42.781988" lon="24.961005">
				<ele>998.000000</ele>
				<time>2025-07-12T15:46:34Z</time>
			</trkpt>
			<trkpt lat="42.782030" lon="24.961074">
				<ele>998.000000</ele>
				<time>2025-07-12T15:46:41Z</time>
			</trkpt>
			<trkpt lat="42.782056" lon="24.961101">
				<ele>997.000000</ele>
				<time>2025-07-12T15:46:46Z</time>
			</trkpt>
			<trkpt lat="42.782084" lon="24.961132">
				<ele>997.000000</ele>
				<time>2025-07-12T15:46:50Z</time>
			</trkpt>
			<trkpt lat="42.782138" lon="24.961178">
				<ele>996.000000</ele>
				<time>2025-07-12T15:46:57Z</time>
			</trkpt>
			<trkpt lat="42.782153" lon="24.961192">
				<ele>996.000000</ele>
				<time>2025-07-12T15:46:59Z</time>
			</trkpt>
			<trkpt lat="42.782188" lon="24.961216">
				<ele>995.000000</ele>
				<time>2025-07-12T15:47:07Z</time>
			</trkpt>
			<trkpt lat="42.782191" lon="24.961226">
				<ele>995.000000</ele>
				<time>2025-07-12T15:47:10Z</time>
			</trkpt>
			<trkpt lat="42.782213" lon="24.961247">
				<ele>996.000000</ele>
				<time>2025-07-12T15:47:15Z</time>
			</trkpt>
			<trkpt lat="42.782229" lon="24.961263">
				<ele>996.000000</ele>
				<time>2025-07-12T15:47:25Z</time>
			</trkpt>
			<trkpt lat="42.782224" lon="24.961253">
				<ele>995.000000</ele>
				<time>2025-07-12T15:47:34Z</time>
			</trkpt>
			<trkpt lat="42.782233" lon="24.961258">
				<ele>995.000000</ele>
				<time>2025-07-12T15:47:37Z</time>
			</trkpt>
			<trkpt lat="42.782249" lon="24.961277">
				<ele>995.000000</ele>
				<time>2025-07-12T15:47:41Z</time>
			</trkpt>
			<trkpt lat="42.782282" lon="24.961316">
				<ele>994.000000</ele>
				<time>2025-07-12T15:47:46Z</time>
			</trkpt>
			<trkpt lat="42.782299" lon="24.961322">
				<ele>994.000000</ele>
				<time>2025-07-12T15:47:49Z</time>
			</trkpt>
			<trkpt lat="42.782305" lon="24.961325">
				<ele>994.000000</ele>
				<time>2025-07-12T15:47:50Z</time>
			</trkpt>
			<trkpt lat="42.782326" lon="24.961337">
				<ele>994.000000</ele>
				<time>2025-07-12T15:47:54Z</time>
			</trkpt>
			<trkpt lat="42.782341" lon="24.961347">
				<ele>994.000000</ele>
				<time>2025-07-12T15:47:56Z</time>
			</trkpt>
			<trkpt lat="42.782394" lon="24.961397">
				<ele>994.000000</ele>
				<time>2025-07-12T15:48:04Z</time>
			</trkpt>
			<trkpt lat="42.782452" lon="24.961438">
				<ele>994.000000</ele>
				<time>2025-07-12T15:48:10Z</time>
			</trkpt>
			<trkpt lat="42.782512" lon="24.961483">
				<ele>994.000000</ele>
				<time>2025-07-12T15:48:18Z</time>
			</trkpt>
			<trkpt lat="42.782574" lon="24.961549">
				<ele>993.000000</ele>
				<time>2025-07-12T15:48:25Z</time>
			</trkpt>
			<trkpt lat="42.782660" lon="24.961596">
				<ele>994.000000</ele>
				<time>2025-07-12T15:48:34Z</time>
			</trkpt>
			<trkpt lat="42.782699" lon="24.961599">
				<ele>993.000000</ele>
				<time>2025-07-12T15:48:38Z</time>
			</trkpt>
			<trkpt lat="42.782727" lon="24.961615">
				<ele>992.000000</ele>
				<time>2025-07-12T15:48:41Z</time>
			</trkpt>
			<trkpt lat="42.782746" lon="24.961640">
				<ele>992.000000</ele>
				<time>2025-07-12T15:48:45Z</time>
			</trkpt>
			<trkpt lat="42.782780" lon="24.961671">
				<ele>991.000000</ele>
				<time>2025-07-12T15:48:49Z</time>
			</trkpt>
			<trkpt lat="42.782822" lon="24.961703">
				<ele>991.000000</ele>
				<time>2025-07-12T15:48:55Z</time>
			</trkpt>
			<trkpt lat="42.782832" lon="24.961709">
				<ele>991.000000</ele>
				<time>2025-07-12T15:48:56Z</time>
			</trkpt>
			<trkpt lat="42.782897" lon="24.961752">
				<ele>991.000000</ele>
				<time>2025-07-12T15:49:05Z</time>
			</trkpt>
			<trkpt lat="42.782918" lon="24.961762">
				<ele>991.000000</ele>
				<time>2025-07-12T15:49:07Z</time>
			</trkpt>
			<trkpt lat="42.782955" lon="24.961781">
				<ele>990.000000</ele>
				<time>2025-07-12T15:49:12Z</time>
			</trkpt>
			<trkpt lat="42.782978" lon="24.961808">
				<ele>990.000000</ele>
				<time>2025-07-12T15:49:15Z</time>
			</trkpt>
			<trkpt lat="42.783011" lon="24.961843">
				<ele>990.000000</ele>
				<time>2025-07-12T15:49:19Z</time>
			</trkpt>
			<trkpt lat="42.783070" lon="24.961895">
				<ele>989.000000</ele>
				<time>2025-07-12T15:49:27Z</time>
			</trkpt>
			<trkpt lat="42.783074" lon="24.961900">
				<ele>989.000000</ele>
				<time>2025-07-12T15:49:28Z</time>
			</trkpt>
			<trkpt lat="42.783120" lon="24.961912">
				<ele>988.000000</ele>
				<time>2025-07-12T15:49:33Z</time>
			</trkpt>
			<trkpt lat="42.783171" lon="24.961945">
				<ele>988.000000</ele>
				<time>2025-07-12T15:49:40Z</time>
			</trkpt>
			<trkpt lat="42.783257" lon="24.962005">
				<ele>987.000000</ele>
				<time>2025-07-12T15:49:49Z</time>
			</trkpt>
			<trkpt lat="42.783327" lon="24.962053">
				<ele>987.000000</ele>
				<time>2025-07-12T15:49:58Z</time>
			</trkpt>
			<trkpt lat="42.783378" lon="24.962077">
				<ele>987.000000</ele>
				<time>2025-07-12T15:50:07Z</time>
			</trkpt>
			<trkpt lat="42.783413" lon="24.962098">
				<ele>987.000000</ele>
				<time>2025-07-12T15:50:13Z</time>
			</trkpt>
			<trkpt lat="42.783456" lon="24.962120">
				<ele>987.000000</ele>
				<time>2025-07-12T15:50:19Z</time>
			</trkpt>
			<trkpt lat="42.783464" lon="24.962122">
				<ele>986.000000</ele>
				<time>2025-07-12T15:50:20Z</time>
			</trkpt>
			<trkpt lat="42.783526" lon="24.962181">
				<ele>986.000000</ele>
				<time>2025-07-12T15:50:28Z</time>
			</trkpt>
			<trkpt lat="42.783582" lon="24.962246">
				<ele>986.000000</ele>
				<time>2025-07-12T15:50:36Z</time>
			</trkpt>
			<trkpt lat="42.783631" lon="24.962304">
				<ele>986.000000</ele>
				<time>2025-07-12T15:50:44Z</time>
			</trkpt>
			<trkpt lat="42.783673" lon="24.962328">
				<ele>985.000000</ele>
				<time>2025-07-12T15:50:49Z</time>
			</trkpt>
			<trkpt lat="42.783681" lon="24.962339">
				<ele>985.000000</ele>
				<time>2025-07-12T15:50:51Z</time>
			</trkpt>
			<trkpt lat="42.783690" lon="24.962347">
				<ele>985.000000</ele>
				<time>2025-07-12T15:50:52Z</time>
			</trkpt>
			<trkpt lat="42.783729" lon="24.962393">
				<ele>985.000000</ele>
				<time>2025-07-12T15:50:59Z</time>
			</trkpt>
			<trkpt lat="42.783738" lon="24.962411">
				<ele>984.000000</ele>
				<time>2025-07-12T15:51:01Z</time>
			</trkpt>
			<trkpt lat="42.783791" lon="24.962457">
				<ele>984.000000</ele>
				<time>2025-07-12T15:51:07Z</time>
			</trkpt>
			<trkpt lat="42.783855" lon="24.962493">
				<ele>983.000000</ele>
				<time>2025-07-12T15:51:13Z</time>
			</trkpt>
			<trkpt lat="42.783863" lon="24.962501">
				<ele>983.000000</ele>
				<time>2025-07-12T15:51:14Z</time>
			</trkpt>
			<trkpt lat="42.783904" lon="24.962547">
				<ele>983.000000</ele>
				<time>2025-07-12T15:51:20Z</time>
			</trkpt>
			<trkpt lat="42.783937" lon="24.962587">
				<ele>982.000000</ele>
				<time>2025-07-12T15:51:25Z</time>
			</trkpt>
			<trkpt lat="42.783952" lon="24.962613">
				<ele>982.000000</ele>
				<time>2025-07-12T15:51:27Z</time>
			</trkpt>
			<trkpt lat="42.783972" lon="24.962627">
				<ele>982.000000</ele>
				<time>2025-07-12T15:51:29Z</time>
			</trkpt>
			<trkpt lat="42.784010" lon="24.962693">
				<ele>982.000000</ele>
				<time>2025-07-12T15:51:35Z</time>
			</trkpt>
			<trkpt lat="42.784025" lon="24.962752">
				<ele>981.000000</ele>
				<time>2025-07-12T15:51:40Z</time>
			</trkpt>
			<trkpt lat="42.784037" lon="24.962772">
				<ele>981.000000</ele>
				<time>2025-07-12T15:51:43Z</time>
			</trkpt>
			<trkpt lat="42.784082" lon="24.962867">
				<ele>981.000000</ele>
				<time>2025-07-12T15:51:50Z</time>
			</trkpt>
			<trkpt lat="42.784107" lon="24.962924">
				<ele>981.000000</ele>
				<time>2025-07-12T15:51:56Z</time>
			</trkpt>
			<trkpt lat="42.784135" lon="24.963022">
				<ele>981.000000</ele>
				<time>2025-07-12T15:52:03Z</time>
			</trkpt>
			<trkpt lat="42.784160" lon="24.963103">
				<ele>982.000000</ele>
				<time>2025-07-12T15:52:10Z</time>
			</trkpt>
			<trkpt lat="42.784192" lon="24.963160">
				<ele>982.000000</ele>
				<time>2025-07-12T15:52:15Z</time>
			</trkpt>
			<trkpt lat="42.784211" lon="24.963189">
				<ele>983.000000</ele>
				<time>2025-07-12T15:52:18Z</time>
			</trkpt>
			<trkpt lat="42.784231" lon="24.963224">
				<ele>983.000000</ele>
				<time>2025-07-12T15:52:21Z</time>
			</trkpt>
			<trkpt lat="42.784235" lon="24.963228">
				<ele>983.000000</ele>
				<time>2025-07-12T15:52:22Z</time>
			</trkpt>
			<trkpt lat="42.784238" lon="24.963229">
				<ele>984.000000</ele>
				<time>2025-07-12T15:52:25Z</time>
			</trkpt>
			<trkpt lat="42.784238" lon="24.963235">
				<ele>983.000000</ele>
				<time>2025-07-12T15:52:28Z</time>
			</trkpt>
			<trkpt lat="42.784255" lon="24.963259">
				<ele>984.000000</ele>
				<time>2025-07-12T15:52:34Z</time>
			</trkpt>
			<trkpt lat="42.784265" lon="24.963271">
				<ele>984.000000</ele>
				<time>2025-07-12T15:52:40Z</time>
			</trkpt>
			<trkpt lat="42.784267" lon="24.963272">
				<ele>984.000000</ele>
				<time>2025-07-12T15:52:49Z</time>
			</trkpt>
			<trkpt lat="42.784270" lon="24.963267">
				<ele>984.000000</ele>
				<time>2025-07-12T15:52:56Z</time>
			</trkpt>
			<trkpt lat="42.784277" lon="24.963271">
				<ele>984.000000</ele>
				<time>2025-07-12T15:53:05Z</time>
			</trkpt>
			<trkpt lat="42.784278" lon="24.963272">
				<ele>984.000000</ele>
				<time>2025-07-12T15:53:06Z</time>
			</trkpt>
			<trkpt lat="42.784288" lon="24.963276">
				<ele>984.000000</ele>
				<time>2025-07-12T15:53:09Z</time>
			</trkpt>
			<trkpt lat="42.784348" lon="24.963325">
				<ele>984.000000</ele>
				<time>2025-07-12T15:53:16Z</time>
			</trkpt>
			<trkpt lat="42.784409" lon="24.963347">
				<ele>984.000000</ele>
				<time>2025-07-12T15:53:23Z</time>
			</trkpt>
			<trkpt lat="42.784418" lon="24.963351">
				<ele>984.000000</ele>
				<time>2025-07-12T15:53:24Z</time>
			</trkpt>
			<trkpt lat="42.784497" lon="24.963382">
				<ele>984.000000</ele>
				<time>2025-07-12T15:53:33Z</time>
			</trkpt>
			<trkpt lat="42.784572" lon="24.963347">
				<ele>983.000000</ele>
				<time>2025-07-12T15:53:43Z</time>
			</trkpt>
			<trkpt lat="42.784597" lon="24.963339">
				<ele>982.000000</ele>
				<time>2025-07-12T15:53:45Z</time>
			</trkpt>
			<trkpt lat="42.784645" lon="24.963347">
				<ele>982.000000</ele>
				<time>2025-07-12T15:53:50Z</time>
			</trkpt>
			<trkpt lat="42.784656" lon="24.963353">
				<ele>982.000000</ele>
				<time>2025-07-12T15:53:58Z</time>
			</trkpt>
			<trkpt lat="42.784657" lon="24.963356">
				<ele>982.000000</ele>
				<time>2025-07-12T15:54:00Z</time>
			</trkpt>
			<trkpt lat="42.784675" lon="24.963353">
				<ele>981.000000</ele>
				<time>2025-07-12T15:54:04Z</time>
			</trkpt>
			<trkpt lat="42.784685" lon="24.963347">
				<ele>981.000000</ele>
				<time>2025-07-12T15:54:06Z</time>
			</trkpt>
			<trkpt lat="42.784739" lon="24.963321">
				<ele>980.000000</ele>
				<time>2025-07-12T15:54:12Z</time>
			</trkpt>
			<trkpt lat="42.784756" lon="24.963310">
				<ele>980.000000</ele>
				<time>2025-07-12T15:54:14Z</time>
			</trkpt>
			<trkpt lat="42.784787" lon="24.963292">
				<ele>979.000000</ele>
				<time>2025-07-12T15:54:19Z</time>
			</trkpt>
			<trkpt lat="42.784816" lon="24.963282">
				<ele>978.000000</ele>
				<time>2025-07-12T15:54:22Z</time>
			</trkpt>
			<trkpt lat="42.784824" lon="24.963279">
				<ele>978.000000</ele>
				<time>2025-07-12T15:54:24Z</time>
			</trkpt>
			<trkpt lat="42.784849" lon="24.963275">
				<ele>977.000000</ele>
				<time>2025-07-12T15:54:29Z</time>
			</trkpt>
			<trkpt lat="42.784858" lon="24.963275">
				<ele>977.000000</ele>
				<time>2025-07-12T15:54:30Z</time>
			</trkpt>
			<trkpt lat="42.784902" lon="24.963266">
				<ele>976.000000</ele>
				<time>2025-07-12T15:54:35Z</time>
			</trkpt>
			<trkpt lat="42.784921" lon="24.963263">
				<ele>975.000000</ele>
				<time>2025-07-12T15:54:38Z</time>
			</trkpt>
			<trkpt lat="42.784945" lon="24.963262">
				<ele>975.000000</ele>
				<time>2025-07-12T15:54:41Z</time>
			</trkpt>
			<trkpt lat="42.785003" lon="24.963268">
				<ele>974.000000</ele>
				<time>2025-07-12T15:54:46Z</time>
			</trkpt>
			<trkpt lat="42.785013" lon="24.963272">
				<ele>974.000000</ele>
				<time>2025-07-12T15:54:47Z</time>
			</trkpt>
			<trkpt lat="42.785055" lon="24.963303">
				<ele>973.000000</ele>
				<time>2025-07-12T15:54:53Z</time>
			</trkpt>
			<trkpt lat="42.785069" lon="24.963309">
				<ele>972.000000</ele>
				<time>2025-07-12T15:54:55Z</time>
			</trkpt>
			<trkpt lat="42.785093" lon="24.963314">
				<ele>971.000000</ele>
				<time>2025-07-12T15:54:59Z</time>
			</trkpt>
			<trkpt lat="42.785123" lon="24.963319">
				<ele>971.000000</ele>
				<time>2025-07-12T15:55:02Z</time>
			</trkpt>
			<trkpt lat="42.785178" lon="24.963353">
				<ele>970.000000</ele>
				<time>2025-07-12T15:55:07Z</time>
			</trkpt>
			<trkpt lat="42.785205" lon="24.963380">
				<ele>970.000000</ele>
				<time>2025-07-12T15:55:10Z</time>
			</trkpt>
			<trkpt lat="42.785236" lon="24.963427">
				<ele>969.000000</ele>
				<time>2025-07-12T15:55:16Z</time>
			</trkpt>
			<trkpt lat="42.785246" lon="24.963436">
				<ele>969.000000</ele>
				<time>2025-07-12T15:55:18Z</time>
			</trkpt>
			<trkpt lat="42.785257" lon="24.963439">
				<ele>969.000000</ele>
				<time>2025-07-12T15:55:20Z</time>
			</trkpt>
			<trkpt lat="42.785274" lon="24.963449">
				<ele>968.000000</ele>
				<time>2025-07-12T15:55:23Z</time>
			</trkpt>
			<trkpt lat="42.785282" lon="24.963453">
				<ele>968.000000</ele>
				<time>2025-07-12T15:55:24Z</time>
			</trkpt>
			<trkpt lat="42.785308" lon="24.963486">
				<ele>967.000000</ele>
				<time>2025-07-12T15:55:28Z</time>
			</trkpt>
			<trkpt lat="42.785317" lon="24.963500">
				<ele>966.000000</ele>
				<time>2025-07-12T15:55:30Z</time>
			</trkpt>
			<trkpt lat="42.785318" lon="24.963504">
				<ele>966.000000</ele>
				<time>2025-07-12T15:55:31Z</time>
			</trkpt>
			<trkpt lat="42.785320" lon="24.963508">
				<ele>966.000000</ele>
				<time>2025-07-12T15:55:32Z</time>
			</trkpt>
			<trkpt lat="42.785333" lon="24.963555">
				<ele>965.000000</ele>
				<time>2025-07-12T15:55:38Z</time>
			</trkpt>
			<trkpt lat="42.785346" lon="24.963563">
				<ele>965.000000</ele>
				<time>2025-07-12T15:55:39Z</time>
			</trkpt>
			<trkpt lat="42.785379" lon="24.963586">
				<ele>964.000000</ele>
				<time>2025-07-12T15:55:45Z</time>
			</trkpt>
			<trkpt lat="42.785427" lon="24.963608">
				<ele>964.000000</ele>
				<time>2025-07-12T15:55:52Z</time>
			</trkpt>
			<trkpt lat="42.785482" lon="24.963626">
				<ele>963.000000</ele>
				<time>2025-07-12T15:55:59Z</time>
			</trkpt>
			<trkpt lat="42.785505" lon="24.963616">
				<ele>963.000000</ele>
				<time>2025-07-12T15:56:03Z</time>
			</trkpt>
			<trkpt lat="42.785511" lon="24.963609">
				<ele>963.000000</ele>
				<time>2025-07-12T15:56:04Z</time>
			</trkpt>
			<trkpt lat="42.785519" lon="24.963598">
				<ele>962.000000</ele>
				<time>2025-07-12T15:56:05Z</time>
			</trkpt>
			<trkpt lat="42.785566" lon="24.963577">
				<ele>962.000000</ele>
				<time>2025-07-12T15:56:11Z</time>
			</trkpt>
			<trkpt lat="42.785640" lon="24.963596">
				<ele>961.000000</ele>
				<time>2025-07-12T15:56:18Z</time>
			</trkpt>
			<trkpt lat="42.785719" lon="24.963625">
				<ele>962.000000</ele>
				<time>2025-07-12T15:56:26Z</time>
			</trkpt>
			<trkpt lat="42.785772" lon="24.963669">
				<ele>962.000000</ele>
				<time>2025-07-12T15:56:33Z</time>
			</trkpt>
			<trkpt lat="42.785797" lon="24.963710">
				<ele>962.000000</ele>
				<time>2025-07-12T15:56:40Z</time>
			</trkpt>
			<trkpt lat="42.785813" lon="24.963771">
				<ele>962.000000</ele>
				<time>2025-07-12T15:56:46Z</time>
			</trkpt>
			<trkpt lat="42.785802" lon="24.963785">
				<ele>962.000000</ele>
				<time>2025-07-12T15:56:52Z</time>
			</trkpt>
			<trkpt lat="42.785801" lon="24.963785">
				<ele>962.000000</ele>
				<time>2025-07-12T15:56:53Z</time>
			</trkpt>
			<trkpt lat="42.785801" lon="24.963791">
				<ele>962.000000</ele>
				<time>2025-07-12T15:57:01Z</time>
			</trkpt>
			<trkpt lat="42.785806" lon="24.963791">
				<ele>962.000000</ele>
				<time>2025-07-12T15:57:08Z</time>
			</trkpt>
			<trkpt lat="42.785819" lon="24.963836">
				<ele>962.000000</ele>
				<time>2025-07-12T15:57:15Z</time>
			</trkpt>
			<trkpt lat="42.785850" lon="24.963891">
				<ele>962.000000</ele>
				<time>2025-07-12T15:57:22Z</time>
			</trkpt>
			<trkpt lat="42.785893" lon="24.963893">
				<ele>963.000000</ele>
				<time>2025-07-12T15:57:27Z</time>
			</trkpt>
			<trkpt lat="42.785900" lon="24.963891">
				<ele>963.000000</ele>
				<time>2025-07-12T15:57:28Z</time>
			</trkpt>
			<trkpt lat="42.785907" lon="24.963891">
				<ele>963.000000</ele>
				<time>2025-07-12T15:57:29Z</time>
			</trkpt>
			<trkpt lat="42.785933" lon="24.963896">
				<ele>963.000000</ele>
				<time>2025-07-12T15:57:33Z</time>
			</trkpt>
			<trkpt lat="42.785946" lon="24.963913">
				<ele>963.000000</ele>
				<time>2025-07-12T15:57:36Z</time>
			</trkpt>
			<trkpt lat="42.785959" lon="24.963925">
				<ele>964.000000</ele>
				<time>2025-07-12T15:57:38Z</time>
			</trkpt>
			<trkpt lat="42.785969" lon="24.963942">
				<ele>965.000000</ele>
				<time>2025-07-12T15:57:44Z</time>
			</trkpt>
			<trkpt lat="42.785977" lon="24.963942">
				<ele>965.000000</ele>
				<time>2025-07-12T15:57:50Z</time>
			</trkpt>
			<trkpt lat="42.785979" lon="24.963943">
				<ele>965.000000</ele>
				<time>2025-07-12T15:57:51Z</time>
			</trkpt>
			<trkpt lat="42.786003" lon="24.963938">
				<ele>965.000000</ele>
				<time>2025-07-12T15:57:58Z</time>
			</trkpt>
			<trkpt lat="42.786022" lon="24.963934">
				<ele>966.000000</ele>
				<time>2025-07-12T15:58:01Z</time>
			</trkpt>
			<trkpt lat="42.786055" lon="24.963930">
				<ele>967.000000</ele>
				<time>2025-07-12T15:58:06Z</time>
			</trkpt>
			<trkpt lat="42.786100" lon="24.963925">
				<ele>968.000000</ele>
				<time>2025-07-12T15:58:12Z</time>
			</trkpt>
			<trkpt lat="42.786124" lon="24.963927">
				<ele>969.000000</ele>
				<time>2025-07-12T15:58:15Z</time>
			</trkpt>
			<trkpt lat="42.786136" lon="24.963927">
				<ele>969.000000</ele>
				<time>2025-07-12T15:58:17Z</time>
			</trkpt>
			<trkpt lat="42.786142" lon="24.963938">
				<ele>970.000000</ele>
				<time>2025-07-12T15:58:20Z</time>
			</trkpt>
			<trkpt lat="42.786145" lon="24.963943">
				<ele>970.000000</ele>
				<time>2025-07-12T15:58:21Z</time>
			</trkpt>
			<trkpt lat="42.786150" lon="24.963942">
				<ele>970.000000</ele>
				<time>2025-07-12T15:58:22Z</time>
			</trkpt>
			<trkpt lat="42.786177" lon="24.963954">
				<ele>972.000000</ele>
				<time>2025-07-12T15:58:27Z</time>
			</trkpt>
			<trkpt lat="42.786179" lon="24.963959">
				<ele>972.000000</ele>
				<time>2025-07-12T15:58:28Z</time>
			</trkpt>
			<trkpt lat="42.786196" lon="24.964001">
				<ele>973.000000</ele>
				<time>2025-07-12T15:58:33Z</time>
			</trkpt>
			<trkpt lat="42.786200" lon="24.964007">
				<ele>973.000000</ele>
				<time>2025-07-12T15:58:34Z</time>
			</trkpt>
			<trkpt lat="42.786215" lon="24.964023">
				<ele>974.000000</ele>
				<time>2025-07-12T15:58:37Z</time>
			</trkpt>
			<trkpt lat="42.786235" lon="24.964035">
				<ele>975.000000</ele>
				<time>2025-07-12T15:58:41Z</time>
			</trkpt>
			<trkpt lat="42.786256" lon="24.964041">
				<ele>976.000000</ele>
				<time>2025-07-12T15:58:44Z</time>
			</trkpt>
			<trkpt lat="42.786268" lon="24.964039">
				<ele>976.000000</ele>
				<time>2025-07-12T15:58:46Z</time>
			</trkpt>
			<trkpt lat="42.786295" lon="24.964034">
				<ele>977.000000</ele>
				<time>2025-07-12T15:58:50Z</time>
			</trkpt>
			<trkpt lat="42.786298" lon="24.964035">
				<ele>977.000000</ele>
				<time>2025-07-12T15:58:51Z</time>
			</trkpt>
			<trkpt lat="42.786322" lon="24.964031">
				<ele>978.000000</ele>
				<time>2025-07-12T15:58:58Z</time>
			</trkpt>
			<trkpt lat="42.786345" lon="24.964049">
				<ele>979.000000</ele>
				<time>2025-07-12T15:59:04Z</time>
			</trkpt>
			<trkpt lat="42.786349" lon="24.964043">
				<ele>979.000000</ele>
				<time>2025-07-12T15:59:08Z</time>
			</trkpt>
			<trkpt lat="42.786346" lon="24.964041">
				<ele>979.000000</ele>
				<time>2025-07-12T15:59:10Z</time>
			</trkpt>
			<trkpt lat="42.786381" lon="24.964065">
				<ele>979.000000</ele>
				<time>2025-07-12T15:59:18Z</time>
			</trkpt>
			<trkpt lat="42.786407" lon="24.964068">
				<ele>980.000000</ele>
				<time>2025-07-12T15:59:22Z</time>
			</trkpt>
			<trkpt lat="42.786451" lon="24.964066">
				<ele>981.000000</ele>
				<time>2025-07-12T15:59:29Z</time>
			</trkpt>
			<trkpt lat="42.786456" lon="24.964069">
				<ele>981.000000</ele>
				<time>2025-07-12T15:59:30Z</time>
			</trkpt>
			<trkpt lat="42.786470" lon="24.964086">
				<ele>982.000000</ele>
				<time>2025-07-12T15:59:36Z</time>
			</trkpt>
			<trkpt lat="42.786506" lon="24.964116">
				<ele>983.000000</ele>
				<time>2025-07-12T15:59:43Z</time>
			</trkpt>
			<trkpt lat="42.786518" lon="24.964123">
				<ele>983.000000</ele>
				<time>2025-07-12T15:59:45Z</time>
			</trkpt>
			<trkpt lat="42.786555" lon="24.964132">
				<ele>984.000000</ele>
				<time>2025-07-12T15:59:51Z</time>
			</trkpt>
			<trkpt lat="42.786572" lon="24.964136">
				<ele>985.000000</ele>
				<time>2025-07-12T15:59:54Z</time>
			</trkpt>
			<trkpt lat="42.786595" lon="24.964141">
				<ele>985.000000</ele>
				<time>2025-07-12T15:59:58Z</time>
			</trkpt>
			<trkpt lat="42.786624" lon="24.964157">
				<ele>986.000000</ele>
				<time>2025-07-12T16:00:05Z</time>
			</trkpt>
			<trkpt lat="42.786652" lon="24.964166">
				<ele>987.000000</ele>
				<time>2025-07-12T16:00:11Z</time>
			</trkpt>
			<trkpt lat="42.786662" lon="24.964178">
				<ele>986.000000</ele>
				<time>2025-07-12T16:00:22Z</time>
			</trkpt>
			<trkpt lat="42.786652" lon="24.964186">
				<ele>986.000000</ele>
				<time>2025-07-12T16:00:32Z</time>
			</trkpt>
			<trkpt lat="42.786651" lon="24.964186">
				<ele>986.000000</ele>
				<time>2025-07-12T16:00:36Z</time>
			</trkpt>
			<trkpt lat="42.786649" lon="24.964184">
				<ele>986.000000</ele>
				<time>2025-07-12T16:00:38Z</time>
			</trkpt>
			<trkpt lat="42.786651" lon="24.964183">
				<ele>986.000000</ele>
				<time>2025-07-12T16:00:41Z</time>
			</trkpt>
			<trkpt lat="42.786681" lon="24.964200">
				<ele>987.000000</ele>
				<time>2025-07-12T16:00:49Z</time>
			</trkpt>
			<trkpt lat="42.786681" lon="24.964196">
				<ele>987.000000</ele>
				<time>2025-07-12T16:00:50Z</time>
			</trkpt>
			<trkpt lat="42.786679" lon="24.964190">
				<ele>987.000000</ele>
				<time>2025-07-12T16:00:52Z</time>
			</trkpt>
			<trkpt lat="42.786682" lon="24.964194">
				<ele>987.000000</ele>
				<time>2025-07-12T16:00:54Z</time>
			</trkpt>
			<trkpt lat="42.786679" lon="24.964194">
				<ele>987.000000</ele>
				<time>2025-07-12T16:00:57Z</time>
			</trkpt>
			<trkpt lat="42.786678" lon="24.964200">
				<ele>987.000000</ele>
				<time>2025-07-12T16:01:00Z</time>
			</trkpt>
			<trkpt lat="42.786677" lon="24.964212">
				<ele>987.000000</ele>
				<time>2025-07-12T16:01:03Z</time>
			</trkpt>
			<trkpt lat="42.786664" lon="24.964210">
				<ele>987.000000</ele>
				<time>2025-07-12T16:01:07Z</time>
			</trkpt>
			<trkpt lat="42.786662" lon="24.964202">
				<ele>987.000000</ele>
				<time>2025-07-12T16:01:11Z</time>
			</trkpt>
			<trkpt lat="42.786663" lon="24.964200">
				<ele>987.000000</ele>
				<time>2025-07-12T16:01:19Z</time>
			</trkpt>
			<trkpt lat="42.786663" lon="24.964207">
				<ele>987.000000</ele>
				<time>2025-07-12T16:01:27Z</time>
			</trkpt>
			<trkpt lat="42.786665" lon="24.964221">
				<ele>986.000000</ele>
				<time>2025-07-12T16:01:33Z</time>
			</trkpt>
			<trkpt lat="42.786668" lon="24.964223">
				<ele>986.000000</ele>
				<time>2025-07-12T16:01:39Z</time>
			</trkpt>
			<trkpt lat="42.786674" lon="24.964219">
				<ele>986.000000</ele>
				<time>2025-07-12T16:01:43Z</time>
			</trkpt>
			<trkpt lat="42.786670" lon="24.964218">
				<ele>986.000000</ele>
				<time>2025-07-12T16:01:52Z</time>
			</trkpt>
			<trkpt lat="42.786662" lon="24.964212">
				<ele>986.000000</ele>
				<time>2025-07-12T16:01:54Z</time>
			</trkpt>
			<trkpt lat="42.786656" lon="24.964207">
				<ele>986.000000</ele>
				<time>2025-07-12T16:01:55Z</time>
			</trkpt>
			<trkpt lat="42.786639" lon="24.964186">
				<ele>986.000000</ele>
				<time>2025-07-12T16:01:58Z</time>
			</trkpt>
			<trkpt lat="42.786610" lon="24.964159">
				<ele>986.000000</ele>
				<time>2025-07-12T16:02:03Z</time>
			</trkpt>
			<trkpt lat="42.786602" lon="24.964152">
				<ele>985.000000</ele>
				<time>2025-07-12T16:02:05Z</time>
			</trkpt>
			<trkpt lat="42.786599" lon="24.964149">
				<ele>985.000000</ele>
				<time>2025-07-12T16:02:07Z</time>
			</trkpt>
			<trkpt lat="42.786599" lon="24.964149">
				<ele>985.000000</ele>
				<time>2025-07-12T16:02:12Z</time>
			</trkpt>
			<trkpt lat="42.786599" lon="24.964149">
				<ele>985.000000</ele>
				<time>2025-07-12T16:02:16Z</time>
			</trkpt>
			<trkpt lat="42.786599" lon="24.964149">
				<ele>985.000000</ele>
				<time>2025-07-12T16:02:18Z</time>
			</trkpt>
			<trkpt lat="42.786599" lon="24.964149">
				<ele>985.000000</ele>
				<time>2025-07-12T16:02:22Z</time>
			</trkpt>
			<trkpt lat="42.786599" lon="24.964149">
				<ele>985.000000</ele>
				<time>2025-07-12T16:02:23Z</time>
			</trkpt>
			<trkpt lat="42.786599" lon="24.964149">
				<ele>985.000000</ele>
				<time>2025-07-12T16:02:25Z</time>
			</trkpt>
			<trkpt lat="42.786603" lon="24.964149">
				<ele>985.000000</ele>
				<time>2025-07-12T16:02:30Z</time>
			</trkpt>
			<trkpt lat="42.786646" lon="24.964183">
				<ele>986.000000</ele>
				<time>2025-07-12T16:02:36Z</time>
			</trkpt>
			<trkpt lat="42.786674" lon="24.964196">
				<ele>986.000000</ele>
				<time>2025-07-12T16:02:40Z</time>
			</trkpt>
			<trkpt lat="42.786701" lon="24.964200">
				<ele>987.000000</ele>
				<time>2025-07-12T16:02:44Z</time>
			</trkpt>
			<trkpt lat="42.786731" lon="24.964208">
				<ele>987.000000</ele>
				<time>2025-07-12T16:02:47Z</time>
			</trkpt>
			<trkpt lat="42.786745" lon="24.964212">
				<ele>988.000000</ele>
				<time>2025-07-12T16:02:49Z</time>
			</trkpt>
			<trkpt lat="42.786808" lon="24.964234">
				<ele>987.000000</ele>
				<time>2025-07-12T16:02:57Z</time>
			</trkpt>
			<trkpt lat="42.786822" lon="24.964235">
				<ele>987.000000</ele>
				<time>2025-07-12T16:02:59Z</time>
			</trkpt>
			<trkpt lat="42.786851" lon="24.964235">
				<ele>986.000000</ele>
				<time>2025-07-12T16:03:02Z</time>
			</trkpt>
			<trkpt lat="42.786914" lon="24.964262">
				<ele>986.000000</ele>
				<time>2025-07-12T16:03:09Z</time>
			</trkpt>
			<trkpt lat="42.786933" lon="24.964282">
				<ele>985.000000</ele>
				<time>2025-07-12T16:03:11Z</time>
			</trkpt>
			<trkpt lat="42.786948" lon="24.964313">
				<ele>985.000000</ele>
				<time>2025-07-12T16:03:13Z</time>
			</trkpt>
			<trkpt lat="42.786968" lon="24.964377">
				<ele>985.000000</ele>
				<time>2025-07-12T16:03:18Z</time>
			</trkpt>
			<trkpt lat="42.786966" lon="24.964398">
				<ele>984.000000</ele>
				<time>2025-07-12T16:03:21Z</time>
			</trkpt>
			<trkpt lat="42.786978" lon="24.964439">
				<ele>983.000000</ele>
				<time>2025-07-12T16:03:26Z</time>
			</trkpt>
			<trkpt lat="42.786991" lon="24.964497">
				<ele>982.000000</ele>
				<time>2025-07-12T16:03:32Z</time>
			</trkpt>
			<trkpt lat="42.786991" lon="24.964506">
				<ele>982.000000</ele>
				<time>2025-07-12T16:03:33Z</time>
			</trkpt>
			<trkpt lat="42.786994" lon="24.964517">
				<ele>981.000000</ele>
				<time>2025-07-12T16:03:35Z</time>
			</trkpt>
			<trkpt lat="42.786998" lon="24.964533">
				<ele>981.000000</ele>
				<time>2025-07-12T16:03:37Z</time>
			</trkpt>
			<trkpt lat="42.787006" lon="24.964583">
				<ele>980.000000</ele>
				<time>2025-07-12T16:03:43Z</time>
			</trkpt>
			<trkpt lat="42.787014" lon="24.964603">
				<ele>978.000000</ele>
				<time>2025-07-12T16:03:47Z</time>
			</trkpt>
			<trkpt lat="42.787010" lon="24.964597">
				<ele>978.000000</ele>
				<time>2025-07-12T16:03:51Z</time>
			</trkpt>
			<trkpt lat="42.787049" lon="24.964643">
				<ele>978.000000</ele>
				<time>2025-07-12T16:03:58Z</time>
			</trkpt>
			<trkpt lat="42.787049" lon="24.964642">
				<ele>977.000000</ele>
				<time>2025-07-12T16:03:59Z</time>
			</trkpt>
			<trkpt lat="42.787067" lon="24.964664">
				<ele>977.000000</ele>
				<time>2025-07-12T16:04:03Z</time>
			</trkpt>
			<trkpt lat="42.787092" lon="24.964709">
				<ele>976.000000</ele>
				<time>2025-07-12T16:04:08Z</time>
			</trkpt>
			<trkpt lat="42.787102" lon="24.964717">
				<ele>976.000000</ele>
				<time>2025-07-12T16:04:12Z</time>
			</trkpt>
			<trkpt lat="42.787115" lon="24.964744">
				<ele>976.000000</ele>
				<time>2025-07-12T16:04:16Z</time>
			</trkpt>
			<trkpt lat="42.787122" lon="24.964758">
				<ele>975.000000</ele>
				<time>2025-07-12T16:04:18Z</time>
			</trkpt>
			<trkpt lat="42.787127" lon="24.964765">
				<ele>975.000000</ele>
				<time>2025-07-12T16:04:19Z</time>
			</trkpt>
			<trkpt lat="42.787130" lon="24.964770">
				<ele>975.000000</ele>
				<time>2025-07-12T16:04:20Z</time>
			</trkpt>
			<trkpt lat="42.787147" lon="24.964813">
				<ele>974.000000</ele>
				<time>2025-07-12T16:04:26Z</time>
			</trkpt>
			<trkpt lat="42.787154" lon="24.964827">
				<ele>974.000000</ele>
				<time>2025-07-12T16:04:28Z</time>
			</trkpt>
			<trkpt lat="42.787174" lon="24.964866">
				<ele>973.000000</ele>
				<time>2025-07-12T16:04:34Z</time>
			</trkpt>
			<trkpt lat="42.787183" lon="24.964887">
				<ele>973.000000</ele>
				<time>2025-07-12T16:04:36Z</time>
			</trkpt>
			<trkpt lat="42.787203" lon="24.964937">
				<ele>973.000000</ele>
				<time>2025-07-12T16:04:41Z</time>
			</trkpt>
			<trkpt lat="42.787203" lon="24.964970">
				<ele>972.000000</ele>
				<time>2025-07-12T16:04:44Z</time>
			</trkpt>
			<trkpt lat="42.787204" lon="24.964980">
				<ele>972.000000</ele>
				<time>2025-07-12T16:04:45Z</time>
			</trkpt>
			<trkpt lat="42.787204" lon="24.965013">
				<ele>971.000000</ele>
				<time>2025-07-12T16:04:48Z</time>
			</trkpt>
			<trkpt lat="42.787207" lon="24.965036">
				<ele>971.000000</ele>
				<time>2025-07-12T16:04:50Z</time>
			</trkpt>
			<trkpt lat="42.787210" lon="24.965094">
				<ele>970.000000</ele>
				<time>2025-07-12T16:04:56Z</time>
			</trkpt>
			<trkpt lat="42.787242" lon="24.965162">
				<ele>969.000000</ele>
				<time>2025-07-12T16:05:03Z</time>
			</trkpt>
			<trkpt lat="42.787250" lon="24.965182">
				<ele>969.000000</ele>
				<time>2025-07-12T16:05:05Z</time>
			</trkpt>
			<trkpt lat="42.787255" lon="24.965233">
				<ele>968.000000</ele>
				<time>2025-07-12T16:05:09Z</time>
			</trkpt>
			<trkpt lat="42.787257" lon="24.965233">
				<ele>967.000000</ele>
				<time>2025-07-12T16:05:11Z</time>
			</trkpt>
			<trkpt lat="42.787266" lon="24.965267">
				<ele>967.000000</ele>
				<time>2025-07-12T16:05:14Z</time>
			</trkpt>
			<trkpt lat="42.787277" lon="24.965297">
				<ele>966.000000</ele>
				<time>2025-07-12T16:05:17Z</time>
			</trkpt>
			<trkpt lat="42.787276" lon="24.965316">
				<ele>966.000000</ele>
				<time>2025-07-12T16:05:19Z</time>
			</trkpt>
			<trkpt lat="42.787280" lon="24.965352">
				<ele>964.000000</ele>
				<time>2025-07-12T16:05:24Z</time>
			</trkpt>
			<trkpt lat="42.787284" lon="24.965362">
				<ele>964.000000</ele>
				<time>2025-07-12T16:05:25Z</time>
			</trkpt>
			<trkpt lat="42.787293" lon="24.965395">
				<ele>963.000000</ele>
				<time>2025-07-12T16:05:28Z</time>
			</trkpt>
			<trkpt lat="42.787303" lon="24.965437">
				<ele>962.000000</ele>
				<time>2025-07-12T16:05:32Z</time>
			</trkpt>
			<trkpt lat="42.787317" lon="24.965487">
				<ele>961.000000</ele>
				<time>2025-07-12T16:05:38Z</time>
			</trkpt>
			<trkpt lat="42.787326" lon="24.965508">
				<ele>960.000000</ele>
				<time>2025-07-12T16:05:41Z</time>
			</trkpt>
			<trkpt lat="42.787327" lon="24.965544">
				<ele>960.000000</ele>
				<time>2025-07-12T16:05:44Z</time>
			</trkpt>
			<trkpt lat="42.787317" lon="24.965590">
				<ele>959.000000</ele>
				<time>2025-07-12T16:05:48Z</time>
			</trkpt>
			<trkpt lat="42.787311" lon="24.965595">
				<ele>959.000000</ele>
				<time>2025-07-12T16:05:49Z</time>
			</trkpt>
			<trkpt lat="42.787291" lon="24.965643">
				<ele>958.000000</ele>
				<time>2025-07-12T16:05:54Z</time>
			</trkpt>
			<trkpt lat="42.787285" lon="24.965660">
				<ele>957.000000</ele>
				<time>2025-07-12T16:05:55Z</time>
			</trkpt>
			<trkpt lat="42.787283" lon="24.965669">
				<ele>957.000000</ele>
				<time>2025-07-12T16:05:56Z</time>
			</trkpt>
			<trkpt lat="42.787274" lon="24.965701">
				<ele>956.000000</ele>
				<time>2025-07-12T16:05:58Z</time>
			</trkpt>
			<trkpt lat="42.787269" lon="24.965725">
				<ele>956.000000</ele>
				<time>2025-07-12T16:06:00Z</time>
			</trkpt>
			<trkpt lat="42.787262" lon="24.965744">
				<ele>955.000000</ele>
				<time>2025-07-12T16:06:01Z</time>
			</trkpt>
			<trkpt lat="42.787244" lon="24.965792">
				<ele>954.000000</ele>
				<time>2025-07-12T16:06:05Z</time>
			</trkpt>
			<trkpt lat="42.787240" lon="24.965800">
				<ele>954.000000</ele>
				<time>2025-07-12T16:06:06Z</time>
			</trkpt>
			<trkpt lat="42.787222" lon="24.965823">
				<ele>953.000000</ele>
				<time>2025-07-12T16:06:09Z</time>
			</trkpt>
			<trkpt lat="42.787214" lon="24.965849">
				<ele>952.000000</ele>
				<time>2025-07-12T16:06:13Z</time>
			</trkpt>
			<trkpt lat="42.787211" lon="24.965867">
				<ele>951.000000</ele>
				<time>2025-07-12T16:06:15Z</time>
			</trkpt>
			<trkpt lat="42.787207" lon="24.965882">
				<ele>951.000000</ele>
				<time>2025-07-12T16:06:17Z</time>
			</trkpt>
			<trkpt lat="42.787206" lon="24.965896">
				<ele>950.000000</ele>
				<time>2025-07-12T16:06:23Z</time>
			</trkpt>
			<trkpt lat="42.787194" lon="24.965910">
				<ele>950.000000</ele>
				<time>2025-07-12T16:06:26Z</time>
			</trkpt>
			<trkpt lat="42.787182" lon="24.965929">
				<ele>950.000000</ele>
				<time>2025-07-12T16:06:28Z</time>
			</trkpt>
			<trkpt lat="42.787171" lon="24.965963">
				<ele>949.000000</ele>
				<time>2025-07-12T16:06:34Z</time>
			</trkpt>
			<trkpt lat="42.787163" lon="24.966026">
				<ele>948.000000</ele>
				<time>2025-07-12T16:06:41Z</time>
			</trkpt>
			<trkpt lat="42.787181" lon="24.966094">
				<ele>947.000000</ele>
				<time>2025-07-12T16:06:48Z</time>
			</trkpt>
			<trkpt lat="42.787186" lon="24.966106">
				<ele>946.000000</ele>
				<time>2025-07-12T16:06:49Z</time>
			</trkpt>
			<trkpt lat="42.787189" lon="24.966180">
				<ele>945.000000</ele>
				<time>2025-07-12T16:06:56Z</time>
			</trkpt>
			<trkpt lat="42.787181" lon="24.966195">
				<ele>945.000000</ele>
				<time>2025-07-12T16:06:58Z</time>
			</trkpt>
			<trkpt lat="42.787170" lon="24.966213">
				<ele>944.000000</ele>
				<time>2025-07-12T16:07:02Z</time>
			</trkpt>
			<trkpt lat="42.787174" lon="24.966254">
				<ele>944.000000</ele>
				<time>2025-07-12T16:07:06Z</time>
			</trkpt>
			<trkpt lat="42.787173" lon="24.966289">
				<ele>943.000000</ele>
				<time>2025-07-12T16:07:10Z</time>
			</trkpt>
			<trkpt lat="42.787164" lon="24.966338">
				<ele>942.000000</ele>
				<time>2025-07-12T16:07:15Z</time>
			</trkpt>
			<trkpt lat="42.787161" lon="24.966345">
				<ele>942.000000</ele>
				<time>2025-07-12T16:07:16Z</time>
			</trkpt>
			<trkpt lat="42.787160" lon="24.966350">
				<ele>942.000000</ele>
				<time>2025-07-12T16:07:18Z</time>
			</trkpt>
			<trkpt lat="42.787161" lon="24.966369">
				<ele>942.000000</ele>
				<time>2025-07-12T16:07:21Z</time>
			</trkpt>
			<trkpt lat="42.787156" lon="24.966396">
				<ele>942.000000</ele>
				<time>2025-07-12T16:07:29Z</time>
			</trkpt>
			<trkpt lat="42.787141" lon="24.966433">
				<ele>941.000000</ele>
				<time>2025-07-12T16:07:36Z</time>
			</trkpt>
			<trkpt lat="42.787138" lon="24.966441">
				<ele>941.000000</ele>
				<time>2025-07-12T16:07:38Z</time>
			</trkpt>
			<trkpt lat="42.787135" lon="24.966464">
				<ele>940.000000</ele>
				<time>2025-07-12T16:07:43Z</time>
			</trkpt>
			<trkpt lat="42.787114" lon="24.966490">
				<ele>939.000000</ele>
				<time>2025-07-12T16:07:49Z</time>
			</trkpt>
			<trkpt lat="42.787083" lon="24.966500">
				<ele>938.000000</ele>
				<time>2025-07-12T16:07:58Z</time>
			</trkpt>
			<trkpt lat="42.787102" lon="24.966507">
				<ele>938.000000</ele>
				<time>2025-07-12T16:08:05Z</time>
			</trkpt>
			<trkpt lat="42.787106" lon="24.966510">
				<ele>938.000000</ele>
				<time>2025-07-12T16:08:08Z</time>
			</trkpt>
			<trkpt lat="42.787103" lon="24.966512">
				<ele>938.000000</ele>
				<time>2025-07-12T16:08:11Z</time>
			</trkpt>
			<trkpt lat="42.787080" lon="24.966515">
				<ele>938.000000</ele>
				<time>2025-07-12T16:08:17Z</time>
			</trkpt>
			<trkpt lat="42.787067" lon="24.966538">
				<ele>937.000000</ele>
				<time>2025-07-12T16:08:25Z</time>
			</trkpt>
			<trkpt lat="42.787069" lon="24.966551">
				<ele>937.000000</ele>
				<time>2025-07-12T16:08:27Z</time>
			</trkpt>
			<trkpt lat="42.787054" lon="24.966601">
				<ele>936.000000</ele>
				<time>2025-07-12T16:08:33Z</time>
			</trkpt>
			<trkpt lat="42.787045" lon="24.966626">
				<ele>936.000000</ele>
				<time>2025-07-12T16:08:37Z</time>
			</trkpt>
			<trkpt lat="42.787039" lon="24.966643">
				<ele>936.000000</ele>
				<time>2025-07-12T16:08:40Z</time>
			</trkpt>
			<trkpt lat="42.787035" lon="24.966645">
				<ele>936.000000</ele>
				<time>2025-07-12T16:08:41Z</time>
			</trkpt>
			<trkpt lat="42.787018" lon="24.966673">
				<ele>935.000000</ele>
				<time>2025-07-12T16:08:45Z</time>
			</trkpt>
			<trkpt lat="42.787003" lon="24.966696">
				<ele>934.000000</ele>
				<time>2025-07-12T16:08:48Z</time>
			</trkpt>
			<trkpt lat="42.786980" lon="24.966715">
				<ele>934.000000</ele>
				<time>2025-07-12T16:08:57Z</time>
			</trkpt>
			<trkpt lat="42.786977" lon="24.966719">
				<ele>934.000000</ele>
				<time>2025-07-12T16:08:58Z</time>
			</trkpt>
			<trkpt lat="42.786955" lon="24.966743">
				<ele>933.000000</ele>
				<time>2025-07-12T16:09:03Z</time>
			</trkpt>
			<trkpt lat="42.786950" lon="24.966753">
				<ele>932.000000</ele>
				<time>2025-07-12T16:09:05Z</time>
			</trkpt>
			<trkpt lat="42.786927" lon="24.966797">
				<ele>932.000000</ele>
				<time>2025-07-12T16:09:10Z</time>
			</trkpt>
			<trkpt lat="42.786916" lon="24.966833">
				<ele>931.000000</ele>
				<time>2025-07-12T16:09:13Z</time>
			</trkpt>
			<trkpt lat="42.786902" lon="24.966875">
				<ele>931.000000</ele>
				<time>2025-07-12T16:09:17Z</time>
			</trkpt>
			<trkpt lat="42.786914" lon="24.966927">
				<ele>930.000000</ele>
				<time>2025-07-12T16:09:22Z</time>
			</trkpt>
			<trkpt lat="42.786918" lon="24.966981">
				<ele>929.000000</ele>
				<time>2025-07-12T16:09:27Z</time>
			</trkpt>
			<trkpt lat="42.786916" lon="24.967044">
				<ele>929.000000</ele>
				<time>2025-07-12T16:09:32Z</time>
			</trkpt>
			<trkpt lat="42.786914" lon="24.967053">
				<ele>928.000000</ele>
				<time>2025-07-12T16:09:33Z</time>
			</trkpt>
			<trkpt lat="42.786931" lon="24.967119">
				<ele>927.000000</ele>
				<time>2025-07-12T16:09:38Z</time>
			</trkpt>
			<trkpt lat="42.786938" lon="24.967129">
				<ele>927.000000</ele>
				<time>2025-07-12T16:09:39Z</time>
			</trkpt>
			<trkpt lat="42.786943" lon="24.967139">
				<ele>927.000000</ele>
				<time>2025-07-12T16:09:40Z</time>
			</trkpt>
			<trkpt lat="42.786958" lon="24.967194">
				<ele>926.000000</ele>
				<time>2025-07-12T16:09:45Z</time>
			</trkpt>
			<trkpt lat="42.786967" lon="24.967237">
				<ele>925.000000</ele>
				<time>2025-07-12T16:09:50Z</time>
			</trkpt>
			<trkpt lat="42.786970" lon="24.967254">
				<ele>925.000000</ele>
				<time>2025-07-12T16:09:52Z</time>
			</trkpt>
			<trkpt lat="42.786973" lon="24.967293">
				<ele>924.000000</ele>
				<time>2025-07-12T16:10:00Z</time>
			</trkpt>
			<trkpt lat="42.786969" lon="24.967300">
				<ele>924.000000</ele>
				<time>2025-07-12T16:10:02Z</time>
			</trkpt>
			<trkpt lat="42.786975" lon="24.967298">
				<ele>924.000000</ele>
				<time>2025-07-12T16:10:08Z</time>
			</trkpt>
			<trkpt lat="42.786982" lon="24.967309">
				<ele>924.000000</ele>
				<time>2025-07-12T16:10:13Z</time>
			</trkpt>
			<trkpt lat="42.786975" lon="24.967310">
				<ele>924.000000</ele>
				<time>2025-07-12T16:10:19Z</time>
			</trkpt>
			<trkpt lat="42.786963" lon="24.967337">
				<ele>923.000000</ele>
				<time>2025-07-12T16:10:26Z</time>
			</trkpt>
			<trkpt lat="42.786955" lon="24.967365">
				<ele>923.000000</ele>
				<time>2025-07-12T16:10:31Z</time>
			</trkpt>
			<trkpt lat="42.786950" lon="24.967386">
				<ele>923.000000</ele>
				<time>2025-07-12T16:10:33Z</time>
			</trkpt>
			<trkpt lat="42.786951" lon="24.967414">
				<ele>922.000000</ele>
				<time>2025-07-12T16:10:36Z</time>
			</trkpt>
			<trkpt lat="42.786936" lon="24.967453">
				<ele>921.000000</ele>
				<time>2025-07-12T16:10:40Z</time>
			</trkpt>
			<trkpt lat="42.786936" lon="24.967455">
				<ele>921.000000</ele>
				<time>2025-07-12T16:10:41Z</time>
			</trkpt>
			<trkpt lat="42.786933" lon="24.967479">
				<ele>920.000000</ele>
				<time>2025-07-12T16:10:48Z</time>
			</trkpt>
			<trkpt lat="42.786921" lon="24.967506">
				<ele>920.000000</ele>
				<time>2025-07-12T16:10:51Z</time>
			</trkpt>
			<trkpt lat="42.786911" lon="24.967538">
				<ele>919.000000</ele>
				<time>2025-07-12T16:10:55Z</time>
			</trkpt>
			<trkpt lat="42.786916" lon="24.967572">
				<ele>918.000000</ele>
				<time>2025-07-12T16:11:00Z</time>
			</trkpt>
			<trkpt lat="42.786920" lon="24.967591">
				<ele>918.000000</ele>
				<time>2025-07-12T16:11:03Z</time>
			</trkpt>
			<trkpt lat="42.786917" lon="24.967599">
				<ele>918.000000</ele>
				<time>2025-07-12T16:11:04Z</time>
			</trkpt>
			<trkpt lat="42.786918" lon="24.967614">
				<ele>918.000000</ele>
				<time>2025-07-12T16:11:06Z</time>
			</trkpt>
			<trkpt lat="42.786914" lon="24.967630">
				<ele>917.000000</ele>
				<time>2025-07-12T16:11:09Z</time>
			</trkpt>
			<trkpt lat="42.786896" lon="24.967644">
				<ele>916.000000</ele>
				<time>2025-07-12T16:11:13Z</time>
			</trkpt>
			<trkpt lat="42.786870" lon="24.967677">
				<ele>915.000000</ele>
				<time>2025-07-12T16:11:19Z</time>
			</trkpt>
			<trkpt lat="42.786854" lon="24.967699">
				<ele>914.000000</ele>
				<time>2025-07-12T16:11:25Z</time>
			</trkpt>
			<trkpt lat="42.786853" lon="24.967703">
				<ele>914.000000</ele>
				<time>2025-07-12T16:11:26Z</time>
			</trkpt>
			<trkpt lat="42.786847" lon="24.967730">
				<ele>914.000000</ele>
				<time>2025-07-12T16:11:30Z</time>
			</trkpt>
			<trkpt lat="42.786846" lon="24.967745">
				<ele>914.000000</ele>
				<time>2025-07-12T16:11:32Z</time>
			</trkpt>
			<trkpt lat="42.786845" lon="24.967749">
				<ele>914.000000</ele>
				<time>2025-07-12T16:11:42Z</time>
			</trkpt>
			<trkpt lat="42.786848" lon="24.967749">
				<ele>914.000000</ele>
				<time>2025-07-12T16:11:43Z</time>
			</trkpt>
			<trkpt lat="42.786850" lon="24.967757">
				<ele>913.000000</ele>
				<time>2025-07-12T16:11:45Z</time>
			</trkpt>
			<trkpt lat="42.786858" lon="24.967749">
				<ele>913.000000</ele>
				<time>2025-07-12T16:11:50Z</time>
			</trkpt>
			<trkpt lat="42.786841" lon="24.967778">
				<ele>913.000000</ele>
				<time>2025-07-12T16:11:56Z</time>
			</trkpt>
			<trkpt lat="42.786827" lon="24.967799">
				<ele>912.000000</ele>
				<time>2025-07-12T16:12:01Z</time>
			</trkpt>
			<trkpt lat="42.786827" lon="24.967803">
				<ele>912.000000</ele>
				<time>2025-07-12T16:12:04Z</time>
			</trkpt>
			<trkpt lat="42.786827" lon="24.967809">
				<ele>912.000000</ele>
				<time>2025-07-12T16:12:07Z</time>
			</trkpt>
			<trkpt lat="42.786811" lon="24.967833">
				<ele>912.000000</ele>
				<time>2025-07-12T16:12:12Z</time>
			</trkpt>
			<trkpt lat="42.786809" lon="24.967866">
				<ele>911.000000</ele>
				<time>2025-07-12T16:12:16Z</time>
			</trkpt>
			<trkpt lat="42.786800" lon="24.967891">
				<ele>910.000000</ele>
				<time>2025-07-12T16:12:19Z</time>
			</trkpt>
			<trkpt lat="42.786792" lon="24.967901">
				<ele>910.000000</ele>
				<time>2025-07-12T16:12:21Z</time>
			</trkpt>
			<trkpt lat="42.786752" lon="24.967943">
				<ele>909.000000</ele>
				<time>2025-07-12T16:12:26Z</time>
			</trkpt>
			<trkpt lat="42.786734" lon="24.967955">
				<ele>909.000000</ele>
				<time>2025-07-12T16:12:28Z</time>
			</trkpt>
			<trkpt lat="42.786692" lon="24.967972">
				<ele>908.000000</ele>
				<time>2025-07-12T16:12:33Z</time>
			</trkpt>
			<trkpt lat="42.786657" lon="24.967996">
				<ele>908.000000</ele>
				<time>2025-07-12T16:12:40Z</time>
			</trkpt>
			<trkpt lat="42.786654" lon="24.968002">
				<ele>907.000000</ele>
				<time>2025-07-12T16:12:41Z</time>
			</trkpt>
			<trkpt lat="42.786643" lon="24.968033">
				<ele>906.000000</ele>
				<time>2025-07-12T16:12:45Z</time>
			</trkpt>
			<trkpt lat="42.786635" lon="24.968074">
				<ele>906.000000</ele>
				<time>2025-07-12T16:12:49Z</time>
			</trkpt>
			<trkpt lat="42.786622" lon="24.968100">
				<ele>905.000000</ele>
				<time>2025-07-12T16:12:52Z</time>
			</trkpt>
			<trkpt lat="42.786593" lon="24.968171">
				<ele>905.000000</ele>
				<time>2025-07-12T16:12:57Z</time>
			</trkpt>
			<trkpt lat="42.786583" lon="24.968217">
				<ele>904.000000</ele>
				<time>2025-07-12T16:13:01Z</time>
			</trkpt>
			<trkpt lat="42.786581" lon="24.968226">
				<ele>904.000000</ele>
				<time>2025-07-12T16:13:03Z</time>
			</trkpt>
			<trkpt lat="42.786569" lon="24.968295">
				<ele>904.000000</ele>
				<time>2025-07-12T16:13:11Z</time>
			</trkpt>
			<trkpt lat="42.786574" lon="24.968330">
				<ele>903.000000</ele>
				<time>2025-07-12T16:13:17Z</time>
			</trkpt>
			<trkpt lat="42.786574" lon="24.968340">
				<ele>903.000000</ele>
				<time>2025-07-12T16:13:19Z</time>
			</trkpt>
			<trkpt lat="42.786583" lon="24.968426">
				<ele>902.000000</ele>
				<time>2025-07-12T16:13:26Z</time>
			</trkpt>
			<trkpt lat="42.786583" lon="24.968458">
				<ele>902.000000</ele>
				<time>2025-07-12T16:13:29Z</time>
			</trkpt>
			<trkpt lat="42.786584" lon="24.968505">
				<ele>902.000000</ele>
				<time>2025-07-12T16:13:32Z</time>
			</trkpt>
			<trkpt lat="42.786575" lon="24.968564">
				<ele>901.000000</ele>
				<time>2025-07-12T16:13:36Z</time>
			</trkpt>
			<trkpt lat="42.786573" lon="24.968579">
				<ele>901.000000</ele>
				<time>2025-07-12T16:13:38Z</time>
			</trkpt>
			<trkpt lat="42.786564" lon="24.968639">
				<ele>900.000000</ele>
				<time>2025-07-12T16:13:44Z</time>
			</trkpt>
			<trkpt lat="42.786557" lon="24.968664">
				<ele>899.000000</ele>
				<time>2025-07-12T16:13:46Z</time>
			</trkpt>
			<trkpt lat="42.786532" lon="24.968709">
				<ele>899.000000</ele>
				<time>2025-07-12T16:13:51Z</time>
			</trkpt>
			<trkpt lat="42.786521" lon="24.968727">
				<ele>898.000000</ele>
				<time>2025-07-12T16:13:53Z</time>
			</trkpt>
			<trkpt lat="42.786517" lon="24.968763">
				<ele>898.000000</ele>
				<time>2025-07-12T16:13:57Z</time>
			</trkpt>
			<trkpt lat="42.786510" lon="24.968807">
				<ele>897.000000</ele>
				<time>2025-07-12T16:14:01Z</time>
			</trkpt>
			<trkpt lat="42.786514" lon="24.968827">
				<ele>897.000000</ele>
				<time>2025-07-12T16:14:04Z</time>
			</trkpt>
			<trkpt lat="42.786518" lon="24.968859">
				<ele>896.000000</ele>
				<time>2025-07-12T16:14:07Z</time>
			</trkpt>
			<trkpt lat="42.786511" lon="24.968921">
				<ele>896.000000</ele>
				<time>2025-07-12T16:14:13Z</time>
			</trkpt>
			<trkpt lat="42.786510" lon="24.968960">
				<ele>895.000000</ele>
				<time>2025-07-12T16:14:17Z</time>
			</trkpt>
			<trkpt lat="42.786503" lon="24.969002">
				<ele>895.000000</ele>
				<time>2025-07-12T16:14:20Z</time>
			</trkpt>
			<trkpt lat="42.786508" lon="24.969016">
				<ele>895.000000</ele>
				<time>2025-07-12T16:14:23Z</time>
			</trkpt>
			<trkpt lat="42.786506" lon="24.969027">
				<ele>895.000000</ele>
				<time>2025-07-12T16:14:28Z</time>
			</trkpt>
			<trkpt lat="42.786494" lon="24.969044">
				<ele>895.000000</ele>
				<time>2025-07-12T16:14:36Z</time>
			</trkpt>
			<trkpt lat="42.786481" lon="24.969061">
				<ele>895.000000</ele>
				<time>2025-07-12T16:14:45Z</time>
			</trkpt>
			<trkpt lat="42.786505" lon="24.969087">
				<ele>894.000000</ele>
				<time>2025-07-12T16:14:54Z</time>
			</trkpt>
			<trkpt lat="42.786503" lon="24.969120">
				<ele>894.000000</ele>
				<time>2025-07-12T16:15:02Z</time>
			</trkpt>
			<trkpt lat="42.786510" lon="24.969146">
				<ele>894.000000</ele>
				<time>2025-07-12T16:15:06Z</time>
			</trkpt>
			<trkpt lat="42.786526" lon="24.969187">
				<ele>893.000000</ele>
				<time>2025-07-12T16:15:10Z</time>
			</trkpt>
			<trkpt lat="42.786560" lon="24.969243">
				<ele>893.000000</ele>
				<time>2025-07-12T16:15:17Z</time>
			</trkpt>
			<trkpt lat="42.786579" lon="24.969270">
				<ele>893.000000</ele>
				<time>2025-07-12T16:15:25Z</time>
			</trkpt>
			<trkpt lat="42.786609" lon="24.969286">
				<ele>892.000000</ele>
				<time>2025-07-12T16:15:32Z</time>
			</trkpt>
			<trkpt lat="42.786638" lon="24.969323">
				<ele>891.000000</ele>
				<time>2025-07-12T16:15:40Z</time>
			</trkpt>
			<trkpt lat="42.786641" lon="24.969327">
				<ele>891.000000</ele>
				<time>2025-07-12T16:15:41Z</time>
			</trkpt>
			<trkpt lat="42.786645" lon="24.969331">
				<ele>891.000000</ele>
				<time>2025-07-12T16:15:42Z</time>
			</trkpt>
			<trkpt lat="42.786660" lon="24.969345">
				<ele>891.000000</ele>
				<time>2025-07-12T16:15:47Z</time>
			</trkpt>
			<trkpt lat="42.786669" lon="24.969360">
				<ele>891.000000</ele>
				<time>2025-07-12T16:15:49Z</time>
			</trkpt>
			<trkpt lat="42.786689" lon="24.969390">
				<ele>890.000000</ele>
				<time>2025-07-12T16:15:55Z</time>
			</trkpt>
			<trkpt lat="42.786695" lon="24.969399">
				<ele>890.000000</ele>
				<time>2025-07-12T16:15:56Z</time>
			</trkpt>
			<trkpt lat="42.786699" lon="24.969405">
				<ele>890.000000</ele>
				<time>2025-07-12T16:15:57Z</time>
			</trkpt>
			<trkpt lat="42.786721" lon="24.969462">
				<ele>889.000000</ele>
				<time>2025-07-12T16:16:04Z</time>
			</trkpt>
			<trkpt lat="42.786724" lon="24.969474">
				<ele>888.000000</ele>
				<time>2025-07-12T16:16:06Z</time>
			</trkpt>
			<trkpt lat="42.786737" lon="24.969495">
				<ele>888.000000</ele>
				<time>2025-07-12T16:16:09Z</time>
			</trkpt>
			<trkpt lat="42.786746" lon="24.969525">
				<ele>887.000000</ele>
				<time>2025-07-12T16:16:14Z</time>
			</trkpt>
			<trkpt lat="42.786756" lon="24.969539">
				<ele>887.000000</ele>
				<time>2025-07-12T16:16:16Z</time>
			</trkpt>
			<trkpt lat="42.786783" lon="24.969563">
				<ele>886.000000</ele>
				<time>2025-07-12T16:16:21Z</time>
			</trkpt>
			<trkpt lat="42.786787" lon="24.969562">
				<ele>886.000000</ele>
				<time>2025-07-12T16:16:22Z</time>
			</trkpt>
			<trkpt lat="42.786815" lon="24.969590">
				<ele>885.000000</ele>
				<time>2025-07-12T16:16:27Z</time>
			</trkpt>
			<trkpt lat="42.786818" lon="24.969598">
				<ele>885.000000</ele>
				<time>2025-07-12T16:16:29Z</time>
			</trkpt>
			<trkpt lat="42.786834" lon="24.969600">
				<ele>884.000000</ele>
				<time>2025-07-12T16:16:36Z</time>
			</trkpt>
			<trkpt lat="42.786835" lon="24.969597">
				<ele>884.000000</ele>
				<time>2025-07-12T16:16:38Z</time>
			</trkpt>
			<trkpt lat="42.786847" lon="24.969612">
				<ele>884.000000</ele>
				<time>2025-07-12T16:16:44Z</time>
			</trkpt>
			<trkpt lat="42.786859" lon="24.969633">
				<ele>883.000000</ele>
				<time>2025-07-12T16:16:51Z</time>
			</trkpt>
			<trkpt lat="42.786876" lon="24.969636">
				<ele>881.000000</ele>
				<time>2025-07-12T16:16:57Z</time>
			</trkpt>
			<trkpt lat="42.786911" lon="24.969651">
				<ele>881.000000</ele>
				<time>2025-07-12T16:17:05Z</time>
			</trkpt>
			<trkpt lat="42.786911" lon="24.969640">
				<ele>880.000000</ele>
				<time>2025-07-12T16:17:08Z</time>
			</trkpt>
			<trkpt lat="42.786934" lon="24.969631">
				<ele>879.000000</ele>
				<time>2025-07-12T16:17:12Z</time>
			</trkpt>
			<trkpt lat="42.786940" lon="24.969627">
				<ele>879.000000</ele>
				<time>2025-07-12T16:17:13Z</time>
			</trkpt>
			<trkpt lat="42.786943" lon="24.969625">
				<ele>879.000000</ele>
				<time>2025-07-12T16:17:14Z</time>
			</trkpt>
			<trkpt lat="42.786943" lon="24.969628">
				<ele>879.000000</ele>
				<time>2025-07-12T16:17:21Z</time>
			</trkpt>
			<trkpt lat="42.786979" lon="24.969580">
				<ele>878.000000</ele>
				<time>2025-07-12T16:17:28Z</time>
			</trkpt>
			<trkpt lat="42.786984" lon="24.969576">
				<ele>878.000000</ele>
				<time>2025-07-12T16:17:29Z</time>
			</trkpt>
			<trkpt lat="42.786993" lon="24.969545">
				<ele>877.000000</ele>
				<time>2025-07-12T16:17:34Z</time>
			</trkpt>
			<trkpt lat="42.786997" lon="24.969535">
				<ele>877.000000</ele>
				<time>2025-07-12T16:17:35Z</time>
			</trkpt>
			<trkpt lat="42.787006" lon="24.969504">
				<ele>876.000000</ele>
				<time>2025-07-12T16:17:40Z</time>
			</trkpt>
			<trkpt lat="42.787008" lon="24.969499">
				<ele>876.000000</ele>
				<time>2025-07-12T16:17:41Z</time>
			</trkpt>
			<trkpt lat="42.787043" lon="24.969466">
				<ele>875.000000</ele>
				<time>2025-07-12T16:17:46Z</time>
			</trkpt>
			<trkpt lat="42.787047" lon="24.969463">
				<ele>875.000000</ele>
				<time>2025-07-12T16:17:47Z</time>
			</trkpt>
			<trkpt lat="42.787056" lon="24.969474">
				<ele>874.000000</ele>
				<time>2025-07-12T16:17:49Z</time>
			</trkpt>
			<trkpt lat="42.787064" lon="24.969488">
				<ele>874.000000</ele>
				<time>2025-07-12T16:17:51Z</time>
			</trkpt>
			<trkpt lat="42.787076" lon="24.969503">
				<ele>873.000000</ele>
				<time>2025-07-12T16:17:53Z</time>
			</trkpt>
			<trkpt lat="42.787084" lon="24.969511">
				<ele>873.000000</ele>
				<time>2025-07-12T16:17:55Z</time>
			</trkpt>
			<trkpt lat="42.787105" lon="24.969535">
				<ele>872.000000</ele>
				<time>2025-07-12T16:18:01Z</time>
			</trkpt>
			<trkpt lat="42.787130" lon="24.969558">
				<ele>872.000000</ele>
				<time>2025-07-12T16:18:06Z</time>
			</trkpt>
			<trkpt lat="42.787135" lon="24.969563">
				<ele>871.000000</ele>
				<time>2025-07-12T16:18:07Z</time>
			</trkpt>
			<trkpt lat="42.787149" lon="24.969592">
				<ele>871.000000</ele>
				<time>2025-07-12T16:18:10Z</time>
			</trkpt>
			<trkpt lat="42.787168" lon="24.969618">
				<ele>870.000000</ele>
				<time>2025-07-12T16:18:13Z</time>
			</trkpt>
			<trkpt lat="42.787187" lon="24.969643">
				<ele>870.000000</ele>
				<time>2025-07-12T16:18:22Z</time>
			</trkpt>
			<trkpt lat="42.787210" lon="24.969671">
				<ele>869.000000</ele>
				<time>2025-07-12T16:18:29Z</time>
			</trkpt>
			<trkpt lat="42.787209" lon="24.969673">
				<ele>869.000000</ele>
				<time>2025-07-12T16:18:30Z</time>
			</trkpt>
			<trkpt lat="42.787222" lon="24.969695">
				<ele>868.000000</ele>
				<time>2025-07-12T16:18:34Z</time>
			</trkpt>
			<trkpt lat="42.787237" lon="24.969734">
				<ele>867.000000</ele>
				<time>2025-07-12T16:18:38Z</time>
			</trkpt>
			<trkpt lat="42.787244" lon="24.969753">
				<ele>867.000000</ele>
				<time>2025-07-12T16:18:40Z</time>
			</trkpt>
			<trkpt lat="42.787250" lon="24.969771">
				<ele>866.000000</ele>
				<time>2025-07-12T16:18:43Z</time>
			</trkpt>
			<trkpt lat="42.787262" lon="24.969765">
				<ele>865.000000</ele>
				<time>2025-07-12T16:18:47Z</time>
			</trkpt>
			<trkpt lat="42.787270" lon="24.969771">
				<ele>864.000000</ele>
				<time>2025-07-12T16:18:50Z</time>
			</trkpt>
			<trkpt lat="42.787266" lon="24.969785">
				<ele>864.000000</ele>
				<time>2025-07-12T16:18:51Z</time>
			</trkpt>
			<trkpt lat="42.787285" lon="24.969820">
				<ele>863.000000</ele>
				<time>2025-07-12T16:18:55Z</time>
			</trkpt>
			<trkpt lat="42.787295" lon="24.969836">
				<ele>863.000000</ele>
				<time>2025-07-12T16:18:57Z</time>
			</trkpt>
			<trkpt lat="42.787320" lon="24.969842">
				<ele>862.000000</ele>
				<time>2025-07-12T16:19:02Z</time>
			</trkpt>
			<trkpt lat="42.787328" lon="24.969838">
				<ele>862.000000</ele>
				<time>2025-07-12T16:19:03Z</time>
			</trkpt>
			<trkpt lat="42.787341" lon="24.969846">
				<ele>861.000000</ele>
				<time>2025-07-12T16:19:05Z</time>
			</trkpt>
			<trkpt lat="42.787349" lon="24.969856">
				<ele>861.000000</ele>
				<time>2025-07-12T16:19:07Z</time>
			</trkpt>
			<trkpt lat="42.787350" lon="24.969867">
				<ele>861.000000</ele>
				<time>2025-07-12T16:19:09Z</time>
			</trkpt>
			<trkpt lat="42.787360" lon="24.969887">
				<ele>860.000000</ele>
				<time>2025-07-12T16:19:13Z</time>
			</trkpt>
			<trkpt lat="42.787364" lon="24.969903">
				<ele>860.000000</ele>
				<time>2025-07-12T16:19:15Z</time>
			</trkpt>
			<trkpt lat="42.787373" lon="24.969903">
				<ele>859.000000</ele>
				<time>2025-07-12T16:19:18Z</time>
			</trkpt>
			<trkpt lat="42.787375" lon="24.969889">
				<ele>859.000000</ele>
				<time>2025-07-12T16:19:22Z</time>
			</trkpt>
			<trkpt lat="42.787397" lon="24.969869">
				<ele>858.000000</ele>
				<time>2025-07-12T16:19:27Z</time>
			</trkpt>
			<trkpt lat="42.787411" lon="24.969865">
				<ele>858.000000</ele>
				<time>2025-07-12T16:19:29Z</time>
			</trkpt>
			<trkpt lat="42.787417" lon="24.969871">
				<ele>857.000000</ele>
				<time>2025-07-12T16:19:32Z</time>
			</trkpt>
			<trkpt lat="42.787426" lon="24.969875">
				<ele>857.000000</ele>
				<time>2025-07-12T16:19:37Z</time>
			</trkpt>
			<trkpt lat="42.787448" lon="24.969883">
				<ele>857.000000</ele>
				<time>2025-07-12T16:19:45Z</time>
			</trkpt>
			<trkpt lat="42.787451" lon="24.969922">
				<ele>856.000000</ele>
				<time>2025-07-12T16:19:49Z</time>
			</trkpt>
			<trkpt lat="42.787465" lon="24.969944">
				<ele>855.000000</ele>
				<time>2025-07-12T16:19:52Z</time>
			</trkpt>
			<trkpt lat="42.787481" lon="24.969938">
				<ele>855.000000</ele>
				<time>2025-07-12T16:19:54Z</time>
			</trkpt>
			<trkpt lat="42.787493" lon="24.969934">
				<ele>854.000000</ele>
				<time>2025-07-12T16:19:58Z</time>
			</trkpt>
			<trkpt lat="42.787492" lon="24.969942">
				<ele>854.000000</ele>
				<time>2025-07-12T16:20:00Z</time>
			</trkpt>
			<trkpt lat="42.787502" lon="24.969990">
				<ele>853.000000</ele>
				<time>2025-07-12T16:20:05Z</time>
			</trkpt>
			<trkpt lat="42.787506" lon="24.970001">
				<ele>852.000000</ele>
				<time>2025-07-12T16:20:06Z</time>
			</trkpt>
			<trkpt lat="42.787523" lon="24.970022">
				<ele>852.000000</ele>
				<time>2025-07-12T16:20:09Z</time>
			</trkpt>
			<trkpt lat="42.787537" lon="24.970040">
				<ele>851.000000</ele>
				<time>2025-07-12T16:20:14Z</time>
			</trkpt>
			<trkpt lat="42.787534" lon="24.970053">
				<ele>851.000000</ele>
				<time>2025-07-12T16:20:21Z</time>
			</trkpt>
			<trkpt lat="42.787538" lon="24.970072">
				<ele>851.000000</ele>
				<time>2025-07-12T16:20:23Z</time>
			</trkpt>
			<trkpt lat="42.787537" lon="24.970078">
				<ele>850.000000</ele>
				<time>2025-07-12T16:20:24Z</time>
			</trkpt>
			<trkpt lat="42.787546" lon="24.970128">
				<ele>850.000000</ele>
				<time>2025-07-12T16:20:29Z</time>
			</trkpt>
			<trkpt lat="42.787538" lon="24.970171">
				<ele>849.000000</ele>
				<time>2025-07-12T16:20:33Z</time>
			</trkpt>
			<trkpt lat="42.787539" lon="24.970215">
				<ele>848.000000</ele>
				<time>2025-07-12T16:20:39Z</time>
			</trkpt>
			<trkpt lat="42.787538" lon="24.970237">
				<ele>848.000000</ele>
				<time>2025-07-12T16:20:42Z</time>
			</trkpt>
			<trkpt lat="42.787539" lon="24.970258">
				<ele>847.000000</ele>
				<time>2025-07-12T16:20:45Z</time>
			</trkpt>
			<trkpt lat="42.787549" lon="24.970331">
				<ele>846.000000</ele>
				<time>2025-07-12T16:20:51Z</time>
			</trkpt>
			<trkpt lat="42.787560" lon="24.970344">
				<ele>846.000000</ele>
				<time>2025-07-12T16:20:58Z</time>
			</trkpt>
			<trkpt lat="42.787563" lon="24.970363">
				<ele>846.000000</ele>
				<time>2025-07-12T16:21:01Z</time>
			</trkpt>
			<trkpt lat="42.787565" lon="24.970375">
				<ele>845.000000</ele>
				<time>2025-07-12T16:21:04Z</time>
			</trkpt>
			<trkpt lat="42.787564" lon="24.970384">
				<ele>845.000000</ele>
				<time>2025-07-12T16:21:05Z</time>
			</trkpt>
			<trkpt lat="42.787559" lon="24.970433">
				<ele>845.000000</ele>
				<time>2025-07-12T16:21:09Z</time>
			</trkpt>
			<trkpt lat="42.787540" lon="24.970494">
				<ele>845.000000</ele>
				<time>2025-07-12T16:21:16Z</time>
			</trkpt>
			<trkpt lat="42.787530" lon="24.970518">
				<ele>844.000000</ele>
				<time>2025-07-12T16:21:21Z</time>
			</trkpt>
			<trkpt lat="42.787542" lon="24.970530">
				<ele>843.000000</ele>
				<time>2025-07-12T16:21:24Z</time>
			</trkpt>
			<trkpt lat="42.787557" lon="24.970518">
				<ele>843.000000</ele>
				<time>2025-07-12T16:21:26Z</time>
			</trkpt>
			<trkpt lat="42.787606" lon="24.970479">
				<ele>842.000000</ele>
				<time>2025-07-12T16:21:31Z</time>
			</trkpt>
			<trkpt lat="42.787610" lon="24.970475">
				<ele>842.000000</ele>
				<time>2025-07-12T16:21:32Z</time>
			</trkpt>
			<trkpt lat="42.787648" lon="24.970445">
				<ele>841.000000</ele>
				<time>2025-07-12T16:21:39Z</time>
			</trkpt>
			<trkpt lat="42.787661" lon="24.970443">
				<ele>841.000000</ele>
				<time>2025-07-12T16:21:41Z</time>
			</trkpt>
			<trkpt lat="42.787681" lon="24.970408">
				<ele>840.000000</ele>
				<time>2025-07-12T16:21:50Z</time>
			</trkpt>
			<trkpt lat="42.787692" lon="24.970391">
				<ele>840.000000</ele>
				<time>2025-07-12T16:21:54Z</time>
			</trkpt>
			<trkpt lat="42.787697" lon="24.970369">
				<ele>839.000000</ele>
				<time>2025-07-12T16:21:57Z</time>
			</trkpt>
			<trkpt lat="42.787701" lon="24.970364">
				<ele>839.000000</ele>
				<time>2025-07-12T16:21:59Z</time>
			</trkpt>
			<trkpt lat="42.787727" lon="24.970345">
				<ele>837.000000</ele>
				<time>2025-07-12T16:22:04Z</time>
			</trkpt>
			<trkpt lat="42.787730" lon="24.970339">
				<ele>837.000000</ele>
				<time>2025-07-12T16:22:05Z</time>
			</trkpt>
			<trkpt lat="42.787760" lon="24.970308">
				<ele>836.000000</ele>
				<time>2025-07-12T16:22:11Z</time>
			</trkpt>
			<trkpt lat="42.787768" lon="24.970296">
				<ele>836.000000</ele>
				<time>2025-07-12T16:22:13Z</time>
			</trkpt>
			<trkpt lat="42.787778" lon="24.970280">
				<ele>835.000000</ele>
				<time>2025-07-12T16:22:16Z</time>
			</trkpt>
			<trkpt lat="42.787777" lon="24.970293">
				<ele>835.000000</ele>
				<time>2025-07-12T16:22:18Z</time>
			</trkpt>
			<trkpt lat="42.787776" lon="24.970312">
				<ele>834.000000</ele>
				<time>2025-07-12T16:22:20Z</time>
			</trkpt>
			<trkpt lat="42.787779" lon="24.970324">
				<ele>834.000000</ele>
				<time>2025-07-12T16:22:21Z</time>
			</trkpt>
			<trkpt lat="42.787798" lon="24.970367">
				<ele>833.000000</ele>
				<time>2025-07-12T16:22:25Z</time>
			</trkpt>
			<trkpt lat="42.787809" lon="24.970384">
				<ele>833.000000</ele>
				<time>2025-07-12T16:22:27Z</time>
			</trkpt>
			<trkpt lat="42.787820" lon="24.970402">
				<ele>832.000000</ele>
				<time>2025-07-12T16:22:29Z</time>
			</trkpt>
			<trkpt lat="42.787856" lon="24.970410">
				<ele>831.000000</ele>
				<time>2025-07-12T16:22:35Z</time>
			</trkpt>
			<trkpt lat="42.787890" lon="24.970412">
				<ele>830.000000</ele>
				<time>2025-07-12T16:22:40Z</time>
			</trkpt>
			<trkpt lat="42.787900" lon="24.970441">
				<ele>829.000000</ele>
				<time>2025-07-12T16:22:42Z</time>
			</trkpt>
			<trkpt lat="42.787920" lon="24.970485">
				<ele>829.000000</ele>
				<time>2025-07-12T16:22:45Z</time>
			</trkpt>
			<trkpt lat="42.787933" lon="24.970504">
				<ele>828.000000</ele>
				<time>2025-07-12T16:22:49Z</time>
			</trkpt>
			<trkpt lat="42.787945" lon="24.970513">
				<ele>828.000000</ele>
				<time>2025-07-12T16:22:58Z</time>
			</trkpt>
			<trkpt lat="42.787946" lon="24.970513">
				<ele>828.000000</ele>
				<time>2025-07-12T16:22:59Z</time>
			</trkpt>
			<trkpt lat="42.787961" lon="24.970573">
				<ele>827.000000</ele>
				<time>2025-07-12T16:23:08Z</time>
			</trkpt>
			<trkpt lat="42.787970" lon="24.970581">
				<ele>827.000000</ele>
				<time>2025-07-12T16:23:16Z</time>
			</trkpt>
			<trkpt lat="42.787969" lon="24.970580">
				<ele>826.000000</ele>
				<time>2025-07-12T16:23:17Z</time>
			</trkpt>
			<trkpt lat="42.787956" lon="24.970615">
				<ele>826.000000</ele>
				<time>2025-07-12T16:23:24Z</time>
			</trkpt>
			<trkpt lat="42.787942" lon="24.970603">
				<ele>826.000000</ele>
				<time>2025-07-12T16:23:31Z</time>
			</trkpt>
			<trkpt lat="42.787936" lon="24.970603">
				<ele>826.000000</ele>
				<time>2025-07-12T16:23:33Z</time>
			</trkpt>
			<trkpt lat="42.787936" lon="24.970612">
				<ele>827.000000</ele>
				<time>2025-07-12T16:23:38Z</time>
			</trkpt>
			<trkpt lat="42.787945" lon="24.970615">
				<ele>826.000000</ele>
				<time>2025-07-12T16:23:41Z</time>
			</trkpt>
			<trkpt lat="42.787946" lon="24.970628">
				<ele>826.000000</ele>
				<time>2025-07-12T16:23:48Z</time>
			</trkpt>
			<trkpt lat="42.787954" lon="24.970640">
				<ele>825.000000</ele>
				<time>2025-07-12T16:23:51Z</time>
			</trkpt>
			<trkpt lat="42.787952" lon="24.970665">
				<ele>825.000000</ele>
				<time>2025-07-12T16:23:56Z</time>
			</trkpt>
			<trkpt lat="42.787955" lon="24.970677">
				<ele>824.000000</ele>
				<time>2025-07-12T16:23:58Z</time>
			</trkpt>
			<trkpt lat="42.787964" lon="24.970697">
				<ele>824.000000</ele>
				<time>2025-07-12T16:24:03Z</time>
			</trkpt>
			<trkpt lat="42.787977" lon="24.970744">
				<ele>823.000000</ele>
				<time>2025-07-12T16:24:09Z</time>
			</trkpt>
			<trkpt lat="42.787976" lon="24.970752">
				<ele>823.000000</ele>
				<time>2025-07-12T16:24:11Z</time>
			</trkpt>
			<trkpt lat="42.787978" lon="24.970779">
				<ele>822.000000</ele>
				<time>2025-07-12T16:24:16Z</time>
			</trkpt>
			<trkpt lat="42.787982" lon="24.970785">
				<ele>822.000000</ele>
				<time>2025-07-12T16:24:18Z</time>
			</trkpt>
			<trkpt lat="42.787984" lon="24.970793">
				<ele>821.000000</ele>
				<time>2025-07-12T16:24:20Z</time>
			</trkpt>
			<trkpt lat="42.787983" lon="24.970793">
				<ele>821.000000</ele>
				<time>2025-07-12T16:24:21Z</time>
			</trkpt>
			<trkpt lat="42.787979" lon="24.970824">
				<ele>821.000000</ele>
				<time>2025-07-12T16:24:26Z</time>
			</trkpt>
			<trkpt lat="42.787979" lon="24.970847">
				<ele>820.000000</ele>
				<time>2025-07-12T16:24:30Z</time>
			</trkpt>
			<trkpt lat="42.787974" lon="24.970890">
				<ele>819.000000</ele>
				<time>2025-07-12T16:24:35Z</time>
			</trkpt>
			<trkpt lat="42.787978" lon="24.970909">
				<ele>818.000000</ele>
				<time>2025-07-12T16:24:41Z</time>
			</trkpt>
			<trkpt lat="42.787986" lon="24.970960">
				<ele>816.000000</ele>
				<time>2025-07-12T16:24:45Z</time>
			</trkpt>
			<trkpt lat="42.787989" lon="24.970992">
				<ele>815.000000</ele>
				<time>2025-07-12T16:24:48Z</time>
			</trkpt>
			<trkpt lat="42.787990" lon="24.971007">
				<ele>815.000000</ele>
				<time>2025-07-12T16:24:49Z</time>
			</trkpt>
			<trkpt lat="42.787984" lon="24.971047">
				<ele>814.000000</ele>
				<time>2025-07-12T16:24:55Z</time>
			</trkpt>
			<trkpt lat="42.787983" lon="24.971067">
				<ele>814.000000</ele>
				<time>2025-07-12T16:24:57Z</time>
			</trkpt>
			<trkpt lat="42.787983" lon="24.971075">
				<ele>814.000000</ele>
				<time>2025-07-12T16:24:58Z</time>
			</trkpt>
			<trkpt lat="42.787970" lon="24.971114">
				<ele>813.000000</ele>
				<time>2025-07-12T16:25:02Z</time>
			</trkpt>
			<trkpt lat="42.787959" lon="24.971141">
				<ele>813.000000</ele>
				<time>2025-07-12T16:25:05Z</time>
			</trkpt>
			<trkpt lat="42.787958" lon="24.971180">
				<ele>813.000000</ele>
				<time>2025-07-12T16:25:09Z</time>
			</trkpt>
			<trkpt lat="42.787965" lon="24.971218">
				<ele>812.000000</ele>
				<time>2025-07-12T16:25:13Z</time>
			</trkpt>
			<trkpt lat="42.787965" lon="24.971240">
				<ele>811.000000</ele>
				<time>2025-07-12T16:25:16Z</time>
			</trkpt>
			<trkpt lat="42.787965" lon="24.971263">
				<ele>811.000000</ele>
				<time>2025-07-12T16:25:19Z</time>
			</trkpt>
			<trkpt lat="42.787959" lon="24.971306">
				<ele>810.000000</ele>
				<time>2025-07-12T16:25:24Z</time>
			</trkpt>
			<trkpt lat="42.787959" lon="24.971332">
				<ele>810.000000</ele>
				<time>2025-07-12T16:25:27Z</time>
			</trkpt>
			<trkpt lat="42.787951" lon="24.971381">
				<ele>809.000000</ele>
				<time>2025-07-12T16:25:31Z</time>
			</trkpt>
			<trkpt lat="42.787961" lon="24.971412">
				<ele>809.000000</ele>
				<time>2025-07-12T16:25:36Z</time>
			</trkpt>
			<trkpt lat="42.787963" lon="24.971420">
				<ele>808.000000</ele>
				<time>2025-07-12T16:25:37Z</time>
			</trkpt>
			<trkpt lat="42.787982" lon="24.971436">
				<ele>808.000000</ele>
				<time>2025-07-12T16:25:40Z</time>
			</trkpt>
			<trkpt lat="42.788009" lon="24.971440">
				<ele>807.000000</ele>
				<time>2025-07-12T16:25:44Z</time>
			</trkpt>
			<trkpt lat="42.788014" lon="24.971441">
				<ele>806.000000</ele>
				<time>2025-07-12T16:25:45Z</time>
			</trkpt>
			<trkpt lat="42.788034" lon="24.971440">
				<ele>805.000000</ele>
				<time>2025-07-12T16:25:50Z</time>
			</trkpt>
			<trkpt lat="42.788035" lon="24.971437">
				<ele>805.000000</ele>
				<time>2025-07-12T16:25:51Z</time>
			</trkpt>
			<trkpt lat="42.788068" lon="24.971430">
				<ele>804.000000</ele>
				<time>2025-07-12T16:25:56Z</time>
			</trkpt>
			<trkpt lat="42.788075" lon="24.971428">
				<ele>804.000000</ele>
				<time>2025-07-12T16:25:57Z</time>
			</trkpt>
			<trkpt lat="42.788106" lon="24.971433">
				<ele>803.000000</ele>
				<time>2025-07-12T16:26:02Z</time>
			</trkpt>
			<trkpt lat="42.788113" lon="24.971438">
				<ele>803.000000</ele>
				<time>2025-07-12T16:26:03Z</time>
			</trkpt>
			<trkpt lat="42.788136" lon="24.971440">
				<ele>802.000000</ele>
				<time>2025-07-12T16:26:06Z</time>
			</trkpt>
			<trkpt lat="42.788163" lon="24.971412">
				<ele>801.000000</ele>
				<time>2025-07-12T16:26:11Z</time>
			</trkpt>
			<trkpt lat="42.788171" lon="24.971408">
				<ele>801.000000</ele>
				<time>2025-07-12T16:26:12Z</time>
			</trkpt>
			<trkpt lat="42.788201" lon="24.971389">
				<ele>800.000000</ele>
				<time>2025-07-12T16:26:17Z</time>
			</trkpt>
			<trkpt lat="42.788213" lon="24.971390">
				<ele>799.000000</ele>
				<time>2025-07-12T16:26:20Z</time>
			</trkpt>
			<trkpt lat="42.788221" lon="24.971395">
				<ele>799.000000</ele>
				<time>2025-07-12T16:26:21Z</time>
			</trkpt>
			<trkpt lat="42.788259" lon="24.971452">
				<ele>798.000000</ele>
				<time>2025-07-12T16:26:26Z</time>
			</trkpt>
			<trkpt lat="42.788264" lon="24.971457">
				<ele>797.000000</ele>
				<time>2025-07-12T16:26:27Z</time>
			</trkpt>
			<trkpt lat="42.788269" lon="24.971509">
				<ele>796.000000</ele>
				<time>2025-07-12T16:26:31Z</time>
			</trkpt>
			<trkpt lat="42.788270" lon="24.971546">
				<ele>796.000000</ele>
				<time>2025-07-12T16:26:34Z</time>
			</trkpt>
			<trkpt lat="42.788272" lon="24.971593">
				<ele>795.000000</ele>
				<time>2025-07-12T16:26:37Z</time>
			</trkpt>
			<trkpt lat="42.788282" lon="24.971611">
				<ele>795.000000</ele>
				<time>2025-07-12T16:26:42Z</time>
			</trkpt>
			<trkpt lat="42.788291" lon="24.971645">
				<ele>794.000000</ele>
				<time>2025-07-12T16:26:47Z</time>
			</trkpt>
			<trkpt lat="42.788291" lon="24.971668">
				<ele>794.000000</ele>
				<time>2025-07-12T16:26:49Z</time>
			</trkpt>
			<trkpt lat="42.788292" lon="24.971684">
				<ele>793.000000</ele>
				<time>2025-07-12T16:26:51Z</time>
			</trkpt>
			<trkpt lat="42.788297" lon="24.971731">
				<ele>793.000000</ele>
				<time>2025-07-12T16:26:56Z</time>
			</trkpt>
			<trkpt lat="42.788289" lon="24.971767">
				<ele>792.000000</ele>
				<time>2025-07-12T16:26:59Z</time>
			</trkpt>
			<trkpt lat="42.788277" lon="24.971792">
				<ele>791.000000</ele>
				<time>2025-07-12T16:27:03Z</time>
			</trkpt>
			<trkpt lat="42.788271" lon="24.971818">
				<ele>791.000000</ele>
				<time>2025-07-12T16:27:06Z</time>
			</trkpt>
			<trkpt lat="42.788259" lon="24.971886">
				<ele>790.000000</ele>
				<time>2025-07-12T16:27:11Z</time>
			</trkpt>
			<trkpt lat="42.788262" lon="24.971898">
				<ele>790.000000</ele>
				<time>2025-07-12T16:27:12Z</time>
			</trkpt>
			<trkpt lat="42.788280" lon="24.971913">
				<ele>789.000000</ele>
				<time>2025-07-12T16:27:15Z</time>
			</trkpt>
			<trkpt lat="42.788289" lon="24.971920">
				<ele>789.000000</ele>
				<time>2025-07-12T16:27:16Z</time>
			</trkpt>
			<trkpt lat="42.788297" lon="24.971925">
				<ele>788.000000</ele>
				<time>2025-07-12T16:27:17Z</time>
			</trkpt>
			<trkpt lat="42.788317" lon="24.971933">
				<ele>787.000000</ele>
				<time>2025-07-12T16:27:20Z</time>
			</trkpt>
			<trkpt lat="42.788346" lon="24.971965">
				<ele>786.000000</ele>
				<time>2025-07-12T16:27:24Z</time>
			</trkpt>
			<trkpt lat="42.788373" lon="24.972006">
				<ele>786.000000</ele>
				<time>2025-07-12T16:27:28Z</time>
			</trkpt>
			<trkpt lat="42.788383" lon="24.972022">
				<ele>786.000000</ele>
				<time>2025-07-12T16:27:30Z</time>
			</trkpt>
			<trkpt lat="42.788391" lon="24.972041">
				<ele>786.000000</ele>
				<time>2025-07-12T16:27:31Z</time>
			</trkpt>
			<trkpt lat="42.788395" lon="24.972079">
				<ele>786.000000</ele>
				<time>2025-07-12T16:27:37Z</time>
			</trkpt>
			<trkpt lat="42.788374" lon="24.972069">
				<ele>786.000000</ele>
				<time>2025-07-12T16:27:47Z</time>
			</trkpt>
			<trkpt lat="42.788387" lon="24.972036">
				<ele>785.000000</ele>
				<time>2025-07-12T16:27:50Z</time>
			</trkpt>
			<trkpt lat="42.788400" lon="24.972049">
				<ele>785.000000</ele>
				<time>2025-07-12T16:27:53Z</time>
			</trkpt>
			<trkpt lat="42.788397" lon="24.972049">
				<ele>785.000000</ele>
				<time>2025-07-12T16:27:54Z</time>
			</trkpt>
			<trkpt lat="42.788409" lon="24.972083">
				<ele>785.000000</ele>
				<time>2025-07-12T16:28:00Z</time>
			</trkpt>
			<trkpt lat="42.788421" lon="24.972110">
				<ele>784.000000</ele>
				<time>2025-07-12T16:28:03Z</time>
			</trkpt>
			<trkpt lat="42.788431" lon="24.972150">
				<ele>783.000000</ele>
				<time>2025-07-12T16:28:09Z</time>
			</trkpt>
			<trkpt lat="42.788440" lon="24.972163">
				<ele>784.000000</ele>
				<time>2025-07-12T16:28:16Z</time>
			</trkpt>
			<trkpt lat="42.788444" lon="24.972150">
				<ele>784.000000</ele>
				<time>2025-07-12T16:28:20Z</time>
			</trkpt>
			<trkpt lat="42.788436" lon="24.972150">
				<ele>783.000000</ele>
				<time>2025-07-12T16:28:26Z</time>
			</trkpt>
			<trkpt lat="42.788420" lon="24.972167">
				<ele>783.000000</ele>
				<time>2025-07-12T16:28:33Z</time>
			</trkpt>
			<trkpt lat="42.788415" lon="24.972173">
				<ele>783.000000</ele>
				<time>2025-07-12T16:28:34Z</time>
			</trkpt>
			<trkpt lat="42.788401" lon="24.972160">
				<ele>783.000000</ele>
				<time>2025-07-12T16:28:42Z</time>
			</trkpt>
			<trkpt lat="42.788399" lon="24.972104">
				<ele>784.000000</ele>
				<time>2025-07-12T16:28:48Z</time>
			</trkpt>
			<trkpt lat="42.788417" lon="24.972122">
				<ele>784.000000</ele>
				<time>2025-07-12T16:28:55Z</time>
			</trkpt>
			<trkpt lat="42.788399" lon="24.972203">
				<ele>782.000000</ele>
				<time>2025-07-12T16:29:03Z</time>
			</trkpt>
			<trkpt lat="42.788391" lon="24.972209">
				<ele>782.000000</ele>
				<time>2025-07-12T16:29:04Z</time>
			</trkpt>
			<trkpt lat="42.788357" lon="24.972243">
				<ele>781.000000</ele>
				<time>2025-07-12T16:29:09Z</time>
			</trkpt>
			<trkpt lat="42.788352" lon="24.972247">
				<ele>781.000000</ele>
				<time>2025-07-12T16:29:10Z</time>
			</trkpt>
			<trkpt lat="42.788333" lon="24.972277">
				<ele>780.000000</ele>
				<time>2025-07-12T16:29:14Z</time>
			</trkpt>
			<trkpt lat="42.788313" lon="24.972309">
				<ele>779.000000</ele>
				<time>2025-07-12T16:29:18Z</time>
			</trkpt>
			<trkpt lat="42.788304" lon="24.972319">
				<ele>779.000000</ele>
				<time>2025-07-12T16:29:20Z</time>
			</trkpt>
			<trkpt lat="42.788295" lon="24.972330">
				<ele>779.000000</ele>
				<time>2025-07-12T16:29:21Z</time>
			</trkpt>
			<trkpt lat="42.788273" lon="24.972366">
				<ele>778.000000</ele>
				<time>2025-07-12T16:29:25Z</time>
			</trkpt>
			<trkpt lat="42.788253" lon="24.972444">
				<ele>777.000000</ele>
				<time>2025-07-12T16:29:31Z</time>
			</trkpt>
			<trkpt lat="42.788260" lon="24.972451">
				<ele>777.000000</ele>
				<time>2025-07-12T16:29:33Z</time>
			</trkpt>
			<trkpt lat="42.788282" lon="24.972455">
				<ele>776.000000</ele>
				<time>2025-07-12T16:29:37Z</time>
			</trkpt>
			<trkpt lat="42.788286" lon="24.972454">
				<ele>776.000000</ele>
				<time>2025-07-12T16:29:39Z</time>
			</trkpt>
			<trkpt lat="42.788289" lon="24.972446">
				<ele>775.000000</ele>
				<time>2025-07-12T16:29:42Z</time>
			</trkpt>
			<trkpt lat="42.788294" lon="24.972454">
				<ele>775.000000</ele>
				<time>2025-07-12T16:29:47Z</time>
			</trkpt>
			<trkpt lat="42.788316" lon="24.972455">
				<ele>774.000000</ele>
				<time>2025-07-12T16:29:50Z</time>
			</trkpt>
			<trkpt lat="42.788337" lon="24.972464">
				<ele>774.000000</ele>
				<time>2025-07-12T16:29:54Z</time>
			</trkpt>
			<trkpt lat="42.788370" lon="24.972470">
				<ele>773.000000</ele>
				<time>2025-07-12T16:30:00Z</time>
			</trkpt>
			<trkpt lat="42.788371" lon="24.972472">
				<ele>773.000000</ele>
				<time>2025-07-12T16:30:01Z</time>
			</trkpt>
			<trkpt lat="42.788366" lon="24.972496">
				<ele>773.000000</ele>
				<time>2025-07-12T16:30:06Z</time>
			</trkpt>
			<trkpt lat="42.788613" lon="24.972455">
				<ele>773.000000</ele>
				<time>2025-07-12T16:42:05Z</time>
			</trkpt>
			<trkpt lat="42.788614" lon="24.972456">
				<ele>773.000000</ele>
				<time>2025-07-12T16:42:06Z</time>
			</trkpt>
			<trkpt lat="42.788620" lon="24.972467">
				<ele>773.000000</ele>
				<time>2025-07-12T16:42:08Z</time>
			</trkpt>
			<trkpt lat="42.788660" lon="24.972472">
				<ele>773.000000</ele>
				<time>2025-07-12T16:42:16Z</time>
			</trkpt>
			<trkpt lat="42.788736" lon="24.972478">
				<ele>772.000000</ele>
				<time>2025-07-12T16:42:25Z</time>
			</trkpt>
			<trkpt lat="42.788742" lon="24.972479">
				<ele>772.000000</ele>
				<time>2025-07-12T16:42:26Z</time>
			</trkpt>
			<trkpt lat="42.788793" lon="24.972494">
				<ele>771.000000</ele>
				<time>2025-07-12T16:42:32Z</time>
			</trkpt>
			<trkpt lat="42.788812" lon="24.972503">
				<ele>771.000000</ele>
				<time>2025-07-12T16:42:34Z</time>
			</trkpt>
			<trkpt lat="42.788863" lon="24.972518">
				<ele>770.000000</ele>
				<time>2025-07-12T16:42:40Z</time>
			</trkpt>
			<trkpt lat="42.788879" lon="24.972529">
				<ele>770.000000</ele>
				<time>2025-07-12T16:42:42Z</time>
			</trkpt>
			<trkpt lat="42.788929" lon="24.972564">
				<ele>769.000000</ele>
				<time>2025-07-12T16:42:48Z</time>
			</trkpt>
			<trkpt lat="42.788946" lon="24.972568">
				<ele>769.000000</ele>
				<time>2025-07-12T16:42:50Z</time>
			</trkpt>
			<trkpt lat="42.788997" lon="24.972588">
				<ele>768.000000</ele>
				<time>2025-07-12T16:42:56Z</time>
			</trkpt>
			<trkpt lat="42.789035" lon="24.972596">
				<ele>768.000000</ele>
				<time>2025-07-12T16:43:00Z</time>
			</trkpt>
			<trkpt lat="42.789075" lon="24.972631">
				<ele>768.000000</ele>
				<time>2025-07-12T16:43:04Z</time>
			</trkpt>
			<trkpt lat="42.789079" lon="24.972637">
				<ele>768.000000</ele>
				<time>2025-07-12T16:43:07Z</time>
			</trkpt>
			<trkpt lat="42.789095" lon="24.972648">
				<ele>767.000000</ele>
				<time>2025-07-12T16:43:11Z</time>
			</trkpt>
			<trkpt lat="42.789118" lon="24.972653">
				<ele>767.000000</ele>
				<time>2025-07-12T16:43:13Z</time>
			</trkpt>
			<trkpt lat="42.789155" lon="24.972672">
				<ele>767.000000</ele>
				<time>2025-07-12T16:43:17Z</time>
			</trkpt>
			<trkpt lat="42.789209" lon="24.972660">
				<ele>766.000000</ele>
				<time>2025-07-12T16:43:24Z</time>
			</trkpt>
			<trkpt lat="42.789216" lon="24.972659">
				<ele>766.000000</ele>
				<time>2025-07-12T16:43:25Z</time>
			</trkpt>
			<trkpt lat="42.789216" lon="24.972648">
				<ele>766.000000</ele>
				<time>2025-07-12T16:43:31Z</time>
			</trkpt>
			<trkpt lat="42.789221" lon="24.972656">
				<ele>766.000000</ele>
				<time>2025-07-12T16:43:33Z</time>
			</trkpt>
			<trkpt lat="42.789250" lon="24.972648">
				<ele>765.000000</ele>
				<time>2025-07-12T16:43:39Z</time>
			</trkpt>
			<trkpt lat="42.789258" lon="24.972637">
				<ele>765.000000</ele>
				<time>2025-07-12T16:43:41Z</time>
			</trkpt>
			<trkpt lat="42.789304" lon="24.972629">
				<ele>764.000000</ele>
				<time>2025-07-12T16:43:46Z</time>
			</trkpt>
			<trkpt lat="42.789313" lon="24.972625">
				<ele>764.000000</ele>
				<time>2025-07-12T16:43:47Z</time>
			</trkpt>
			<trkpt lat="42.789372" lon="24.972627">
				<ele>763.000000</ele>
				<time>2025-07-12T16:43:55Z</time>
			</trkpt>
			<trkpt lat="42.789443" lon="24.972613">
				<ele>762.000000</ele>
				<time>2025-07-12T16:44:02Z</time>
			</trkpt>
			<trkpt lat="42.789474" lon="24.972635">
				<ele>762.000000</ele>
				<time>2025-07-12T16:44:05Z</time>
			</trkpt>
			<trkpt lat="42.789488" lon="24.972649">
				<ele>762.000000</ele>
				<time>2025-07-12T16:44:07Z</time>
			</trkpt>
			<trkpt lat="42.789563" lon="24.972720">
				<ele>761.000000</ele>
				<time>2025-07-12T16:44:14Z</time>
			</trkpt>
			<trkpt lat="42.789582" lon="24.972742">
				<ele>760.000000</ele>
				<time>2025-07-12T16:44:21Z</time>
			</trkpt>
			<trkpt lat="42.789575" lon="24.972743">
				<ele>761.000000</ele>
				<time>2025-07-12T16:44:22Z</time>
			</trkpt>
			<trkpt lat="42.789581" lon="24.972757">
				<ele>760.000000</ele>
				<time>2025-07-12T16:44:24Z</time>
			</trkpt>
			<trkpt lat="42.789605" lon="24.972783">
				<ele>760.000000</ele>
				<time>2025-07-12T16:44:27Z</time>
			</trkpt>
			<trkpt lat="42.789629" lon="24.972848">
				<ele>760.000000</ele>
				<time>2025-07-12T16:44:32Z</time>
			</trkpt>
			<trkpt lat="42.789633" lon="24.972871">
				<ele>760.000000</ele>
				<time>2025-07-12T16:44:34Z</time>
			</trkpt>
			<trkpt lat="42.789633" lon="24.972910">
				<ele>760.000000</ele>
				<time>2025-07-12T16:44:37Z</time>
			</trkpt>
			<trkpt lat="42.789645" lon="24.972947">
				<ele>759.000000</ele>
				<time>2025-07-12T16:44:41Z</time>
			</trkpt>
			<trkpt lat="42.789664" lon="24.972974">
				<ele>759.000000</ele>
				<time>2025-07-12T16:44:44Z</time>
			</trkpt>
			<trkpt lat="42.789677" lon="24.973005">
				<ele>759.000000</ele>
				<time>2025-07-12T16:44:47Z</time>
			</trkpt>
			<trkpt lat="42.789681" lon="24.973009">
				<ele>759.000000</ele>
				<time>2025-07-12T16:44:48Z</time>
			</trkpt>
			<trkpt lat="42.789705" lon="24.973087">
				<ele>758.000000</ele>
				<time>2025-07-12T16:44:55Z</time>
			</trkpt>
			<trkpt lat="42.789708" lon="24.973099">
				<ele>758.000000</ele>
				<time>2025-07-12T16:44:56Z</time>
			</trkpt>
			<trkpt lat="42.789752" lon="24.973168">
				<ele>757.000000</ele>
				<time>2025-07-12T16:45:04Z</time>
			</trkpt>
			<trkpt lat="42.789783" lon="24.973205">
				<ele>757.000000</ele>
				<time>2025-07-12T16:45:10Z</time>
			</trkpt>
			<trkpt lat="42.789800" lon="24.973217">
				<ele>756.000000</ele>
				<time>2025-07-12T16:45:12Z</time>
			</trkpt>
			<trkpt lat="42.789866" lon="24.973237">
				<ele>756.000000</ele>
				<time>2025-07-12T16:45:19Z</time>
			</trkpt>
			<trkpt lat="42.789907" lon="24.973217">
				<ele>755.000000</ele>
				<time>2025-07-12T16:45:24Z</time>
			</trkpt>
			<trkpt lat="42.789927" lon="24.973209">
				<ele>755.000000</ele>
				<time>2025-07-12T16:45:28Z</time>
			</trkpt>
			<trkpt lat="42.789981" lon="24.973194">
				<ele>754.000000</ele>
				<time>2025-07-12T16:45:34Z</time>
			</trkpt>
			<trkpt lat="42.789994" lon="24.973193">
				<ele>754.000000</ele>
				<time>2025-07-12T16:45:35Z</time>
			</trkpt>
			<trkpt lat="42.790057" lon="24.973167">
				<ele>754.000000</ele>
				<time>2025-07-12T16:45:42Z</time>
			</trkpt>
			<trkpt lat="42.790083" lon="24.973152">
				<ele>753.000000</ele>
				<time>2025-07-12T16:45:45Z</time>
			</trkpt>
			<trkpt lat="42.790109" lon="24.973138">
				<ele>753.000000</ele>
				<time>2025-07-12T16:45:47Z</time>
			</trkpt>
			<trkpt lat="42.790131" lon="24.973125">
				<ele>752.000000</ele>
				<time>2025-07-12T16:45:49Z</time>
			</trkpt>
			<trkpt lat="42.790158" lon="24.973105">
				<ele>752.000000</ele>
				<time>2025-07-12T16:45:51Z</time>
			</trkpt>
			<trkpt lat="42.790200" lon="24.973087">
				<ele>752.000000</ele>
				<time>2025-07-12T16:45:56Z</time>
			</trkpt>
			<trkpt lat="42.790240" lon="24.973081">
				<ele>751.000000</ele>
				<time>2025-07-12T16:46:01Z</time>
			</trkpt>
			<trkpt lat="42.790246" lon="24.973083">
				<ele>751.000000</ele>
				<time>2025-07-12T16:46:02Z</time>
			</trkpt>
			<trkpt lat="42.790313" lon="24.973093">
				<ele>751.000000</ele>
				<time>2025-07-12T16:46:10Z</time>
			</trkpt>
			<trkpt lat="42.790387" lon="24.973107">
				<ele>750.000000</ele>
				<time>2025-07-12T16:46:17Z</time>
			</trkpt>
			<trkpt lat="42.790448" lon="24.973113">
				<ele>749.000000</ele>
				<time>2025-07-12T16:46:25Z</time>
			</trkpt>
			<trkpt lat="42.790470" lon="24.973112">
				<ele>749.000000</ele>
				<time>2025-07-12T16:46:27Z</time>
			</trkpt>
			<trkpt lat="42.790515" lon="24.973142">
				<ele>749.000000</ele>
				<time>2025-07-12T16:46:32Z</time>
			</trkpt>
			<trkpt lat="42.790607" lon="24.973171">
				<ele>749.000000</ele>
				<time>2025-07-12T16:46:41Z</time>
			</trkpt>
			<trkpt lat="42.790691" lon="24.973175">
				<ele>748.000000</ele>
				<time>2025-07-12T16:46:51Z</time>
			</trkpt>
			<trkpt lat="42.790768" lon="24.973201">
				<ele>749.000000</ele>
				<time>2025-07-12T16:47:00Z</time>
			</trkpt>
			<trkpt lat="42.790836" lon="24.973247">
				<ele>748.000000</ele>
				<time>2025-07-12T16:47:07Z</time>
			</trkpt>
			<trkpt lat="42.790891" lon="24.973282">
				<ele>748.000000</ele>
				<time>2025-07-12T16:47:13Z</time>
			</trkpt>
			<trkpt lat="42.790903" lon="24.973289">
				<ele>748.000000</ele>
				<time>2025-07-12T16:47:14Z</time>
			</trkpt>
			<trkpt lat="42.790974" lon="24.973357">
				<ele>747.000000</ele>
				<time>2025-07-12T16:47:22Z</time>
			</trkpt>
			<trkpt lat="42.791023" lon="24.973382">
				<ele>747.000000</ele>
				<time>2025-07-12T16:47:28Z</time>
			</trkpt>
			<trkpt lat="42.791040" lon="24.973394">
				<ele>747.000000</ele>
				<time>2025-07-12T16:47:30Z</time>
			</trkpt>
			<trkpt lat="42.791075" lon="24.973441">
				<ele>746.000000</ele>
				<time>2025-07-12T16:47:36Z</time>
			</trkpt>
			<trkpt lat="42.791082" lon="24.973451">
				<ele>746.000000</ele>
				<time>2025-07-12T16:47:37Z</time>
			</trkpt>
			<trkpt lat="42.791142" lon="24.973510">
				<ele>746.000000</ele>
				<time>2025-07-12T16:47:45Z</time>
			</trkpt>
			<trkpt lat="42.791142" lon="24.973506">
				<ele>746.000000</ele>
				<time>2025-07-12T16:47:46Z</time>
			</trkpt>
			<trkpt lat="42.791170" lon="24.973502">
				<ele>746.000000</ele>
				<time>2025-07-12T16:47:51Z</time>
			</trkpt>
			<trkpt lat="42.791233" lon="24.973496">
				<ele>745.000000</ele>
				<time>2025-07-12T16:47:58Z</time>
			</trkpt>
			<trkpt lat="42.791272" lon="24.973490">
				<ele>745.000000</ele>
				<time>2025-07-12T16:48:02Z</time>
			</trkpt>
			<trkpt lat="42.791290" lon="24.973492">
				<ele>745.000000</ele>
				<time>2025-07-12T16:48:05Z</time>
			</trkpt>
			<trkpt lat="42.791365" lon="24.973480">
				<ele>744.000000</ele>
				<time>2025-07-12T16:48:12Z</time>
			</trkpt>
			<trkpt lat="42.791398" lon="24.973451">
				<ele>744.000000</ele>
				<time>2025-07-12T16:48:18Z</time>
			</trkpt>
			<trkpt lat="42.791430" lon="24.973443">
				<ele>744.000000</ele>
				<time>2025-07-12T16:48:21Z</time>
			</trkpt>
			<trkpt lat="42.791458" lon="24.973438">
				<ele>744.000000</ele>
				<time>2025-07-12T16:48:24Z</time>
			</trkpt>
			<trkpt lat="42.791497" lon="24.973427">
				<ele>743.000000</ele>
				<time>2025-07-12T16:48:31Z</time>
			</trkpt>
			<trkpt lat="42.791579" lon="24.973412">
				<ele>743.000000</ele>
				<time>2025-07-12T16:48:38Z</time>
			</trkpt>
			<trkpt lat="42.791651" lon="24.973398">
				<ele>742.000000</ele>
				<time>2025-07-12T16:48:46Z</time>
			</trkpt>
			<trkpt lat="42.791696" lon="24.973390">
				<ele>742.000000</ele>
				<time>2025-07-12T16:48:50Z</time>
			</trkpt>
			<trkpt lat="42.791760" lon="24.973387">
				<ele>741.000000</ele>
				<time>2025-07-12T16:48:54Z</time>
			</trkpt>
			<trkpt lat="42.791818" lon="24.973390">
				<ele>741.000000</ele>
				<time>2025-07-12T16:49:01Z</time>
			</trkpt>
			<trkpt lat="42.791889" lon="24.973378">
				<ele>740.000000</ele>
				<time>2025-07-12T16:49:09Z</time>
			</trkpt>
			<trkpt lat="42.791900" lon="24.973378">
				<ele>740.000000</ele>
				<time>2025-07-12T16:49:10Z</time>
			</trkpt>
			<trkpt lat="42.791921" lon="24.973363">
				<ele>739.000000</ele>
				<time>2025-07-12T16:49:16Z</time>
			</trkpt>
			<trkpt lat="42.791928" lon="24.973357">
				<ele>739.000000</ele>
				<time>2025-07-12T16:49:17Z</time>
			</trkpt>
			<trkpt lat="42.791980" lon="24.973333">
				<ele>739.000000</ele>
				<time>2025-07-12T16:49:25Z</time>
			</trkpt>
			<trkpt lat="42.791987" lon="24.973328">
				<ele>739.000000</ele>
				<time>2025-07-12T16:49:26Z</time>
			</trkpt>
			<trkpt lat="42.792026" lon="24.973302">
				<ele>738.000000</ele>
				<time>2025-07-12T16:49:32Z</time>
			</trkpt>
			<trkpt lat="42.792035" lon="24.973294">
				<ele>738.000000</ele>
				<time>2025-07-12T16:49:33Z</time>
			</trkpt>
			<trkpt lat="42.792089" lon="24.973276">
				<ele>738.000000</ele>
				<time>2025-07-12T16:49:41Z</time>
			</trkpt>
			<trkpt lat="42.792147" lon="24.973229">
				<ele>737.000000</ele>
				<time>2025-07-12T16:49:49Z</time>
			</trkpt>
			<trkpt lat="42.792200" lon="24.973179">
				<ele>737.000000</ele>
				<time>2025-07-12T16:49:56Z</time>
			</trkpt>
			<trkpt lat="42.792241" lon="24.973084">
				<ele>737.000000</ele>
				<time>2025-07-12T16:50:05Z</time>
			</trkpt>
			<trkpt lat="42.792281" lon="24.972990">
				<ele>737.000000</ele>
				<time>2025-07-12T16:50:13Z</time>
			</trkpt>
			<trkpt lat="42.792331" lon="24.972944">
				<ele>737.000000</ele>
				<time>2025-07-12T16:50:20Z</time>
			</trkpt>
			<trkpt lat="42.792406" lon="24.972906">
				<ele>737.000000</ele>
				<time>2025-07-12T16:50:29Z</time>
			</trkpt>
			<trkpt lat="42.792450" lon="24.972865">
				<ele>737.000000</ele>
				<time>2025-07-12T16:50:36Z</time>
			</trkpt>
			<trkpt lat="42.792460" lon="24.972860">
				<ele>737.000000</ele>
				<time>2025-07-12T16:50:37Z</time>
			</trkpt>
			<trkpt lat="42.792538" lon="24.972828">
				<ele>736.000000</ele>
				<time>2025-07-12T16:50:46Z</time>
			</trkpt>
			<trkpt lat="42.792591" lon="24.972798">
				<ele>735.000000</ele>
				<time>2025-07-12T16:50:52Z</time>
			</trkpt>
			<trkpt lat="42.792635" lon="24.972775">
				<ele>735.000000</ele>
				<time>2025-07-12T16:51:00Z</time>
			</trkpt>
			<trkpt lat="42.792675" lon="24.972749">
				<ele>735.000000</ele>
				<time>2025-07-12T16:51:05Z</time>
			</trkpt>
			<trkpt lat="42.792688" lon="24.972738">
				<ele>735.000000</ele>
				<time>2025-07-12T16:51:07Z</time>
			</trkpt>
			<trkpt lat="42.792752" lon="24.972712">
				<ele>734.000000</ele>
				<time>2025-07-12T16:51:13Z</time>
			</trkpt>
			<trkpt lat="42.792761" lon="24.972708">
				<ele>734.000000</ele>
				<time>2025-07-12T16:51:14Z</time>
			</trkpt>
			<trkpt lat="42.792798" lon="24.972700">
				<ele>734.000000</ele>
				<time>2025-07-12T16:51:18Z</time>
			</trkpt>
			<trkpt lat="42.792827" lon="24.972698">
				<ele>734.000000</ele>
				<time>2025-07-12T16:51:22Z</time>
			</trkpt>
			<trkpt lat="42.792855" lon="24.972678">
				<ele>733.000000</ele>
				<time>2025-07-12T16:51:25Z</time>
			</trkpt>
			<trkpt lat="42.792866" lon="24.972665">
				<ele>733.000000</ele>
				<time>2025-07-12T16:51:28Z</time>
			</trkpt>
			<trkpt lat="42.792922" lon="24.972627">
				<ele>732.000000</ele>
				<time>2025-07-12T16:51:36Z</time>
			</trkpt>
			<trkpt lat="42.792939" lon="24.972620">
				<ele>732.000000</ele>
				<time>2025-07-12T16:51:38Z</time>
			</trkpt>
			<trkpt lat="42.792994" lon="24.972580">
				<ele>732.000000</ele>
				<time>2025-07-12T16:51:45Z</time>
			</trkpt>
			<trkpt lat="42.793026" lon="24.972560">
				<ele>732.000000</ele>
				<time>2025-07-12T16:51:48Z</time>
			</trkpt>
			<trkpt lat="42.793067" lon="24.972535">
				<ele>732.000000</ele>
				<time>2025-07-12T16:51:53Z</time>
			</trkpt>
			<trkpt lat="42.793147" lon="24.972472">
				<ele>732.000000</ele>
				<time>2025-07-12T16:52:02Z</time>
			</trkpt>
			<trkpt lat="42.793203" lon="24.972404">
				<ele>731.000000</ele>
				<time>2025-07-12T16:52:12Z</time>
			</trkpt>
			<trkpt lat="42.793264" lon="24.972360">
				<ele>731.000000</ele>
				<time>2025-07-12T16:52:19Z</time>
			</trkpt>
			<trkpt lat="42.793273" lon="24.972358">
				<ele>731.000000</ele>
				<time>2025-07-12T16:52:20Z</time>
			</trkpt>
			<trkpt lat="42.793370" lon="24.972336">
				<ele>731.000000</ele>
				<time>2025-07-12T16:52:30Z</time>
			</trkpt>
			<trkpt lat="42.793375" lon="24.972332">
				<ele>731.000000</ele>
				<time>2025-07-12T16:52:31Z</time>
			</trkpt>
			<trkpt lat="42.793420" lon="24.972315">
				<ele>730.000000</ele>
				<time>2025-07-12T16:52:38Z</time>
			</trkpt>
			<trkpt lat="42.793442" lon="24.972309">
				<ele>730.000000</ele>
				<time>2025-07-12T16:52:41Z</time>
			</trkpt>
			<trkpt lat="42.793509" lon="24.972311">
				<ele>729.000000</ele>
				<time>2025-07-12T16:52:47Z</time>
			</trkpt>
			<trkpt lat="42.793524" lon="24.972310">
				<ele>729.000000</ele>
				<time>2025-07-12T16:52:49Z</time>
			</trkpt>
			<trkpt lat="42.793573" lon="24.972303">
				<ele>729.000000</ele>
				<time>2025-07-12T16:52:54Z</time>
			</trkpt>
			<trkpt lat="42.793641" lon="24.972297">
				<ele>728.000000</ele>
				<time>2025-07-12T16:53:03Z</time>
			</trkpt>
			<trkpt lat="42.793655" lon="24.972291">
				<ele>728.000000</ele>
				<time>2025-07-12T16:53:04Z</time>
			</trkpt>
			<trkpt lat="42.793704" lon="24.972264">
				<ele>728.000000</ele>
				<time>2025-07-12T16:53:09Z</time>
			</trkpt>
			<trkpt lat="42.793722" lon="24.972264">
				<ele>728.000000</ele>
				<time>2025-07-12T16:53:13Z</time>
			</trkpt>
			<trkpt lat="42.793738" lon="24.972267">
				<ele>728.000000</ele>
				<time>2025-07-12T16:53:15Z</time>
			</trkpt>
			<trkpt lat="42.793795" lon="24.972250">
				<ele>727.000000</ele>
				<time>2025-07-12T16:53:21Z</time>
			</trkpt>
			<trkpt lat="42.793804" lon="24.972242">
				<ele>727.000000</ele>
				<time>2025-07-12T16:53:22Z</time>
			</trkpt>
			<trkpt lat="42.793822" lon="24.972224">
				<ele>727.000000</ele>
				<time>2025-07-12T16:53:25Z</time>
			</trkpt>
			<trkpt lat="42.793854" lon="24.972205">
				<ele>727.000000</ele>
				<time>2025-07-12T16:53:29Z</time>
			</trkpt>
			<trkpt lat="42.793922" lon="24.972167">
				<ele>726.000000</ele>
				<time>2025-07-12T16:53:37Z</time>
			</trkpt>
			<trkpt lat="42.793995" lon="24.972109">
				<ele>726.000000</ele>
				<time>2025-07-12T16:53:46Z</time>
			</trkpt>
			<trkpt lat="42.794026" lon="24.972073">
				<ele>726.000000</ele>
				<time>2025-07-12T16:53:50Z</time>
			</trkpt>
			<trkpt lat="42.794063" lon="24.972018">
				<ele>725.000000</ele>
				<time>2025-07-12T16:53:56Z</time>
			</trkpt>
			<trkpt lat="42.794091" lon="24.971990">
				<ele>725.000000</ele>
				<time>2025-07-12T16:54:01Z</time>
			</trkpt>
			<trkpt lat="42.794110" lon="24.971980">
				<ele>724.000000</ele>
				<time>2025-07-12T16:54:03Z</time>
			</trkpt>
			<trkpt lat="42.794164" lon="24.971957">
				<ele>724.000000</ele>
				<time>2025-07-12T16:54:10Z</time>
			</trkpt>
			<trkpt lat="42.794169" lon="24.971955">
				<ele>724.000000</ele>
				<time>2025-07-12T16:54:11Z</time>
			</trkpt>
			<trkpt lat="42.794204" lon="24.971931">
				<ele>724.000000</ele>
				<time>2025-07-12T16:54:16Z</time>
			</trkpt>
			<trkpt lat="42.794211" lon="24.971931">
				<ele>724.000000</ele>
				<time>2025-07-12T16:54:17Z</time>
			</trkpt>
			<trkpt lat="42.794277" lon="24.971908">
				<ele>723.000000</ele>
				<time>2025-07-12T16:54:25Z</time>
			</trkpt>
			<trkpt lat="42.794284" lon="24.971906">
				<ele>723.000000</ele>
				<time>2025-07-12T16:54:26Z</time>
			</trkpt>
			<trkpt lat="42.794343" lon="24.971881">
				<ele>722.000000</ele>
				<time>2025-07-12T16:54:33Z</time>
			</trkpt>
			<trkpt lat="42.794397" lon="24.971841">
				<ele>722.000000</ele>
				<time>2025-07-12T16:54:41Z</time>
			</trkpt>
			<trkpt lat="42.794475" lon="24.971806">
				<ele>722.000000</ele>
				<time>2025-07-12T16:54:49Z</time>
			</trkpt>
			<trkpt lat="42.794535" lon="24.971808">
				<ele>721.000000</ele>
				<time>2025-07-12T16:54:57Z</time>
			</trkpt>
			<trkpt lat="42.794573" lon="24.971807">
				<ele>721.000000</ele>
				<time>2025-07-12T16:55:01Z</time>
			</trkpt>
			<trkpt lat="42.794618" lon="24.971804">
				<ele>721.000000</ele>
				<time>2025-07-12T16:55:05Z</time>
			</trkpt>
			<trkpt lat="42.794689" lon="24.971808">
				<ele>720.000000</ele>
				<time>2025-07-12T16:55:12Z</time>
			</trkpt>
			<trkpt lat="42.794780" lon="24.971818">
				<ele>720.000000</ele>
				<time>2025-07-12T16:55:22Z</time>
			</trkpt>
			<trkpt lat="42.794845" lon="24.971815">
				<ele>720.000000</ele>
				<time>2025-07-12T16:55:30Z</time>
			</trkpt>
			<trkpt lat="42.794854" lon="24.971821">
				<ele>720.000000</ele>
				<time>2025-07-12T16:55:31Z</time>
			</trkpt>
			<trkpt lat="42.794924" lon="24.971818">
				<ele>720.000000</ele>
				<time>2025-07-12T16:55:37Z</time>
			</trkpt>
			<trkpt lat="42.794946" lon="24.971811">
				<ele>720.000000</ele>
				<time>2025-07-12T16:55:40Z</time>
			</trkpt>
			<trkpt lat="42.794980" lon="24.971808">
				<ele>720.000000</ele>
				<time>2025-07-12T16:55:44Z</time>
			</trkpt>
			<trkpt lat="42.795073" lon="24.971776">
				<ele>719.000000</ele>
				<time>2025-07-12T16:55:53Z</time>
			</trkpt>
			<trkpt lat="42.795125" lon="24.971758">
				<ele>719.000000</ele>
				<time>2025-07-12T16:55:59Z</time>
			</trkpt>
			<trkpt lat="42.795168" lon="24.971752">
				<ele>719.000000</ele>
				<time>2025-07-12T16:56:04Z</time>
			</trkpt>
			<trkpt lat="42.795214" lon="24.971747">
				<ele>718.000000</ele>
				<time>2025-07-12T16:56:09Z</time>
			</trkpt>
			<trkpt lat="42.795281" lon="24.971727">
				<ele>718.000000</ele>
				<time>2025-07-12T16:56:17Z</time>
			</trkpt>
			<trkpt lat="42.795291" lon="24.971727">
				<ele>718.000000</ele>
				<time>2025-07-12T16:56:18Z</time>
			</trkpt>
			<trkpt lat="42.795364" lon="24.971715">
				<ele>717.000000</ele>
				<time>2025-07-12T16:56:26Z</time>
			</trkpt>
			<trkpt lat="42.795408" lon="24.971707">
				<ele>717.000000</ele>
				<time>2025-07-12T16:56:30Z</time>
			</trkpt>
			<trkpt lat="42.795467" lon="24.971715">
				<ele>716.000000</ele>
				<time>2025-07-12T16:56:36Z</time>
			</trkpt>
			<trkpt lat="42.795526" lon="24.971731">
				<ele>716.000000</ele>
				<time>2025-07-12T16:56:43Z</time>
			</trkpt>
			<trkpt lat="42.795612" lon="24.971732">
				<ele>716.000000</ele>
				<time>2025-07-12T16:56:53Z</time>
			</trkpt>
			<trkpt lat="42.795694" lon="24.971715">
				<ele>715.000000</ele>
				<time>2025-07-12T16:57:02Z</time>
			</trkpt>
			<trkpt lat="42.795762" lon="24.971719">
				<ele>715.000000</ele>
				<time>2025-07-12T16:57:09Z</time>
			</trkpt>
			<trkpt lat="42.795771" lon="24.971717">
				<ele>715.000000</ele>
				<time>2025-07-12T16:57:10Z</time>
			</trkpt>
			<trkpt lat="42.795852" lon="24.971700">
				<ele>714.000000</ele>
				<time>2025-07-12T16:57:17Z</time>
			</trkpt>
			<trkpt lat="42.795912" lon="24.971689">
				<ele>714.000000</ele>
				<time>2025-07-12T16:57:22Z</time>
			</trkpt>
			<trkpt lat="42.795935" lon="24.971682">
				<ele>713.000000</ele>
				<time>2025-07-12T16:57:24Z</time>
			</trkpt>
			<trkpt lat="42.795955" lon="24.971678">
				<ele>713.000000</ele>
				<time>2025-07-12T16:57:26Z</time>
			</trkpt>
			<trkpt lat="42.796029" lon="24.971660">
				<ele>713.000000</ele>
				<time>2025-07-12T16:57:31Z</time>
			</trkpt>
			<trkpt lat="42.796043" lon="24.971656">
				<ele>712.000000</ele>
				<time>2025-07-12T16:57:32Z</time>
			</trkpt>
			<trkpt lat="42.796106" lon="24.971646">
				<ele>712.000000</ele>
				<time>2025-07-12T16:57:38Z</time>
			</trkpt>
			<trkpt lat="42.796181" lon="24.971642">
				<ele>711.000000</ele>
				<time>2025-07-12T16:57:44Z</time>
			</trkpt>
			<trkpt lat="42.796190" lon="24.971644">
				<ele>711.000000</ele>
				<time>2025-07-12T16:57:45Z</time>
			</trkpt>
			<trkpt lat="42.796239" lon="24.971623">
				<ele>711.000000</ele>
				<time>2025-07-12T16:57:52Z</time>
			</trkpt>
			<trkpt lat="42.796248" lon="24.971622">
				<ele>711.000000</ele>
				<time>2025-07-12T16:57:53Z</time>
			</trkpt>
			<trkpt lat="42.796288" lon="24.971621">
				<ele>711.000000</ele>
				<time>2025-07-12T16:57:57Z</time>
			</trkpt>
			<trkpt lat="42.796322" lon="24.971622">
				<ele>711.000000</ele>
				<time>2025-07-12T16:58:00Z</time>
			</trkpt>
			<trkpt lat="42.796365" lon="24.971615">
				<ele>710.000000</ele>
				<time>2025-07-12T16:58:04Z</time>
			</trkpt>
			<trkpt lat="42.796413" lon="24.971609">
				<ele>710.000000</ele>
				<time>2025-07-12T16:58:08Z</time>
			</trkpt>
			<trkpt lat="42.796462" lon="24.971607">
				<ele>710.000000</ele>
				<time>2025-07-12T16:58:14Z</time>
			</trkpt>
			<trkpt lat="42.796552" lon="24.971601">
				<ele>710.000000</ele>
				<time>2025-07-12T16:58:23Z</time>
			</trkpt>
			<trkpt lat="42.796603" lon="24.971587">
				<ele>709.000000</ele>
				<time>2025-07-12T16:58:30Z</time>
			</trkpt>
			<trkpt lat="42.796617" lon="24.971587">
				<ele>709.000000</ele>
				<time>2025-07-12T16:58:31Z</time>
			</trkpt>
			<trkpt lat="42.796663" lon="24.971572">
				<ele>709.000000</ele>
				<time>2025-07-12T16:58:37Z</time>
			</trkpt>
			<trkpt lat="42.796744" lon="24.971538">
				<ele>709.000000</ele>
				<time>2025-07-12T16:58:45Z</time>
			</trkpt>
			<trkpt lat="42.796816" lon="24.971513">
				<ele>708.000000</ele>
				<time>2025-07-12T16:58:53Z</time>
			</trkpt>
			<trkpt lat="42.796826" lon="24.971513">
				<ele>708.000000</ele>
				<time>2025-07-12T16:58:54Z</time>
			</trkpt>
			<trkpt lat="42.796902" lon="24.971511">
				<ele>708.000000</ele>
				<time>2025-07-12T16:59:01Z</time>
			</trkpt>
			<trkpt lat="42.796995" lon="24.971493">
				<ele>707.000000</ele>
				<time>2025-07-12T16:59:09Z</time>
			</trkpt>
			<trkpt lat="42.797006" lon="24.971491">
				<ele>707.000000</ele>
				<time>2025-07-12T16:59:10Z</time>
			</trkpt>
			<trkpt lat="42.797058" lon="24.971479">
				<ele>707.000000</ele>
				<time>2025-07-12T16:59:16Z</time>
			</trkpt>
			<trkpt lat="42.797123" lon="24.971475">
				<ele>706.000000</ele>
				<time>2025-07-12T16:59:24Z</time>
			</trkpt>
			<trkpt lat="42.797132" lon="24.971483">
				<ele>706.000000</ele>
				<time>2025-07-12T16:59:25Z</time>
			</trkpt>
			<trkpt lat="42.797185" lon="24.971487">
				<ele>706.000000</ele>
				<time>2025-07-12T16:59:30Z</time>
			</trkpt>
			<trkpt lat="42.797253" lon="24.971524">
				<ele>705.000000</ele>
				<time>2025-07-12T16:59:38Z</time>
			</trkpt>
			<trkpt lat="42.797264" lon="24.971526">
				<ele>705.000000</ele>
				<time>2025-07-12T16:59:39Z</time>
			</trkpt>
			<trkpt lat="42.797347" lon="24.971564">
				<ele>705.000000</ele>
				<time>2025-07-12T16:59:48Z</time>
			</trkpt>
			<trkpt lat="42.797375" lon="24.971571">
				<ele>704.000000</ele>
				<time>2025-07-12T16:59:51Z</time>
			</trkpt>
			<trkpt lat="42.797420" lon="24.971576">
				<ele>704.000000</ele>
				<time>2025-07-12T16:59:56Z</time>
			</trkpt>
			<trkpt lat="42.797513" lon="24.971641">
				<ele>703.000000</ele>
				<time>2025-07-12T17:00:05Z</time>
			</trkpt>
			<trkpt lat="42.797532" lon="24.971656">
				<ele>703.000000</ele>
				<time>2025-07-12T17:00:07Z</time>
			</trkpt>
			<trkpt lat="42.797572" lon="24.971690">
				<ele>703.000000</ele>
				<time>2025-07-12T17:00:12Z</time>
			</trkpt>
			<trkpt lat="42.797621" lon="24.971717">
				<ele>702.000000</ele>
				<time>2025-07-12T17:00:17Z</time>
			</trkpt>
			<trkpt lat="42.797689" lon="24.971758">
				<ele>701.000000</ele>
				<time>2025-07-12T17:00:25Z</time>
			</trkpt>
			<trkpt lat="42.797724" lon="24.971779">
				<ele>701.000000</ele>
				<time>2025-07-12T17:00:31Z</time>
			</trkpt>
			<trkpt lat="42.797756" lon="24.971796">
				<ele>701.000000</ele>
				<time>2025-07-12T17:00:34Z</time>
			</trkpt>
			<trkpt lat="42.797795" lon="24.971826">
				<ele>701.000000</ele>
				<time>2025-07-12T17:00:38Z</time>
			</trkpt>
			<trkpt lat="42.797847" lon="24.971872">
				<ele>700.000000</ele>
				<time>2025-07-12T17:00:45Z</time>
			</trkpt>
			<trkpt lat="42.797889" lon="24.971893">
				<ele>700.000000</ele>
				<time>2025-07-12T17:00:49Z</time>
			</trkpt>
			<trkpt lat="42.797926" lon="24.971916">
				<ele>700.000000</ele>
				<time>2025-07-12T17:00:53Z</time>
			</trkpt>
			<trkpt lat="42.797983" lon="24.971990">
				<ele>699.000000</ele>
				<time>2025-07-12T17:01:01Z</time>
			</trkpt>
			<trkpt lat="42.797994" lon="24.972003">
				<ele>699.000000</ele>
				<time>2025-07-12T17:01:03Z</time>
			</trkpt>
			<trkpt lat="42.798039" lon="24.972069">
				<ele>698.000000</ele>
				<time>2025-07-12T17:01:09Z</time>
			</trkpt>
			<trkpt lat="42.798089" lon="24.972110">
				<ele>698.000000</ele>
				<time>2025-07-12T17:01:15Z</time>
			</trkpt>
			<trkpt lat="42.798115" lon="24.972112">
				<ele>697.000000</ele>
				<time>2025-07-12T17:01:18Z</time>
			</trkpt>
			<trkpt lat="42.798171" lon="24.972121">
				<ele>697.000000</ele>
				<time>2025-07-12T17:01:25Z</time>
			</trkpt>
			<trkpt lat="42.798198" lon="24.972126">
				<ele>697.000000</ele>
				<time>2025-07-12T17:01:28Z</time>
			</trkpt>
			<trkpt lat="42.798253" lon="24.972138">
				<ele>696.000000</ele>
				<time>2025-07-12T17:01:33Z</time>
			</trkpt>
			<trkpt lat="42.798330" lon="24.972146">
				<ele>696.000000</ele>
				<time>2025-07-12T17:01:40Z</time>
			</trkpt>
			<trkpt lat="42.798340" lon="24.972150">
				<ele>696.000000</ele>
				<time>2025-07-12T17:01:41Z</time>
			</trkpt>
			<trkpt lat="42.798392" lon="24.972161">
				<ele>695.000000</ele>
				<time>2025-07-12T17:01:46Z</time>
			</trkpt>
			<trkpt lat="42.798420" lon="24.972159">
				<ele>695.000000</ele>
				<time>2025-07-12T17:01:49Z</time>
			</trkpt>
			<trkpt lat="42.798429" lon="24.972157">
				<ele>694.000000</ele>
				<time>2025-07-12T17:01:50Z</time>
			</trkpt>
			<trkpt lat="42.798484" lon="24.972152">
				<ele>694.000000</ele>
				<time>2025-07-12T17:01:56Z</time>
			</trkpt>
			<trkpt lat="42.798503" lon="24.972154">
				<ele>694.000000</ele>
				<time>2025-07-12T17:01:58Z</time>
			</trkpt>
			<trkpt lat="42.798523" lon="24.972160">
				<ele>693.000000</ele>
				<time>2025-07-12T17:02:00Z</time>
			</trkpt>
			<trkpt lat="42.798583" lon="24.972179">
				<ele>693.000000</ele>
				<time>2025-07-12T17:02:06Z</time>
			</trkpt>
			<trkpt lat="42.798648" lon="24.972189">
				<ele>692.000000</ele>
				<time>2025-07-12T17:02:12Z</time>
			</trkpt>
			<trkpt lat="42.798677" lon="24.972189">
				<ele>692.000000</ele>
				<time>2025-07-12T17:02:15Z</time>
			</trkpt>
			<trkpt lat="42.798737" lon="24.972189">
				<ele>691.000000</ele>
				<time>2025-07-12T17:02:22Z</time>
			</trkpt>
			<trkpt lat="42.798746" lon="24.972185">
				<ele>691.000000</ele>
				<time>2025-07-12T17:02:23Z</time>
			</trkpt>
			<trkpt lat="42.798795" lon="24.972192">
				<ele>691.000000</ele>
				<time>2025-07-12T17:02:28Z</time>
			</trkpt>
			<trkpt lat="42.798863" lon="24.972224">
				<ele>690.000000</ele>
				<time>2025-07-12T17:02:35Z</time>
			</trkpt>
			<trkpt lat="42.798872" lon="24.972228">
				<ele>690.000000</ele>
				<time>2025-07-12T17:02:36Z</time>
			</trkpt>
			<trkpt lat="42.798942" lon="24.972259">
				<ele>689.000000</ele>
				<time>2025-07-12T17:02:44Z</time>
			</trkpt>
			<trkpt lat="42.798951" lon="24.972264">
				<ele>689.000000</ele>
				<time>2025-07-12T17:02:45Z</time>
			</trkpt>
			<trkpt lat="42.799006" lon="24.972293">
				<ele>688.000000</ele>
				<time>2025-07-12T17:02:51Z</time>
			</trkpt>
			<trkpt lat="42.799094" lon="24.972326">
				<ele>688.000000</ele>
				<time>2025-07-12T17:02:59Z</time>
			</trkpt>
			<trkpt lat="42.799103" lon="24.972336">
				<ele>688.000000</ele>
				<time>2025-07-12T17:03:01Z</time>
			</trkpt>
			<trkpt lat="42.799141" lon="24.972365">
				<ele>688.000000</ele>
				<time>2025-07-12T17:03:07Z</time>
			</trkpt>
			<trkpt lat="42.799221" lon="24.972411">
				<ele>688.000000</ele>
				<time>2025-07-12T17:03:14Z</time>
			</trkpt>
			<trkpt lat="42.799282" lon="24.972437">
				<ele>687.000000</ele>
				<time>2025-07-12T17:03:21Z</time>
			</trkpt>
			<trkpt lat="42.799353" lon="24.972464">
				<ele>687.000000</ele>
				<time>2025-07-12T17:03:28Z</time>
			</trkpt>
			<trkpt lat="42.799386" lon="24.972479">
				<ele>687.000000</ele>
				<time>2025-07-12T17:03:31Z</time>
			</trkpt>
			<trkpt lat="42.799435" lon="24.972492">
				<ele>687.000000</ele>
				<time>2025-07-12T17:03:35Z</time>
			</trkpt>
			<trkpt lat="42.799488" lon="24.972502">
				<ele>686.000000</ele>
				<time>2025-07-12T17:03:41Z</time>
			</trkpt>
			<trkpt lat="42.799536" lon="24.972509">
				<ele>686.000000</ele>
				<time>2025-07-12T17:03:45Z</time>
			</trkpt>
			<trkpt lat="42.799584" lon="24.972526">
				<ele>686.000000</ele>
				<time>2025-07-12T17:03:49Z</time>
			</trkpt>
			<trkpt lat="42.799632" lon="24.972557">
				<ele>686.000000</ele>
				<time>2025-07-12T17:03:56Z</time>
			</trkpt>
			<trkpt lat="42.799694" lon="24.972574">
				<ele>686.000000</ele>
				<time>2025-07-12T17:04:02Z</time>
			</trkpt>
			<trkpt lat="42.799704" lon="24.972576">
				<ele>686.000000</ele>
				<time>2025-07-12T17:04:03Z</time>
			</trkpt>
			<trkpt lat="42.799775" lon="24.972605">
				<ele>686.000000</ele>
				<time>2025-07-12T17:04:11Z</time>
			</trkpt>
			<trkpt lat="42.799834" lon="24.972616">
				<ele>685.000000</ele>
				<time>2025-07-12T17:04:17Z</time>
			</trkpt>
			<trkpt lat="42.799847" lon="24.972623">
				<ele>685.000000</ele>
				<time>2025-07-12T17:04:18Z</time>
			</trkpt>
			<trkpt lat="42.799912" lon="24.972657">
				<ele>685.000000</ele>
				<time>2025-07-12T17:04:24Z</time>
			</trkpt>
			<trkpt lat="42.799936" lon="24.972671">
				<ele>685.000000</ele>
				<time>2025-07-12T17:04:27Z</time>
			</trkpt>
			<trkpt lat="42.799995" lon="24.972700">
				<ele>684.000000</ele>
				<time>2025-07-12T17:04:33Z</time>
			</trkpt>
			<trkpt lat="42.800056" lon="24.972738">
				<ele>684.000000</ele>
				<time>2025-07-12T17:04:40Z</time>
			</trkpt>
			<trkpt lat="42.800094" lon="24.972746">
				<ele>684.000000</ele>
				<time>2025-07-12T17:04:45Z</time>
			</trkpt>
			<trkpt lat="42.800100" lon="24.972749">
				<ele>684.000000</ele>
				<time>2025-07-12T17:04:46Z</time>
			</trkpt>
			<trkpt lat="42.800164" lon="24.972793">
				<ele>683.000000</ele>
				<time>2025-07-12T17:04:54Z</time>
			</trkpt>
			<trkpt lat="42.800201" lon="24.972810">
				<ele>683.000000</ele>
				<time>2025-07-12T17:04:59Z</time>
			</trkpt>
			<trkpt lat="42.800294" lon="24.972837">
				<ele>683.000000</ele>
				<time>2025-07-12T17:05:08Z</time>
			</trkpt>
			<trkpt lat="42.800332" lon="24.972842">
				<ele>683.000000</ele>
				<time>2025-07-12T17:05:11Z</time>
			</trkpt>
			<trkpt lat="42.800377" lon="24.972842">
				<ele>683.000000</ele>
				<time>2025-07-12T17:05:16Z</time>
			</trkpt>
			<trkpt lat="42.800439" lon="24.972875">
				<ele>682.000000</ele>
				<time>2025-07-12T17:05:25Z</time>
			</trkpt>
			<trkpt lat="42.800507" lon="24.972920">
				<ele>682.000000</ele>
				<time>2025-07-12T17:05:32Z</time>
			</trkpt>
			<trkpt lat="42.800549" lon="24.972932">
				<ele>682.000000</ele>
				<time>2025-07-12T17:05:36Z</time>
			</trkpt>
			<trkpt lat="42.800561" lon="24.972938">
				<ele>681.000000</ele>
				<time>2025-07-12T17:05:39Z</time>
			</trkpt>
			<trkpt lat="42.800595" lon="24.972973">
				<ele>681.000000</ele>
				<time>2025-07-12T17:05:46Z</time>
			</trkpt>
			<trkpt lat="42.800671" lon="24.972991">
				<ele>681.000000</ele>
				<time>2025-07-12T17:05:53Z</time>
			</trkpt>
			<trkpt lat="42.800682" lon="24.972994">
				<ele>681.000000</ele>
				<time>2025-07-12T17:05:54Z</time>
			</trkpt>
			<trkpt lat="42.800750" lon="24.973018">
				<ele>680.000000</ele>
				<time>2025-07-12T17:06:02Z</time>
			</trkpt>
			<trkpt lat="42.800806" lon="24.973050">
				<ele>680.000000</ele>
				<time>2025-07-12T17:06:08Z</time>
			</trkpt>
			<trkpt lat="42.800838" lon="24.973065">
				<ele>679.000000</ele>
				<time>2025-07-12T17:06:11Z</time>
			</trkpt>
			<trkpt lat="42.800913" lon="24.973095">
				<ele>679.000000</ele>
				<time>2025-07-12T17:06:19Z</time>
			</trkpt>
			<trkpt lat="42.800997" lon="24.973119">
				<ele>679.000000</ele>
				<time>2025-07-12T17:06:26Z</time>
			</trkpt>
			<trkpt lat="42.801031" lon="24.973136">
				<ele>679.000000</ele>
				<time>2025-07-12T17:06:29Z</time>
			</trkpt>
			<trkpt lat="42.801103" lon="24.973183">
				<ele>679.000000</ele>
				<time>2025-07-12T17:06:36Z</time>
			</trkpt>
			<trkpt lat="42.801120" lon="24.973183">
				<ele>679.000000</ele>
				<time>2025-07-12T17:06:38Z</time>
			</trkpt>
			<trkpt lat="42.801151" lon="24.973203">
				<ele>678.000000</ele>
				<time>2025-07-12T17:06:43Z</time>
			</trkpt>
			<trkpt lat="42.801222" lon="24.973235">
				<ele>678.000000</ele>
				<time>2025-07-12T17:06:50Z</time>
			</trkpt>
			<trkpt lat="42.801252" lon="24.973241">
				<ele>678.000000</ele>
				<time>2025-07-12T17:06:53Z</time>
			</trkpt>
			<trkpt lat="42.801305" lon="24.973252">
				<ele>677.000000</ele>
				<time>2025-07-12T17:06:57Z</time>
			</trkpt>
			<trkpt lat="42.801346" lon="24.973258">
				<ele>677.000000</ele>
				<time>2025-07-12T17:07:03Z</time>
			</trkpt>
			<trkpt lat="42.801406" lon="24.973297">
				<ele>677.000000</ele>
				<time>2025-07-12T17:07:10Z</time>
			</trkpt>
			<trkpt lat="42.801452" lon="24.973309">
				<ele>677.000000</ele>
				<time>2025-07-12T17:07:15Z</time>
			</trkpt>
			<trkpt lat="42.801488" lon="24.973311">
				<ele>676.000000</ele>
				<time>2025-07-12T17:07:18Z</time>
			</trkpt>
			<trkpt lat="42.801500" lon="24.973290">
				<ele>676.000000</ele>
				<time>2025-07-12T17:07:24Z</time>
			</trkpt>
			<trkpt lat="42.801495" lon="24.973286">
				<ele>676.000000</ele>
				<time>2025-07-12T17:07:27Z</time>
			</trkpt>
			<trkpt lat="42.801511" lon="24.973286">
				<ele>676.000000</ele>
				<time>2025-07-12T17:07:30Z</time>
			</trkpt>
			<trkpt lat="42.801554" lon="24.973289">
				<ele>676.000000</ele>
				<time>2025-07-12T17:07:37Z</time>
			</trkpt>
			<trkpt lat="42.801563" lon="24.973286">
				<ele>676.000000</ele>
				<time>2025-07-12T17:07:38Z</time>
			</trkpt>
			<trkpt lat="42.801584" lon="24.973290">
				<ele>676.000000</ele>
				<time>2025-07-12T17:07:40Z</time>
			</trkpt>
		</trkseg>
	</trk>
</gpx>

